
<gpx xmlns="http://www.topografix.com/GPX/1/1" xmlns:gpxx="http://www.garmin.com/xmlschemas/GpxExtensions/v3" xmlns:xsi="http://www.w3.org/2001/XMLSchema-instance" version="1.1" creator="Adze - https://getadze.com/" xsi:schemaLocation="http://www.topografix.com/GPX/1/1 http://www.topografix.com/GPX/1/1/gpx.xsd http://www.garmin.com/xmlschemas/GpxExtensions/v3 http://www.garmin.com/xmlschemas/GpxExtensionsv3.xsd">
    <metadata>
        <name>Untitled Document</name>
        <link href="https://www.strava.com/activities/2566776278/"></link>
        <time>2019-08-01T00:20:32.398Z</time>
    </metadata>
    <trk>
        <name>July 2019 - Saturday</name>
        <type>Ride</type>
        <extensions>
            <gpxx:TrackExtension>
                <gpxx:DisplayColor>DarkMagenta</gpxx:DisplayColor>
            </gpxx:TrackExtension>
        </extensions>
        <trkseg>
            <trkpt lon="101.384049" lat="14.196411">
                <ele>23.000000</ele>
                <time>1970-01-01T00:00:00Z</time>
            </trkpt>
            <trkpt lon="101.384066" lat="14.196384">
                <ele>22.900000</ele>
                <time>1970-01-01T00:00:20Z</time>
            </trkpt>
            <trkpt lon="101.384075" lat="14.196352">
                <ele>22.800000</ele>
                <time>1970-01-01T00:00:23Z</time>
            </trkpt>
            <trkpt lon="101.384088" lat="14.196323">
                <ele>22.700000</ele>
                <time>1970-01-01T00:00:26Z</time>
            </trkpt>
            <trkpt lon="101.384093" lat="14.196272">
                <ele>22.500000</ele>
                <time>1970-01-01T00:00:28Z</time>
            </trkpt>
            <trkpt lon="101.384095" lat="14.196243">
                <ele>22.400000</ele>
                <time>1970-01-01T00:00:29Z</time>
            </trkpt>
            <trkpt lon="101.384104" lat="14.196216">
                <ele>22.300000</ele>
                <time>1970-01-01T00:00:30Z</time>
            </trkpt>
            <trkpt lon="101.384129" lat="14.196169">
                <ele>22.100000</ele>
                <time>1970-01-01T00:00:32Z</time>
            </trkpt>
            <trkpt lon="101.384152" lat="14.196143">
                <ele>22.000000</ele>
                <time>1970-01-01T00:00:33Z</time>
            </trkpt>
            <trkpt lon="101.384185" lat="14.196125">
                <ele>21.900000</ele>
                <time>1970-01-01T00:00:34Z</time>
            </trkpt>
            <trkpt lon="101.384223" lat="14.196118">
                <ele>21.800000</ele>
                <time>1970-01-01T00:00:35Z</time>
            </trkpt>
            <trkpt lon="101.384264" lat="14.196119">
                <ele>21.700000</ele>
                <time>1970-01-01T00:00:36Z</time>
            </trkpt>
            <trkpt lon="101.384304" lat="14.196124">
                <ele>21.600000</ele>
                <time>1970-01-01T00:00:37Z</time>
            </trkpt>
            <trkpt lon="101.384343" lat="14.196128">
                <ele>21.600000</ele>
                <time>1970-01-01T00:00:38Z</time>
            </trkpt>
            <trkpt lon="101.384381" lat="14.196131">
                <ele>21.500000</ele>
                <time>1970-01-01T00:00:39Z</time>
            </trkpt>
            <trkpt lon="101.384417" lat="14.196134">
                <ele>21.500000</ele>
                <time>1970-01-01T00:00:40Z</time>
            </trkpt>
            <trkpt lon="101.384450" lat="14.196136">
                <ele>21.400000</ele>
                <time>1970-01-01T00:00:41Z</time>
            </trkpt>
            <trkpt lon="101.384480" lat="14.196137">
                <ele>21.400000</ele>
                <time>1970-01-01T00:00:42Z</time>
            </trkpt>
            <trkpt lon="101.384510" lat="14.196134">
                <ele>21.400000</ele>
                <time>1970-01-01T00:00:43Z</time>
            </trkpt>
            <trkpt lon="101.384540" lat="14.196126">
                <ele>21.300000</ele>
                <time>1970-01-01T00:00:44Z</time>
            </trkpt>
            <trkpt lon="101.384568" lat="14.196116">
                <ele>21.300000</ele>
                <time>1970-01-01T00:00:45Z</time>
            </trkpt>
            <trkpt lon="101.384591" lat="14.196093">
                <ele>21.300000</ele>
                <time>1970-01-01T00:00:46Z</time>
            </trkpt>
            <trkpt lon="101.384618" lat="14.196087">
                <ele>21.200000</ele>
                <time>1970-01-01T00:00:47Z</time>
            </trkpt>
            <trkpt lon="101.384651" lat="14.196092">
                <ele>21.200000</ele>
                <time>1970-01-01T00:00:48Z</time>
            </trkpt>
            <trkpt lon="101.384687" lat="14.196102">
                <ele>21.100000</ele>
                <time>1970-01-01T00:00:49Z</time>
            </trkpt>
            <trkpt lon="101.384712" lat="14.196122">
                <ele>21.100000</ele>
                <time>1970-01-01T00:00:50Z</time>
            </trkpt>
            <trkpt lon="101.384739" lat="14.196143">
                <ele>21.100000</ele>
                <time>1970-01-01T00:00:51Z</time>
            </trkpt>
            <trkpt lon="101.384769" lat="14.196170">
                <ele>21.100000</ele>
                <time>1970-01-01T00:00:52Z</time>
            </trkpt>
            <trkpt lon="101.384800" lat="14.196197">
                <ele>21.100000</ele>
                <time>1970-01-01T00:00:53Z</time>
            </trkpt>
            <trkpt lon="101.384825" lat="14.196226">
                <ele>21.100000</ele>
                <time>1970-01-01T00:00:54Z</time>
            </trkpt>
            <trkpt lon="101.384850" lat="14.196255">
                <ele>21.000000</ele>
                <time>1970-01-01T00:00:55Z</time>
            </trkpt>
            <trkpt lon="101.384877" lat="14.196282">
                <ele>21.000000</ele>
                <time>1970-01-01T00:00:56Z</time>
            </trkpt>
            <trkpt lon="101.384904" lat="14.196312">
                <ele>21.000000</ele>
                <time>1970-01-01T00:00:57Z</time>
            </trkpt>
            <trkpt lon="101.384927" lat="14.196336">
                <ele>21.000000</ele>
                <time>1970-01-01T00:00:58Z</time>
            </trkpt>
            <trkpt lon="101.384952" lat="14.196360">
                <ele>21.000000</ele>
                <time>1970-01-01T00:00:59Z</time>
            </trkpt>
            <trkpt lon="101.384978" lat="14.196386">
                <ele>21.000000</ele>
                <time>1970-01-01T00:01:00Z</time>
            </trkpt>
            <trkpt lon="101.385005" lat="14.196416">
                <ele>21.000000</ele>
                <time>1970-01-01T00:01:01Z</time>
            </trkpt>
            <trkpt lon="101.385031" lat="14.196448">
                <ele>21.000000</ele>
                <time>1970-01-01T00:01:02Z</time>
            </trkpt>
            <trkpt lon="101.385057" lat="14.196477">
                <ele>21.000000</ele>
                <time>1970-01-01T00:01:03Z</time>
            </trkpt>
            <trkpt lon="101.385082" lat="14.196505">
                <ele>21.000000</ele>
                <time>1970-01-01T00:01:04Z</time>
            </trkpt>
            <trkpt lon="101.385108" lat="14.196534">
                <ele>21.000000</ele>
                <time>1970-01-01T00:01:05Z</time>
            </trkpt>
            <trkpt lon="101.385137" lat="14.196564">
                <ele>21.000000</ele>
                <time>1970-01-01T00:01:06Z</time>
            </trkpt>
            <trkpt lon="101.385164" lat="14.196595">
                <ele>21.000000</ele>
                <time>1970-01-01T00:01:07Z</time>
            </trkpt>
            <trkpt lon="101.385188" lat="14.196623">
                <ele>21.000000</ele>
                <time>1970-01-01T00:01:08Z</time>
            </trkpt>
            <trkpt lon="101.385216" lat="14.196655">
                <ele>21.000000</ele>
                <time>1970-01-01T00:01:09Z</time>
            </trkpt>
            <trkpt lon="101.385244" lat="14.196685">
                <ele>21.000000</ele>
                <time>1970-01-01T00:01:10Z</time>
            </trkpt>
            <trkpt lon="101.385272" lat="14.196715">
                <ele>21.000000</ele>
                <time>1970-01-01T00:01:11Z</time>
            </trkpt>
            <trkpt lon="101.385302" lat="14.196746">
                <ele>21.000000</ele>
                <time>1970-01-01T00:01:12Z</time>
            </trkpt>
            <trkpt lon="101.385332" lat="14.196775">
                <ele>21.000000</ele>
                <time>1970-01-01T00:01:13Z</time>
            </trkpt>
            <trkpt lon="101.385361" lat="14.196805">
                <ele>21.000000</ele>
                <time>1970-01-01T00:01:14Z</time>
            </trkpt>
            <trkpt lon="101.385389" lat="14.196832">
                <ele>21.000000</ele>
                <time>1970-01-01T00:01:15Z</time>
            </trkpt>
            <trkpt lon="101.385418" lat="14.196859">
                <ele>21.000000</ele>
                <time>1970-01-01T00:01:16Z</time>
            </trkpt>
            <trkpt lon="101.385447" lat="14.196886">
                <ele>21.000000</ele>
                <time>1970-01-01T00:01:17Z</time>
            </trkpt>
            <trkpt lon="101.385476" lat="14.196913">
                <ele>21.000000</ele>
                <time>1970-01-01T00:01:18Z</time>
            </trkpt>
            <trkpt lon="101.385499" lat="14.196939">
                <ele>21.000000</ele>
                <time>1970-01-01T00:01:19Z</time>
            </trkpt>
            <trkpt lon="101.385520" lat="14.196966">
                <ele>21.000000</ele>
                <time>1970-01-01T00:01:20Z</time>
            </trkpt>
            <trkpt lon="101.385542" lat="14.196994">
                <ele>21.000000</ele>
                <time>1970-01-01T00:01:21Z</time>
            </trkpt>
            <trkpt lon="101.385566" lat="14.197019">
                <ele>21.000000</ele>
                <time>1970-01-01T00:01:22Z</time>
            </trkpt>
            <trkpt lon="101.385589" lat="14.197042">
                <ele>21.000000</ele>
                <time>1970-01-01T00:01:23Z</time>
            </trkpt>
            <trkpt lon="101.385616" lat="14.197067">
                <ele>21.000000</ele>
                <time>1970-01-01T00:01:24Z</time>
            </trkpt>
            <trkpt lon="101.385642" lat="14.197094">
                <ele>21.000000</ele>
                <time>1970-01-01T00:01:25Z</time>
            </trkpt>
            <trkpt lon="101.385669" lat="14.197120">
                <ele>21.000000</ele>
                <time>1970-01-01T00:01:26Z</time>
            </trkpt>
            <trkpt lon="101.385696" lat="14.197149">
                <ele>21.000000</ele>
                <time>1970-01-01T00:01:27Z</time>
            </trkpt>
            <trkpt lon="101.385722" lat="14.197177">
                <ele>21.000000</ele>
                <time>1970-01-01T00:01:28Z</time>
            </trkpt>
            <trkpt lon="101.385749" lat="14.197208">
                <ele>21.100000</ele>
                <time>1970-01-01T00:01:29Z</time>
            </trkpt>
            <trkpt lon="101.385778" lat="14.197243">
                <ele>21.100000</ele>
                <time>1970-01-01T00:01:30Z</time>
            </trkpt>
            <trkpt lon="101.385808" lat="14.197278">
                <ele>21.100000</ele>
                <time>1970-01-01T00:01:31Z</time>
            </trkpt>
            <trkpt lon="101.385838" lat="14.197311">
                <ele>21.100000</ele>
                <time>1970-01-01T00:01:32Z</time>
            </trkpt>
            <trkpt lon="101.385871" lat="14.197348">
                <ele>21.100000</ele>
                <time>1970-01-01T00:01:33Z</time>
            </trkpt>
            <trkpt lon="101.385914" lat="14.197392">
                <ele>21.100000</ele>
                <time>1970-01-01T00:01:34Z</time>
            </trkpt>
            <trkpt lon="101.385956" lat="14.197430">
                <ele>21.100000</ele>
                <time>1970-01-01T00:01:35Z</time>
            </trkpt>
            <trkpt lon="101.385999" lat="14.197457">
                <ele>21.100000</ele>
                <time>1970-01-01T00:01:36Z</time>
            </trkpt>
            <trkpt lon="101.386040" lat="14.197488">
                <ele>21.100000</ele>
                <time>1970-01-01T00:01:37Z</time>
            </trkpt>
            <trkpt lon="101.386060" lat="14.197514">
                <ele>21.100000</ele>
                <time>1970-01-01T00:01:38Z</time>
            </trkpt>
            <trkpt lon="101.386087" lat="14.197546">
                <ele>21.100000</ele>
                <time>1970-01-01T00:01:39Z</time>
            </trkpt>
            <trkpt lon="101.386123" lat="14.197575">
                <ele>21.100000</ele>
                <time>1970-01-01T00:01:40Z</time>
            </trkpt>
            <trkpt lon="101.386160" lat="14.197599">
                <ele>21.100000</ele>
                <time>1970-01-01T00:01:41Z</time>
            </trkpt>
            <trkpt lon="101.386187" lat="14.197628">
                <ele>21.100000</ele>
                <time>1970-01-01T00:01:42Z</time>
            </trkpt>
            <trkpt lon="101.386223" lat="14.197661">
                <ele>21.100000</ele>
                <time>1970-01-01T00:01:43Z</time>
            </trkpt>
            <trkpt lon="101.386264" lat="14.197677">
                <ele>21.100000</ele>
                <time>1970-01-01T00:01:44Z</time>
            </trkpt>
            <trkpt lon="101.386297" lat="14.197707">
                <ele>21.100000</ele>
                <time>1970-01-01T00:01:45Z</time>
            </trkpt>
            <trkpt lon="101.386324" lat="14.197740">
                <ele>21.100000</ele>
                <time>1970-01-01T00:01:46Z</time>
            </trkpt>
            <trkpt lon="101.386361" lat="14.197765">
                <ele>21.100000</ele>
                <time>1970-01-01T00:01:47Z</time>
            </trkpt>
            <trkpt lon="101.386391" lat="14.197800">
                <ele>21.100000</ele>
                <time>1970-01-01T00:01:48Z</time>
            </trkpt>
            <trkpt lon="101.386418" lat="14.197828">
                <ele>21.100000</ele>
                <time>1970-01-01T00:01:49Z</time>
            </trkpt>
            <trkpt lon="101.386439" lat="14.197855">
                <ele>21.100000</ele>
                <time>1970-01-01T00:01:50Z</time>
            </trkpt>
            <trkpt lon="101.386467" lat="14.197882">
                <ele>21.100000</ele>
                <time>1970-01-01T00:01:51Z</time>
            </trkpt>
            <trkpt lon="101.386494" lat="14.197910">
                <ele>21.100000</ele>
                <time>1970-01-01T00:01:52Z</time>
            </trkpt>
            <trkpt lon="101.386526" lat="14.197940">
                <ele>21.100000</ele>
                <time>1970-01-01T00:01:53Z</time>
            </trkpt>
            <trkpt lon="101.386553" lat="14.197968">
                <ele>21.100000</ele>
                <time>1970-01-01T00:01:54Z</time>
            </trkpt>
            <trkpt lon="101.386580" lat="14.197999">
                <ele>21.100000</ele>
                <time>1970-01-01T00:01:55Z</time>
            </trkpt>
            <trkpt lon="101.386600" lat="14.198024">
                <ele>21.100000</ele>
                <time>1970-01-01T00:01:56Z</time>
            </trkpt>
            <trkpt lon="101.386628" lat="14.198049">
                <ele>21.100000</ele>
                <time>1970-01-01T00:01:57Z</time>
            </trkpt>
            <trkpt lon="101.386655" lat="14.198076">
                <ele>21.100000</ele>
                <time>1970-01-01T00:01:58Z</time>
            </trkpt>
            <trkpt lon="101.386684" lat="14.198102">
                <ele>21.100000</ele>
                <time>1970-01-01T00:01:59Z</time>
            </trkpt>
            <trkpt lon="101.386716" lat="14.198123">
                <ele>21.100000</ele>
                <time>1970-01-01T00:02:00Z</time>
            </trkpt>
            <trkpt lon="101.386750" lat="14.198141">
                <ele>21.100000</ele>
                <time>1970-01-01T00:02:01Z</time>
            </trkpt>
            <trkpt lon="101.386783" lat="14.198155">
                <ele>21.100000</ele>
                <time>1970-01-01T00:02:02Z</time>
            </trkpt>
            <trkpt lon="101.386811" lat="14.198168">
                <ele>21.100000</ele>
                <time>1970-01-01T00:02:03Z</time>
            </trkpt>
            <trkpt lon="101.386852" lat="14.198196">
                <ele>21.100000</ele>
                <time>1970-01-01T00:02:05Z</time>
            </trkpt>
            <trkpt lon="101.386883" lat="14.198227">
                <ele>21.100000</ele>
                <time>1970-01-01T00:02:07Z</time>
            </trkpt>
            <trkpt lon="101.386901" lat="14.198253">
                <ele>21.100000</ele>
                <time>1970-01-01T00:02:09Z</time>
            </trkpt>
            <trkpt lon="101.386905" lat="14.198298">
                <ele>21.100000</ele>
                <time>1970-01-01T00:02:32Z</time>
            </trkpt>
            <trkpt lon="101.386912" lat="14.198347">
                <ele>21.100000</ele>
                <time>1970-01-01T00:02:34Z</time>
            </trkpt>
            <trkpt lon="101.386925" lat="14.198370">
                <ele>21.100000</ele>
                <time>1970-01-01T00:02:35Z</time>
            </trkpt>
            <trkpt lon="101.386969" lat="14.198389">
                <ele>21.100000</ele>
                <time>1970-01-01T00:02:37Z</time>
            </trkpt>
            <trkpt lon="101.386984" lat="14.198357">
                <ele>21.100000</ele>
                <time>1970-01-01T00:02:39Z</time>
            </trkpt>
            <trkpt lon="101.386972" lat="14.198325">
                <ele>21.100000</ele>
                <time>1970-01-01T00:02:43Z</time>
            </trkpt>
            <trkpt lon="101.386968" lat="14.198298">
                <ele>21.300000</ele>
                <time>1970-01-01T00:03:16Z</time>
            </trkpt>
            <trkpt lon="101.386979" lat="14.198269">
                <ele>21.400000</ele>
                <time>1970-01-01T00:03:17Z</time>
            </trkpt>
            <trkpt lon="101.387006" lat="14.198229">
                <ele>21.400000</ele>
                <time>1970-01-01T00:03:18Z</time>
            </trkpt>
            <trkpt lon="101.387034" lat="14.198195">
                <ele>21.500000</ele>
                <time>1970-01-01T00:03:19Z</time>
            </trkpt>
            <trkpt lon="101.387054" lat="14.198173">
                <ele>21.500000</ele>
                <time>1970-01-01T00:03:20Z</time>
            </trkpt>
            <trkpt lon="101.387077" lat="14.198149">
                <ele>21.600000</ele>
                <time>1970-01-01T00:03:22Z</time>
            </trkpt>
            <trkpt lon="101.387107" lat="14.198109">
                <ele>21.800000</ele>
                <time>1970-01-01T00:03:24Z</time>
            </trkpt>
            <trkpt lon="101.387120" lat="14.198057">
                <ele>21.400000</ele>
                <time>1970-01-01T00:03:26Z</time>
            </trkpt>
            <trkpt lon="101.387124" lat="14.198003">
                <ele>21.000000</ele>
                <time>1970-01-01T00:03:28Z</time>
            </trkpt>
            <trkpt lon="101.387131" lat="14.197974">
                <ele>20.500000</ele>
                <time>1970-01-01T00:03:29Z</time>
            </trkpt>
            <trkpt lon="101.387142" lat="14.197946">
                <ele>20.000000</ele>
                <time>1970-01-01T00:03:30Z</time>
            </trkpt>
            <trkpt lon="101.387158" lat="14.197916">
                <ele>20.000000</ele>
                <time>1970-01-01T00:03:31Z</time>
            </trkpt>
            <trkpt lon="101.387180" lat="14.197883">
                <ele>19.600000</ele>
                <time>1970-01-01T00:03:32Z</time>
            </trkpt>
            <trkpt lon="101.387191" lat="14.197851">
                <ele>19.300000</ele>
                <time>1970-01-01T00:03:33Z</time>
            </trkpt>
            <trkpt lon="101.387204" lat="14.197825">
                <ele>19.100000</ele>
                <time>1970-01-01T00:03:34Z</time>
            </trkpt>
            <trkpt lon="101.387228" lat="14.197797">
                <ele>19.100000</ele>
                <time>1970-01-01T00:03:35Z</time>
            </trkpt>
            <trkpt lon="101.387246" lat="14.197765">
                <ele>18.900000</ele>
                <time>1970-01-01T00:03:36Z</time>
            </trkpt>
            <trkpt lon="101.387269" lat="14.197733">
                <ele>18.800000</ele>
                <time>1970-01-01T00:03:37Z</time>
            </trkpt>
            <trkpt lon="101.387288" lat="14.197692">
                <ele>18.700000</ele>
                <time>1970-01-01T00:03:38Z</time>
            </trkpt>
            <trkpt lon="101.387297" lat="14.197661">
                <ele>18.700000</ele>
                <time>1970-01-01T00:03:39Z</time>
            </trkpt>
            <trkpt lon="101.387329" lat="14.197629">
                <ele>18.800000</ele>
                <time>1970-01-01T00:03:40Z</time>
            </trkpt>
            <trkpt lon="101.387356" lat="14.197595">
                <ele>18.800000</ele>
                <time>1970-01-01T00:03:41Z</time>
            </trkpt>
            <trkpt lon="101.387380" lat="14.197556">
                <ele>19.000000</ele>
                <time>1970-01-01T00:03:42Z</time>
            </trkpt>
            <trkpt lon="101.387405" lat="14.197518">
                <ele>19.200000</ele>
                <time>1970-01-01T00:03:43Z</time>
            </trkpt>
            <trkpt lon="101.387430" lat="14.197475">
                <ele>19.800000</ele>
                <time>1970-01-01T00:03:44Z</time>
            </trkpt>
            <trkpt lon="101.387453" lat="14.197438">
                <ele>20.000000</ele>
                <time>1970-01-01T00:03:45Z</time>
            </trkpt>
            <trkpt lon="101.387482" lat="14.197403">
                <ele>20.400000</ele>
                <time>1970-01-01T00:03:46Z</time>
            </trkpt>
            <trkpt lon="101.387519" lat="14.197367">
                <ele>20.700000</ele>
                <time>1970-01-01T00:03:47Z</time>
            </trkpt>
            <trkpt lon="101.387550" lat="14.197337">
                <ele>20.900000</ele>
                <time>1970-01-01T00:03:48Z</time>
            </trkpt>
            <trkpt lon="101.387577" lat="14.197304">
                <ele>20.900000</ele>
                <time>1970-01-01T00:03:49Z</time>
            </trkpt>
            <trkpt lon="101.387615" lat="14.197266">
                <ele>21.000000</ele>
                <time>1970-01-01T00:03:50Z</time>
            </trkpt>
            <trkpt lon="101.387653" lat="14.197240">
                <ele>21.000000</ele>
                <time>1970-01-01T00:03:51Z</time>
            </trkpt>
            <trkpt lon="101.387684" lat="14.197213">
                <ele>21.000000</ele>
                <time>1970-01-01T00:03:52Z</time>
            </trkpt>
            <trkpt lon="101.387712" lat="14.197179">
                <ele>20.900000</ele>
                <time>1970-01-01T00:03:53Z</time>
            </trkpt>
            <trkpt lon="101.387741" lat="14.197156">
                <ele>20.900000</ele>
                <time>1970-01-01T00:03:54Z</time>
            </trkpt>
            <trkpt lon="101.387773" lat="14.197134">
                <ele>21.000000</ele>
                <time>1970-01-01T00:03:55Z</time>
            </trkpt>
            <trkpt lon="101.387819" lat="14.197112">
                <ele>21.200000</ele>
                <time>1970-01-01T00:03:57Z</time>
            </trkpt>
            <trkpt lon="101.387846" lat="14.197087">
                <ele>21.500000</ele>
                <time>1970-01-01T00:03:58Z</time>
            </trkpt>
            <trkpt lon="101.387879" lat="14.197076">
                <ele>21.600000</ele>
                <time>1970-01-01T00:03:59Z</time>
            </trkpt>
            <trkpt lon="101.387910" lat="14.197063">
                <ele>21.900000</ele>
                <time>1970-01-01T00:04:00Z</time>
            </trkpt>
            <trkpt lon="101.387954" lat="14.197058">
                <ele>22.000000</ele>
                <time>1970-01-01T00:04:01Z</time>
            </trkpt>
            <trkpt lon="101.387994" lat="14.197053">
                <ele>22.100000</ele>
                <time>1970-01-01T00:04:02Z</time>
            </trkpt>
            <trkpt lon="101.388042" lat="14.197047">
                <ele>22.000000</ele>
                <time>1970-01-01T00:04:03Z</time>
            </trkpt>
            <trkpt lon="101.388093" lat="14.197032">
                <ele>21.900000</ele>
                <time>1970-01-01T00:04:04Z</time>
            </trkpt>
            <trkpt lon="101.388144" lat="14.197026">
                <ele>21.900000</ele>
                <time>1970-01-01T00:04:05Z</time>
            </trkpt>
            <trkpt lon="101.388193" lat="14.197017">
                <ele>21.900000</ele>
                <time>1970-01-01T00:04:06Z</time>
            </trkpt>
            <trkpt lon="101.388245" lat="14.197010">
                <ele>21.900000</ele>
                <time>1970-01-01T00:04:07Z</time>
            </trkpt>
            <trkpt lon="101.388298" lat="14.197004">
                <ele>22.000000</ele>
                <time>1970-01-01T00:04:08Z</time>
            </trkpt>
            <trkpt lon="101.388351" lat="14.197003">
                <ele>22.000000</ele>
                <time>1970-01-01T00:04:09Z</time>
            </trkpt>
            <trkpt lon="101.388397" lat="14.197002">
                <ele>22.000000</ele>
                <time>1970-01-01T00:04:10Z</time>
            </trkpt>
            <trkpt lon="101.388449" lat="14.197006">
                <ele>21.900000</ele>
                <time>1970-01-01T00:04:11Z</time>
            </trkpt>
            <trkpt lon="101.388492" lat="14.196995">
                <ele>21.700000</ele>
                <time>1970-01-01T00:04:12Z</time>
            </trkpt>
            <trkpt lon="101.388526" lat="14.196984">
                <ele>21.800000</ele>
                <time>1970-01-01T00:04:13Z</time>
            </trkpt>
            <trkpt lon="101.388574" lat="14.196967">
                <ele>21.700000</ele>
                <time>1970-01-01T00:04:14Z</time>
            </trkpt>
            <trkpt lon="101.388615" lat="14.196961">
                <ele>21.700000</ele>
                <time>1970-01-01T00:04:15Z</time>
            </trkpt>
            <trkpt lon="101.388660" lat="14.196952">
                <ele>21.900000</ele>
                <time>1970-01-01T00:04:16Z</time>
            </trkpt>
            <trkpt lon="101.388700" lat="14.196948">
                <ele>21.900000</ele>
                <time>1970-01-01T00:04:17Z</time>
            </trkpt>
            <trkpt lon="101.388747" lat="14.196939">
                <ele>21.900000</ele>
                <time>1970-01-01T00:04:18Z</time>
            </trkpt>
            <trkpt lon="101.388799" lat="14.196940">
                <ele>21.900000</ele>
                <time>1970-01-01T00:04:19Z</time>
            </trkpt>
            <trkpt lon="101.388852" lat="14.196935">
                <ele>22.000000</ele>
                <time>1970-01-01T00:04:20Z</time>
            </trkpt>
            <trkpt lon="101.388904" lat="14.196937">
                <ele>22.000000</ele>
                <time>1970-01-01T00:04:21Z</time>
            </trkpt>
            <trkpt lon="101.388958" lat="14.196929">
                <ele>22.000000</ele>
                <time>1970-01-01T00:04:22Z</time>
            </trkpt>
            <trkpt lon="101.389002" lat="14.196912">
                <ele>22.000000</ele>
                <time>1970-01-01T00:04:23Z</time>
            </trkpt>
            <trkpt lon="101.389048" lat="14.196907">
                <ele>21.800000</ele>
                <time>1970-01-01T00:04:24Z</time>
            </trkpt>
            <trkpt lon="101.389095" lat="14.196898">
                <ele>21.800000</ele>
                <time>1970-01-01T00:04:25Z</time>
            </trkpt>
            <trkpt lon="101.389137" lat="14.196895">
                <ele>21.800000</ele>
                <time>1970-01-01T00:04:26Z</time>
            </trkpt>
            <trkpt lon="101.389182" lat="14.196894">
                <ele>21.800000</ele>
                <time>1970-01-01T00:04:27Z</time>
            </trkpt>
            <trkpt lon="101.389231" lat="14.196893">
                <ele>21.800000</ele>
                <time>1970-01-01T00:04:28Z</time>
            </trkpt>
            <trkpt lon="101.389262" lat="14.196884">
                <ele>21.900000</ele>
                <time>1970-01-01T00:04:29Z</time>
            </trkpt>
            <trkpt lon="101.389309" lat="14.196874">
                <ele>21.900000</ele>
                <time>1970-01-01T00:04:30Z</time>
            </trkpt>
            <trkpt lon="101.389362" lat="14.196868">
                <ele>21.600000</ele>
                <time>1970-01-01T00:04:31Z</time>
            </trkpt>
            <trkpt lon="101.389408" lat="14.196863">
                <ele>21.500000</ele>
                <time>1970-01-01T00:04:32Z</time>
            </trkpt>
            <trkpt lon="101.389454" lat="14.196851">
                <ele>21.300000</ele>
                <time>1970-01-01T00:04:33Z</time>
            </trkpt>
            <trkpt lon="101.389495" lat="14.196834">
                <ele>21.100000</ele>
                <time>1970-01-01T00:04:34Z</time>
            </trkpt>
            <trkpt lon="101.389537" lat="14.196812">
                <ele>20.400000</ele>
                <time>1970-01-01T00:04:35Z</time>
            </trkpt>
            <trkpt lon="101.389576" lat="14.196779">
                <ele>20.000000</ele>
                <time>1970-01-01T00:04:36Z</time>
            </trkpt>
            <trkpt lon="101.389600" lat="14.196741">
                <ele>19.800000</ele>
                <time>1970-01-01T00:04:37Z</time>
            </trkpt>
            <trkpt lon="101.389612" lat="14.196695">
                <ele>19.800000</ele>
                <time>1970-01-01T00:04:38Z</time>
            </trkpt>
            <trkpt lon="101.389621" lat="14.196644">
                <ele>19.900000</ele>
                <time>1970-01-01T00:04:39Z</time>
            </trkpt>
            <trkpt lon="101.389606" lat="14.196598">
                <ele>20.000000</ele>
                <time>1970-01-01T00:04:40Z</time>
            </trkpt>
            <trkpt lon="101.389592" lat="14.196557">
                <ele>20.100000</ele>
                <time>1970-01-01T00:04:41Z</time>
            </trkpt>
            <trkpt lon="101.389576" lat="14.196521">
                <ele>20.100000</ele>
                <time>1970-01-01T00:04:42Z</time>
            </trkpt>
            <trkpt lon="101.389550" lat="14.196467">
                <ele>20.100000</ele>
                <time>1970-01-01T00:04:43Z</time>
            </trkpt>
            <trkpt lon="101.389511" lat="14.196433">
                <ele>20.000000</ele>
                <time>1970-01-01T00:04:44Z</time>
            </trkpt>
            <trkpt lon="101.389503" lat="14.196404">
                <ele>20.000000</ele>
                <time>1970-01-01T00:04:45Z</time>
            </trkpt>
            <trkpt lon="101.389478" lat="14.196359">
                <ele>19.900000</ele>
                <time>1970-01-01T00:04:46Z</time>
            </trkpt>
            <trkpt lon="101.389448" lat="14.196324">
                <ele>20.000000</ele>
                <time>1970-01-01T00:04:47Z</time>
            </trkpt>
            <trkpt lon="101.389426" lat="14.196285">
                <ele>20.100000</ele>
                <time>1970-01-01T00:04:48Z</time>
            </trkpt>
            <trkpt lon="101.389399" lat="14.196245">
                <ele>20.100000</ele>
                <time>1970-01-01T00:04:49Z</time>
            </trkpt>
            <trkpt lon="101.389399" lat="14.196191">
                <ele>19.900000</ele>
                <time>1970-01-01T00:04:50Z</time>
            </trkpt>
            <trkpt lon="101.389400" lat="14.196152">
                <ele>19.700000</ele>
                <time>1970-01-01T00:04:51Z</time>
            </trkpt>
            <trkpt lon="101.389403" lat="14.196110">
                <ele>19.500000</ele>
                <time>1970-01-01T00:04:52Z</time>
            </trkpt>
            <trkpt lon="101.389439" lat="14.196082">
                <ele>19.800000</ele>
                <time>1970-01-01T00:04:54Z</time>
            </trkpt>
            <trkpt lon="101.389468" lat="14.196071">
                <ele>19.800000</ele>
                <time>1970-01-01T00:04:55Z</time>
            </trkpt>
            <trkpt lon="101.389500" lat="14.196065">
                <ele>20.100000</ele>
                <time>1970-01-01T00:04:56Z</time>
            </trkpt>
            <trkpt lon="101.389531" lat="14.196058">
                <ele>20.400000</ele>
                <time>1970-01-01T00:04:57Z</time>
            </trkpt>
            <trkpt lon="101.389561" lat="14.196050">
                <ele>20.700000</ele>
                <time>1970-01-01T00:04:58Z</time>
            </trkpt>
            <trkpt lon="101.389613" lat="14.196034">
                <ele>21.000000</ele>
                <time>1970-01-01T00:05:00Z</time>
            </trkpt>
            <trkpt lon="101.389639" lat="14.196022">
                <ele>21.000000</ele>
                <time>1970-01-01T00:05:01Z</time>
            </trkpt>
            <trkpt lon="101.389667" lat="14.196010">
                <ele>21.100000</ele>
                <time>1970-01-01T00:05:02Z</time>
            </trkpt>
            <trkpt lon="101.389694" lat="14.195999">
                <ele>21.200000</ele>
                <time>1970-01-01T00:05:03Z</time>
            </trkpt>
            <trkpt lon="101.389750" lat="14.195987">
                <ele>21.200000</ele>
                <time>1970-01-01T00:05:05Z</time>
            </trkpt>
            <trkpt lon="101.389782" lat="14.195985">
                <ele>21.100000</ele>
                <time>1970-01-01T00:05:06Z</time>
            </trkpt>
            <trkpt lon="101.389824" lat="14.195979">
                <ele>21.000000</ele>
                <time>1970-01-01T00:05:07Z</time>
            </trkpt>
            <trkpt lon="101.389870" lat="14.195974">
                <ele>20.800000</ele>
                <time>1970-01-01T00:05:08Z</time>
            </trkpt>
            <trkpt lon="101.389914" lat="14.195968">
                <ele>20.600000</ele>
                <time>1970-01-01T00:05:09Z</time>
            </trkpt>
            <trkpt lon="101.389954" lat="14.195961">
                <ele>20.400000</ele>
                <time>1970-01-01T00:05:10Z</time>
            </trkpt>
            <trkpt lon="101.389996" lat="14.195949">
                <ele>20.000000</ele>
                <time>1970-01-01T00:05:11Z</time>
            </trkpt>
            <trkpt lon="101.390045" lat="14.195921">
                <ele>20.000000</ele>
                <time>1970-01-01T00:05:12Z</time>
            </trkpt>
            <trkpt lon="101.390082" lat="14.195905">
                <ele>20.000000</ele>
                <time>1970-01-01T00:05:13Z</time>
            </trkpt>
            <trkpt lon="101.390109" lat="14.195897">
                <ele>20.000000</ele>
                <time>1970-01-01T00:05:14Z</time>
            </trkpt>
            <trkpt lon="101.390147" lat="14.195880">
                <ele>20.000000</ele>
                <time>1970-01-01T00:05:15Z</time>
            </trkpt>
            <trkpt lon="101.390189" lat="14.195862">
                <ele>19.600000</ele>
                <time>1970-01-01T00:05:16Z</time>
            </trkpt>
            <trkpt lon="101.390231" lat="14.195850">
                <ele>19.400000</ele>
                <time>1970-01-01T00:05:17Z</time>
            </trkpt>
            <trkpt lon="101.390276" lat="14.195834">
                <ele>19.200000</ele>
                <time>1970-01-01T00:05:18Z</time>
            </trkpt>
            <trkpt lon="101.390319" lat="14.195812">
                <ele>19.000000</ele>
                <time>1970-01-01T00:05:19Z</time>
            </trkpt>
            <trkpt lon="101.390353" lat="14.195794">
                <ele>18.900000</ele>
                <time>1970-01-01T00:05:20Z</time>
            </trkpt>
            <trkpt lon="101.390390" lat="14.195762">
                <ele>18.900000</ele>
                <time>1970-01-01T00:05:21Z</time>
            </trkpt>
            <trkpt lon="101.390426" lat="14.195733">
                <ele>19.000000</ele>
                <time>1970-01-01T00:05:22Z</time>
            </trkpt>
            <trkpt lon="101.390464" lat="14.195700">
                <ele>19.300000</ele>
                <time>1970-01-01T00:05:23Z</time>
            </trkpt>
            <trkpt lon="101.390498" lat="14.195668">
                <ele>19.300000</ele>
                <time>1970-01-01T00:05:24Z</time>
            </trkpt>
            <trkpt lon="101.390545" lat="14.195638">
                <ele>19.700000</ele>
                <time>1970-01-01T00:05:25Z</time>
            </trkpt>
            <trkpt lon="101.390577" lat="14.195612">
                <ele>20.000000</ele>
                <time>1970-01-01T00:05:26Z</time>
            </trkpt>
            <trkpt lon="101.390617" lat="14.195587">
                <ele>20.000000</ele>
                <time>1970-01-01T00:05:27Z</time>
            </trkpt>
            <trkpt lon="101.390663" lat="14.195569">
                <ele>20.000000</ele>
                <time>1970-01-01T00:05:28Z</time>
            </trkpt>
            <trkpt lon="101.390712" lat="14.195532">
                <ele>20.100000</ele>
                <time>1970-01-01T00:05:29Z</time>
            </trkpt>
            <trkpt lon="101.390754" lat="14.195511">
                <ele>20.100000</ele>
                <time>1970-01-01T00:05:30Z</time>
            </trkpt>
            <trkpt lon="101.390792" lat="14.195498">
                <ele>20.200000</ele>
                <time>1970-01-01T00:05:31Z</time>
            </trkpt>
            <trkpt lon="101.390853" lat="14.195493">
                <ele>20.100000</ele>
                <time>1970-01-01T00:05:32Z</time>
            </trkpt>
            <trkpt lon="101.390898" lat="14.195465">
                <ele>20.000000</ele>
                <time>1970-01-01T00:05:33Z</time>
            </trkpt>
            <trkpt lon="101.390956" lat="14.195437">
                <ele>19.600000</ele>
                <time>1970-01-01T00:05:34Z</time>
            </trkpt>
            <trkpt lon="101.391006" lat="14.195418">
                <ele>19.300000</ele>
                <time>1970-01-01T00:05:35Z</time>
            </trkpt>
            <trkpt lon="101.391042" lat="14.195406">
                <ele>18.900000</ele>
                <time>1970-01-01T00:05:36Z</time>
            </trkpt>
            <trkpt lon="101.391084" lat="14.195399">
                <ele>18.700000</ele>
                <time>1970-01-01T00:05:37Z</time>
            </trkpt>
            <trkpt lon="101.391136" lat="14.195395">
                <ele>18.400000</ele>
                <time>1970-01-01T00:05:38Z</time>
            </trkpt>
            <trkpt lon="101.391190" lat="14.195391">
                <ele>18.200000</ele>
                <time>1970-01-01T00:05:39Z</time>
            </trkpt>
            <trkpt lon="101.391243" lat="14.195388">
                <ele>18.000000</ele>
                <time>1970-01-01T00:05:40Z</time>
            </trkpt>
            <trkpt lon="101.391318" lat="14.195374">
                <ele>18.000000</ele>
                <time>1970-01-01T00:05:41Z</time>
            </trkpt>
            <trkpt lon="101.391352" lat="14.195388">
                <ele>18.000000</ele>
                <time>1970-01-01T00:05:42Z</time>
            </trkpt>
            <trkpt lon="101.391396" lat="14.195395">
                <ele>18.200000</ele>
                <time>1970-01-01T00:05:43Z</time>
            </trkpt>
            <trkpt lon="101.391469" lat="14.195399">
                <ele>18.700000</ele>
                <time>1970-01-01T00:05:44Z</time>
            </trkpt>
            <trkpt lon="101.391525" lat="14.195395">
                <ele>18.900000</ele>
                <time>1970-01-01T00:05:45Z</time>
            </trkpt>
            <trkpt lon="101.391591" lat="14.195388">
                <ele>19.400000</ele>
                <time>1970-01-01T00:05:46Z</time>
            </trkpt>
            <trkpt lon="101.391642" lat="14.195354">
                <ele>20.100000</ele>
                <time>1970-01-01T00:05:47Z</time>
            </trkpt>
            <trkpt lon="101.391696" lat="14.195314">
                <ele>21.000000</ele>
                <time>1970-01-01T00:05:48Z</time>
            </trkpt>
            <trkpt lon="101.391737" lat="14.195268">
                <ele>21.900000</ele>
                <time>1970-01-01T00:05:49Z</time>
            </trkpt>
            <trkpt lon="101.391783" lat="14.195225">
                <ele>22.600000</ele>
                <time>1970-01-01T00:05:50Z</time>
            </trkpt>
            <trkpt lon="101.391827" lat="14.195183">
                <ele>23.000000</ele>
                <time>1970-01-01T00:05:51Z</time>
            </trkpt>
            <trkpt lon="101.391882" lat="14.195142">
                <ele>23.100000</ele>
                <time>1970-01-01T00:05:52Z</time>
            </trkpt>
            <trkpt lon="101.391920" lat="14.195095">
                <ele>23.000000</ele>
                <time>1970-01-01T00:05:53Z</time>
            </trkpt>
            <trkpt lon="101.391970" lat="14.195053">
                <ele>23.100000</ele>
                <time>1970-01-01T00:05:54Z</time>
            </trkpt>
            <trkpt lon="101.392021" lat="14.195023">
                <ele>22.900000</ele>
                <time>1970-01-01T00:05:55Z</time>
            </trkpt>
            <trkpt lon="101.392078" lat="14.194985">
                <ele>22.400000</ele>
                <time>1970-01-01T00:05:56Z</time>
            </trkpt>
            <trkpt lon="101.392121" lat="14.194961">
                <ele>22.200000</ele>
                <time>1970-01-01T00:05:57Z</time>
            </trkpt>
            <trkpt lon="101.392182" lat="14.194944">
                <ele>21.300000</ele>
                <time>1970-01-01T00:05:58Z</time>
            </trkpt>
            <trkpt lon="101.392236" lat="14.194902">
                <ele>20.900000</ele>
                <time>1970-01-01T00:05:59Z</time>
            </trkpt>
            <trkpt lon="101.392286" lat="14.194869">
                <ele>20.500000</ele>
                <time>1970-01-01T00:06:00Z</time>
            </trkpt>
            <trkpt lon="101.392339" lat="14.194845">
                <ele>20.500000</ele>
                <time>1970-01-01T00:06:01Z</time>
            </trkpt>
            <trkpt lon="101.392385" lat="14.194821">
                <ele>19.900000</ele>
                <time>1970-01-01T00:06:02Z</time>
            </trkpt>
            <trkpt lon="101.392425" lat="14.194809">
                <ele>19.700000</ele>
                <time>1970-01-01T00:06:03Z</time>
            </trkpt>
            <trkpt lon="101.392458" lat="14.194819">
                <ele>19.600000</ele>
                <time>1970-01-01T00:06:04Z</time>
            </trkpt>
            <trkpt lon="101.392493" lat="14.194845">
                <ele>19.900000</ele>
                <time>1970-01-01T00:06:05Z</time>
            </trkpt>
            <trkpt lon="101.392531" lat="14.194882">
                <ele>20.100000</ele>
                <time>1970-01-01T00:06:06Z</time>
            </trkpt>
            <trkpt lon="101.392564" lat="14.194905">
                <ele>20.100000</ele>
                <time>1970-01-01T00:06:07Z</time>
            </trkpt>
            <trkpt lon="101.392609" lat="14.194917">
                <ele>20.100000</ele>
                <time>1970-01-01T00:06:08Z</time>
            </trkpt>
            <trkpt lon="101.392658" lat="14.194921">
                <ele>20.100000</ele>
                <time>1970-01-01T00:06:09Z</time>
            </trkpt>
            <trkpt lon="101.392703" lat="14.194927">
                <ele>20.200000</ele>
                <time>1970-01-01T00:06:10Z</time>
            </trkpt>
            <trkpt lon="101.392756" lat="14.194926">
                <ele>20.200000</ele>
                <time>1970-01-01T00:06:11Z</time>
            </trkpt>
            <trkpt lon="101.392811" lat="14.194934">
                <ele>20.200000</ele>
                <time>1970-01-01T00:06:12Z</time>
            </trkpt>
            <trkpt lon="101.392862" lat="14.194942">
                <ele>20.200000</ele>
                <time>1970-01-01T00:06:13Z</time>
            </trkpt>
            <trkpt lon="101.392912" lat="14.194965">
                <ele>20.600000</ele>
                <time>1970-01-01T00:06:14Z</time>
            </trkpt>
            <trkpt lon="101.392963" lat="14.194992">
                <ele>20.700000</ele>
                <time>1970-01-01T00:06:15Z</time>
            </trkpt>
            <trkpt lon="101.393014" lat="14.195028">
                <ele>20.900000</ele>
                <time>1970-01-01T00:06:16Z</time>
            </trkpt>
            <trkpt lon="101.393057" lat="14.195066">
                <ele>21.000000</ele>
                <time>1970-01-01T00:06:17Z</time>
            </trkpt>
            <trkpt lon="101.393098" lat="14.195097">
                <ele>21.300000</ele>
                <time>1970-01-01T00:06:18Z</time>
            </trkpt>
            <trkpt lon="101.393148" lat="14.195128">
                <ele>21.600000</ele>
                <time>1970-01-01T00:06:19Z</time>
            </trkpt>
            <trkpt lon="101.393196" lat="14.195162">
                <ele>21.800000</ele>
                <time>1970-01-01T00:06:20Z</time>
            </trkpt>
            <trkpt lon="101.393246" lat="14.195203">
                <ele>21.900000</ele>
                <time>1970-01-01T00:06:21Z</time>
            </trkpt>
            <trkpt lon="101.393296" lat="14.195241">
                <ele>22.100000</ele>
                <time>1970-01-01T00:06:22Z</time>
            </trkpt>
            <trkpt lon="101.393344" lat="14.195275">
                <ele>22.100000</ele>
                <time>1970-01-01T00:06:23Z</time>
            </trkpt>
            <trkpt lon="101.393390" lat="14.195304">
                <ele>22.000000</ele>
                <time>1970-01-01T00:06:24Z</time>
            </trkpt>
            <trkpt lon="101.393442" lat="14.195331">
                <ele>21.900000</ele>
                <time>1970-01-01T00:06:25Z</time>
            </trkpt>
            <trkpt lon="101.393499" lat="14.195360">
                <ele>21.900000</ele>
                <time>1970-01-01T00:06:26Z</time>
            </trkpt>
            <trkpt lon="101.393551" lat="14.195390">
                <ele>22.000000</ele>
                <time>1970-01-01T00:06:27Z</time>
            </trkpt>
            <trkpt lon="101.393593" lat="14.195420">
                <ele>22.200000</ele>
                <time>1970-01-01T00:06:28Z</time>
            </trkpt>
            <trkpt lon="101.393646" lat="14.195450">
                <ele>21.800000</ele>
                <time>1970-01-01T00:06:29Z</time>
            </trkpt>
            <trkpt lon="101.393689" lat="14.195496">
                <ele>21.500000</ele>
                <time>1970-01-01T00:06:30Z</time>
            </trkpt>
            <trkpt lon="101.393718" lat="14.195535">
                <ele>21.500000</ele>
                <time>1970-01-01T00:06:31Z</time>
            </trkpt>
            <trkpt lon="101.393731" lat="14.195590">
                <ele>21.100000</ele>
                <time>1970-01-01T00:06:32Z</time>
            </trkpt>
            <trkpt lon="101.393766" lat="14.195641">
                <ele>21.100000</ele>
                <time>1970-01-01T00:06:33Z</time>
            </trkpt>
            <trkpt lon="101.393816" lat="14.195679">
                <ele>20.600000</ele>
                <time>1970-01-01T00:06:34Z</time>
            </trkpt>
            <trkpt lon="101.393880" lat="14.195674">
                <ele>20.300000</ele>
                <time>1970-01-01T00:06:35Z</time>
            </trkpt>
            <trkpt lon="101.393931" lat="14.195669">
                <ele>20.100000</ele>
                <time>1970-01-01T00:06:36Z</time>
            </trkpt>
            <trkpt lon="101.393985" lat="14.195657">
                <ele>20.100000</ele>
                <time>1970-01-01T00:06:37Z</time>
            </trkpt>
            <trkpt lon="101.394041" lat="14.195646">
                <ele>20.100000</ele>
                <time>1970-01-01T00:06:38Z</time>
            </trkpt>
            <trkpt lon="101.394093" lat="14.195619">
                <ele>20.100000</ele>
                <time>1970-01-01T00:06:39Z</time>
            </trkpt>
            <trkpt lon="101.394140" lat="14.195594">
                <ele>20.000000</ele>
                <time>1970-01-01T00:06:40Z</time>
            </trkpt>
            <trkpt lon="101.394187" lat="14.195582">
                <ele>20.000000</ele>
                <time>1970-01-01T00:06:41Z</time>
            </trkpt>
            <trkpt lon="101.394227" lat="14.195561">
                <ele>20.200000</ele>
                <time>1970-01-01T00:06:42Z</time>
            </trkpt>
            <trkpt lon="101.394261" lat="14.195541">
                <ele>20.200000</ele>
                <time>1970-01-01T00:06:43Z</time>
            </trkpt>
            <trkpt lon="101.394297" lat="14.195538">
                <ele>20.400000</ele>
                <time>1970-01-01T00:06:44Z</time>
            </trkpt>
            <trkpt lon="101.394335" lat="14.195537">
                <ele>20.900000</ele>
                <time>1970-01-01T00:06:45Z</time>
            </trkpt>
            <trkpt lon="101.394374" lat="14.195534">
                <ele>21.100000</ele>
                <time>1970-01-01T00:06:46Z</time>
            </trkpt>
            <trkpt lon="101.394401" lat="14.195554">
                <ele>20.900000</ele>
                <time>1970-01-01T00:06:47Z</time>
            </trkpt>
            <trkpt lon="101.394443" lat="14.195593">
                <ele>20.900000</ele>
                <time>1970-01-01T00:06:48Z</time>
            </trkpt>
            <trkpt lon="101.394478" lat="14.195618">
                <ele>21.000000</ele>
                <time>1970-01-01T00:06:49Z</time>
            </trkpt>
            <trkpt lon="101.394519" lat="14.195625">
                <ele>20.500000</ele>
                <time>1970-01-01T00:06:50Z</time>
            </trkpt>
            <trkpt lon="101.394557" lat="14.195625">
                <ele>20.400000</ele>
                <time>1970-01-01T00:06:51Z</time>
            </trkpt>
            <trkpt lon="101.394594" lat="14.195610">
                <ele>20.900000</ele>
                <time>1970-01-01T00:06:52Z</time>
            </trkpt>
            <trkpt lon="101.394617" lat="14.195581">
                <ele>20.900000</ele>
                <time>1970-01-01T00:06:53Z</time>
            </trkpt>
            <trkpt lon="101.394634" lat="14.195546">
                <ele>21.300000</ele>
                <time>1970-01-01T00:06:54Z</time>
            </trkpt>
            <trkpt lon="101.394648" lat="14.195506">
                <ele>21.700000</ele>
                <time>1970-01-01T00:06:55Z</time>
            </trkpt>
            <trkpt lon="101.394651" lat="14.195460">
                <ele>21.900000</ele>
                <time>1970-01-01T00:06:56Z</time>
            </trkpt>
            <trkpt lon="101.394625" lat="14.195405">
                <ele>22.200000</ele>
                <time>1970-01-01T00:06:57Z</time>
            </trkpt>
            <trkpt lon="101.394632" lat="14.195362">
                <ele>22.300000</ele>
                <time>1970-01-01T00:06:58Z</time>
            </trkpt>
            <trkpt lon="101.394644" lat="14.195320">
                <ele>22.200000</ele>
                <time>1970-01-01T00:06:59Z</time>
            </trkpt>
            <trkpt lon="101.394662" lat="14.195276">
                <ele>22.200000</ele>
                <time>1970-01-01T00:07:00Z</time>
            </trkpt>
            <trkpt lon="101.394683" lat="14.195233">
                <ele>22.100000</ele>
                <time>1970-01-01T00:07:01Z</time>
            </trkpt>
            <trkpt lon="101.394709" lat="14.195204">
                <ele>22.100000</ele>
                <time>1970-01-01T00:07:02Z</time>
            </trkpt>
            <trkpt lon="101.394738" lat="14.195170">
                <ele>22.000000</ele>
                <time>1970-01-01T00:07:03Z</time>
            </trkpt>
            <trkpt lon="101.394765" lat="14.195134">
                <ele>22.100000</ele>
                <time>1970-01-01T00:07:04Z</time>
            </trkpt>
            <trkpt lon="101.394791" lat="14.195092">
                <ele>22.100000</ele>
                <time>1970-01-01T00:07:05Z</time>
            </trkpt>
            <trkpt lon="101.394828" lat="14.195056">
                <ele>22.200000</ele>
                <time>1970-01-01T00:07:06Z</time>
            </trkpt>
            <trkpt lon="101.394862" lat="14.195010">
                <ele>22.500000</ele>
                <time>1970-01-01T00:07:07Z</time>
            </trkpt>
            <trkpt lon="101.394892" lat="14.194977">
                <ele>22.700000</ele>
                <time>1970-01-01T00:07:08Z</time>
            </trkpt>
            <trkpt lon="101.394931" lat="14.194944">
                <ele>23.000000</ele>
                <time>1970-01-01T00:07:09Z</time>
            </trkpt>
            <trkpt lon="101.394960" lat="14.194901">
                <ele>23.000000</ele>
                <time>1970-01-01T00:07:10Z</time>
            </trkpt>
            <trkpt lon="101.394994" lat="14.194859">
                <ele>23.400000</ele>
                <time>1970-01-01T00:07:11Z</time>
            </trkpt>
            <trkpt lon="101.395027" lat="14.194825">
                <ele>23.800000</ele>
                <time>1970-01-01T00:07:12Z</time>
            </trkpt>
            <trkpt lon="101.395063" lat="14.194787">
                <ele>24.000000</ele>
                <time>1970-01-01T00:07:13Z</time>
            </trkpt>
            <trkpt lon="101.395105" lat="14.194758">
                <ele>24.200000</ele>
                <time>1970-01-01T00:07:14Z</time>
            </trkpt>
            <trkpt lon="101.395161" lat="14.194743">
                <ele>24.100000</ele>
                <time>1970-01-01T00:07:15Z</time>
            </trkpt>
            <trkpt lon="101.395204" lat="14.194718">
                <ele>24.100000</ele>
                <time>1970-01-01T00:07:16Z</time>
            </trkpt>
            <trkpt lon="101.395253" lat="14.194696">
                <ele>24.100000</ele>
                <time>1970-01-01T00:07:17Z</time>
            </trkpt>
            <trkpt lon="101.395286" lat="14.194675">
                <ele>24.200000</ele>
                <time>1970-01-01T00:07:18Z</time>
            </trkpt>
            <trkpt lon="101.395329" lat="14.194645">
                <ele>24.300000</ele>
                <time>1970-01-01T00:07:19Z</time>
            </trkpt>
            <trkpt lon="101.395366" lat="14.194610">
                <ele>24.300000</ele>
                <time>1970-01-01T00:07:20Z</time>
            </trkpt>
            <trkpt lon="101.395418" lat="14.194580">
                <ele>24.100000</ele>
                <time>1970-01-01T00:07:21Z</time>
            </trkpt>
            <trkpt lon="101.395458" lat="14.194552">
                <ele>24.100000</ele>
                <time>1970-01-01T00:07:22Z</time>
            </trkpt>
            <trkpt lon="101.395493" lat="14.194524">
                <ele>23.900000</ele>
                <time>1970-01-01T00:07:23Z</time>
            </trkpt>
            <trkpt lon="101.395525" lat="14.194495">
                <ele>23.600000</ele>
                <time>1970-01-01T00:07:24Z</time>
            </trkpt>
            <trkpt lon="101.395553" lat="14.194472">
                <ele>23.700000</ele>
                <time>1970-01-01T00:07:25Z</time>
            </trkpt>
            <trkpt lon="101.395574" lat="14.194447">
                <ele>23.300000</ele>
                <time>1970-01-01T00:07:26Z</time>
            </trkpt>
            <trkpt lon="101.395601" lat="14.194428">
                <ele>23.300000</ele>
                <time>1970-01-01T00:07:27Z</time>
            </trkpt>
            <trkpt lon="101.395649" lat="14.194420">
                <ele>23.300000</ele>
                <time>1970-01-01T00:07:29Z</time>
            </trkpt>
            <trkpt lon="101.395679" lat="14.194436">
                <ele>23.300000</ele>
                <time>1970-01-01T00:07:33Z</time>
            </trkpt>
            <trkpt lon="101.395704" lat="14.194455">
                <ele>23.400000</ele>
                <time>1970-01-01T00:07:59Z</time>
            </trkpt>
            <trkpt lon="101.395735" lat="14.194464">
                <ele>23.500000</ele>
                <time>1970-01-01T00:08:13Z</time>
            </trkpt>
            <trkpt lon="101.395769" lat="14.194479">
                <ele>23.400000</ele>
                <time>1970-01-01T00:08:17Z</time>
            </trkpt>
            <trkpt lon="101.395793" lat="14.194513">
                <ele>23.200000</ele>
                <time>1970-01-01T00:08:19Z</time>
            </trkpt>
            <trkpt lon="101.395791" lat="14.194547">
                <ele>23.200000</ele>
                <time>1970-01-01T00:08:24Z</time>
            </trkpt>
            <trkpt lon="101.395800" lat="14.194573">
                <ele>23.200000</ele>
                <time>1970-01-01T00:08:27Z</time>
            </trkpt>
            <trkpt lon="101.395802" lat="14.194600">
                <ele>23.300000</ele>
                <time>1970-01-01T00:08:29Z</time>
            </trkpt>
            <trkpt lon="101.395783" lat="14.194637">
                <ele>23.700000</ele>
                <time>1970-01-01T00:08:31Z</time>
            </trkpt>
            <trkpt lon="101.395765" lat="14.194675">
                <ele>23.900000</ele>
                <time>1970-01-01T00:08:33Z</time>
            </trkpt>
            <trkpt lon="101.395763" lat="14.194711">
                <ele>24.100000</ele>
                <time>1970-01-01T00:08:35Z</time>
            </trkpt>
            <trkpt lon="101.395775" lat="14.194746">
                <ele>24.100000</ele>
                <time>1970-01-01T00:08:37Z</time>
            </trkpt>
            <trkpt lon="101.395796" lat="14.194774">
                <ele>24.400000</ele>
                <time>1970-01-01T00:08:39Z</time>
            </trkpt>
            <trkpt lon="101.395834" lat="14.194772">
                <ele>24.200000</ele>
                <time>1970-01-01T00:09:50Z</time>
            </trkpt>
            <trkpt lon="101.395816" lat="14.194748">
                <ele>24.400000</ele>
                <time>1970-01-01T00:10:02Z</time>
            </trkpt>
            <trkpt lon="101.395783" lat="14.194728">
                <ele>24.100000</ele>
                <time>1970-01-01T00:10:06Z</time>
            </trkpt>
            <trkpt lon="101.395766" lat="14.194699">
                <ele>23.900000</ele>
                <time>1970-01-01T00:10:09Z</time>
            </trkpt>
            <trkpt lon="101.395769" lat="14.194669">
                <ele>23.900000</ele>
                <time>1970-01-01T00:10:13Z</time>
            </trkpt>
            <trkpt lon="101.395776" lat="14.194642">
                <ele>23.700000</ele>
                <time>1970-01-01T00:10:20Z</time>
            </trkpt>
            <trkpt lon="101.395786" lat="14.194613">
                <ele>23.300000</ele>
                <time>1970-01-01T00:10:24Z</time>
            </trkpt>
            <trkpt lon="101.395801" lat="14.194584">
                <ele>23.300000</ele>
                <time>1970-01-01T00:10:29Z</time>
            </trkpt>
            <trkpt lon="101.395823" lat="14.194562">
                <ele>23.200000</ele>
                <time>1970-01-01T00:10:34Z</time>
            </trkpt>
            <trkpt lon="101.395806" lat="14.194536">
                <ele>23.200000</ele>
                <time>1970-01-01T00:11:26Z</time>
            </trkpt>
            <trkpt lon="101.395794" lat="14.194510">
                <ele>23.200000</ele>
                <time>1970-01-01T00:11:29Z</time>
            </trkpt>
            <trkpt lon="101.395776" lat="14.194484">
                <ele>23.400000</ele>
                <time>1970-01-01T00:11:32Z</time>
            </trkpt>
            <trkpt lon="101.395750" lat="14.194467">
                <ele>23.400000</ele>
                <time>1970-01-01T00:11:35Z</time>
            </trkpt>
            <trkpt lon="101.395719" lat="14.194465">
                <ele>23.600000</ele>
                <time>1970-01-01T00:11:38Z</time>
            </trkpt>
            <trkpt lon="101.395691" lat="14.194453">
                <ele>23.400000</ele>
                <time>1970-01-01T00:11:42Z</time>
            </trkpt>
            <trkpt lon="101.395656" lat="14.194433">
                <ele>23.400000</ele>
                <time>1970-01-01T00:11:45Z</time>
            </trkpt>
            <trkpt lon="101.395617" lat="14.194419">
                <ele>23.400000</ele>
                <time>1970-01-01T00:11:47Z</time>
            </trkpt>
            <trkpt lon="101.395566" lat="14.194425">
                <ele>23.300000</ele>
                <time>1970-01-01T00:11:49Z</time>
            </trkpt>
            <trkpt lon="101.395540" lat="14.194439">
                <ele>23.300000</ele>
                <time>1970-01-01T00:11:50Z</time>
            </trkpt>
            <trkpt lon="101.395500" lat="14.194470">
                <ele>23.700000</ele>
                <time>1970-01-01T00:11:52Z</time>
            </trkpt>
            <trkpt lon="101.395454" lat="14.194507">
                <ele>24.000000</ele>
                <time>1970-01-01T00:11:54Z</time>
            </trkpt>
            <trkpt lon="101.395429" lat="14.194527">
                <ele>24.000000</ele>
                <time>1970-01-01T00:11:55Z</time>
            </trkpt>
            <trkpt lon="101.395402" lat="14.194548">
                <ele>24.200000</ele>
                <time>1970-01-01T00:11:56Z</time>
            </trkpt>
            <trkpt lon="101.395373" lat="14.194570">
                <ele>24.200000</ele>
                <time>1970-01-01T00:11:57Z</time>
            </trkpt>
            <trkpt lon="101.395343" lat="14.194593">
                <ele>24.300000</ele>
                <time>1970-01-01T00:11:58Z</time>
            </trkpt>
            <trkpt lon="101.395313" lat="14.194616">
                <ele>24.300000</ele>
                <time>1970-01-01T00:11:59Z</time>
            </trkpt>
            <trkpt lon="101.395282" lat="14.194638">
                <ele>24.200000</ele>
                <time>1970-01-01T00:12:00Z</time>
            </trkpt>
            <trkpt lon="101.395248" lat="14.194659">
                <ele>24.100000</ele>
                <time>1970-01-01T00:12:01Z</time>
            </trkpt>
            <trkpt lon="101.395212" lat="14.194678">
                <ele>24.000000</ele>
                <time>1970-01-01T00:12:02Z</time>
            </trkpt>
            <trkpt lon="101.395172" lat="14.194695">
                <ele>23.900000</ele>
                <time>1970-01-01T00:12:03Z</time>
            </trkpt>
            <trkpt lon="101.395127" lat="14.194711">
                <ele>24.000000</ele>
                <time>1970-01-01T00:12:04Z</time>
            </trkpt>
            <trkpt lon="101.395090" lat="14.194741">
                <ele>23.900000</ele>
                <time>1970-01-01T00:12:05Z</time>
            </trkpt>
            <trkpt lon="101.395054" lat="14.194775">
                <ele>24.100000</ele>
                <time>1970-01-01T00:12:06Z</time>
            </trkpt>
            <trkpt lon="101.395022" lat="14.194806">
                <ele>23.800000</ele>
                <time>1970-01-01T00:12:07Z</time>
            </trkpt>
            <trkpt lon="101.394989" lat="14.194846">
                <ele>23.500000</ele>
                <time>1970-01-01T00:12:08Z</time>
            </trkpt>
            <trkpt lon="101.394955" lat="14.194874">
                <ele>23.100000</ele>
                <time>1970-01-01T00:12:09Z</time>
            </trkpt>
            <trkpt lon="101.394923" lat="14.194904">
                <ele>22.800000</ele>
                <time>1970-01-01T00:12:10Z</time>
            </trkpt>
            <trkpt lon="101.394898" lat="14.194941">
                <ele>22.800000</ele>
                <time>1970-01-01T00:12:11Z</time>
            </trkpt>
            <trkpt lon="101.394871" lat="14.194975">
                <ele>22.500000</ele>
                <time>1970-01-01T00:12:12Z</time>
            </trkpt>
            <trkpt lon="101.394837" lat="14.195006">
                <ele>22.300000</ele>
                <time>1970-01-01T00:12:13Z</time>
            </trkpt>
            <trkpt lon="101.394807" lat="14.195035">
                <ele>22.300000</ele>
                <time>1970-01-01T00:12:14Z</time>
            </trkpt>
            <trkpt lon="101.394782" lat="14.195064">
                <ele>22.200000</ele>
                <time>1970-01-01T00:12:15Z</time>
            </trkpt>
            <trkpt lon="101.394753" lat="14.195096">
                <ele>22.100000</ele>
                <time>1970-01-01T00:12:16Z</time>
            </trkpt>
            <trkpt lon="101.394720" lat="14.195137">
                <ele>22.100000</ele>
                <time>1970-01-01T00:12:17Z</time>
            </trkpt>
            <trkpt lon="101.394693" lat="14.195172">
                <ele>22.200000</ele>
                <time>1970-01-01T00:12:18Z</time>
            </trkpt>
            <trkpt lon="101.394666" lat="14.195204">
                <ele>22.200000</ele>
                <time>1970-01-01T00:12:19Z</time>
            </trkpt>
            <trkpt lon="101.394646" lat="14.195239">
                <ele>22.200000</ele>
                <time>1970-01-01T00:12:20Z</time>
            </trkpt>
            <trkpt lon="101.394627" lat="14.195272">
                <ele>22.300000</ele>
                <time>1970-01-01T00:12:21Z</time>
            </trkpt>
            <trkpt lon="101.394620" lat="14.195310">
                <ele>22.200000</ele>
                <time>1970-01-01T00:12:22Z</time>
            </trkpt>
            <trkpt lon="101.394612" lat="14.195356">
                <ele>22.200000</ele>
                <time>1970-01-01T00:12:23Z</time>
            </trkpt>
            <trkpt lon="101.394603" lat="14.195392">
                <ele>22.200000</ele>
                <time>1970-01-01T00:12:24Z</time>
            </trkpt>
            <trkpt lon="101.394603" lat="14.195431">
                <ele>22.100000</ele>
                <time>1970-01-01T00:12:25Z</time>
            </trkpt>
            <trkpt lon="101.394607" lat="14.195463">
                <ele>22.000000</ele>
                <time>1970-01-01T00:12:26Z</time>
            </trkpt>
            <trkpt lon="101.394604" lat="14.195505">
                <ele>21.800000</ele>
                <time>1970-01-01T00:12:27Z</time>
            </trkpt>
            <trkpt lon="101.394609" lat="14.195541">
                <ele>21.500000</ele>
                <time>1970-01-01T00:12:28Z</time>
            </trkpt>
            <trkpt lon="101.394618" lat="14.195574">
                <ele>21.500000</ele>
                <time>1970-01-01T00:12:29Z</time>
            </trkpt>
            <trkpt lon="101.394631" lat="14.195604">
                <ele>20.900000</ele>
                <time>1970-01-01T00:12:30Z</time>
            </trkpt>
            <trkpt lon="101.394661" lat="14.195640">
                <ele>20.500000</ele>
                <time>1970-01-01T00:12:32Z</time>
            </trkpt>
            <trkpt lon="101.394707" lat="14.195647">
                <ele>20.600000</ele>
                <time>1970-01-01T00:12:34Z</time>
            </trkpt>
            <trkpt lon="101.394742" lat="14.195644">
                <ele>20.800000</ele>
                <time>1970-01-01T00:12:35Z</time>
            </trkpt>
            <trkpt lon="101.394781" lat="14.195640">
                <ele>21.000000</ele>
                <time>1970-01-01T00:12:36Z</time>
            </trkpt>
            <trkpt lon="101.394823" lat="14.195635">
                <ele>21.400000</ele>
                <time>1970-01-01T00:12:37Z</time>
            </trkpt>
            <trkpt lon="101.394866" lat="14.195628">
                <ele>21.700000</ele>
                <time>1970-01-01T00:12:38Z</time>
            </trkpt>
            <trkpt lon="101.394910" lat="14.195617">
                <ele>22.000000</ele>
                <time>1970-01-01T00:12:39Z</time>
            </trkpt>
            <trkpt lon="101.394953" lat="14.195606">
                <ele>22.200000</ele>
                <time>1970-01-01T00:12:40Z</time>
            </trkpt>
            <trkpt lon="101.394991" lat="14.195596">
                <ele>22.300000</ele>
                <time>1970-01-01T00:12:41Z</time>
            </trkpt>
            <trkpt lon="101.395026" lat="14.195588">
                <ele>22.300000</ele>
                <time>1970-01-01T00:12:42Z</time>
            </trkpt>
            <trkpt lon="101.395055" lat="14.195580">
                <ele>22.300000</ele>
                <time>1970-01-01T00:12:43Z</time>
            </trkpt>
            <trkpt lon="101.395088" lat="14.195571">
                <ele>22.300000</ele>
                <time>1970-01-01T00:12:45Z</time>
            </trkpt>
            <trkpt lon="101.395116" lat="14.195575">
                <ele>22.300000</ele>
                <time>1970-01-01T00:12:48Z</time>
            </trkpt>
            <trkpt lon="101.395145" lat="14.195572">
                <ele>22.300000</ele>
                <time>1970-01-01T00:12:53Z</time>
            </trkpt>
            <trkpt lon="101.395186" lat="14.195566">
                <ele>22.500000</ele>
                <time>1970-01-01T00:12:56Z</time>
            </trkpt>
            <trkpt lon="101.395214" lat="14.195566">
                <ele>22.500000</ele>
                <time>1970-01-01T00:12:58Z</time>
            </trkpt>
            <trkpt lon="101.395269" lat="14.195563">
                <ele>23.100000</ele>
                <time>1970-01-01T00:13:00Z</time>
            </trkpt>
            <trkpt lon="101.395301" lat="14.195561">
                <ele>23.100000</ele>
                <time>1970-01-01T00:13:01Z</time>
            </trkpt>
            <trkpt lon="101.395332" lat="14.195563">
                <ele>23.600000</ele>
                <time>1970-01-01T00:13:02Z</time>
            </trkpt>
            <trkpt lon="101.395381" lat="14.195579">
                <ele>24.200000</ele>
                <time>1970-01-01T00:13:04Z</time>
            </trkpt>
            <trkpt lon="101.395407" lat="14.195623">
                <ele>24.800000</ele>
                <time>1970-01-01T00:13:06Z</time>
            </trkpt>
            <trkpt lon="101.395410" lat="14.195651">
                <ele>24.800000</ele>
                <time>1970-01-01T00:13:07Z</time>
            </trkpt>
            <trkpt lon="101.395409" lat="14.195681">
                <ele>24.900000</ele>
                <time>1970-01-01T00:13:08Z</time>
            </trkpt>
            <trkpt lon="101.395406" lat="14.195713">
                <ele>25.000000</ele>
                <time>1970-01-01T00:13:09Z</time>
            </trkpt>
            <trkpt lon="101.395402" lat="14.195744">
                <ele>25.000000</ele>
                <time>1970-01-01T00:13:10Z</time>
            </trkpt>
            <trkpt lon="101.395401" lat="14.195775">
                <ele>25.000000</ele>
                <time>1970-01-01T00:13:11Z</time>
            </trkpt>
            <trkpt lon="101.395411" lat="14.195824">
                <ele>25.100000</ele>
                <time>1970-01-01T00:13:13Z</time>
            </trkpt>
            <trkpt lon="101.395413" lat="14.195854">
                <ele>25.200000</ele>
                <time>1970-01-01T00:13:14Z</time>
            </trkpt>
            <trkpt lon="101.395413" lat="14.195887">
                <ele>25.300000</ele>
                <time>1970-01-01T00:13:15Z</time>
            </trkpt>
            <trkpt lon="101.395412" lat="14.195921">
                <ele>25.300000</ele>
                <time>1970-01-01T00:13:16Z</time>
            </trkpt>
            <trkpt lon="101.395413" lat="14.195956">
                <ele>25.300000</ele>
                <time>1970-01-01T00:13:17Z</time>
            </trkpt>
            <trkpt lon="101.395414" lat="14.195990">
                <ele>25.300000</ele>
                <time>1970-01-01T00:13:18Z</time>
            </trkpt>
            <trkpt lon="101.395413" lat="14.196021">
                <ele>25.300000</ele>
                <time>1970-01-01T00:13:19Z</time>
            </trkpt>
            <trkpt lon="101.395415" lat="14.196051">
                <ele>25.200000</ele>
                <time>1970-01-01T00:13:20Z</time>
            </trkpt>
            <trkpt lon="101.395417" lat="14.196081">
                <ele>25.200000</ele>
                <time>1970-01-01T00:13:21Z</time>
            </trkpt>
            <trkpt lon="101.395420" lat="14.196110">
                <ele>25.200000</ele>
                <time>1970-01-01T00:13:22Z</time>
            </trkpt>
            <trkpt lon="101.395424" lat="14.196138">
                <ele>25.200000</ele>
                <time>1970-01-01T00:13:23Z</time>
            </trkpt>
            <trkpt lon="101.395430" lat="14.196195">
                <ele>25.200000</ele>
                <time>1970-01-01T00:13:25Z</time>
            </trkpt>
            <trkpt lon="101.395428" lat="14.196226">
                <ele>25.200000</ele>
                <time>1970-01-01T00:13:26Z</time>
            </trkpt>
            <trkpt lon="101.395426" lat="14.196261">
                <ele>25.200000</ele>
                <time>1970-01-01T00:13:27Z</time>
            </trkpt>
            <trkpt lon="101.395423" lat="14.196296">
                <ele>25.300000</ele>
                <time>1970-01-01T00:13:28Z</time>
            </trkpt>
            <trkpt lon="101.395423" lat="14.196329">
                <ele>25.300000</ele>
                <time>1970-01-01T00:13:29Z</time>
            </trkpt>
            <trkpt lon="101.395424" lat="14.196360">
                <ele>25.300000</ele>
                <time>1970-01-01T00:13:30Z</time>
            </trkpt>
            <trkpt lon="101.395424" lat="14.196390">
                <ele>25.300000</ele>
                <time>1970-01-01T00:13:31Z</time>
            </trkpt>
            <trkpt lon="101.395419" lat="14.196419">
                <ele>25.200000</ele>
                <time>1970-01-01T00:13:32Z</time>
            </trkpt>
            <trkpt lon="101.395407" lat="14.196447">
                <ele>25.200000</ele>
                <time>1970-01-01T00:13:33Z</time>
            </trkpt>
            <trkpt lon="101.395389" lat="14.196470">
                <ele>24.900000</ele>
                <time>1970-01-01T00:13:34Z</time>
            </trkpt>
            <trkpt lon="101.395366" lat="14.196488">
                <ele>24.900000</ele>
                <time>1970-01-01T00:13:35Z</time>
            </trkpt>
            <trkpt lon="101.395339" lat="14.196505">
                <ele>24.600000</ele>
                <time>1970-01-01T00:13:36Z</time>
            </trkpt>
            <trkpt lon="101.395313" lat="14.196525">
                <ele>24.600000</ele>
                <time>1970-01-01T00:13:37Z</time>
            </trkpt>
            <trkpt lon="101.395296" lat="14.196550">
                <ele>24.400000</ele>
                <time>1970-01-01T00:13:38Z</time>
            </trkpt>
            <trkpt lon="101.395293" lat="14.196582">
                <ele>24.300000</ele>
                <time>1970-01-01T00:13:39Z</time>
            </trkpt>
            <trkpt lon="101.395302" lat="14.196616">
                <ele>24.300000</ele>
                <time>1970-01-01T00:13:40Z</time>
            </trkpt>
            <trkpt lon="101.395319" lat="14.196646">
                <ele>24.200000</ele>
                <time>1970-01-01T00:13:41Z</time>
            </trkpt>
            <trkpt lon="101.395339" lat="14.196672">
                <ele>24.300000</ele>
                <time>1970-01-01T00:13:42Z</time>
            </trkpt>
            <trkpt lon="101.395359" lat="14.196696">
                <ele>24.300000</ele>
                <time>1970-01-01T00:13:43Z</time>
            </trkpt>
            <trkpt lon="101.395375" lat="14.196719">
                <ele>24.400000</ele>
                <time>1970-01-01T00:13:44Z</time>
            </trkpt>
            <trkpt lon="101.395393" lat="14.196763">
                <ele>24.400000</ele>
                <time>1970-01-01T00:13:46Z</time>
            </trkpt>
            <trkpt lon="101.395405" lat="14.196807">
                <ele>24.400000</ele>
                <time>1970-01-01T00:13:48Z</time>
            </trkpt>
            <trkpt lon="101.395422" lat="14.196850">
                <ele>24.300000</ele>
                <time>1970-01-01T00:13:50Z</time>
            </trkpt>
            <trkpt lon="101.395445" lat="14.196897">
                <ele>24.300000</ele>
                <time>1970-01-01T00:13:52Z</time>
            </trkpt>
            <trkpt lon="101.395451" lat="14.196924">
                <ele>24.200000</ele>
                <time>1970-01-01T00:13:53Z</time>
            </trkpt>
            <trkpt lon="101.395456" lat="14.196954">
                <ele>24.000000</ele>
                <time>1970-01-01T00:13:54Z</time>
            </trkpt>
            <trkpt lon="101.395461" lat="14.196985">
                <ele>24.000000</ele>
                <time>1970-01-01T00:13:55Z</time>
            </trkpt>
            <trkpt lon="101.395467" lat="14.197014">
                <ele>23.700000</ele>
                <time>1970-01-01T00:13:56Z</time>
            </trkpt>
            <trkpt lon="101.395473" lat="14.197041">
                <ele>23.400000</ele>
                <time>1970-01-01T00:13:57Z</time>
            </trkpt>
            <trkpt lon="101.395479" lat="14.197068">
                <ele>23.400000</ele>
                <time>1970-01-01T00:13:58Z</time>
            </trkpt>
            <trkpt lon="101.395491" lat="14.197118">
                <ele>23.200000</ele>
                <time>1970-01-01T00:14:00Z</time>
            </trkpt>
            <trkpt lon="101.395502" lat="14.197160">
                <ele>22.900000</ele>
                <time>1970-01-01T00:14:02Z</time>
            </trkpt>
            <trkpt lon="101.395518" lat="14.197199">
                <ele>22.600000</ele>
                <time>1970-01-01T00:14:04Z</time>
            </trkpt>
            <trkpt lon="101.395546" lat="14.197242">
                <ele>22.300000</ele>
                <time>1970-01-01T00:14:06Z</time>
            </trkpt>
            <trkpt lon="101.395559" lat="14.197268">
                <ele>22.100000</ele>
                <time>1970-01-01T00:14:07Z</time>
            </trkpt>
            <trkpt lon="101.395572" lat="14.197298">
                <ele>22.000000</ele>
                <time>1970-01-01T00:14:08Z</time>
            </trkpt>
            <trkpt lon="101.395584" lat="14.197329">
                <ele>21.900000</ele>
                <time>1970-01-01T00:14:09Z</time>
            </trkpt>
            <trkpt lon="101.395592" lat="14.197360">
                <ele>21.900000</ele>
                <time>1970-01-01T00:14:10Z</time>
            </trkpt>
            <trkpt lon="101.395598" lat="14.197392">
                <ele>22.000000</ele>
                <time>1970-01-01T00:14:11Z</time>
            </trkpt>
            <trkpt lon="101.395607" lat="14.197426">
                <ele>22.200000</ele>
                <time>1970-01-01T00:14:12Z</time>
            </trkpt>
            <trkpt lon="101.395622" lat="14.197456">
                <ele>22.600000</ele>
                <time>1970-01-01T00:14:13Z</time>
            </trkpt>
            <trkpt lon="101.395645" lat="14.197478">
                <ele>22.600000</ele>
                <time>1970-01-01T00:14:14Z</time>
            </trkpt>
            <trkpt lon="101.395676" lat="14.197497">
                <ele>22.900000</ele>
                <time>1970-01-01T00:14:15Z</time>
            </trkpt>
            <trkpt lon="101.395707" lat="14.197511">
                <ele>22.900000</ele>
                <time>1970-01-01T00:14:16Z</time>
            </trkpt>
            <trkpt lon="101.395736" lat="14.197523">
                <ele>22.900000</ele>
                <time>1970-01-01T00:14:17Z</time>
            </trkpt>
            <trkpt lon="101.395764" lat="14.197531">
                <ele>22.900000</ele>
                <time>1970-01-01T00:14:18Z</time>
            </trkpt>
            <trkpt lon="101.395792" lat="14.197533">
                <ele>23.000000</ele>
                <time>1970-01-01T00:14:19Z</time>
            </trkpt>
            <trkpt lon="101.395821" lat="14.197532">
                <ele>23.000000</ele>
                <time>1970-01-01T00:14:20Z</time>
            </trkpt>
            <trkpt lon="101.395851" lat="14.197529">
                <ele>23.300000</ele>
                <time>1970-01-01T00:14:21Z</time>
            </trkpt>
            <trkpt lon="101.395904" lat="14.197529">
                <ele>23.600000</ele>
                <time>1970-01-01T00:14:23Z</time>
            </trkpt>
            <trkpt lon="101.395934" lat="14.197530">
                <ele>23.900000</ele>
                <time>1970-01-01T00:14:24Z</time>
            </trkpt>
            <trkpt lon="101.395963" lat="14.197530">
                <ele>24.100000</ele>
                <time>1970-01-01T00:14:25Z</time>
            </trkpt>
            <trkpt lon="101.395991" lat="14.197528">
                <ele>24.100000</ele>
                <time>1970-01-01T00:14:26Z</time>
            </trkpt>
            <trkpt lon="101.396044" lat="14.197521">
                <ele>23.800000</ele>
                <time>1970-01-01T00:14:28Z</time>
            </trkpt>
            <trkpt lon="101.396094" lat="14.197520">
                <ele>23.400000</ele>
                <time>1970-01-01T00:14:30Z</time>
            </trkpt>
            <trkpt lon="101.396127" lat="14.197525">
                <ele>23.000000</ele>
                <time>1970-01-01T00:14:33Z</time>
            </trkpt>
            <trkpt lon="101.396172" lat="14.197524">
                <ele>22.700000</ele>
                <time>1970-01-01T00:14:36Z</time>
            </trkpt>
            <trkpt lon="101.396212" lat="14.197521">
                <ele>22.700000</ele>
                <time>1970-01-01T00:14:38Z</time>
            </trkpt>
            <trkpt lon="101.396243" lat="14.197527">
                <ele>22.400000</ele>
                <time>1970-01-01T00:14:40Z</time>
            </trkpt>
            <trkpt lon="101.396275" lat="14.197508">
                <ele>22.300000</ele>
                <time>1970-01-01T00:14:42Z</time>
            </trkpt>
            <trkpt lon="101.396321" lat="14.197479">
                <ele>22.200000</ele>
                <time>1970-01-01T00:14:44Z</time>
            </trkpt>
            <trkpt lon="101.396371" lat="14.197466">
                <ele>22.300000</ele>
                <time>1970-01-01T00:14:46Z</time>
            </trkpt>
            <trkpt lon="101.396414" lat="14.197464">
                <ele>22.300000</ele>
                <time>1970-01-01T00:14:48Z</time>
            </trkpt>
            <trkpt lon="101.396456" lat="14.197463">
                <ele>22.400000</ele>
                <time>1970-01-01T00:14:50Z</time>
            </trkpt>
            <trkpt lon="101.396486" lat="14.197477">
                <ele>22.400000</ele>
                <time>1970-01-01T00:14:52Z</time>
            </trkpt>
            <trkpt lon="101.396485" lat="14.197505">
                <ele>22.400000</ele>
                <time>1970-01-01T00:14:58Z</time>
            </trkpt>
            <trkpt lon="101.396466" lat="14.197527">
                <ele>22.400000</ele>
                <time>1970-01-01T00:15:27Z</time>
            </trkpt>
            <trkpt lon="101.396489" lat="14.197542">
                <ele>22.400000</ele>
                <time>1970-01-01T00:17:06Z</time>
            </trkpt>
            <trkpt lon="101.396490" lat="14.197570">
                <ele>22.400000</ele>
                <time>1970-01-01T00:18:00Z</time>
            </trkpt>
            <trkpt lon="101.396479" lat="14.197601">
                <ele>22.400000</ele>
                <time>1970-01-01T00:18:18Z</time>
            </trkpt>
            <trkpt lon="101.396468" lat="14.197634">
                <ele>22.400000</ele>
                <time>1970-01-01T00:18:22Z</time>
            </trkpt>
            <trkpt lon="101.396465" lat="14.197662">
                <ele>22.400000</ele>
                <time>1970-01-01T00:18:27Z</time>
            </trkpt>
            <trkpt lon="101.396452" lat="14.197688">
                <ele>22.400000</ele>
                <time>1970-01-01T00:18:32Z</time>
            </trkpt>
            <trkpt lon="101.396449" lat="14.197717">
                <ele>22.500000</ele>
                <time>1970-01-01T00:18:35Z</time>
            </trkpt>
            <trkpt lon="101.396478" lat="14.197740">
                <ele>22.300000</ele>
                <time>1970-01-01T00:20:24Z</time>
            </trkpt>
            <trkpt lon="101.396507" lat="14.197760">
                <ele>22.500000</ele>
                <time>1970-01-01T00:20:26Z</time>
            </trkpt>
            <trkpt lon="101.396540" lat="14.197789">
                <ele>22.600000</ele>
                <time>1970-01-01T00:20:28Z</time>
            </trkpt>
            <trkpt lon="101.396569" lat="14.197825">
                <ele>22.600000</ele>
                <time>1970-01-01T00:20:30Z</time>
            </trkpt>
            <trkpt lon="101.396582" lat="14.197868">
                <ele>23.200000</ele>
                <time>1970-01-01T00:20:32Z</time>
            </trkpt>
            <trkpt lon="101.396582" lat="14.197913">
                <ele>23.500000</ele>
                <time>1970-01-01T00:20:34Z</time>
            </trkpt>
            <trkpt lon="101.396584" lat="14.197959">
                <ele>23.500000</ele>
                <time>1970-01-01T00:20:36Z</time>
            </trkpt>
            <trkpt lon="101.396597" lat="14.198005">
                <ele>23.500000</ele>
                <time>1970-01-01T00:20:38Z</time>
            </trkpt>
            <trkpt lon="101.396629" lat="14.198038">
                <ele>23.400000</ele>
                <time>1970-01-01T00:20:40Z</time>
            </trkpt>
            <trkpt lon="101.396678" lat="14.198028">
                <ele>23.400000</ele>
                <time>1970-01-01T00:20:42Z</time>
            </trkpt>
            <trkpt lon="101.396701" lat="14.198010">
                <ele>23.400000</ele>
                <time>1970-01-01T00:20:43Z</time>
            </trkpt>
            <trkpt lon="101.396746" lat="14.197989">
                <ele>23.400000</ele>
                <time>1970-01-01T00:20:45Z</time>
            </trkpt>
            <trkpt lon="101.396775" lat="14.197990">
                <ele>23.400000</ele>
                <time>1970-01-01T00:20:46Z</time>
            </trkpt>
            <trkpt lon="101.396806" lat="14.197999">
                <ele>23.500000</ele>
                <time>1970-01-01T00:20:47Z</time>
            </trkpt>
            <trkpt lon="101.396833" lat="14.198012">
                <ele>23.800000</ele>
                <time>1970-01-01T00:20:48Z</time>
            </trkpt>
            <trkpt lon="101.396868" lat="14.198033">
                <ele>24.200000</ele>
                <time>1970-01-01T00:20:50Z</time>
            </trkpt>
            <trkpt lon="101.396905" lat="14.198056">
                <ele>25.100000</ele>
                <time>1970-01-01T00:20:52Z</time>
            </trkpt>
            <trkpt lon="101.396938" lat="14.198081">
                <ele>25.300000</ele>
                <time>1970-01-01T00:20:54Z</time>
            </trkpt>
            <trkpt lon="101.396977" lat="14.198101">
                <ele>25.800000</ele>
                <time>1970-01-01T00:20:56Z</time>
            </trkpt>
            <trkpt lon="101.397030" lat="14.198107">
                <ele>26.500000</ele>
                <time>1970-01-01T00:20:58Z</time>
            </trkpt>
            <trkpt lon="101.397083" lat="14.198117">
                <ele>26.700000</ele>
                <time>1970-01-01T00:21:00Z</time>
            </trkpt>
            <trkpt lon="101.397131" lat="14.198122">
                <ele>26.800000</ele>
                <time>1970-01-01T00:21:02Z</time>
            </trkpt>
            <trkpt lon="101.397161" lat="14.198121">
                <ele>26.800000</ele>
                <time>1970-01-01T00:21:03Z</time>
            </trkpt>
            <trkpt lon="101.397190" lat="14.198121">
                <ele>26.800000</ele>
                <time>1970-01-01T00:21:04Z</time>
            </trkpt>
            <trkpt lon="101.397219" lat="14.198120">
                <ele>26.900000</ele>
                <time>1970-01-01T00:21:05Z</time>
            </trkpt>
            <trkpt lon="101.397270" lat="14.198110">
                <ele>26.600000</ele>
                <time>1970-01-01T00:21:07Z</time>
            </trkpt>
            <trkpt lon="101.397318" lat="14.198093">
                <ele>26.600000</ele>
                <time>1970-01-01T00:21:09Z</time>
            </trkpt>
            <trkpt lon="101.397365" lat="14.198083">
                <ele>26.600000</ele>
                <time>1970-01-01T00:21:11Z</time>
            </trkpt>
            <trkpt lon="101.397410" lat="14.198062">
                <ele>26.000000</ele>
                <time>1970-01-01T00:21:13Z</time>
            </trkpt>
            <trkpt lon="101.397454" lat="14.198034">
                <ele>25.800000</ele>
                <time>1970-01-01T00:21:15Z</time>
            </trkpt>
            <trkpt lon="101.397492" lat="14.197996">
                <ele>25.200000</ele>
                <time>1970-01-01T00:21:17Z</time>
            </trkpt>
            <trkpt lon="101.397508" lat="14.197974">
                <ele>24.800000</ele>
                <time>1970-01-01T00:21:18Z</time>
            </trkpt>
            <trkpt lon="101.397537" lat="14.197923">
                <ele>24.500000</ele>
                <time>1970-01-01T00:21:20Z</time>
            </trkpt>
            <trkpt lon="101.397556" lat="14.197900">
                <ele>24.300000</ele>
                <time>1970-01-01T00:21:21Z</time>
            </trkpt>
            <trkpt lon="101.397568" lat="14.197874">
                <ele>24.300000</ele>
                <time>1970-01-01T00:21:22Z</time>
            </trkpt>
            <trkpt lon="101.397583" lat="14.197850">
                <ele>24.000000</ele>
                <time>1970-01-01T00:21:23Z</time>
            </trkpt>
            <trkpt lon="101.397600" lat="14.197797">
                <ele>24.500000</ele>
                <time>1970-01-01T00:21:25Z</time>
            </trkpt>
            <trkpt lon="101.397612" lat="14.197738">
                <ele>24.700000</ele>
                <time>1970-01-01T00:21:27Z</time>
            </trkpt>
            <trkpt lon="101.397612" lat="14.197710">
                <ele>24.700000</ele>
                <time>1970-01-01T00:21:28Z</time>
            </trkpt>
            <trkpt lon="101.397605" lat="14.197674">
                <ele>24.800000</ele>
                <time>1970-01-01T00:21:29Z</time>
            </trkpt>
            <trkpt lon="101.397595" lat="14.197619">
                <ele>25.000000</ele>
                <time>1970-01-01T00:21:31Z</time>
            </trkpt>
            <trkpt lon="101.397599" lat="14.197566">
                <ele>25.500000</ele>
                <time>1970-01-01T00:21:33Z</time>
            </trkpt>
            <trkpt lon="101.397609" lat="14.197537">
                <ele>25.500000</ele>
                <time>1970-01-01T00:21:34Z</time>
            </trkpt>
            <trkpt lon="101.397623" lat="14.197509">
                <ele>25.700000</ele>
                <time>1970-01-01T00:21:35Z</time>
            </trkpt>
            <trkpt lon="101.397640" lat="14.197484">
                <ele>26.100000</ele>
                <time>1970-01-01T00:21:36Z</time>
            </trkpt>
            <trkpt lon="101.397658" lat="14.197460">
                <ele>26.100000</ele>
                <time>1970-01-01T00:21:37Z</time>
            </trkpt>
            <trkpt lon="101.397684" lat="14.197417">
                <ele>26.400000</ele>
                <time>1970-01-01T00:21:39Z</time>
            </trkpt>
            <trkpt lon="101.397690" lat="14.197390">
                <ele>26.400000</ele>
                <time>1970-01-01T00:21:40Z</time>
            </trkpt>
            <trkpt lon="101.397690" lat="14.197359">
                <ele>26.300000</ele>
                <time>1970-01-01T00:21:41Z</time>
            </trkpt>
            <trkpt lon="101.397683" lat="14.197324">
                <ele>26.300000</ele>
                <time>1970-01-01T00:21:42Z</time>
            </trkpt>
            <trkpt lon="101.397672" lat="14.197286">
                <ele>26.300000</ele>
                <time>1970-01-01T00:21:43Z</time>
            </trkpt>
            <trkpt lon="101.397658" lat="14.197250">
                <ele>26.100000</ele>
                <time>1970-01-01T00:21:44Z</time>
            </trkpt>
            <trkpt lon="101.397643" lat="14.197214">
                <ele>26.100000</ele>
                <time>1970-01-01T00:21:45Z</time>
            </trkpt>
            <trkpt lon="101.397626" lat="14.197182">
                <ele>25.900000</ele>
                <time>1970-01-01T00:21:46Z</time>
            </trkpt>
            <trkpt lon="101.397605" lat="14.197150">
                <ele>25.900000</ele>
                <time>1970-01-01T00:21:47Z</time>
            </trkpt>
            <trkpt lon="101.397583" lat="14.197121">
                <ele>25.600000</ele>
                <time>1970-01-01T00:21:48Z</time>
            </trkpt>
            <trkpt lon="101.397561" lat="14.197094">
                <ele>25.600000</ele>
                <time>1970-01-01T00:21:49Z</time>
            </trkpt>
            <trkpt lon="101.397540" lat="14.197067">
                <ele>25.300000</ele>
                <time>1970-01-01T00:21:50Z</time>
            </trkpt>
            <trkpt lon="101.397519" lat="14.197038">
                <ele>25.300000</ele>
                <time>1970-01-01T00:21:51Z</time>
            </trkpt>
            <trkpt lon="101.397500" lat="14.197010">
                <ele>25.200000</ele>
                <time>1970-01-01T00:21:52Z</time>
            </trkpt>
            <trkpt lon="101.397481" lat="14.196984">
                <ele>25.400000</ele>
                <time>1970-01-01T00:21:53Z</time>
            </trkpt>
            <trkpt lon="101.397462" lat="14.196959">
                <ele>25.400000</ele>
                <time>1970-01-01T00:21:54Z</time>
            </trkpt>
            <trkpt lon="101.397436" lat="14.196933">
                <ele>25.500000</ele>
                <time>1970-01-01T00:21:55Z</time>
            </trkpt>
            <trkpt lon="101.397408" lat="14.196907">
                <ele>25.600000</ele>
                <time>1970-01-01T00:21:56Z</time>
            </trkpt>
            <trkpt lon="101.397380" lat="14.196884">
                <ele>25.600000</ele>
                <time>1970-01-01T00:21:57Z</time>
            </trkpt>
            <trkpt lon="101.397352" lat="14.196858">
                <ele>25.500000</ele>
                <time>1970-01-01T00:21:58Z</time>
            </trkpt>
            <trkpt lon="101.397325" lat="14.196830">
                <ele>25.300000</ele>
                <time>1970-01-01T00:21:59Z</time>
            </trkpt>
            <trkpt lon="101.397301" lat="14.196804">
                <ele>25.400000</ele>
                <time>1970-01-01T00:22:00Z</time>
            </trkpt>
            <trkpt lon="101.397276" lat="14.196778">
                <ele>25.500000</ele>
                <time>1970-01-01T00:22:01Z</time>
            </trkpt>
            <trkpt lon="101.397251" lat="14.196753">
                <ele>25.500000</ele>
                <time>1970-01-01T00:22:02Z</time>
            </trkpt>
            <trkpt lon="101.397226" lat="14.196728">
                <ele>25.500000</ele>
                <time>1970-01-01T00:22:03Z</time>
            </trkpt>
            <trkpt lon="101.397204" lat="14.196706">
                <ele>25.500000</ele>
                <time>1970-01-01T00:22:04Z</time>
            </trkpt>
            <trkpt lon="101.397183" lat="14.196686">
                <ele>25.500000</ele>
                <time>1970-01-01T00:22:05Z</time>
            </trkpt>
            <trkpt lon="101.397155" lat="14.196654">
                <ele>25.400000</ele>
                <time>1970-01-01T00:22:07Z</time>
            </trkpt>
            <trkpt lon="101.397147" lat="14.196625">
                <ele>25.400000</ele>
                <time>1970-01-01T00:22:11Z</time>
            </trkpt>
            <trkpt lon="101.397148" lat="14.196598">
                <ele>25.500000</ele>
                <time>1970-01-01T00:22:14Z</time>
            </trkpt>
            <trkpt lon="101.397145" lat="14.196570">
                <ele>25.500000</ele>
                <time>1970-01-01T00:22:19Z</time>
            </trkpt>
            <trkpt lon="101.397132" lat="14.196530">
                <ele>25.500000</ele>
                <time>1970-01-01T00:22:27Z</time>
            </trkpt>
            <trkpt lon="101.397123" lat="14.196490">
                <ele>25.500000</ele>
                <time>1970-01-01T00:22:29Z</time>
            </trkpt>
            <trkpt lon="101.397116" lat="14.196461">
                <ele>25.500000</ele>
                <time>1970-01-01T00:22:30Z</time>
            </trkpt>
            <trkpt lon="101.397108" lat="14.196431">
                <ele>25.500000</ele>
                <time>1970-01-01T00:22:31Z</time>
            </trkpt>
            <trkpt lon="101.397099" lat="14.196401">
                <ele>25.500000</ele>
                <time>1970-01-01T00:22:32Z</time>
            </trkpt>
            <trkpt lon="101.397089" lat="14.196372">
                <ele>25.500000</ele>
                <time>1970-01-01T00:22:33Z</time>
            </trkpt>
            <trkpt lon="101.397077" lat="14.196342">
                <ele>25.600000</ele>
                <time>1970-01-01T00:22:34Z</time>
            </trkpt>
            <trkpt lon="101.397062" lat="14.196310">
                <ele>25.500000</ele>
                <time>1970-01-01T00:22:35Z</time>
            </trkpt>
            <trkpt lon="101.397047" lat="14.196282">
                <ele>25.500000</ele>
                <time>1970-01-01T00:22:36Z</time>
            </trkpt>
            <trkpt lon="101.397030" lat="14.196256">
                <ele>25.500000</ele>
                <time>1970-01-01T00:22:37Z</time>
            </trkpt>
            <trkpt lon="101.397012" lat="14.196226">
                <ele>25.400000</ele>
                <time>1970-01-01T00:22:38Z</time>
            </trkpt>
            <trkpt lon="101.396991" lat="14.196198">
                <ele>25.200000</ele>
                <time>1970-01-01T00:22:39Z</time>
            </trkpt>
            <trkpt lon="101.396968" lat="14.196170">
                <ele>25.300000</ele>
                <time>1970-01-01T00:22:40Z</time>
            </trkpt>
            <trkpt lon="101.396941" lat="14.196143">
                <ele>25.300000</ele>
                <time>1970-01-01T00:22:41Z</time>
            </trkpt>
            <trkpt lon="101.396915" lat="14.196115">
                <ele>25.200000</ele>
                <time>1970-01-01T00:22:42Z</time>
            </trkpt>
            <trkpt lon="101.396891" lat="14.196086">
                <ele>25.400000</ele>
                <time>1970-01-01T00:22:43Z</time>
            </trkpt>
            <trkpt lon="101.396866" lat="14.196054">
                <ele>25.200000</ele>
                <time>1970-01-01T00:22:44Z</time>
            </trkpt>
            <trkpt lon="101.396843" lat="14.196023">
                <ele>25.200000</ele>
                <time>1970-01-01T00:22:45Z</time>
            </trkpt>
            <trkpt lon="101.396825" lat="14.195995">
                <ele>25.000000</ele>
                <time>1970-01-01T00:22:46Z</time>
            </trkpt>
            <trkpt lon="101.396810" lat="14.195966">
                <ele>25.200000</ele>
                <time>1970-01-01T00:22:47Z</time>
            </trkpt>
            <trkpt lon="101.396796" lat="14.195933">
                <ele>25.000000</ele>
                <time>1970-01-01T00:22:48Z</time>
            </trkpt>
            <trkpt lon="101.396780" lat="14.195899">
                <ele>24.800000</ele>
                <time>1970-01-01T00:22:49Z</time>
            </trkpt>
            <trkpt lon="101.396762" lat="14.195866">
                <ele>25.000000</ele>
                <time>1970-01-01T00:22:50Z</time>
            </trkpt>
            <trkpt lon="101.396740" lat="14.195834">
                <ele>25.000000</ele>
                <time>1970-01-01T00:22:51Z</time>
            </trkpt>
            <trkpt lon="101.396715" lat="14.195801">
                <ele>25.400000</ele>
                <time>1970-01-01T00:22:52Z</time>
            </trkpt>
            <trkpt lon="101.396687" lat="14.195769">
                <ele>25.300000</ele>
                <time>1970-01-01T00:22:53Z</time>
            </trkpt>
            <trkpt lon="101.396661" lat="14.195733">
                <ele>25.500000</ele>
                <time>1970-01-01T00:22:54Z</time>
            </trkpt>
            <trkpt lon="101.396637" lat="14.195696">
                <ele>25.400000</ele>
                <time>1970-01-01T00:22:55Z</time>
            </trkpt>
            <trkpt lon="101.396617" lat="14.195660">
                <ele>25.100000</ele>
                <time>1970-01-01T00:22:56Z</time>
            </trkpt>
            <trkpt lon="101.396596" lat="14.195623">
                <ele>25.100000</ele>
                <time>1970-01-01T00:22:57Z</time>
            </trkpt>
            <trkpt lon="101.396573" lat="14.195585">
                <ele>24.800000</ele>
                <time>1970-01-01T00:22:58Z</time>
            </trkpt>
            <trkpt lon="101.396549" lat="14.195548">
                <ele>24.300000</ele>
                <time>1970-01-01T00:22:59Z</time>
            </trkpt>
            <trkpt lon="101.396523" lat="14.195512">
                <ele>24.000000</ele>
                <time>1970-01-01T00:23:00Z</time>
            </trkpt>
            <trkpt lon="101.396499" lat="14.195475">
                <ele>23.700000</ele>
                <time>1970-01-01T00:23:01Z</time>
            </trkpt>
            <trkpt lon="101.396474" lat="14.195428">
                <ele>23.600000</ele>
                <time>1970-01-01T00:23:02Z</time>
            </trkpt>
            <trkpt lon="101.396452" lat="14.195389">
                <ele>23.800000</ele>
                <time>1970-01-01T00:23:03Z</time>
            </trkpt>
            <trkpt lon="101.396434" lat="14.195352">
                <ele>23.800000</ele>
                <time>1970-01-01T00:23:04Z</time>
            </trkpt>
            <trkpt lon="101.396419" lat="14.195319">
                <ele>23.900000</ele>
                <time>1970-01-01T00:23:05Z</time>
            </trkpt>
            <trkpt lon="101.396403" lat="14.195284">
                <ele>23.700000</ele>
                <time>1970-01-01T00:23:06Z</time>
            </trkpt>
            <trkpt lon="101.396387" lat="14.195252">
                <ele>23.700000</ele>
                <time>1970-01-01T00:23:07Z</time>
            </trkpt>
            <trkpt lon="101.396379" lat="14.195215">
                <ele>23.300000</ele>
                <time>1970-01-01T00:23:08Z</time>
            </trkpt>
            <trkpt lon="101.396370" lat="14.195180">
                <ele>23.000000</ele>
                <time>1970-01-01T00:23:09Z</time>
            </trkpt>
            <trkpt lon="101.396360" lat="14.195135">
                <ele>22.700000</ele>
                <time>1970-01-01T00:23:10Z</time>
            </trkpt>
            <trkpt lon="101.396342" lat="14.195098">
                <ele>22.500000</ele>
                <time>1970-01-01T00:23:11Z</time>
            </trkpt>
            <trkpt lon="101.396315" lat="14.195068">
                <ele>22.500000</ele>
                <time>1970-01-01T00:23:12Z</time>
            </trkpt>
            <trkpt lon="101.396280" lat="14.195040">
                <ele>22.700000</ele>
                <time>1970-01-01T00:23:13Z</time>
            </trkpt>
            <trkpt lon="101.396247" lat="14.195014">
                <ele>23.000000</ele>
                <time>1970-01-01T00:23:14Z</time>
            </trkpt>
            <trkpt lon="101.396217" lat="14.194986">
                <ele>22.900000</ele>
                <time>1970-01-01T00:23:15Z</time>
            </trkpt>
            <trkpt lon="101.396191" lat="14.194955">
                <ele>23.300000</ele>
                <time>1970-01-01T00:23:16Z</time>
            </trkpt>
            <trkpt lon="101.396168" lat="14.194921">
                <ele>23.600000</ele>
                <time>1970-01-01T00:23:17Z</time>
            </trkpt>
            <trkpt lon="101.396149" lat="14.194886">
                <ele>23.600000</ele>
                <time>1970-01-01T00:23:18Z</time>
            </trkpt>
            <trkpt lon="101.396133" lat="14.194850">
                <ele>23.500000</ele>
                <time>1970-01-01T00:23:19Z</time>
            </trkpt>
            <trkpt lon="101.396119" lat="14.194814">
                <ele>23.500000</ele>
                <time>1970-01-01T00:23:20Z</time>
            </trkpt>
            <trkpt lon="101.396104" lat="14.194780">
                <ele>23.400000</ele>
                <time>1970-01-01T00:23:21Z</time>
            </trkpt>
            <trkpt lon="101.396088" lat="14.194748">
                <ele>23.400000</ele>
                <time>1970-01-01T00:23:22Z</time>
            </trkpt>
            <trkpt lon="101.396073" lat="14.194721">
                <ele>23.400000</ele>
                <time>1970-01-01T00:23:23Z</time>
            </trkpt>
            <trkpt lon="101.396057" lat="14.194694">
                <ele>23.400000</ele>
                <time>1970-01-01T00:23:24Z</time>
            </trkpt>
            <trkpt lon="101.396044" lat="14.194669">
                <ele>23.400000</ele>
                <time>1970-01-01T00:23:25Z</time>
            </trkpt>
            <trkpt lon="101.396025" lat="14.194627">
                <ele>23.500000</ele>
                <time>1970-01-01T00:23:27Z</time>
            </trkpt>
            <trkpt lon="101.396013" lat="14.194597">
                <ele>23.600000</ele>
                <time>1970-01-01T00:23:29Z</time>
            </trkpt>
            <trkpt lon="101.395995" lat="14.194569">
                <ele>23.400000</ele>
                <time>1970-01-01T00:23:31Z</time>
            </trkpt>
            <trkpt lon="101.395984" lat="14.194529">
                <ele>23.200000</ele>
                <time>1970-01-01T00:23:33Z</time>
            </trkpt>
            <trkpt lon="101.396004" lat="14.194486">
                <ele>22.900000</ele>
                <time>1970-01-01T00:23:35Z</time>
            </trkpt>
            <trkpt lon="101.396049" lat="14.194452">
                <ele>22.600000</ele>
                <time>1970-01-01T00:23:37Z</time>
            </trkpt>
            <trkpt lon="101.396077" lat="14.194435">
                <ele>22.600000</ele>
                <time>1970-01-01T00:23:38Z</time>
            </trkpt>
            <trkpt lon="101.396106" lat="14.194417">
                <ele>22.600000</ele>
                <time>1970-01-01T00:23:39Z</time>
            </trkpt>
            <trkpt lon="101.396135" lat="14.194401">
                <ele>22.400000</ele>
                <time>1970-01-01T00:23:40Z</time>
            </trkpt>
            <trkpt lon="101.396165" lat="14.194383">
                <ele>22.400000</ele>
                <time>1970-01-01T00:23:41Z</time>
            </trkpt>
            <trkpt lon="101.396195" lat="14.194364">
                <ele>22.100000</ele>
                <time>1970-01-01T00:23:42Z</time>
            </trkpt>
            <trkpt lon="101.396226" lat="14.194346">
                <ele>22.100000</ele>
                <time>1970-01-01T00:23:43Z</time>
            </trkpt>
            <trkpt lon="101.396259" lat="14.194330">
                <ele>22.100000</ele>
                <time>1970-01-01T00:23:44Z</time>
            </trkpt>
            <trkpt lon="101.396296" lat="14.194315">
                <ele>22.100000</ele>
                <time>1970-01-01T00:23:45Z</time>
            </trkpt>
            <trkpt lon="101.396332" lat="14.194300">
                <ele>22.300000</ele>
                <time>1970-01-01T00:23:46Z</time>
            </trkpt>
            <trkpt lon="101.396368" lat="14.194286">
                <ele>22.700000</ele>
                <time>1970-01-01T00:23:47Z</time>
            </trkpt>
            <trkpt lon="101.396405" lat="14.194270">
                <ele>23.000000</ele>
                <time>1970-01-01T00:23:48Z</time>
            </trkpt>
            <trkpt lon="101.396442" lat="14.194253">
                <ele>23.300000</ele>
                <time>1970-01-01T00:23:49Z</time>
            </trkpt>
            <trkpt lon="101.396477" lat="14.194234">
                <ele>23.500000</ele>
                <time>1970-01-01T00:23:50Z</time>
            </trkpt>
            <trkpt lon="101.396510" lat="14.194211">
                <ele>23.500000</ele>
                <time>1970-01-01T00:23:51Z</time>
            </trkpt>
            <trkpt lon="101.396541" lat="14.194184">
                <ele>23.700000</ele>
                <time>1970-01-01T00:23:52Z</time>
            </trkpt>
            <trkpt lon="101.396571" lat="14.194153">
                <ele>23.700000</ele>
                <time>1970-01-01T00:23:53Z</time>
            </trkpt>
            <trkpt lon="101.396598" lat="14.194123">
                <ele>23.700000</ele>
                <time>1970-01-01T00:23:54Z</time>
            </trkpt>
            <trkpt lon="101.396620" lat="14.194093">
                <ele>23.700000</ele>
                <time>1970-01-01T00:23:55Z</time>
            </trkpt>
            <trkpt lon="101.396637" lat="14.194061">
                <ele>23.600000</ele>
                <time>1970-01-01T00:23:56Z</time>
            </trkpt>
            <trkpt lon="101.396650" lat="14.194028">
                <ele>23.200000</ele>
                <time>1970-01-01T00:23:57Z</time>
            </trkpt>
            <trkpt lon="101.396662" lat="14.193993">
                <ele>23.000000</ele>
                <time>1970-01-01T00:23:58Z</time>
            </trkpt>
            <trkpt lon="101.396673" lat="14.193959">
                <ele>23.000000</ele>
                <time>1970-01-01T00:23:59Z</time>
            </trkpt>
            <trkpt lon="101.396686" lat="14.193926">
                <ele>22.500000</ele>
                <time>1970-01-01T00:24:00Z</time>
            </trkpt>
            <trkpt lon="101.396700" lat="14.193892">
                <ele>22.400000</ele>
                <time>1970-01-01T00:24:01Z</time>
            </trkpt>
            <trkpt lon="101.396716" lat="14.193858">
                <ele>22.300000</ele>
                <time>1970-01-01T00:24:02Z</time>
            </trkpt>
            <trkpt lon="101.396734" lat="14.193826">
                <ele>22.100000</ele>
                <time>1970-01-01T00:24:03Z</time>
            </trkpt>
            <trkpt lon="101.396755" lat="14.193796">
                <ele>22.100000</ele>
                <time>1970-01-01T00:24:04Z</time>
            </trkpt>
            <trkpt lon="101.396779" lat="14.193766">
                <ele>21.900000</ele>
                <time>1970-01-01T00:24:05Z</time>
            </trkpt>
            <trkpt lon="101.396804" lat="14.193740">
                <ele>21.900000</ele>
                <time>1970-01-01T00:24:06Z</time>
            </trkpt>
            <trkpt lon="101.396831" lat="14.193717">
                <ele>21.600000</ele>
                <time>1970-01-01T00:24:07Z</time>
            </trkpt>
            <trkpt lon="101.396863" lat="14.193699">
                <ele>21.400000</ele>
                <time>1970-01-01T00:24:08Z</time>
            </trkpt>
            <trkpt lon="101.396899" lat="14.193683">
                <ele>21.400000</ele>
                <time>1970-01-01T00:24:09Z</time>
            </trkpt>
            <trkpt lon="101.396934" lat="14.193671">
                <ele>21.400000</ele>
                <time>1970-01-01T00:24:10Z</time>
            </trkpt>
            <trkpt lon="101.396971" lat="14.193663">
                <ele>21.300000</ele>
                <time>1970-01-01T00:24:11Z</time>
            </trkpt>
            <trkpt lon="101.397010" lat="14.193656">
                <ele>21.400000</ele>
                <time>1970-01-01T00:24:12Z</time>
            </trkpt>
            <trkpt lon="101.397051" lat="14.193645">
                <ele>21.600000</ele>
                <time>1970-01-01T00:24:13Z</time>
            </trkpt>
            <trkpt lon="101.397093" lat="14.193634">
                <ele>21.800000</ele>
                <time>1970-01-01T00:24:14Z</time>
            </trkpt>
            <trkpt lon="101.397135" lat="14.193622">
                <ele>22.000000</ele>
                <time>1970-01-01T00:24:15Z</time>
            </trkpt>
            <trkpt lon="101.397177" lat="14.193611">
                <ele>22.300000</ele>
                <time>1970-01-01T00:24:16Z</time>
            </trkpt>
            <trkpt lon="101.397216" lat="14.193603">
                <ele>22.800000</ele>
                <time>1970-01-01T00:24:17Z</time>
            </trkpt>
            <trkpt lon="101.397252" lat="14.193596">
                <ele>23.300000</ele>
                <time>1970-01-01T00:24:18Z</time>
            </trkpt>
            <trkpt lon="101.397287" lat="14.193587">
                <ele>23.800000</ele>
                <time>1970-01-01T00:24:19Z</time>
            </trkpt>
            <trkpt lon="101.397322" lat="14.193577">
                <ele>23.900000</ele>
                <time>1970-01-01T00:24:20Z</time>
            </trkpt>
            <trkpt lon="101.397357" lat="14.193569">
                <ele>24.400000</ele>
                <time>1970-01-01T00:24:21Z</time>
            </trkpt>
            <trkpt lon="101.397386" lat="14.193563">
                <ele>24.800000</ele>
                <time>1970-01-01T00:24:22Z</time>
            </trkpt>
            <trkpt lon="101.397430" lat="14.193545">
                <ele>25.000000</ele>
                <time>1970-01-01T00:24:24Z</time>
            </trkpt>
            <trkpt lon="101.397457" lat="14.193530">
                <ele>25.000000</ele>
                <time>1970-01-01T00:24:26Z</time>
            </trkpt>
            <trkpt lon="101.397474" lat="14.193509">
                <ele>25.100000</ele>
                <time>1970-01-01T00:24:58Z</time>
            </trkpt>
            <trkpt lon="101.397506" lat="14.193478">
                <ele>25.400000</ele>
                <time>1970-01-01T00:25:00Z</time>
            </trkpt>
            <trkpt lon="101.397526" lat="14.193458">
                <ele>25.400000</ele>
                <time>1970-01-01T00:25:01Z</time>
            </trkpt>
            <trkpt lon="101.397540" lat="14.193432">
                <ele>25.400000</ele>
                <time>1970-01-01T00:25:02Z</time>
            </trkpt>
            <trkpt lon="101.397541" lat="14.193401">
                <ele>25.400000</ele>
                <time>1970-01-01T00:25:03Z</time>
            </trkpt>
            <trkpt lon="101.397527" lat="14.193367">
                <ele>25.300000</ele>
                <time>1970-01-01T00:25:04Z</time>
            </trkpt>
            <trkpt lon="101.397500" lat="14.193334">
                <ele>25.100000</ele>
                <time>1970-01-01T00:25:05Z</time>
            </trkpt>
            <trkpt lon="101.397474" lat="14.193304">
                <ele>25.100000</ele>
                <time>1970-01-01T00:25:06Z</time>
            </trkpt>
            <trkpt lon="101.397454" lat="14.193269">
                <ele>25.200000</ele>
                <time>1970-01-01T00:25:07Z</time>
            </trkpt>
            <trkpt lon="101.397451" lat="14.193227">
                <ele>25.500000</ele>
                <time>1970-01-01T00:25:08Z</time>
            </trkpt>
            <trkpt lon="101.397467" lat="14.193185">
                <ele>25.700000</ele>
                <time>1970-01-01T00:25:09Z</time>
            </trkpt>
            <trkpt lon="101.397494" lat="14.193149">
                <ele>26.000000</ele>
                <time>1970-01-01T00:25:10Z</time>
            </trkpt>
            <trkpt lon="101.397527" lat="14.193118">
                <ele>26.400000</ele>
                <time>1970-01-01T00:25:11Z</time>
            </trkpt>
            <trkpt lon="101.397562" lat="14.193091">
                <ele>26.600000</ele>
                <time>1970-01-01T00:25:12Z</time>
            </trkpt>
            <trkpt lon="101.397623" lat="14.193078">
                <ele>27.000000</ele>
                <time>1970-01-01T00:25:13Z</time>
            </trkpt>
            <trkpt lon="101.397672" lat="14.193063">
                <ele>27.500000</ele>
                <time>1970-01-01T00:25:14Z</time>
            </trkpt>
            <trkpt lon="101.397719" lat="14.193053">
                <ele>27.600000</ele>
                <time>1970-01-01T00:25:15Z</time>
            </trkpt>
            <trkpt lon="101.397767" lat="14.193038">
                <ele>27.600000</ele>
                <time>1970-01-01T00:25:16Z</time>
            </trkpt>
            <trkpt lon="101.397812" lat="14.193027">
                <ele>27.500000</ele>
                <time>1970-01-01T00:25:17Z</time>
            </trkpt>
            <trkpt lon="101.397862" lat="14.193007">
                <ele>27.500000</ele>
                <time>1970-01-01T00:25:18Z</time>
            </trkpt>
            <trkpt lon="101.397906" lat="14.192996">
                <ele>27.600000</ele>
                <time>1970-01-01T00:25:19Z</time>
            </trkpt>
            <trkpt lon="101.397945" lat="14.192978">
                <ele>28.100000</ele>
                <time>1970-01-01T00:25:20Z</time>
            </trkpt>
            <trkpt lon="101.397986" lat="14.192963">
                <ele>28.600000</ele>
                <time>1970-01-01T00:25:21Z</time>
            </trkpt>
            <trkpt lon="101.398024" lat="14.192961">
                <ele>29.200000</ele>
                <time>1970-01-01T00:25:22Z</time>
            </trkpt>
            <trkpt lon="101.398059" lat="14.192960">
                <ele>29.600000</ele>
                <time>1970-01-01T00:25:23Z</time>
            </trkpt>
            <trkpt lon="101.398095" lat="14.192966">
                <ele>29.600000</ele>
                <time>1970-01-01T00:25:24Z</time>
            </trkpt>
            <trkpt lon="101.398128" lat="14.192973">
                <ele>29.900000</ele>
                <time>1970-01-01T00:25:25Z</time>
            </trkpt>
            <trkpt lon="101.398159" lat="14.192976">
                <ele>30.100000</ele>
                <time>1970-01-01T00:25:26Z</time>
            </trkpt>
            <trkpt lon="101.398194" lat="14.192985">
                <ele>30.300000</ele>
                <time>1970-01-01T00:25:27Z</time>
            </trkpt>
            <trkpt lon="101.398240" lat="14.192999">
                <ele>30.400000</ele>
                <time>1970-01-01T00:25:29Z</time>
            </trkpt>
            <trkpt lon="101.398286" lat="14.193002">
                <ele>30.100000</ele>
                <time>1970-01-01T00:25:31Z</time>
            </trkpt>
            <trkpt lon="101.398337" lat="14.192995">
                <ele>30.400000</ele>
                <time>1970-01-01T00:25:33Z</time>
            </trkpt>
            <trkpt lon="101.398364" lat="14.192985">
                <ele>30.100000</ele>
                <time>1970-01-01T00:25:34Z</time>
            </trkpt>
            <trkpt lon="101.398392" lat="14.192973">
                <ele>30.100000</ele>
                <time>1970-01-01T00:25:35Z</time>
            </trkpt>
            <trkpt lon="101.398423" lat="14.192957">
                <ele>30.100000</ele>
                <time>1970-01-01T00:25:36Z</time>
            </trkpt>
            <trkpt lon="101.398454" lat="14.192937">
                <ele>29.400000</ele>
                <time>1970-01-01T00:25:37Z</time>
            </trkpt>
            <trkpt lon="101.398482" lat="14.192913">
                <ele>29.800000</ele>
                <time>1970-01-01T00:25:38Z</time>
            </trkpt>
            <trkpt lon="101.398506" lat="14.192883">
                <ele>29.000000</ele>
                <time>1970-01-01T00:25:39Z</time>
            </trkpt>
            <trkpt lon="101.398531" lat="14.192851">
                <ele>28.700000</ele>
                <time>1970-01-01T00:25:40Z</time>
            </trkpt>
            <trkpt lon="101.398556" lat="14.192818">
                <ele>29.200000</ele>
                <time>1970-01-01T00:25:41Z</time>
            </trkpt>
            <trkpt lon="101.398579" lat="14.192783">
                <ele>29.000000</ele>
                <time>1970-01-01T00:25:42Z</time>
            </trkpt>
            <trkpt lon="101.398601" lat="14.192749">
                <ele>29.400000</ele>
                <time>1970-01-01T00:25:43Z</time>
            </trkpt>
            <trkpt lon="101.398621" lat="14.192711">
                <ele>28.600000</ele>
                <time>1970-01-01T00:25:44Z</time>
            </trkpt>
            <trkpt lon="101.398640" lat="14.192670">
                <ele>28.900000</ele>
                <time>1970-01-01T00:25:45Z</time>
            </trkpt>
            <trkpt lon="101.398647" lat="14.192619">
                <ele>29.400000</ele>
                <time>1970-01-01T00:25:46Z</time>
            </trkpt>
            <trkpt lon="101.398661" lat="14.192574">
                <ele>28.900000</ele>
                <time>1970-01-01T00:25:47Z</time>
            </trkpt>
            <trkpt lon="101.398678" lat="14.192533">
                <ele>29.200000</ele>
                <time>1970-01-01T00:25:48Z</time>
            </trkpt>
            <trkpt lon="101.398692" lat="14.192487">
                <ele>29.500000</ele>
                <time>1970-01-01T00:25:49Z</time>
            </trkpt>
            <trkpt lon="101.398707" lat="14.192453">
                <ele>28.900000</ele>
                <time>1970-01-01T00:25:50Z</time>
            </trkpt>
            <trkpt lon="101.398723" lat="14.192416">
                <ele>29.100000</ele>
                <time>1970-01-01T00:25:51Z</time>
            </trkpt>
            <trkpt lon="101.398733" lat="14.192376">
                <ele>29.100000</ele>
                <time>1970-01-01T00:25:52Z</time>
            </trkpt>
            <trkpt lon="101.398753" lat="14.192335">
                <ele>28.400000</ele>
                <time>1970-01-01T00:25:53Z</time>
            </trkpt>
            <trkpt lon="101.398766" lat="14.192288">
                <ele>28.400000</ele>
                <time>1970-01-01T00:25:54Z</time>
            </trkpt>
            <trkpt lon="101.398788" lat="14.192242">
                <ele>27.500000</ele>
                <time>1970-01-01T00:25:55Z</time>
            </trkpt>
            <trkpt lon="101.398813" lat="14.192197">
                <ele>27.300000</ele>
                <time>1970-01-01T00:25:56Z</time>
            </trkpt>
            <trkpt lon="101.398829" lat="14.192146">
                <ele>27.100000</ele>
                <time>1970-01-01T00:25:57Z</time>
            </trkpt>
            <trkpt lon="101.398861" lat="14.192106">
                <ele>26.400000</ele>
                <time>1970-01-01T00:25:58Z</time>
            </trkpt>
            <trkpt lon="101.398893" lat="14.192071">
                <ele>25.900000</ele>
                <time>1970-01-01T00:25:59Z</time>
            </trkpt>
            <trkpt lon="101.398917" lat="14.192026">
                <ele>25.400000</ele>
                <time>1970-01-01T00:26:00Z</time>
            </trkpt>
            <trkpt lon="101.398944" lat="14.191983">
                <ele>25.400000</ele>
                <time>1970-01-01T00:26:01Z</time>
            </trkpt>
            <trkpt lon="101.398973" lat="14.191944">
                <ele>24.800000</ele>
                <time>1970-01-01T00:26:02Z</time>
            </trkpt>
            <trkpt lon="101.399005" lat="14.191914">
                <ele>24.300000</ele>
                <time>1970-01-01T00:26:03Z</time>
            </trkpt>
            <trkpt lon="101.399031" lat="14.191884">
                <ele>24.300000</ele>
                <time>1970-01-01T00:26:04Z</time>
            </trkpt>
            <trkpt lon="101.399053" lat="14.191848">
                <ele>24.100000</ele>
                <time>1970-01-01T00:26:05Z</time>
            </trkpt>
            <trkpt lon="101.399072" lat="14.191807">
                <ele>24.400000</ele>
                <time>1970-01-01T00:26:06Z</time>
            </trkpt>
            <trkpt lon="101.399098" lat="14.191769">
                <ele>24.400000</ele>
                <time>1970-01-01T00:26:07Z</time>
            </trkpt>
            <trkpt lon="101.399126" lat="14.191735">
                <ele>24.500000</ele>
                <time>1970-01-01T00:26:08Z</time>
            </trkpt>
            <trkpt lon="101.399160" lat="14.191699">
                <ele>24.300000</ele>
                <time>1970-01-01T00:26:09Z</time>
            </trkpt>
            <trkpt lon="101.399196" lat="14.191676">
                <ele>24.100000</ele>
                <time>1970-01-01T00:26:10Z</time>
            </trkpt>
            <trkpt lon="101.399229" lat="14.191653">
                <ele>24.100000</ele>
                <time>1970-01-01T00:26:11Z</time>
            </trkpt>
            <trkpt lon="101.399257" lat="14.191638">
                <ele>24.100000</ele>
                <time>1970-01-01T00:26:12Z</time>
            </trkpt>
            <trkpt lon="101.399277" lat="14.191603">
                <ele>24.400000</ele>
                <time>1970-01-01T00:26:13Z</time>
            </trkpt>
            <trkpt lon="101.399295" lat="14.191564">
                <ele>24.700000</ele>
                <time>1970-01-01T00:26:14Z</time>
            </trkpt>
            <trkpt lon="101.399307" lat="14.191518">
                <ele>25.000000</ele>
                <time>1970-01-01T00:26:15Z</time>
            </trkpt>
            <trkpt lon="101.399312" lat="14.191484">
                <ele>25.300000</ele>
                <time>1970-01-01T00:26:16Z</time>
            </trkpt>
            <trkpt lon="101.399322" lat="14.191456">
                <ele>25.500000</ele>
                <time>1970-01-01T00:26:17Z</time>
            </trkpt>
            <trkpt lon="101.399333" lat="14.191429">
                <ele>25.500000</ele>
                <time>1970-01-01T00:26:18Z</time>
            </trkpt>
            <trkpt lon="101.399347" lat="14.191402">
                <ele>25.700000</ele>
                <time>1970-01-01T00:26:19Z</time>
            </trkpt>
            <trkpt lon="101.399360" lat="14.191375">
                <ele>25.700000</ele>
                <time>1970-01-01T00:26:20Z</time>
            </trkpt>
            <trkpt lon="101.399371" lat="14.191343">
                <ele>25.700000</ele>
                <time>1970-01-01T00:26:21Z</time>
            </trkpt>
            <trkpt lon="101.399380" lat="14.191309">
                <ele>25.700000</ele>
                <time>1970-01-01T00:26:22Z</time>
            </trkpt>
            <trkpt lon="101.399387" lat="14.191274">
                <ele>25.700000</ele>
                <time>1970-01-01T00:26:23Z</time>
            </trkpt>
            <trkpt lon="101.399392" lat="14.191238">
                <ele>25.600000</ele>
                <time>1970-01-01T00:26:24Z</time>
            </trkpt>
            <trkpt lon="101.399394" lat="14.191201">
                <ele>25.700000</ele>
                <time>1970-01-01T00:26:25Z</time>
            </trkpt>
            <trkpt lon="101.399392" lat="14.191161">
                <ele>25.700000</ele>
                <time>1970-01-01T00:26:26Z</time>
            </trkpt>
            <trkpt lon="101.399390" lat="14.191122">
                <ele>25.700000</ele>
                <time>1970-01-01T00:26:27Z</time>
            </trkpt>
            <trkpt lon="101.399387" lat="14.191082">
                <ele>25.300000</ele>
                <time>1970-01-01T00:26:28Z</time>
            </trkpt>
            <trkpt lon="101.399386" lat="14.191037">
                <ele>25.000000</ele>
                <time>1970-01-01T00:26:29Z</time>
            </trkpt>
            <trkpt lon="101.399389" lat="14.190994">
                <ele>25.000000</ele>
                <time>1970-01-01T00:26:30Z</time>
            </trkpt>
            <trkpt lon="101.399397" lat="14.190953">
                <ele>24.700000</ele>
                <time>1970-01-01T00:26:31Z</time>
            </trkpt>
            <trkpt lon="101.399412" lat="14.190911">
                <ele>24.500000</ele>
                <time>1970-01-01T00:26:32Z</time>
            </trkpt>
            <trkpt lon="101.399447" lat="14.190868">
                <ele>24.600000</ele>
                <time>1970-01-01T00:26:33Z</time>
            </trkpt>
            <trkpt lon="101.399477" lat="14.190836">
                <ele>24.700000</ele>
                <time>1970-01-01T00:26:34Z</time>
            </trkpt>
            <trkpt lon="101.399521" lat="14.190821">
                <ele>24.800000</ele>
                <time>1970-01-01T00:26:35Z</time>
            </trkpt>
            <trkpt lon="101.399566" lat="14.190806">
                <ele>24.800000</ele>
                <time>1970-01-01T00:26:36Z</time>
            </trkpt>
            <trkpt lon="101.399613" lat="14.190793">
                <ele>24.600000</ele>
                <time>1970-01-01T00:26:37Z</time>
            </trkpt>
            <trkpt lon="101.399661" lat="14.190780">
                <ele>24.300000</ele>
                <time>1970-01-01T00:26:38Z</time>
            </trkpt>
            <trkpt lon="101.399707" lat="14.190773">
                <ele>24.000000</ele>
                <time>1970-01-01T00:26:39Z</time>
            </trkpt>
            <trkpt lon="101.399749" lat="14.190759">
                <ele>23.700000</ele>
                <time>1970-01-01T00:26:40Z</time>
            </trkpt>
            <trkpt lon="101.399787" lat="14.190751">
                <ele>23.700000</ele>
                <time>1970-01-01T00:26:41Z</time>
            </trkpt>
            <trkpt lon="101.399828" lat="14.190739">
                <ele>23.600000</ele>
                <time>1970-01-01T00:26:42Z</time>
            </trkpt>
            <trkpt lon="101.399867" lat="14.190728">
                <ele>23.600000</ele>
                <time>1970-01-01T00:26:43Z</time>
            </trkpt>
            <trkpt lon="101.399903" lat="14.190716">
                <ele>23.600000</ele>
                <time>1970-01-01T00:26:44Z</time>
            </trkpt>
            <trkpt lon="101.399934" lat="14.190700">
                <ele>23.900000</ele>
                <time>1970-01-01T00:26:45Z</time>
            </trkpt>
            <trkpt lon="101.399962" lat="14.190678">
                <ele>24.000000</ele>
                <time>1970-01-01T00:26:46Z</time>
            </trkpt>
            <trkpt lon="101.399992" lat="14.190653">
                <ele>24.400000</ele>
                <time>1970-01-01T00:26:47Z</time>
            </trkpt>
            <trkpt lon="101.400021" lat="14.190624">
                <ele>24.600000</ele>
                <time>1970-01-01T00:26:48Z</time>
            </trkpt>
            <trkpt lon="101.400048" lat="14.190592">
                <ele>24.700000</ele>
                <time>1970-01-01T00:26:49Z</time>
            </trkpt>
            <trkpt lon="101.400071" lat="14.190557">
                <ele>24.800000</ele>
                <time>1970-01-01T00:26:50Z</time>
            </trkpt>
            <trkpt lon="101.400086" lat="14.190518">
                <ele>24.800000</ele>
                <time>1970-01-01T00:26:51Z</time>
            </trkpt>
            <trkpt lon="101.400095" lat="14.190475">
                <ele>24.800000</ele>
                <time>1970-01-01T00:26:52Z</time>
            </trkpt>
            <trkpt lon="101.400099" lat="14.190433">
                <ele>24.800000</ele>
                <time>1970-01-01T00:26:53Z</time>
            </trkpt>
            <trkpt lon="101.400098" lat="14.190391">
                <ele>24.700000</ele>
                <time>1970-01-01T00:26:54Z</time>
            </trkpt>
            <trkpt lon="101.400094" lat="14.190351">
                <ele>24.600000</ele>
                <time>1970-01-01T00:26:55Z</time>
            </trkpt>
            <trkpt lon="101.400087" lat="14.190313">
                <ele>24.500000</ele>
                <time>1970-01-01T00:26:56Z</time>
            </trkpt>
            <trkpt lon="101.400081" lat="14.190284">
                <ele>24.500000</ele>
                <time>1970-01-01T00:26:57Z</time>
            </trkpt>
            <trkpt lon="101.400070" lat="14.190233">
                <ele>24.600000</ele>
                <time>1970-01-01T00:26:59Z</time>
            </trkpt>
            <trkpt lon="101.400064" lat="14.190205">
                <ele>24.900000</ele>
                <time>1970-01-01T00:27:00Z</time>
            </trkpt>
            <trkpt lon="101.400058" lat="14.190174">
                <ele>24.900000</ele>
                <time>1970-01-01T00:27:01Z</time>
            </trkpt>
            <trkpt lon="101.400049" lat="14.190138">
                <ele>25.100000</ele>
                <time>1970-01-01T00:27:02Z</time>
            </trkpt>
            <trkpt lon="101.400039" lat="14.190105">
                <ele>25.400000</ele>
                <time>1970-01-01T00:27:03Z</time>
            </trkpt>
            <trkpt lon="101.400029" lat="14.190074">
                <ele>25.200000</ele>
                <time>1970-01-01T00:27:04Z</time>
            </trkpt>
            <trkpt lon="101.400019" lat="14.190043">
                <ele>25.100000</ele>
                <time>1970-01-01T00:27:05Z</time>
            </trkpt>
            <trkpt lon="101.400012" lat="14.190013">
                <ele>25.100000</ele>
                <time>1970-01-01T00:27:06Z</time>
            </trkpt>
            <trkpt lon="101.400007" lat="14.189981">
                <ele>25.000000</ele>
                <time>1970-01-01T00:27:07Z</time>
            </trkpt>
            <trkpt lon="101.400005" lat="14.189945">
                <ele>24.800000</ele>
                <time>1970-01-01T00:27:08Z</time>
            </trkpt>
            <trkpt lon="101.400006" lat="14.189906">
                <ele>24.700000</ele>
                <time>1970-01-01T00:27:09Z</time>
            </trkpt>
            <trkpt lon="101.400011" lat="14.189866">
                <ele>24.600000</ele>
                <time>1970-01-01T00:27:10Z</time>
            </trkpt>
            <trkpt lon="101.400022" lat="14.189827">
                <ele>24.700000</ele>
                <time>1970-01-01T00:27:11Z</time>
            </trkpt>
            <trkpt lon="101.400036" lat="14.189797">
                <ele>24.600000</ele>
                <time>1970-01-01T00:27:12Z</time>
            </trkpt>
            <trkpt lon="101.400062" lat="14.189752">
                <ele>25.000000</ele>
                <time>1970-01-01T00:27:14Z</time>
            </trkpt>
            <trkpt lon="101.400068" lat="14.189723">
                <ele>25.000000</ele>
                <time>1970-01-01T00:27:15Z</time>
            </trkpt>
            <trkpt lon="101.400065" lat="14.189691">
                <ele>25.200000</ele>
                <time>1970-01-01T00:27:16Z</time>
            </trkpt>
            <trkpt lon="101.400056" lat="14.189658">
                <ele>25.400000</ele>
                <time>1970-01-01T00:27:17Z</time>
            </trkpt>
            <trkpt lon="101.400046" lat="14.189625">
                <ele>25.700000</ele>
                <time>1970-01-01T00:27:18Z</time>
            </trkpt>
            <trkpt lon="101.400033" lat="14.189591">
                <ele>25.700000</ele>
                <time>1970-01-01T00:27:19Z</time>
            </trkpt>
            <trkpt lon="101.400019" lat="14.189554">
                <ele>26.100000</ele>
                <time>1970-01-01T00:27:20Z</time>
            </trkpt>
            <trkpt lon="101.400005" lat="14.189515">
                <ele>26.400000</ele>
                <time>1970-01-01T00:27:21Z</time>
            </trkpt>
            <trkpt lon="101.399993" lat="14.189473">
                <ele>26.700000</ele>
                <time>1970-01-01T00:27:22Z</time>
            </trkpt>
            <trkpt lon="101.399982" lat="14.189416">
                <ele>26.800000</ele>
                <time>1970-01-01T00:27:23Z</time>
            </trkpt>
            <trkpt lon="101.399972" lat="14.189364">
                <ele>26.600000</ele>
                <time>1970-01-01T00:27:24Z</time>
            </trkpt>
            <trkpt lon="101.399961" lat="14.189323">
                <ele>26.200000</ele>
                <time>1970-01-01T00:27:25Z</time>
            </trkpt>
            <trkpt lon="101.399958" lat="14.189273">
                <ele>25.900000</ele>
                <time>1970-01-01T00:27:26Z</time>
            </trkpt>
            <trkpt lon="101.399959" lat="14.189227">
                <ele>25.600000</ele>
                <time>1970-01-01T00:27:27Z</time>
            </trkpt>
            <trkpt lon="101.399977" lat="14.189182">
                <ele>25.300000</ele>
                <time>1970-01-01T00:27:28Z</time>
            </trkpt>
            <trkpt lon="101.399995" lat="14.189148">
                <ele>25.500000</ele>
                <time>1970-01-01T00:27:29Z</time>
            </trkpt>
            <trkpt lon="101.400018" lat="14.189110">
                <ele>25.400000</ele>
                <time>1970-01-01T00:27:30Z</time>
            </trkpt>
            <trkpt lon="101.400036" lat="14.189074">
                <ele>25.800000</ele>
                <time>1970-01-01T00:27:31Z</time>
            </trkpt>
            <trkpt lon="101.400034" lat="14.189032">
                <ele>25.800000</ele>
                <time>1970-01-01T00:27:32Z</time>
            </trkpt>
            <trkpt lon="101.400026" lat="14.188994">
                <ele>25.300000</ele>
                <time>1970-01-01T00:27:33Z</time>
            </trkpt>
            <trkpt lon="101.400024" lat="14.188957">
                <ele>25.300000</ele>
                <time>1970-01-01T00:27:34Z</time>
            </trkpt>
            <trkpt lon="101.400043" lat="14.188922">
                <ele>25.400000</ele>
                <time>1970-01-01T00:27:35Z</time>
            </trkpt>
            <trkpt lon="101.400070" lat="14.188886">
                <ele>25.400000</ele>
                <time>1970-01-01T00:27:36Z</time>
            </trkpt>
            <trkpt lon="101.400105" lat="14.188862">
                <ele>25.300000</ele>
                <time>1970-01-01T00:27:37Z</time>
            </trkpt>
            <trkpt lon="101.400141" lat="14.188842">
                <ele>25.200000</ele>
                <time>1970-01-01T00:27:38Z</time>
            </trkpt>
            <trkpt lon="101.400180" lat="14.188825">
                <ele>24.900000</ele>
                <time>1970-01-01T00:27:39Z</time>
            </trkpt>
            <trkpt lon="101.400223" lat="14.188812">
                <ele>24.900000</ele>
                <time>1970-01-01T00:27:40Z</time>
            </trkpt>
            <trkpt lon="101.400266" lat="14.188805">
                <ele>24.900000</ele>
                <time>1970-01-01T00:27:41Z</time>
            </trkpt>
            <trkpt lon="101.400309" lat="14.188797">
                <ele>24.800000</ele>
                <time>1970-01-01T00:27:42Z</time>
            </trkpt>
            <trkpt lon="101.400347" lat="14.188789">
                <ele>24.800000</ele>
                <time>1970-01-01T00:27:43Z</time>
            </trkpt>
            <trkpt lon="101.400388" lat="14.188780">
                <ele>24.800000</ele>
                <time>1970-01-01T00:27:44Z</time>
            </trkpt>
            <trkpt lon="101.400431" lat="14.188775">
                <ele>24.800000</ele>
                <time>1970-01-01T00:27:45Z</time>
            </trkpt>
            <trkpt lon="101.400470" lat="14.188773">
                <ele>24.800000</ele>
                <time>1970-01-01T00:27:46Z</time>
            </trkpt>
            <trkpt lon="101.400511" lat="14.188770">
                <ele>24.700000</ele>
                <time>1970-01-01T00:27:47Z</time>
            </trkpt>
            <trkpt lon="101.400554" lat="14.188765">
                <ele>24.700000</ele>
                <time>1970-01-01T00:27:48Z</time>
            </trkpt>
            <trkpt lon="101.400595" lat="14.188760">
                <ele>24.700000</ele>
                <time>1970-01-01T00:27:49Z</time>
            </trkpt>
            <trkpt lon="101.400631" lat="14.188751">
                <ele>24.400000</ele>
                <time>1970-01-01T00:27:50Z</time>
            </trkpt>
            <trkpt lon="101.400659" lat="14.188739">
                <ele>24.600000</ele>
                <time>1970-01-01T00:27:51Z</time>
            </trkpt>
            <trkpt lon="101.400689" lat="14.188721">
                <ele>25.000000</ele>
                <time>1970-01-01T00:27:52Z</time>
            </trkpt>
            <trkpt lon="101.400720" lat="14.188695">
                <ele>25.100000</ele>
                <time>1970-01-01T00:27:53Z</time>
            </trkpt>
            <trkpt lon="101.400747" lat="14.188666">
                <ele>24.800000</ele>
                <time>1970-01-01T00:27:54Z</time>
            </trkpt>
            <trkpt lon="101.400761" lat="14.188632">
                <ele>24.800000</ele>
                <time>1970-01-01T00:27:55Z</time>
            </trkpt>
            <trkpt lon="101.400766" lat="14.188595">
                <ele>24.700000</ele>
                <time>1970-01-01T00:27:56Z</time>
            </trkpt>
            <trkpt lon="101.400763" lat="14.188552">
                <ele>24.400000</ele>
                <time>1970-01-01T00:27:57Z</time>
            </trkpt>
            <trkpt lon="101.400753" lat="14.188507">
                <ele>23.900000</ele>
                <time>1970-01-01T00:27:58Z</time>
            </trkpt>
            <trkpt lon="101.400739" lat="14.188466">
                <ele>23.800000</ele>
                <time>1970-01-01T00:27:59Z</time>
            </trkpt>
            <trkpt lon="101.400725" lat="14.188434">
                <ele>23.700000</ele>
                <time>1970-01-01T00:28:00Z</time>
            </trkpt>
            <trkpt lon="101.400716" lat="14.188402">
                <ele>23.800000</ele>
                <time>1970-01-01T00:28:01Z</time>
            </trkpt>
            <trkpt lon="101.400705" lat="14.188372">
                <ele>23.900000</ele>
                <time>1970-01-01T00:28:02Z</time>
            </trkpt>
            <trkpt lon="101.400696" lat="14.188339">
                <ele>24.100000</ele>
                <time>1970-01-01T00:28:03Z</time>
            </trkpt>
            <trkpt lon="101.400687" lat="14.188309">
                <ele>24.100000</ele>
                <time>1970-01-01T00:28:04Z</time>
            </trkpt>
            <trkpt lon="101.400680" lat="14.188275">
                <ele>24.300000</ele>
                <time>1970-01-01T00:28:05Z</time>
            </trkpt>
            <trkpt lon="101.400673" lat="14.188237">
                <ele>24.700000</ele>
                <time>1970-01-01T00:28:06Z</time>
            </trkpt>
            <trkpt lon="101.400666" lat="14.188202">
                <ele>24.800000</ele>
                <time>1970-01-01T00:28:07Z</time>
            </trkpt>
            <trkpt lon="101.400660" lat="14.188166">
                <ele>24.700000</ele>
                <time>1970-01-01T00:28:08Z</time>
            </trkpt>
            <trkpt lon="101.400653" lat="14.188125">
                <ele>24.700000</ele>
                <time>1970-01-01T00:28:09Z</time>
            </trkpt>
            <trkpt lon="101.400647" lat="14.188087">
                <ele>24.700000</ele>
                <time>1970-01-01T00:28:10Z</time>
            </trkpt>
            <trkpt lon="101.400639" lat="14.188054">
                <ele>24.700000</ele>
                <time>1970-01-01T00:28:11Z</time>
            </trkpt>
            <trkpt lon="101.400631" lat="14.188016">
                <ele>24.800000</ele>
                <time>1970-01-01T00:28:12Z</time>
            </trkpt>
            <trkpt lon="101.400621" lat="14.187970">
                <ele>24.800000</ele>
                <time>1970-01-01T00:28:13Z</time>
            </trkpt>
            <trkpt lon="101.400610" lat="14.187926">
                <ele>24.800000</ele>
                <time>1970-01-01T00:28:14Z</time>
            </trkpt>
            <trkpt lon="101.400600" lat="14.187883">
                <ele>24.700000</ele>
                <time>1970-01-01T00:28:15Z</time>
            </trkpt>
            <trkpt lon="101.400593" lat="14.187840">
                <ele>24.700000</ele>
                <time>1970-01-01T00:28:16Z</time>
            </trkpt>
            <trkpt lon="101.400593" lat="14.187792">
                <ele>24.700000</ele>
                <time>1970-01-01T00:28:17Z</time>
            </trkpt>
            <trkpt lon="101.400592" lat="14.187749">
                <ele>24.800000</ele>
                <time>1970-01-01T00:28:18Z</time>
            </trkpt>
            <trkpt lon="101.400589" lat="14.187707">
                <ele>24.900000</ele>
                <time>1970-01-01T00:28:19Z</time>
            </trkpt>
            <trkpt lon="101.400581" lat="14.187667">
                <ele>25.100000</ele>
                <time>1970-01-01T00:28:20Z</time>
            </trkpt>
            <trkpt lon="101.400570" lat="14.187620">
                <ele>25.300000</ele>
                <time>1970-01-01T00:28:21Z</time>
            </trkpt>
            <trkpt lon="101.400559" lat="14.187582">
                <ele>25.600000</ele>
                <time>1970-01-01T00:28:22Z</time>
            </trkpt>
            <trkpt lon="101.400553" lat="14.187553">
                <ele>25.600000</ele>
                <time>1970-01-01T00:28:23Z</time>
            </trkpt>
            <trkpt lon="101.400558" lat="14.187525">
                <ele>25.800000</ele>
                <time>1970-01-01T00:28:25Z</time>
            </trkpt>
            <trkpt lon="101.400535" lat="14.187463">
                <ele>26.100000</ele>
                <time>1970-01-01T00:28:27Z</time>
            </trkpt>
            <trkpt lon="101.400527" lat="14.187429">
                <ele>26.100000</ele>
                <time>1970-01-01T00:28:28Z</time>
            </trkpt>
            <trkpt lon="101.400523" lat="14.187390">
                <ele>26.300000</ele>
                <time>1970-01-01T00:28:29Z</time>
            </trkpt>
            <trkpt lon="101.400512" lat="14.187349">
                <ele>26.500000</ele>
                <time>1970-01-01T00:28:30Z</time>
            </trkpt>
            <trkpt lon="101.400509" lat="14.187310">
                <ele>26.700000</ele>
                <time>1970-01-01T00:28:31Z</time>
            </trkpt>
            <trkpt lon="101.400505" lat="14.187270">
                <ele>26.900000</ele>
                <time>1970-01-01T00:28:32Z</time>
            </trkpt>
            <trkpt lon="101.400503" lat="14.187235">
                <ele>27.100000</ele>
                <time>1970-01-01T00:28:33Z</time>
            </trkpt>
            <trkpt lon="101.400501" lat="14.187202">
                <ele>27.400000</ele>
                <time>1970-01-01T00:28:34Z</time>
            </trkpt>
            <trkpt lon="101.400493" lat="14.187160">
                <ele>27.700000</ele>
                <time>1970-01-01T00:28:35Z</time>
            </trkpt>
            <trkpt lon="101.400484" lat="14.187117">
                <ele>27.800000</ele>
                <time>1970-01-01T00:28:36Z</time>
            </trkpt>
            <trkpt lon="101.400473" lat="14.187076">
                <ele>27.800000</ele>
                <time>1970-01-01T00:28:37Z</time>
            </trkpt>
            <trkpt lon="101.400462" lat="14.187031">
                <ele>27.600000</ele>
                <time>1970-01-01T00:28:38Z</time>
            </trkpt>
            <trkpt lon="101.400453" lat="14.186988">
                <ele>27.300000</ele>
                <time>1970-01-01T00:28:39Z</time>
            </trkpt>
            <trkpt lon="101.400444" lat="14.186946">
                <ele>27.000000</ele>
                <time>1970-01-01T00:28:40Z</time>
            </trkpt>
            <trkpt lon="101.400435" lat="14.186901">
                <ele>26.600000</ele>
                <time>1970-01-01T00:28:41Z</time>
            </trkpt>
            <trkpt lon="101.400427" lat="14.186856">
                <ele>26.300000</ele>
                <time>1970-01-01T00:28:42Z</time>
            </trkpt>
            <trkpt lon="101.400422" lat="14.186816">
                <ele>26.000000</ele>
                <time>1970-01-01T00:28:43Z</time>
            </trkpt>
            <trkpt lon="101.400418" lat="14.186779">
                <ele>25.900000</ele>
                <time>1970-01-01T00:28:44Z</time>
            </trkpt>
            <trkpt lon="101.400414" lat="14.186742">
                <ele>25.900000</ele>
                <time>1970-01-01T00:28:45Z</time>
            </trkpt>
            <trkpt lon="101.400410" lat="14.186702">
                <ele>26.000000</ele>
                <time>1970-01-01T00:28:46Z</time>
            </trkpt>
            <trkpt lon="101.400406" lat="14.186663">
                <ele>26.200000</ele>
                <time>1970-01-01T00:28:47Z</time>
            </trkpt>
            <trkpt lon="101.400401" lat="14.186622">
                <ele>26.400000</ele>
                <time>1970-01-01T00:28:48Z</time>
            </trkpt>
            <trkpt lon="101.400395" lat="14.186581">
                <ele>26.800000</ele>
                <time>1970-01-01T00:28:49Z</time>
            </trkpt>
            <trkpt lon="101.400387" lat="14.186522">
                <ele>27.100000</ele>
                <time>1970-01-01T00:28:50Z</time>
            </trkpt>
            <trkpt lon="101.400372" lat="14.186463">
                <ele>27.800000</ele>
                <time>1970-01-01T00:28:51Z</time>
            </trkpt>
            <trkpt lon="101.400368" lat="14.186410">
                <ele>28.100000</ele>
                <time>1970-01-01T00:28:52Z</time>
            </trkpt>
            <trkpt lon="101.400362" lat="14.186368">
                <ele>28.400000</ele>
                <time>1970-01-01T00:28:53Z</time>
            </trkpt>
            <trkpt lon="101.400362" lat="14.186330">
                <ele>28.600000</ele>
                <time>1970-01-01T00:28:54Z</time>
            </trkpt>
            <trkpt lon="101.400368" lat="14.186294">
                <ele>28.800000</ele>
                <time>1970-01-01T00:28:55Z</time>
            </trkpt>
            <trkpt lon="101.400389" lat="14.186264">
                <ele>28.700000</ele>
                <time>1970-01-01T00:28:56Z</time>
            </trkpt>
            <trkpt lon="101.400414" lat="14.186237">
                <ele>28.900000</ele>
                <time>1970-01-01T00:28:57Z</time>
            </trkpt>
            <trkpt lon="101.400453" lat="14.186221">
                <ele>29.000000</ele>
                <time>1970-01-01T00:28:58Z</time>
            </trkpt>
            <trkpt lon="101.400489" lat="14.186205">
                <ele>29.400000</ele>
                <time>1970-01-01T00:28:59Z</time>
            </trkpt>
            <trkpt lon="101.400527" lat="14.186189">
                <ele>29.500000</ele>
                <time>1970-01-01T00:29:00Z</time>
            </trkpt>
            <trkpt lon="101.400570" lat="14.186184">
                <ele>29.600000</ele>
                <time>1970-01-01T00:29:01Z</time>
            </trkpt>
            <trkpt lon="101.400615" lat="14.186173">
                <ele>29.700000</ele>
                <time>1970-01-01T00:29:02Z</time>
            </trkpt>
            <trkpt lon="101.400649" lat="14.186169">
                <ele>29.500000</ele>
                <time>1970-01-01T00:29:03Z</time>
            </trkpt>
            <trkpt lon="101.400685" lat="14.186159">
                <ele>29.100000</ele>
                <time>1970-01-01T00:29:04Z</time>
            </trkpt>
            <trkpt lon="101.400722" lat="14.186148">
                <ele>28.500000</ele>
                <time>1970-01-01T00:29:05Z</time>
            </trkpt>
            <trkpt lon="101.400757" lat="14.186137">
                <ele>28.500000</ele>
                <time>1970-01-01T00:29:06Z</time>
            </trkpt>
            <trkpt lon="101.400790" lat="14.186125">
                <ele>28.100000</ele>
                <time>1970-01-01T00:29:07Z</time>
            </trkpt>
            <trkpt lon="101.400822" lat="14.186113">
                <ele>27.600000</ele>
                <time>1970-01-01T00:29:08Z</time>
            </trkpt>
            <trkpt lon="101.400850" lat="14.186096">
                <ele>27.000000</ele>
                <time>1970-01-01T00:29:09Z</time>
            </trkpt>
            <trkpt lon="101.400873" lat="14.186072">
                <ele>27.100000</ele>
                <time>1970-01-01T00:29:10Z</time>
            </trkpt>
            <trkpt lon="101.400889" lat="14.186040">
                <ele>27.200000</ele>
                <time>1970-01-01T00:29:11Z</time>
            </trkpt>
            <trkpt lon="101.400893" lat="14.186002">
                <ele>26.900000</ele>
                <time>1970-01-01T00:29:12Z</time>
            </trkpt>
            <trkpt lon="101.400887" lat="14.185961">
                <ele>27.300000</ele>
                <time>1970-01-01T00:29:13Z</time>
            </trkpt>
            <trkpt lon="101.400875" lat="14.185921">
                <ele>27.400000</ele>
                <time>1970-01-01T00:29:14Z</time>
            </trkpt>
            <trkpt lon="101.400859" lat="14.185880">
                <ele>27.400000</ele>
                <time>1970-01-01T00:29:15Z</time>
            </trkpt>
            <trkpt lon="101.400842" lat="14.185843">
                <ele>27.700000</ele>
                <time>1970-01-01T00:29:16Z</time>
            </trkpt>
            <trkpt lon="101.400822" lat="14.185809">
                <ele>27.700000</ele>
                <time>1970-01-01T00:29:17Z</time>
            </trkpt>
            <trkpt lon="101.400801" lat="14.185781">
                <ele>28.000000</ele>
                <time>1970-01-01T00:29:18Z</time>
            </trkpt>
            <trkpt lon="101.400780" lat="14.185758">
                <ele>28.000000</ele>
                <time>1970-01-01T00:29:19Z</time>
            </trkpt>
            <trkpt lon="101.400750" lat="14.185722">
                <ele>28.200000</ele>
                <time>1970-01-01T00:29:21Z</time>
            </trkpt>
            <trkpt lon="101.400743" lat="14.185694">
                <ele>28.100000</ele>
                <time>1970-01-01T00:29:23Z</time>
            </trkpt>
            <trkpt lon="101.400742" lat="14.185651">
                <ele>28.000000</ele>
                <time>1970-01-01T00:29:25Z</time>
            </trkpt>
            <trkpt lon="101.400733" lat="14.185622">
                <ele>27.900000</ele>
                <time>1970-01-01T00:29:26Z</time>
            </trkpt>
            <trkpt lon="101.400719" lat="14.185588">
                <ele>27.900000</ele>
                <time>1970-01-01T00:29:27Z</time>
            </trkpt>
            <trkpt lon="101.400702" lat="14.185554">
                <ele>27.900000</ele>
                <time>1970-01-01T00:29:28Z</time>
            </trkpt>
            <trkpt lon="101.400684" lat="14.185520">
                <ele>27.900000</ele>
                <time>1970-01-01T00:29:29Z</time>
            </trkpt>
            <trkpt lon="101.400665" lat="14.185484">
                <ele>27.900000</ele>
                <time>1970-01-01T00:29:30Z</time>
            </trkpt>
            <trkpt lon="101.400647" lat="14.185447">
                <ele>27.900000</ele>
                <time>1970-01-01T00:29:31Z</time>
            </trkpt>
            <trkpt lon="101.400632" lat="14.185415">
                <ele>27.700000</ele>
                <time>1970-01-01T00:29:32Z</time>
            </trkpt>
            <trkpt lon="101.400619" lat="14.185385">
                <ele>27.700000</ele>
                <time>1970-01-01T00:29:33Z</time>
            </trkpt>
            <trkpt lon="101.400602" lat="14.185353">
                <ele>27.700000</ele>
                <time>1970-01-01T00:29:34Z</time>
            </trkpt>
            <trkpt lon="101.400587" lat="14.185321">
                <ele>27.700000</ele>
                <time>1970-01-01T00:29:35Z</time>
            </trkpt>
            <trkpt lon="101.400571" lat="14.185291">
                <ele>27.900000</ele>
                <time>1970-01-01T00:29:36Z</time>
            </trkpt>
            <trkpt lon="101.400557" lat="14.185266">
                <ele>27.900000</ele>
                <time>1970-01-01T00:29:37Z</time>
            </trkpt>
            <trkpt lon="101.400542" lat="14.185223">
                <ele>28.100000</ele>
                <time>1970-01-01T00:29:48Z</time>
            </trkpt>
            <trkpt lon="101.400525" lat="14.185198">
                <ele>28.400000</ele>
                <time>1970-01-01T00:29:51Z</time>
            </trkpt>
            <trkpt lon="101.400511" lat="14.185161">
                <ele>28.700000</ele>
                <time>1970-01-01T00:29:54Z</time>
            </trkpt>
            <trkpt lon="101.400495" lat="14.185130">
                <ele>28.900000</ele>
                <time>1970-01-01T00:29:56Z</time>
            </trkpt>
            <trkpt lon="101.400473" lat="14.185081">
                <ele>28.900000</ele>
                <time>1970-01-01T00:29:58Z</time>
            </trkpt>
            <trkpt lon="101.400473" lat="14.185051">
                <ele>29.000000</ele>
                <time>1970-01-01T00:29:59Z</time>
            </trkpt>
            <trkpt lon="101.400487" lat="14.185017">
                <ele>29.200000</ele>
                <time>1970-01-01T00:30:00Z</time>
            </trkpt>
            <trkpt lon="101.400508" lat="14.184983">
                <ele>29.400000</ele>
                <time>1970-01-01T00:30:01Z</time>
            </trkpt>
            <trkpt lon="101.400533" lat="14.184954">
                <ele>29.600000</ele>
                <time>1970-01-01T00:30:02Z</time>
            </trkpt>
            <trkpt lon="101.400567" lat="14.184930">
                <ele>29.900000</ele>
                <time>1970-01-01T00:30:03Z</time>
            </trkpt>
            <trkpt lon="101.400610" lat="14.184909">
                <ele>30.000000</ele>
                <time>1970-01-01T00:30:04Z</time>
            </trkpt>
            <trkpt lon="101.400659" lat="14.184892">
                <ele>30.000000</ele>
                <time>1970-01-01T00:30:05Z</time>
            </trkpt>
            <trkpt lon="101.400709" lat="14.184879">
                <ele>30.100000</ele>
                <time>1970-01-01T00:30:06Z</time>
            </trkpt>
            <trkpt lon="101.400760" lat="14.184866">
                <ele>30.100000</ele>
                <time>1970-01-01T00:30:07Z</time>
            </trkpt>
            <trkpt lon="101.400832" lat="14.184867">
                <ele>30.100000</ele>
                <time>1970-01-01T00:30:08Z</time>
            </trkpt>
            <trkpt lon="101.400880" lat="14.184858">
                <ele>30.200000</ele>
                <time>1970-01-01T00:30:09Z</time>
            </trkpt>
            <trkpt lon="101.400916" lat="14.184840">
                <ele>30.300000</ele>
                <time>1970-01-01T00:30:10Z</time>
            </trkpt>
            <trkpt lon="101.400953" lat="14.184822">
                <ele>30.500000</ele>
                <time>1970-01-01T00:30:11Z</time>
            </trkpt>
            <trkpt lon="101.400990" lat="14.184807">
                <ele>30.700000</ele>
                <time>1970-01-01T00:30:12Z</time>
            </trkpt>
            <trkpt lon="101.401008" lat="14.184777">
                <ele>31.000000</ele>
                <time>1970-01-01T00:30:13Z</time>
            </trkpt>
            <trkpt lon="101.401016" lat="14.184741">
                <ele>31.300000</ele>
                <time>1970-01-01T00:30:14Z</time>
            </trkpt>
            <trkpt lon="101.401010" lat="14.184688">
                <ele>31.800000</ele>
                <time>1970-01-01T00:30:15Z</time>
            </trkpt>
            <trkpt lon="101.401004" lat="14.184637">
                <ele>32.200000</ele>
                <time>1970-01-01T00:30:16Z</time>
            </trkpt>
            <trkpt lon="101.400988" lat="14.184586">
                <ele>32.700000</ele>
                <time>1970-01-01T00:30:17Z</time>
            </trkpt>
            <trkpt lon="101.400968" lat="14.184537">
                <ele>33.000000</ele>
                <time>1970-01-01T00:30:18Z</time>
            </trkpt>
            <trkpt lon="101.400955" lat="14.184488">
                <ele>33.200000</ele>
                <time>1970-01-01T00:30:19Z</time>
            </trkpt>
            <trkpt lon="101.400941" lat="14.184442">
                <ele>33.100000</ele>
                <time>1970-01-01T00:30:20Z</time>
            </trkpt>
            <trkpt lon="101.400928" lat="14.184395">
                <ele>33.000000</ele>
                <time>1970-01-01T00:30:21Z</time>
            </trkpt>
            <trkpt lon="101.400917" lat="14.184350">
                <ele>33.000000</ele>
                <time>1970-01-01T00:30:22Z</time>
            </trkpt>
            <trkpt lon="101.400905" lat="14.184306">
                <ele>32.900000</ele>
                <time>1970-01-01T00:30:23Z</time>
            </trkpt>
            <trkpt lon="101.400879" lat="14.184265">
                <ele>32.900000</ele>
                <time>1970-01-01T00:30:24Z</time>
            </trkpt>
            <trkpt lon="101.400864" lat="14.184213">
                <ele>32.900000</ele>
                <time>1970-01-01T00:30:25Z</time>
            </trkpt>
            <trkpt lon="101.400833" lat="14.184163">
                <ele>32.900000</ele>
                <time>1970-01-01T00:30:26Z</time>
            </trkpt>
            <trkpt lon="101.400813" lat="14.184093">
                <ele>33.000000</ele>
                <time>1970-01-01T00:30:27Z</time>
            </trkpt>
            <trkpt lon="101.400796" lat="14.184041">
                <ele>33.000000</ele>
                <time>1970-01-01T00:30:28Z</time>
            </trkpt>
            <trkpt lon="101.400791" lat="14.183999">
                <ele>32.900000</ele>
                <time>1970-01-01T00:30:29Z</time>
            </trkpt>
            <trkpt lon="101.400782" lat="14.183950">
                <ele>32.900000</ele>
                <time>1970-01-01T00:30:30Z</time>
            </trkpt>
            <trkpt lon="101.400771" lat="14.183911">
                <ele>32.900000</ele>
                <time>1970-01-01T00:30:31Z</time>
            </trkpt>
            <trkpt lon="101.400754" lat="14.183859">
                <ele>33.000000</ele>
                <time>1970-01-01T00:30:32Z</time>
            </trkpt>
            <trkpt lon="101.400740" lat="14.183812">
                <ele>33.300000</ele>
                <time>1970-01-01T00:30:33Z</time>
            </trkpt>
            <trkpt lon="101.400719" lat="14.183765">
                <ele>33.700000</ele>
                <time>1970-01-01T00:30:34Z</time>
            </trkpt>
            <trkpt lon="101.400703" lat="14.183719">
                <ele>33.900000</ele>
                <time>1970-01-01T00:30:35Z</time>
            </trkpt>
            <trkpt lon="101.400685" lat="14.183674">
                <ele>34.200000</ele>
                <time>1970-01-01T00:30:36Z</time>
            </trkpt>
            <trkpt lon="101.400678" lat="14.183626">
                <ele>34.400000</ele>
                <time>1970-01-01T00:30:37Z</time>
            </trkpt>
            <trkpt lon="101.400669" lat="14.183582">
                <ele>34.700000</ele>
                <time>1970-01-01T00:30:38Z</time>
            </trkpt>
            <trkpt lon="101.400685" lat="14.183545">
                <ele>35.100000</ele>
                <time>1970-01-01T00:30:39Z</time>
            </trkpt>
            <trkpt lon="101.400719" lat="14.183508">
                <ele>35.100000</ele>
                <time>1970-01-01T00:30:40Z</time>
            </trkpt>
            <trkpt lon="101.400764" lat="14.183485">
                <ele>34.800000</ele>
                <time>1970-01-01T00:30:41Z</time>
            </trkpt>
            <trkpt lon="101.400813" lat="14.183470">
                <ele>34.400000</ele>
                <time>1970-01-01T00:30:42Z</time>
            </trkpt>
            <trkpt lon="101.400862" lat="14.183457">
                <ele>33.800000</ele>
                <time>1970-01-01T00:30:43Z</time>
            </trkpt>
            <trkpt lon="101.400906" lat="14.183452">
                <ele>33.500000</ele>
                <time>1970-01-01T00:30:44Z</time>
            </trkpt>
            <trkpt lon="101.400956" lat="14.183442">
                <ele>33.200000</ele>
                <time>1970-01-01T00:30:45Z</time>
            </trkpt>
            <trkpt lon="101.400996" lat="14.183431">
                <ele>33.100000</ele>
                <time>1970-01-01T00:30:46Z</time>
            </trkpt>
            <trkpt lon="101.401045" lat="14.183413">
                <ele>33.000000</ele>
                <time>1970-01-01T00:30:47Z</time>
            </trkpt>
            <trkpt lon="101.401089" lat="14.183397">
                <ele>32.900000</ele>
                <time>1970-01-01T00:30:48Z</time>
            </trkpt>
            <trkpt lon="101.401122" lat="14.183380">
                <ele>32.900000</ele>
                <time>1970-01-01T00:30:49Z</time>
            </trkpt>
            <trkpt lon="101.401149" lat="14.183342">
                <ele>33.000000</ele>
                <time>1970-01-01T00:30:51Z</time>
            </trkpt>
            <trkpt lon="101.401142" lat="14.183284">
                <ele>33.100000</ele>
                <time>1970-01-01T00:30:53Z</time>
            </trkpt>
            <trkpt lon="101.401146" lat="14.183254">
                <ele>33.000000</ele>
                <time>1970-01-01T00:30:54Z</time>
            </trkpt>
            <trkpt lon="101.401145" lat="14.183214">
                <ele>32.800000</ele>
                <time>1970-01-01T00:30:55Z</time>
            </trkpt>
            <trkpt lon="101.401130" lat="14.183178">
                <ele>32.600000</ele>
                <time>1970-01-01T00:30:56Z</time>
            </trkpt>
            <trkpt lon="101.401114" lat="14.183139">
                <ele>32.200000</ele>
                <time>1970-01-01T00:30:57Z</time>
            </trkpt>
            <trkpt lon="101.401108" lat="14.183100">
                <ele>31.900000</ele>
                <time>1970-01-01T00:30:58Z</time>
            </trkpt>
            <trkpt lon="101.401101" lat="14.183056">
                <ele>31.800000</ele>
                <time>1970-01-01T00:30:59Z</time>
            </trkpt>
            <trkpt lon="101.401085" lat="14.182999">
                <ele>31.800000</ele>
                <time>1970-01-01T00:31:00Z</time>
            </trkpt>
            <trkpt lon="101.401082" lat="14.182947">
                <ele>31.800000</ele>
                <time>1970-01-01T00:31:01Z</time>
            </trkpt>
            <trkpt lon="101.401084" lat="14.182907">
                <ele>31.900000</ele>
                <time>1970-01-01T00:31:02Z</time>
            </trkpt>
            <trkpt lon="101.401075" lat="14.182871">
                <ele>32.000000</ele>
                <time>1970-01-01T00:31:03Z</time>
            </trkpt>
            <trkpt lon="101.401075" lat="14.182822">
                <ele>32.000000</ele>
                <time>1970-01-01T00:31:04Z</time>
            </trkpt>
            <trkpt lon="101.401070" lat="14.182775">
                <ele>32.000000</ele>
                <time>1970-01-01T00:31:05Z</time>
            </trkpt>
            <trkpt lon="101.401054" lat="14.182727">
                <ele>32.000000</ele>
                <time>1970-01-01T00:31:06Z</time>
            </trkpt>
            <trkpt lon="101.401040" lat="14.182676">
                <ele>32.200000</ele>
                <time>1970-01-01T00:31:07Z</time>
            </trkpt>
            <trkpt lon="101.401035" lat="14.182622">
                <ele>32.400000</ele>
                <time>1970-01-01T00:31:08Z</time>
            </trkpt>
            <trkpt lon="101.401032" lat="14.182576">
                <ele>32.700000</ele>
                <time>1970-01-01T00:31:09Z</time>
            </trkpt>
            <trkpt lon="101.401023" lat="14.182531">
                <ele>32.900000</ele>
                <time>1970-01-01T00:31:10Z</time>
            </trkpt>
            <trkpt lon="101.401019" lat="14.182478">
                <ele>33.300000</ele>
                <time>1970-01-01T00:31:11Z</time>
            </trkpt>
            <trkpt lon="101.401013" lat="14.182433">
                <ele>33.500000</ele>
                <time>1970-01-01T00:31:12Z</time>
            </trkpt>
            <trkpt lon="101.401021" lat="14.182385">
                <ele>33.700000</ele>
                <time>1970-01-01T00:31:13Z</time>
            </trkpt>
            <trkpt lon="101.401052" lat="14.182355">
                <ele>33.500000</ele>
                <time>1970-01-01T00:31:14Z</time>
            </trkpt>
            <trkpt lon="101.401082" lat="14.182323">
                <ele>33.300000</ele>
                <time>1970-01-01T00:31:15Z</time>
            </trkpt>
            <trkpt lon="101.401145" lat="14.182312">
                <ele>33.000000</ele>
                <time>1970-01-01T00:31:16Z</time>
            </trkpt>
            <trkpt lon="101.401194" lat="14.182295">
                <ele>32.600000</ele>
                <time>1970-01-01T00:31:17Z</time>
            </trkpt>
            <trkpt lon="101.401251" lat="14.182264">
                <ele>31.800000</ele>
                <time>1970-01-01T00:31:18Z</time>
            </trkpt>
            <trkpt lon="101.401306" lat="14.182240">
                <ele>31.200000</ele>
                <time>1970-01-01T00:31:19Z</time>
            </trkpt>
            <trkpt lon="101.401360" lat="14.182217">
                <ele>30.700000</ele>
                <time>1970-01-01T00:31:20Z</time>
            </trkpt>
            <trkpt lon="101.401415" lat="14.182200">
                <ele>30.400000</ele>
                <time>1970-01-01T00:31:21Z</time>
            </trkpt>
            <trkpt lon="101.401472" lat="14.182185">
                <ele>30.300000</ele>
                <time>1970-01-01T00:31:22Z</time>
            </trkpt>
            <trkpt lon="101.401521" lat="14.182170">
                <ele>30.300000</ele>
                <time>1970-01-01T00:31:23Z</time>
            </trkpt>
            <trkpt lon="101.401570" lat="14.182151">
                <ele>30.500000</ele>
                <time>1970-01-01T00:31:24Z</time>
            </trkpt>
            <trkpt lon="101.401627" lat="14.182129">
                <ele>30.700000</ele>
                <time>1970-01-01T00:31:25Z</time>
            </trkpt>
            <trkpt lon="101.401681" lat="14.182111">
                <ele>30.800000</ele>
                <time>1970-01-01T00:31:26Z</time>
            </trkpt>
            <trkpt lon="101.401732" lat="14.182097">
                <ele>30.600000</ele>
                <time>1970-01-01T00:31:27Z</time>
            </trkpt>
            <trkpt lon="101.401789" lat="14.182077">
                <ele>30.300000</ele>
                <time>1970-01-01T00:31:28Z</time>
            </trkpt>
            <trkpt lon="101.401845" lat="14.182063">
                <ele>30.000000</ele>
                <time>1970-01-01T00:31:29Z</time>
            </trkpt>
            <trkpt lon="101.401903" lat="14.182044">
                <ele>30.000000</ele>
                <time>1970-01-01T00:31:30Z</time>
            </trkpt>
            <trkpt lon="101.401959" lat="14.182027">
                <ele>30.100000</ele>
                <time>1970-01-01T00:31:31Z</time>
            </trkpt>
            <trkpt lon="101.402014" lat="14.182017">
                <ele>30.400000</ele>
                <time>1970-01-01T00:31:32Z</time>
            </trkpt>
            <trkpt lon="101.402071" lat="14.181999">
                <ele>30.700000</ele>
                <time>1970-01-01T00:31:33Z</time>
            </trkpt>
            <trkpt lon="101.402121" lat="14.181981">
                <ele>30.900000</ele>
                <time>1970-01-01T00:31:34Z</time>
            </trkpt>
            <trkpt lon="101.402174" lat="14.181964">
                <ele>30.800000</ele>
                <time>1970-01-01T00:31:35Z</time>
            </trkpt>
            <trkpt lon="101.402231" lat="14.181945">
                <ele>30.600000</ele>
                <time>1970-01-01T00:31:36Z</time>
            </trkpt>
            <trkpt lon="101.402281" lat="14.181928">
                <ele>30.300000</ele>
                <time>1970-01-01T00:31:37Z</time>
            </trkpt>
            <trkpt lon="101.402332" lat="14.181909">
                <ele>30.000000</ele>
                <time>1970-01-01T00:31:38Z</time>
            </trkpt>
            <trkpt lon="101.402385" lat="14.181896">
                <ele>29.700000</ele>
                <time>1970-01-01T00:31:39Z</time>
            </trkpt>
            <trkpt lon="101.402433" lat="14.181878">
                <ele>29.600000</ele>
                <time>1970-01-01T00:31:40Z</time>
            </trkpt>
            <trkpt lon="101.402495" lat="14.181858">
                <ele>29.400000</ele>
                <time>1970-01-01T00:31:41Z</time>
            </trkpt>
            <trkpt lon="101.402557" lat="14.181843">
                <ele>29.300000</ele>
                <time>1970-01-01T00:31:42Z</time>
            </trkpt>
            <trkpt lon="101.402618" lat="14.181824">
                <ele>29.000000</ele>
                <time>1970-01-01T00:31:43Z</time>
            </trkpt>
            <trkpt lon="101.402676" lat="14.181797">
                <ele>28.700000</ele>
                <time>1970-01-01T00:31:44Z</time>
            </trkpt>
            <trkpt lon="101.402743" lat="14.181782">
                <ele>28.700000</ele>
                <time>1970-01-01T00:31:45Z</time>
            </trkpt>
            <trkpt lon="101.402798" lat="14.181767">
                <ele>29.000000</ele>
                <time>1970-01-01T00:31:46Z</time>
            </trkpt>
            <trkpt lon="101.402860" lat="14.181754">
                <ele>29.100000</ele>
                <time>1970-01-01T00:31:47Z</time>
            </trkpt>
            <trkpt lon="101.402921" lat="14.181728">
                <ele>29.100000</ele>
                <time>1970-01-01T00:31:48Z</time>
            </trkpt>
            <trkpt lon="101.402989" lat="14.181708">
                <ele>29.000000</ele>
                <time>1970-01-01T00:31:49Z</time>
            </trkpt>
            <trkpt lon="101.403048" lat="14.181693">
                <ele>29.000000</ele>
                <time>1970-01-01T00:31:50Z</time>
            </trkpt>
            <trkpt lon="101.403111" lat="14.181665">
                <ele>28.900000</ele>
                <time>1970-01-01T00:31:51Z</time>
            </trkpt>
            <trkpt lon="101.403177" lat="14.181652">
                <ele>28.600000</ele>
                <time>1970-01-01T00:31:52Z</time>
            </trkpt>
            <trkpt lon="101.403238" lat="14.181628">
                <ele>28.400000</ele>
                <time>1970-01-01T00:31:53Z</time>
            </trkpt>
            <trkpt lon="101.403310" lat="14.181614">
                <ele>28.400000</ele>
                <time>1970-01-01T00:31:54Z</time>
            </trkpt>
            <trkpt lon="101.403373" lat="14.181604">
                <ele>28.200000</ele>
                <time>1970-01-01T00:31:55Z</time>
            </trkpt>
            <trkpt lon="101.403437" lat="14.181602">
                <ele>27.800000</ele>
                <time>1970-01-01T00:31:56Z</time>
            </trkpt>
            <trkpt lon="101.403499" lat="14.181610">
                <ele>27.500000</ele>
                <time>1970-01-01T00:31:57Z</time>
            </trkpt>
            <trkpt lon="101.403557" lat="14.181629">
                <ele>27.300000</ele>
                <time>1970-01-01T00:31:58Z</time>
            </trkpt>
            <trkpt lon="101.403622" lat="14.181651">
                <ele>27.300000</ele>
                <time>1970-01-01T00:31:59Z</time>
            </trkpt>
            <trkpt lon="101.403679" lat="14.181668">
                <ele>27.300000</ele>
                <time>1970-01-01T00:32:00Z</time>
            </trkpt>
            <trkpt lon="101.403744" lat="14.181688">
                <ele>27.300000</ele>
                <time>1970-01-01T00:32:01Z</time>
            </trkpt>
            <trkpt lon="101.403810" lat="14.181697">
                <ele>27.300000</ele>
                <time>1970-01-01T00:32:02Z</time>
            </trkpt>
            <trkpt lon="101.403879" lat="14.181697">
                <ele>27.400000</ele>
                <time>1970-01-01T00:32:03Z</time>
            </trkpt>
            <trkpt lon="101.403952" lat="14.181694">
                <ele>27.400000</ele>
                <time>1970-01-01T00:32:04Z</time>
            </trkpt>
            <trkpt lon="101.404018" lat="14.181679">
                <ele>27.400000</ele>
                <time>1970-01-01T00:32:05Z</time>
            </trkpt>
            <trkpt lon="101.404085" lat="14.181661">
                <ele>27.300000</ele>
                <time>1970-01-01T00:32:06Z</time>
            </trkpt>
            <trkpt lon="101.404150" lat="14.181647">
                <ele>27.200000</ele>
                <time>1970-01-01T00:32:07Z</time>
            </trkpt>
            <trkpt lon="101.404213" lat="14.181619">
                <ele>27.300000</ele>
                <time>1970-01-01T00:32:08Z</time>
            </trkpt>
            <trkpt lon="101.404284" lat="14.181590">
                <ele>27.600000</ele>
                <time>1970-01-01T00:32:09Z</time>
            </trkpt>
            <trkpt lon="101.404352" lat="14.181568">
                <ele>28.000000</ele>
                <time>1970-01-01T00:32:10Z</time>
            </trkpt>
            <trkpt lon="101.404420" lat="14.181547">
                <ele>28.300000</ele>
                <time>1970-01-01T00:32:11Z</time>
            </trkpt>
            <trkpt lon="101.404486" lat="14.181521">
                <ele>28.400000</ele>
                <time>1970-01-01T00:32:12Z</time>
            </trkpt>
            <trkpt lon="101.404550" lat="14.181504">
                <ele>28.200000</ele>
                <time>1970-01-01T00:32:13Z</time>
            </trkpt>
            <trkpt lon="101.404619" lat="14.181479">
                <ele>28.000000</ele>
                <time>1970-01-01T00:32:14Z</time>
            </trkpt>
            <trkpt lon="101.404676" lat="14.181450">
                <ele>27.700000</ele>
                <time>1970-01-01T00:32:15Z</time>
            </trkpt>
            <trkpt lon="101.404736" lat="14.181428">
                <ele>27.100000</ele>
                <time>1970-01-01T00:32:16Z</time>
            </trkpt>
            <trkpt lon="101.404798" lat="14.181409">
                <ele>26.200000</ele>
                <time>1970-01-01T00:32:17Z</time>
            </trkpt>
            <trkpt lon="101.404862" lat="14.181387">
                <ele>25.400000</ele>
                <time>1970-01-01T00:32:18Z</time>
            </trkpt>
            <trkpt lon="101.404925" lat="14.181366">
                <ele>25.300000</ele>
                <time>1970-01-01T00:32:19Z</time>
            </trkpt>
            <trkpt lon="101.404992" lat="14.181351">
                <ele>25.000000</ele>
                <time>1970-01-01T00:32:20Z</time>
            </trkpt>
            <trkpt lon="101.405059" lat="14.181333">
                <ele>24.900000</ele>
                <time>1970-01-01T00:32:21Z</time>
            </trkpt>
            <trkpt lon="101.405125" lat="14.181316">
                <ele>24.900000</ele>
                <time>1970-01-01T00:32:22Z</time>
            </trkpt>
            <trkpt lon="101.405189" lat="14.181291">
                <ele>25.000000</ele>
                <time>1970-01-01T00:32:23Z</time>
            </trkpt>
            <trkpt lon="101.405245" lat="14.181269">
                <ele>25.300000</ele>
                <time>1970-01-01T00:32:24Z</time>
            </trkpt>
            <trkpt lon="101.405308" lat="14.181254">
                <ele>25.900000</ele>
                <time>1970-01-01T00:32:25Z</time>
            </trkpt>
            <trkpt lon="101.405368" lat="14.181228">
                <ele>26.500000</ele>
                <time>1970-01-01T00:32:26Z</time>
            </trkpt>
            <trkpt lon="101.405422" lat="14.181207">
                <ele>26.800000</ele>
                <time>1970-01-01T00:32:27Z</time>
            </trkpt>
            <trkpt lon="101.405481" lat="14.181178">
                <ele>26.900000</ele>
                <time>1970-01-01T00:32:28Z</time>
            </trkpt>
            <trkpt lon="101.405531" lat="14.181145">
                <ele>27.100000</ele>
                <time>1970-01-01T00:32:29Z</time>
            </trkpt>
            <trkpt lon="101.405585" lat="14.181115">
                <ele>27.400000</ele>
                <time>1970-01-01T00:32:30Z</time>
            </trkpt>
            <trkpt lon="101.405637" lat="14.181078">
                <ele>28.000000</ele>
                <time>1970-01-01T00:32:31Z</time>
            </trkpt>
            <trkpt lon="101.405690" lat="14.181037">
                <ele>28.500000</ele>
                <time>1970-01-01T00:32:32Z</time>
            </trkpt>
            <trkpt lon="101.405733" lat="14.180998">
                <ele>28.800000</ele>
                <time>1970-01-01T00:32:33Z</time>
            </trkpt>
            <trkpt lon="101.405776" lat="14.180967">
                <ele>29.000000</ele>
                <time>1970-01-01T00:32:34Z</time>
            </trkpt>
            <trkpt lon="101.405823" lat="14.180929">
                <ele>29.200000</ele>
                <time>1970-01-01T00:32:35Z</time>
            </trkpt>
            <trkpt lon="101.405858" lat="14.180883">
                <ele>29.300000</ele>
                <time>1970-01-01T00:32:36Z</time>
            </trkpt>
            <trkpt lon="101.405877" lat="14.180841">
                <ele>29.300000</ele>
                <time>1970-01-01T00:32:37Z</time>
            </trkpt>
            <trkpt lon="101.405872" lat="14.180786">
                <ele>29.400000</ele>
                <time>1970-01-01T00:32:38Z</time>
            </trkpt>
            <trkpt lon="101.405859" lat="14.180721">
                <ele>29.100000</ele>
                <time>1970-01-01T00:32:39Z</time>
            </trkpt>
            <trkpt lon="101.405841" lat="14.180657">
                <ele>28.600000</ele>
                <time>1970-01-01T00:32:40Z</time>
            </trkpt>
            <trkpt lon="101.405829" lat="14.180606">
                <ele>28.300000</ele>
                <time>1970-01-01T00:32:41Z</time>
            </trkpt>
            <trkpt lon="101.405819" lat="14.180561">
                <ele>28.200000</ele>
                <time>1970-01-01T00:32:42Z</time>
            </trkpt>
            <trkpt lon="101.405795" lat="14.180506">
                <ele>28.000000</ele>
                <time>1970-01-01T00:32:43Z</time>
            </trkpt>
            <trkpt lon="101.405762" lat="14.180460">
                <ele>27.900000</ele>
                <time>1970-01-01T00:32:44Z</time>
            </trkpt>
            <trkpt lon="101.405729" lat="14.180419">
                <ele>27.800000</ele>
                <time>1970-01-01T00:32:45Z</time>
            </trkpt>
            <trkpt lon="101.405701" lat="14.180389">
                <ele>27.700000</ele>
                <time>1970-01-01T00:32:46Z</time>
            </trkpt>
            <trkpt lon="101.405665" lat="14.180347">
                <ele>27.600000</ele>
                <time>1970-01-01T00:32:47Z</time>
            </trkpt>
            <trkpt lon="101.405634" lat="14.180313">
                <ele>27.700000</ele>
                <time>1970-01-01T00:32:48Z</time>
            </trkpt>
            <trkpt lon="101.405605" lat="14.180273">
                <ele>27.800000</ele>
                <time>1970-01-01T00:32:49Z</time>
            </trkpt>
            <trkpt lon="101.405571" lat="14.180239">
                <ele>28.000000</ele>
                <time>1970-01-01T00:32:50Z</time>
            </trkpt>
            <trkpt lon="101.405534" lat="14.180211">
                <ele>28.300000</ele>
                <time>1970-01-01T00:32:51Z</time>
            </trkpt>
            <trkpt lon="101.405493" lat="14.180165">
                <ele>29.000000</ele>
                <time>1970-01-01T00:32:52Z</time>
            </trkpt>
            <trkpt lon="101.405450" lat="14.180125">
                <ele>29.400000</ele>
                <time>1970-01-01T00:32:53Z</time>
            </trkpt>
            <trkpt lon="101.405420" lat="14.180084">
                <ele>29.900000</ele>
                <time>1970-01-01T00:32:54Z</time>
            </trkpt>
            <trkpt lon="101.405391" lat="14.180043">
                <ele>30.500000</ele>
                <time>1970-01-01T00:32:55Z</time>
            </trkpt>
            <trkpt lon="101.405363" lat="14.180001">
                <ele>30.800000</ele>
                <time>1970-01-01T00:32:56Z</time>
            </trkpt>
            <trkpt lon="101.405338" lat="14.179967">
                <ele>30.900000</ele>
                <time>1970-01-01T00:32:57Z</time>
            </trkpt>
            <trkpt lon="101.405309" lat="14.179936">
                <ele>30.900000</ele>
                <time>1970-01-01T00:32:58Z</time>
            </trkpt>
            <trkpt lon="101.405286" lat="14.179910">
                <ele>30.900000</ele>
                <time>1970-01-01T00:32:59Z</time>
            </trkpt>
            <trkpt lon="101.405270" lat="14.179885">
                <ele>30.800000</ele>
                <time>1970-01-01T00:33:00Z</time>
            </trkpt>
            <trkpt lon="101.405257" lat="14.179835">
                <ele>30.700000</ele>
                <time>1970-01-01T00:33:02Z</time>
            </trkpt>
            <trkpt lon="101.405224" lat="14.179808">
                <ele>30.700000</ele>
                <time>1970-01-01T00:34:50Z</time>
            </trkpt>
            <trkpt lon="101.405185" lat="14.179789">
                <ele>30.700000</ele>
                <time>1970-01-01T00:35:25Z</time>
            </trkpt>
            <trkpt lon="101.405146" lat="14.179777">
                <ele>30.900000</ele>
                <time>1970-01-01T00:35:28Z</time>
            </trkpt>
            <trkpt lon="101.405114" lat="14.179772">
                <ele>31.100000</ele>
                <time>1970-01-01T00:35:30Z</time>
            </trkpt>
            <trkpt lon="101.405084" lat="14.179775">
                <ele>31.200000</ele>
                <time>1970-01-01T00:35:33Z</time>
            </trkpt>
            <trkpt lon="101.405042" lat="14.179762">
                <ele>31.000000</ele>
                <time>1970-01-01T00:35:36Z</time>
            </trkpt>
            <trkpt lon="101.405013" lat="14.179750">
                <ele>31.000000</ele>
                <time>1970-01-01T00:35:37Z</time>
            </trkpt>
            <trkpt lon="101.404982" lat="14.179741">
                <ele>30.700000</ele>
                <time>1970-01-01T00:35:38Z</time>
            </trkpt>
            <trkpt lon="101.404948" lat="14.179738">
                <ele>30.400000</ele>
                <time>1970-01-01T00:35:39Z</time>
            </trkpt>
            <trkpt lon="101.404908" lat="14.179737">
                <ele>29.900000</ele>
                <time>1970-01-01T00:35:40Z</time>
            </trkpt>
            <trkpt lon="101.404872" lat="14.179737">
                <ele>29.400000</ele>
                <time>1970-01-01T00:35:41Z</time>
            </trkpt>
            <trkpt lon="101.404837" lat="14.179741">
                <ele>28.900000</ele>
                <time>1970-01-01T00:35:42Z</time>
            </trkpt>
            <trkpt lon="101.404790" lat="14.179752">
                <ele>28.400000</ele>
                <time>1970-01-01T00:35:43Z</time>
            </trkpt>
            <trkpt lon="101.404757" lat="14.179749">
                <ele>28.400000</ele>
                <time>1970-01-01T00:35:44Z</time>
            </trkpt>
            <trkpt lon="101.404724" lat="14.179741">
                <ele>28.000000</ele>
                <time>1970-01-01T00:35:45Z</time>
            </trkpt>
            <trkpt lon="101.404700" lat="14.179728">
                <ele>27.600000</ele>
                <time>1970-01-01T00:35:46Z</time>
            </trkpt>
            <trkpt lon="101.404677" lat="14.179708">
                <ele>27.600000</ele>
                <time>1970-01-01T00:35:47Z</time>
            </trkpt>
            <trkpt lon="101.404658" lat="14.179684">
                <ele>27.400000</ele>
                <time>1970-01-01T00:35:48Z</time>
            </trkpt>
            <trkpt lon="101.404633" lat="14.179658">
                <ele>27.400000</ele>
                <time>1970-01-01T00:35:49Z</time>
            </trkpt>
            <trkpt lon="101.404614" lat="14.179634">
                <ele>27.200000</ele>
                <time>1970-01-01T00:35:50Z</time>
            </trkpt>
            <trkpt lon="101.404583" lat="14.179617">
                <ele>27.200000</ele>
                <time>1970-01-01T00:35:51Z</time>
            </trkpt>
            <trkpt lon="101.404569" lat="14.179584">
                <ele>27.000000</ele>
                <time>1970-01-01T00:35:52Z</time>
            </trkpt>
            <trkpt lon="101.404553" lat="14.179547">
                <ele>27.100000</ele>
                <time>1970-01-01T00:35:53Z</time>
            </trkpt>
            <trkpt lon="101.404536" lat="14.179513">
                <ele>27.000000</ele>
                <time>1970-01-01T00:35:54Z</time>
            </trkpt>
            <trkpt lon="101.404522" lat="14.179479">
                <ele>27.000000</ele>
                <time>1970-01-01T00:35:55Z</time>
            </trkpt>
            <trkpt lon="101.404509" lat="14.179444">
                <ele>27.000000</ele>
                <time>1970-01-01T00:35:56Z</time>
            </trkpt>
            <trkpt lon="101.404497" lat="14.179408">
                <ele>27.000000</ele>
                <time>1970-01-01T00:35:57Z</time>
            </trkpt>
            <trkpt lon="101.404486" lat="14.179369">
                <ele>27.000000</ele>
                <time>1970-01-01T00:35:58Z</time>
            </trkpt>
            <trkpt lon="101.404474" lat="14.179327">
                <ele>27.100000</ele>
                <time>1970-01-01T00:35:59Z</time>
            </trkpt>
            <trkpt lon="101.404461" lat="14.179285">
                <ele>27.300000</ele>
                <time>1970-01-01T00:36:00Z</time>
            </trkpt>
            <trkpt lon="101.404446" lat="14.179241">
                <ele>27.800000</ele>
                <time>1970-01-01T00:36:01Z</time>
            </trkpt>
            <trkpt lon="101.404433" lat="14.179198">
                <ele>28.100000</ele>
                <time>1970-01-01T00:36:02Z</time>
            </trkpt>
            <trkpt lon="101.404421" lat="14.179153">
                <ele>28.500000</ele>
                <time>1970-01-01T00:36:03Z</time>
            </trkpt>
            <trkpt lon="101.404411" lat="14.179111">
                <ele>28.800000</ele>
                <time>1970-01-01T00:36:04Z</time>
            </trkpt>
            <trkpt lon="101.404396" lat="14.179062">
                <ele>29.200000</ele>
                <time>1970-01-01T00:36:05Z</time>
            </trkpt>
            <trkpt lon="101.404376" lat="14.179019">
                <ele>29.700000</ele>
                <time>1970-01-01T00:36:06Z</time>
            </trkpt>
            <trkpt lon="101.404364" lat="14.178973">
                <ele>30.000000</ele>
                <time>1970-01-01T00:36:07Z</time>
            </trkpt>
            <trkpt lon="101.404347" lat="14.178929">
                <ele>30.200000</ele>
                <time>1970-01-01T00:36:08Z</time>
            </trkpt>
            <trkpt lon="101.404330" lat="14.178901">
                <ele>30.200000</ele>
                <time>1970-01-01T00:36:09Z</time>
            </trkpt>
            <trkpt lon="101.404323" lat="14.178871">
                <ele>30.400000</ele>
                <time>1970-01-01T00:36:11Z</time>
            </trkpt>
            <trkpt lon="101.404334" lat="14.178904">
                <ele>30.200000</ele>
                <time>1970-01-01T00:36:15Z</time>
            </trkpt>
            <trkpt lon="101.404352" lat="14.178948">
                <ele>29.900000</ele>
                <time>1970-01-01T00:36:17Z</time>
            </trkpt>
            <trkpt lon="101.404364" lat="14.178977">
                <ele>29.900000</ele>
                <time>1970-01-01T00:36:18Z</time>
            </trkpt>
            <trkpt lon="101.404375" lat="14.179011">
                <ele>29.700000</ele>
                <time>1970-01-01T00:36:19Z</time>
            </trkpt>
            <trkpt lon="101.404386" lat="14.179047">
                <ele>29.400000</ele>
                <time>1970-01-01T00:36:20Z</time>
            </trkpt>
            <trkpt lon="101.404397" lat="14.179081">
                <ele>29.200000</ele>
                <time>1970-01-01T00:36:21Z</time>
            </trkpt>
            <trkpt lon="101.404406" lat="14.179116">
                <ele>29.000000</ele>
                <time>1970-01-01T00:36:23Z</time>
            </trkpt>
            <trkpt lon="101.404414" lat="14.179162">
                <ele>28.500000</ele>
                <time>1970-01-01T00:36:34Z</time>
            </trkpt>
            <trkpt lon="101.404419" lat="14.179192">
                <ele>28.000000</ele>
                <time>1970-01-01T00:36:35Z</time>
            </trkpt>
            <trkpt lon="101.404427" lat="14.179226">
                <ele>28.000000</ele>
                <time>1970-01-01T00:36:36Z</time>
            </trkpt>
            <trkpt lon="101.404438" lat="14.179265">
                <ele>27.700000</ele>
                <time>1970-01-01T00:36:37Z</time>
            </trkpt>
            <trkpt lon="101.404450" lat="14.179306">
                <ele>27.500000</ele>
                <time>1970-01-01T00:36:38Z</time>
            </trkpt>
            <trkpt lon="101.404464" lat="14.179346">
                <ele>27.000000</ele>
                <time>1970-01-01T00:36:39Z</time>
            </trkpt>
            <trkpt lon="101.404479" lat="14.179389">
                <ele>26.900000</ele>
                <time>1970-01-01T00:36:40Z</time>
            </trkpt>
            <trkpt lon="101.404494" lat="14.179431">
                <ele>26.800000</ele>
                <time>1970-01-01T00:36:41Z</time>
            </trkpt>
            <trkpt lon="101.404509" lat="14.179477">
                <ele>26.900000</ele>
                <time>1970-01-01T00:36:42Z</time>
            </trkpt>
            <trkpt lon="101.404527" lat="14.179527">
                <ele>26.900000</ele>
                <time>1970-01-01T00:36:43Z</time>
            </trkpt>
            <trkpt lon="101.404547" lat="14.179573">
                <ele>26.900000</ele>
                <time>1970-01-01T00:36:44Z</time>
            </trkpt>
            <trkpt lon="101.404571" lat="14.179619">
                <ele>26.800000</ele>
                <time>1970-01-01T00:36:45Z</time>
            </trkpt>
            <trkpt lon="101.404599" lat="14.179665">
                <ele>26.900000</ele>
                <time>1970-01-01T00:36:46Z</time>
            </trkpt>
            <trkpt lon="101.404628" lat="14.179688">
                <ele>27.100000</ele>
                <time>1970-01-01T00:36:47Z</time>
            </trkpt>
            <trkpt lon="101.404684" lat="14.179714">
                <ele>27.400000</ele>
                <time>1970-01-01T00:36:48Z</time>
            </trkpt>
            <trkpt lon="101.404745" lat="14.179725">
                <ele>27.800000</ele>
                <time>1970-01-01T00:36:49Z</time>
            </trkpt>
            <trkpt lon="101.404814" lat="14.179732">
                <ele>28.700000</ele>
                <time>1970-01-01T00:36:50Z</time>
            </trkpt>
            <trkpt lon="101.404869" lat="14.179729">
                <ele>29.200000</ele>
                <time>1970-01-01T00:36:51Z</time>
            </trkpt>
            <trkpt lon="101.404926" lat="14.179734">
                <ele>30.100000</ele>
                <time>1970-01-01T00:36:52Z</time>
            </trkpt>
            <trkpt lon="101.404987" lat="14.179737">
                <ele>30.500000</ele>
                <time>1970-01-01T00:36:53Z</time>
            </trkpt>
            <trkpt lon="101.405039" lat="14.179750">
                <ele>30.700000</ele>
                <time>1970-01-01T00:36:54Z</time>
            </trkpt>
            <trkpt lon="101.405090" lat="14.179760">
                <ele>30.800000</ele>
                <time>1970-01-01T00:36:55Z</time>
            </trkpt>
            <trkpt lon="101.405146" lat="14.179772">
                <ele>30.600000</ele>
                <time>1970-01-01T00:36:56Z</time>
            </trkpt>
            <trkpt lon="101.405199" lat="14.179764">
                <ele>30.700000</ele>
                <time>1970-01-01T00:36:57Z</time>
            </trkpt>
            <trkpt lon="101.405241" lat="14.179745">
                <ele>30.600000</ele>
                <time>1970-01-01T00:36:58Z</time>
            </trkpt>
            <trkpt lon="101.405289" lat="14.179730">
                <ele>30.200000</ele>
                <time>1970-01-01T00:36:59Z</time>
            </trkpt>
            <trkpt lon="101.405340" lat="14.179709">
                <ele>29.900000</ele>
                <time>1970-01-01T00:37:00Z</time>
            </trkpt>
            <trkpt lon="101.405390" lat="14.179689">
                <ele>29.500000</ele>
                <time>1970-01-01T00:37:01Z</time>
            </trkpt>
            <trkpt lon="101.405440" lat="14.179672">
                <ele>29.200000</ele>
                <time>1970-01-01T00:37:02Z</time>
            </trkpt>
            <trkpt lon="101.405484" lat="14.179649">
                <ele>28.800000</ele>
                <time>1970-01-01T00:37:03Z</time>
            </trkpt>
            <trkpt lon="101.405535" lat="14.179631">
                <ele>28.500000</ele>
                <time>1970-01-01T00:37:04Z</time>
            </trkpt>
            <trkpt lon="101.405594" lat="14.179626">
                <ele>28.300000</ele>
                <time>1970-01-01T00:37:05Z</time>
            </trkpt>
            <trkpt lon="101.405653" lat="14.179619">
                <ele>28.300000</ele>
                <time>1970-01-01T00:37:06Z</time>
            </trkpt>
            <trkpt lon="101.405709" lat="14.179610">
                <ele>28.300000</ele>
                <time>1970-01-01T00:37:07Z</time>
            </trkpt>
            <trkpt lon="101.405766" lat="14.179597">
                <ele>28.300000</ele>
                <time>1970-01-01T00:37:08Z</time>
            </trkpt>
            <trkpt lon="101.405820" lat="14.179582">
                <ele>28.400000</ele>
                <time>1970-01-01T00:37:09Z</time>
            </trkpt>
            <trkpt lon="101.405878" lat="14.179560">
                <ele>28.500000</ele>
                <time>1970-01-01T00:37:10Z</time>
            </trkpt>
            <trkpt lon="101.405928" lat="14.179524">
                <ele>28.600000</ele>
                <time>1970-01-01T00:37:11Z</time>
            </trkpt>
            <trkpt lon="101.405966" lat="14.179477">
                <ele>29.000000</ele>
                <time>1970-01-01T00:37:12Z</time>
            </trkpt>
            <trkpt lon="101.405994" lat="14.179428">
                <ele>29.000000</ele>
                <time>1970-01-01T00:37:13Z</time>
            </trkpt>
            <trkpt lon="101.406017" lat="14.179377">
                <ele>28.900000</ele>
                <time>1970-01-01T00:37:14Z</time>
            </trkpt>
            <trkpt lon="101.406041" lat="14.179322">
                <ele>28.500000</ele>
                <time>1970-01-01T00:37:15Z</time>
            </trkpt>
            <trkpt lon="101.406069" lat="14.179270">
                <ele>28.400000</ele>
                <time>1970-01-01T00:37:16Z</time>
            </trkpt>
            <trkpt lon="101.406095" lat="14.179216">
                <ele>28.400000</ele>
                <time>1970-01-01T00:37:17Z</time>
            </trkpt>
            <trkpt lon="101.406114" lat="14.179162">
                <ele>28.400000</ele>
                <time>1970-01-01T00:37:18Z</time>
            </trkpt>
            <trkpt lon="101.406140" lat="14.179102">
                <ele>28.400000</ele>
                <time>1970-01-01T00:37:19Z</time>
            </trkpt>
            <trkpt lon="101.406170" lat="14.179045">
                <ele>28.500000</ele>
                <time>1970-01-01T00:37:20Z</time>
            </trkpt>
            <trkpt lon="101.406208" lat="14.178986">
                <ele>28.500000</ele>
                <time>1970-01-01T00:37:21Z</time>
            </trkpt>
            <trkpt lon="101.406231" lat="14.178935">
                <ele>28.500000</ele>
                <time>1970-01-01T00:37:22Z</time>
            </trkpt>
            <trkpt lon="101.406257" lat="14.178883">
                <ele>28.400000</ele>
                <time>1970-01-01T00:37:23Z</time>
            </trkpt>
            <trkpt lon="101.406296" lat="14.178832">
                <ele>28.300000</ele>
                <time>1970-01-01T00:37:24Z</time>
            </trkpt>
            <trkpt lon="101.406328" lat="14.178787">
                <ele>28.300000</ele>
                <time>1970-01-01T00:37:25Z</time>
            </trkpt>
            <trkpt lon="101.406357" lat="14.178749">
                <ele>28.400000</ele>
                <time>1970-01-01T00:37:26Z</time>
            </trkpt>
            <trkpt lon="101.406387" lat="14.178710">
                <ele>28.500000</ele>
                <time>1970-01-01T00:37:27Z</time>
            </trkpt>
            <trkpt lon="101.406422" lat="14.178666">
                <ele>28.600000</ele>
                <time>1970-01-01T00:37:28Z</time>
            </trkpt>
            <trkpt lon="101.406475" lat="14.178635">
                <ele>28.700000</ele>
                <time>1970-01-01T00:37:29Z</time>
            </trkpt>
            <trkpt lon="101.406512" lat="14.178594">
                <ele>28.700000</ele>
                <time>1970-01-01T00:37:30Z</time>
            </trkpt>
            <trkpt lon="101.406563" lat="14.178562">
                <ele>28.600000</ele>
                <time>1970-01-01T00:37:31Z</time>
            </trkpt>
            <trkpt lon="101.406595" lat="14.178523">
                <ele>28.500000</ele>
                <time>1970-01-01T00:37:32Z</time>
            </trkpt>
            <trkpt lon="101.406643" lat="14.178491">
                <ele>28.600000</ele>
                <time>1970-01-01T00:37:33Z</time>
            </trkpt>
            <trkpt lon="101.406696" lat="14.178460">
                <ele>28.500000</ele>
                <time>1970-01-01T00:37:34Z</time>
            </trkpt>
            <trkpt lon="101.406747" lat="14.178428">
                <ele>28.400000</ele>
                <time>1970-01-01T00:37:35Z</time>
            </trkpt>
            <trkpt lon="101.406790" lat="14.178402">
                <ele>28.400000</ele>
                <time>1970-01-01T00:37:36Z</time>
            </trkpt>
            <trkpt lon="101.406826" lat="14.178359">
                <ele>28.500000</ele>
                <time>1970-01-01T00:37:37Z</time>
            </trkpt>
            <trkpt lon="101.406870" lat="14.178322">
                <ele>28.400000</ele>
                <time>1970-01-01T00:37:38Z</time>
            </trkpt>
            <trkpt lon="101.406896" lat="14.178288">
                <ele>28.400000</ele>
                <time>1970-01-01T00:37:39Z</time>
            </trkpt>
            <trkpt lon="101.406937" lat="14.178258">
                <ele>28.300000</ele>
                <time>1970-01-01T00:37:40Z</time>
            </trkpt>
            <trkpt lon="101.406973" lat="14.178231">
                <ele>28.100000</ele>
                <time>1970-01-01T00:37:41Z</time>
            </trkpt>
            <trkpt lon="101.406997" lat="14.178204">
                <ele>28.000000</ele>
                <time>1970-01-01T00:37:42Z</time>
            </trkpt>
            <trkpt lon="101.407021" lat="14.178187">
                <ele>27.900000</ele>
                <time>1970-01-01T00:37:43Z</time>
            </trkpt>
            <trkpt lon="101.407032" lat="14.178158">
                <ele>27.900000</ele>
                <time>1970-01-01T00:37:45Z</time>
            </trkpt>
            <trkpt lon="101.407021" lat="14.178120">
                <ele>28.000000</ele>
                <time>1970-01-01T00:37:47Z</time>
            </trkpt>
            <trkpt lon="101.407002" lat="14.178098">
                <ele>28.000000</ele>
                <time>1970-01-01T00:37:48Z</time>
            </trkpt>
            <trkpt lon="101.406981" lat="14.178078">
                <ele>28.000000</ele>
                <time>1970-01-01T00:37:49Z</time>
            </trkpt>
            <trkpt lon="101.406950" lat="14.178051">
                <ele>28.000000</ele>
                <time>1970-01-01T00:37:51Z</time>
            </trkpt>
            <trkpt lon="101.406923" lat="14.178030">
                <ele>28.000000</ele>
                <time>1970-01-01T00:37:53Z</time>
            </trkpt>
            <trkpt lon="101.406895" lat="14.178003">
                <ele>28.000000</ele>
                <time>1970-01-01T00:37:55Z</time>
            </trkpt>
            <trkpt lon="101.406867" lat="14.177970">
                <ele>28.000000</ele>
                <time>1970-01-01T00:37:57Z</time>
            </trkpt>
            <trkpt lon="101.406830" lat="14.177946">
                <ele>28.000000</ele>
                <time>1970-01-01T00:37:59Z</time>
            </trkpt>
            <trkpt lon="101.406805" lat="14.177909">
                <ele>27.900000</ele>
                <time>1970-01-01T00:38:01Z</time>
            </trkpt>
            <trkpt lon="101.406831" lat="14.177856">
                <ele>27.600000</ele>
                <time>1970-01-01T00:38:03Z</time>
            </trkpt>
            <trkpt lon="101.406860" lat="14.177827">
                <ele>27.300000</ele>
                <time>1970-01-01T00:38:04Z</time>
            </trkpt>
            <trkpt lon="101.406893" lat="14.177799">
                <ele>27.100000</ele>
                <time>1970-01-01T00:38:05Z</time>
            </trkpt>
            <trkpt lon="101.406926" lat="14.177772">
                <ele>27.100000</ele>
                <time>1970-01-01T00:38:06Z</time>
            </trkpt>
            <trkpt lon="101.406954" lat="14.177749">
                <ele>27.000000</ele>
                <time>1970-01-01T00:38:07Z</time>
            </trkpt>
            <trkpt lon="101.406974" lat="14.177729">
                <ele>27.000000</ele>
                <time>1970-01-01T00:38:08Z</time>
            </trkpt>
            <trkpt lon="101.406987" lat="14.177688">
                <ele>27.100000</ele>
                <time>1970-01-01T00:38:10Z</time>
            </trkpt>
            <trkpt lon="101.406962" lat="14.177644">
                <ele>27.000000</ele>
                <time>1970-01-01T00:38:12Z</time>
            </trkpt>
            <trkpt lon="101.406926" lat="14.177609">
                <ele>27.000000</ele>
                <time>1970-01-01T00:38:14Z</time>
            </trkpt>
            <trkpt lon="101.406905" lat="14.177590">
                <ele>27.000000</ele>
                <time>1970-01-01T00:38:15Z</time>
            </trkpt>
            <trkpt lon="101.406877" lat="14.177566">
                <ele>27.000000</ele>
                <time>1970-01-01T00:38:16Z</time>
            </trkpt>
            <trkpt lon="101.406848" lat="14.177539">
                <ele>27.000000</ele>
                <time>1970-01-01T00:38:17Z</time>
            </trkpt>
            <trkpt lon="101.406819" lat="14.177510">
                <ele>27.000000</ele>
                <time>1970-01-01T00:38:18Z</time>
            </trkpt>
            <trkpt lon="101.406790" lat="14.177480">
                <ele>27.000000</ele>
                <time>1970-01-01T00:38:19Z</time>
            </trkpt>
            <trkpt lon="101.406760" lat="14.177451">
                <ele>27.000000</ele>
                <time>1970-01-01T00:38:20Z</time>
            </trkpt>
            <trkpt lon="101.406730" lat="14.177422">
                <ele>26.900000</ele>
                <time>1970-01-01T00:38:21Z</time>
            </trkpt>
            <trkpt lon="101.406701" lat="14.177393">
                <ele>26.600000</ele>
                <time>1970-01-01T00:38:22Z</time>
            </trkpt>
            <trkpt lon="101.406675" lat="14.177361">
                <ele>26.600000</ele>
                <time>1970-01-01T00:38:23Z</time>
            </trkpt>
            <trkpt lon="101.406656" lat="14.177332">
                <ele>26.400000</ele>
                <time>1970-01-01T00:38:24Z</time>
            </trkpt>
            <trkpt lon="101.406641" lat="14.177301">
                <ele>26.200000</ele>
                <time>1970-01-01T00:38:25Z</time>
            </trkpt>
            <trkpt lon="101.406626" lat="14.177266">
                <ele>26.100000</ele>
                <time>1970-01-01T00:38:26Z</time>
            </trkpt>
            <trkpt lon="101.406610" lat="14.177230">
                <ele>26.100000</ele>
                <time>1970-01-01T00:38:27Z</time>
            </trkpt>
            <trkpt lon="101.406592" lat="14.177196">
                <ele>26.400000</ele>
                <time>1970-01-01T00:38:28Z</time>
            </trkpt>
            <trkpt lon="101.406574" lat="14.177163">
                <ele>26.400000</ele>
                <time>1970-01-01T00:38:29Z</time>
            </trkpt>
            <trkpt lon="101.406556" lat="14.177132">
                <ele>26.400000</ele>
                <time>1970-01-01T00:38:30Z</time>
            </trkpt>
            <trkpt lon="101.406541" lat="14.177100">
                <ele>26.500000</ele>
                <time>1970-01-01T00:38:31Z</time>
            </trkpt>
            <trkpt lon="101.406530" lat="14.177069">
                <ele>26.500000</ele>
                <time>1970-01-01T00:38:32Z</time>
            </trkpt>
            <trkpt lon="101.406532" lat="14.177034">
                <ele>26.200000</ele>
                <time>1970-01-01T00:38:34Z</time>
            </trkpt>
            <trkpt lon="101.406571" lat="14.177013">
                <ele>25.700000</ele>
                <time>1970-01-01T00:38:36Z</time>
            </trkpt>
            <trkpt lon="101.406602" lat="14.177002">
                <ele>25.500000</ele>
                <time>1970-01-01T00:38:37Z</time>
            </trkpt>
            <trkpt lon="101.406632" lat="14.176989">
                <ele>25.500000</ele>
                <time>1970-01-01T00:38:38Z</time>
            </trkpt>
            <trkpt lon="101.406661" lat="14.176976">
                <ele>25.100000</ele>
                <time>1970-01-01T00:38:39Z</time>
            </trkpt>
            <trkpt lon="101.406693" lat="14.176964">
                <ele>25.100000</ele>
                <time>1970-01-01T00:38:40Z</time>
            </trkpt>
            <trkpt lon="101.406724" lat="14.176954">
                <ele>25.100000</ele>
                <time>1970-01-01T00:38:41Z</time>
            </trkpt>
            <trkpt lon="101.406770" lat="14.176934">
                <ele>25.100000</ele>
                <time>1970-01-01T00:38:43Z</time>
            </trkpt>
            <trkpt lon="101.406817" lat="14.176911">
                <ele>25.100000</ele>
                <time>1970-01-01T00:38:45Z</time>
            </trkpt>
            <trkpt lon="101.406848" lat="14.176900">
                <ele>25.100000</ele>
                <time>1970-01-01T00:38:46Z</time>
            </trkpt>
            <trkpt lon="101.406880" lat="14.176888">
                <ele>25.200000</ele>
                <time>1970-01-01T00:38:47Z</time>
            </trkpt>
            <trkpt lon="101.406908" lat="14.176879">
                <ele>25.300000</ele>
                <time>1970-01-01T00:38:48Z</time>
            </trkpt>
            <trkpt lon="101.406960" lat="14.176865">
                <ele>25.400000</ele>
                <time>1970-01-01T00:38:50Z</time>
            </trkpt>
            <trkpt lon="101.406994" lat="14.176855">
                <ele>26.000000</ele>
                <time>1970-01-01T00:38:51Z</time>
            </trkpt>
            <trkpt lon="101.407030" lat="14.176846">
                <ele>26.400000</ele>
                <time>1970-01-01T00:38:52Z</time>
            </trkpt>
            <trkpt lon="101.407066" lat="14.176836">
                <ele>26.400000</ele>
                <time>1970-01-01T00:38:53Z</time>
            </trkpt>
            <trkpt lon="101.407102" lat="14.176823">
                <ele>26.800000</ele>
                <time>1970-01-01T00:38:54Z</time>
            </trkpt>
            <trkpt lon="101.407139" lat="14.176808">
                <ele>27.700000</ele>
                <time>1970-01-01T00:38:55Z</time>
            </trkpt>
            <trkpt lon="101.407174" lat="14.176791">
                <ele>28.100000</ele>
                <time>1970-01-01T00:38:56Z</time>
            </trkpt>
            <trkpt lon="101.407208" lat="14.176773">
                <ele>28.300000</ele>
                <time>1970-01-01T00:38:57Z</time>
            </trkpt>
            <trkpt lon="101.407243" lat="14.176754">
                <ele>28.800000</ele>
                <time>1970-01-01T00:38:58Z</time>
            </trkpt>
            <trkpt lon="101.407275" lat="14.176736">
                <ele>28.800000</ele>
                <time>1970-01-01T00:38:59Z</time>
            </trkpt>
            <trkpt lon="101.407304" lat="14.176722">
                <ele>29.000000</ele>
                <time>1970-01-01T00:39:00Z</time>
            </trkpt>
            <trkpt lon="101.407337" lat="14.176708">
                <ele>29.100000</ele>
                <time>1970-01-01T00:39:01Z</time>
            </trkpt>
            <trkpt lon="101.407377" lat="14.176689">
                <ele>29.100000</ele>
                <time>1970-01-01T00:39:02Z</time>
            </trkpt>
            <trkpt lon="101.407429" lat="14.176654">
                <ele>29.100000</ele>
                <time>1970-01-01T00:39:03Z</time>
            </trkpt>
            <trkpt lon="101.407464" lat="14.176624">
                <ele>29.100000</ele>
                <time>1970-01-01T00:39:04Z</time>
            </trkpt>
            <trkpt lon="101.407489" lat="14.176579">
                <ele>29.100000</ele>
                <time>1970-01-01T00:39:05Z</time>
            </trkpt>
            <trkpt lon="101.407513" lat="14.176526">
                <ele>29.000000</ele>
                <time>1970-01-01T00:39:06Z</time>
            </trkpt>
            <trkpt lon="101.407531" lat="14.176490">
                <ele>29.000000</ele>
                <time>1970-01-01T00:39:07Z</time>
            </trkpt>
            <trkpt lon="101.407549" lat="14.176453">
                <ele>29.100000</ele>
                <time>1970-01-01T00:39:08Z</time>
            </trkpt>
            <trkpt lon="101.407571" lat="14.176422">
                <ele>29.000000</ele>
                <time>1970-01-01T00:39:09Z</time>
            </trkpt>
            <trkpt lon="101.407582" lat="14.176393">
                <ele>28.900000</ele>
                <time>1970-01-01T00:39:10Z</time>
            </trkpt>
            <trkpt lon="101.407571" lat="14.176368">
                <ele>28.900000</ele>
                <time>1970-01-01T00:39:11Z</time>
            </trkpt>
            <trkpt lon="101.407551" lat="14.176339">
                <ele>28.800000</ele>
                <time>1970-01-01T00:39:12Z</time>
            </trkpt>
            <trkpt lon="101.407529" lat="14.176288">
                <ele>29.000000</ele>
                <time>1970-01-01T00:39:14Z</time>
            </trkpt>
            <trkpt lon="101.407519" lat="14.176258">
                <ele>28.800000</ele>
                <time>1970-01-01T00:39:15Z</time>
            </trkpt>
            <trkpt lon="101.407527" lat="14.176222">
                <ele>28.500000</ele>
                <time>1970-01-01T00:39:16Z</time>
            </trkpt>
            <trkpt lon="101.407525" lat="14.176192">
                <ele>28.500000</ele>
                <time>1970-01-01T00:39:17Z</time>
            </trkpt>
            <trkpt lon="101.407521" lat="14.176162">
                <ele>28.300000</ele>
                <time>1970-01-01T00:39:18Z</time>
            </trkpt>
            <trkpt lon="101.407514" lat="14.176133">
                <ele>28.100000</ele>
                <time>1970-01-01T00:39:19Z</time>
            </trkpt>
            <trkpt lon="101.407510" lat="14.176100">
                <ele>28.000000</ele>
                <time>1970-01-01T00:39:20Z</time>
            </trkpt>
            <trkpt lon="101.407504" lat="14.176064">
                <ele>28.000000</ele>
                <time>1970-01-01T00:39:21Z</time>
            </trkpt>
            <trkpt lon="101.407495" lat="14.176026">
                <ele>28.100000</ele>
                <time>1970-01-01T00:39:22Z</time>
            </trkpt>
            <trkpt lon="101.407485" lat="14.175987">
                <ele>28.100000</ele>
                <time>1970-01-01T00:39:23Z</time>
            </trkpt>
            <trkpt lon="101.407476" lat="14.175948">
                <ele>28.100000</ele>
                <time>1970-01-01T00:39:24Z</time>
            </trkpt>
            <trkpt lon="101.407471" lat="14.175904">
                <ele>28.100000</ele>
                <time>1970-01-01T00:39:25Z</time>
            </trkpt>
            <trkpt lon="101.407467" lat="14.175863">
                <ele>28.200000</ele>
                <time>1970-01-01T00:39:26Z</time>
            </trkpt>
            <trkpt lon="101.407464" lat="14.175829">
                <ele>28.200000</ele>
                <time>1970-01-01T00:39:27Z</time>
            </trkpt>
            <trkpt lon="101.407461" lat="14.175798">
                <ele>28.200000</ele>
                <time>1970-01-01T00:39:28Z</time>
            </trkpt>
            <trkpt lon="101.407459" lat="14.175770">
                <ele>28.400000</ele>
                <time>1970-01-01T00:39:29Z</time>
            </trkpt>
            <trkpt lon="101.407458" lat="14.175740">
                <ele>28.400000</ele>
                <time>1970-01-01T00:39:30Z</time>
            </trkpt>
            <trkpt lon="101.407456" lat="14.175709">
                <ele>29.000000</ele>
                <time>1970-01-01T00:39:31Z</time>
            </trkpt>
            <trkpt lon="101.407453" lat="14.175679">
                <ele>29.400000</ele>
                <time>1970-01-01T00:39:32Z</time>
            </trkpt>
            <trkpt lon="101.407449" lat="14.175651">
                <ele>29.400000</ele>
                <time>1970-01-01T00:39:33Z</time>
            </trkpt>
            <trkpt lon="101.407431" lat="14.175604">
                <ele>29.800000</ele>
                <time>1970-01-01T00:39:35Z</time>
            </trkpt>
            <trkpt lon="101.407419" lat="14.175577">
                <ele>29.800000</ele>
                <time>1970-01-01T00:39:36Z</time>
            </trkpt>
            <trkpt lon="101.407408" lat="14.175548">
                <ele>30.300000</ele>
                <time>1970-01-01T00:39:37Z</time>
            </trkpt>
            <trkpt lon="101.407399" lat="14.175520">
                <ele>30.300000</ele>
                <time>1970-01-01T00:39:38Z</time>
            </trkpt>
            <trkpt lon="101.407402" lat="14.175473">
                <ele>30.300000</ele>
                <time>1970-01-01T00:39:40Z</time>
            </trkpt>
            <trkpt lon="101.407429" lat="14.175430">
                <ele>29.700000</ele>
                <time>1970-01-01T00:39:42Z</time>
            </trkpt>
            <trkpt lon="101.407449" lat="14.175404">
                <ele>29.700000</ele>
                <time>1970-01-01T00:39:43Z</time>
            </trkpt>
            <trkpt lon="101.407468" lat="14.175380">
                <ele>28.900000</ele>
                <time>1970-01-01T00:39:44Z</time>
            </trkpt>
            <trkpt lon="101.407488" lat="14.175359">
                <ele>28.900000</ele>
                <time>1970-01-01T00:39:45Z</time>
            </trkpt>
            <trkpt lon="101.407514" lat="14.175339">
                <ele>28.100000</ele>
                <time>1970-01-01T00:39:46Z</time>
            </trkpt>
            <trkpt lon="101.407548" lat="14.175323">
                <ele>27.600000</ele>
                <time>1970-01-01T00:39:47Z</time>
            </trkpt>
            <trkpt lon="101.407588" lat="14.175312">
                <ele>26.900000</ele>
                <time>1970-01-01T00:39:48Z</time>
            </trkpt>
            <trkpt lon="101.407634" lat="14.175306">
                <ele>26.400000</ele>
                <time>1970-01-01T00:39:49Z</time>
            </trkpt>
            <trkpt lon="101.407729" lat="14.175322">
                <ele>25.600000</ele>
                <time>1970-01-01T00:39:50Z</time>
            </trkpt>
            <trkpt lon="101.407778" lat="14.175314">
                <ele>25.400000</ele>
                <time>1970-01-01T00:39:51Z</time>
            </trkpt>
            <trkpt lon="101.407832" lat="14.175312">
                <ele>25.200000</ele>
                <time>1970-01-01T00:39:52Z</time>
            </trkpt>
            <trkpt lon="101.407887" lat="14.175306">
                <ele>24.700000</ele>
                <time>1970-01-01T00:39:53Z</time>
            </trkpt>
            <trkpt lon="101.407939" lat="14.175296">
                <ele>24.500000</ele>
                <time>1970-01-01T00:39:54Z</time>
            </trkpt>
            <trkpt lon="101.407989" lat="14.175289">
                <ele>24.300000</ele>
                <time>1970-01-01T00:39:55Z</time>
            </trkpt>
            <trkpt lon="101.408038" lat="14.175286">
                <ele>24.200000</ele>
                <time>1970-01-01T00:39:56Z</time>
            </trkpt>
            <trkpt lon="101.408074" lat="14.175283">
                <ele>24.200000</ele>
                <time>1970-01-01T00:39:57Z</time>
            </trkpt>
            <trkpt lon="101.408115" lat="14.175276">
                <ele>24.200000</ele>
                <time>1970-01-01T00:39:58Z</time>
            </trkpt>
            <trkpt lon="101.408151" lat="14.175285">
                <ele>24.200000</ele>
                <time>1970-01-01T00:40:01Z</time>
            </trkpt>
            <trkpt lon="101.408176" lat="14.175271">
                <ele>24.300000</ele>
                <time>1970-01-01T00:40:04Z</time>
            </trkpt>
            <trkpt lon="101.408154" lat="14.175249">
                <ele>24.300000</ele>
                <time>1970-01-01T00:40:13Z</time>
            </trkpt>
            <trkpt lon="101.408187" lat="14.175248">
                <ele>24.400000</ele>
                <time>1970-01-01T00:40:28Z</time>
            </trkpt>
            <trkpt lon="101.408227" lat="14.175255">
                <ele>24.500000</ele>
                <time>1970-01-01T00:40:31Z</time>
            </trkpt>
            <trkpt lon="101.408273" lat="14.175236">
                <ele>25.000000</ele>
                <time>1970-01-01T00:40:33Z</time>
            </trkpt>
            <trkpt lon="101.408302" lat="14.175220">
                <ele>25.200000</ele>
                <time>1970-01-01T00:40:35Z</time>
            </trkpt>
            <trkpt lon="101.408332" lat="14.175218">
                <ele>25.500000</ele>
                <time>1970-01-01T00:40:38Z</time>
            </trkpt>
            <trkpt lon="101.408366" lat="14.175229">
                <ele>25.500000</ele>
                <time>1970-01-01T00:40:42Z</time>
            </trkpt>
            <trkpt lon="101.408391" lat="14.175246">
                <ele>25.300000</ele>
                <time>1970-01-01T00:40:45Z</time>
            </trkpt>
            <trkpt lon="101.408420" lat="14.175263">
                <ele>25.300000</ele>
                <time>1970-01-01T00:40:49Z</time>
            </trkpt>
            <trkpt lon="101.408445" lat="14.175281">
                <ele>25.200000</ele>
                <time>1970-01-01T00:40:56Z</time>
            </trkpt>
            <trkpt lon="101.408480" lat="14.175298">
                <ele>25.200000</ele>
                <time>1970-01-01T00:41:01Z</time>
            </trkpt>
            <trkpt lon="101.408515" lat="14.175288">
                <ele>25.200000</ele>
                <time>1970-01-01T00:41:03Z</time>
            </trkpt>
            <trkpt lon="101.408554" lat="14.175272">
                <ele>25.200000</ele>
                <time>1970-01-01T00:41:05Z</time>
            </trkpt>
            <trkpt lon="101.408595" lat="14.175254">
                <ele>25.200000</ele>
                <time>1970-01-01T00:41:07Z</time>
            </trkpt>
            <trkpt lon="101.408634" lat="14.175231">
                <ele>25.200000</ele>
                <time>1970-01-01T00:41:09Z</time>
            </trkpt>
            <trkpt lon="101.408660" lat="14.175216">
                <ele>25.200000</ele>
                <time>1970-01-01T00:41:11Z</time>
            </trkpt>
            <trkpt lon="101.408687" lat="14.175200">
                <ele>25.200000</ele>
                <time>1970-01-01T00:41:13Z</time>
            </trkpt>
            <trkpt lon="101.408711" lat="14.175184">
                <ele>25.300000</ele>
                <time>1970-01-01T00:41:15Z</time>
            </trkpt>
            <trkpt lon="101.408743" lat="14.175166">
                <ele>25.300000</ele>
                <time>1970-01-01T00:41:17Z</time>
            </trkpt>
            <trkpt lon="101.408784" lat="14.175148">
                <ele>25.500000</ele>
                <time>1970-01-01T00:41:19Z</time>
            </trkpt>
            <trkpt lon="101.408817" lat="14.175131">
                <ele>25.800000</ele>
                <time>1970-01-01T00:41:21Z</time>
            </trkpt>
            <trkpt lon="101.408846" lat="14.175116">
                <ele>26.000000</ele>
                <time>1970-01-01T00:41:23Z</time>
            </trkpt>
            <trkpt lon="101.408876" lat="14.175098">
                <ele>26.200000</ele>
                <time>1970-01-01T00:41:25Z</time>
            </trkpt>
            <trkpt lon="101.408917" lat="14.175087">
                <ele>26.200000</ele>
                <time>1970-01-01T00:41:27Z</time>
            </trkpt>
            <trkpt lon="101.408955" lat="14.175106">
                <ele>26.200000</ele>
                <time>1970-01-01T00:41:29Z</time>
            </trkpt>
            <trkpt lon="101.408980" lat="14.175149">
                <ele>26.100000</ele>
                <time>1970-01-01T00:41:31Z</time>
            </trkpt>
            <trkpt lon="101.409001" lat="14.175194">
                <ele>25.600000</ele>
                <time>1970-01-01T00:41:33Z</time>
            </trkpt>
            <trkpt lon="101.409026" lat="14.175228">
                <ele>25.600000</ele>
                <time>1970-01-01T00:41:35Z</time>
            </trkpt>
            <trkpt lon="101.409077" lat="14.175230">
                <ele>25.600000</ele>
                <time>1970-01-01T00:41:37Z</time>
            </trkpt>
            <trkpt lon="101.409108" lat="14.175218">
                <ele>25.600000</ele>
                <time>1970-01-01T00:41:38Z</time>
            </trkpt>
            <trkpt lon="101.409135" lat="14.175203">
                <ele>25.600000</ele>
                <time>1970-01-01T00:41:39Z</time>
            </trkpt>
            <trkpt lon="101.409160" lat="14.175190">
                <ele>25.900000</ele>
                <time>1970-01-01T00:41:40Z</time>
            </trkpt>
            <trkpt lon="101.409188" lat="14.175176">
                <ele>25.900000</ele>
                <time>1970-01-01T00:41:41Z</time>
            </trkpt>
            <trkpt lon="101.409215" lat="14.175163">
                <ele>25.900000</ele>
                <time>1970-01-01T00:41:42Z</time>
            </trkpt>
            <trkpt lon="101.409240" lat="14.175152">
                <ele>25.900000</ele>
                <time>1970-01-01T00:41:43Z</time>
            </trkpt>
            <trkpt lon="101.409266" lat="14.175140">
                <ele>26.100000</ele>
                <time>1970-01-01T00:41:44Z</time>
            </trkpt>
            <trkpt lon="101.409295" lat="14.175127">
                <ele>26.100000</ele>
                <time>1970-01-01T00:41:45Z</time>
            </trkpt>
            <trkpt lon="101.409323" lat="14.175113">
                <ele>26.100000</ele>
                <time>1970-01-01T00:41:46Z</time>
            </trkpt>
            <trkpt lon="101.409350" lat="14.175099">
                <ele>26.200000</ele>
                <time>1970-01-01T00:41:47Z</time>
            </trkpt>
            <trkpt lon="101.409378" lat="14.175085">
                <ele>26.200000</ele>
                <time>1970-01-01T00:41:48Z</time>
            </trkpt>
            <trkpt lon="101.409400" lat="14.175065">
                <ele>26.200000</ele>
                <time>1970-01-01T00:41:49Z</time>
            </trkpt>
            <trkpt lon="101.409444" lat="14.175053">
                <ele>26.200000</ele>
                <time>1970-01-01T00:41:51Z</time>
            </trkpt>
            <trkpt lon="101.409496" lat="14.175064">
                <ele>26.200000</ele>
                <time>1970-01-01T00:41:53Z</time>
            </trkpt>
            <trkpt lon="101.409519" lat="14.175087">
                <ele>26.200000</ele>
                <time>1970-01-01T00:41:54Z</time>
            </trkpt>
            <trkpt lon="101.409532" lat="14.175112">
                <ele>26.100000</ele>
                <time>1970-01-01T00:41:55Z</time>
            </trkpt>
            <trkpt lon="101.409540" lat="14.175141">
                <ele>26.100000</ele>
                <time>1970-01-01T00:41:56Z</time>
            </trkpt>
            <trkpt lon="101.409554" lat="14.175176">
                <ele>25.900000</ele>
                <time>1970-01-01T00:41:57Z</time>
            </trkpt>
            <trkpt lon="101.409565" lat="14.175210">
                <ele>25.600000</ele>
                <time>1970-01-01T00:41:58Z</time>
            </trkpt>
            <trkpt lon="101.409570" lat="14.175248">
                <ele>25.400000</ele>
                <time>1970-01-01T00:42:00Z</time>
            </trkpt>
            <trkpt lon="101.409584" lat="14.175272">
                <ele>25.400000</ele>
                <time>1970-01-01T00:42:01Z</time>
            </trkpt>
            <trkpt lon="101.409607" lat="14.175305">
                <ele>25.200000</ele>
                <time>1970-01-01T00:42:03Z</time>
            </trkpt>
            <trkpt lon="101.409641" lat="14.175325">
                <ele>25.100000</ele>
                <time>1970-01-01T00:42:05Z</time>
            </trkpt>
            <trkpt lon="101.409689" lat="14.175321">
                <ele>24.900000</ele>
                <time>1970-01-01T00:42:07Z</time>
            </trkpt>
            <trkpt lon="101.409744" lat="14.175313">
                <ele>25.300000</ele>
                <time>1970-01-01T00:42:09Z</time>
            </trkpt>
            <trkpt lon="101.409793" lat="14.175311">
                <ele>25.500000</ele>
                <time>1970-01-01T00:42:11Z</time>
            </trkpt>
            <trkpt lon="101.409825" lat="14.175308">
                <ele>25.800000</ele>
                <time>1970-01-01T00:42:13Z</time>
            </trkpt>
            <trkpt lon="101.409862" lat="14.175298">
                <ele>26.000000</ele>
                <time>1970-01-01T00:42:18Z</time>
            </trkpt>
            <trkpt lon="101.409892" lat="14.175297">
                <ele>26.000000</ele>
                <time>1970-01-01T00:42:21Z</time>
            </trkpt>
            <trkpt lon="101.409919" lat="14.175305">
                <ele>26.100000</ele>
                <time>1970-01-01T00:42:25Z</time>
            </trkpt>
            <trkpt lon="101.409944" lat="14.175323">
                <ele>25.900000</ele>
                <time>1970-01-01T00:42:47Z</time>
            </trkpt>
            <trkpt lon="101.409959" lat="14.175355">
                <ele>25.900000</ele>
                <time>1970-01-01T00:42:50Z</time>
            </trkpt>
            <trkpt lon="101.409971" lat="14.175383">
                <ele>25.600000</ele>
                <time>1970-01-01T00:42:52Z</time>
            </trkpt>
            <trkpt lon="101.409986" lat="14.175412">
                <ele>25.400000</ele>
                <time>1970-01-01T00:42:55Z</time>
            </trkpt>
            <trkpt lon="101.410004" lat="14.175390">
                <ele>25.600000</ele>
                <time>1970-01-01T00:43:09Z</time>
            </trkpt>
            <trkpt lon="101.410006" lat="14.175352">
                <ele>25.900000</ele>
                <time>1970-01-01T00:43:12Z</time>
            </trkpt>
            <trkpt lon="101.410001" lat="14.175316">
                <ele>26.100000</ele>
                <time>1970-01-01T00:43:14Z</time>
            </trkpt>
            <trkpt lon="101.409999" lat="14.175264">
                <ele>26.400000</ele>
                <time>1970-01-01T00:43:16Z</time>
            </trkpt>
            <trkpt lon="101.409997" lat="14.175235">
                <ele>26.400000</ele>
                <time>1970-01-01T00:43:17Z</time>
            </trkpt>
            <trkpt lon="101.409994" lat="14.175206">
                <ele>26.700000</ele>
                <time>1970-01-01T00:43:18Z</time>
            </trkpt>
            <trkpt lon="101.409997" lat="14.175176">
                <ele>26.900000</ele>
                <time>1970-01-01T00:43:19Z</time>
            </trkpt>
            <trkpt lon="101.410003" lat="14.175143">
                <ele>27.200000</ele>
                <time>1970-01-01T00:43:20Z</time>
            </trkpt>
            <trkpt lon="101.410009" lat="14.175111">
                <ele>27.200000</ele>
                <time>1970-01-01T00:43:21Z</time>
            </trkpt>
            <trkpt lon="101.410016" lat="14.175077">
                <ele>27.300000</ele>
                <time>1970-01-01T00:43:22Z</time>
            </trkpt>
            <trkpt lon="101.410022" lat="14.175042">
                <ele>27.300000</ele>
                <time>1970-01-01T00:43:23Z</time>
            </trkpt>
            <trkpt lon="101.410028" lat="14.175010">
                <ele>27.300000</ele>
                <time>1970-01-01T00:43:24Z</time>
            </trkpt>
            <trkpt lon="101.410034" lat="14.174978">
                <ele>27.300000</ele>
                <time>1970-01-01T00:43:25Z</time>
            </trkpt>
            <trkpt lon="101.410040" lat="14.174943">
                <ele>27.300000</ele>
                <time>1970-01-01T00:43:26Z</time>
            </trkpt>
            <trkpt lon="101.410045" lat="14.174906">
                <ele>27.100000</ele>
                <time>1970-01-01T00:43:27Z</time>
            </trkpt>
            <trkpt lon="101.410053" lat="14.174866">
                <ele>26.900000</ele>
                <time>1970-01-01T00:43:28Z</time>
            </trkpt>
            <trkpt lon="101.410065" lat="14.174828">
                <ele>26.600000</ele>
                <time>1970-01-01T00:43:29Z</time>
            </trkpt>
            <trkpt lon="101.410073" lat="14.174791">
                <ele>26.400000</ele>
                <time>1970-01-01T00:43:30Z</time>
            </trkpt>
            <trkpt lon="101.410074" lat="14.174760">
                <ele>26.300000</ele>
                <time>1970-01-01T00:43:31Z</time>
            </trkpt>
            <trkpt lon="101.410061" lat="14.174729">
                <ele>26.300000</ele>
                <time>1970-01-01T00:43:33Z</time>
            </trkpt>
            <trkpt lon="101.410032" lat="14.174711">
                <ele>26.300000</ele>
                <time>1970-01-01T00:43:36Z</time>
            </trkpt>
            <trkpt lon="101.409980" lat="14.174709">
                <ele>26.300000</ele>
                <time>1970-01-01T00:43:38Z</time>
            </trkpt>
            <trkpt lon="101.409944" lat="14.174714">
                <ele>26.300000</ele>
                <time>1970-01-01T00:43:39Z</time>
            </trkpt>
            <trkpt lon="101.409912" lat="14.174721">
                <ele>26.300000</ele>
                <time>1970-01-01T00:43:40Z</time>
            </trkpt>
            <trkpt lon="101.409882" lat="14.174729">
                <ele>26.300000</ele>
                <time>1970-01-01T00:43:41Z</time>
            </trkpt>
            <trkpt lon="101.409852" lat="14.174738">
                <ele>26.300000</ele>
                <time>1970-01-01T00:43:42Z</time>
            </trkpt>
            <trkpt lon="101.409821" lat="14.174744">
                <ele>26.300000</ele>
                <time>1970-01-01T00:43:43Z</time>
            </trkpt>
            <trkpt lon="101.409790" lat="14.174749">
                <ele>26.300000</ele>
                <time>1970-01-01T00:43:44Z</time>
            </trkpt>
            <trkpt lon="101.409756" lat="14.174751">
                <ele>26.300000</ele>
                <time>1970-01-01T00:43:45Z</time>
            </trkpt>
            <trkpt lon="101.409721" lat="14.174751">
                <ele>26.200000</ele>
                <time>1970-01-01T00:43:46Z</time>
            </trkpt>
            <trkpt lon="101.409691" lat="14.174749">
                <ele>26.200000</ele>
                <time>1970-01-01T00:43:47Z</time>
            </trkpt>
            <trkpt lon="101.409658" lat="14.174741">
                <ele>25.900000</ele>
                <time>1970-01-01T00:43:48Z</time>
            </trkpt>
            <trkpt lon="101.409624" lat="14.174730">
                <ele>25.700000</ele>
                <time>1970-01-01T00:43:49Z</time>
            </trkpt>
            <trkpt lon="101.409596" lat="14.174714">
                <ele>25.400000</ele>
                <time>1970-01-01T00:43:50Z</time>
            </trkpt>
            <trkpt lon="101.409570" lat="14.174696">
                <ele>25.400000</ele>
                <time>1970-01-01T00:43:51Z</time>
            </trkpt>
            <trkpt lon="101.409548" lat="14.174670">
                <ele>25.300000</ele>
                <time>1970-01-01T00:43:52Z</time>
            </trkpt>
            <trkpt lon="101.409531" lat="14.174644">
                <ele>25.300000</ele>
                <time>1970-01-01T00:43:53Z</time>
            </trkpt>
            <trkpt lon="101.409503" lat="14.174593">
                <ele>25.400000</ele>
                <time>1970-01-01T00:43:55Z</time>
            </trkpt>
            <trkpt lon="101.409484" lat="14.174564">
                <ele>25.700000</ele>
                <time>1970-01-01T00:43:56Z</time>
            </trkpt>
            <trkpt lon="101.409460" lat="14.174532">
                <ele>25.700000</ele>
                <time>1970-01-01T00:43:57Z</time>
            </trkpt>
            <trkpt lon="101.409435" lat="14.174505">
                <ele>25.900000</ele>
                <time>1970-01-01T00:43:58Z</time>
            </trkpt>
            <trkpt lon="101.409411" lat="14.174483">
                <ele>26.200000</ele>
                <time>1970-01-01T00:43:59Z</time>
            </trkpt>
            <trkpt lon="101.409383" lat="14.174463">
                <ele>26.300000</ele>
                <time>1970-01-01T00:44:00Z</time>
            </trkpt>
            <trkpt lon="101.409346" lat="14.174443">
                <ele>26.300000</ele>
                <time>1970-01-01T00:44:01Z</time>
            </trkpt>
            <trkpt lon="101.409308" lat="14.174425">
                <ele>26.700000</ele>
                <time>1970-01-01T00:44:02Z</time>
            </trkpt>
            <trkpt lon="101.409271" lat="14.174411">
                <ele>26.900000</ele>
                <time>1970-01-01T00:44:03Z</time>
            </trkpt>
            <trkpt lon="101.409236" lat="14.174396">
                <ele>26.900000</ele>
                <time>1970-01-01T00:44:04Z</time>
            </trkpt>
            <trkpt lon="101.409202" lat="14.174382">
                <ele>26.900000</ele>
                <time>1970-01-01T00:44:05Z</time>
            </trkpt>
            <trkpt lon="101.409169" lat="14.174374">
                <ele>26.900000</ele>
                <time>1970-01-01T00:44:06Z</time>
            </trkpt>
            <trkpt lon="101.409133" lat="14.174373">
                <ele>26.900000</ele>
                <time>1970-01-01T00:44:07Z</time>
            </trkpt>
            <trkpt lon="101.409080" lat="14.174396">
                <ele>26.900000</ele>
                <time>1970-01-01T00:44:08Z</time>
            </trkpt>
            <trkpt lon="101.409051" lat="14.174406">
                <ele>27.200000</ele>
                <time>1970-01-01T00:44:09Z</time>
            </trkpt>
            <trkpt lon="101.409019" lat="14.174417">
                <ele>27.200000</ele>
                <time>1970-01-01T00:44:10Z</time>
            </trkpt>
            <trkpt lon="101.408994" lat="14.174442">
                <ele>27.200000</ele>
                <time>1970-01-01T00:44:11Z</time>
            </trkpt>
            <trkpt lon="101.408957" lat="14.174453">
                <ele>27.300000</ele>
                <time>1970-01-01T00:44:12Z</time>
            </trkpt>
            <trkpt lon="101.408908" lat="14.174456">
                <ele>27.300000</ele>
                <time>1970-01-01T00:44:14Z</time>
            </trkpt>
            <trkpt lon="101.408874" lat="14.174469">
                <ele>27.300000</ele>
                <time>1970-01-01T00:44:16Z</time>
            </trkpt>
            <trkpt lon="101.408846" lat="14.174479">
                <ele>27.300000</ele>
                <time>1970-01-01T00:44:18Z</time>
            </trkpt>
            <trkpt lon="101.408818" lat="14.174482">
                <ele>27.400000</ele>
                <time>1970-01-01T00:44:20Z</time>
            </trkpt>
            <trkpt lon="101.408790" lat="14.174476">
                <ele>27.400000</ele>
                <time>1970-01-01T00:44:22Z</time>
            </trkpt>
            <trkpt lon="101.408786" lat="14.174439">
                <ele>27.300000</ele>
                <time>1970-01-01T00:44:25Z</time>
            </trkpt>
            <trkpt lon="101.408814" lat="14.174419">
                <ele>27.300000</ele>
                <time>1970-01-01T00:44:28Z</time>
            </trkpt>
            <trkpt lon="101.408813" lat="14.174374">
                <ele>27.100000</ele>
                <time>1970-01-01T00:44:31Z</time>
            </trkpt>
            <trkpt lon="101.408792" lat="14.174333">
                <ele>26.900000</ele>
                <time>1970-01-01T00:44:33Z</time>
            </trkpt>
            <trkpt lon="101.408778" lat="14.174287">
                <ele>27.000000</ele>
                <time>1970-01-01T00:44:35Z</time>
            </trkpt>
            <trkpt lon="101.408769" lat="14.174257">
                <ele>27.000000</ele>
                <time>1970-01-01T00:44:36Z</time>
            </trkpt>
            <trkpt lon="101.408761" lat="14.174226">
                <ele>27.000000</ele>
                <time>1970-01-01T00:44:37Z</time>
            </trkpt>
            <trkpt lon="101.408754" lat="14.174194">
                <ele>27.000000</ele>
                <time>1970-01-01T00:44:38Z</time>
            </trkpt>
            <trkpt lon="101.408740" lat="14.174156">
                <ele>27.200000</ele>
                <time>1970-01-01T00:44:39Z</time>
            </trkpt>
            <trkpt lon="101.408722" lat="14.174122">
                <ele>27.200000</ele>
                <time>1970-01-01T00:44:40Z</time>
            </trkpt>
            <trkpt lon="101.408685" lat="14.174043">
                <ele>27.400000</ele>
                <time>1970-01-01T00:44:41Z</time>
            </trkpt>
            <trkpt lon="101.408670" lat="14.173981">
                <ele>27.500000</ele>
                <time>1970-01-01T00:44:42Z</time>
            </trkpt>
            <trkpt lon="101.408644" lat="14.173928">
                <ele>27.600000</ele>
                <time>1970-01-01T00:44:43Z</time>
            </trkpt>
            <trkpt lon="101.408623" lat="14.173877">
                <ele>27.500000</ele>
                <time>1970-01-01T00:44:44Z</time>
            </trkpt>
            <trkpt lon="101.408603" lat="14.173836">
                <ele>27.700000</ele>
                <time>1970-01-01T00:44:45Z</time>
            </trkpt>
            <trkpt lon="101.408582" lat="14.173790">
                <ele>27.600000</ele>
                <time>1970-01-01T00:44:46Z</time>
            </trkpt>
            <trkpt lon="101.408577" lat="14.173753">
                <ele>27.600000</ele>
                <time>1970-01-01T00:44:47Z</time>
            </trkpt>
            <trkpt lon="101.408541" lat="14.173696">
                <ele>28.100000</ele>
                <time>1970-01-01T00:44:49Z</time>
            </trkpt>
            <trkpt lon="101.408521" lat="14.173661">
                <ele>28.700000</ele>
                <time>1970-01-01T00:44:51Z</time>
            </trkpt>
            <trkpt lon="101.408524" lat="14.173627">
                <ele>28.700000</ele>
                <time>1970-01-01T00:44:53Z</time>
            </trkpt>
            <trkpt lon="101.408518" lat="14.173600">
                <ele>29.000000</ele>
                <time>1970-01-01T00:44:54Z</time>
            </trkpt>
            <trkpt lon="101.408528" lat="14.173552">
                <ele>29.400000</ele>
                <time>1970-01-01T00:44:56Z</time>
            </trkpt>
            <trkpt lon="101.408535" lat="14.173521">
                <ele>29.300000</ele>
                <time>1970-01-01T00:44:57Z</time>
            </trkpt>
            <trkpt lon="101.408544" lat="14.173486">
                <ele>29.300000</ele>
                <time>1970-01-01T00:44:58Z</time>
            </trkpt>
            <trkpt lon="101.408562" lat="14.173444">
                <ele>30.300000</ele>
                <time>1970-01-01T00:44:59Z</time>
            </trkpt>
            <trkpt lon="101.408585" lat="14.173399">
                <ele>30.200000</ele>
                <time>1970-01-01T00:45:00Z</time>
            </trkpt>
            <trkpt lon="101.408604" lat="14.173362">
                <ele>30.200000</ele>
                <time>1970-01-01T00:45:01Z</time>
            </trkpt>
            <trkpt lon="101.408618" lat="14.173331">
                <ele>29.900000</ele>
                <time>1970-01-01T00:45:02Z</time>
            </trkpt>
            <trkpt lon="101.408632" lat="14.173303">
                <ele>30.500000</ele>
                <time>1970-01-01T00:45:03Z</time>
            </trkpt>
            <trkpt lon="101.408686" lat="14.173270">
                <ele>30.200000</ele>
                <time>1970-01-01T00:45:05Z</time>
            </trkpt>
            <trkpt lon="101.408724" lat="14.173258">
                <ele>29.300000</ele>
                <time>1970-01-01T00:45:06Z</time>
            </trkpt>
            <trkpt lon="101.408757" lat="14.173241">
                <ele>28.500000</ele>
                <time>1970-01-01T00:45:07Z</time>
            </trkpt>
            <trkpt lon="101.408788" lat="14.173216">
                <ele>28.400000</ele>
                <time>1970-01-01T00:45:08Z</time>
            </trkpt>
            <trkpt lon="101.408818" lat="14.173192">
                <ele>28.900000</ele>
                <time>1970-01-01T00:45:09Z</time>
            </trkpt>
            <trkpt lon="101.408844" lat="14.173174">
                <ele>28.000000</ele>
                <time>1970-01-01T00:45:10Z</time>
            </trkpt>
            <trkpt lon="101.408872" lat="14.173160">
                <ele>28.000000</ele>
                <time>1970-01-01T00:45:11Z</time>
            </trkpt>
            <trkpt lon="101.408911" lat="14.173145">
                <ele>28.000000</ele>
                <time>1970-01-01T00:45:12Z</time>
            </trkpt>
            <trkpt lon="101.408951" lat="14.173125">
                <ele>27.800000</ele>
                <time>1970-01-01T00:45:13Z</time>
            </trkpt>
            <trkpt lon="101.408987" lat="14.173109">
                <ele>27.800000</ele>
                <time>1970-01-01T00:45:14Z</time>
            </trkpt>
            <trkpt lon="101.409027" lat="14.173096">
                <ele>27.500000</ele>
                <time>1970-01-01T00:45:15Z</time>
            </trkpt>
            <trkpt lon="101.409065" lat="14.173084">
                <ele>27.400000</ele>
                <time>1970-01-01T00:45:16Z</time>
            </trkpt>
            <trkpt lon="101.409102" lat="14.173066">
                <ele>27.400000</ele>
                <time>1970-01-01T00:45:17Z</time>
            </trkpt>
            <trkpt lon="101.409137" lat="14.173040">
                <ele>27.400000</ele>
                <time>1970-01-01T00:45:18Z</time>
            </trkpt>
            <trkpt lon="101.409171" lat="14.173011">
                <ele>27.400000</ele>
                <time>1970-01-01T00:45:19Z</time>
            </trkpt>
            <trkpt lon="101.409207" lat="14.172983">
                <ele>27.400000</ele>
                <time>1970-01-01T00:45:20Z</time>
            </trkpt>
            <trkpt lon="101.409243" lat="14.172959">
                <ele>27.400000</ele>
                <time>1970-01-01T00:45:21Z</time>
            </trkpt>
            <trkpt lon="101.409282" lat="14.172935">
                <ele>27.400000</ele>
                <time>1970-01-01T00:45:22Z</time>
            </trkpt>
            <trkpt lon="101.409320" lat="14.172908">
                <ele>27.500000</ele>
                <time>1970-01-01T00:45:23Z</time>
            </trkpt>
            <trkpt lon="101.409354" lat="14.172882">
                <ele>27.700000</ele>
                <time>1970-01-01T00:45:24Z</time>
            </trkpt>
            <trkpt lon="101.409384" lat="14.172856">
                <ele>27.900000</ele>
                <time>1970-01-01T00:45:25Z</time>
            </trkpt>
            <trkpt lon="101.409406" lat="14.172834">
                <ele>27.900000</ele>
                <time>1970-01-01T00:45:26Z</time>
            </trkpt>
            <trkpt lon="101.409434" lat="14.172803">
                <ele>27.900000</ele>
                <time>1970-01-01T00:45:28Z</time>
            </trkpt>
            <trkpt lon="101.409456" lat="14.172781">
                <ele>27.900000</ele>
                <time>1970-01-01T00:45:30Z</time>
            </trkpt>
            <trkpt lon="101.409478" lat="14.172755">
                <ele>27.900000</ele>
                <time>1970-01-01T00:45:32Z</time>
            </trkpt>
            <trkpt lon="101.409503" lat="14.172731">
                <ele>28.200000</ele>
                <time>1970-01-01T00:45:34Z</time>
            </trkpt>
            <trkpt lon="101.409538" lat="14.172713">
                <ele>27.900000</ele>
                <time>1970-01-01T00:45:36Z</time>
            </trkpt>
            <trkpt lon="101.409570" lat="14.172688">
                <ele>27.800000</ele>
                <time>1970-01-01T00:45:38Z</time>
            </trkpt>
            <trkpt lon="101.409589" lat="14.172663">
                <ele>27.800000</ele>
                <time>1970-01-01T00:45:40Z</time>
            </trkpt>
            <trkpt lon="101.409605" lat="14.172637">
                <ele>27.500000</ele>
                <time>1970-01-01T00:45:48Z</time>
            </trkpt>
            <trkpt lon="101.409635" lat="14.172625">
                <ele>27.500000</ele>
                <time>1970-01-01T00:45:54Z</time>
            </trkpt>
            <trkpt lon="101.409655" lat="14.172604">
                <ele>27.300000</ele>
                <time>1970-01-01T00:46:05Z</time>
            </trkpt>
            <trkpt lon="101.409677" lat="14.172580">
                <ele>27.300000</ele>
                <time>1970-01-01T00:46:11Z</time>
            </trkpt>
            <trkpt lon="101.409652" lat="14.172563">
                <ele>27.500000</ele>
                <time>1970-01-01T00:46:14Z</time>
            </trkpt>
            <trkpt lon="101.409624" lat="14.172550">
                <ele>28.000000</ele>
                <time>1970-01-01T00:46:17Z</time>
            </trkpt>
            <trkpt lon="101.409602" lat="14.172533">
                <ele>28.500000</ele>
                <time>1970-01-01T00:46:20Z</time>
            </trkpt>
            <trkpt lon="101.409588" lat="14.172504">
                <ele>28.800000</ele>
                <time>1970-01-01T00:46:24Z</time>
            </trkpt>
            <trkpt lon="101.409588" lat="14.172475">
                <ele>29.000000</ele>
                <time>1970-01-01T00:46:28Z</time>
            </trkpt>
            <trkpt lon="101.409592" lat="14.172448">
                <ele>29.000000</ele>
                <time>1970-01-01T00:46:30Z</time>
            </trkpt>
            <trkpt lon="101.409591" lat="14.172417">
                <ele>29.400000</ele>
                <time>1970-01-01T00:46:33Z</time>
            </trkpt>
            <trkpt lon="101.409583" lat="14.172386">
                <ele>29.900000</ele>
                <time>1970-01-01T00:46:42Z</time>
            </trkpt>
            <trkpt lon="101.409566" lat="14.172347">
                <ele>30.400000</ele>
                <time>1970-01-01T00:46:45Z</time>
            </trkpt>
            <trkpt lon="101.409549" lat="14.172311">
                <ele>31.400000</ele>
                <time>1970-01-01T00:46:47Z</time>
            </trkpt>
            <trkpt lon="101.409528" lat="14.172285">
                <ele>31.400000</ele>
                <time>1970-01-01T00:46:49Z</time>
            </trkpt>
            <trkpt lon="101.409512" lat="14.172258">
                <ele>32.400000</ele>
                <time>1970-01-01T00:46:51Z</time>
            </trkpt>
            <trkpt lon="101.409497" lat="14.172226">
                <ele>32.900000</ele>
                <time>1970-01-01T00:46:54Z</time>
            </trkpt>
            <trkpt lon="101.409481" lat="14.172195">
                <ele>33.400000</ele>
                <time>1970-01-01T00:46:56Z</time>
            </trkpt>
            <trkpt lon="101.409458" lat="14.172176">
                <ele>33.900000</ele>
                <time>1970-01-01T00:46:58Z</time>
            </trkpt>
            <trkpt lon="101.409441" lat="14.172152">
                <ele>34.400000</ele>
                <time>1970-01-01T00:47:00Z</time>
            </trkpt>
            <trkpt lon="101.409427" lat="14.172127">
                <ele>34.900000</ele>
                <time>1970-01-01T00:47:03Z</time>
            </trkpt>
            <trkpt lon="101.409411" lat="14.172101">
                <ele>35.400000</ele>
                <time>1970-01-01T00:47:06Z</time>
            </trkpt>
            <trkpt lon="101.409384" lat="14.172090">
                <ele>35.900000</ele>
                <time>1970-01-01T00:47:10Z</time>
            </trkpt>
            <trkpt lon="101.409358" lat="14.172070">
                <ele>36.400000</ele>
                <time>1970-01-01T00:47:14Z</time>
            </trkpt>
            <trkpt lon="101.409346" lat="14.172045">
                <ele>36.400000</ele>
                <time>1970-01-01T00:47:19Z</time>
            </trkpt>
            <trkpt lon="101.409324" lat="14.172021">
                <ele>37.400000</ele>
                <time>1970-01-01T00:47:23Z</time>
            </trkpt>
            <trkpt lon="101.409300" lat="14.171998">
                <ele>37.900000</ele>
                <time>1970-01-01T00:47:28Z</time>
            </trkpt>
            <trkpt lon="101.409304" lat="14.171971">
                <ele>37.900000</ele>
                <time>1970-01-01T00:47:36Z</time>
            </trkpt>
            <trkpt lon="101.409337" lat="14.171958">
                <ele>37.900000</ele>
                <time>1970-01-01T00:47:45Z</time>
            </trkpt>
            <trkpt lon="101.409361" lat="14.171932">
                <ele>38.000000</ele>
                <time>1970-01-01T00:47:53Z</time>
            </trkpt>
            <trkpt lon="101.409398" lat="14.171948">
                <ele>37.000000</ele>
                <time>1970-01-01T00:47:58Z</time>
            </trkpt>
            <trkpt lon="101.409431" lat="14.171943">
                <ele>37.300000</ele>
                <time>1970-01-01T00:48:02Z</time>
            </trkpt>
            <trkpt lon="101.409459" lat="14.171937">
                <ele>37.300000</ele>
                <time>1970-01-01T00:48:07Z</time>
            </trkpt>
            <trkpt lon="101.409506" lat="14.171978">
                <ele>36.400000</ele>
                <time>1970-01-01T00:48:17Z</time>
            </trkpt>
            <trkpt lon="101.409542" lat="14.171975">
                <ele>36.200000</ele>
                <time>1970-01-01T00:48:26Z</time>
            </trkpt>
            <trkpt lon="101.409571" lat="14.171981">
                <ele>35.800000</ele>
                <time>1970-01-01T00:48:32Z</time>
            </trkpt>
            <trkpt lon="101.409601" lat="14.171974">
                <ele>35.800000</ele>
                <time>1970-01-01T00:48:35Z</time>
            </trkpt>
            <trkpt lon="101.409629" lat="14.171956">
                <ele>35.300000</ele>
                <time>1970-01-01T00:48:39Z</time>
            </trkpt>
            <trkpt lon="101.409657" lat="14.171936">
                <ele>35.400000</ele>
                <time>1970-01-01T00:48:42Z</time>
            </trkpt>
            <trkpt lon="101.409687" lat="14.171925">
                <ele>35.400000</ele>
                <time>1970-01-01T00:48:44Z</time>
            </trkpt>
            <trkpt lon="101.409723" lat="14.171912">
                <ele>34.900000</ele>
                <time>1970-01-01T00:48:46Z</time>
            </trkpt>
            <trkpt lon="101.409748" lat="14.171901">
                <ele>35.100000</ele>
                <time>1970-01-01T00:48:52Z</time>
            </trkpt>
            <trkpt lon="101.409749" lat="14.171874">
                <ele>35.100000</ele>
                <time>1970-01-01T00:48:55Z</time>
            </trkpt>
            <trkpt lon="101.409778" lat="14.171840">
                <ele>35.300000</ele>
                <time>1970-01-01T00:48:58Z</time>
            </trkpt>
            <trkpt lon="101.409805" lat="14.171833">
                <ele>35.300000</ele>
                <time>1970-01-01T00:49:00Z</time>
            </trkpt>
            <trkpt lon="101.409836" lat="14.171826">
                <ele>35.100000</ele>
                <time>1970-01-01T00:49:04Z</time>
            </trkpt>
            <trkpt lon="101.409864" lat="14.171825">
                <ele>34.800000</ele>
                <time>1970-01-01T00:49:08Z</time>
            </trkpt>
            <trkpt lon="101.409902" lat="14.171817">
                <ele>35.300000</ele>
                <time>1970-01-01T00:49:11Z</time>
            </trkpt>
            <trkpt lon="101.409931" lat="14.171807">
                <ele>34.900000</ele>
                <time>1970-01-01T00:49:13Z</time>
            </trkpt>
            <trkpt lon="101.409960" lat="14.171803">
                <ele>34.400000</ele>
                <time>1970-01-01T00:49:15Z</time>
            </trkpt>
            <trkpt lon="101.409991" lat="14.171801">
                <ele>33.900000</ele>
                <time>1970-01-01T00:49:17Z</time>
            </trkpt>
            <trkpt lon="101.410031" lat="14.171781">
                <ele>34.000000</ele>
                <time>1970-01-01T00:49:19Z</time>
            </trkpt>
            <trkpt lon="101.410069" lat="14.171751">
                <ele>34.000000</ele>
                <time>1970-01-01T00:49:21Z</time>
            </trkpt>
            <trkpt lon="101.410108" lat="14.171727">
                <ele>33.900000</ele>
                <time>1970-01-01T00:49:23Z</time>
            </trkpt>
            <trkpt lon="101.410148" lat="14.171714">
                <ele>33.200000</ele>
                <time>1970-01-01T00:49:25Z</time>
            </trkpt>
            <trkpt lon="101.410177" lat="14.171711">
                <ele>32.600000</ele>
                <time>1970-01-01T00:49:27Z</time>
            </trkpt>
            <trkpt lon="101.410209" lat="14.171724">
                <ele>31.900000</ele>
                <time>1970-01-01T00:49:29Z</time>
            </trkpt>
            <trkpt lon="101.410246" lat="14.171736">
                <ele>31.500000</ele>
                <time>1970-01-01T00:49:31Z</time>
            </trkpt>
            <trkpt lon="101.410281" lat="14.171741">
                <ele>30.800000</ele>
                <time>1970-01-01T00:49:33Z</time>
            </trkpt>
            <trkpt lon="101.410310" lat="14.171740">
                <ele>30.800000</ele>
                <time>1970-01-01T00:49:35Z</time>
            </trkpt>
            <trkpt lon="101.410348" lat="14.171743">
                <ele>30.700000</ele>
                <time>1970-01-01T00:49:38Z</time>
            </trkpt>
            <trkpt lon="101.410384" lat="14.171737">
                <ele>31.200000</ele>
                <time>1970-01-01T00:49:42Z</time>
            </trkpt>
            <trkpt lon="101.410414" lat="14.171762">
                <ele>30.700000</ele>
                <time>1970-01-01T00:49:44Z</time>
            </trkpt>
            <trkpt lon="101.410434" lat="14.171801">
                <ele>30.400000</ele>
                <time>1970-01-01T00:49:46Z</time>
            </trkpt>
            <trkpt lon="101.410451" lat="14.171840">
                <ele>30.100000</ele>
                <time>1970-01-01T00:49:48Z</time>
            </trkpt>
            <trkpt lon="101.410466" lat="14.171884">
                <ele>29.900000</ele>
                <time>1970-01-01T00:49:50Z</time>
            </trkpt>
            <trkpt lon="101.410488" lat="14.171933">
                <ele>29.600000</ele>
                <time>1970-01-01T00:49:52Z</time>
            </trkpt>
            <trkpt lon="101.410501" lat="14.171957">
                <ele>29.500000</ele>
                <time>1970-01-01T00:49:53Z</time>
            </trkpt>
            <trkpt lon="101.410522" lat="14.172005">
                <ele>29.500000</ele>
                <time>1970-01-01T00:49:55Z</time>
            </trkpt>
            <trkpt lon="101.410534" lat="14.172032">
                <ele>29.500000</ele>
                <time>1970-01-01T00:49:56Z</time>
            </trkpt>
            <trkpt lon="101.410547" lat="14.172057">
                <ele>29.500000</ele>
                <time>1970-01-01T00:49:57Z</time>
            </trkpt>
            <trkpt lon="101.410562" lat="14.172081">
                <ele>29.500000</ele>
                <time>1970-01-01T00:49:58Z</time>
            </trkpt>
            <trkpt lon="101.410578" lat="14.172110">
                <ele>29.500000</ele>
                <time>1970-01-01T00:49:59Z</time>
            </trkpt>
            <trkpt lon="101.410593" lat="14.172140">
                <ele>29.400000</ele>
                <time>1970-01-01T00:50:00Z</time>
            </trkpt>
            <trkpt lon="101.410608" lat="14.172170">
                <ele>29.400000</ele>
                <time>1970-01-01T00:50:01Z</time>
            </trkpt>
            <trkpt lon="101.410622" lat="14.172198">
                <ele>29.400000</ele>
                <time>1970-01-01T00:50:02Z</time>
            </trkpt>
            <trkpt lon="101.410640" lat="14.172226">
                <ele>29.200000</ele>
                <time>1970-01-01T00:50:03Z</time>
            </trkpt>
            <trkpt lon="101.410656" lat="14.172249">
                <ele>29.200000</ele>
                <time>1970-01-01T00:50:04Z</time>
            </trkpt>
            <trkpt lon="101.410680" lat="14.172297">
                <ele>28.900000</ele>
                <time>1970-01-01T00:50:06Z</time>
            </trkpt>
            <trkpt lon="101.410694" lat="14.172326">
                <ele>28.900000</ele>
                <time>1970-01-01T00:50:07Z</time>
            </trkpt>
            <trkpt lon="101.410713" lat="14.172364">
                <ele>28.900000</ele>
                <time>1970-01-01T00:50:09Z</time>
            </trkpt>
            <trkpt lon="101.410734" lat="14.172417">
                <ele>28.700000</ele>
                <time>1970-01-01T00:50:11Z</time>
            </trkpt>
            <trkpt lon="101.410744" lat="14.172448">
                <ele>28.700000</ele>
                <time>1970-01-01T00:50:12Z</time>
            </trkpt>
            <trkpt lon="101.410753" lat="14.172475">
                <ele>28.700000</ele>
                <time>1970-01-01T00:50:13Z</time>
            </trkpt>
            <trkpt lon="101.410769" lat="14.172523">
                <ele>28.500000</ele>
                <time>1970-01-01T00:50:15Z</time>
            </trkpt>
            <trkpt lon="101.410781" lat="14.172552">
                <ele>28.500000</ele>
                <time>1970-01-01T00:50:16Z</time>
            </trkpt>
            <trkpt lon="101.410796" lat="14.172581">
                <ele>28.500000</ele>
                <time>1970-01-01T00:50:17Z</time>
            </trkpt>
            <trkpt lon="101.410827" lat="14.172611">
                <ele>28.500000</ele>
                <time>1970-01-01T00:50:19Z</time>
            </trkpt>
            <trkpt lon="101.410866" lat="14.172627">
                <ele>28.700000</ele>
                <time>1970-01-01T00:50:21Z</time>
            </trkpt>
            <trkpt lon="101.410911" lat="14.172632">
                <ele>28.700000</ele>
                <time>1970-01-01T00:50:23Z</time>
            </trkpt>
            <trkpt lon="101.410948" lat="14.172620">
                <ele>28.800000</ele>
                <time>1970-01-01T00:50:25Z</time>
            </trkpt>
            <trkpt lon="101.410993" lat="14.172614">
                <ele>28.800000</ele>
                <time>1970-01-01T00:50:27Z</time>
            </trkpt>
            <trkpt lon="101.411038" lat="14.172608">
                <ele>28.900000</ele>
                <time>1970-01-01T00:50:29Z</time>
            </trkpt>
            <trkpt lon="101.411081" lat="14.172598">
                <ele>28.800000</ele>
                <time>1970-01-01T00:50:31Z</time>
            </trkpt>
            <trkpt lon="101.411129" lat="14.172584">
                <ele>28.700000</ele>
                <time>1970-01-01T00:50:33Z</time>
            </trkpt>
            <trkpt lon="101.411157" lat="14.172576">
                <ele>28.500000</ele>
                <time>1970-01-01T00:50:34Z</time>
            </trkpt>
            <trkpt lon="101.411189" lat="14.172565">
                <ele>28.300000</ele>
                <time>1970-01-01T00:50:35Z</time>
            </trkpt>
            <trkpt lon="101.411222" lat="14.172552">
                <ele>28.100000</ele>
                <time>1970-01-01T00:50:36Z</time>
            </trkpt>
            <trkpt lon="101.411250" lat="14.172542">
                <ele>28.100000</ele>
                <time>1970-01-01T00:50:37Z</time>
            </trkpt>
            <trkpt lon="101.411279" lat="14.172531">
                <ele>28.000000</ele>
                <time>1970-01-01T00:50:38Z</time>
            </trkpt>
            <trkpt lon="101.411313" lat="14.172518">
                <ele>28.000000</ele>
                <time>1970-01-01T00:50:39Z</time>
            </trkpt>
            <trkpt lon="101.411342" lat="14.172507">
                <ele>28.000000</ele>
                <time>1970-01-01T00:50:40Z</time>
            </trkpt>
            <trkpt lon="101.411369" lat="14.172498">
                <ele>28.000000</ele>
                <time>1970-01-01T00:50:41Z</time>
            </trkpt>
            <trkpt lon="101.411398" lat="14.172488">
                <ele>27.900000</ele>
                <time>1970-01-01T00:50:42Z</time>
            </trkpt>
            <trkpt lon="101.411442" lat="14.172469">
                <ele>27.800000</ele>
                <time>1970-01-01T00:50:44Z</time>
            </trkpt>
            <trkpt lon="101.411469" lat="14.172450">
                <ele>27.600000</ele>
                <time>1970-01-01T00:50:46Z</time>
            </trkpt>
            <trkpt lon="101.411490" lat="14.172422">
                <ele>27.400000</ele>
                <time>1970-01-01T00:50:48Z</time>
            </trkpt>
            <trkpt lon="101.411490" lat="14.172381">
                <ele>27.200000</ele>
                <time>1970-01-01T00:50:50Z</time>
            </trkpt>
            <trkpt lon="101.411475" lat="14.172334">
                <ele>27.200000</ele>
                <time>1970-01-01T00:50:52Z</time>
            </trkpt>
            <trkpt lon="101.411471" lat="14.172302">
                <ele>27.200000</ele>
                <time>1970-01-01T00:50:53Z</time>
            </trkpt>
            <trkpt lon="101.411476" lat="14.172268">
                <ele>27.200000</ele>
                <time>1970-01-01T00:50:54Z</time>
            </trkpt>
            <trkpt lon="101.411486" lat="14.172235">
                <ele>27.300000</ele>
                <time>1970-01-01T00:50:55Z</time>
            </trkpt>
            <trkpt lon="101.411532" lat="14.172199">
                <ele>27.700000</ele>
                <time>1970-01-01T00:50:56Z</time>
            </trkpt>
            <trkpt lon="101.411556" lat="14.172170">
                <ele>27.900000</ele>
                <time>1970-01-01T00:50:57Z</time>
            </trkpt>
            <trkpt lon="101.411584" lat="14.172134">
                <ele>28.100000</ele>
                <time>1970-01-01T00:50:58Z</time>
            </trkpt>
            <trkpt lon="101.411614" lat="14.172105">
                <ele>28.400000</ele>
                <time>1970-01-01T00:50:59Z</time>
            </trkpt>
            <trkpt lon="101.411648" lat="14.172090">
                <ele>28.800000</ele>
                <time>1970-01-01T00:51:00Z</time>
            </trkpt>
            <trkpt lon="101.411682" lat="14.172069">
                <ele>29.000000</ele>
                <time>1970-01-01T00:51:01Z</time>
            </trkpt>
            <trkpt lon="101.411718" lat="14.172052">
                <ele>29.200000</ele>
                <time>1970-01-01T00:51:02Z</time>
            </trkpt>
            <trkpt lon="101.411773" lat="14.172023">
                <ele>29.900000</ele>
                <time>1970-01-01T00:51:04Z</time>
            </trkpt>
            <trkpt lon="101.411807" lat="14.172000">
                <ele>30.200000</ele>
                <time>1970-01-01T00:51:05Z</time>
            </trkpt>
            <trkpt lon="101.411829" lat="14.171968">
                <ele>30.400000</ele>
                <time>1970-01-01T00:51:06Z</time>
            </trkpt>
            <trkpt lon="101.411842" lat="14.171940">
                <ele>30.500000</ele>
                <time>1970-01-01T00:51:07Z</time>
            </trkpt>
            <trkpt lon="101.411852" lat="14.171911">
                <ele>30.600000</ele>
                <time>1970-01-01T00:51:08Z</time>
            </trkpt>
            <trkpt lon="101.411863" lat="14.171881">
                <ele>30.800000</ele>
                <time>1970-01-01T00:51:09Z</time>
            </trkpt>
            <trkpt lon="101.411875" lat="14.171851">
                <ele>31.000000</ele>
                <time>1970-01-01T00:51:10Z</time>
            </trkpt>
            <trkpt lon="101.411887" lat="14.171822">
                <ele>31.100000</ele>
                <time>1970-01-01T00:51:11Z</time>
            </trkpt>
            <trkpt lon="101.411900" lat="14.171793">
                <ele>31.200000</ele>
                <time>1970-01-01T00:51:12Z</time>
            </trkpt>
            <trkpt lon="101.411913" lat="14.171761">
                <ele>31.400000</ele>
                <time>1970-01-01T00:51:13Z</time>
            </trkpt>
            <trkpt lon="101.411926" lat="14.171729">
                <ele>31.500000</ele>
                <time>1970-01-01T00:51:14Z</time>
            </trkpt>
            <trkpt lon="101.411936" lat="14.171696">
                <ele>31.600000</ele>
                <time>1970-01-01T00:51:15Z</time>
            </trkpt>
            <trkpt lon="101.411944" lat="14.171662">
                <ele>31.700000</ele>
                <time>1970-01-01T00:51:16Z</time>
            </trkpt>
            <trkpt lon="101.411949" lat="14.171626">
                <ele>31.800000</ele>
                <time>1970-01-01T00:51:17Z</time>
            </trkpt>
            <trkpt lon="101.411954" lat="14.171591">
                <ele>31.800000</ele>
                <time>1970-01-01T00:51:18Z</time>
            </trkpt>
            <trkpt lon="101.411958" lat="14.171558">
                <ele>31.800000</ele>
                <time>1970-01-01T00:51:19Z</time>
            </trkpt>
            <trkpt lon="101.411959" lat="14.171526">
                <ele>31.900000</ele>
                <time>1970-01-01T00:51:20Z</time>
            </trkpt>
            <trkpt lon="101.411961" lat="14.171495">
                <ele>31.900000</ele>
                <time>1970-01-01T00:51:21Z</time>
            </trkpt>
            <trkpt lon="101.411962" lat="14.171465">
                <ele>31.900000</ele>
                <time>1970-01-01T00:51:22Z</time>
            </trkpt>
            <trkpt lon="101.411968" lat="14.171436">
                <ele>31.900000</ele>
                <time>1970-01-01T00:51:23Z</time>
            </trkpt>
            <trkpt lon="101.411980" lat="14.171410">
                <ele>32.000000</ele>
                <time>1970-01-01T00:51:24Z</time>
            </trkpt>
            <trkpt lon="101.412018" lat="14.171375">
                <ele>32.000000</ele>
                <time>1970-01-01T00:51:26Z</time>
            </trkpt>
            <trkpt lon="101.412048" lat="14.171364">
                <ele>32.000000</ele>
                <time>1970-01-01T00:51:27Z</time>
            </trkpt>
            <trkpt lon="101.412084" lat="14.171359">
                <ele>32.000000</ele>
                <time>1970-01-01T00:51:28Z</time>
            </trkpt>
            <trkpt lon="101.412122" lat="14.171355">
                <ele>32.000000</ele>
                <time>1970-01-01T00:51:29Z</time>
            </trkpt>
            <trkpt lon="101.412161" lat="14.171353">
                <ele>32.000000</ele>
                <time>1970-01-01T00:51:30Z</time>
            </trkpt>
            <trkpt lon="101.412199" lat="14.171348">
                <ele>32.000000</ele>
                <time>1970-01-01T00:51:31Z</time>
            </trkpt>
            <trkpt lon="101.412237" lat="14.171340">
                <ele>32.000000</ele>
                <time>1970-01-01T00:51:32Z</time>
            </trkpt>
            <trkpt lon="101.412268" lat="14.171334">
                <ele>32.000000</ele>
                <time>1970-01-01T00:51:33Z</time>
            </trkpt>
            <trkpt lon="101.412300" lat="14.171328">
                <ele>32.000000</ele>
                <time>1970-01-01T00:51:34Z</time>
            </trkpt>
            <trkpt lon="101.412336" lat="14.171321">
                <ele>31.800000</ele>
                <time>1970-01-01T00:51:35Z</time>
            </trkpt>
            <trkpt lon="101.412374" lat="14.171314">
                <ele>31.700000</ele>
                <time>1970-01-01T00:51:36Z</time>
            </trkpt>
            <trkpt lon="101.412410" lat="14.171308">
                <ele>31.500000</ele>
                <time>1970-01-01T00:51:37Z</time>
            </trkpt>
            <trkpt lon="101.412449" lat="14.171301">
                <ele>31.300000</ele>
                <time>1970-01-01T00:51:38Z</time>
            </trkpt>
            <trkpt lon="101.412490" lat="14.171292">
                <ele>31.100000</ele>
                <time>1970-01-01T00:51:39Z</time>
            </trkpt>
            <trkpt lon="101.412533" lat="14.171282">
                <ele>30.900000</ele>
                <time>1970-01-01T00:51:40Z</time>
            </trkpt>
            <trkpt lon="101.412575" lat="14.171273">
                <ele>30.700000</ele>
                <time>1970-01-01T00:51:41Z</time>
            </trkpt>
            <trkpt lon="101.412619" lat="14.171262">
                <ele>30.400000</ele>
                <time>1970-01-01T00:51:42Z</time>
            </trkpt>
            <trkpt lon="101.412674" lat="14.171253">
                <ele>30.100000</ele>
                <time>1970-01-01T00:51:43Z</time>
            </trkpt>
            <trkpt lon="101.412721" lat="14.171242">
                <ele>29.800000</ele>
                <time>1970-01-01T00:51:44Z</time>
            </trkpt>
            <trkpt lon="101.412774" lat="14.171230">
                <ele>29.500000</ele>
                <time>1970-01-01T00:51:45Z</time>
            </trkpt>
            <trkpt lon="101.412821" lat="14.171222">
                <ele>29.200000</ele>
                <time>1970-01-01T00:51:46Z</time>
            </trkpt>
            <trkpt lon="101.412875" lat="14.171212">
                <ele>28.900000</ele>
                <time>1970-01-01T00:51:47Z</time>
            </trkpt>
            <trkpt lon="101.412926" lat="14.171201">
                <ele>28.600000</ele>
                <time>1970-01-01T00:51:48Z</time>
            </trkpt>
            <trkpt lon="101.412982" lat="14.171184">
                <ele>28.300000</ele>
                <time>1970-01-01T00:51:49Z</time>
            </trkpt>
            <trkpt lon="101.413031" lat="14.171157">
                <ele>27.800000</ele>
                <time>1970-01-01T00:51:50Z</time>
            </trkpt>
            <trkpt lon="101.413081" lat="14.171135">
                <ele>27.300000</ele>
                <time>1970-01-01T00:51:51Z</time>
            </trkpt>
            <trkpt lon="101.413113" lat="14.171095">
                <ele>26.800000</ele>
                <time>1970-01-01T00:51:52Z</time>
            </trkpt>
            <trkpt lon="101.413171" lat="14.171056">
                <ele>26.000000</ele>
                <time>1970-01-01T00:51:53Z</time>
            </trkpt>
            <trkpt lon="101.413221" lat="14.171014">
                <ele>25.300000</ele>
                <time>1970-01-01T00:51:54Z</time>
            </trkpt>
            <trkpt lon="101.413272" lat="14.170986">
                <ele>24.800000</ele>
                <time>1970-01-01T00:51:55Z</time>
            </trkpt>
            <trkpt lon="101.413323" lat="14.170964">
                <ele>24.600000</ele>
                <time>1970-01-01T00:51:56Z</time>
            </trkpt>
            <trkpt lon="101.413368" lat="14.170958">
                <ele>24.600000</ele>
                <time>1970-01-01T00:51:57Z</time>
            </trkpt>
            <trkpt lon="101.413411" lat="14.170941">
                <ele>24.700000</ele>
                <time>1970-01-01T00:51:58Z</time>
            </trkpt>
            <trkpt lon="101.413446" lat="14.170927">
                <ele>24.800000</ele>
                <time>1970-01-01T00:51:59Z</time>
            </trkpt>
            <trkpt lon="101.413485" lat="14.170919">
                <ele>24.900000</ele>
                <time>1970-01-01T00:52:00Z</time>
            </trkpt>
            <trkpt lon="101.413523" lat="14.170906">
                <ele>25.000000</ele>
                <time>1970-01-01T00:52:01Z</time>
            </trkpt>
            <trkpt lon="101.413552" lat="14.170883">
                <ele>25.100000</ele>
                <time>1970-01-01T00:52:02Z</time>
            </trkpt>
            <trkpt lon="101.413577" lat="14.170868">
                <ele>25.300000</ele>
                <time>1970-01-01T00:52:03Z</time>
            </trkpt>
            <trkpt lon="101.413632" lat="14.170846">
                <ele>25.600000</ele>
                <time>1970-01-01T00:52:05Z</time>
            </trkpt>
            <trkpt lon="101.413664" lat="14.170837">
                <ele>25.700000</ele>
                <time>1970-01-01T00:52:06Z</time>
            </trkpt>
            <trkpt lon="101.413691" lat="14.170820">
                <ele>25.800000</ele>
                <time>1970-01-01T00:52:07Z</time>
            </trkpt>
            <trkpt lon="101.413735" lat="14.170804">
                <ele>25.900000</ele>
                <time>1970-01-01T00:52:08Z</time>
            </trkpt>
            <trkpt lon="101.413773" lat="14.170786">
                <ele>26.100000</ele>
                <time>1970-01-01T00:52:09Z</time>
            </trkpt>
            <trkpt lon="101.413813" lat="14.170762">
                <ele>26.300000</ele>
                <time>1970-01-01T00:52:10Z</time>
            </trkpt>
            <trkpt lon="101.413852" lat="14.170737">
                <ele>26.600000</ele>
                <time>1970-01-01T00:52:11Z</time>
            </trkpt>
            <trkpt lon="101.413883" lat="14.170710">
                <ele>26.700000</ele>
                <time>1970-01-01T00:52:12Z</time>
            </trkpt>
            <trkpt lon="101.413925" lat="14.170687">
                <ele>26.900000</ele>
                <time>1970-01-01T00:52:13Z</time>
            </trkpt>
            <trkpt lon="101.413960" lat="14.170665">
                <ele>27.000000</ele>
                <time>1970-01-01T00:52:14Z</time>
            </trkpt>
            <trkpt lon="101.413996" lat="14.170650">
                <ele>27.000000</ele>
                <time>1970-01-01T00:52:15Z</time>
            </trkpt>
            <trkpt lon="101.414028" lat="14.170640">
                <ele>27.000000</ele>
                <time>1970-01-01T00:52:16Z</time>
            </trkpt>
            <trkpt lon="101.414059" lat="14.170623">
                <ele>27.000000</ele>
                <time>1970-01-01T00:52:17Z</time>
            </trkpt>
            <trkpt lon="101.414085" lat="14.170610">
                <ele>27.000000</ele>
                <time>1970-01-01T00:52:18Z</time>
            </trkpt>
            <trkpt lon="101.414105" lat="14.170571">
                <ele>27.100000</ele>
                <time>1970-01-01T00:52:20Z</time>
            </trkpt>
            <trkpt lon="101.414137" lat="14.170550">
                <ele>27.100000</ele>
                <time>1970-01-01T00:52:22Z</time>
            </trkpt>
            <trkpt lon="101.414170" lat="14.170547">
                <ele>27.100000</ele>
                <time>1970-01-01T00:52:24Z</time>
            </trkpt>
            <trkpt lon="101.414185" lat="14.170519">
                <ele>27.000000</ele>
                <time>1970-01-01T00:52:43Z</time>
            </trkpt>
            <trkpt lon="101.414215" lat="14.170495">
                <ele>27.000000</ele>
                <time>1970-01-01T00:52:55Z</time>
            </trkpt>
            <trkpt lon="101.414231" lat="14.170469">
                <ele>27.000000</ele>
                <time>1970-01-01T00:52:58Z</time>
            </trkpt>
            <trkpt lon="101.414240" lat="14.170440">
                <ele>27.000000</ele>
                <time>1970-01-01T00:53:00Z</time>
            </trkpt>
            <trkpt lon="101.414243" lat="14.170403">
                <ele>27.000000</ele>
                <time>1970-01-01T00:53:02Z</time>
            </trkpt>
            <trkpt lon="101.414231" lat="14.170370">
                <ele>27.000000</ele>
                <time>1970-01-01T00:53:04Z</time>
            </trkpt>
            <trkpt lon="101.414213" lat="14.170344">
                <ele>27.000000</ele>
                <time>1970-01-01T00:53:06Z</time>
            </trkpt>
            <trkpt lon="101.414198" lat="14.170306">
                <ele>27.000000</ele>
                <time>1970-01-01T00:53:08Z</time>
            </trkpt>
            <trkpt lon="101.414186" lat="14.170263">
                <ele>27.200000</ele>
                <time>1970-01-01T00:53:10Z</time>
            </trkpt>
            <trkpt lon="101.414178" lat="14.170223">
                <ele>27.200000</ele>
                <time>1970-01-01T00:53:13Z</time>
            </trkpt>
            <trkpt lon="101.414181" lat="14.170193">
                <ele>27.200000</ele>
                <time>1970-01-01T00:53:16Z</time>
            </trkpt>
            <trkpt lon="101.414180" lat="14.170154">
                <ele>27.200000</ele>
                <time>1970-01-01T00:53:19Z</time>
            </trkpt>
            <trkpt lon="101.414185" lat="14.170124">
                <ele>27.200000</ele>
                <time>1970-01-01T00:53:22Z</time>
            </trkpt>
            <trkpt lon="101.414173" lat="14.170096">
                <ele>27.200000</ele>
                <time>1970-01-01T00:53:28Z</time>
            </trkpt>
            <trkpt lon="101.414145" lat="14.170085">
                <ele>27.500000</ele>
                <time>1970-01-01T00:53:33Z</time>
            </trkpt>
            <trkpt lon="101.414132" lat="14.170047">
                <ele>27.600000</ele>
                <time>1970-01-01T00:53:36Z</time>
            </trkpt>
            <trkpt lon="101.414138" lat="14.170017">
                <ele>27.700000</ele>
                <time>1970-01-01T00:53:39Z</time>
            </trkpt>
            <trkpt lon="101.414147" lat="14.169987">
                <ele>27.900000</ele>
                <time>1970-01-01T00:53:43Z</time>
            </trkpt>
            <trkpt lon="101.414147" lat="14.169955">
                <ele>27.900000</ele>
                <time>1970-01-01T00:53:50Z</time>
            </trkpt>
            <trkpt lon="101.414155" lat="14.169926">
                <ele>28.100000</ele>
                <time>1970-01-01T00:53:56Z</time>
            </trkpt>
            <trkpt lon="101.414157" lat="14.169891">
                <ele>28.500000</ele>
                <time>1970-01-01T00:53:59Z</time>
            </trkpt>
            <trkpt lon="101.414162" lat="14.169861">
                <ele>29.000000</ele>
                <time>1970-01-01T00:54:02Z</time>
            </trkpt>
            <trkpt lon="101.414192" lat="14.169837">
                <ele>29.000000</ele>
                <time>1970-01-01T00:54:06Z</time>
            </trkpt>
            <trkpt lon="101.414224" lat="14.169829">
                <ele>29.100000</ele>
                <time>1970-01-01T00:54:30Z</time>
            </trkpt>
            <trkpt lon="101.414253" lat="14.169823">
                <ele>29.600000</ele>
                <time>1970-01-01T00:54:32Z</time>
            </trkpt>
            <trkpt lon="101.414283" lat="14.169811">
                <ele>29.600000</ele>
                <time>1970-01-01T00:54:34Z</time>
            </trkpt>
            <trkpt lon="101.414323" lat="14.169790">
                <ele>29.600000</ele>
                <time>1970-01-01T00:54:36Z</time>
            </trkpt>
            <trkpt lon="101.414362" lat="14.169773">
                <ele>30.000000</ele>
                <time>1970-01-01T00:54:38Z</time>
            </trkpt>
            <trkpt lon="101.414408" lat="14.169756">
                <ele>30.000000</ele>
                <time>1970-01-01T00:54:40Z</time>
            </trkpt>
            <trkpt lon="101.414453" lat="14.169744">
                <ele>30.000000</ele>
                <time>1970-01-01T00:54:42Z</time>
            </trkpt>
            <trkpt lon="101.414486" lat="14.169728">
                <ele>30.100000</ele>
                <time>1970-01-01T00:54:44Z</time>
            </trkpt>
            <trkpt lon="101.414509" lat="14.169709">
                <ele>30.000000</ele>
                <time>1970-01-01T00:54:46Z</time>
            </trkpt>
            <trkpt lon="101.414493" lat="14.169664">
                <ele>30.200000</ele>
                <time>1970-01-01T00:54:49Z</time>
            </trkpt>
            <trkpt lon="101.414477" lat="14.169641">
                <ele>30.300000</ele>
                <time>1970-01-01T00:54:50Z</time>
            </trkpt>
            <trkpt lon="101.414458" lat="14.169616">
                <ele>30.400000</ele>
                <time>1970-01-01T00:54:51Z</time>
            </trkpt>
            <trkpt lon="101.414439" lat="14.169591">
                <ele>30.600000</ele>
                <time>1970-01-01T00:54:52Z</time>
            </trkpt>
            <trkpt lon="101.414420" lat="14.169567">
                <ele>30.600000</ele>
                <time>1970-01-01T00:54:53Z</time>
            </trkpt>
            <trkpt lon="101.414397" lat="14.169539">
                <ele>30.900000</ele>
                <time>1970-01-01T00:54:54Z</time>
            </trkpt>
            <trkpt lon="101.414381" lat="14.169509">
                <ele>30.900000</ele>
                <time>1970-01-01T00:54:55Z</time>
            </trkpt>
            <trkpt lon="101.414356" lat="14.169477">
                <ele>31.100000</ele>
                <time>1970-01-01T00:54:56Z</time>
            </trkpt>
            <trkpt lon="101.414331" lat="14.169455">
                <ele>31.100000</ele>
                <time>1970-01-01T00:54:57Z</time>
            </trkpt>
            <trkpt lon="101.414306" lat="14.169423">
                <ele>31.400000</ele>
                <time>1970-01-01T00:54:58Z</time>
            </trkpt>
            <trkpt lon="101.414282" lat="14.169402">
                <ele>31.700000</ele>
                <time>1970-01-01T00:54:59Z</time>
            </trkpt>
            <trkpt lon="101.414260" lat="14.169370">
                <ele>31.900000</ele>
                <time>1970-01-01T00:55:00Z</time>
            </trkpt>
            <trkpt lon="101.414236" lat="14.169339">
                <ele>32.400000</ele>
                <time>1970-01-01T00:55:01Z</time>
            </trkpt>
            <trkpt lon="101.414208" lat="14.169310">
                <ele>32.700000</ele>
                <time>1970-01-01T00:55:02Z</time>
            </trkpt>
            <trkpt lon="101.414188" lat="14.169283">
                <ele>33.000000</ele>
                <time>1970-01-01T00:55:03Z</time>
            </trkpt>
            <trkpt lon="101.414165" lat="14.169265">
                <ele>33.000000</ele>
                <time>1970-01-01T00:55:04Z</time>
            </trkpt>
            <trkpt lon="101.414146" lat="14.169242">
                <ele>33.000000</ele>
                <time>1970-01-01T00:55:05Z</time>
            </trkpt>
            <trkpt lon="101.414127" lat="14.169218">
                <ele>33.200000</ele>
                <time>1970-01-01T00:55:06Z</time>
            </trkpt>
            <trkpt lon="101.414111" lat="14.169193">
                <ele>33.500000</ele>
                <time>1970-01-01T00:55:07Z</time>
            </trkpt>
            <trkpt lon="101.414094" lat="14.169167">
                <ele>33.500000</ele>
                <time>1970-01-01T00:55:08Z</time>
            </trkpt>
            <trkpt lon="101.414075" lat="14.169140">
                <ele>33.700000</ele>
                <time>1970-01-01T00:55:09Z</time>
            </trkpt>
            <trkpt lon="101.414057" lat="14.169114">
                <ele>33.900000</ele>
                <time>1970-01-01T00:55:10Z</time>
            </trkpt>
            <trkpt lon="101.414045" lat="14.169085">
                <ele>33.900000</ele>
                <time>1970-01-01T00:55:11Z</time>
            </trkpt>
            <trkpt lon="101.414046" lat="14.169056">
                <ele>33.900000</ele>
                <time>1970-01-01T00:55:12Z</time>
            </trkpt>
            <trkpt lon="101.414059" lat="14.169031">
                <ele>33.900000</ele>
                <time>1970-01-01T00:55:13Z</time>
            </trkpt>
            <trkpt lon="101.414078" lat="14.169011">
                <ele>33.900000</ele>
                <time>1970-01-01T00:55:14Z</time>
            </trkpt>
            <trkpt lon="101.414122" lat="14.168986">
                <ele>33.900000</ele>
                <time>1970-01-01T00:55:16Z</time>
            </trkpt>
            <trkpt lon="101.414172" lat="14.168977">
                <ele>33.900000</ele>
                <time>1970-01-01T00:55:18Z</time>
            </trkpt>
            <trkpt lon="101.414226" lat="14.168966">
                <ele>33.800000</ele>
                <time>1970-01-01T00:55:20Z</time>
            </trkpt>
            <trkpt lon="101.414254" lat="14.168955">
                <ele>33.300000</ele>
                <time>1970-01-01T00:55:21Z</time>
            </trkpt>
            <trkpt lon="101.414282" lat="14.168945">
                <ele>32.800000</ele>
                <time>1970-01-01T00:55:22Z</time>
            </trkpt>
            <trkpt lon="101.414310" lat="14.168930">
                <ele>32.800000</ele>
                <time>1970-01-01T00:55:23Z</time>
            </trkpt>
            <trkpt lon="101.414335" lat="14.168917">
                <ele>32.300000</ele>
                <time>1970-01-01T00:55:24Z</time>
            </trkpt>
            <trkpt lon="101.414383" lat="14.168891">
                <ele>31.800000</ele>
                <time>1970-01-01T00:55:26Z</time>
            </trkpt>
            <trkpt lon="101.414408" lat="14.168875">
                <ele>31.800000</ele>
                <time>1970-01-01T00:55:27Z</time>
            </trkpt>
            <trkpt lon="101.414435" lat="14.168860">
                <ele>31.500000</ele>
                <time>1970-01-01T00:55:28Z</time>
            </trkpt>
            <trkpt lon="101.414465" lat="14.168852">
                <ele>31.100000</ele>
                <time>1970-01-01T00:55:29Z</time>
            </trkpt>
            <trkpt lon="101.414497" lat="14.168853">
                <ele>30.700000</ele>
                <time>1970-01-01T00:55:30Z</time>
            </trkpt>
            <trkpt lon="101.414528" lat="14.168867">
                <ele>30.700000</ele>
                <time>1970-01-01T00:55:31Z</time>
            </trkpt>
            <trkpt lon="101.414553" lat="14.168888">
                <ele>30.200000</ele>
                <time>1970-01-01T00:55:32Z</time>
            </trkpt>
            <trkpt lon="101.414569" lat="14.168913">
                <ele>29.900000</ele>
                <time>1970-01-01T00:55:33Z</time>
            </trkpt>
            <trkpt lon="101.414583" lat="14.168940">
                <ele>29.900000</ele>
                <time>1970-01-01T00:55:34Z</time>
            </trkpt>
            <trkpt lon="101.414597" lat="14.168964">
                <ele>29.800000</ele>
                <time>1970-01-01T00:55:35Z</time>
            </trkpt>
            <trkpt lon="101.414615" lat="14.168991">
                <ele>29.800000</ele>
                <time>1970-01-01T00:55:37Z</time>
            </trkpt>
            <trkpt lon="101.414641" lat="14.169013">
                <ele>29.600000</ele>
                <time>1970-01-01T00:55:46Z</time>
            </trkpt>
            <trkpt lon="101.414664" lat="14.168995">
                <ele>29.600000</ele>
                <time>1970-01-01T00:55:49Z</time>
            </trkpt>
            <trkpt lon="101.414691" lat="14.168973">
                <ele>29.700000</ele>
                <time>1970-01-01T00:55:51Z</time>
            </trkpt>
            <trkpt lon="101.414734" lat="14.168978">
                <ele>29.600000</ele>
                <time>1970-01-01T00:55:55Z</time>
            </trkpt>
            <trkpt lon="101.414766" lat="14.168982">
                <ele>29.400000</ele>
                <time>1970-01-01T00:55:57Z</time>
            </trkpt>
            <trkpt lon="101.414806" lat="14.168990">
                <ele>29.100000</ele>
                <time>1970-01-01T00:55:59Z</time>
            </trkpt>
            <trkpt lon="101.414841" lat="14.168991">
                <ele>28.900000</ele>
                <time>1970-01-01T00:56:01Z</time>
            </trkpt>
            <trkpt lon="101.414868" lat="14.168976">
                <ele>28.900000</ele>
                <time>1970-01-01T00:56:03Z</time>
            </trkpt>
            <trkpt lon="101.414900" lat="14.168967">
                <ele>28.800000</ele>
                <time>1970-01-01T00:56:06Z</time>
            </trkpt>
            <trkpt lon="101.414925" lat="14.168984">
                <ele>28.800000</ele>
                <time>1970-01-01T00:56:08Z</time>
            </trkpt>
            <trkpt lon="101.414953" lat="14.169007">
                <ele>28.700000</ele>
                <time>1970-01-01T00:56:10Z</time>
            </trkpt>
            <trkpt lon="101.414992" lat="14.169045">
                <ele>28.300000</ele>
                <time>1970-01-01T00:56:12Z</time>
            </trkpt>
            <trkpt lon="101.415013" lat="14.169067">
                <ele>28.100000</ele>
                <time>1970-01-01T00:56:13Z</time>
            </trkpt>
            <trkpt lon="101.415032" lat="14.169088">
                <ele>27.900000</ele>
                <time>1970-01-01T00:56:14Z</time>
            </trkpt>
            <trkpt lon="101.415067" lat="14.169126">
                <ele>27.600000</ele>
                <time>1970-01-01T00:56:16Z</time>
            </trkpt>
            <trkpt lon="101.415086" lat="14.169147">
                <ele>27.300000</ele>
                <time>1970-01-01T00:56:17Z</time>
            </trkpt>
            <trkpt lon="101.415104" lat="14.169169">
                <ele>27.000000</ele>
                <time>1970-01-01T00:56:18Z</time>
            </trkpt>
            <trkpt lon="101.415122" lat="14.169194">
                <ele>26.800000</ele>
                <time>1970-01-01T00:56:19Z</time>
            </trkpt>
            <trkpt lon="101.415145" lat="14.169224">
                <ele>26.700000</ele>
                <time>1970-01-01T00:56:20Z</time>
            </trkpt>
            <trkpt lon="101.415164" lat="14.169252">
                <ele>26.600000</ele>
                <time>1970-01-01T00:56:21Z</time>
            </trkpt>
            <trkpt lon="101.415184" lat="14.169277">
                <ele>26.600000</ele>
                <time>1970-01-01T00:56:22Z</time>
            </trkpt>
            <trkpt lon="101.415216" lat="14.169299">
                <ele>26.600000</ele>
                <time>1970-01-01T00:56:23Z</time>
            </trkpt>
            <trkpt lon="101.415261" lat="14.169311">
                <ele>26.800000</ele>
                <time>1970-01-01T00:56:24Z</time>
            </trkpt>
            <trkpt lon="101.415313" lat="14.169307">
                <ele>27.000000</ele>
                <time>1970-01-01T00:56:25Z</time>
            </trkpt>
            <trkpt lon="101.415366" lat="14.169296">
                <ele>27.000000</ele>
                <time>1970-01-01T00:56:26Z</time>
            </trkpt>
            <trkpt lon="101.415445" lat="14.169244">
                <ele>27.000000</ele>
                <time>1970-01-01T00:56:27Z</time>
            </trkpt>
            <trkpt lon="101.415499" lat="14.169239">
                <ele>27.000000</ele>
                <time>1970-01-01T00:56:28Z</time>
            </trkpt>
            <trkpt lon="101.415543" lat="14.169210">
                <ele>27.000000</ele>
                <time>1970-01-01T00:56:29Z</time>
            </trkpt>
            <trkpt lon="101.415601" lat="14.169191">
                <ele>27.000000</ele>
                <time>1970-01-01T00:56:31Z</time>
            </trkpt>
            <trkpt lon="101.415632" lat="14.169165">
                <ele>27.000000</ele>
                <time>1970-01-01T00:56:32Z</time>
            </trkpt>
            <trkpt lon="101.415684" lat="14.169144">
                <ele>27.100000</ele>
                <time>1970-01-01T00:56:34Z</time>
            </trkpt>
            <trkpt lon="101.415736" lat="14.169115">
                <ele>27.200000</ele>
                <time>1970-01-01T00:56:36Z</time>
            </trkpt>
            <trkpt lon="101.415776" lat="14.169096">
                <ele>27.300000</ele>
                <time>1970-01-01T00:56:38Z</time>
            </trkpt>
            <trkpt lon="101.415806" lat="14.169084">
                <ele>27.500000</ele>
                <time>1970-01-01T00:56:39Z</time>
            </trkpt>
            <trkpt lon="101.415836" lat="14.169068">
                <ele>27.700000</ele>
                <time>1970-01-01T00:56:40Z</time>
            </trkpt>
            <trkpt lon="101.415863" lat="14.169052">
                <ele>27.800000</ele>
                <time>1970-01-01T00:56:41Z</time>
            </trkpt>
            <trkpt lon="101.415892" lat="14.169034">
                <ele>27.900000</ele>
                <time>1970-01-01T00:56:42Z</time>
            </trkpt>
            <trkpt lon="101.415923" lat="14.169013">
                <ele>28.000000</ele>
                <time>1970-01-01T00:56:43Z</time>
            </trkpt>
            <trkpt lon="101.415951" lat="14.168992">
                <ele>28.000000</ele>
                <time>1970-01-01T00:56:44Z</time>
            </trkpt>
            <trkpt lon="101.415976" lat="14.168969">
                <ele>28.000000</ele>
                <time>1970-01-01T00:56:45Z</time>
            </trkpt>
            <trkpt lon="101.416000" lat="14.168940">
                <ele>28.000000</ele>
                <time>1970-01-01T00:56:46Z</time>
            </trkpt>
            <trkpt lon="101.416026" lat="14.168909">
                <ele>27.900000</ele>
                <time>1970-01-01T00:56:47Z</time>
            </trkpt>
            <trkpt lon="101.416053" lat="14.168877">
                <ele>27.800000</ele>
                <time>1970-01-01T00:56:48Z</time>
            </trkpt>
            <trkpt lon="101.416085" lat="14.168848">
                <ele>27.700000</ele>
                <time>1970-01-01T00:56:49Z</time>
            </trkpt>
            <trkpt lon="101.416121" lat="14.168821">
                <ele>27.600000</ele>
                <time>1970-01-01T00:56:50Z</time>
            </trkpt>
            <trkpt lon="101.416159" lat="14.168796">
                <ele>27.400000</ele>
                <time>1970-01-01T00:56:51Z</time>
            </trkpt>
            <trkpt lon="101.416210" lat="14.168750">
                <ele>27.300000</ele>
                <time>1970-01-01T00:56:52Z</time>
            </trkpt>
            <trkpt lon="101.416246" lat="14.168724">
                <ele>27.200000</ele>
                <time>1970-01-01T00:56:53Z</time>
            </trkpt>
            <trkpt lon="101.416287" lat="14.168701">
                <ele>27.100000</ele>
                <time>1970-01-01T00:56:54Z</time>
            </trkpt>
            <trkpt lon="101.416346" lat="14.168661">
                <ele>27.100000</ele>
                <time>1970-01-01T00:56:56Z</time>
            </trkpt>
            <trkpt lon="101.416384" lat="14.168633">
                <ele>26.900000</ele>
                <time>1970-01-01T00:56:57Z</time>
            </trkpt>
            <trkpt lon="101.416421" lat="14.168612">
                <ele>26.700000</ele>
                <time>1970-01-01T00:56:58Z</time>
            </trkpt>
            <trkpt lon="101.416460" lat="14.168589">
                <ele>26.500000</ele>
                <time>1970-01-01T00:56:59Z</time>
            </trkpt>
            <trkpt lon="101.416507" lat="14.168563">
                <ele>26.200000</ele>
                <time>1970-01-01T00:57:00Z</time>
            </trkpt>
            <trkpt lon="101.416545" lat="14.168554">
                <ele>26.100000</ele>
                <time>1970-01-01T00:57:01Z</time>
            </trkpt>
            <trkpt lon="101.416579" lat="14.168537">
                <ele>26.000000</ele>
                <time>1970-01-01T00:57:02Z</time>
            </trkpt>
            <trkpt lon="101.416610" lat="14.168523">
                <ele>26.000000</ele>
                <time>1970-01-01T00:57:03Z</time>
            </trkpt>
            <trkpt lon="101.416641" lat="14.168507">
                <ele>26.000000</ele>
                <time>1970-01-01T00:57:04Z</time>
            </trkpt>
            <trkpt lon="101.416672" lat="14.168493">
                <ele>26.000000</ele>
                <time>1970-01-01T00:57:05Z</time>
            </trkpt>
            <trkpt lon="101.416705" lat="14.168472">
                <ele>26.000000</ele>
                <time>1970-01-01T00:57:06Z</time>
            </trkpt>
            <trkpt lon="101.416733" lat="14.168449">
                <ele>26.000000</ele>
                <time>1970-01-01T00:57:07Z</time>
            </trkpt>
            <trkpt lon="101.416767" lat="14.168416">
                <ele>25.700000</ele>
                <time>1970-01-01T00:57:09Z</time>
            </trkpt>
            <trkpt lon="101.416804" lat="14.168395">
                <ele>25.500000</ele>
                <time>1970-01-01T00:57:11Z</time>
            </trkpt>
            <trkpt lon="101.416832" lat="14.168386">
                <ele>25.400000</ele>
                <time>1970-01-01T00:57:12Z</time>
            </trkpt>
            <trkpt lon="101.416879" lat="14.168371">
                <ele>25.100000</ele>
                <time>1970-01-01T00:57:14Z</time>
            </trkpt>
            <trkpt lon="101.416903" lat="14.168356">
                <ele>25.000000</ele>
                <time>1970-01-01T00:57:15Z</time>
            </trkpt>
            <trkpt lon="101.416933" lat="14.168326">
                <ele>24.900000</ele>
                <time>1970-01-01T00:57:17Z</time>
            </trkpt>
            <trkpt lon="101.416973" lat="14.168290">
                <ele>24.700000</ele>
                <time>1970-01-01T00:57:19Z</time>
            </trkpt>
            <trkpt lon="101.417001" lat="14.168269">
                <ele>24.500000</ele>
                <time>1970-01-01T00:57:20Z</time>
            </trkpt>
            <trkpt lon="101.417029" lat="14.168248">
                <ele>24.300000</ele>
                <time>1970-01-01T00:57:21Z</time>
            </trkpt>
            <trkpt lon="101.417054" lat="14.168222">
                <ele>24.200000</ele>
                <time>1970-01-01T00:57:22Z</time>
            </trkpt>
            <trkpt lon="101.417074" lat="14.168193">
                <ele>24.100000</ele>
                <time>1970-01-01T00:57:23Z</time>
            </trkpt>
            <trkpt lon="101.417090" lat="14.168162">
                <ele>24.000000</ele>
                <time>1970-01-01T00:57:24Z</time>
            </trkpt>
            <trkpt lon="101.417106" lat="14.168132">
                <ele>23.800000</ele>
                <time>1970-01-01T00:57:25Z</time>
            </trkpt>
            <trkpt lon="101.417127" lat="14.168106">
                <ele>23.600000</ele>
                <time>1970-01-01T00:57:26Z</time>
            </trkpt>
            <trkpt lon="101.417157" lat="14.168084">
                <ele>23.400000</ele>
                <time>1970-01-01T00:57:27Z</time>
            </trkpt>
            <trkpt lon="101.417191" lat="14.168064">
                <ele>23.200000</ele>
                <time>1970-01-01T00:57:28Z</time>
            </trkpt>
            <trkpt lon="101.417219" lat="14.168044">
                <ele>23.000000</ele>
                <time>1970-01-01T00:57:29Z</time>
            </trkpt>
            <trkpt lon="101.417259" lat="14.168004">
                <ele>22.900000</ele>
                <time>1970-01-01T00:57:31Z</time>
            </trkpt>
            <trkpt lon="101.417290" lat="14.167982">
                <ele>22.700000</ele>
                <time>1970-01-01T00:57:32Z</time>
            </trkpt>
            <trkpt lon="101.417326" lat="14.167959">
                <ele>22.500000</ele>
                <time>1970-01-01T00:57:33Z</time>
            </trkpt>
            <trkpt lon="101.417356" lat="14.167940">
                <ele>22.300000</ele>
                <time>1970-01-01T00:57:34Z</time>
            </trkpt>
            <trkpt lon="101.417384" lat="14.167921">
                <ele>22.200000</ele>
                <time>1970-01-01T00:57:35Z</time>
            </trkpt>
            <trkpt lon="101.417410" lat="14.167898">
                <ele>22.100000</ele>
                <time>1970-01-01T00:57:36Z</time>
            </trkpt>
            <trkpt lon="101.417433" lat="14.167879">
                <ele>22.000000</ele>
                <time>1970-01-01T00:57:37Z</time>
            </trkpt>
            <trkpt lon="101.417482" lat="14.167843">
                <ele>22.000000</ele>
                <time>1970-01-01T00:57:39Z</time>
            </trkpt>
            <trkpt lon="101.417513" lat="14.167821">
                <ele>22.000000</ele>
                <time>1970-01-01T00:57:40Z</time>
            </trkpt>
            <trkpt lon="101.417546" lat="14.167798">
                <ele>22.000000</ele>
                <time>1970-01-01T00:57:41Z</time>
            </trkpt>
            <trkpt lon="101.417577" lat="14.167775">
                <ele>22.000000</ele>
                <time>1970-01-01T00:57:42Z</time>
            </trkpt>
            <trkpt lon="101.417603" lat="14.167757">
                <ele>22.200000</ele>
                <time>1970-01-01T00:57:43Z</time>
            </trkpt>
            <trkpt lon="101.417630" lat="14.167741">
                <ele>22.400000</ele>
                <time>1970-01-01T00:57:44Z</time>
            </trkpt>
            <trkpt lon="101.417661" lat="14.167725">
                <ele>22.600000</ele>
                <time>1970-01-01T00:57:45Z</time>
            </trkpt>
            <trkpt lon="101.417691" lat="14.167706">
                <ele>22.900000</ele>
                <time>1970-01-01T00:57:46Z</time>
            </trkpt>
            <trkpt lon="101.417718" lat="14.167684">
                <ele>23.200000</ele>
                <time>1970-01-01T00:57:47Z</time>
            </trkpt>
            <trkpt lon="101.417742" lat="14.167660">
                <ele>23.400000</ele>
                <time>1970-01-01T00:57:48Z</time>
            </trkpt>
            <trkpt lon="101.417763" lat="14.167638">
                <ele>23.500000</ele>
                <time>1970-01-01T00:57:49Z</time>
            </trkpt>
            <trkpt lon="101.417798" lat="14.167608">
                <ele>23.700000</ele>
                <time>1970-01-01T00:57:51Z</time>
            </trkpt>
            <trkpt lon="101.417832" lat="14.167592">
                <ele>23.800000</ele>
                <time>1970-01-01T00:57:53Z</time>
            </trkpt>
            <trkpt lon="101.417862" lat="14.167603">
                <ele>23.900000</ele>
                <time>1970-01-01T00:57:56Z</time>
            </trkpt>
            <trkpt lon="101.417890" lat="14.167608">
                <ele>23.900000</ele>
                <time>1970-01-01T00:57:59Z</time>
            </trkpt>
            <trkpt lon="101.417918" lat="14.167582">
                <ele>23.900000</ele>
                <time>1970-01-01T00:58:01Z</time>
            </trkpt>
            <trkpt lon="101.417975" lat="14.167564">
                <ele>23.900000</ele>
                <time>1970-01-01T00:58:03Z</time>
            </trkpt>
            <trkpt lon="101.418012" lat="14.167567">
                <ele>24.000000</ele>
                <time>1970-01-01T00:58:04Z</time>
            </trkpt>
            <trkpt lon="101.418052" lat="14.167573">
                <ele>24.200000</ele>
                <time>1970-01-01T00:58:05Z</time>
            </trkpt>
            <trkpt lon="101.418093" lat="14.167576">
                <ele>24.400000</ele>
                <time>1970-01-01T00:58:06Z</time>
            </trkpt>
            <trkpt lon="101.418130" lat="14.167569">
                <ele>24.600000</ele>
                <time>1970-01-01T00:58:07Z</time>
            </trkpt>
            <trkpt lon="101.418159" lat="14.167547">
                <ele>24.900000</ele>
                <time>1970-01-01T00:58:08Z</time>
            </trkpt>
            <trkpt lon="101.418180" lat="14.167512">
                <ele>25.000000</ele>
                <time>1970-01-01T00:58:09Z</time>
            </trkpt>
            <trkpt lon="101.418192" lat="14.167472">
                <ele>25.000000</ele>
                <time>1970-01-01T00:58:10Z</time>
            </trkpt>
            <trkpt lon="101.418200" lat="14.167431">
                <ele>25.100000</ele>
                <time>1970-01-01T00:58:11Z</time>
            </trkpt>
            <trkpt lon="101.418210" lat="14.167391">
                <ele>25.100000</ele>
                <time>1970-01-01T00:58:12Z</time>
            </trkpt>
            <trkpt lon="101.418219" lat="14.167355">
                <ele>25.200000</ele>
                <time>1970-01-01T00:58:13Z</time>
            </trkpt>
            <trkpt lon="101.418227" lat="14.167317">
                <ele>25.200000</ele>
                <time>1970-01-01T00:58:14Z</time>
            </trkpt>
            <trkpt lon="101.418234" lat="14.167278">
                <ele>25.300000</ele>
                <time>1970-01-01T00:58:15Z</time>
            </trkpt>
            <trkpt lon="101.418241" lat="14.167240">
                <ele>25.400000</ele>
                <time>1970-01-01T00:58:16Z</time>
            </trkpt>
            <trkpt lon="101.418247" lat="14.167201">
                <ele>25.400000</ele>
                <time>1970-01-01T00:58:17Z</time>
            </trkpt>
            <trkpt lon="101.418254" lat="14.167160">
                <ele>25.500000</ele>
                <time>1970-01-01T00:58:18Z</time>
            </trkpt>
            <trkpt lon="101.418260" lat="14.167118">
                <ele>25.600000</ele>
                <time>1970-01-01T00:58:19Z</time>
            </trkpt>
            <trkpt lon="101.418265" lat="14.167075">
                <ele>25.600000</ele>
                <time>1970-01-01T00:58:20Z</time>
            </trkpt>
            <trkpt lon="101.418269" lat="14.167032">
                <ele>25.700000</ele>
                <time>1970-01-01T00:58:21Z</time>
            </trkpt>
            <trkpt lon="101.418274" lat="14.166990">
                <ele>25.700000</ele>
                <time>1970-01-01T00:58:22Z</time>
            </trkpt>
            <trkpt lon="101.418281" lat="14.166948">
                <ele>25.800000</ele>
                <time>1970-01-01T00:58:23Z</time>
            </trkpt>
            <trkpt lon="101.418288" lat="14.166907">
                <ele>25.800000</ele>
                <time>1970-01-01T00:58:24Z</time>
            </trkpt>
            <trkpt lon="101.418297" lat="14.166862">
                <ele>25.800000</ele>
                <time>1970-01-01T00:58:25Z</time>
            </trkpt>
            <trkpt lon="101.418308" lat="14.166811">
                <ele>25.800000</ele>
                <time>1970-01-01T00:58:26Z</time>
            </trkpt>
            <trkpt lon="101.418311" lat="14.166761">
                <ele>25.800000</ele>
                <time>1970-01-01T00:58:27Z</time>
            </trkpt>
            <trkpt lon="101.418308" lat="14.166722">
                <ele>25.900000</ele>
                <time>1970-01-01T00:58:28Z</time>
            </trkpt>
            <trkpt lon="101.418315" lat="14.166672">
                <ele>25.900000</ele>
                <time>1970-01-01T00:58:29Z</time>
            </trkpt>
            <trkpt lon="101.418313" lat="14.166628">
                <ele>25.900000</ele>
                <time>1970-01-01T00:58:30Z</time>
            </trkpt>
            <trkpt lon="101.418318" lat="14.166579">
                <ele>26.000000</ele>
                <time>1970-01-01T00:58:31Z</time>
            </trkpt>
            <trkpt lon="101.418321" lat="14.166533">
                <ele>26.100000</ele>
                <time>1970-01-01T00:58:32Z</time>
            </trkpt>
            <trkpt lon="101.418331" lat="14.166487">
                <ele>26.100000</ele>
                <time>1970-01-01T00:58:33Z</time>
            </trkpt>
            <trkpt lon="101.418339" lat="14.166440">
                <ele>26.200000</ele>
                <time>1970-01-01T00:58:34Z</time>
            </trkpt>
            <trkpt lon="101.418331" lat="14.166393">
                <ele>26.200000</ele>
                <time>1970-01-01T00:58:35Z</time>
            </trkpt>
            <trkpt lon="101.418334" lat="14.166343">
                <ele>26.300000</ele>
                <time>1970-01-01T00:58:36Z</time>
            </trkpt>
            <trkpt lon="101.418321" lat="14.166294">
                <ele>26.300000</ele>
                <time>1970-01-01T00:58:37Z</time>
            </trkpt>
            <trkpt lon="101.418335" lat="14.166248">
                <ele>26.400000</ele>
                <time>1970-01-01T00:58:38Z</time>
            </trkpt>
            <trkpt lon="101.418342" lat="14.166204">
                <ele>26.400000</ele>
                <time>1970-01-01T00:58:39Z</time>
            </trkpt>
            <trkpt lon="101.418355" lat="14.166154">
                <ele>26.600000</ele>
                <time>1970-01-01T00:58:40Z</time>
            </trkpt>
            <trkpt lon="101.418358" lat="14.166104">
                <ele>26.700000</ele>
                <time>1970-01-01T00:58:41Z</time>
            </trkpt>
            <trkpt lon="101.418362" lat="14.166053">
                <ele>26.900000</ele>
                <time>1970-01-01T00:58:42Z</time>
            </trkpt>
            <trkpt lon="101.418362" lat="14.166000">
                <ele>27.100000</ele>
                <time>1970-01-01T00:58:43Z</time>
            </trkpt>
            <trkpt lon="101.418368" lat="14.165946">
                <ele>27.200000</ele>
                <time>1970-01-01T00:58:44Z</time>
            </trkpt>
            <trkpt lon="101.418372" lat="14.165894">
                <ele>27.400000</ele>
                <time>1970-01-01T00:58:45Z</time>
            </trkpt>
            <trkpt lon="101.418376" lat="14.165839">
                <ele>27.600000</ele>
                <time>1970-01-01T00:58:46Z</time>
            </trkpt>
            <trkpt lon="101.418385" lat="14.165785">
                <ele>27.800000</ele>
                <time>1970-01-01T00:58:47Z</time>
            </trkpt>
            <trkpt lon="101.418388" lat="14.165729">
                <ele>27.900000</ele>
                <time>1970-01-01T00:58:48Z</time>
            </trkpt>
            <trkpt lon="101.418390" lat="14.165673">
                <ele>28.000000</ele>
                <time>1970-01-01T00:58:49Z</time>
            </trkpt>
            <trkpt lon="101.418389" lat="14.165626">
                <ele>28.100000</ele>
                <time>1970-01-01T00:58:50Z</time>
            </trkpt>
            <trkpt lon="101.418393" lat="14.165571">
                <ele>28.100000</ele>
                <time>1970-01-01T00:58:51Z</time>
            </trkpt>
            <trkpt lon="101.418395" lat="14.165514">
                <ele>28.200000</ele>
                <time>1970-01-01T00:58:52Z</time>
            </trkpt>
            <trkpt lon="101.418405" lat="14.165454">
                <ele>28.200000</ele>
                <time>1970-01-01T00:58:53Z</time>
            </trkpt>
            <trkpt lon="101.418410" lat="14.165400">
                <ele>28.200000</ele>
                <time>1970-01-01T00:58:54Z</time>
            </trkpt>
            <trkpt lon="101.418411" lat="14.165338">
                <ele>28.200000</ele>
                <time>1970-01-01T00:58:55Z</time>
            </trkpt>
            <trkpt lon="101.418414" lat="14.165277">
                <ele>28.300000</ele>
                <time>1970-01-01T00:58:56Z</time>
            </trkpt>
            <trkpt lon="101.418413" lat="14.165213">
                <ele>28.400000</ele>
                <time>1970-01-01T00:58:57Z</time>
            </trkpt>
            <trkpt lon="101.418410" lat="14.165156">
                <ele>28.500000</ele>
                <time>1970-01-01T00:58:58Z</time>
            </trkpt>
            <trkpt lon="101.418410" lat="14.165103">
                <ele>28.600000</ele>
                <time>1970-01-01T00:58:59Z</time>
            </trkpt>
            <trkpt lon="101.418402" lat="14.165040">
                <ele>28.800000</ele>
                <time>1970-01-01T00:59:00Z</time>
            </trkpt>
            <trkpt lon="101.418406" lat="14.164982">
                <ele>28.900000</ele>
                <time>1970-01-01T00:59:01Z</time>
            </trkpt>
            <trkpt lon="101.418406" lat="14.164921">
                <ele>29.000000</ele>
                <time>1970-01-01T00:59:02Z</time>
            </trkpt>
            <trkpt lon="101.418411" lat="14.164858">
                <ele>29.100000</ele>
                <time>1970-01-01T00:59:03Z</time>
            </trkpt>
            <trkpt lon="101.418414" lat="14.164801">
                <ele>29.100000</ele>
                <time>1970-01-01T00:59:04Z</time>
            </trkpt>
            <trkpt lon="101.418414" lat="14.164752">
                <ele>29.100000</ele>
                <time>1970-01-01T00:59:05Z</time>
            </trkpt>
            <trkpt lon="101.418419" lat="14.164698">
                <ele>29.100000</ele>
                <time>1970-01-01T00:59:06Z</time>
            </trkpt>
            <trkpt lon="101.418422" lat="14.164648">
                <ele>29.100000</ele>
                <time>1970-01-01T00:59:07Z</time>
            </trkpt>
            <trkpt lon="101.418433" lat="14.164593">
                <ele>29.100000</ele>
                <time>1970-01-01T00:59:08Z</time>
            </trkpt>
            <trkpt lon="101.418440" lat="14.164540">
                <ele>29.100000</ele>
                <time>1970-01-01T00:59:09Z</time>
            </trkpt>
            <trkpt lon="101.418444" lat="14.164483">
                <ele>29.000000</ele>
                <time>1970-01-01T00:59:10Z</time>
            </trkpt>
            <trkpt lon="101.418450" lat="14.164426">
                <ele>29.000000</ele>
                <time>1970-01-01T00:59:11Z</time>
            </trkpt>
            <trkpt lon="101.418462" lat="14.164371">
                <ele>29.000000</ele>
                <time>1970-01-01T00:59:12Z</time>
            </trkpt>
            <trkpt lon="101.418462" lat="14.164322">
                <ele>29.000000</ele>
                <time>1970-01-01T00:59:13Z</time>
            </trkpt>
            <trkpt lon="101.418469" lat="14.164261">
                <ele>29.000000</ele>
                <time>1970-01-01T00:59:14Z</time>
            </trkpt>
            <trkpt lon="101.418479" lat="14.164200">
                <ele>29.000000</ele>
                <time>1970-01-01T00:59:15Z</time>
            </trkpt>
            <trkpt lon="101.418480" lat="14.164138">
                <ele>29.000000</ele>
                <time>1970-01-01T00:59:16Z</time>
            </trkpt>
            <trkpt lon="101.418475" lat="14.164081">
                <ele>29.000000</ele>
                <time>1970-01-01T00:59:17Z</time>
            </trkpt>
            <trkpt lon="101.418479" lat="14.164021">
                <ele>29.000000</ele>
                <time>1970-01-01T00:59:18Z</time>
            </trkpt>
            <trkpt lon="101.418485" lat="14.163966">
                <ele>29.000000</ele>
                <time>1970-01-01T00:59:19Z</time>
            </trkpt>
            <trkpt lon="101.418487" lat="14.163908">
                <ele>29.000000</ele>
                <time>1970-01-01T00:59:20Z</time>
            </trkpt>
            <trkpt lon="101.418485" lat="14.163854">
                <ele>28.900000</ele>
                <time>1970-01-01T00:59:21Z</time>
            </trkpt>
            <trkpt lon="101.418488" lat="14.163798">
                <ele>28.900000</ele>
                <time>1970-01-01T00:59:22Z</time>
            </trkpt>
            <trkpt lon="101.418475" lat="14.163740">
                <ele>28.800000</ele>
                <time>1970-01-01T00:59:23Z</time>
            </trkpt>
            <trkpt lon="101.418480" lat="14.163685">
                <ele>28.700000</ele>
                <time>1970-01-01T00:59:24Z</time>
            </trkpt>
            <trkpt lon="101.418482" lat="14.163625">
                <ele>28.500000</ele>
                <time>1970-01-01T00:59:25Z</time>
            </trkpt>
            <trkpt lon="101.418487" lat="14.163567">
                <ele>28.300000</ele>
                <time>1970-01-01T00:59:26Z</time>
            </trkpt>
            <trkpt lon="101.418498" lat="14.163505">
                <ele>28.100000</ele>
                <time>1970-01-01T00:59:27Z</time>
            </trkpt>
            <trkpt lon="101.418504" lat="14.163449">
                <ele>28.000000</ele>
                <time>1970-01-01T00:59:28Z</time>
            </trkpt>
            <trkpt lon="101.418512" lat="14.163392">
                <ele>28.000000</ele>
                <time>1970-01-01T00:59:29Z</time>
            </trkpt>
            <trkpt lon="101.418521" lat="14.163333">
                <ele>27.900000</ele>
                <time>1970-01-01T00:59:30Z</time>
            </trkpt>
            <trkpt lon="101.418536" lat="14.163273">
                <ele>27.900000</ele>
                <time>1970-01-01T00:59:31Z</time>
            </trkpt>
            <trkpt lon="101.418537" lat="14.163213">
                <ele>27.900000</ele>
                <time>1970-01-01T00:59:32Z</time>
            </trkpt>
            <trkpt lon="101.418529" lat="14.163156">
                <ele>27.900000</ele>
                <time>1970-01-01T00:59:33Z</time>
            </trkpt>
            <trkpt lon="101.418522" lat="14.163102">
                <ele>27.900000</ele>
                <time>1970-01-01T00:59:34Z</time>
            </trkpt>
            <trkpt lon="101.418500" lat="14.163049">
                <ele>28.400000</ele>
                <time>1970-01-01T00:59:35Z</time>
            </trkpt>
            <trkpt lon="101.418471" lat="14.163004">
                <ele>28.800000</ele>
                <time>1970-01-01T00:59:36Z</time>
            </trkpt>
            <trkpt lon="101.418447" lat="14.162964">
                <ele>29.400000</ele>
                <time>1970-01-01T00:59:37Z</time>
            </trkpt>
            <trkpt lon="101.418420" lat="14.162924">
                <ele>29.900000</ele>
                <time>1970-01-01T00:59:38Z</time>
            </trkpt>
            <trkpt lon="101.418402" lat="14.162875">
                <ele>30.400000</ele>
                <time>1970-01-01T00:59:39Z</time>
            </trkpt>
            <trkpt lon="101.418373" lat="14.162838">
                <ele>31.100000</ele>
                <time>1970-01-01T00:59:40Z</time>
            </trkpt>
            <trkpt lon="101.418345" lat="14.162788">
                <ele>31.800000</ele>
                <time>1970-01-01T00:59:41Z</time>
            </trkpt>
            <trkpt lon="101.418328" lat="14.162737">
                <ele>32.200000</ele>
                <time>1970-01-01T00:59:42Z</time>
            </trkpt>
            <trkpt lon="101.418305" lat="14.162695">
                <ele>32.800000</ele>
                <time>1970-01-01T00:59:43Z</time>
            </trkpt>
            <trkpt lon="101.418266" lat="14.162663">
                <ele>33.400000</ele>
                <time>1970-01-01T00:59:44Z</time>
            </trkpt>
            <trkpt lon="101.418245" lat="14.162633">
                <ele>33.800000</ele>
                <time>1970-01-01T00:59:45Z</time>
            </trkpt>
            <trkpt lon="101.418228" lat="14.162598">
                <ele>34.300000</ele>
                <time>1970-01-01T00:59:46Z</time>
            </trkpt>
            <trkpt lon="101.418189" lat="14.162565">
                <ele>34.600000</ele>
                <time>1970-01-01T00:59:47Z</time>
            </trkpt>
            <trkpt lon="101.418144" lat="14.162514">
                <ele>35.000000</ele>
                <time>1970-01-01T00:59:48Z</time>
            </trkpt>
            <trkpt lon="101.418113" lat="14.162471">
                <ele>35.300000</ele>
                <time>1970-01-01T00:59:49Z</time>
            </trkpt>
            <trkpt lon="101.418093" lat="14.162444">
                <ele>35.400000</ele>
                <time>1970-01-01T00:59:50Z</time>
            </trkpt>
            <trkpt lon="101.418077" lat="14.162406">
                <ele>35.600000</ele>
                <time>1970-01-01T00:59:51Z</time>
            </trkpt>
            <trkpt lon="101.418063" lat="14.162346">
                <ele>35.800000</ele>
                <time>1970-01-01T00:59:53Z</time>
            </trkpt>
            <trkpt lon="101.418048" lat="14.162314">
                <ele>35.900000</ele>
                <time>1970-01-01T00:59:54Z</time>
            </trkpt>
            <trkpt lon="101.418026" lat="14.162283">
                <ele>36.000000</ele>
                <time>1970-01-01T00:59:55Z</time>
            </trkpt>
            <trkpt lon="101.418006" lat="14.162253">
                <ele>36.000000</ele>
                <time>1970-01-01T00:59:56Z</time>
            </trkpt>
            <trkpt lon="101.417984" lat="14.162231">
                <ele>36.100000</ele>
                <time>1970-01-01T00:59:57Z</time>
            </trkpt>
            <trkpt lon="101.417962" lat="14.162211">
                <ele>36.100000</ele>
                <time>1970-01-01T00:59:58Z</time>
            </trkpt>
            <trkpt lon="101.417937" lat="14.162188">
                <ele>36.100000</ele>
                <time>1970-01-01T00:59:59Z</time>
            </trkpt>
            <trkpt lon="101.417910" lat="14.162161">
                <ele>36.100000</ele>
                <time>1970-01-01T01:00:00Z</time>
            </trkpt>
            <trkpt lon="101.417888" lat="14.162131">
                <ele>36.100000</ele>
                <time>1970-01-01T01:00:01Z</time>
            </trkpt>
            <trkpt lon="101.417870" lat="14.162098">
                <ele>36.200000</ele>
                <time>1970-01-01T01:00:02Z</time>
            </trkpt>
            <trkpt lon="101.417856" lat="14.162065">
                <ele>36.300000</ele>
                <time>1970-01-01T01:00:03Z</time>
            </trkpt>
            <trkpt lon="101.417843" lat="14.162032">
                <ele>36.400000</ele>
                <time>1970-01-01T01:00:04Z</time>
            </trkpt>
            <trkpt lon="101.417831" lat="14.162002">
                <ele>36.600000</ele>
                <time>1970-01-01T01:00:05Z</time>
            </trkpt>
            <trkpt lon="101.417818" lat="14.161971">
                <ele>36.700000</ele>
                <time>1970-01-01T01:00:06Z</time>
            </trkpt>
            <trkpt lon="101.417802" lat="14.161940">
                <ele>36.900000</ele>
                <time>1970-01-01T01:00:07Z</time>
            </trkpt>
            <trkpt lon="101.417785" lat="14.161909">
                <ele>37.000000</ele>
                <time>1970-01-01T01:00:08Z</time>
            </trkpt>
            <trkpt lon="101.417769" lat="14.161878">
                <ele>37.200000</ele>
                <time>1970-01-01T01:00:09Z</time>
            </trkpt>
            <trkpt lon="101.417753" lat="14.161846">
                <ele>37.400000</ele>
                <time>1970-01-01T01:00:10Z</time>
            </trkpt>
            <trkpt lon="101.417737" lat="14.161814">
                <ele>37.600000</ele>
                <time>1970-01-01T01:00:11Z</time>
            </trkpt>
            <trkpt lon="101.417724" lat="14.161785">
                <ele>37.800000</ele>
                <time>1970-01-01T01:00:12Z</time>
            </trkpt>
            <trkpt lon="101.417710" lat="14.161754">
                <ele>37.900000</ele>
                <time>1970-01-01T01:00:13Z</time>
            </trkpt>
            <trkpt lon="101.417693" lat="14.161721">
                <ele>38.200000</ele>
                <time>1970-01-01T01:00:14Z</time>
            </trkpt>
            <trkpt lon="101.417677" lat="14.161693">
                <ele>38.600000</ele>
                <time>1970-01-01T01:00:15Z</time>
            </trkpt>
            <trkpt lon="101.417656" lat="14.161665">
                <ele>38.900000</ele>
                <time>1970-01-01T01:00:16Z</time>
            </trkpt>
            <trkpt lon="101.417636" lat="14.161636">
                <ele>39.300000</ele>
                <time>1970-01-01T01:00:17Z</time>
            </trkpt>
            <trkpt lon="101.417619" lat="14.161608">
                <ele>39.800000</ele>
                <time>1970-01-01T01:00:18Z</time>
            </trkpt>
            <trkpt lon="101.417604" lat="14.161580">
                <ele>40.200000</ele>
                <time>1970-01-01T01:00:19Z</time>
            </trkpt>
            <trkpt lon="101.417590" lat="14.161550">
                <ele>40.600000</ele>
                <time>1970-01-01T01:00:20Z</time>
            </trkpt>
            <trkpt lon="101.417574" lat="14.161521">
                <ele>41.000000</ele>
                <time>1970-01-01T01:00:21Z</time>
            </trkpt>
            <trkpt lon="101.417554" lat="14.161495">
                <ele>41.300000</ele>
                <time>1970-01-01T01:00:22Z</time>
            </trkpt>
            <trkpt lon="101.417533" lat="14.161472">
                <ele>41.300000</ele>
                <time>1970-01-01T01:00:23Z</time>
            </trkpt>
            <trkpt lon="101.417513" lat="14.161451">
                <ele>41.400000</ele>
                <time>1970-01-01T01:00:24Z</time>
            </trkpt>
            <trkpt lon="101.417492" lat="14.161427">
                <ele>41.600000</ele>
                <time>1970-01-01T01:00:25Z</time>
            </trkpt>
            <trkpt lon="101.417471" lat="14.161405">
                <ele>41.800000</ele>
                <time>1970-01-01T01:00:26Z</time>
            </trkpt>
            <trkpt lon="101.417447" lat="14.161385">
                <ele>41.900000</ele>
                <time>1970-01-01T01:00:27Z</time>
            </trkpt>
            <trkpt lon="101.417423" lat="14.161366">
                <ele>42.000000</ele>
                <time>1970-01-01T01:00:28Z</time>
            </trkpt>
            <trkpt lon="101.417400" lat="14.161348">
                <ele>42.000000</ele>
                <time>1970-01-01T01:00:29Z</time>
            </trkpt>
            <trkpt lon="101.417378" lat="14.161329">
                <ele>42.100000</ele>
                <time>1970-01-01T01:00:30Z</time>
            </trkpt>
            <trkpt lon="101.417353" lat="14.161309">
                <ele>42.000000</ele>
                <time>1970-01-01T01:00:31Z</time>
            </trkpt>
            <trkpt lon="101.417328" lat="14.161288">
                <ele>41.900000</ele>
                <time>1970-01-01T01:00:32Z</time>
            </trkpt>
            <trkpt lon="101.417304" lat="14.161268">
                <ele>41.800000</ele>
                <time>1970-01-01T01:00:33Z</time>
            </trkpt>
            <trkpt lon="101.417282" lat="14.161249">
                <ele>41.600000</ele>
                <time>1970-01-01T01:00:34Z</time>
            </trkpt>
            <trkpt lon="101.417259" lat="14.161231">
                <ele>41.500000</ele>
                <time>1970-01-01T01:00:35Z</time>
            </trkpt>
            <trkpt lon="101.417233" lat="14.161211">
                <ele>41.400000</ele>
                <time>1970-01-01T01:00:36Z</time>
            </trkpt>
            <trkpt lon="101.417205" lat="14.161190">
                <ele>41.000000</ele>
                <time>1970-01-01T01:00:37Z</time>
            </trkpt>
            <trkpt lon="101.417178" lat="14.161169">
                <ele>40.600000</ele>
                <time>1970-01-01T01:00:38Z</time>
            </trkpt>
            <trkpt lon="101.417149" lat="14.161146">
                <ele>40.300000</ele>
                <time>1970-01-01T01:00:39Z</time>
            </trkpt>
            <trkpt lon="101.417121" lat="14.161122">
                <ele>40.100000</ele>
                <time>1970-01-01T01:00:40Z</time>
            </trkpt>
            <trkpt lon="101.417093" lat="14.161098">
                <ele>39.900000</ele>
                <time>1970-01-01T01:00:41Z</time>
            </trkpt>
            <trkpt lon="101.417066" lat="14.161074">
                <ele>39.600000</ele>
                <time>1970-01-01T01:00:42Z</time>
            </trkpt>
            <trkpt lon="101.417039" lat="14.161049">
                <ele>39.300000</ele>
                <time>1970-01-01T01:00:43Z</time>
            </trkpt>
            <trkpt lon="101.417012" lat="14.161024">
                <ele>39.000000</ele>
                <time>1970-01-01T01:00:44Z</time>
            </trkpt>
            <trkpt lon="101.416984" lat="14.160999">
                <ele>38.800000</ele>
                <time>1970-01-01T01:00:45Z</time>
            </trkpt>
            <trkpt lon="101.416956" lat="14.160972">
                <ele>38.500000</ele>
                <time>1970-01-01T01:00:46Z</time>
            </trkpt>
            <trkpt lon="101.416928" lat="14.160944">
                <ele>38.400000</ele>
                <time>1970-01-01T01:00:47Z</time>
            </trkpt>
            <trkpt lon="101.416900" lat="14.160917">
                <ele>38.300000</ele>
                <time>1970-01-01T01:00:48Z</time>
            </trkpt>
            <trkpt lon="101.416869" lat="14.160889">
                <ele>38.400000</ele>
                <time>1970-01-01T01:00:49Z</time>
            </trkpt>
            <trkpt lon="101.416836" lat="14.160860">
                <ele>38.500000</ele>
                <time>1970-01-01T01:00:50Z</time>
            </trkpt>
            <trkpt lon="101.416801" lat="14.160831">
                <ele>38.700000</ele>
                <time>1970-01-01T01:00:51Z</time>
            </trkpt>
            <trkpt lon="101.416769" lat="14.160806">
                <ele>38.800000</ele>
                <time>1970-01-01T01:00:52Z</time>
            </trkpt>
            <trkpt lon="101.416738" lat="14.160780">
                <ele>39.000000</ele>
                <time>1970-01-01T01:00:53Z</time>
            </trkpt>
            <trkpt lon="101.416699" lat="14.160753">
                <ele>39.100000</ele>
                <time>1970-01-01T01:00:54Z</time>
            </trkpt>
            <trkpt lon="101.416659" lat="14.160721">
                <ele>39.200000</ele>
                <time>1970-01-01T01:00:55Z</time>
            </trkpt>
            <trkpt lon="101.416616" lat="14.160678">
                <ele>39.300000</ele>
                <time>1970-01-01T01:00:56Z</time>
            </trkpt>
            <trkpt lon="101.416589" lat="14.160657">
                <ele>39.400000</ele>
                <time>1970-01-01T01:00:57Z</time>
            </trkpt>
            <trkpt lon="101.416547" lat="14.160633">
                <ele>39.500000</ele>
                <time>1970-01-01T01:00:58Z</time>
            </trkpt>
            <trkpt lon="101.416524" lat="14.160592">
                <ele>39.500000</ele>
                <time>1970-01-01T01:00:59Z</time>
            </trkpt>
            <trkpt lon="101.416506" lat="14.160553">
                <ele>39.500000</ele>
                <time>1970-01-01T01:01:00Z</time>
            </trkpt>
            <trkpt lon="101.416474" lat="14.160522">
                <ele>39.500000</ele>
                <time>1970-01-01T01:01:01Z</time>
            </trkpt>
            <trkpt lon="101.416438" lat="14.160484">
                <ele>39.500000</ele>
                <time>1970-01-01T01:01:02Z</time>
            </trkpt>
            <trkpt lon="101.416408" lat="14.160457">
                <ele>39.700000</ele>
                <time>1970-01-01T01:01:03Z</time>
            </trkpt>
            <trkpt lon="101.416378" lat="14.160429">
                <ele>39.900000</ele>
                <time>1970-01-01T01:01:04Z</time>
            </trkpt>
            <trkpt lon="101.416343" lat="14.160403">
                <ele>40.100000</ele>
                <time>1970-01-01T01:01:05Z</time>
            </trkpt>
            <trkpt lon="101.416305" lat="14.160375">
                <ele>40.300000</ele>
                <time>1970-01-01T01:01:06Z</time>
            </trkpt>
            <trkpt lon="101.416263" lat="14.160366">
                <ele>40.500000</ele>
                <time>1970-01-01T01:01:07Z</time>
            </trkpt>
            <trkpt lon="101.416227" lat="14.160372">
                <ele>40.700000</ele>
                <time>1970-01-01T01:01:08Z</time>
            </trkpt>
            <trkpt lon="101.416198" lat="14.160391">
                <ele>41.000000</ele>
                <time>1970-01-01T01:01:09Z</time>
            </trkpt>
            <trkpt lon="101.416177" lat="14.160410">
                <ele>41.200000</ele>
                <time>1970-01-01T01:01:10Z</time>
            </trkpt>
            <trkpt lon="101.416154" lat="14.160428">
                <ele>41.400000</ele>
                <time>1970-01-01T01:01:11Z</time>
            </trkpt>
            <trkpt lon="101.416125" lat="14.160447">
                <ele>41.700000</ele>
                <time>1970-01-01T01:01:12Z</time>
            </trkpt>
            <trkpt lon="101.416099" lat="14.160461">
                <ele>41.900000</ele>
                <time>1970-01-01T01:01:13Z</time>
            </trkpt>
            <trkpt lon="101.416058" lat="14.160474">
                <ele>42.200000</ele>
                <time>1970-01-01T01:01:15Z</time>
            </trkpt>
            <trkpt lon="101.416020" lat="14.160499">
                <ele>42.500000</ele>
                <time>1970-01-01T01:01:17Z</time>
            </trkpt>
            <trkpt lon="101.416001" lat="14.160520">
                <ele>42.800000</ele>
                <time>1970-01-01T01:01:18Z</time>
            </trkpt>
            <trkpt lon="101.415979" lat="14.160538">
                <ele>43.000000</ele>
                <time>1970-01-01T01:01:19Z</time>
            </trkpt>
            <trkpt lon="101.415934" lat="14.160567">
                <ele>43.500000</ele>
                <time>1970-01-01T01:01:21Z</time>
            </trkpt>
            <trkpt lon="101.415885" lat="14.160593">
                <ele>43.900000</ele>
                <time>1970-01-01T01:01:23Z</time>
            </trkpt>
            <trkpt lon="101.415862" lat="14.160609">
                <ele>44.000000</ele>
                <time>1970-01-01T01:01:24Z</time>
            </trkpt>
            <trkpt lon="101.415824" lat="14.160633">
                <ele>44.300000</ele>
                <time>1970-01-01T01:01:26Z</time>
            </trkpt>
            <trkpt lon="101.415778" lat="14.160653">
                <ele>44.300000</ele>
                <time>1970-01-01T01:01:28Z</time>
            </trkpt>
            <trkpt lon="101.415729" lat="14.160673">
                <ele>44.300000</ele>
                <time>1970-01-01T01:01:30Z</time>
            </trkpt>
            <trkpt lon="101.415696" lat="14.160708">
                <ele>44.500000</ele>
                <time>1970-01-01T01:01:32Z</time>
            </trkpt>
            <trkpt lon="101.415671" lat="14.160744">
                <ele>44.800000</ele>
                <time>1970-01-01T01:01:34Z</time>
            </trkpt>
            <trkpt lon="101.415643" lat="14.160779">
                <ele>44.900000</ele>
                <time>1970-01-01T01:01:36Z</time>
            </trkpt>
            <trkpt lon="101.415613" lat="14.160798">
                <ele>45.000000</ele>
                <time>1970-01-01T01:01:38Z</time>
            </trkpt>
            <trkpt lon="101.415576" lat="14.160813">
                <ele>45.200000</ele>
                <time>1970-01-01T01:01:40Z</time>
            </trkpt>
            <trkpt lon="101.415550" lat="14.160837">
                <ele>45.400000</ele>
                <time>1970-01-01T01:01:42Z</time>
            </trkpt>
            <trkpt lon="101.415545" lat="14.160873">
                <ele>45.600000</ele>
                <time>1970-01-01T01:01:45Z</time>
            </trkpt>
            <trkpt lon="101.415541" lat="14.160917">
                <ele>46.100000</ele>
                <time>1970-01-01T01:01:51Z</time>
            </trkpt>
            <trkpt lon="101.415535" lat="14.160948">
                <ele>46.500000</ele>
                <time>1970-01-01T01:01:55Z</time>
            </trkpt>
            <trkpt lon="101.415513" lat="14.160973">
                <ele>46.700000</ele>
                <time>1970-01-01T01:01:58Z</time>
            </trkpt>
            <trkpt lon="101.415486" lat="14.160990">
                <ele>46.900000</ele>
                <time>1970-01-01T01:02:00Z</time>
            </trkpt>
            <trkpt lon="101.415454" lat="14.161000">
                <ele>47.100000</ele>
                <time>1970-01-01T01:02:02Z</time>
            </trkpt>
            <trkpt lon="101.415425" lat="14.161004">
                <ele>47.300000</ele>
                <time>1970-01-01T01:02:04Z</time>
            </trkpt>
            <trkpt lon="101.415396" lat="14.161029">
                <ele>47.600000</ele>
                <time>1970-01-01T01:02:06Z</time>
            </trkpt>
            <trkpt lon="101.415375" lat="14.161068">
                <ele>47.900000</ele>
                <time>1970-01-01T01:02:08Z</time>
            </trkpt>
            <trkpt lon="101.415343" lat="14.161089">
                <ele>48.100000</ele>
                <time>1970-01-01T01:02:10Z</time>
            </trkpt>
            <trkpt lon="101.415305" lat="14.161101">
                <ele>48.300000</ele>
                <time>1970-01-01T01:02:12Z</time>
            </trkpt>
            <trkpt lon="101.415267" lat="14.161113">
                <ele>48.400000</ele>
                <time>1970-01-01T01:02:14Z</time>
            </trkpt>
            <trkpt lon="101.415236" lat="14.161118">
                <ele>48.500000</ele>
                <time>1970-01-01T01:02:16Z</time>
            </trkpt>
            <trkpt lon="101.415205" lat="14.161124">
                <ele>48.600000</ele>
                <time>1970-01-01T01:02:18Z</time>
            </trkpt>
            <trkpt lon="101.415176" lat="14.161140">
                <ele>48.800000</ele>
                <time>1970-01-01T01:02:20Z</time>
            </trkpt>
            <trkpt lon="101.415146" lat="14.161149">
                <ele>48.900000</ele>
                <time>1970-01-01T01:02:22Z</time>
            </trkpt>
            <trkpt lon="101.415113" lat="14.161133">
                <ele>49.100000</ele>
                <time>1970-01-01T01:02:25Z</time>
            </trkpt>
            <trkpt lon="101.415088" lat="14.161112">
                <ele>49.300000</ele>
                <time>1970-01-01T01:02:28Z</time>
            </trkpt>
            <trkpt lon="101.415056" lat="14.161096">
                <ele>49.300000</ele>
                <time>1970-01-01T01:02:31Z</time>
            </trkpt>
            <trkpt lon="101.415033" lat="14.161078">
                <ele>49.500000</ele>
                <time>1970-01-01T01:02:33Z</time>
            </trkpt>
            <trkpt lon="101.414997" lat="14.161074">
                <ele>49.500000</ele>
                <time>1970-01-01T01:02:38Z</time>
            </trkpt>
            <trkpt lon="101.414965" lat="14.161076">
                <ele>49.500000</ele>
                <time>1970-01-01T01:02:43Z</time>
            </trkpt>
            <trkpt lon="101.414929" lat="14.161073">
                <ele>49.500000</ele>
                <time>1970-01-01T01:02:48Z</time>
            </trkpt>
            <trkpt lon="101.414902" lat="14.161065">
                <ele>49.500000</ele>
                <time>1970-01-01T01:02:51Z</time>
            </trkpt>
            <trkpt lon="101.414865" lat="14.161076">
                <ele>49.500000</ele>
                <time>1970-01-01T01:02:55Z</time>
            </trkpt>
            <trkpt lon="101.414838" lat="14.161087">
                <ele>49.500000</ele>
                <time>1970-01-01T01:02:58Z</time>
            </trkpt>
            <trkpt lon="101.414811" lat="14.161096">
                <ele>49.700000</ele>
                <time>1970-01-01T01:03:02Z</time>
            </trkpt>
            <trkpt lon="101.414767" lat="14.161098">
                <ele>50.100000</ele>
                <time>1970-01-01T01:03:05Z</time>
            </trkpt>
            <trkpt lon="101.414739" lat="14.161104">
                <ele>50.300000</ele>
                <time>1970-01-01T01:03:08Z</time>
            </trkpt>
            <trkpt lon="101.414709" lat="14.161099">
                <ele>50.800000</ele>
                <time>1970-01-01T01:03:11Z</time>
            </trkpt>
            <trkpt lon="101.414679" lat="14.161096">
                <ele>50.800000</ele>
                <time>1970-01-01T01:03:15Z</time>
            </trkpt>
            <trkpt lon="101.414648" lat="14.161090">
                <ele>51.200000</ele>
                <time>1970-01-01T01:03:18Z</time>
            </trkpt>
            <trkpt lon="101.414619" lat="14.161101">
                <ele>51.700000</ele>
                <time>1970-01-01T01:03:24Z</time>
            </trkpt>
            <trkpt lon="101.414582" lat="14.161098">
                <ele>51.700000</ele>
                <time>1970-01-01T01:03:35Z</time>
            </trkpt>
            <trkpt lon="101.414549" lat="14.161083">
                <ele>51.700000</ele>
                <time>1970-01-01T01:03:38Z</time>
            </trkpt>
            <trkpt lon="101.414528" lat="14.161053">
                <ele>52.200000</ele>
                <time>1970-01-01T01:03:41Z</time>
            </trkpt>
            <trkpt lon="101.414509" lat="14.161031">
                <ele>51.700000</ele>
                <time>1970-01-01T01:03:44Z</time>
            </trkpt>
            <trkpt lon="101.414469" lat="14.161009">
                <ele>52.200000</ele>
                <time>1970-01-01T01:03:52Z</time>
            </trkpt>
            <trkpt lon="101.414440" lat="14.161011">
                <ele>52.700000</ele>
                <time>1970-01-01T01:03:54Z</time>
            </trkpt>
            <trkpt lon="101.414410" lat="14.161010">
                <ele>52.700000</ele>
                <time>1970-01-01T01:04:00Z</time>
            </trkpt>
            <trkpt lon="101.414381" lat="14.161019">
                <ele>53.200000</ele>
                <time>1970-01-01T01:04:05Z</time>
            </trkpt>
            <trkpt lon="101.414352" lat="14.161017">
                <ele>53.500000</ele>
                <time>1970-01-01T01:04:08Z</time>
            </trkpt>
            <trkpt lon="101.414337" lat="14.160989">
                <ele>53.000000</ele>
                <time>1970-01-01T01:04:14Z</time>
            </trkpt>
            <trkpt lon="101.414322" lat="14.160964">
                <ele>53.200000</ele>
                <time>1970-01-01T01:04:16Z</time>
            </trkpt>
            <trkpt lon="101.414301" lat="14.160947">
                <ele>52.700000</ele>
                <time>1970-01-01T01:04:18Z</time>
            </trkpt>
            <trkpt lon="101.414276" lat="14.160918">
                <ele>52.500000</ele>
                <time>1970-01-01T01:04:21Z</time>
            </trkpt>
            <trkpt lon="101.414262" lat="14.160890">
                <ele>52.500000</ele>
                <time>1970-01-01T01:04:23Z</time>
            </trkpt>
            <trkpt lon="101.414240" lat="14.160865">
                <ele>52.000000</ele>
                <time>1970-01-01T01:04:26Z</time>
            </trkpt>
            <trkpt lon="101.414214" lat="14.160851">
                <ele>52.200000</ele>
                <time>1970-01-01T01:04:28Z</time>
            </trkpt>
            <trkpt lon="101.414186" lat="14.160845">
                <ele>52.500000</ele>
                <time>1970-01-01T01:04:30Z</time>
            </trkpt>
            <trkpt lon="101.414155" lat="14.160838">
                <ele>52.500000</ele>
                <time>1970-01-01T01:04:32Z</time>
            </trkpt>
            <trkpt lon="101.414104" lat="14.160850">
                <ele>53.000000</ele>
                <time>1970-01-01T01:04:34Z</time>
            </trkpt>
            <trkpt lon="101.414055" lat="14.160867">
                <ele>53.300000</ele>
                <time>1970-01-01T01:04:36Z</time>
            </trkpt>
            <trkpt lon="101.414014" lat="14.160876">
                <ele>53.400000</ele>
                <time>1970-01-01T01:04:38Z</time>
            </trkpt>
            <trkpt lon="101.413984" lat="14.160864">
                <ele>53.400000</ele>
                <time>1970-01-01T01:04:41Z</time>
            </trkpt>
            <trkpt lon="101.413947" lat="14.160852">
                <ele>53.600000</ele>
                <time>1970-01-01T01:04:43Z</time>
            </trkpt>
            <trkpt lon="101.413907" lat="14.160857">
                <ele>53.700000</ele>
                <time>1970-01-01T01:04:45Z</time>
            </trkpt>
            <trkpt lon="101.413860" lat="14.160864">
                <ele>53.900000</ele>
                <time>1970-01-01T01:04:47Z</time>
            </trkpt>
            <trkpt lon="101.413815" lat="14.160865">
                <ele>54.100000</ele>
                <time>1970-01-01T01:04:49Z</time>
            </trkpt>
            <trkpt lon="101.413779" lat="14.160861">
                <ele>54.300000</ele>
                <time>1970-01-01T01:04:51Z</time>
            </trkpt>
            <trkpt lon="101.413739" lat="14.160857">
                <ele>54.600000</ele>
                <time>1970-01-01T01:04:53Z</time>
            </trkpt>
            <trkpt lon="101.413698" lat="14.160875">
                <ele>54.800000</ele>
                <time>1970-01-01T01:04:55Z</time>
            </trkpt>
            <trkpt lon="101.413665" lat="14.160900">
                <ele>55.500000</ele>
                <time>1970-01-01T01:04:57Z</time>
            </trkpt>
            <trkpt lon="101.413630" lat="14.160917">
                <ele>56.000000</ele>
                <time>1970-01-01T01:04:59Z</time>
            </trkpt>
            <trkpt lon="101.413603" lat="14.160920">
                <ele>56.300000</ele>
                <time>1970-01-01T01:05:01Z</time>
            </trkpt>
            <trkpt lon="101.413569" lat="14.160938">
                <ele>56.800000</ele>
                <time>1970-01-01T01:05:03Z</time>
            </trkpt>
            <trkpt lon="101.413540" lat="14.160939">
                <ele>57.300000</ele>
                <time>1970-01-01T01:05:05Z</time>
            </trkpt>
            <trkpt lon="101.413512" lat="14.160929">
                <ele>57.300000</ele>
                <time>1970-01-01T01:05:07Z</time>
            </trkpt>
            <trkpt lon="101.413475" lat="14.160940">
                <ele>57.600000</ele>
                <time>1970-01-01T01:05:09Z</time>
            </trkpt>
            <trkpt lon="101.413425" lat="14.160948">
                <ele>57.800000</ele>
                <time>1970-01-01T01:05:11Z</time>
            </trkpt>
            <trkpt lon="101.413396" lat="14.160946">
                <ele>58.100000</ele>
                <time>1970-01-01T01:05:13Z</time>
            </trkpt>
            <trkpt lon="101.413367" lat="14.160949">
                <ele>58.300000</ele>
                <time>1970-01-01T01:05:15Z</time>
            </trkpt>
            <trkpt lon="101.413327" lat="14.160955">
                <ele>58.600000</ele>
                <time>1970-01-01T01:05:17Z</time>
            </trkpt>
            <trkpt lon="101.413298" lat="14.160967">
                <ele>58.800000</ele>
                <time>1970-01-01T01:05:19Z</time>
            </trkpt>
            <trkpt lon="101.413259" lat="14.160982">
                <ele>59.100000</ele>
                <time>1970-01-01T01:05:22Z</time>
            </trkpt>
            <trkpt lon="101.413237" lat="14.161005">
                <ele>59.600000</ele>
                <time>1970-01-01T01:05:24Z</time>
            </trkpt>
            <trkpt lon="101.413191" lat="14.161034">
                <ele>59.800000</ele>
                <time>1970-01-01T01:05:26Z</time>
            </trkpt>
            <trkpt lon="101.413149" lat="14.161045">
                <ele>60.300000</ele>
                <time>1970-01-01T01:05:28Z</time>
            </trkpt>
            <trkpt lon="101.413106" lat="14.161017">
                <ele>60.300000</ele>
                <time>1970-01-01T01:05:30Z</time>
            </trkpt>
            <trkpt lon="101.413072" lat="14.160979">
                <ele>60.300000</ele>
                <time>1970-01-01T01:05:32Z</time>
            </trkpt>
            <trkpt lon="101.413040" lat="14.160950">
                <ele>60.100000</ele>
                <time>1970-01-01T01:05:34Z</time>
            </trkpt>
            <trkpt lon="101.413014" lat="14.160938">
                <ele>60.300000</ele>
                <time>1970-01-01T01:05:35Z</time>
            </trkpt>
            <trkpt lon="101.412987" lat="14.160927">
                <ele>60.400000</ele>
                <time>1970-01-01T01:05:36Z</time>
            </trkpt>
            <trkpt lon="101.412941" lat="14.160910">
                <ele>60.200000</ele>
                <time>1970-01-01T01:05:38Z</time>
            </trkpt>
            <trkpt lon="101.412904" lat="14.160890">
                <ele>60.200000</ele>
                <time>1970-01-01T01:05:40Z</time>
            </trkpt>
            <trkpt lon="101.412861" lat="14.160864">
                <ele>59.900000</ele>
                <time>1970-01-01T01:05:42Z</time>
            </trkpt>
            <trkpt lon="101.412797" lat="14.160837">
                <ele>59.900000</ele>
                <time>1970-01-01T01:05:44Z</time>
            </trkpt>
            <trkpt lon="101.412757" lat="14.160824">
                <ele>59.700000</ele>
                <time>1970-01-01T01:05:45Z</time>
            </trkpt>
            <trkpt lon="101.412726" lat="14.160816">
                <ele>59.700000</ele>
                <time>1970-01-01T01:05:46Z</time>
            </trkpt>
            <trkpt lon="101.412696" lat="14.160800">
                <ele>59.700000</ele>
                <time>1970-01-01T01:05:47Z</time>
            </trkpt>
            <trkpt lon="101.412672" lat="14.160787">
                <ele>59.400000</ele>
                <time>1970-01-01T01:05:48Z</time>
            </trkpt>
            <trkpt lon="101.412621" lat="14.160757">
                <ele>59.400000</ele>
                <time>1970-01-01T01:05:50Z</time>
            </trkpt>
            <trkpt lon="101.412586" lat="14.160736">
                <ele>59.300000</ele>
                <time>1970-01-01T01:05:51Z</time>
            </trkpt>
            <trkpt lon="101.412554" lat="14.160718">
                <ele>59.400000</ele>
                <time>1970-01-01T01:05:52Z</time>
            </trkpt>
            <trkpt lon="101.412526" lat="14.160700">
                <ele>59.300000</ele>
                <time>1970-01-01T01:05:53Z</time>
            </trkpt>
            <trkpt lon="101.412502" lat="14.160684">
                <ele>59.500000</ele>
                <time>1970-01-01T01:05:54Z</time>
            </trkpt>
            <trkpt lon="101.412450" lat="14.160663">
                <ele>59.700000</ele>
                <time>1970-01-01T01:05:56Z</time>
            </trkpt>
            <trkpt lon="101.412402" lat="14.160674">
                <ele>59.800000</ele>
                <time>1970-01-01T01:05:58Z</time>
            </trkpt>
            <trkpt lon="101.412378" lat="14.160690">
                <ele>59.900000</ele>
                <time>1970-01-01T01:05:59Z</time>
            </trkpt>
            <trkpt lon="101.412358" lat="14.160711">
                <ele>59.900000</ele>
                <time>1970-01-01T01:06:00Z</time>
            </trkpt>
            <trkpt lon="101.412324" lat="14.160723">
                <ele>59.800000</ele>
                <time>1970-01-01T01:06:02Z</time>
            </trkpt>
            <trkpt lon="101.412295" lat="14.160713">
                <ele>60.000000</ele>
                <time>1970-01-01T01:06:04Z</time>
            </trkpt>
            <trkpt lon="101.412265" lat="14.160717">
                <ele>60.000000</ele>
                <time>1970-01-01T01:06:06Z</time>
            </trkpt>
            <trkpt lon="101.412230" lat="14.160725">
                <ele>60.300000</ele>
                <time>1970-01-01T01:06:08Z</time>
            </trkpt>
            <trkpt lon="101.412174" lat="14.160730">
                <ele>60.800000</ele>
                <time>1970-01-01T01:06:10Z</time>
            </trkpt>
            <trkpt lon="101.412135" lat="14.160737">
                <ele>60.800000</ele>
                <time>1970-01-01T01:06:12Z</time>
            </trkpt>
            <trkpt lon="101.412098" lat="14.160745">
                <ele>61.100000</ele>
                <time>1970-01-01T01:06:14Z</time>
            </trkpt>
            <trkpt lon="101.412057" lat="14.160756">
                <ele>61.400000</ele>
                <time>1970-01-01T01:06:16Z</time>
            </trkpt>
            <trkpt lon="101.412018" lat="14.160781">
                <ele>61.900000</ele>
                <time>1970-01-01T01:06:18Z</time>
            </trkpt>
            <trkpt lon="101.411981" lat="14.160807">
                <ele>62.400000</ele>
                <time>1970-01-01T01:06:20Z</time>
            </trkpt>
            <trkpt lon="101.411940" lat="14.160821">
                <ele>62.700000</ele>
                <time>1970-01-01T01:06:22Z</time>
            </trkpt>
            <trkpt lon="101.411899" lat="14.160836">
                <ele>62.900000</ele>
                <time>1970-01-01T01:06:24Z</time>
            </trkpt>
            <trkpt lon="101.411863" lat="14.160849">
                <ele>63.200000</ele>
                <time>1970-01-01T01:06:26Z</time>
            </trkpt>
            <trkpt lon="101.411825" lat="14.160864">
                <ele>63.400000</ele>
                <time>1970-01-01T01:06:28Z</time>
            </trkpt>
            <trkpt lon="101.411786" lat="14.160887">
                <ele>63.700000</ele>
                <time>1970-01-01T01:06:30Z</time>
            </trkpt>
            <trkpt lon="101.411751" lat="14.160910">
                <ele>63.700000</ele>
                <time>1970-01-01T01:06:32Z</time>
            </trkpt>
            <trkpt lon="101.411725" lat="14.160933">
                <ele>63.900000</ele>
                <time>1970-01-01T01:06:34Z</time>
            </trkpt>
            <trkpt lon="101.411694" lat="14.160954">
                <ele>64.200000</ele>
                <time>1970-01-01T01:06:36Z</time>
            </trkpt>
            <trkpt lon="101.411652" lat="14.160976">
                <ele>64.500000</ele>
                <time>1970-01-01T01:06:38Z</time>
            </trkpt>
            <trkpt lon="101.411613" lat="14.160995">
                <ele>64.700000</ele>
                <time>1970-01-01T01:06:40Z</time>
            </trkpt>
            <trkpt lon="101.411582" lat="14.161018">
                <ele>64.700000</ele>
                <time>1970-01-01T01:06:42Z</time>
            </trkpt>
            <trkpt lon="101.411551" lat="14.161031">
                <ele>64.900000</ele>
                <time>1970-01-01T01:06:44Z</time>
            </trkpt>
            <trkpt lon="101.411516" lat="14.161027">
                <ele>65.200000</ele>
                <time>1970-01-01T01:06:46Z</time>
            </trkpt>
            <trkpt lon="101.411477" lat="14.161026">
                <ele>65.400000</ele>
                <time>1970-01-01T01:06:48Z</time>
            </trkpt>
            <trkpt lon="101.411446" lat="14.161029">
                <ele>65.600000</ele>
                <time>1970-01-01T01:06:50Z</time>
            </trkpt>
            <trkpt lon="101.411415" lat="14.161033">
                <ele>65.600000</ele>
                <time>1970-01-01T01:06:52Z</time>
            </trkpt>
            <trkpt lon="101.411385" lat="14.161055">
                <ele>65.800000</ele>
                <time>1970-01-01T01:06:54Z</time>
            </trkpt>
            <trkpt lon="101.411364" lat="14.161095">
                <ele>65.900000</ele>
                <time>1970-01-01T01:06:56Z</time>
            </trkpt>
            <trkpt lon="101.411351" lat="14.161128">
                <ele>66.200000</ele>
                <time>1970-01-01T01:06:58Z</time>
            </trkpt>
            <trkpt lon="101.411337" lat="14.161158">
                <ele>66.200000</ele>
                <time>1970-01-01T01:07:00Z</time>
            </trkpt>
            <trkpt lon="101.411308" lat="14.161175">
                <ele>66.400000</ele>
                <time>1970-01-01T01:07:04Z</time>
            </trkpt>
            <trkpt lon="101.411280" lat="14.161180">
                <ele>66.400000</ele>
                <time>1970-01-01T01:07:06Z</time>
            </trkpt>
            <trkpt lon="101.411246" lat="14.161205">
                <ele>66.600000</ele>
                <time>1970-01-01T01:07:09Z</time>
            </trkpt>
            <trkpt lon="101.411230" lat="14.161233">
                <ele>66.800000</ele>
                <time>1970-01-01T01:07:11Z</time>
            </trkpt>
            <trkpt lon="101.411199" lat="14.161256">
                <ele>66.900000</ele>
                <time>1970-01-01T01:07:14Z</time>
            </trkpt>
            <trkpt lon="101.411167" lat="14.161257">
                <ele>67.100000</ele>
                <time>1970-01-01T01:07:16Z</time>
            </trkpt>
            <trkpt lon="101.411135" lat="14.161251">
                <ele>67.100000</ele>
                <time>1970-01-01T01:07:19Z</time>
            </trkpt>
            <trkpt lon="101.411107" lat="14.161244">
                <ele>67.100000</ele>
                <time>1970-01-01T01:07:21Z</time>
            </trkpt>
            <trkpt lon="101.411074" lat="14.161247">
                <ele>67.400000</ele>
                <time>1970-01-01T01:07:24Z</time>
            </trkpt>
            <trkpt lon="101.411046" lat="14.161243">
                <ele>67.600000</ele>
                <time>1970-01-01T01:07:27Z</time>
            </trkpt>
            <trkpt lon="101.411016" lat="14.161240">
                <ele>67.900000</ele>
                <time>1970-01-01T01:07:30Z</time>
            </trkpt>
            <trkpt lon="101.410993" lat="14.161265">
                <ele>68.100000</ele>
                <time>1970-01-01T01:07:34Z</time>
            </trkpt>
            <trkpt lon="101.410965" lat="14.161278">
                <ele>68.400000</ele>
                <time>1970-01-01T01:07:36Z</time>
            </trkpt>
            <trkpt lon="101.410940" lat="14.161261">
                <ele>68.400000</ele>
                <time>1970-01-01T01:07:39Z</time>
            </trkpt>
            <trkpt lon="101.410913" lat="14.161228">
                <ele>68.400000</ele>
                <time>1970-01-01T01:07:42Z</time>
            </trkpt>
            <trkpt lon="101.410887" lat="14.161200">
                <ele>68.400000</ele>
                <time>1970-01-01T01:07:44Z</time>
            </trkpt>
            <trkpt lon="101.410847" lat="14.161166">
                <ele>68.100000</ele>
                <time>1970-01-01T01:07:46Z</time>
            </trkpt>
            <trkpt lon="101.410821" lat="14.161140">
                <ele>68.400000</ele>
                <time>1970-01-01T01:07:47Z</time>
            </trkpt>
            <trkpt lon="101.410796" lat="14.161119">
                <ele>68.400000</ele>
                <time>1970-01-01T01:07:48Z</time>
            </trkpt>
            <trkpt lon="101.410760" lat="14.161104">
                <ele>68.900000</ele>
                <time>1970-01-01T01:07:49Z</time>
            </trkpt>
            <trkpt lon="101.410722" lat="14.161096">
                <ele>68.900000</ele>
                <time>1970-01-01T01:07:50Z</time>
            </trkpt>
            <trkpt lon="101.410683" lat="14.161093">
                <ele>69.600000</ele>
                <time>1970-01-01T01:07:51Z</time>
            </trkpt>
            <trkpt lon="101.410648" lat="14.161091">
                <ele>70.300000</ele>
                <time>1970-01-01T01:07:52Z</time>
            </trkpt>
            <trkpt lon="101.410616" lat="14.161085">
                <ele>70.600000</ele>
                <time>1970-01-01T01:07:53Z</time>
            </trkpt>
            <trkpt lon="101.410588" lat="14.161076">
                <ele>71.300000</ele>
                <time>1970-01-01T01:07:54Z</time>
            </trkpt>
            <trkpt lon="101.410538" lat="14.161055">
                <ele>72.200000</ele>
                <time>1970-01-01T01:07:56Z</time>
            </trkpt>
            <trkpt lon="101.410494" lat="14.161024">
                <ele>72.700000</ele>
                <time>1970-01-01T01:07:58Z</time>
            </trkpt>
            <trkpt lon="101.410469" lat="14.161005">
                <ele>72.700000</ele>
                <time>1970-01-01T01:07:59Z</time>
            </trkpt>
            <trkpt lon="101.410443" lat="14.160992">
                <ele>73.300000</ele>
                <time>1970-01-01T01:08:00Z</time>
            </trkpt>
            <trkpt lon="101.410401" lat="14.160971">
                <ele>74.000000</ele>
                <time>1970-01-01T01:08:02Z</time>
            </trkpt>
            <trkpt lon="101.410378" lat="14.160956">
                <ele>73.800000</ele>
                <time>1970-01-01T01:08:03Z</time>
            </trkpt>
            <trkpt lon="101.410354" lat="14.160935">
                <ele>74.300000</ele>
                <time>1970-01-01T01:08:04Z</time>
            </trkpt>
            <trkpt lon="101.410331" lat="14.160914">
                <ele>74.500000</ele>
                <time>1970-01-01T01:08:05Z</time>
            </trkpt>
            <trkpt lon="101.410311" lat="14.160891">
                <ele>74.500000</ele>
                <time>1970-01-01T01:08:06Z</time>
            </trkpt>
            <trkpt lon="101.410291" lat="14.160869">
                <ele>74.300000</ele>
                <time>1970-01-01T01:08:07Z</time>
            </trkpt>
            <trkpt lon="101.410262" lat="14.160828">
                <ele>74.500000</ele>
                <time>1970-01-01T01:08:09Z</time>
            </trkpt>
            <trkpt lon="101.410253" lat="14.160784">
                <ele>74.200000</ele>
                <time>1970-01-01T01:08:11Z</time>
            </trkpt>
            <trkpt lon="101.410238" lat="14.160755">
                <ele>74.500000</ele>
                <time>1970-01-01T01:08:13Z</time>
            </trkpt>
            <trkpt lon="101.410227" lat="14.160720">
                <ele>74.100000</ele>
                <time>1970-01-01T01:08:15Z</time>
            </trkpt>
            <trkpt lon="101.410243" lat="14.160693">
                <ele>73.600000</ele>
                <time>1970-01-01T01:08:18Z</time>
            </trkpt>
            <trkpt lon="101.410273" lat="14.160667">
                <ele>72.900000</ele>
                <time>1970-01-01T01:08:20Z</time>
            </trkpt>
            <trkpt lon="101.410311" lat="14.160638">
                <ele>72.800000</ele>
                <time>1970-01-01T01:08:22Z</time>
            </trkpt>
            <trkpt lon="101.410346" lat="14.160612">
                <ele>72.600000</ele>
                <time>1970-01-01T01:08:24Z</time>
            </trkpt>
            <trkpt lon="101.410358" lat="14.160558">
                <ele>72.600000</ele>
                <time>1970-01-01T01:08:26Z</time>
            </trkpt>
            <trkpt lon="101.410355" lat="14.160523">
                <ele>72.600000</ele>
                <time>1970-01-01T01:08:27Z</time>
            </trkpt>
            <trkpt lon="101.410349" lat="14.160491">
                <ele>72.600000</ele>
                <time>1970-01-01T01:08:28Z</time>
            </trkpt>
            <trkpt lon="101.410339" lat="14.160427">
                <ele>72.500000</ele>
                <time>1970-01-01T01:08:29Z</time>
            </trkpt>
            <trkpt lon="101.410332" lat="14.160399">
                <ele>72.400000</ele>
                <time>1970-01-01T01:08:30Z</time>
            </trkpt>
            <trkpt lon="101.410320" lat="14.160354">
                <ele>72.400000</ele>
                <time>1970-01-01T01:08:31Z</time>
            </trkpt>
            <trkpt lon="101.410312" lat="14.160319">
                <ele>72.300000</ele>
                <time>1970-01-01T01:08:32Z</time>
            </trkpt>
            <trkpt lon="101.410318" lat="14.160290">
                <ele>72.200000</ele>
                <time>1970-01-01T01:08:33Z</time>
            </trkpt>
            <trkpt lon="101.410330" lat="14.160256">
                <ele>72.200000</ele>
                <time>1970-01-01T01:08:35Z</time>
            </trkpt>
            <trkpt lon="101.410337" lat="14.160223">
                <ele>72.200000</ele>
                <time>1970-01-01T01:08:36Z</time>
            </trkpt>
            <trkpt lon="101.410348" lat="14.160196">
                <ele>72.300000</ele>
                <time>1970-01-01T01:08:38Z</time>
            </trkpt>
            <trkpt lon="101.410376" lat="14.160171">
                <ele>72.200000</ele>
                <time>1970-01-01T01:08:39Z</time>
            </trkpt>
            <trkpt lon="101.410428" lat="14.160142">
                <ele>72.400000</ele>
                <time>1970-01-01T01:08:41Z</time>
            </trkpt>
            <trkpt lon="101.410458" lat="14.160124">
                <ele>72.700000</ele>
                <time>1970-01-01T01:08:42Z</time>
            </trkpt>
            <trkpt lon="101.410509" lat="14.160097">
                <ele>72.700000</ele>
                <time>1970-01-01T01:08:44Z</time>
            </trkpt>
            <trkpt lon="101.410558" lat="14.160083">
                <ele>72.900000</ele>
                <time>1970-01-01T01:08:46Z</time>
            </trkpt>
            <trkpt lon="101.410590" lat="14.160081">
                <ele>72.900000</ele>
                <time>1970-01-01T01:08:47Z</time>
            </trkpt>
            <trkpt lon="101.410626" lat="14.160080">
                <ele>72.900000</ele>
                <time>1970-01-01T01:08:48Z</time>
            </trkpt>
            <trkpt lon="101.410657" lat="14.160078">
                <ele>72.800000</ele>
                <time>1970-01-01T01:08:49Z</time>
            </trkpt>
            <trkpt lon="101.410686" lat="14.160080">
                <ele>72.700000</ele>
                <time>1970-01-01T01:08:50Z</time>
            </trkpt>
            <trkpt lon="101.410716" lat="14.160075">
                <ele>72.700000</ele>
                <time>1970-01-01T01:08:51Z</time>
            </trkpt>
            <trkpt lon="101.410747" lat="14.160067">
                <ele>72.600000</ele>
                <time>1970-01-01T01:08:52Z</time>
            </trkpt>
            <trkpt lon="101.410777" lat="14.160053">
                <ele>72.500000</ele>
                <time>1970-01-01T01:08:53Z</time>
            </trkpt>
            <trkpt lon="101.410805" lat="14.160042">
                <ele>72.400000</ele>
                <time>1970-01-01T01:08:54Z</time>
            </trkpt>
            <trkpt lon="101.410842" lat="14.160035">
                <ele>72.400000</ele>
                <time>1970-01-01T01:08:55Z</time>
            </trkpt>
            <trkpt lon="101.410888" lat="14.160031">
                <ele>72.300000</ele>
                <time>1970-01-01T01:08:56Z</time>
            </trkpt>
            <trkpt lon="101.410933" lat="14.160024">
                <ele>72.100000</ele>
                <time>1970-01-01T01:08:57Z</time>
            </trkpt>
            <trkpt lon="101.410969" lat="14.160016">
                <ele>72.100000</ele>
                <time>1970-01-01T01:08:58Z</time>
            </trkpt>
            <trkpt lon="101.410998" lat="14.160005">
                <ele>71.800000</ele>
                <time>1970-01-01T01:08:59Z</time>
            </trkpt>
            <trkpt lon="101.411030" lat="14.159987">
                <ele>71.800000</ele>
                <time>1970-01-01T01:09:00Z</time>
            </trkpt>
            <trkpt lon="101.411061" lat="14.159967">
                <ele>71.800000</ele>
                <time>1970-01-01T01:09:01Z</time>
            </trkpt>
            <trkpt lon="101.411095" lat="14.159950">
                <ele>71.800000</ele>
                <time>1970-01-01T01:09:02Z</time>
            </trkpt>
            <trkpt lon="101.411126" lat="14.159936">
                <ele>71.700000</ele>
                <time>1970-01-01T01:09:03Z</time>
            </trkpt>
            <trkpt lon="101.411156" lat="14.159926">
                <ele>71.700000</ele>
                <time>1970-01-01T01:09:04Z</time>
            </trkpt>
            <trkpt lon="101.411186" lat="14.159920">
                <ele>71.900000</ele>
                <time>1970-01-01T01:09:05Z</time>
            </trkpt>
            <trkpt lon="101.411220" lat="14.159920">
                <ele>71.900000</ele>
                <time>1970-01-01T01:09:06Z</time>
            </trkpt>
            <trkpt lon="101.411255" lat="14.159923">
                <ele>71.700000</ele>
                <time>1970-01-01T01:09:07Z</time>
            </trkpt>
            <trkpt lon="101.411294" lat="14.159928">
                <ele>71.600000</ele>
                <time>1970-01-01T01:09:08Z</time>
            </trkpt>
            <trkpt lon="101.411332" lat="14.159929">
                <ele>71.400000</ele>
                <time>1970-01-01T01:09:09Z</time>
            </trkpt>
            <trkpt lon="101.411369" lat="14.159928">
                <ele>71.100000</ele>
                <time>1970-01-01T01:09:10Z</time>
            </trkpt>
            <trkpt lon="101.411405" lat="14.159923">
                <ele>70.900000</ele>
                <time>1970-01-01T01:09:11Z</time>
            </trkpt>
            <trkpt lon="101.411438" lat="14.159921">
                <ele>70.900000</ele>
                <time>1970-01-01T01:09:12Z</time>
            </trkpt>
            <trkpt lon="101.411469" lat="14.159921">
                <ele>70.800000</ele>
                <time>1970-01-01T01:09:13Z</time>
            </trkpt>
            <trkpt lon="101.411511" lat="14.159930">
                <ele>70.700000</ele>
                <time>1970-01-01T01:09:14Z</time>
            </trkpt>
            <trkpt lon="101.411557" lat="14.159941">
                <ele>70.700000</ele>
                <time>1970-01-01T01:09:15Z</time>
            </trkpt>
            <trkpt lon="101.411603" lat="14.159951">
                <ele>70.700000</ele>
                <time>1970-01-01T01:09:16Z</time>
            </trkpt>
            <trkpt lon="101.411646" lat="14.159955">
                <ele>70.500000</ele>
                <time>1970-01-01T01:09:17Z</time>
            </trkpt>
            <trkpt lon="101.411685" lat="14.159961">
                <ele>70.000000</ele>
                <time>1970-01-01T01:09:18Z</time>
            </trkpt>
            <trkpt lon="101.411718" lat="14.159971">
                <ele>69.200000</ele>
                <time>1970-01-01T01:09:19Z</time>
            </trkpt>
            <trkpt lon="101.411756" lat="14.159987">
                <ele>68.700000</ele>
                <time>1970-01-01T01:09:20Z</time>
            </trkpt>
            <trkpt lon="101.411793" lat="14.160007">
                <ele>68.100000</ele>
                <time>1970-01-01T01:09:21Z</time>
            </trkpt>
            <trkpt lon="101.411830" lat="14.160026">
                <ele>68.100000</ele>
                <time>1970-01-01T01:09:22Z</time>
            </trkpt>
            <trkpt lon="101.411869" lat="14.160039">
                <ele>67.900000</ele>
                <time>1970-01-01T01:09:23Z</time>
            </trkpt>
            <trkpt lon="101.411907" lat="14.160046">
                <ele>67.400000</ele>
                <time>1970-01-01T01:09:24Z</time>
            </trkpt>
            <trkpt lon="101.411938" lat="14.160052">
                <ele>67.100000</ele>
                <time>1970-01-01T01:09:25Z</time>
            </trkpt>
            <trkpt lon="101.411990" lat="14.160064">
                <ele>66.900000</ele>
                <time>1970-01-01T01:09:27Z</time>
            </trkpt>
            <trkpt lon="101.412020" lat="14.160074">
                <ele>66.600000</ele>
                <time>1970-01-01T01:09:28Z</time>
            </trkpt>
            <trkpt lon="101.412052" lat="14.160085">
                <ele>66.400000</ele>
                <time>1970-01-01T01:09:29Z</time>
            </trkpt>
            <trkpt lon="101.412102" lat="14.160090">
                <ele>65.900000</ele>
                <time>1970-01-01T01:09:31Z</time>
            </trkpt>
            <trkpt lon="101.412131" lat="14.160092">
                <ele>65.900000</ele>
                <time>1970-01-01T01:09:32Z</time>
            </trkpt>
            <trkpt lon="101.412160" lat="14.160088">
                <ele>65.500000</ele>
                <time>1970-01-01T01:09:33Z</time>
            </trkpt>
            <trkpt lon="101.412188" lat="14.160092">
                <ele>65.100000</ele>
                <time>1970-01-01T01:09:34Z</time>
            </trkpt>
            <trkpt lon="101.412218" lat="14.160102">
                <ele>65.100000</ele>
                <time>1970-01-01T01:09:35Z</time>
            </trkpt>
            <trkpt lon="101.412247" lat="14.160118">
                <ele>64.600000</ele>
                <time>1970-01-01T01:09:36Z</time>
            </trkpt>
            <trkpt lon="101.412278" lat="14.160132">
                <ele>63.800000</ele>
                <time>1970-01-01T01:09:37Z</time>
            </trkpt>
            <trkpt lon="101.412314" lat="14.160138">
                <ele>63.400000</ele>
                <time>1970-01-01T01:09:38Z</time>
            </trkpt>
            <trkpt lon="101.412355" lat="14.160138">
                <ele>63.100000</ele>
                <time>1970-01-01T01:09:39Z</time>
            </trkpt>
            <trkpt lon="101.412396" lat="14.160132">
                <ele>62.900000</ele>
                <time>1970-01-01T01:09:40Z</time>
            </trkpt>
            <trkpt lon="101.412433" lat="14.160118">
                <ele>63.200000</ele>
                <time>1970-01-01T01:09:41Z</time>
            </trkpt>
            <trkpt lon="101.412464" lat="14.160108">
                <ele>63.000000</ele>
                <time>1970-01-01T01:09:42Z</time>
            </trkpt>
            <trkpt lon="101.412494" lat="14.160096">
                <ele>62.700000</ele>
                <time>1970-01-01T01:09:43Z</time>
            </trkpt>
            <trkpt lon="101.412529" lat="14.160086">
                <ele>63.000000</ele>
                <time>1970-01-01T01:09:44Z</time>
            </trkpt>
            <trkpt lon="101.412567" lat="14.160076">
                <ele>62.700000</ele>
                <time>1970-01-01T01:09:45Z</time>
            </trkpt>
            <trkpt lon="101.412591" lat="14.160059">
                <ele>62.700000</ele>
                <time>1970-01-01T01:09:46Z</time>
            </trkpt>
            <trkpt lon="101.412617" lat="14.160025">
                <ele>63.000000</ele>
                <time>1970-01-01T01:09:48Z</time>
            </trkpt>
            <trkpt lon="101.412641" lat="14.160007">
                <ele>63.000000</ele>
                <time>1970-01-01T01:09:49Z</time>
            </trkpt>
            <trkpt lon="101.412671" lat="14.159992">
                <ele>63.200000</ele>
                <time>1970-01-01T01:09:50Z</time>
            </trkpt>
            <trkpt lon="101.412703" lat="14.159981">
                <ele>63.000000</ele>
                <time>1970-01-01T01:09:51Z</time>
            </trkpt>
            <trkpt lon="101.412739" lat="14.159970">
                <ele>62.700000</ele>
                <time>1970-01-01T01:09:52Z</time>
            </trkpt>
            <trkpt lon="101.412774" lat="14.159961">
                <ele>63.200000</ele>
                <time>1970-01-01T01:09:53Z</time>
            </trkpt>
            <trkpt lon="101.412806" lat="14.159954">
                <ele>63.000000</ele>
                <time>1970-01-01T01:09:54Z</time>
            </trkpt>
            <trkpt lon="101.412847" lat="14.159938">
                <ele>62.800000</ele>
                <time>1970-01-01T01:09:55Z</time>
            </trkpt>
            <trkpt lon="101.412882" lat="14.159925">
                <ele>62.800000</ele>
                <time>1970-01-01T01:09:56Z</time>
            </trkpt>
            <trkpt lon="101.412910" lat="14.159911">
                <ele>63.300000</ele>
                <time>1970-01-01T01:09:57Z</time>
            </trkpt>
            <trkpt lon="101.412931" lat="14.159891">
                <ele>63.300000</ele>
                <time>1970-01-01T01:09:58Z</time>
            </trkpt>
            <trkpt lon="101.412937" lat="14.159863">
                <ele>63.800000</ele>
                <time>1970-01-01T01:09:59Z</time>
            </trkpt>
            <trkpt lon="101.412936" lat="14.159835">
                <ele>64.300000</ele>
                <time>1970-01-01T01:10:00Z</time>
            </trkpt>
            <trkpt lon="101.412938" lat="14.159801">
                <ele>64.300000</ele>
                <time>1970-01-01T01:10:02Z</time>
            </trkpt>
            <trkpt lon="101.412963" lat="14.159773">
                <ele>64.700000</ele>
                <time>1970-01-01T01:10:04Z</time>
            </trkpt>
            <trkpt lon="101.412996" lat="14.159739">
                <ele>64.600000</ele>
                <time>1970-01-01T01:10:06Z</time>
            </trkpt>
            <trkpt lon="101.413004" lat="14.159704">
                <ele>64.700000</ele>
                <time>1970-01-01T01:10:08Z</time>
            </trkpt>
            <trkpt lon="101.413013" lat="14.159657">
                <ele>64.700000</ele>
                <time>1970-01-01T01:10:10Z</time>
            </trkpt>
            <trkpt lon="101.413026" lat="14.159631">
                <ele>64.700000</ele>
                <time>1970-01-01T01:10:12Z</time>
            </trkpt>
            <trkpt lon="101.413046" lat="14.159598">
                <ele>65.100000</ele>
                <time>1970-01-01T01:10:15Z</time>
            </trkpt>
            <trkpt lon="101.413053" lat="14.159569">
                <ele>65.300000</ele>
                <time>1970-01-01T01:10:16Z</time>
            </trkpt>
            <trkpt lon="101.413062" lat="14.159534">
                <ele>65.600000</ele>
                <time>1970-01-01T01:10:17Z</time>
            </trkpt>
            <trkpt lon="101.413071" lat="14.159499">
                <ele>65.800000</ele>
                <time>1970-01-01T01:10:18Z</time>
            </trkpt>
            <trkpt lon="101.413081" lat="14.159468">
                <ele>66.100000</ele>
                <time>1970-01-01T01:10:19Z</time>
            </trkpt>
            <trkpt lon="101.413094" lat="14.159442">
                <ele>66.200000</ele>
                <time>1970-01-01T01:10:20Z</time>
            </trkpt>
            <trkpt lon="101.413125" lat="14.159403">
                <ele>66.500000</ele>
                <time>1970-01-01T01:10:22Z</time>
            </trkpt>
            <trkpt lon="101.413148" lat="14.159382">
                <ele>66.500000</ele>
                <time>1970-01-01T01:10:24Z</time>
            </trkpt>
            <trkpt lon="101.413161" lat="14.159350">
                <ele>66.500000</ele>
                <time>1970-01-01T01:10:28Z</time>
            </trkpt>
            <trkpt lon="101.413169" lat="14.159318">
                <ele>66.700000</ele>
                <time>1970-01-01T01:10:29Z</time>
            </trkpt>
            <trkpt lon="101.413175" lat="14.159283">
                <ele>66.700000</ele>
                <time>1970-01-01T01:10:30Z</time>
            </trkpt>
            <trkpt lon="101.413182" lat="14.159242">
                <ele>66.700000</ele>
                <time>1970-01-01T01:10:31Z</time>
            </trkpt>
            <trkpt lon="101.413187" lat="14.159197">
                <ele>66.700000</ele>
                <time>1970-01-01T01:10:32Z</time>
            </trkpt>
            <trkpt lon="101.413190" lat="14.159159">
                <ele>66.700000</ele>
                <time>1970-01-01T01:10:33Z</time>
            </trkpt>
            <trkpt lon="101.413196" lat="14.159128">
                <ele>66.700000</ele>
                <time>1970-01-01T01:10:34Z</time>
            </trkpt>
            <trkpt lon="101.413206" lat="14.159102">
                <ele>66.700000</ele>
                <time>1970-01-01T01:10:35Z</time>
            </trkpt>
            <trkpt lon="101.413222" lat="14.159078">
                <ele>66.600000</ele>
                <time>1970-01-01T01:10:36Z</time>
            </trkpt>
            <trkpt lon="101.413241" lat="14.159052">
                <ele>66.600000</ele>
                <time>1970-01-01T01:10:37Z</time>
            </trkpt>
            <trkpt lon="101.413264" lat="14.159023">
                <ele>66.300000</ele>
                <time>1970-01-01T01:10:38Z</time>
            </trkpt>
            <trkpt lon="101.413294" lat="14.158988">
                <ele>66.000000</ele>
                <time>1970-01-01T01:10:39Z</time>
            </trkpt>
            <trkpt lon="101.413326" lat="14.158956">
                <ele>65.800000</ele>
                <time>1970-01-01T01:10:40Z</time>
            </trkpt>
            <trkpt lon="101.413364" lat="14.158927">
                <ele>65.600000</ele>
                <time>1970-01-01T01:10:41Z</time>
            </trkpt>
            <trkpt lon="101.413401" lat="14.158901">
                <ele>65.300000</ele>
                <time>1970-01-01T01:10:42Z</time>
            </trkpt>
            <trkpt lon="101.413440" lat="14.158880">
                <ele>65.100000</ele>
                <time>1970-01-01T01:10:43Z</time>
            </trkpt>
            <trkpt lon="101.413484" lat="14.158865">
                <ele>64.800000</ele>
                <time>1970-01-01T01:10:44Z</time>
            </trkpt>
            <trkpt lon="101.413527" lat="14.158857">
                <ele>64.700000</ele>
                <time>1970-01-01T01:10:45Z</time>
            </trkpt>
            <trkpt lon="101.413563" lat="14.158845">
                <ele>64.700000</ele>
                <time>1970-01-01T01:10:46Z</time>
            </trkpt>
            <trkpt lon="101.413596" lat="14.158816">
                <ele>64.700000</ele>
                <time>1970-01-01T01:10:47Z</time>
            </trkpt>
            <trkpt lon="101.413621" lat="14.158778">
                <ele>64.700000</ele>
                <time>1970-01-01T01:10:48Z</time>
            </trkpt>
            <trkpt lon="101.413628" lat="14.158734">
                <ele>64.700000</ele>
                <time>1970-01-01T01:10:49Z</time>
            </trkpt>
            <trkpt lon="101.413621" lat="14.158696">
                <ele>64.700000</ele>
                <time>1970-01-01T01:10:50Z</time>
            </trkpt>
            <trkpt lon="101.413619" lat="14.158652">
                <ele>64.700000</ele>
                <time>1970-01-01T01:10:51Z</time>
            </trkpt>
            <trkpt lon="101.413617" lat="14.158620">
                <ele>64.600000</ele>
                <time>1970-01-01T01:10:52Z</time>
            </trkpt>
            <trkpt lon="101.413609" lat="14.158571">
                <ele>64.500000</ele>
                <time>1970-01-01T01:10:54Z</time>
            </trkpt>
            <trkpt lon="101.413587" lat="14.158532">
                <ele>64.500000</ele>
                <time>1970-01-01T01:10:56Z</time>
            </trkpt>
            <trkpt lon="101.413569" lat="14.158510">
                <ele>64.500000</ele>
                <time>1970-01-01T01:10:57Z</time>
            </trkpt>
            <trkpt lon="101.413548" lat="14.158488">
                <ele>64.600000</ele>
                <time>1970-01-01T01:10:58Z</time>
            </trkpt>
            <trkpt lon="101.413522" lat="14.158465">
                <ele>64.700000</ele>
                <time>1970-01-01T01:10:59Z</time>
            </trkpt>
            <trkpt lon="101.413498" lat="14.158440">
                <ele>64.700000</ele>
                <time>1970-01-01T01:11:00Z</time>
            </trkpt>
            <trkpt lon="101.413474" lat="14.158416">
                <ele>64.800000</ele>
                <time>1970-01-01T01:11:01Z</time>
            </trkpt>
            <trkpt lon="101.413452" lat="14.158392">
                <ele>64.700000</ele>
                <time>1970-01-01T01:11:02Z</time>
            </trkpt>
            <trkpt lon="101.413421" lat="14.158367">
                <ele>64.700000</ele>
                <time>1970-01-01T01:11:03Z</time>
            </trkpt>
            <trkpt lon="101.413386" lat="14.158345">
                <ele>64.900000</ele>
                <time>1970-01-01T01:11:04Z</time>
            </trkpt>
            <trkpt lon="101.413346" lat="14.158326">
                <ele>65.300000</ele>
                <time>1970-01-01T01:11:05Z</time>
            </trkpt>
            <trkpt lon="101.413310" lat="14.158311">
                <ele>65.700000</ele>
                <time>1970-01-01T01:11:06Z</time>
            </trkpt>
            <trkpt lon="101.413280" lat="14.158303">
                <ele>66.100000</ele>
                <time>1970-01-01T01:11:07Z</time>
            </trkpt>
            <trkpt lon="101.413249" lat="14.158297">
                <ele>66.400000</ele>
                <time>1970-01-01T01:11:08Z</time>
            </trkpt>
            <trkpt lon="101.413215" lat="14.158292">
                <ele>66.700000</ele>
                <time>1970-01-01T01:11:09Z</time>
            </trkpt>
            <trkpt lon="101.413177" lat="14.158280">
                <ele>66.900000</ele>
                <time>1970-01-01T01:11:10Z</time>
            </trkpt>
            <trkpt lon="101.413146" lat="14.158262">
                <ele>67.100000</ele>
                <time>1970-01-01T01:11:11Z</time>
            </trkpt>
            <trkpt lon="101.413120" lat="14.158246">
                <ele>67.300000</ele>
                <time>1970-01-01T01:11:12Z</time>
            </trkpt>
            <trkpt lon="101.413080" lat="14.158221">
                <ele>67.600000</ele>
                <time>1970-01-01T01:11:14Z</time>
            </trkpt>
            <trkpt lon="101.413045" lat="14.158198">
                <ele>67.800000</ele>
                <time>1970-01-01T01:11:17Z</time>
            </trkpt>
            <trkpt lon="101.413010" lat="14.158164">
                <ele>68.100000</ele>
                <time>1970-01-01T01:11:19Z</time>
            </trkpt>
            <trkpt lon="101.412989" lat="14.158143">
                <ele>68.200000</ele>
                <time>1970-01-01T01:11:20Z</time>
            </trkpt>
            <trkpt lon="101.412963" lat="14.158118">
                <ele>68.400000</ele>
                <time>1970-01-01T01:11:21Z</time>
            </trkpt>
            <trkpt lon="101.412930" lat="14.158097">
                <ele>68.500000</ele>
                <time>1970-01-01T01:11:22Z</time>
            </trkpt>
            <trkpt lon="101.412896" lat="14.158078">
                <ele>68.500000</ele>
                <time>1970-01-01T01:11:23Z</time>
            </trkpt>
            <trkpt lon="101.412864" lat="14.158062">
                <ele>68.500000</ele>
                <time>1970-01-01T01:11:24Z</time>
            </trkpt>
            <trkpt lon="101.412837" lat="14.158049">
                <ele>68.500000</ele>
                <time>1970-01-01T01:11:25Z</time>
            </trkpt>
            <trkpt lon="101.412808" lat="14.158035">
                <ele>68.500000</ele>
                <time>1970-01-01T01:11:26Z</time>
            </trkpt>
            <trkpt lon="101.412773" lat="14.158019">
                <ele>68.600000</ele>
                <time>1970-01-01T01:11:27Z</time>
            </trkpt>
            <trkpt lon="101.412742" lat="14.158003">
                <ele>68.600000</ele>
                <time>1970-01-01T01:11:28Z</time>
            </trkpt>
            <trkpt lon="101.412713" lat="14.157987">
                <ele>68.600000</ele>
                <time>1970-01-01T01:11:29Z</time>
            </trkpt>
            <trkpt lon="101.412681" lat="14.157968">
                <ele>68.600000</ele>
                <time>1970-01-01T01:11:30Z</time>
            </trkpt>
            <trkpt lon="101.412649" lat="14.157950">
                <ele>68.600000</ele>
                <time>1970-01-01T01:11:31Z</time>
            </trkpt>
            <trkpt lon="101.412620" lat="14.157936">
                <ele>68.600000</ele>
                <time>1970-01-01T01:11:32Z</time>
            </trkpt>
            <trkpt lon="101.412592" lat="14.157924">
                <ele>68.600000</ele>
                <time>1970-01-01T01:11:33Z</time>
            </trkpt>
            <trkpt lon="101.412561" lat="14.157907">
                <ele>68.600000</ele>
                <time>1970-01-01T01:11:34Z</time>
            </trkpt>
            <trkpt lon="101.412533" lat="14.157890">
                <ele>68.600000</ele>
                <time>1970-01-01T01:11:35Z</time>
            </trkpt>
            <trkpt lon="101.412493" lat="14.157854">
                <ele>68.600000</ele>
                <time>1970-01-01T01:11:37Z</time>
            </trkpt>
            <trkpt lon="101.412469" lat="14.157828">
                <ele>68.600000</ele>
                <time>1970-01-01T01:11:38Z</time>
            </trkpt>
            <trkpt lon="101.412448" lat="14.157804">
                <ele>68.600000</ele>
                <time>1970-01-01T01:11:39Z</time>
            </trkpt>
            <trkpt lon="101.412429" lat="14.157779">
                <ele>68.600000</ele>
                <time>1970-01-01T01:11:40Z</time>
            </trkpt>
            <trkpt lon="101.412411" lat="14.157756">
                <ele>68.600000</ele>
                <time>1970-01-01T01:11:41Z</time>
            </trkpt>
            <trkpt lon="101.412376" lat="14.157718">
                <ele>68.600000</ele>
                <time>1970-01-01T01:11:43Z</time>
            </trkpt>
            <trkpt lon="101.412349" lat="14.157703">
                <ele>68.600000</ele>
                <time>1970-01-01T01:11:44Z</time>
            </trkpt>
            <trkpt lon="101.412318" lat="14.157691">
                <ele>68.600000</ele>
                <time>1970-01-01T01:11:45Z</time>
            </trkpt>
            <trkpt lon="101.412284" lat="14.157681">
                <ele>68.600000</ele>
                <time>1970-01-01T01:11:46Z</time>
            </trkpt>
            <trkpt lon="101.412252" lat="14.157669">
                <ele>68.800000</ele>
                <time>1970-01-01T01:11:47Z</time>
            </trkpt>
            <trkpt lon="101.412224" lat="14.157656">
                <ele>69.100000</ele>
                <time>1970-01-01T01:11:48Z</time>
            </trkpt>
            <trkpt lon="101.412195" lat="14.157644">
                <ele>69.300000</ele>
                <time>1970-01-01T01:11:49Z</time>
            </trkpt>
            <trkpt lon="101.412165" lat="14.157630">
                <ele>69.700000</ele>
                <time>1970-01-01T01:11:50Z</time>
            </trkpt>
            <trkpt lon="101.412138" lat="14.157619">
                <ele>70.000000</ele>
                <time>1970-01-01T01:11:51Z</time>
            </trkpt>
            <trkpt lon="101.412111" lat="14.157606">
                <ele>70.400000</ele>
                <time>1970-01-01T01:11:52Z</time>
            </trkpt>
            <trkpt lon="101.412084" lat="14.157591">
                <ele>70.600000</ele>
                <time>1970-01-01T01:11:53Z</time>
            </trkpt>
            <trkpt lon="101.412057" lat="14.157576">
                <ele>70.800000</ele>
                <time>1970-01-01T01:11:54Z</time>
            </trkpt>
            <trkpt lon="101.412032" lat="14.157562">
                <ele>71.000000</ele>
                <time>1970-01-01T01:11:55Z</time>
            </trkpt>
            <trkpt lon="101.411980" lat="14.157536">
                <ele>71.300000</ele>
                <time>1970-01-01T01:11:57Z</time>
            </trkpt>
            <trkpt lon="101.411946" lat="14.157521">
                <ele>71.500000</ele>
                <time>1970-01-01T01:11:58Z</time>
            </trkpt>
            <trkpt lon="101.411911" lat="14.157502">
                <ele>71.600000</ele>
                <time>1970-01-01T01:11:59Z</time>
            </trkpt>
            <trkpt lon="101.411881" lat="14.157484">
                <ele>71.700000</ele>
                <time>1970-01-01T01:12:00Z</time>
            </trkpt>
            <trkpt lon="101.411855" lat="14.157465">
                <ele>71.800000</ele>
                <time>1970-01-01T01:12:01Z</time>
            </trkpt>
            <trkpt lon="101.411831" lat="14.157448">
                <ele>72.000000</ele>
                <time>1970-01-01T01:12:02Z</time>
            </trkpt>
            <trkpt lon="101.411806" lat="14.157432">
                <ele>72.100000</ele>
                <time>1970-01-01T01:12:03Z</time>
            </trkpt>
            <trkpt lon="101.411776" lat="14.157415">
                <ele>72.400000</ele>
                <time>1970-01-01T01:12:04Z</time>
            </trkpt>
            <trkpt lon="101.411748" lat="14.157399">
                <ele>72.700000</ele>
                <time>1970-01-01T01:12:05Z</time>
            </trkpt>
            <trkpt lon="101.411722" lat="14.157383">
                <ele>72.900000</ele>
                <time>1970-01-01T01:12:06Z</time>
            </trkpt>
            <trkpt lon="101.411677" lat="14.157351">
                <ele>73.200000</ele>
                <time>1970-01-01T01:12:08Z</time>
            </trkpt>
            <trkpt lon="101.411656" lat="14.157331">
                <ele>73.500000</ele>
                <time>1970-01-01T01:12:09Z</time>
            </trkpt>
            <trkpt lon="101.411628" lat="14.157313">
                <ele>73.800000</ele>
                <time>1970-01-01T01:12:11Z</time>
            </trkpt>
            <trkpt lon="101.411578" lat="14.157285">
                <ele>74.200000</ele>
                <time>1970-01-01T01:12:13Z</time>
            </trkpt>
            <trkpt lon="101.411537" lat="14.157255">
                <ele>74.200000</ele>
                <time>1970-01-01T01:12:15Z</time>
            </trkpt>
            <trkpt lon="101.411513" lat="14.157233">
                <ele>74.300000</ele>
                <time>1970-01-01T01:12:16Z</time>
            </trkpt>
            <trkpt lon="101.411489" lat="14.157211">
                <ele>74.400000</ele>
                <time>1970-01-01T01:12:17Z</time>
            </trkpt>
            <trkpt lon="101.411466" lat="14.157190">
                <ele>74.400000</ele>
                <time>1970-01-01T01:12:18Z</time>
            </trkpt>
            <trkpt lon="101.411439" lat="14.157166">
                <ele>74.300000</ele>
                <time>1970-01-01T01:12:19Z</time>
            </trkpt>
            <trkpt lon="101.411407" lat="14.157144">
                <ele>74.200000</ele>
                <time>1970-01-01T01:12:20Z</time>
            </trkpt>
            <trkpt lon="101.411373" lat="14.157126">
                <ele>74.200000</ele>
                <time>1970-01-01T01:12:21Z</time>
            </trkpt>
            <trkpt lon="101.411339" lat="14.157107">
                <ele>74.100000</ele>
                <time>1970-01-01T01:12:22Z</time>
            </trkpt>
            <trkpt lon="101.411311" lat="14.157087">
                <ele>74.100000</ele>
                <time>1970-01-01T01:12:23Z</time>
            </trkpt>
            <trkpt lon="101.411288" lat="14.157058">
                <ele>74.100000</ele>
                <time>1970-01-01T01:12:24Z</time>
            </trkpt>
            <trkpt lon="101.411269" lat="14.157032">
                <ele>74.200000</ele>
                <time>1970-01-01T01:12:25Z</time>
            </trkpt>
            <trkpt lon="101.411245" lat="14.157003">
                <ele>74.200000</ele>
                <time>1970-01-01T01:12:27Z</time>
            </trkpt>
            <trkpt lon="101.411212" lat="14.156979">
                <ele>74.200000</ele>
                <time>1970-01-01T01:12:29Z</time>
            </trkpt>
            <trkpt lon="101.411165" lat="14.156963">
                <ele>74.000000</ele>
                <time>1970-01-01T01:12:31Z</time>
            </trkpt>
            <trkpt lon="101.411138" lat="14.156951">
                <ele>73.900000</ele>
                <time>1970-01-01T01:12:32Z</time>
            </trkpt>
            <trkpt lon="101.411113" lat="14.156939">
                <ele>73.800000</ele>
                <time>1970-01-01T01:12:33Z</time>
            </trkpt>
            <trkpt lon="101.411087" lat="14.156927">
                <ele>73.700000</ele>
                <time>1970-01-01T01:12:34Z</time>
            </trkpt>
            <trkpt lon="101.411060" lat="14.156911">
                <ele>73.600000</ele>
                <time>1970-01-01T01:12:35Z</time>
            </trkpt>
            <trkpt lon="101.411031" lat="14.156890">
                <ele>73.500000</ele>
                <time>1970-01-01T01:12:36Z</time>
            </trkpt>
            <trkpt lon="101.410998" lat="14.156863">
                <ele>73.500000</ele>
                <time>1970-01-01T01:12:37Z</time>
            </trkpt>
            <trkpt lon="101.410966" lat="14.156837">
                <ele>73.500000</ele>
                <time>1970-01-01T01:12:38Z</time>
            </trkpt>
            <trkpt lon="101.410936" lat="14.156812">
                <ele>73.500000</ele>
                <time>1970-01-01T01:12:39Z</time>
            </trkpt>
            <trkpt lon="101.410908" lat="14.156794">
                <ele>73.500000</ele>
                <time>1970-01-01T01:12:40Z</time>
            </trkpt>
            <trkpt lon="101.410880" lat="14.156777">
                <ele>73.500000</ele>
                <time>1970-01-01T01:12:41Z</time>
            </trkpt>
            <trkpt lon="101.410845" lat="14.156758">
                <ele>73.400000</ele>
                <time>1970-01-01T01:12:42Z</time>
            </trkpt>
            <trkpt lon="101.410809" lat="14.156731">
                <ele>73.400000</ele>
                <time>1970-01-01T01:12:43Z</time>
            </trkpt>
            <trkpt lon="101.410780" lat="14.156706">
                <ele>73.400000</ele>
                <time>1970-01-01T01:12:44Z</time>
            </trkpt>
            <trkpt lon="101.410754" lat="14.156682">
                <ele>73.400000</ele>
                <time>1970-01-01T01:12:45Z</time>
            </trkpt>
            <trkpt lon="101.410732" lat="14.156657">
                <ele>73.400000</ele>
                <time>1970-01-01T01:12:46Z</time>
            </trkpt>
            <trkpt lon="101.410701" lat="14.156620">
                <ele>73.400000</ele>
                <time>1970-01-01T01:12:48Z</time>
            </trkpt>
            <trkpt lon="101.410672" lat="14.156594">
                <ele>73.400000</ele>
                <time>1970-01-01T01:12:49Z</time>
            </trkpt>
            <trkpt lon="101.410640" lat="14.156568">
                <ele>73.400000</ele>
                <time>1970-01-01T01:12:50Z</time>
            </trkpt>
            <trkpt lon="101.410606" lat="14.156543">
                <ele>73.300000</ele>
                <time>1970-01-01T01:12:51Z</time>
            </trkpt>
            <trkpt lon="101.410544" lat="14.156515">
                <ele>73.100000</ele>
                <time>1970-01-01T01:12:52Z</time>
            </trkpt>
            <trkpt lon="101.410516" lat="14.156486">
                <ele>73.000000</ele>
                <time>1970-01-01T01:12:53Z</time>
            </trkpt>
            <trkpt lon="101.410483" lat="14.156450">
                <ele>72.800000</ele>
                <time>1970-01-01T01:12:54Z</time>
            </trkpt>
            <trkpt lon="101.410447" lat="14.156423">
                <ele>72.600000</ele>
                <time>1970-01-01T01:12:55Z</time>
            </trkpt>
            <trkpt lon="101.410401" lat="14.156378">
                <ele>72.700000</ele>
                <time>1970-01-01T01:12:56Z</time>
            </trkpt>
            <trkpt lon="101.410357" lat="14.156338">
                <ele>72.800000</ele>
                <time>1970-01-01T01:12:57Z</time>
            </trkpt>
            <trkpt lon="101.410318" lat="14.156301">
                <ele>72.600000</ele>
                <time>1970-01-01T01:12:58Z</time>
            </trkpt>
            <trkpt lon="101.410268" lat="14.156242">
                <ele>72.600000</ele>
                <time>1970-01-01T01:12:59Z</time>
            </trkpt>
            <trkpt lon="101.410228" lat="14.156218">
                <ele>72.600000</ele>
                <time>1970-01-01T01:13:00Z</time>
            </trkpt>
            <trkpt lon="101.410195" lat="14.156185">
                <ele>72.500000</ele>
                <time>1970-01-01T01:13:01Z</time>
            </trkpt>
            <trkpt lon="101.410137" lat="14.156165">
                <ele>72.500000</ele>
                <time>1970-01-01T01:13:03Z</time>
            </trkpt>
            <trkpt lon="101.410117" lat="14.156143">
                <ele>72.600000</ele>
                <time>1970-01-01T01:13:04Z</time>
            </trkpt>
            <trkpt lon="101.410085" lat="14.156114">
                <ele>72.600000</ele>
                <time>1970-01-01T01:13:05Z</time>
            </trkpt>
            <trkpt lon="101.410042" lat="14.156076">
                <ele>72.400000</ele>
                <time>1970-01-01T01:13:06Z</time>
            </trkpt>
            <trkpt lon="101.409994" lat="14.156005">
                <ele>72.600000</ele>
                <time>1970-01-01T01:13:07Z</time>
            </trkpt>
            <trkpt lon="101.409943" lat="14.155952">
                <ele>72.600000</ele>
                <time>1970-01-01T01:13:08Z</time>
            </trkpt>
            <trkpt lon="101.409907" lat="14.155903">
                <ele>72.500000</ele>
                <time>1970-01-01T01:13:09Z</time>
            </trkpt>
            <trkpt lon="101.409868" lat="14.155861">
                <ele>72.200000</ele>
                <time>1970-01-01T01:13:10Z</time>
            </trkpt>
            <trkpt lon="101.409832" lat="14.155811">
                <ele>72.200000</ele>
                <time>1970-01-01T01:13:11Z</time>
            </trkpt>
            <trkpt lon="101.409782" lat="14.155771">
                <ele>71.700000</ele>
                <time>1970-01-01T01:13:12Z</time>
            </trkpt>
            <trkpt lon="101.409742" lat="14.155729">
                <ele>71.000000</ele>
                <time>1970-01-01T01:13:13Z</time>
            </trkpt>
            <trkpt lon="101.409680" lat="14.155690">
                <ele>70.400000</ele>
                <time>1970-01-01T01:13:14Z</time>
            </trkpt>
            <trkpt lon="101.409633" lat="14.155651">
                <ele>69.700000</ele>
                <time>1970-01-01T01:13:15Z</time>
            </trkpt>
            <trkpt lon="101.409601" lat="14.155611">
                <ele>69.100000</ele>
                <time>1970-01-01T01:13:16Z</time>
            </trkpt>
            <trkpt lon="101.409544" lat="14.155559">
                <ele>68.400000</ele>
                <time>1970-01-01T01:13:17Z</time>
            </trkpt>
            <trkpt lon="101.409505" lat="14.155509">
                <ele>67.700000</ele>
                <time>1970-01-01T01:13:18Z</time>
            </trkpt>
            <trkpt lon="101.409451" lat="14.155474">
                <ele>67.400000</ele>
                <time>1970-01-01T01:13:19Z</time>
            </trkpt>
            <trkpt lon="101.409410" lat="14.155433">
                <ele>67.400000</ele>
                <time>1970-01-01T01:13:20Z</time>
            </trkpt>
            <trkpt lon="101.409366" lat="14.155392">
                <ele>67.300000</ele>
                <time>1970-01-01T01:13:21Z</time>
            </trkpt>
            <trkpt lon="101.409331" lat="14.155364">
                <ele>67.300000</ele>
                <time>1970-01-01T01:13:22Z</time>
            </trkpt>
            <trkpt lon="101.409298" lat="14.155332">
                <ele>67.200000</ele>
                <time>1970-01-01T01:13:23Z</time>
            </trkpt>
            <trkpt lon="101.409269" lat="14.155294">
                <ele>67.000000</ele>
                <time>1970-01-01T01:13:24Z</time>
            </trkpt>
            <trkpt lon="101.409207" lat="14.155288">
                <ele>66.800000</ele>
                <time>1970-01-01T01:13:25Z</time>
            </trkpt>
            <trkpt lon="101.409155" lat="14.155276">
                <ele>66.500000</ele>
                <time>1970-01-01T01:13:26Z</time>
            </trkpt>
            <trkpt lon="101.409097" lat="14.155266">
                <ele>66.300000</ele>
                <time>1970-01-01T01:13:27Z</time>
            </trkpt>
            <trkpt lon="101.409034" lat="14.155263">
                <ele>66.100000</ele>
                <time>1970-01-01T01:13:28Z</time>
            </trkpt>
            <trkpt lon="101.408963" lat="14.155256">
                <ele>65.900000</ele>
                <time>1970-01-01T01:13:29Z</time>
            </trkpt>
            <trkpt lon="101.408899" lat="14.155235">
                <ele>65.900000</ele>
                <time>1970-01-01T01:13:30Z</time>
            </trkpt>
            <trkpt lon="101.408828" lat="14.155225">
                <ele>65.800000</ele>
                <time>1970-01-01T01:13:31Z</time>
            </trkpt>
            <trkpt lon="101.408758" lat="14.155201">
                <ele>65.800000</ele>
                <time>1970-01-01T01:13:32Z</time>
            </trkpt>
            <trkpt lon="101.408697" lat="14.155180">
                <ele>65.800000</ele>
                <time>1970-01-01T01:13:33Z</time>
            </trkpt>
            <trkpt lon="101.408633" lat="14.155165">
                <ele>65.800000</ele>
                <time>1970-01-01T01:13:34Z</time>
            </trkpt>
            <trkpt lon="101.408578" lat="14.155147">
                <ele>65.900000</ele>
                <time>1970-01-01T01:13:35Z</time>
            </trkpt>
            <trkpt lon="101.408515" lat="14.155128">
                <ele>66.000000</ele>
                <time>1970-01-01T01:13:36Z</time>
            </trkpt>
            <trkpt lon="101.408457" lat="14.155113">
                <ele>66.200000</ele>
                <time>1970-01-01T01:13:37Z</time>
            </trkpt>
            <trkpt lon="101.408401" lat="14.155101">
                <ele>66.400000</ele>
                <time>1970-01-01T01:13:38Z</time>
            </trkpt>
            <trkpt lon="101.408348" lat="14.155088">
                <ele>66.600000</ele>
                <time>1970-01-01T01:13:39Z</time>
            </trkpt>
            <trkpt lon="101.408293" lat="14.155075">
                <ele>66.600000</ele>
                <time>1970-01-01T01:13:40Z</time>
            </trkpt>
            <trkpt lon="101.408244" lat="14.155069">
                <ele>66.400000</ele>
                <time>1970-01-01T01:13:41Z</time>
            </trkpt>
            <trkpt lon="101.408189" lat="14.155056">
                <ele>66.100000</ele>
                <time>1970-01-01T01:13:42Z</time>
            </trkpt>
            <trkpt lon="101.408142" lat="14.155047">
                <ele>65.800000</ele>
                <time>1970-01-01T01:13:43Z</time>
            </trkpt>
            <trkpt lon="101.408090" lat="14.155025">
                <ele>65.400000</ele>
                <time>1970-01-01T01:13:44Z</time>
            </trkpt>
            <trkpt lon="101.408045" lat="14.155010">
                <ele>65.200000</ele>
                <time>1970-01-01T01:13:45Z</time>
            </trkpt>
            <trkpt lon="101.408000" lat="14.154998">
                <ele>65.000000</ele>
                <time>1970-01-01T01:13:46Z</time>
            </trkpt>
            <trkpt lon="101.407956" lat="14.154985">
                <ele>64.800000</ele>
                <time>1970-01-01T01:13:47Z</time>
            </trkpt>
            <trkpt lon="101.407905" lat="14.154965">
                <ele>64.800000</ele>
                <time>1970-01-01T01:13:48Z</time>
            </trkpt>
            <trkpt lon="101.407853" lat="14.154953">
                <ele>64.900000</ele>
                <time>1970-01-01T01:13:49Z</time>
            </trkpt>
            <trkpt lon="101.407803" lat="14.154938">
                <ele>65.200000</ele>
                <time>1970-01-01T01:13:50Z</time>
            </trkpt>
            <trkpt lon="101.407752" lat="14.154922">
                <ele>65.500000</ele>
                <time>1970-01-01T01:13:51Z</time>
            </trkpt>
            <trkpt lon="101.407702" lat="14.154902">
                <ele>65.700000</ele>
                <time>1970-01-01T01:13:52Z</time>
            </trkpt>
            <trkpt lon="101.407658" lat="14.154884">
                <ele>66.000000</ele>
                <time>1970-01-01T01:13:53Z</time>
            </trkpt>
            <trkpt lon="101.407615" lat="14.154865">
                <ele>66.300000</ele>
                <time>1970-01-01T01:13:54Z</time>
            </trkpt>
            <trkpt lon="101.407563" lat="14.154853">
                <ele>66.500000</ele>
                <time>1970-01-01T01:13:55Z</time>
            </trkpt>
            <trkpt lon="101.407514" lat="14.154834">
                <ele>66.600000</ele>
                <time>1970-01-01T01:13:56Z</time>
            </trkpt>
            <trkpt lon="101.407463" lat="14.154820">
                <ele>66.700000</ele>
                <time>1970-01-01T01:13:57Z</time>
            </trkpt>
            <trkpt lon="101.407411" lat="14.154802">
                <ele>66.800000</ele>
                <time>1970-01-01T01:13:58Z</time>
            </trkpt>
            <trkpt lon="101.407359" lat="14.154784">
                <ele>66.800000</ele>
                <time>1970-01-01T01:13:59Z</time>
            </trkpt>
            <trkpt lon="101.407312" lat="14.154771">
                <ele>66.700000</ele>
                <time>1970-01-01T01:14:00Z</time>
            </trkpt>
            <trkpt lon="101.407262" lat="14.154754">
                <ele>66.700000</ele>
                <time>1970-01-01T01:14:01Z</time>
            </trkpt>
            <trkpt lon="101.407224" lat="14.154740">
                <ele>66.600000</ele>
                <time>1970-01-01T01:14:02Z</time>
            </trkpt>
            <trkpt lon="101.407176" lat="14.154725">
                <ele>66.500000</ele>
                <time>1970-01-01T01:14:03Z</time>
            </trkpt>
            <trkpt lon="101.407131" lat="14.154711">
                <ele>66.400000</ele>
                <time>1970-01-01T01:14:04Z</time>
            </trkpt>
            <trkpt lon="101.407078" lat="14.154698">
                <ele>66.200000</ele>
                <time>1970-01-01T01:14:05Z</time>
            </trkpt>
            <trkpt lon="101.407028" lat="14.154688">
                <ele>66.200000</ele>
                <time>1970-01-01T01:14:06Z</time>
            </trkpt>
            <trkpt lon="101.406982" lat="14.154665">
                <ele>66.100000</ele>
                <time>1970-01-01T01:14:07Z</time>
            </trkpt>
            <trkpt lon="101.406932" lat="14.154647">
                <ele>66.200000</ele>
                <time>1970-01-01T01:14:08Z</time>
            </trkpt>
            <trkpt lon="101.406887" lat="14.154631">
                <ele>66.200000</ele>
                <time>1970-01-01T01:14:09Z</time>
            </trkpt>
            <trkpt lon="101.406834" lat="14.154622">
                <ele>66.300000</ele>
                <time>1970-01-01T01:14:10Z</time>
            </trkpt>
            <trkpt lon="101.406773" lat="14.154601">
                <ele>66.400000</ele>
                <time>1970-01-01T01:14:11Z</time>
            </trkpt>
            <trkpt lon="101.406721" lat="14.154582">
                <ele>66.400000</ele>
                <time>1970-01-01T01:14:12Z</time>
            </trkpt>
            <trkpt lon="101.406669" lat="14.154565">
                <ele>66.400000</ele>
                <time>1970-01-01T01:14:13Z</time>
            </trkpt>
            <trkpt lon="101.406621" lat="14.154555">
                <ele>66.400000</ele>
                <time>1970-01-01T01:14:14Z</time>
            </trkpt>
            <trkpt lon="101.406578" lat="14.154546">
                <ele>66.400000</ele>
                <time>1970-01-01T01:14:15Z</time>
            </trkpt>
            <trkpt lon="101.406531" lat="14.154540">
                <ele>66.200000</ele>
                <time>1970-01-01T01:14:16Z</time>
            </trkpt>
            <trkpt lon="101.406485" lat="14.154534">
                <ele>66.100000</ele>
                <time>1970-01-01T01:14:17Z</time>
            </trkpt>
            <trkpt lon="101.406433" lat="14.154521">
                <ele>65.800000</ele>
                <time>1970-01-01T01:14:18Z</time>
            </trkpt>
            <trkpt lon="101.406383" lat="14.154505">
                <ele>65.600000</ele>
                <time>1970-01-01T01:14:19Z</time>
            </trkpt>
            <trkpt lon="101.406336" lat="14.154494">
                <ele>65.400000</ele>
                <time>1970-01-01T01:14:20Z</time>
            </trkpt>
            <trkpt lon="101.406287" lat="14.154486">
                <ele>65.000000</ele>
                <time>1970-01-01T01:14:21Z</time>
            </trkpt>
            <trkpt lon="101.406241" lat="14.154475">
                <ele>64.700000</ele>
                <time>1970-01-01T01:14:22Z</time>
            </trkpt>
            <trkpt lon="101.406185" lat="14.154462">
                <ele>64.400000</ele>
                <time>1970-01-01T01:14:23Z</time>
            </trkpt>
            <trkpt lon="101.406135" lat="14.154459">
                <ele>64.200000</ele>
                <time>1970-01-01T01:14:24Z</time>
            </trkpt>
            <trkpt lon="101.406084" lat="14.154450">
                <ele>63.900000</ele>
                <time>1970-01-01T01:14:25Z</time>
            </trkpt>
            <trkpt lon="101.406037" lat="14.154435">
                <ele>63.600000</ele>
                <time>1970-01-01T01:14:26Z</time>
            </trkpt>
            <trkpt lon="101.405986" lat="14.154418">
                <ele>63.500000</ele>
                <time>1970-01-01T01:14:27Z</time>
            </trkpt>
            <trkpt lon="101.405938" lat="14.154406">
                <ele>63.400000</ele>
                <time>1970-01-01T01:14:28Z</time>
            </trkpt>
            <trkpt lon="101.405886" lat="14.154400">
                <ele>63.300000</ele>
                <time>1970-01-01T01:14:29Z</time>
            </trkpt>
            <trkpt lon="101.405836" lat="14.154389">
                <ele>63.300000</ele>
                <time>1970-01-01T01:14:30Z</time>
            </trkpt>
            <trkpt lon="101.405784" lat="14.154376">
                <ele>63.300000</ele>
                <time>1970-01-01T01:14:31Z</time>
            </trkpt>
            <trkpt lon="101.405740" lat="14.154356">
                <ele>63.500000</ele>
                <time>1970-01-01T01:14:32Z</time>
            </trkpt>
            <trkpt lon="101.405692" lat="14.154334">
                <ele>63.700000</ele>
                <time>1970-01-01T01:14:33Z</time>
            </trkpt>
            <trkpt lon="101.405644" lat="14.154325">
                <ele>63.900000</ele>
                <time>1970-01-01T01:14:34Z</time>
            </trkpt>
            <trkpt lon="101.405596" lat="14.154316">
                <ele>64.200000</ele>
                <time>1970-01-01T01:14:35Z</time>
            </trkpt>
            <trkpt lon="101.405544" lat="14.154306">
                <ele>64.500000</ele>
                <time>1970-01-01T01:14:36Z</time>
            </trkpt>
            <trkpt lon="101.405499" lat="14.154290">
                <ele>64.600000</ele>
                <time>1970-01-01T01:14:37Z</time>
            </trkpt>
            <trkpt lon="101.405452" lat="14.154283">
                <ele>64.700000</ele>
                <time>1970-01-01T01:14:38Z</time>
            </trkpt>
            <trkpt lon="101.405410" lat="14.154272">
                <ele>64.800000</ele>
                <time>1970-01-01T01:14:39Z</time>
            </trkpt>
            <trkpt lon="101.405361" lat="14.154257">
                <ele>64.800000</ele>
                <time>1970-01-01T01:14:40Z</time>
            </trkpt>
            <trkpt lon="101.405311" lat="14.154246">
                <ele>64.800000</ele>
                <time>1970-01-01T01:14:41Z</time>
            </trkpt>
            <trkpt lon="101.405260" lat="14.154231">
                <ele>64.800000</ele>
                <time>1970-01-01T01:14:42Z</time>
            </trkpt>
            <trkpt lon="101.405213" lat="14.154211">
                <ele>64.800000</ele>
                <time>1970-01-01T01:14:43Z</time>
            </trkpt>
            <trkpt lon="101.405168" lat="14.154193">
                <ele>65.000000</ele>
                <time>1970-01-01T01:14:44Z</time>
            </trkpt>
            <trkpt lon="101.405116" lat="14.154174">
                <ele>65.200000</ele>
                <time>1970-01-01T01:14:45Z</time>
            </trkpt>
            <trkpt lon="101.405071" lat="14.154162">
                <ele>65.400000</ele>
                <time>1970-01-01T01:14:46Z</time>
            </trkpt>
            <trkpt lon="101.405024" lat="14.154143">
                <ele>65.600000</ele>
                <time>1970-01-01T01:14:47Z</time>
            </trkpt>
            <trkpt lon="101.404974" lat="14.154129">
                <ele>65.700000</ele>
                <time>1970-01-01T01:14:48Z</time>
            </trkpt>
            <trkpt lon="101.404924" lat="14.154114">
                <ele>65.800000</ele>
                <time>1970-01-01T01:14:49Z</time>
            </trkpt>
            <trkpt lon="101.404878" lat="14.154100">
                <ele>65.800000</ele>
                <time>1970-01-01T01:14:50Z</time>
            </trkpt>
            <trkpt lon="101.404833" lat="14.154086">
                <ele>65.700000</ele>
                <time>1970-01-01T01:14:51Z</time>
            </trkpt>
            <trkpt lon="101.404786" lat="14.154076">
                <ele>65.600000</ele>
                <time>1970-01-01T01:14:52Z</time>
            </trkpt>
            <trkpt lon="101.404732" lat="14.154061">
                <ele>65.300000</ele>
                <time>1970-01-01T01:14:53Z</time>
            </trkpt>
            <trkpt lon="101.404681" lat="14.154045">
                <ele>65.000000</ele>
                <time>1970-01-01T01:14:54Z</time>
            </trkpt>
            <trkpt lon="101.404633" lat="14.154033">
                <ele>64.800000</ele>
                <time>1970-01-01T01:14:55Z</time>
            </trkpt>
            <trkpt lon="101.404585" lat="14.154024">
                <ele>64.600000</ele>
                <time>1970-01-01T01:14:56Z</time>
            </trkpt>
            <trkpt lon="101.404534" lat="14.154002">
                <ele>64.400000</ele>
                <time>1970-01-01T01:14:57Z</time>
            </trkpt>
            <trkpt lon="101.404493" lat="14.153994">
                <ele>64.300000</ele>
                <time>1970-01-01T01:14:58Z</time>
            </trkpt>
            <trkpt lon="101.404442" lat="14.153979">
                <ele>64.300000</ele>
                <time>1970-01-01T01:14:59Z</time>
            </trkpt>
            <trkpt lon="101.404398" lat="14.153953">
                <ele>64.200000</ele>
                <time>1970-01-01T01:15:00Z</time>
            </trkpt>
            <trkpt lon="101.404356" lat="14.153930">
                <ele>64.200000</ele>
                <time>1970-01-01T01:15:01Z</time>
            </trkpt>
            <trkpt lon="101.404317" lat="14.153900">
                <ele>64.200000</ele>
                <time>1970-01-01T01:15:02Z</time>
            </trkpt>
            <trkpt lon="101.404278" lat="14.153861">
                <ele>64.200000</ele>
                <time>1970-01-01T01:15:03Z</time>
            </trkpt>
            <trkpt lon="101.404252" lat="14.153818">
                <ele>64.200000</ele>
                <time>1970-01-01T01:15:04Z</time>
            </trkpt>
            <trkpt lon="101.404231" lat="14.153779">
                <ele>64.200000</ele>
                <time>1970-01-01T01:15:05Z</time>
            </trkpt>
            <trkpt lon="101.404211" lat="14.153751">
                <ele>64.200000</ele>
                <time>1970-01-01T01:15:06Z</time>
            </trkpt>
            <trkpt lon="101.404204" lat="14.153712">
                <ele>64.200000</ele>
                <time>1970-01-01T01:15:07Z</time>
            </trkpt>
            <trkpt lon="101.404214" lat="14.153672">
                <ele>64.200000</ele>
                <time>1970-01-01T01:15:08Z</time>
            </trkpt>
            <trkpt lon="101.404225" lat="14.153638">
                <ele>64.200000</ele>
                <time>1970-01-01T01:15:09Z</time>
            </trkpt>
            <trkpt lon="101.404233" lat="14.153602">
                <ele>64.200000</ele>
                <time>1970-01-01T01:15:10Z</time>
            </trkpt>
            <trkpt lon="101.404235" lat="14.153567">
                <ele>64.200000</ele>
                <time>1970-01-01T01:15:11Z</time>
            </trkpt>
            <trkpt lon="101.404231" lat="14.153539">
                <ele>64.200000</ele>
                <time>1970-01-01T01:15:12Z</time>
            </trkpt>
            <trkpt lon="101.404192" lat="14.153505">
                <ele>64.300000</ele>
                <time>1970-01-01T01:15:14Z</time>
            </trkpt>
            <trkpt lon="101.404160" lat="14.153499">
                <ele>64.300000</ele>
                <time>1970-01-01T01:15:16Z</time>
            </trkpt>
            <trkpt lon="101.404123" lat="14.153497">
                <ele>64.400000</ele>
                <time>1970-01-01T01:15:18Z</time>
            </trkpt>
            <trkpt lon="101.404103" lat="14.153519">
                <ele>64.500000</ele>
                <time>1970-01-01T01:15:21Z</time>
            </trkpt>
            <trkpt lon="101.404085" lat="14.153541">
                <ele>64.600000</ele>
                <time>1970-01-01T01:15:37Z</time>
            </trkpt>
            <trkpt lon="101.404095" lat="14.153566">
                <ele>64.700000</ele>
                <time>1970-01-01T01:15:56Z</time>
            </trkpt>
            <trkpt lon="101.404061" lat="14.153569">
                <ele>64.900000</ele>
                <time>1970-01-01T01:23:19Z</time>
            </trkpt>
            <trkpt lon="101.404088" lat="14.153606">
                <ele>65.100000</ele>
                <time>1970-01-01T01:34:57Z</time>
            </trkpt>
            <trkpt lon="101.404088" lat="14.153576">
                <ele>65.300000</ele>
                <time>1970-01-01T01:35:03Z</time>
            </trkpt>
            <trkpt lon="101.404135" lat="14.153554">
                <ele>65.500000</ele>
                <time>1970-01-01T01:37:22Z</time>
            </trkpt>
            <trkpt lon="101.404170" lat="14.153544">
                <ele>65.600000</ele>
                <time>1970-01-01T01:37:25Z</time>
            </trkpt>
            <trkpt lon="101.404209" lat="14.153542">
                <ele>65.700000</ele>
                <time>1970-01-01T01:37:27Z</time>
            </trkpt>
            <trkpt lon="101.404257" lat="14.153535">
                <ele>65.800000</ele>
                <time>1970-01-01T01:37:29Z</time>
            </trkpt>
            <trkpt lon="101.404299" lat="14.153496">
                <ele>65.800000</ele>
                <time>1970-01-01T01:37:31Z</time>
            </trkpt>
            <trkpt lon="101.404313" lat="14.153464">
                <ele>65.800000</ele>
                <time>1970-01-01T01:37:32Z</time>
            </trkpt>
            <trkpt lon="101.404325" lat="14.153430">
                <ele>65.900000</ele>
                <time>1970-01-01T01:37:33Z</time>
            </trkpt>
            <trkpt lon="101.404333" lat="14.153397">
                <ele>65.900000</ele>
                <time>1970-01-01T01:37:34Z</time>
            </trkpt>
            <trkpt lon="101.404340" lat="14.153364">
                <ele>65.800000</ele>
                <time>1970-01-01T01:37:35Z</time>
            </trkpt>
            <trkpt lon="101.404347" lat="14.153328">
                <ele>65.800000</ele>
                <time>1970-01-01T01:37:36Z</time>
            </trkpt>
            <trkpt lon="101.404355" lat="14.153288">
                <ele>65.800000</ele>
                <time>1970-01-01T01:37:37Z</time>
            </trkpt>
            <trkpt lon="101.404355" lat="14.153234">
                <ele>65.700000</ele>
                <time>1970-01-01T01:37:38Z</time>
            </trkpt>
            <trkpt lon="101.404372" lat="14.153197">
                <ele>65.700000</ele>
                <time>1970-01-01T01:37:39Z</time>
            </trkpt>
            <trkpt lon="101.404389" lat="14.153164">
                <ele>65.500000</ele>
                <time>1970-01-01T01:37:40Z</time>
            </trkpt>
            <trkpt lon="101.404405" lat="14.153124">
                <ele>65.400000</ele>
                <time>1970-01-01T01:37:41Z</time>
            </trkpt>
            <trkpt lon="101.404415" lat="14.153085">
                <ele>65.200000</ele>
                <time>1970-01-01T01:37:42Z</time>
            </trkpt>
            <trkpt lon="101.404436" lat="14.153047">
                <ele>65.000000</ele>
                <time>1970-01-01T01:37:43Z</time>
            </trkpt>
            <trkpt lon="101.404459" lat="14.153005">
                <ele>64.800000</ele>
                <time>1970-01-01T01:37:44Z</time>
            </trkpt>
            <trkpt lon="101.404460" lat="14.152955">
                <ele>64.500000</ele>
                <time>1970-01-01T01:37:45Z</time>
            </trkpt>
            <trkpt lon="101.404480" lat="14.152906">
                <ele>64.400000</ele>
                <time>1970-01-01T01:37:46Z</time>
            </trkpt>
            <trkpt lon="101.404503" lat="14.152867">
                <ele>64.200000</ele>
                <time>1970-01-01T01:37:47Z</time>
            </trkpt>
            <trkpt lon="101.404518" lat="14.152824">
                <ele>64.100000</ele>
                <time>1970-01-01T01:37:48Z</time>
            </trkpt>
            <trkpt lon="101.404539" lat="14.152781">
                <ele>64.000000</ele>
                <time>1970-01-01T01:37:49Z</time>
            </trkpt>
            <trkpt lon="101.404557" lat="14.152733">
                <ele>63.900000</ele>
                <time>1970-01-01T01:37:50Z</time>
            </trkpt>
            <trkpt lon="101.404575" lat="14.152681">
                <ele>63.800000</ele>
                <time>1970-01-01T01:37:51Z</time>
            </trkpt>
            <trkpt lon="101.404587" lat="14.152627">
                <ele>63.700000</ele>
                <time>1970-01-01T01:37:52Z</time>
            </trkpt>
            <trkpt lon="101.404607" lat="14.152581">
                <ele>63.700000</ele>
                <time>1970-01-01T01:37:53Z</time>
            </trkpt>
            <trkpt lon="101.404620" lat="14.152529">
                <ele>63.600000</ele>
                <time>1970-01-01T01:37:54Z</time>
            </trkpt>
            <trkpt lon="101.404635" lat="14.152477">
                <ele>63.700000</ele>
                <time>1970-01-01T01:37:55Z</time>
            </trkpt>
            <trkpt lon="101.404656" lat="14.152429">
                <ele>63.900000</ele>
                <time>1970-01-01T01:37:56Z</time>
            </trkpt>
            <trkpt lon="101.404680" lat="14.152380">
                <ele>64.300000</ele>
                <time>1970-01-01T01:37:57Z</time>
            </trkpt>
            <trkpt lon="101.404695" lat="14.152329">
                <ele>64.700000</ele>
                <time>1970-01-01T01:37:58Z</time>
            </trkpt>
            <trkpt lon="101.404710" lat="14.152280">
                <ele>65.000000</ele>
                <time>1970-01-01T01:37:59Z</time>
            </trkpt>
            <trkpt lon="101.404726" lat="14.152226">
                <ele>65.300000</ele>
                <time>1970-01-01T01:38:00Z</time>
            </trkpt>
            <trkpt lon="101.404748" lat="14.152181">
                <ele>65.400000</ele>
                <time>1970-01-01T01:38:01Z</time>
            </trkpt>
            <trkpt lon="101.404767" lat="14.152120">
                <ele>65.400000</ele>
                <time>1970-01-01T01:38:02Z</time>
            </trkpt>
            <trkpt lon="101.404784" lat="14.152072">
                <ele>65.300000</ele>
                <time>1970-01-01T01:38:03Z</time>
            </trkpt>
            <trkpt lon="101.404804" lat="14.152020">
                <ele>65.000000</ele>
                <time>1970-01-01T01:38:04Z</time>
            </trkpt>
            <trkpt lon="101.404819" lat="14.151974">
                <ele>64.800000</ele>
                <time>1970-01-01T01:38:05Z</time>
            </trkpt>
            <trkpt lon="101.404840" lat="14.151924">
                <ele>64.500000</ele>
                <time>1970-01-01T01:38:06Z</time>
            </trkpt>
            <trkpt lon="101.404856" lat="14.151870">
                <ele>64.400000</ele>
                <time>1970-01-01T01:38:07Z</time>
            </trkpt>
            <trkpt lon="101.404872" lat="14.151821">
                <ele>64.300000</ele>
                <time>1970-01-01T01:38:08Z</time>
            </trkpt>
            <trkpt lon="101.404888" lat="14.151768">
                <ele>64.200000</ele>
                <time>1970-01-01T01:38:09Z</time>
            </trkpt>
            <trkpt lon="101.404908" lat="14.151719">
                <ele>64.100000</ele>
                <time>1970-01-01T01:38:10Z</time>
            </trkpt>
            <trkpt lon="101.404923" lat="14.151661">
                <ele>64.100000</ele>
                <time>1970-01-01T01:38:11Z</time>
            </trkpt>
            <trkpt lon="101.404940" lat="14.151611">
                <ele>64.100000</ele>
                <time>1970-01-01T01:38:12Z</time>
            </trkpt>
            <trkpt lon="101.404960" lat="14.151557">
                <ele>64.100000</ele>
                <time>1970-01-01T01:38:13Z</time>
            </trkpt>
            <trkpt lon="101.404979" lat="14.151509">
                <ele>64.100000</ele>
                <time>1970-01-01T01:38:14Z</time>
            </trkpt>
            <trkpt lon="101.404996" lat="14.151457">
                <ele>64.100000</ele>
                <time>1970-01-01T01:38:15Z</time>
            </trkpt>
            <trkpt lon="101.405015" lat="14.151409">
                <ele>64.200000</ele>
                <time>1970-01-01T01:38:16Z</time>
            </trkpt>
            <trkpt lon="101.405035" lat="14.151362">
                <ele>64.300000</ele>
                <time>1970-01-01T01:38:17Z</time>
            </trkpt>
            <trkpt lon="101.405057" lat="14.151304">
                <ele>64.500000</ele>
                <time>1970-01-01T01:38:18Z</time>
            </trkpt>
            <trkpt lon="101.405078" lat="14.151255">
                <ele>64.700000</ele>
                <time>1970-01-01T01:38:19Z</time>
            </trkpt>
            <trkpt lon="101.405101" lat="14.151214">
                <ele>64.900000</ele>
                <time>1970-01-01T01:38:20Z</time>
            </trkpt>
            <trkpt lon="101.405119" lat="14.151167">
                <ele>65.100000</ele>
                <time>1970-01-01T01:38:21Z</time>
            </trkpt>
            <trkpt lon="101.405134" lat="14.151120">
                <ele>65.300000</ele>
                <time>1970-01-01T01:38:22Z</time>
            </trkpt>
            <trkpt lon="101.405151" lat="14.151071">
                <ele>65.400000</ele>
                <time>1970-01-01T01:38:23Z</time>
            </trkpt>
            <trkpt lon="101.405172" lat="14.151025">
                <ele>65.500000</ele>
                <time>1970-01-01T01:38:24Z</time>
            </trkpt>
            <trkpt lon="101.405182" lat="14.150980">
                <ele>65.500000</ele>
                <time>1970-01-01T01:38:25Z</time>
            </trkpt>
            <trkpt lon="101.405200" lat="14.150934">
                <ele>65.500000</ele>
                <time>1970-01-01T01:38:26Z</time>
            </trkpt>
            <trkpt lon="101.405217" lat="14.150889">
                <ele>65.600000</ele>
                <time>1970-01-01T01:38:27Z</time>
            </trkpt>
            <trkpt lon="101.405231" lat="14.150846">
                <ele>65.600000</ele>
                <time>1970-01-01T01:38:28Z</time>
            </trkpt>
            <trkpt lon="101.405251" lat="14.150802">
                <ele>65.600000</ele>
                <time>1970-01-01T01:38:29Z</time>
            </trkpt>
            <trkpt lon="101.405265" lat="14.150759">
                <ele>65.500000</ele>
                <time>1970-01-01T01:38:30Z</time>
            </trkpt>
            <trkpt lon="101.405280" lat="14.150703">
                <ele>65.500000</ele>
                <time>1970-01-01T01:38:31Z</time>
            </trkpt>
            <trkpt lon="101.405300" lat="14.150650">
                <ele>65.400000</ele>
                <time>1970-01-01T01:38:32Z</time>
            </trkpt>
            <trkpt lon="101.405317" lat="14.150605">
                <ele>65.200000</ele>
                <time>1970-01-01T01:38:33Z</time>
            </trkpt>
            <trkpt lon="101.405336" lat="14.150564">
                <ele>65.000000</ele>
                <time>1970-01-01T01:38:34Z</time>
            </trkpt>
            <trkpt lon="101.405354" lat="14.150517">
                <ele>64.800000</ele>
                <time>1970-01-01T01:38:35Z</time>
            </trkpt>
            <trkpt lon="101.405373" lat="14.150473">
                <ele>64.600000</ele>
                <time>1970-01-01T01:38:36Z</time>
            </trkpt>
            <trkpt lon="101.405387" lat="14.150421">
                <ele>64.400000</ele>
                <time>1970-01-01T01:38:37Z</time>
            </trkpt>
            <trkpt lon="101.405405" lat="14.150374">
                <ele>64.200000</ele>
                <time>1970-01-01T01:38:38Z</time>
            </trkpt>
            <trkpt lon="101.405426" lat="14.150333">
                <ele>64.200000</ele>
                <time>1970-01-01T01:38:39Z</time>
            </trkpt>
            <trkpt lon="101.405445" lat="14.150289">
                <ele>64.200000</ele>
                <time>1970-01-01T01:38:40Z</time>
            </trkpt>
            <trkpt lon="101.405460" lat="14.150253">
                <ele>64.300000</ele>
                <time>1970-01-01T01:38:41Z</time>
            </trkpt>
            <trkpt lon="101.405475" lat="14.150205">
                <ele>64.400000</ele>
                <time>1970-01-01T01:38:42Z</time>
            </trkpt>
            <trkpt lon="101.405485" lat="14.150153">
                <ele>64.600000</ele>
                <time>1970-01-01T01:38:43Z</time>
            </trkpt>
            <trkpt lon="101.405504" lat="14.150107">
                <ele>64.800000</ele>
                <time>1970-01-01T01:38:44Z</time>
            </trkpt>
            <trkpt lon="101.405518" lat="14.150066">
                <ele>64.900000</ele>
                <time>1970-01-01T01:38:45Z</time>
            </trkpt>
            <trkpt lon="101.405545" lat="14.150011">
                <ele>65.200000</ele>
                <time>1970-01-01T01:38:46Z</time>
            </trkpt>
            <trkpt lon="101.405565" lat="14.149954">
                <ele>65.300000</ele>
                <time>1970-01-01T01:38:47Z</time>
            </trkpt>
            <trkpt lon="101.405586" lat="14.149901">
                <ele>65.400000</ele>
                <time>1970-01-01T01:38:48Z</time>
            </trkpt>
            <trkpt lon="101.405603" lat="14.149855">
                <ele>65.400000</ele>
                <time>1970-01-01T01:38:49Z</time>
            </trkpt>
            <trkpt lon="101.405625" lat="14.149805">
                <ele>65.400000</ele>
                <time>1970-01-01T01:38:50Z</time>
            </trkpt>
            <trkpt lon="101.405643" lat="14.149756">
                <ele>65.500000</ele>
                <time>1970-01-01T01:38:51Z</time>
            </trkpt>
            <trkpt lon="101.405665" lat="14.149702">
                <ele>65.500000</ele>
                <time>1970-01-01T01:38:52Z</time>
            </trkpt>
            <trkpt lon="101.405685" lat="14.149649">
                <ele>65.500000</ele>
                <time>1970-01-01T01:38:53Z</time>
            </trkpt>
            <trkpt lon="101.405698" lat="14.149600">
                <ele>65.400000</ele>
                <time>1970-01-01T01:38:54Z</time>
            </trkpt>
            <trkpt lon="101.405716" lat="14.149551">
                <ele>65.400000</ele>
                <time>1970-01-01T01:38:55Z</time>
            </trkpt>
            <trkpt lon="101.405731" lat="14.149505">
                <ele>65.300000</ele>
                <time>1970-01-01T01:38:56Z</time>
            </trkpt>
            <trkpt lon="101.405750" lat="14.149455">
                <ele>65.200000</ele>
                <time>1970-01-01T01:38:57Z</time>
            </trkpt>
            <trkpt lon="101.405762" lat="14.149400">
                <ele>65.100000</ele>
                <time>1970-01-01T01:38:58Z</time>
            </trkpt>
            <trkpt lon="101.405781" lat="14.149351">
                <ele>64.800000</ele>
                <time>1970-01-01T01:38:59Z</time>
            </trkpt>
            <trkpt lon="101.405803" lat="14.149301">
                <ele>64.600000</ele>
                <time>1970-01-01T01:39:00Z</time>
            </trkpt>
            <trkpt lon="101.405824" lat="14.149245">
                <ele>64.300000</ele>
                <time>1970-01-01T01:39:01Z</time>
            </trkpt>
            <trkpt lon="101.405837" lat="14.149194">
                <ele>64.100000</ele>
                <time>1970-01-01T01:39:02Z</time>
            </trkpt>
            <trkpt lon="101.405857" lat="14.149144">
                <ele>64.000000</ele>
                <time>1970-01-01T01:39:03Z</time>
            </trkpt>
            <trkpt lon="101.405876" lat="14.149092">
                <ele>63.900000</ele>
                <time>1970-01-01T01:39:04Z</time>
            </trkpt>
            <trkpt lon="101.405894" lat="14.149046">
                <ele>63.800000</ele>
                <time>1970-01-01T01:39:05Z</time>
            </trkpt>
            <trkpt lon="101.405917" lat="14.149002">
                <ele>63.800000</ele>
                <time>1970-01-01T01:39:06Z</time>
            </trkpt>
            <trkpt lon="101.405936" lat="14.148953">
                <ele>63.900000</ele>
                <time>1970-01-01T01:39:07Z</time>
            </trkpt>
            <trkpt lon="101.405956" lat="14.148905">
                <ele>64.000000</ele>
                <time>1970-01-01T01:39:08Z</time>
            </trkpt>
            <trkpt lon="101.405975" lat="14.148858">
                <ele>64.200000</ele>
                <time>1970-01-01T01:39:09Z</time>
            </trkpt>
            <trkpt lon="101.405997" lat="14.148809">
                <ele>64.300000</ele>
                <time>1970-01-01T01:39:10Z</time>
            </trkpt>
            <trkpt lon="101.406018" lat="14.148761">
                <ele>64.500000</ele>
                <time>1970-01-01T01:39:11Z</time>
            </trkpt>
            <trkpt lon="101.406039" lat="14.148707">
                <ele>64.700000</ele>
                <time>1970-01-01T01:39:12Z</time>
            </trkpt>
            <trkpt lon="101.406056" lat="14.148657">
                <ele>64.800000</ele>
                <time>1970-01-01T01:39:13Z</time>
            </trkpt>
            <trkpt lon="101.406073" lat="14.148606">
                <ele>64.900000</ele>
                <time>1970-01-01T01:39:14Z</time>
            </trkpt>
            <trkpt lon="101.406084" lat="14.148553">
                <ele>65.000000</ele>
                <time>1970-01-01T01:39:15Z</time>
            </trkpt>
            <trkpt lon="101.406105" lat="14.148508">
                <ele>65.000000</ele>
                <time>1970-01-01T01:39:16Z</time>
            </trkpt>
            <trkpt lon="101.406121" lat="14.148463">
                <ele>65.100000</ele>
                <time>1970-01-01T01:39:17Z</time>
            </trkpt>
            <trkpt lon="101.406145" lat="14.148409">
                <ele>65.100000</ele>
                <time>1970-01-01T01:39:18Z</time>
            </trkpt>
            <trkpt lon="101.406168" lat="14.148360">
                <ele>65.100000</ele>
                <time>1970-01-01T01:39:19Z</time>
            </trkpt>
            <trkpt lon="101.406185" lat="14.148312">
                <ele>65.100000</ele>
                <time>1970-01-01T01:39:20Z</time>
            </trkpt>
            <trkpt lon="101.406194" lat="14.148256">
                <ele>65.100000</ele>
                <time>1970-01-01T01:39:21Z</time>
            </trkpt>
            <trkpt lon="101.406210" lat="14.148205">
                <ele>65.100000</ele>
                <time>1970-01-01T01:39:22Z</time>
            </trkpt>
            <trkpt lon="101.406229" lat="14.148155">
                <ele>65.100000</ele>
                <time>1970-01-01T01:39:23Z</time>
            </trkpt>
            <trkpt lon="101.406251" lat="14.148110">
                <ele>65.100000</ele>
                <time>1970-01-01T01:39:24Z</time>
            </trkpt>
            <trkpt lon="101.406275" lat="14.148059">
                <ele>65.100000</ele>
                <time>1970-01-01T01:39:25Z</time>
            </trkpt>
            <trkpt lon="101.406288" lat="14.148015">
                <ele>65.000000</ele>
                <time>1970-01-01T01:39:26Z</time>
            </trkpt>
            <trkpt lon="101.406310" lat="14.147967">
                <ele>65.000000</ele>
                <time>1970-01-01T01:39:27Z</time>
            </trkpt>
            <trkpt lon="101.406335" lat="14.147924">
                <ele>65.000000</ele>
                <time>1970-01-01T01:39:28Z</time>
            </trkpt>
            <trkpt lon="101.406354" lat="14.147876">
                <ele>64.900000</ele>
                <time>1970-01-01T01:39:29Z</time>
            </trkpt>
            <trkpt lon="101.406373" lat="14.147824">
                <ele>64.700000</ele>
                <time>1970-01-01T01:39:30Z</time>
            </trkpt>
            <trkpt lon="101.406390" lat="14.147772">
                <ele>64.600000</ele>
                <time>1970-01-01T01:39:31Z</time>
            </trkpt>
            <trkpt lon="101.406409" lat="14.147723">
                <ele>64.400000</ele>
                <time>1970-01-01T01:39:32Z</time>
            </trkpt>
            <trkpt lon="101.406428" lat="14.147674">
                <ele>64.300000</ele>
                <time>1970-01-01T01:39:33Z</time>
            </trkpt>
            <trkpt lon="101.406447" lat="14.147622">
                <ele>64.300000</ele>
                <time>1970-01-01T01:39:34Z</time>
            </trkpt>
            <trkpt lon="101.406469" lat="14.147571">
                <ele>64.500000</ele>
                <time>1970-01-01T01:39:35Z</time>
            </trkpt>
            <trkpt lon="101.406491" lat="14.147517">
                <ele>64.600000</ele>
                <time>1970-01-01T01:39:36Z</time>
            </trkpt>
            <trkpt lon="101.406514" lat="14.147459">
                <ele>64.800000</ele>
                <time>1970-01-01T01:39:37Z</time>
            </trkpt>
            <trkpt lon="101.406533" lat="14.147409">
                <ele>64.900000</ele>
                <time>1970-01-01T01:39:38Z</time>
            </trkpt>
            <trkpt lon="101.406549" lat="14.147360">
                <ele>65.000000</ele>
                <time>1970-01-01T01:39:39Z</time>
            </trkpt>
            <trkpt lon="101.406561" lat="14.147313">
                <ele>65.000000</ele>
                <time>1970-01-01T01:39:40Z</time>
            </trkpt>
            <trkpt lon="101.406557" lat="14.147269">
                <ele>65.000000</ele>
                <time>1970-01-01T01:39:41Z</time>
            </trkpt>
            <trkpt lon="101.406533" lat="14.147235">
                <ele>65.100000</ele>
                <time>1970-01-01T01:39:42Z</time>
            </trkpt>
            <trkpt lon="101.406493" lat="14.147225">
                <ele>65.100000</ele>
                <time>1970-01-01T01:39:43Z</time>
            </trkpt>
            <trkpt lon="101.406460" lat="14.147227">
                <ele>65.100000</ele>
                <time>1970-01-01T01:39:44Z</time>
            </trkpt>
            <trkpt lon="101.406414" lat="14.147221">
                <ele>65.100000</ele>
                <time>1970-01-01T01:39:45Z</time>
            </trkpt>
            <trkpt lon="101.406365" lat="14.147210">
                <ele>65.100000</ele>
                <time>1970-01-01T01:39:46Z</time>
            </trkpt>
            <trkpt lon="101.406325" lat="14.147204">
                <ele>65.100000</ele>
                <time>1970-01-01T01:39:47Z</time>
            </trkpt>
            <trkpt lon="101.406281" lat="14.147200">
                <ele>65.100000</ele>
                <time>1970-01-01T01:39:48Z</time>
            </trkpt>
            <trkpt lon="101.406239" lat="14.147201">
                <ele>65.100000</ele>
                <time>1970-01-01T01:39:49Z</time>
            </trkpt>
            <trkpt lon="101.406196" lat="14.147216">
                <ele>65.100000</ele>
                <time>1970-01-01T01:39:50Z</time>
            </trkpt>
            <trkpt lon="101.406153" lat="14.147230">
                <ele>65.300000</ele>
                <time>1970-01-01T01:39:51Z</time>
            </trkpt>
            <trkpt lon="101.406114" lat="14.147235">
                <ele>65.500000</ele>
                <time>1970-01-01T01:39:52Z</time>
            </trkpt>
            <trkpt lon="101.406076" lat="14.147230">
                <ele>65.600000</ele>
                <time>1970-01-01T01:39:53Z</time>
            </trkpt>
            <trkpt lon="101.406039" lat="14.147227">
                <ele>65.800000</ele>
                <time>1970-01-01T01:39:54Z</time>
            </trkpt>
            <trkpt lon="101.405998" lat="14.147225">
                <ele>66.000000</ele>
                <time>1970-01-01T01:39:55Z</time>
            </trkpt>
            <trkpt lon="101.405953" lat="14.147224">
                <ele>66.200000</ele>
                <time>1970-01-01T01:39:56Z</time>
            </trkpt>
            <trkpt lon="101.405909" lat="14.147225">
                <ele>66.400000</ele>
                <time>1970-01-01T01:39:57Z</time>
            </trkpt>
            <trkpt lon="101.405867" lat="14.147227">
                <ele>66.500000</ele>
                <time>1970-01-01T01:39:58Z</time>
            </trkpt>
            <trkpt lon="101.405829" lat="14.147230">
                <ele>66.600000</ele>
                <time>1970-01-01T01:39:59Z</time>
            </trkpt>
            <trkpt lon="101.405794" lat="14.147233">
                <ele>66.700000</ele>
                <time>1970-01-01T01:40:00Z</time>
            </trkpt>
            <trkpt lon="101.405759" lat="14.147236">
                <ele>66.700000</ele>
                <time>1970-01-01T01:40:01Z</time>
            </trkpt>
            <trkpt lon="101.405728" lat="14.147245">
                <ele>66.700000</ele>
                <time>1970-01-01T01:40:02Z</time>
            </trkpt>
            <trkpt lon="101.405695" lat="14.147255">
                <ele>66.800000</ele>
                <time>1970-01-01T01:40:03Z</time>
            </trkpt>
            <trkpt lon="101.405659" lat="14.147266">
                <ele>66.800000</ele>
                <time>1970-01-01T01:40:04Z</time>
            </trkpt>
            <trkpt lon="101.405622" lat="14.147276">
                <ele>66.800000</ele>
                <time>1970-01-01T01:40:05Z</time>
            </trkpt>
            <trkpt lon="101.405587" lat="14.147285">
                <ele>66.800000</ele>
                <time>1970-01-01T01:40:06Z</time>
            </trkpt>
            <trkpt lon="101.405558" lat="14.147297">
                <ele>66.900000</ele>
                <time>1970-01-01T01:40:07Z</time>
            </trkpt>
            <trkpt lon="101.405533" lat="14.147315">
                <ele>66.900000</ele>
                <time>1970-01-01T01:40:08Z</time>
            </trkpt>
            <trkpt lon="101.405512" lat="14.147342">
                <ele>66.700000</ele>
                <time>1970-01-01T01:40:09Z</time>
            </trkpt>
            <trkpt lon="101.405501" lat="14.147382">
                <ele>66.300000</ele>
                <time>1970-01-01T01:40:10Z</time>
            </trkpt>
            <trkpt lon="101.405526" lat="14.147461">
                <ele>65.600000</ele>
                <time>1970-01-01T01:40:11Z</time>
            </trkpt>
            <trkpt lon="101.405535" lat="14.147511">
                <ele>65.300000</ele>
                <time>1970-01-01T01:40:12Z</time>
            </trkpt>
            <trkpt lon="101.405536" lat="14.147571">
                <ele>64.800000</ele>
                <time>1970-01-01T01:40:13Z</time>
            </trkpt>
            <trkpt lon="101.405535" lat="14.147627">
                <ele>64.600000</ele>
                <time>1970-01-01T01:40:14Z</time>
            </trkpt>
            <trkpt lon="101.405536" lat="14.147675">
                <ele>64.600000</ele>
                <time>1970-01-01T01:40:15Z</time>
            </trkpt>
            <trkpt lon="101.405531" lat="14.147718">
                <ele>64.700000</ele>
                <time>1970-01-01T01:40:16Z</time>
            </trkpt>
            <trkpt lon="101.405527" lat="14.147765">
                <ele>64.800000</ele>
                <time>1970-01-01T01:40:17Z</time>
            </trkpt>
            <trkpt lon="101.405525" lat="14.147803">
                <ele>65.100000</ele>
                <time>1970-01-01T01:40:18Z</time>
            </trkpt>
            <trkpt lon="101.405516" lat="14.147837">
                <ele>65.000000</ele>
                <time>1970-01-01T01:40:19Z</time>
            </trkpt>
            <trkpt lon="101.405489" lat="14.147884">
                <ele>64.900000</ele>
                <time>1970-01-01T01:40:20Z</time>
            </trkpt>
            <trkpt lon="101.405472" lat="14.147911">
                <ele>65.200000</ele>
                <time>1970-01-01T01:40:21Z</time>
            </trkpt>
            <trkpt lon="101.405459" lat="14.147935">
                <ele>65.200000</ele>
                <time>1970-01-01T01:40:22Z</time>
            </trkpt>
            <trkpt lon="101.405426" lat="14.147959">
                <ele>65.700000</ele>
                <time>1970-01-01T01:40:24Z</time>
            </trkpt>
            <trkpt lon="101.405396" lat="14.147967">
                <ele>66.400000</ele>
                <time>1970-01-01T01:40:26Z</time>
            </trkpt>
            <trkpt lon="101.405355" lat="14.147974">
                <ele>66.400000</ele>
                <time>1970-01-01T01:40:28Z</time>
            </trkpt>
            <trkpt lon="101.405317" lat="14.147983">
                <ele>66.300000</ele>
                <time>1970-01-01T01:40:30Z</time>
            </trkpt>
            <trkpt lon="101.405269" lat="14.147995">
                <ele>66.900000</ele>
                <time>1970-01-01T01:40:32Z</time>
            </trkpt>
            <trkpt lon="101.405222" lat="14.148008">
                <ele>67.300000</ele>
                <time>1970-01-01T01:40:34Z</time>
            </trkpt>
            <trkpt lon="101.405180" lat="14.148015">
                <ele>67.200000</ele>
                <time>1970-01-01T01:40:36Z</time>
            </trkpt>
            <trkpt lon="101.405210" lat="14.148005">
                <ele>67.300000</ele>
                <time>1970-01-01T01:40:46Z</time>
            </trkpt>
            <trkpt lon="101.405255" lat="14.147991">
                <ele>67.400000</ele>
                <time>1970-01-01T01:40:48Z</time>
            </trkpt>
            <trkpt lon="101.405282" lat="14.147984">
                <ele>66.900000</ele>
                <time>1970-01-01T01:40:49Z</time>
            </trkpt>
            <trkpt lon="101.405309" lat="14.147976">
                <ele>67.900000</ele>
                <time>1970-01-01T01:40:50Z</time>
            </trkpt>
            <trkpt lon="101.405353" lat="14.147959">
                <ele>67.200000</ele>
                <time>1970-01-01T01:40:52Z</time>
            </trkpt>
            <trkpt lon="101.405406" lat="14.147942">
                <ele>65.700000</ele>
                <time>1970-01-01T01:40:54Z</time>
            </trkpt>
            <trkpt lon="101.405433" lat="14.147935">
                <ele>65.700000</ele>
                <time>1970-01-01T01:40:55Z</time>
            </trkpt>
            <trkpt lon="101.405467" lat="14.147913">
                <ele>65.200000</ele>
                <time>1970-01-01T01:40:57Z</time>
            </trkpt>
            <trkpt lon="101.405489" lat="14.147875">
                <ele>64.900000</ele>
                <time>1970-01-01T01:40:59Z</time>
            </trkpt>
            <trkpt lon="101.405497" lat="14.147838">
                <ele>65.000000</ele>
                <time>1970-01-01T01:41:01Z</time>
            </trkpt>
            <trkpt lon="101.405517" lat="14.147804">
                <ele>65.000000</ele>
                <time>1970-01-01T01:41:12Z</time>
            </trkpt>
            <trkpt lon="101.405551" lat="14.147822">
                <ele>64.700000</ele>
                <time>1970-01-01T01:41:15Z</time>
            </trkpt>
            <trkpt lon="101.405570" lat="14.147859">
                <ele>64.200000</ele>
                <time>1970-01-01T01:41:17Z</time>
            </trkpt>
            <trkpt lon="101.405581" lat="14.147891">
                <ele>64.200000</ele>
                <time>1970-01-01T01:41:18Z</time>
            </trkpt>
            <trkpt lon="101.405587" lat="14.147930">
                <ele>63.900000</ele>
                <time>1970-01-01T01:41:19Z</time>
            </trkpt>
            <trkpt lon="101.405589" lat="14.147974">
                <ele>63.700000</ele>
                <time>1970-01-01T01:41:20Z</time>
            </trkpt>
            <trkpt lon="101.405583" lat="14.148019">
                <ele>63.600000</ele>
                <time>1970-01-01T01:41:21Z</time>
            </trkpt>
            <trkpt lon="101.405572" lat="14.148057">
                <ele>63.500000</ele>
                <time>1970-01-01T01:41:22Z</time>
            </trkpt>
            <trkpt lon="101.405557" lat="14.148085">
                <ele>63.500000</ele>
                <time>1970-01-01T01:41:23Z</time>
            </trkpt>
            <trkpt lon="101.405525" lat="14.148118">
                <ele>63.000000</ele>
                <time>1970-01-01T01:41:25Z</time>
            </trkpt>
            <trkpt lon="101.405495" lat="14.148142">
                <ele>63.000000</ele>
                <time>1970-01-01T01:41:28Z</time>
            </trkpt>
            <trkpt lon="101.405490" lat="14.148170">
                <ele>62.300000</ele>
                <time>1970-01-01T01:41:33Z</time>
            </trkpt>
            <trkpt lon="101.405524" lat="14.148185">
                <ele>62.300000</ele>
                <time>1970-01-01T01:41:40Z</time>
            </trkpt>
            <trkpt lon="101.405557" lat="14.148172">
                <ele>62.700000</ele>
                <time>1970-01-01T01:41:48Z</time>
            </trkpt>
            <trkpt lon="101.405584" lat="14.148138">
                <ele>63.400000</ele>
                <time>1970-01-01T01:41:51Z</time>
            </trkpt>
            <trkpt lon="101.405603" lat="14.148104">
                <ele>63.400000</ele>
                <time>1970-01-01T01:41:54Z</time>
            </trkpt>
            <trkpt lon="101.405616" lat="14.148070">
                <ele>63.200000</ele>
                <time>1970-01-01T01:41:56Z</time>
            </trkpt>
            <trkpt lon="101.405624" lat="14.148029">
                <ele>63.200000</ele>
                <time>1970-01-01T01:41:58Z</time>
            </trkpt>
            <trkpt lon="101.405627" lat="14.147993">
                <ele>63.300000</ele>
                <time>1970-01-01T01:42:00Z</time>
            </trkpt>
            <trkpt lon="101.405630" lat="14.147955">
                <ele>63.400000</ele>
                <time>1970-01-01T01:42:02Z</time>
            </trkpt>
            <trkpt lon="101.405627" lat="14.147920">
                <ele>63.600000</ele>
                <time>1970-01-01T01:42:04Z</time>
            </trkpt>
            <trkpt lon="101.405610" lat="14.147880">
                <ele>64.100000</ele>
                <time>1970-01-01T01:42:06Z</time>
            </trkpt>
            <trkpt lon="101.405582" lat="14.147842">
                <ele>64.400000</ele>
                <time>1970-01-01T01:42:08Z</time>
            </trkpt>
            <trkpt lon="101.405562" lat="14.147809">
                <ele>64.800000</ele>
                <time>1970-01-01T01:42:10Z</time>
            </trkpt>
            <trkpt lon="101.405552" lat="14.147771">
                <ele>64.800000</ele>
                <time>1970-01-01T01:42:12Z</time>
            </trkpt>
            <trkpt lon="101.405540" lat="14.147727">
                <ele>64.600000</ele>
                <time>1970-01-01T01:42:14Z</time>
            </trkpt>
            <trkpt lon="101.405531" lat="14.147670">
                <ele>64.500000</ele>
                <time>1970-01-01T01:42:16Z</time>
            </trkpt>
            <trkpt lon="101.405528" lat="14.147640">
                <ele>64.500000</ele>
                <time>1970-01-01T01:42:17Z</time>
            </trkpt>
            <trkpt lon="101.405526" lat="14.147591">
                <ele>64.800000</ele>
                <time>1970-01-01T01:42:19Z</time>
            </trkpt>
            <trkpt lon="101.405523" lat="14.147548">
                <ele>65.000000</ele>
                <time>1970-01-01T01:42:21Z</time>
            </trkpt>
            <trkpt lon="101.405516" lat="14.147512">
                <ele>65.300000</ele>
                <time>1970-01-01T01:42:23Z</time>
            </trkpt>
            <trkpt lon="101.405496" lat="14.147477">
                <ele>65.500000</ele>
                <time>1970-01-01T01:42:26Z</time>
            </trkpt>
            <trkpt lon="101.405466" lat="14.147472">
                <ele>65.500000</ele>
                <time>1970-01-01T01:42:28Z</time>
            </trkpt>
            <trkpt lon="101.405429" lat="14.147494">
                <ele>65.300000</ele>
                <time>1970-01-01T01:42:30Z</time>
            </trkpt>
            <trkpt lon="101.405396" lat="14.147528">
                <ele>65.000000</ele>
                <time>1970-01-01T01:42:32Z</time>
            </trkpt>
            <trkpt lon="101.405370" lat="14.147566">
                <ele>64.800000</ele>
                <time>1970-01-01T01:42:34Z</time>
            </trkpt>
            <trkpt lon="101.405354" lat="14.147588">
                <ele>64.800000</ele>
                <time>1970-01-01T01:42:35Z</time>
            </trkpt>
            <trkpt lon="101.405338" lat="14.147612">
                <ele>64.500000</ele>
                <time>1970-01-01T01:42:36Z</time>
            </trkpt>
            <trkpt lon="101.405298" lat="14.147648">
                <ele>64.800000</ele>
                <time>1970-01-01T01:42:38Z</time>
            </trkpt>
            <trkpt lon="101.405270" lat="14.147659">
                <ele>64.800000</ele>
                <time>1970-01-01T01:42:39Z</time>
            </trkpt>
            <trkpt lon="101.405242" lat="14.147663">
                <ele>64.900000</ele>
                <time>1970-01-01T01:42:40Z</time>
            </trkpt>
            <trkpt lon="101.405203" lat="14.147663">
                <ele>65.100000</ele>
                <time>1970-01-01T01:42:42Z</time>
            </trkpt>
            <trkpt lon="101.405168" lat="14.147655">
                <ele>65.300000</ele>
                <time>1970-01-01T01:42:44Z</time>
            </trkpt>
            <trkpt lon="101.405140" lat="14.147646">
                <ele>65.300000</ele>
                <time>1970-01-01T01:42:46Z</time>
            </trkpt>
            <trkpt lon="101.405096" lat="14.147644">
                <ele>65.600000</ele>
                <time>1970-01-01T01:42:49Z</time>
            </trkpt>
            <trkpt lon="101.405065" lat="14.147645">
                <ele>65.600000</ele>
                <time>1970-01-01T01:42:51Z</time>
            </trkpt>
            <trkpt lon="101.405016" lat="14.147646">
                <ele>65.900000</ele>
                <time>1970-01-01T01:42:53Z</time>
            </trkpt>
            <trkpt lon="101.404977" lat="14.147650">
                <ele>66.100000</ele>
                <time>1970-01-01T01:42:54Z</time>
            </trkpt>
            <trkpt lon="101.404938" lat="14.147659">
                <ele>66.300000</ele>
                <time>1970-01-01T01:42:55Z</time>
            </trkpt>
            <trkpt lon="101.404899" lat="14.147674">
                <ele>66.500000</ele>
                <time>1970-01-01T01:42:56Z</time>
            </trkpt>
            <trkpt lon="101.404864" lat="14.147714">
                <ele>66.800000</ele>
                <time>1970-01-01T01:42:57Z</time>
            </trkpt>
            <trkpt lon="101.404826" lat="14.147734">
                <ele>67.000000</ele>
                <time>1970-01-01T01:42:58Z</time>
            </trkpt>
            <trkpt lon="101.404787" lat="14.147756">
                <ele>67.300000</ele>
                <time>1970-01-01T01:42:59Z</time>
            </trkpt>
            <trkpt lon="101.404744" lat="14.147769">
                <ele>67.400000</ele>
                <time>1970-01-01T01:43:00Z</time>
            </trkpt>
            <trkpt lon="101.404703" lat="14.147784">
                <ele>67.400000</ele>
                <time>1970-01-01T01:43:01Z</time>
            </trkpt>
            <trkpt lon="101.404669" lat="14.147799">
                <ele>67.400000</ele>
                <time>1970-01-01T01:43:02Z</time>
            </trkpt>
            <trkpt lon="101.404630" lat="14.147812">
                <ele>67.600000</ele>
                <time>1970-01-01T01:43:03Z</time>
            </trkpt>
            <trkpt lon="101.404594" lat="14.147816">
                <ele>67.600000</ele>
                <time>1970-01-01T01:43:04Z</time>
            </trkpt>
            <trkpt lon="101.404565" lat="14.147821">
                <ele>67.600000</ele>
                <time>1970-01-01T01:43:05Z</time>
            </trkpt>
            <trkpt lon="101.404533" lat="14.147823">
                <ele>67.300000</ele>
                <time>1970-01-01T01:43:06Z</time>
            </trkpt>
            <trkpt lon="101.404503" lat="14.147836">
                <ele>67.300000</ele>
                <time>1970-01-01T01:43:07Z</time>
            </trkpt>
            <trkpt lon="101.404470" lat="14.147843">
                <ele>67.100000</ele>
                <time>1970-01-01T01:43:08Z</time>
            </trkpt>
            <trkpt lon="101.404440" lat="14.147849">
                <ele>66.800000</ele>
                <time>1970-01-01T01:43:09Z</time>
            </trkpt>
            <trkpt lon="101.404397" lat="14.147865">
                <ele>66.800000</ele>
                <time>1970-01-01T01:43:11Z</time>
            </trkpt>
            <trkpt lon="101.404376" lat="14.147886">
                <ele>66.800000</ele>
                <time>1970-01-01T01:43:12Z</time>
            </trkpt>
            <trkpt lon="101.404360" lat="14.147918">
                <ele>66.600000</ele>
                <time>1970-01-01T01:43:13Z</time>
            </trkpt>
            <trkpt lon="101.404345" lat="14.147960">
                <ele>66.800000</ele>
                <time>1970-01-01T01:43:14Z</time>
            </trkpt>
            <trkpt lon="101.404336" lat="14.148003">
                <ele>66.700000</ele>
                <time>1970-01-01T01:43:15Z</time>
            </trkpt>
            <trkpt lon="101.404334" lat="14.148036">
                <ele>66.600000</ele>
                <time>1970-01-01T01:43:16Z</time>
            </trkpt>
            <trkpt lon="101.404341" lat="14.148070">
                <ele>66.500000</ele>
                <time>1970-01-01T01:43:17Z</time>
            </trkpt>
            <trkpt lon="101.404355" lat="14.148108">
                <ele>66.400000</ele>
                <time>1970-01-01T01:43:18Z</time>
            </trkpt>
            <trkpt lon="101.404371" lat="14.148183">
                <ele>66.200000</ele>
                <time>1970-01-01T01:43:19Z</time>
            </trkpt>
            <trkpt lon="101.404391" lat="14.148220">
                <ele>66.000000</ele>
                <time>1970-01-01T01:43:20Z</time>
            </trkpt>
            <trkpt lon="101.404441" lat="14.148270">
                <ele>65.500000</ele>
                <time>1970-01-01T01:43:21Z</time>
            </trkpt>
            <trkpt lon="101.404481" lat="14.148328">
                <ele>60.100000</ele>
                <time>1970-01-01T01:43:22Z</time>
            </trkpt>
            <trkpt lon="101.404515" lat="14.148372">
                <ele>59.800000</ele>
                <time>1970-01-01T01:43:23Z</time>
            </trkpt>
            <trkpt lon="101.404551" lat="14.148396">
                <ele>59.500000</ele>
                <time>1970-01-01T01:43:24Z</time>
            </trkpt>
            <trkpt lon="101.404579" lat="14.148431">
                <ele>59.500000</ele>
                <time>1970-01-01T01:43:25Z</time>
            </trkpt>
            <trkpt lon="101.404599" lat="14.148467">
                <ele>59.300000</ele>
                <time>1970-01-01T01:43:26Z</time>
            </trkpt>
            <trkpt lon="101.404611" lat="14.148507">
                <ele>59.000000</ele>
                <time>1970-01-01T01:43:27Z</time>
            </trkpt>
            <trkpt lon="101.404590" lat="14.148536">
                <ele>58.800000</ele>
                <time>1970-01-01T01:43:28Z</time>
            </trkpt>
            <trkpt lon="101.404580" lat="14.148571">
                <ele>58.500000</ele>
                <time>1970-01-01T01:43:29Z</time>
            </trkpt>
            <trkpt lon="101.404551" lat="14.148611">
                <ele>58.200000</ele>
                <time>1970-01-01T01:43:30Z</time>
            </trkpt>
            <trkpt lon="101.404515" lat="14.148645">
                <ele>58.000000</ele>
                <time>1970-01-01T01:43:31Z</time>
            </trkpt>
            <trkpt lon="101.404484" lat="14.148673">
                <ele>58.000000</ele>
                <time>1970-01-01T01:43:32Z</time>
            </trkpt>
            <trkpt lon="101.404442" lat="14.148689">
                <ele>57.700000</ele>
                <time>1970-01-01T01:43:33Z</time>
            </trkpt>
            <trkpt lon="101.404395" lat="14.148701">
                <ele>57.700000</ele>
                <time>1970-01-01T01:43:34Z</time>
            </trkpt>
            <trkpt lon="101.404353" lat="14.148702">
                <ele>57.700000</ele>
                <time>1970-01-01T01:43:35Z</time>
            </trkpt>
            <trkpt lon="101.404306" lat="14.148702">
                <ele>57.700000</ele>
                <time>1970-01-01T01:43:36Z</time>
            </trkpt>
            <trkpt lon="101.404261" lat="14.148700">
                <ele>57.700000</ele>
                <time>1970-01-01T01:43:37Z</time>
            </trkpt>
            <trkpt lon="101.404220" lat="14.148697">
                <ele>57.700000</ele>
                <time>1970-01-01T01:43:38Z</time>
            </trkpt>
            <trkpt lon="101.404180" lat="14.148699">
                <ele>57.700000</ele>
                <time>1970-01-01T01:43:39Z</time>
            </trkpt>
            <trkpt lon="101.404134" lat="14.148689">
                <ele>57.700000</ele>
                <time>1970-01-01T01:43:40Z</time>
            </trkpt>
            <trkpt lon="101.404092" lat="14.148686">
                <ele>57.700000</ele>
                <time>1970-01-01T01:43:41Z</time>
            </trkpt>
            <trkpt lon="101.404048" lat="14.148683">
                <ele>58.000000</ele>
                <time>1970-01-01T01:43:42Z</time>
            </trkpt>
            <trkpt lon="101.404006" lat="14.148681">
                <ele>58.000000</ele>
                <time>1970-01-01T01:43:43Z</time>
            </trkpt>
            <trkpt lon="101.403962" lat="14.148682">
                <ele>58.000000</ele>
                <time>1970-01-01T01:43:44Z</time>
            </trkpt>
            <trkpt lon="101.403914" lat="14.148686">
                <ele>57.700000</ele>
                <time>1970-01-01T01:43:45Z</time>
            </trkpt>
            <trkpt lon="101.403866" lat="14.148687">
                <ele>57.700000</ele>
                <time>1970-01-01T01:43:46Z</time>
            </trkpt>
            <trkpt lon="101.403812" lat="14.148682">
                <ele>58.000000</ele>
                <time>1970-01-01T01:43:47Z</time>
            </trkpt>
            <trkpt lon="101.403760" lat="14.148688">
                <ele>57.800000</ele>
                <time>1970-01-01T01:43:48Z</time>
            </trkpt>
            <trkpt lon="101.403713" lat="14.148689">
                <ele>57.800000</ele>
                <time>1970-01-01T01:43:49Z</time>
            </trkpt>
            <trkpt lon="101.403663" lat="14.148681">
                <ele>58.100000</ele>
                <time>1970-01-01T01:43:50Z</time>
            </trkpt>
            <trkpt lon="101.403610" lat="14.148676">
                <ele>58.100000</ele>
                <time>1970-01-01T01:43:51Z</time>
            </trkpt>
            <trkpt lon="101.403566" lat="14.148664">
                <ele>58.100000</ele>
                <time>1970-01-01T01:43:52Z</time>
            </trkpt>
            <trkpt lon="101.403524" lat="14.148654">
                <ele>58.200000</ele>
                <time>1970-01-01T01:43:53Z</time>
            </trkpt>
            <trkpt lon="101.403477" lat="14.148650">
                <ele>58.200000</ele>
                <time>1970-01-01T01:43:54Z</time>
            </trkpt>
            <trkpt lon="101.403424" lat="14.148638">
                <ele>57.300000</ele>
                <time>1970-01-01T01:43:55Z</time>
            </trkpt>
            <trkpt lon="101.403377" lat="14.148637">
                <ele>57.500000</ele>
                <time>1970-01-01T01:43:56Z</time>
            </trkpt>
            <trkpt lon="101.403327" lat="14.148628">
                <ele>57.500000</ele>
                <time>1970-01-01T01:43:57Z</time>
            </trkpt>
            <trkpt lon="101.403283" lat="14.148623">
                <ele>57.500000</ele>
                <time>1970-01-01T01:43:58Z</time>
            </trkpt>
            <trkpt lon="101.403250" lat="14.148606">
                <ele>57.500000</ele>
                <time>1970-01-01T01:43:59Z</time>
            </trkpt>
            <trkpt lon="101.403213" lat="14.148592">
                <ele>58.000000</ele>
                <time>1970-01-01T01:44:00Z</time>
            </trkpt>
            <trkpt lon="101.403178" lat="14.148587">
                <ele>58.000000</ele>
                <time>1970-01-01T01:44:01Z</time>
            </trkpt>
            <trkpt lon="101.403143" lat="14.148586">
                <ele>58.000000</ele>
                <time>1970-01-01T01:44:02Z</time>
            </trkpt>
            <trkpt lon="101.403104" lat="14.148580">
                <ele>58.000000</ele>
                <time>1970-01-01T01:44:03Z</time>
            </trkpt>
            <trkpt lon="101.403055" lat="14.148579">
                <ele>58.000000</ele>
                <time>1970-01-01T01:44:04Z</time>
            </trkpt>
            <trkpt lon="101.403005" lat="14.148582">
                <ele>57.800000</ele>
                <time>1970-01-01T01:44:05Z</time>
            </trkpt>
            <trkpt lon="101.402959" lat="14.148584">
                <ele>57.600000</ele>
                <time>1970-01-01T01:44:06Z</time>
            </trkpt>
            <trkpt lon="101.402910" lat="14.148590">
                <ele>57.300000</ele>
                <time>1970-01-01T01:44:07Z</time>
            </trkpt>
            <trkpt lon="101.402864" lat="14.148587">
                <ele>57.000000</ele>
                <time>1970-01-01T01:44:08Z</time>
            </trkpt>
            <trkpt lon="101.402817" lat="14.148585">
                <ele>57.000000</ele>
                <time>1970-01-01T01:44:09Z</time>
            </trkpt>
            <trkpt lon="101.402766" lat="14.148577">
                <ele>57.000000</ele>
                <time>1970-01-01T01:44:10Z</time>
            </trkpt>
            <trkpt lon="101.402718" lat="14.148568">
                <ele>57.000000</ele>
                <time>1970-01-01T01:44:11Z</time>
            </trkpt>
            <trkpt lon="101.402662" lat="14.148568">
                <ele>56.900000</ele>
                <time>1970-01-01T01:44:12Z</time>
            </trkpt>
            <trkpt lon="101.402620" lat="14.148568">
                <ele>56.900000</ele>
                <time>1970-01-01T01:44:13Z</time>
            </trkpt>
            <trkpt lon="101.402567" lat="14.148576">
                <ele>56.800000</ele>
                <time>1970-01-01T01:44:14Z</time>
            </trkpt>
            <trkpt lon="101.402519" lat="14.148578">
                <ele>56.700000</ele>
                <time>1970-01-01T01:44:15Z</time>
            </trkpt>
            <trkpt lon="101.402466" lat="14.148583">
                <ele>56.700000</ele>
                <time>1970-01-01T01:44:16Z</time>
            </trkpt>
            <trkpt lon="101.402419" lat="14.148589">
                <ele>56.700000</ele>
                <time>1970-01-01T01:44:17Z</time>
            </trkpt>
            <trkpt lon="101.402364" lat="14.148593">
                <ele>56.700000</ele>
                <time>1970-01-01T01:44:18Z</time>
            </trkpt>
            <trkpt lon="101.402316" lat="14.148609">
                <ele>56.400000</ele>
                <time>1970-01-01T01:44:19Z</time>
            </trkpt>
            <trkpt lon="101.402266" lat="14.148623">
                <ele>56.400000</ele>
                <time>1970-01-01T01:44:20Z</time>
            </trkpt>
            <trkpt lon="101.402229" lat="14.148661">
                <ele>56.000000</ele>
                <time>1970-01-01T01:44:21Z</time>
            </trkpt>
            <trkpt lon="101.402186" lat="14.148685">
                <ele>56.000000</ele>
                <time>1970-01-01T01:44:22Z</time>
            </trkpt>
            <trkpt lon="101.402141" lat="14.148709">
                <ele>55.700000</ele>
                <time>1970-01-01T01:44:23Z</time>
            </trkpt>
            <trkpt lon="101.402097" lat="14.148727">
                <ele>55.900000</ele>
                <time>1970-01-01T01:44:24Z</time>
            </trkpt>
            <trkpt lon="101.402042" lat="14.148738">
                <ele>55.900000</ele>
                <time>1970-01-01T01:44:25Z</time>
            </trkpt>
            <trkpt lon="101.401988" lat="14.148737">
                <ele>56.000000</ele>
                <time>1970-01-01T01:44:26Z</time>
            </trkpt>
            <trkpt lon="101.401941" lat="14.148732">
                <ele>56.000000</ele>
                <time>1970-01-01T01:44:27Z</time>
            </trkpt>
            <trkpt lon="101.401898" lat="14.148726">
                <ele>56.500000</ele>
                <time>1970-01-01T01:44:28Z</time>
            </trkpt>
            <trkpt lon="101.401858" lat="14.148719">
                <ele>56.500000</ele>
                <time>1970-01-01T01:44:29Z</time>
            </trkpt>
            <trkpt lon="101.401814" lat="14.148720">
                <ele>56.500000</ele>
                <time>1970-01-01T01:44:30Z</time>
            </trkpt>
            <trkpt lon="101.401775" lat="14.148723">
                <ele>56.500000</ele>
                <time>1970-01-01T01:44:31Z</time>
            </trkpt>
            <trkpt lon="101.401736" lat="14.148727">
                <ele>56.500000</ele>
                <time>1970-01-01T01:44:32Z</time>
            </trkpt>
            <trkpt lon="101.401688" lat="14.148752">
                <ele>56.000000</ele>
                <time>1970-01-01T01:44:34Z</time>
            </trkpt>
            <trkpt lon="101.401658" lat="14.148751">
                <ele>56.200000</ele>
                <time>1970-01-01T01:44:35Z</time>
            </trkpt>
            <trkpt lon="101.401624" lat="14.148745">
                <ele>56.100000</ele>
                <time>1970-01-01T01:44:37Z</time>
            </trkpt>
            <trkpt lon="101.401599" lat="14.148723">
                <ele>56.900000</ele>
                <time>1970-01-01T01:44:39Z</time>
            </trkpt>
            <trkpt lon="101.401590" lat="14.148687">
                <ele>56.900000</ele>
                <time>1970-01-01T01:44:41Z</time>
            </trkpt>
            <trkpt lon="101.401591" lat="14.148640">
                <ele>57.900000</ele>
                <time>1970-01-01T01:44:43Z</time>
            </trkpt>
            <trkpt lon="101.401592" lat="14.148609">
                <ele>57.900000</ele>
                <time>1970-01-01T01:44:44Z</time>
            </trkpt>
            <trkpt lon="101.401592" lat="14.148576">
                <ele>58.400000</ele>
                <time>1970-01-01T01:44:45Z</time>
            </trkpt>
            <trkpt lon="101.401591" lat="14.148544">
                <ele>58.900000</ele>
                <time>1970-01-01T01:44:46Z</time>
            </trkpt>
            <trkpt lon="101.401590" lat="14.148514">
                <ele>59.400000</ele>
                <time>1970-01-01T01:44:47Z</time>
            </trkpt>
            <trkpt lon="101.401590" lat="14.148484">
                <ele>59.400000</ele>
                <time>1970-01-01T01:44:48Z</time>
            </trkpt>
            <trkpt lon="101.401582" lat="14.148444">
                <ele>59.900000</ele>
                <time>1970-01-01T01:44:50Z</time>
            </trkpt>
            <trkpt lon="101.401541" lat="14.148438">
                <ele>60.100000</ele>
                <time>1970-01-01T01:44:52Z</time>
            </trkpt>
            <trkpt lon="101.401517" lat="14.148455">
                <ele>60.400000</ele>
                <time>1970-01-01T01:44:53Z</time>
            </trkpt>
            <trkpt lon="101.401495" lat="14.148475">
                <ele>60.400000</ele>
                <time>1970-01-01T01:44:54Z</time>
            </trkpt>
            <trkpt lon="101.401466" lat="14.148496">
                <ele>60.000000</ele>
                <time>1970-01-01T01:44:56Z</time>
            </trkpt>
            <trkpt lon="101.401426" lat="14.148505">
                <ele>60.000000</ele>
                <time>1970-01-01T01:45:00Z</time>
            </trkpt>
            <trkpt lon="101.401391" lat="14.148508">
                <ele>60.100000</ele>
                <time>1970-01-01T01:45:02Z</time>
            </trkpt>
            <trkpt lon="101.401347" lat="14.148511">
                <ele>60.100000</ele>
                <time>1970-01-01T01:45:04Z</time>
            </trkpt>
            <trkpt lon="101.401317" lat="14.148512">
                <ele>60.100000</ele>
                <time>1970-01-01T01:45:05Z</time>
            </trkpt>
            <trkpt lon="101.401287" lat="14.148513">
                <ele>60.100000</ele>
                <time>1970-01-01T01:45:06Z</time>
            </trkpt>
            <trkpt lon="101.401234" lat="14.148511">
                <ele>60.100000</ele>
                <time>1970-01-01T01:45:08Z</time>
            </trkpt>
            <trkpt lon="101.401194" lat="14.148496">
                <ele>60.100000</ele>
                <time>1970-01-01T01:45:10Z</time>
            </trkpt>
            <trkpt lon="101.401162" lat="14.148481">
                <ele>60.100000</ele>
                <time>1970-01-01T01:45:12Z</time>
            </trkpt>
            <trkpt lon="101.401135" lat="14.148499">
                <ele>60.300000</ele>
                <time>1970-01-01T01:45:14Z</time>
            </trkpt>
            <trkpt lon="101.401113" lat="14.148538">
                <ele>60.000000</ele>
                <time>1970-01-01T01:45:16Z</time>
            </trkpt>
            <trkpt lon="101.401094" lat="14.148563">
                <ele>60.000000</ele>
                <time>1970-01-01T01:45:17Z</time>
            </trkpt>
            <trkpt lon="101.401072" lat="14.148583">
                <ele>60.000000</ele>
                <time>1970-01-01T01:45:18Z</time>
            </trkpt>
            <trkpt lon="101.401048" lat="14.148597">
                <ele>60.300000</ele>
                <time>1970-01-01T01:45:19Z</time>
            </trkpt>
            <trkpt lon="101.400996" lat="14.148608">
                <ele>60.300000</ele>
                <time>1970-01-01T01:45:21Z</time>
            </trkpt>
            <trkpt lon="101.400962" lat="14.148610">
                <ele>60.500000</ele>
                <time>1970-01-01T01:45:22Z</time>
            </trkpt>
            <trkpt lon="101.400933" lat="14.148612">
                <ele>60.800000</ele>
                <time>1970-01-01T01:45:23Z</time>
            </trkpt>
            <trkpt lon="101.400877" lat="14.148615">
                <ele>61.000000</ele>
                <time>1970-01-01T01:45:25Z</time>
            </trkpt>
            <trkpt lon="101.400844" lat="14.148617">
                <ele>61.300000</ele>
                <time>1970-01-01T01:45:26Z</time>
            </trkpt>
            <trkpt lon="101.400809" lat="14.148622">
                <ele>61.300000</ele>
                <time>1970-01-01T01:45:27Z</time>
            </trkpt>
            <trkpt lon="101.400782" lat="14.148630">
                <ele>61.500000</ele>
                <time>1970-01-01T01:45:28Z</time>
            </trkpt>
            <trkpt lon="101.400753" lat="14.148638">
                <ele>61.800000</ele>
                <time>1970-01-01T01:45:29Z</time>
            </trkpt>
            <trkpt lon="101.400709" lat="14.148659">
                <ele>61.900000</ele>
                <time>1970-01-01T01:45:31Z</time>
            </trkpt>
            <trkpt lon="101.400687" lat="14.148686">
                <ele>61.800000</ele>
                <time>1970-01-01T01:45:32Z</time>
            </trkpt>
            <trkpt lon="101.400660" lat="14.148715">
                <ele>62.200000</ele>
                <time>1970-01-01T01:45:33Z</time>
            </trkpt>
            <trkpt lon="101.400629" lat="14.148736">
                <ele>62.300000</ele>
                <time>1970-01-01T01:45:34Z</time>
            </trkpt>
            <trkpt lon="101.400598" lat="14.148745">
                <ele>62.300000</ele>
                <time>1970-01-01T01:45:35Z</time>
            </trkpt>
            <trkpt lon="101.400568" lat="14.148747">
                <ele>62.400000</ele>
                <time>1970-01-01T01:45:36Z</time>
            </trkpt>
            <trkpt lon="101.400532" lat="14.148742">
                <ele>62.500000</ele>
                <time>1970-01-01T01:45:37Z</time>
            </trkpt>
            <trkpt lon="101.400500" lat="14.148734">
                <ele>62.600000</ele>
                <time>1970-01-01T01:45:38Z</time>
            </trkpt>
            <trkpt lon="101.400473" lat="14.148722">
                <ele>62.800000</ele>
                <time>1970-01-01T01:45:39Z</time>
            </trkpt>
            <trkpt lon="101.400443" lat="14.148708">
                <ele>63.000000</ele>
                <time>1970-01-01T01:45:40Z</time>
            </trkpt>
            <trkpt lon="101.400417" lat="14.148698">
                <ele>63.300000</ele>
                <time>1970-01-01T01:45:41Z</time>
            </trkpt>
            <trkpt lon="101.400377" lat="14.148700">
                <ele>63.300000</ele>
                <time>1970-01-01T01:45:43Z</time>
            </trkpt>
            <trkpt lon="101.400350" lat="14.148709">
                <ele>63.500000</ele>
                <time>1970-01-01T01:45:45Z</time>
            </trkpt>
            <trkpt lon="101.400319" lat="14.148726">
                <ele>63.800000</ele>
                <time>1970-01-01T01:45:48Z</time>
            </trkpt>
            <trkpt lon="101.400278" lat="14.148736">
                <ele>63.900000</ele>
                <time>1970-01-01T01:45:56Z</time>
            </trkpt>
            <trkpt lon="101.400227" lat="14.148736">
                <ele>64.300000</ele>
                <time>1970-01-01T01:46:12Z</time>
            </trkpt>
            <trkpt lon="101.400193" lat="14.148731">
                <ele>64.700000</ele>
                <time>1970-01-01T01:46:16Z</time>
            </trkpt>
            <trkpt lon="101.400161" lat="14.148728">
                <ele>64.700000</ele>
                <time>1970-01-01T01:46:23Z</time>
            </trkpt>
            <trkpt lon="101.400112" lat="14.148704">
                <ele>65.600000</ele>
                <time>1970-01-01T01:46:26Z</time>
            </trkpt>
            <trkpt lon="101.400079" lat="14.148697">
                <ele>65.600000</ele>
                <time>1970-01-01T01:46:27Z</time>
            </trkpt>
            <trkpt lon="101.400046" lat="14.148699">
                <ele>66.100000</ele>
                <time>1970-01-01T01:46:28Z</time>
            </trkpt>
            <trkpt lon="101.400017" lat="14.148701">
                <ele>66.600000</ele>
                <time>1970-01-01T01:46:29Z</time>
            </trkpt>
            <trkpt lon="101.399973" lat="14.148704">
                <ele>67.100000</ele>
                <time>1970-01-01T01:46:31Z</time>
            </trkpt>
            <trkpt lon="101.399946" lat="14.148700">
                <ele>67.400000</ele>
                <time>1970-01-01T01:46:33Z</time>
            </trkpt>
            <trkpt lon="101.399907" lat="14.148698">
                <ele>67.400000</ele>
                <time>1970-01-01T01:46:36Z</time>
            </trkpt>
            <trkpt lon="101.399878" lat="14.148695">
                <ele>67.700000</ele>
                <time>1970-01-01T01:46:38Z</time>
            </trkpt>
            <trkpt lon="101.399841" lat="14.148692">
                <ele>68.000000</ele>
                <time>1970-01-01T01:46:40Z</time>
            </trkpt>
            <trkpt lon="101.399810" lat="14.148702">
                <ele>68.300000</ele>
                <time>1970-01-01T01:46:43Z</time>
            </trkpt>
            <trkpt lon="101.399793" lat="14.148725">
                <ele>68.300000</ele>
                <time>1970-01-01T01:46:45Z</time>
            </trkpt>
            <trkpt lon="101.399773" lat="14.148744">
                <ele>67.900000</ele>
                <time>1970-01-01T01:46:48Z</time>
            </trkpt>
            <trkpt lon="101.399743" lat="14.148754">
                <ele>67.900000</ele>
                <time>1970-01-01T01:46:50Z</time>
            </trkpt>
            <trkpt lon="101.399701" lat="14.148746">
                <ele>67.900000</ele>
                <time>1970-01-01T01:46:52Z</time>
            </trkpt>
            <trkpt lon="101.399676" lat="14.148731">
                <ele>67.900000</ele>
                <time>1970-01-01T01:46:53Z</time>
            </trkpt>
            <trkpt lon="101.399650" lat="14.148716">
                <ele>68.400000</ele>
                <time>1970-01-01T01:46:54Z</time>
            </trkpt>
            <trkpt lon="101.399602" lat="14.148691">
                <ele>68.300000</ele>
                <time>1970-01-01T01:46:56Z</time>
            </trkpt>
            <trkpt lon="101.399576" lat="14.148680">
                <ele>68.900000</ele>
                <time>1970-01-01T01:46:57Z</time>
            </trkpt>
            <trkpt lon="101.399532" lat="14.148657">
                <ele>68.800000</ele>
                <time>1970-01-01T01:46:59Z</time>
            </trkpt>
            <trkpt lon="101.399502" lat="14.148648">
                <ele>68.800000</ele>
                <time>1970-01-01T01:47:00Z</time>
            </trkpt>
            <trkpt lon="101.399468" lat="14.148643">
                <ele>69.300000</ele>
                <time>1970-01-01T01:47:01Z</time>
            </trkpt>
            <trkpt lon="101.399423" lat="14.148644">
                <ele>68.500000</ele>
                <time>1970-01-01T01:47:02Z</time>
            </trkpt>
            <trkpt lon="101.399319" lat="14.148651">
                <ele>67.500000</ele>
                <time>1970-01-01T01:47:03Z</time>
            </trkpt>
            <trkpt lon="101.399271" lat="14.148671">
                <ele>67.100000</ele>
                <time>1970-01-01T01:47:04Z</time>
            </trkpt>
            <trkpt lon="101.399242" lat="14.148677">
                <ele>66.800000</ele>
                <time>1970-01-01T01:47:05Z</time>
            </trkpt>
            <trkpt lon="101.399214" lat="14.148688">
                <ele>66.200000</ele>
                <time>1970-01-01T01:47:06Z</time>
            </trkpt>
            <trkpt lon="101.399173" lat="14.148713">
                <ele>66.000000</ele>
                <time>1970-01-01T01:47:08Z</time>
            </trkpt>
            <trkpt lon="101.399122" lat="14.148789">
                <ele>65.300000</ele>
                <time>1970-01-01T01:47:10Z</time>
            </trkpt>
            <trkpt lon="101.399079" lat="14.148842">
                <ele>64.900000</ele>
                <time>1970-01-01T01:47:11Z</time>
            </trkpt>
            <trkpt lon="101.399049" lat="14.148877">
                <ele>64.400000</ele>
                <time>1970-01-01T01:47:12Z</time>
            </trkpt>
            <trkpt lon="101.399020" lat="14.148903">
                <ele>63.900000</ele>
                <time>1970-01-01T01:47:13Z</time>
            </trkpt>
            <trkpt lon="101.398985" lat="14.148926">
                <ele>63.900000</ele>
                <time>1970-01-01T01:47:14Z</time>
            </trkpt>
            <trkpt lon="101.398959" lat="14.148940">
                <ele>63.400000</ele>
                <time>1970-01-01T01:47:15Z</time>
            </trkpt>
            <trkpt lon="101.398945" lat="14.148964">
                <ele>63.400000</ele>
                <time>1970-01-01T01:47:16Z</time>
            </trkpt>
            <trkpt lon="101.398932" lat="14.148990">
                <ele>62.900000</ele>
                <time>1970-01-01T01:47:17Z</time>
            </trkpt>
            <trkpt lon="101.398958" lat="14.149016">
                <ele>62.900000</ele>
                <time>1970-01-01T01:47:18Z</time>
            </trkpt>
            <trkpt lon="101.398927" lat="14.149062">
                <ele>61.800000</ele>
                <time>1970-01-01T01:47:20Z</time>
            </trkpt>
            <trkpt lon="101.398886" lat="14.149066">
                <ele>61.900000</ele>
                <time>1970-01-01T01:47:21Z</time>
            </trkpt>
            <trkpt lon="101.398850" lat="14.149063">
                <ele>62.000000</ele>
                <time>1970-01-01T01:47:22Z</time>
            </trkpt>
            <trkpt lon="101.398807" lat="14.149057">
                <ele>62.700000</ele>
                <time>1970-01-01T01:47:23Z</time>
            </trkpt>
            <trkpt lon="101.398762" lat="14.149043">
                <ele>62.900000</ele>
                <time>1970-01-01T01:47:24Z</time>
            </trkpt>
            <trkpt lon="101.398718" lat="14.149039">
                <ele>63.100000</ele>
                <time>1970-01-01T01:47:25Z</time>
            </trkpt>
            <trkpt lon="101.398679" lat="14.149038">
                <ele>63.300000</ele>
                <time>1970-01-01T01:47:26Z</time>
            </trkpt>
            <trkpt lon="101.398649" lat="14.149037">
                <ele>63.600000</ele>
                <time>1970-01-01T01:47:27Z</time>
            </trkpt>
            <trkpt lon="101.398611" lat="14.149028">
                <ele>63.800000</ele>
                <time>1970-01-01T01:47:29Z</time>
            </trkpt>
            <trkpt lon="101.398601" lat="14.148998">
                <ele>64.600000</ele>
                <time>1970-01-01T01:47:31Z</time>
            </trkpt>
            <trkpt lon="101.398596" lat="14.148952">
                <ele>65.300000</ele>
                <time>1970-01-01T01:47:33Z</time>
            </trkpt>
            <trkpt lon="101.398590" lat="14.148914">
                <ele>65.800000</ele>
                <time>1970-01-01T01:47:35Z</time>
            </trkpt>
            <trkpt lon="101.398564" lat="14.148884">
                <ele>66.400000</ele>
                <time>1970-01-01T01:47:39Z</time>
            </trkpt>
            <trkpt lon="101.398530" lat="14.148863">
                <ele>66.600000</ele>
                <time>1970-01-01T01:47:41Z</time>
            </trkpt>
            <trkpt lon="101.398503" lat="14.148850">
                <ele>67.200000</ele>
                <time>1970-01-01T01:47:43Z</time>
            </trkpt>
            <trkpt lon="101.398476" lat="14.148839">
                <ele>67.400000</ele>
                <time>1970-01-01T01:47:45Z</time>
            </trkpt>
            <trkpt lon="101.398444" lat="14.148831">
                <ele>67.600000</ele>
                <time>1970-01-01T01:47:47Z</time>
            </trkpt>
            <trkpt lon="101.398417" lat="14.148814">
                <ele>67.600000</ele>
                <time>1970-01-01T01:47:49Z</time>
            </trkpt>
            <trkpt lon="101.398389" lat="14.148804">
                <ele>68.400000</ele>
                <time>1970-01-01T01:47:51Z</time>
            </trkpt>
            <trkpt lon="101.398343" lat="14.148814">
                <ele>67.700000</ele>
                <time>1970-01-01T01:47:53Z</time>
            </trkpt>
            <trkpt lon="101.398294" lat="14.148853">
                <ele>66.900000</ele>
                <time>1970-01-01T01:47:54Z</time>
            </trkpt>
            <trkpt lon="101.398267" lat="14.148918">
                <ele>66.200000</ele>
                <time>1970-01-01T01:47:55Z</time>
            </trkpt>
            <trkpt lon="101.398226" lat="14.148947">
                <ele>65.400000</ele>
                <time>1970-01-01T01:47:56Z</time>
            </trkpt>
            <trkpt lon="101.398196" lat="14.148970">
                <ele>65.400000</ele>
                <time>1970-01-01T01:47:57Z</time>
            </trkpt>
            <trkpt lon="101.398172" lat="14.149018">
                <ele>64.900000</ele>
                <time>1970-01-01T01:47:58Z</time>
            </trkpt>
            <trkpt lon="101.398163" lat="14.149053">
                <ele>64.500000</ele>
                <time>1970-01-01T01:47:59Z</time>
            </trkpt>
            <trkpt lon="101.398152" lat="14.149105">
                <ele>63.700000</ele>
                <time>1970-01-01T01:48:00Z</time>
            </trkpt>
            <trkpt lon="101.398147" lat="14.149144">
                <ele>63.200000</ele>
                <time>1970-01-01T01:48:01Z</time>
            </trkpt>
            <trkpt lon="101.398107" lat="14.149165">
                <ele>63.500000</ele>
                <time>1970-01-01T01:48:03Z</time>
            </trkpt>
            <trkpt lon="101.398057" lat="14.149176">
                <ele>64.000000</ele>
                <time>1970-01-01T01:48:05Z</time>
            </trkpt>
            <trkpt lon="101.398024" lat="14.149179">
                <ele>64.000000</ele>
                <time>1970-01-01T01:48:06Z</time>
            </trkpt>
            <trkpt lon="101.397992" lat="14.149184">
                <ele>64.300000</ele>
                <time>1970-01-01T01:48:07Z</time>
            </trkpt>
            <trkpt lon="101.397955" lat="14.149194">
                <ele>64.200000</ele>
                <time>1970-01-01T01:48:08Z</time>
            </trkpt>
            <trkpt lon="101.397919" lat="14.149202">
                <ele>64.600000</ele>
                <time>1970-01-01T01:48:09Z</time>
            </trkpt>
            <trkpt lon="101.397889" lat="14.149204">
                <ele>64.600000</ele>
                <time>1970-01-01T01:48:10Z</time>
            </trkpt>
            <trkpt lon="101.397852" lat="14.149200">
                <ele>64.900000</ele>
                <time>1970-01-01T01:48:11Z</time>
            </trkpt>
            <trkpt lon="101.397800" lat="14.149218">
                <ele>65.400000</ele>
                <time>1970-01-01T01:48:13Z</time>
            </trkpt>
            <trkpt lon="101.397778" lat="14.149236">
                <ele>65.100000</ele>
                <time>1970-01-01T01:48:14Z</time>
            </trkpt>
            <trkpt lon="101.397760" lat="14.149261">
                <ele>65.100000</ele>
                <time>1970-01-01T01:48:15Z</time>
            </trkpt>
            <trkpt lon="101.397743" lat="14.149288">
                <ele>65.100000</ele>
                <time>1970-01-01T01:48:16Z</time>
            </trkpt>
            <trkpt lon="101.397728" lat="14.149326">
                <ele>64.900000</ele>
                <time>1970-01-01T01:48:17Z</time>
            </trkpt>
            <trkpt lon="101.397711" lat="14.149356">
                <ele>64.900000</ele>
                <time>1970-01-01T01:48:18Z</time>
            </trkpt>
            <trkpt lon="101.397688" lat="14.149382">
                <ele>64.900000</ele>
                <time>1970-01-01T01:48:19Z</time>
            </trkpt>
            <trkpt lon="101.397661" lat="14.149408">
                <ele>64.900000</ele>
                <time>1970-01-01T01:48:20Z</time>
            </trkpt>
            <trkpt lon="101.397624" lat="14.149418">
                <ele>65.100000</ele>
                <time>1970-01-01T01:48:21Z</time>
            </trkpt>
            <trkpt lon="101.397591" lat="14.149422">
                <ele>65.100000</ele>
                <time>1970-01-01T01:48:22Z</time>
            </trkpt>
            <trkpt lon="101.397562" lat="14.149423">
                <ele>65.400000</ele>
                <time>1970-01-01T01:48:23Z</time>
            </trkpt>
            <trkpt lon="101.397532" lat="14.149424">
                <ele>65.500000</ele>
                <time>1970-01-01T01:48:24Z</time>
            </trkpt>
            <trkpt lon="101.397497" lat="14.149428">
                <ele>65.400000</ele>
                <time>1970-01-01T01:48:25Z</time>
            </trkpt>
            <trkpt lon="101.397459" lat="14.149437">
                <ele>65.200000</ele>
                <time>1970-01-01T01:48:26Z</time>
            </trkpt>
            <trkpt lon="101.397422" lat="14.149445">
                <ele>65.200000</ele>
                <time>1970-01-01T01:48:27Z</time>
            </trkpt>
            <trkpt lon="101.397387" lat="14.149451">
                <ele>65.200000</ele>
                <time>1970-01-01T01:48:28Z</time>
            </trkpt>
            <trkpt lon="101.397356" lat="14.149450">
                <ele>65.200000</ele>
                <time>1970-01-01T01:48:29Z</time>
            </trkpt>
            <trkpt lon="101.397328" lat="14.149446">
                <ele>65.200000</ele>
                <time>1970-01-01T01:48:30Z</time>
            </trkpt>
            <trkpt lon="101.397269" lat="14.149435">
                <ele>65.200000</ele>
                <time>1970-01-01T01:48:32Z</time>
            </trkpt>
            <trkpt lon="101.397229" lat="14.149427">
                <ele>65.200000</ele>
                <time>1970-01-01T01:48:33Z</time>
            </trkpt>
            <trkpt lon="101.397194" lat="14.149423">
                <ele>65.300000</ele>
                <time>1970-01-01T01:48:34Z</time>
            </trkpt>
            <trkpt lon="101.397162" lat="14.149424">
                <ele>65.300000</ele>
                <time>1970-01-01T01:48:35Z</time>
            </trkpt>
            <trkpt lon="101.397131" lat="14.149428">
                <ele>65.500000</ele>
                <time>1970-01-01T01:48:36Z</time>
            </trkpt>
            <trkpt lon="101.397096" lat="14.149431">
                <ele>65.800000</ele>
                <time>1970-01-01T01:48:38Z</time>
            </trkpt>
            <trkpt lon="101.397063" lat="14.149451">
                <ele>66.000000</ele>
                <time>1970-01-01T01:48:40Z</time>
            </trkpt>
            <trkpt lon="101.397024" lat="14.149466">
                <ele>66.200000</ele>
                <time>1970-01-01T01:48:42Z</time>
            </trkpt>
            <trkpt lon="101.396970" lat="14.149498">
                <ele>66.200000</ele>
                <time>1970-01-01T01:48:51Z</time>
            </trkpt>
            <trkpt lon="101.396937" lat="14.149507">
                <ele>66.200000</ele>
                <time>1970-01-01T01:48:58Z</time>
            </trkpt>
            <trkpt lon="101.396904" lat="14.149533">
                <ele>66.200000</ele>
                <time>1970-01-01T01:49:00Z</time>
            </trkpt>
            <trkpt lon="101.396885" lat="14.149566">
                <ele>66.200000</ele>
                <time>1970-01-01T01:49:02Z</time>
            </trkpt>
            <trkpt lon="101.396878" lat="14.149607">
                <ele>66.200000</ele>
                <time>1970-01-01T01:49:05Z</time>
            </trkpt>
            <trkpt lon="101.396862" lat="14.149635">
                <ele>66.200000</ele>
                <time>1970-01-01T01:49:07Z</time>
            </trkpt>
            <trkpt lon="101.396850" lat="14.149671">
                <ele>66.300000</ele>
                <time>1970-01-01T01:49:11Z</time>
            </trkpt>
            <trkpt lon="101.396843" lat="14.149706">
                <ele>66.300000</ele>
                <time>1970-01-01T01:49:14Z</time>
            </trkpt>
            <trkpt lon="101.396829" lat="14.149737">
                <ele>66.300000</ele>
                <time>1970-01-01T01:49:17Z</time>
            </trkpt>
            <trkpt lon="101.396798" lat="14.149764">
                <ele>66.500000</ele>
                <time>1970-01-01T01:49:20Z</time>
            </trkpt>
            <trkpt lon="101.396763" lat="14.149781">
                <ele>66.800000</ele>
                <time>1970-01-01T01:49:23Z</time>
            </trkpt>
            <trkpt lon="101.396733" lat="14.149787">
                <ele>66.800000</ele>
                <time>1970-01-01T01:49:26Z</time>
            </trkpt>
            <trkpt lon="101.396695" lat="14.149795">
                <ele>67.000000</ele>
                <time>1970-01-01T01:49:29Z</time>
            </trkpt>
            <trkpt lon="101.396651" lat="14.149810">
                <ele>67.500000</ele>
                <time>1970-01-01T01:49:31Z</time>
            </trkpt>
            <trkpt lon="101.396625" lat="14.149824">
                <ele>68.000000</ele>
                <time>1970-01-01T01:49:32Z</time>
            </trkpt>
            <trkpt lon="101.396597" lat="14.149848">
                <ele>68.500000</ele>
                <time>1970-01-01T01:49:34Z</time>
            </trkpt>
            <trkpt lon="101.396571" lat="14.149876">
                <ele>68.800000</ele>
                <time>1970-01-01T01:49:37Z</time>
            </trkpt>
            <trkpt lon="101.396555" lat="14.149898">
                <ele>69.500000</ele>
                <time>1970-01-01T01:49:39Z</time>
            </trkpt>
            <trkpt lon="101.396528" lat="14.149913">
                <ele>69.500000</ele>
                <time>1970-01-01T01:49:44Z</time>
            </trkpt>
            <trkpt lon="101.396505" lat="14.149942">
                <ele>70.200000</ele>
                <time>1970-01-01T01:49:47Z</time>
            </trkpt>
            <trkpt lon="101.396475" lat="14.149940">
                <ele>70.200000</ele>
                <time>1970-01-01T01:49:50Z</time>
            </trkpt>
            <trkpt lon="101.396447" lat="14.149954">
                <ele>70.400000</ele>
                <time>1970-01-01T01:49:55Z</time>
            </trkpt>
            <trkpt lon="101.396418" lat="14.149960">
                <ele>70.700000</ele>
                <time>1970-01-01T01:49:59Z</time>
            </trkpt>
            <trkpt lon="101.396403" lat="14.149986">
                <ele>70.700000</ele>
                <time>1970-01-01T01:50:02Z</time>
            </trkpt>
            <trkpt lon="101.396400" lat="14.150016">
                <ele>70.700000</ele>
                <time>1970-01-01T01:50:05Z</time>
            </trkpt>
            <trkpt lon="101.396385" lat="14.150046">
                <ele>70.700000</ele>
                <time>1970-01-01T01:50:08Z</time>
            </trkpt>
            <trkpt lon="101.396375" lat="14.150079">
                <ele>71.000000</ele>
                <time>1970-01-01T01:50:10Z</time>
            </trkpt>
            <trkpt lon="101.396379" lat="14.150118">
                <ele>71.000000</ele>
                <time>1970-01-01T01:50:13Z</time>
            </trkpt>
            <trkpt lon="101.396394" lat="14.150148">
                <ele>70.800000</ele>
                <time>1970-01-01T01:50:15Z</time>
            </trkpt>
            <trkpt lon="101.396426" lat="14.150159">
                <ele>70.800000</ele>
                <time>1970-01-01T01:50:18Z</time>
            </trkpt>
            <trkpt lon="101.396459" lat="14.150168">
                <ele>70.500000</ele>
                <time>1970-01-01T01:50:20Z</time>
            </trkpt>
            <trkpt lon="101.396497" lat="14.150196">
                <ele>70.300000</ele>
                <time>1970-01-01T01:50:22Z</time>
            </trkpt>
            <trkpt lon="101.396523" lat="14.150226">
                <ele>70.100000</ele>
                <time>1970-01-01T01:50:24Z</time>
            </trkpt>
            <trkpt lon="101.396526" lat="14.150254">
                <ele>70.100000</ele>
                <time>1970-01-01T01:50:26Z</time>
            </trkpt>
            <trkpt lon="101.396524" lat="14.150298">
                <ele>70.100000</ele>
                <time>1970-01-01T01:50:28Z</time>
            </trkpt>
            <trkpt lon="101.396522" lat="14.150334">
                <ele>70.400000</ele>
                <time>1970-01-01T01:50:30Z</time>
            </trkpt>
            <trkpt lon="101.396524" lat="14.150362">
                <ele>70.900000</ele>
                <time>1970-01-01T01:50:33Z</time>
            </trkpt>
            <trkpt lon="101.396537" lat="14.150389">
                <ele>70.900000</ele>
                <time>1970-01-01T01:50:38Z</time>
            </trkpt>
            <trkpt lon="101.396551" lat="14.150420">
                <ele>71.300000</ele>
                <time>1970-01-01T01:50:40Z</time>
            </trkpt>
            <trkpt lon="101.396570" lat="14.150446">
                <ele>71.600000</ele>
                <time>1970-01-01T01:50:42Z</time>
            </trkpt>
            <trkpt lon="101.396590" lat="14.150470">
                <ele>71.600000</ele>
                <time>1970-01-01T01:50:44Z</time>
            </trkpt>
            <trkpt lon="101.396623" lat="14.150509">
                <ele>71.800000</ele>
                <time>1970-01-01T01:50:46Z</time>
            </trkpt>
            <trkpt lon="101.396656" lat="14.150544">
                <ele>72.000000</ele>
                <time>1970-01-01T01:50:48Z</time>
            </trkpt>
            <trkpt lon="101.396680" lat="14.150563">
                <ele>72.500000</ele>
                <time>1970-01-01T01:50:49Z</time>
            </trkpt>
            <trkpt lon="101.396710" lat="14.150582">
                <ele>72.300000</ele>
                <time>1970-01-01T01:50:50Z</time>
            </trkpt>
            <trkpt lon="101.396738" lat="14.150590">
                <ele>72.200000</ele>
                <time>1970-01-01T01:50:51Z</time>
            </trkpt>
            <trkpt lon="101.396786" lat="14.150598">
                <ele>72.000000</ele>
                <time>1970-01-01T01:50:53Z</time>
            </trkpt>
            <trkpt lon="101.396816" lat="14.150601">
                <ele>72.100000</ele>
                <time>1970-01-01T01:50:54Z</time>
            </trkpt>
            <trkpt lon="101.396849" lat="14.150606">
                <ele>72.100000</ele>
                <time>1970-01-01T01:50:55Z</time>
            </trkpt>
            <trkpt lon="101.396880" lat="14.150613">
                <ele>71.900000</ele>
                <time>1970-01-01T01:50:56Z</time>
            </trkpt>
            <trkpt lon="101.396932" lat="14.150629">
                <ele>71.600000</ele>
                <time>1970-01-01T01:50:58Z</time>
            </trkpt>
            <trkpt lon="101.396960" lat="14.150646">
                <ele>71.600000</ele>
                <time>1970-01-01T01:50:59Z</time>
            </trkpt>
            <trkpt lon="101.396983" lat="14.150662">
                <ele>71.600000</ele>
                <time>1970-01-01T01:51:00Z</time>
            </trkpt>
            <trkpt lon="101.397025" lat="14.150683">
                <ele>71.600000</ele>
                <time>1970-01-01T01:51:02Z</time>
            </trkpt>
            <trkpt lon="101.397054" lat="14.150701">
                <ele>71.200000</ele>
                <time>1970-01-01T01:51:03Z</time>
            </trkpt>
            <trkpt lon="101.397089" lat="14.150717">
                <ele>70.600000</ele>
                <time>1970-01-01T01:51:04Z</time>
            </trkpt>
            <trkpt lon="101.397132" lat="14.150734">
                <ele>70.700000</ele>
                <time>1970-01-01T01:51:05Z</time>
            </trkpt>
            <trkpt lon="101.397173" lat="14.150746">
                <ele>70.200000</ele>
                <time>1970-01-01T01:51:06Z</time>
            </trkpt>
            <trkpt lon="101.397213" lat="14.150759">
                <ele>69.800000</ele>
                <time>1970-01-01T01:51:07Z</time>
            </trkpt>
            <trkpt lon="101.397250" lat="14.150769">
                <ele>70.100000</ele>
                <time>1970-01-01T01:51:08Z</time>
            </trkpt>
            <trkpt lon="101.397285" lat="14.150775">
                <ele>70.100000</ele>
                <time>1970-01-01T01:51:09Z</time>
            </trkpt>
            <trkpt lon="101.397322" lat="14.150781">
                <ele>69.600000</ele>
                <time>1970-01-01T01:51:10Z</time>
            </trkpt>
            <trkpt lon="101.397363" lat="14.150787">
                <ele>69.100000</ele>
                <time>1970-01-01T01:51:11Z</time>
            </trkpt>
            <trkpt lon="101.397396" lat="14.150792">
                <ele>68.600000</ele>
                <time>1970-01-01T01:51:12Z</time>
            </trkpt>
            <trkpt lon="101.397428" lat="14.150807">
                <ele>68.200000</ele>
                <time>1970-01-01T01:51:13Z</time>
            </trkpt>
            <trkpt lon="101.397455" lat="14.150821">
                <ele>68.600000</ele>
                <time>1970-01-01T01:51:14Z</time>
            </trkpt>
            <trkpt lon="101.397475" lat="14.150841">
                <ele>68.100000</ele>
                <time>1970-01-01T01:51:15Z</time>
            </trkpt>
            <trkpt lon="101.397496" lat="14.150865">
                <ele>68.600000</ele>
                <time>1970-01-01T01:51:16Z</time>
            </trkpt>
            <trkpt lon="101.397526" lat="14.150900">
                <ele>68.600000</ele>
                <time>1970-01-01T01:51:17Z</time>
            </trkpt>
            <trkpt lon="101.397559" lat="14.150939">
                <ele>68.600000</ele>
                <time>1970-01-01T01:51:18Z</time>
            </trkpt>
            <trkpt lon="101.397586" lat="14.150978">
                <ele>68.500000</ele>
                <time>1970-01-01T01:51:19Z</time>
            </trkpt>
            <trkpt lon="101.397613" lat="14.151024">
                <ele>68.700000</ele>
                <time>1970-01-01T01:51:20Z</time>
            </trkpt>
            <trkpt lon="101.397659" lat="14.151117">
                <ele>68.700000</ele>
                <time>1970-01-01T01:51:21Z</time>
            </trkpt>
            <trkpt lon="101.397670" lat="14.151147">
                <ele>68.800000</ele>
                <time>1970-01-01T01:51:22Z</time>
            </trkpt>
            <trkpt lon="101.397712" lat="14.151323">
                <ele>68.300000</ele>
                <time>1970-01-01T01:51:25Z</time>
            </trkpt>
            <trkpt lon="101.397701" lat="14.151373">
                <ele>68.400000</ele>
                <time>1970-01-01T01:51:27Z</time>
            </trkpt>
            <trkpt lon="101.397742" lat="14.151399">
                <ele>67.900000</ele>
                <time>1970-01-01T01:51:29Z</time>
            </trkpt>
            <trkpt lon="101.397769" lat="14.151429">
                <ele>67.600000</ele>
                <time>1970-01-01T01:51:30Z</time>
            </trkpt>
            <trkpt lon="101.397791" lat="14.151456">
                <ele>67.600000</ele>
                <time>1970-01-01T01:51:31Z</time>
            </trkpt>
            <trkpt lon="101.397809" lat="14.151505">
                <ele>67.500000</ele>
                <time>1970-01-01T01:51:32Z</time>
            </trkpt>
            <trkpt lon="101.397830" lat="14.151532">
                <ele>67.700000</ele>
                <time>1970-01-01T01:51:33Z</time>
            </trkpt>
            <trkpt lon="101.397851" lat="14.151556">
                <ele>67.500000</ele>
                <time>1970-01-01T01:51:34Z</time>
            </trkpt>
            <trkpt lon="101.397877" lat="14.151599">
                <ele>68.000000</ele>
                <time>1970-01-01T01:51:35Z</time>
            </trkpt>
            <trkpt lon="101.397899" lat="14.151637">
                <ele>68.000000</ele>
                <time>1970-01-01T01:51:36Z</time>
            </trkpt>
            <trkpt lon="101.397919" lat="14.151679">
                <ele>68.100000</ele>
                <time>1970-01-01T01:51:37Z</time>
            </trkpt>
            <trkpt lon="101.397951" lat="14.151780">
                <ele>68.100000</ele>
                <time>1970-01-01T01:51:38Z</time>
            </trkpt>
            <trkpt lon="101.397966" lat="14.151824">
                <ele>68.100000</ele>
                <time>1970-01-01T01:51:39Z</time>
            </trkpt>
            <trkpt lon="101.397951" lat="14.151867">
                <ele>68.300000</ele>
                <time>1970-01-01T01:51:40Z</time>
            </trkpt>
            <trkpt lon="101.397964" lat="14.151893">
                <ele>68.500000</ele>
                <time>1970-01-01T01:51:41Z</time>
            </trkpt>
            <trkpt lon="101.397926" lat="14.151923">
                <ele>68.600000</ele>
                <time>1970-01-01T01:51:45Z</time>
            </trkpt>
            <trkpt lon="101.397911" lat="14.151951">
                <ele>68.800000</ele>
                <time>1970-01-01T01:51:46Z</time>
            </trkpt>
            <trkpt lon="101.397898" lat="14.151981">
                <ele>69.000000</ele>
                <time>1970-01-01T01:51:47Z</time>
            </trkpt>
            <trkpt lon="101.397876" lat="14.152000">
                <ele>69.200000</ele>
                <time>1970-01-01T01:51:48Z</time>
            </trkpt>
            <trkpt lon="101.397843" lat="14.152036">
                <ele>69.400000</ele>
                <time>1970-01-01T01:51:50Z</time>
            </trkpt>
            <trkpt lon="101.397829" lat="14.152062">
                <ele>69.700000</ele>
                <time>1970-01-01T01:51:51Z</time>
            </trkpt>
            <trkpt lon="101.397808" lat="14.152090">
                <ele>69.700000</ele>
                <time>1970-01-01T01:51:52Z</time>
            </trkpt>
            <trkpt lon="101.397781" lat="14.152124">
                <ele>69.900000</ele>
                <time>1970-01-01T01:51:53Z</time>
            </trkpt>
            <trkpt lon="101.397751" lat="14.152156">
                <ele>69.900000</ele>
                <time>1970-01-01T01:51:54Z</time>
            </trkpt>
            <trkpt lon="101.397727" lat="14.152182">
                <ele>69.600000</ele>
                <time>1970-01-01T01:51:55Z</time>
            </trkpt>
            <trkpt lon="101.397708" lat="14.152213">
                <ele>69.600000</ele>
                <time>1970-01-01T01:51:56Z</time>
            </trkpt>
            <trkpt lon="101.397691" lat="14.152248">
                <ele>69.300000</ele>
                <time>1970-01-01T01:51:57Z</time>
            </trkpt>
            <trkpt lon="101.397667" lat="14.152278">
                <ele>68.800000</ele>
                <time>1970-01-01T01:51:58Z</time>
            </trkpt>
            <trkpt lon="101.397642" lat="14.152304">
                <ele>68.800000</ele>
                <time>1970-01-01T01:51:59Z</time>
            </trkpt>
            <trkpt lon="101.397615" lat="14.152326">
                <ele>68.100000</ele>
                <time>1970-01-01T01:52:00Z</time>
            </trkpt>
            <trkpt lon="101.397587" lat="14.152342">
                <ele>68.100000</ele>
                <time>1970-01-01T01:52:01Z</time>
            </trkpt>
            <trkpt lon="101.397558" lat="14.152359">
                <ele>67.400000</ele>
                <time>1970-01-01T01:52:02Z</time>
            </trkpt>
            <trkpt lon="101.397492" lat="14.152389">
                <ele>67.100000</ele>
                <time>1970-01-01T01:52:04Z</time>
            </trkpt>
            <trkpt lon="101.397447" lat="14.152402">
                <ele>66.600000</ele>
                <time>1970-01-01T01:52:05Z</time>
            </trkpt>
            <trkpt lon="101.397413" lat="14.152409">
                <ele>66.500000</ele>
                <time>1970-01-01T01:52:06Z</time>
            </trkpt>
            <trkpt lon="101.397371" lat="14.152418">
                <ele>66.300000</ele>
                <time>1970-01-01T01:52:08Z</time>
            </trkpt>
            <trkpt lon="101.397335" lat="14.152439">
                <ele>66.100000</ele>
                <time>1970-01-01T01:52:10Z</time>
            </trkpt>
            <trkpt lon="101.397311" lat="14.152480">
                <ele>65.600000</ele>
                <time>1970-01-01T01:52:12Z</time>
            </trkpt>
            <trkpt lon="101.397284" lat="14.152528">
                <ele>65.300000</ele>
                <time>1970-01-01T01:52:14Z</time>
            </trkpt>
            <trkpt lon="101.397250" lat="14.152563">
                <ele>65.200000</ele>
                <time>1970-01-01T01:52:16Z</time>
            </trkpt>
            <trkpt lon="101.397219" lat="14.152596">
                <ele>65.100000</ele>
                <time>1970-01-01T01:52:18Z</time>
            </trkpt>
            <trkpt lon="101.397198" lat="14.152625">
                <ele>65.000000</ele>
                <time>1970-01-01T01:52:19Z</time>
            </trkpt>
            <trkpt lon="101.397179" lat="14.152652">
                <ele>64.900000</ele>
                <time>1970-01-01T01:52:20Z</time>
            </trkpt>
            <trkpt lon="101.397157" lat="14.152672">
                <ele>64.900000</ele>
                <time>1970-01-01T01:52:21Z</time>
            </trkpt>
            <trkpt lon="101.397128" lat="14.152691">
                <ele>64.700000</ele>
                <time>1970-01-01T01:52:22Z</time>
            </trkpt>
            <trkpt lon="101.397095" lat="14.152712">
                <ele>64.700000</ele>
                <time>1970-01-01T01:52:23Z</time>
            </trkpt>
            <trkpt lon="101.397061" lat="14.152739">
                <ele>64.400000</ele>
                <time>1970-01-01T01:52:24Z</time>
            </trkpt>
            <trkpt lon="101.397031" lat="14.152757">
                <ele>64.400000</ele>
                <time>1970-01-01T01:52:25Z</time>
            </trkpt>
            <trkpt lon="101.397004" lat="14.152770">
                <ele>64.200000</ele>
                <time>1970-01-01T01:52:26Z</time>
            </trkpt>
            <trkpt lon="101.396977" lat="14.152782">
                <ele>64.200000</ele>
                <time>1970-01-01T01:52:27Z</time>
            </trkpt>
            <trkpt lon="101.396946" lat="14.152792">
                <ele>64.200000</ele>
                <time>1970-01-01T01:52:28Z</time>
            </trkpt>
            <trkpt lon="101.396914" lat="14.152805">
                <ele>64.200000</ele>
                <time>1970-01-01T01:52:29Z</time>
            </trkpt>
            <trkpt lon="101.396884" lat="14.152826">
                <ele>63.900000</ele>
                <time>1970-01-01T01:52:30Z</time>
            </trkpt>
            <trkpt lon="101.396854" lat="14.152853">
                <ele>63.800000</ele>
                <time>1970-01-01T01:52:31Z</time>
            </trkpt>
            <trkpt lon="101.396826" lat="14.152887">
                <ele>63.800000</ele>
                <time>1970-01-01T01:52:32Z</time>
            </trkpt>
            <trkpt lon="101.396800" lat="14.152922">
                <ele>63.800000</ele>
                <time>1970-01-01T01:52:33Z</time>
            </trkpt>
            <trkpt lon="101.396794" lat="14.152979">
                <ele>63.300000</ele>
                <time>1970-01-01T01:52:34Z</time>
            </trkpt>
            <trkpt lon="101.396783" lat="14.153025">
                <ele>63.100000</ele>
                <time>1970-01-01T01:52:35Z</time>
            </trkpt>
            <trkpt lon="101.396774" lat="14.153066">
                <ele>63.000000</ele>
                <time>1970-01-01T01:52:36Z</time>
            </trkpt>
            <trkpt lon="101.396768" lat="14.153111">
                <ele>63.300000</ele>
                <time>1970-01-01T01:52:37Z</time>
            </trkpt>
            <trkpt lon="101.396757" lat="14.153142">
                <ele>63.200000</ele>
                <time>1970-01-01T01:52:38Z</time>
            </trkpt>
            <trkpt lon="101.396750" lat="14.153199">
                <ele>63.100000</ele>
                <time>1970-01-01T01:52:39Z</time>
            </trkpt>
            <trkpt lon="101.396731" lat="14.153228">
                <ele>63.000000</ele>
                <time>1970-01-01T01:52:40Z</time>
            </trkpt>
            <trkpt lon="101.396728" lat="14.153256">
                <ele>63.000000</ele>
                <time>1970-01-01T01:52:41Z</time>
            </trkpt>
            <trkpt lon="101.396709" lat="14.153284">
                <ele>63.600000</ele>
                <time>1970-01-01T01:52:42Z</time>
            </trkpt>
            <trkpt lon="101.396701" lat="14.153319">
                <ele>63.500000</ele>
                <time>1970-01-01T01:52:43Z</time>
            </trkpt>
            <trkpt lon="101.396689" lat="14.153354">
                <ele>63.200000</ele>
                <time>1970-01-01T01:52:44Z</time>
            </trkpt>
            <trkpt lon="101.396673" lat="14.153412">
                <ele>63.600000</ele>
                <time>1970-01-01T01:52:46Z</time>
            </trkpt>
            <trkpt lon="101.396656" lat="14.153447">
                <ele>63.400000</ele>
                <time>1970-01-01T01:52:47Z</time>
            </trkpt>
            <trkpt lon="101.396634" lat="14.153473">
                <ele>63.900000</ele>
                <time>1970-01-01T01:52:48Z</time>
            </trkpt>
            <trkpt lon="101.396608" lat="14.153495">
                <ele>63.900000</ele>
                <time>1970-01-01T01:52:49Z</time>
            </trkpt>
            <trkpt lon="101.396580" lat="14.153516">
                <ele>64.400000</ele>
                <time>1970-01-01T01:52:50Z</time>
            </trkpt>
            <trkpt lon="101.396552" lat="14.153541">
                <ele>65.200000</ele>
                <time>1970-01-01T01:52:51Z</time>
            </trkpt>
            <trkpt lon="101.396523" lat="14.153568">
                <ele>64.900000</ele>
                <time>1970-01-01T01:52:52Z</time>
            </trkpt>
            <trkpt lon="101.396495" lat="14.153595">
                <ele>65.500000</ele>
                <time>1970-01-01T01:52:53Z</time>
            </trkpt>
            <trkpt lon="101.396460" lat="14.153621">
                <ele>65.500000</ele>
                <time>1970-01-01T01:52:54Z</time>
            </trkpt>
            <trkpt lon="101.396425" lat="14.153646">
                <ele>65.400000</ele>
                <time>1970-01-01T01:52:55Z</time>
            </trkpt>
            <trkpt lon="101.396394" lat="14.153672">
                <ele>65.400000</ele>
                <time>1970-01-01T01:52:56Z</time>
            </trkpt>
            <trkpt lon="101.396365" lat="14.153699">
                <ele>65.100000</ele>
                <time>1970-01-01T01:52:57Z</time>
            </trkpt>
            <trkpt lon="101.396342" lat="14.153716">
                <ele>65.100000</ele>
                <time>1970-01-01T01:52:58Z</time>
            </trkpt>
            <trkpt lon="101.396311" lat="14.153754">
                <ele>64.700000</ele>
                <time>1970-01-01T01:53:00Z</time>
            </trkpt>
            <trkpt lon="101.396274" lat="14.153799">
                <ele>64.200000</ele>
                <time>1970-01-01T01:53:02Z</time>
            </trkpt>
            <trkpt lon="101.396253" lat="14.153824">
                <ele>63.900000</ele>
                <time>1970-01-01T01:53:03Z</time>
            </trkpt>
            <trkpt lon="101.396232" lat="14.153855">
                <ele>63.600000</ele>
                <time>1970-01-01T01:53:04Z</time>
            </trkpt>
            <trkpt lon="101.396210" lat="14.153888">
                <ele>63.400000</ele>
                <time>1970-01-01T01:53:05Z</time>
            </trkpt>
            <trkpt lon="101.396193" lat="14.153918">
                <ele>63.400000</ele>
                <time>1970-01-01T01:53:06Z</time>
            </trkpt>
            <trkpt lon="101.396177" lat="14.153946">
                <ele>63.100000</ele>
                <time>1970-01-01T01:53:07Z</time>
            </trkpt>
            <trkpt lon="101.396160" lat="14.153973">
                <ele>63.000000</ele>
                <time>1970-01-01T01:53:08Z</time>
            </trkpt>
            <trkpt lon="101.396138" lat="14.154000">
                <ele>63.000000</ele>
                <time>1970-01-01T01:53:09Z</time>
            </trkpt>
            <trkpt lon="101.396118" lat="14.154022">
                <ele>63.100000</ele>
                <time>1970-01-01T01:53:10Z</time>
            </trkpt>
            <trkpt lon="101.396097" lat="14.154041">
                <ele>63.100000</ele>
                <time>1970-01-01T01:53:11Z</time>
            </trkpt>
            <trkpt lon="101.396070" lat="14.154061">
                <ele>63.300000</ele>
                <time>1970-01-01T01:53:12Z</time>
            </trkpt>
            <trkpt lon="101.396038" lat="14.154078">
                <ele>63.500000</ele>
                <time>1970-01-01T01:53:13Z</time>
            </trkpt>
            <trkpt lon="101.396009" lat="14.154090">
                <ele>63.500000</ele>
                <time>1970-01-01T01:53:14Z</time>
            </trkpt>
            <trkpt lon="101.395981" lat="14.154098">
                <ele>63.900000</ele>
                <time>1970-01-01T01:53:15Z</time>
            </trkpt>
            <trkpt lon="101.395935" lat="14.154115">
                <ele>64.200000</ele>
                <time>1970-01-01T01:53:17Z</time>
            </trkpt>
            <trkpt lon="101.395907" lat="14.154117">
                <ele>64.500000</ele>
                <time>1970-01-01T01:53:18Z</time>
            </trkpt>
            <trkpt lon="101.395847" lat="14.154115">
                <ele>64.800000</ele>
                <time>1970-01-01T01:53:20Z</time>
            </trkpt>
            <trkpt lon="101.395816" lat="14.154122">
                <ele>65.100000</ele>
                <time>1970-01-01T01:53:21Z</time>
            </trkpt>
            <trkpt lon="101.395785" lat="14.154148">
                <ele>65.200000</ele>
                <time>1970-01-01T01:53:23Z</time>
            </trkpt>
            <trkpt lon="101.395759" lat="14.154191">
                <ele>65.500000</ele>
                <time>1970-01-01T01:53:25Z</time>
            </trkpt>
            <trkpt lon="101.395742" lat="14.154226">
                <ele>65.700000</ele>
                <time>1970-01-01T01:53:26Z</time>
            </trkpt>
            <trkpt lon="101.395721" lat="14.154262">
                <ele>65.900000</ele>
                <time>1970-01-01T01:53:27Z</time>
            </trkpt>
            <trkpt lon="101.395697" lat="14.154302">
                <ele>65.900000</ele>
                <time>1970-01-01T01:53:28Z</time>
            </trkpt>
            <trkpt lon="101.395669" lat="14.154337">
                <ele>66.000000</ele>
                <time>1970-01-01T01:53:29Z</time>
            </trkpt>
            <trkpt lon="101.395635" lat="14.154375">
                <ele>66.000000</ele>
                <time>1970-01-01T01:53:30Z</time>
            </trkpt>
            <trkpt lon="101.395605" lat="14.154409">
                <ele>66.000000</ele>
                <time>1970-01-01T01:53:31Z</time>
            </trkpt>
            <trkpt lon="101.395582" lat="14.154438">
                <ele>66.000000</ele>
                <time>1970-01-01T01:53:32Z</time>
            </trkpt>
            <trkpt lon="101.395568" lat="14.154471">
                <ele>65.900000</ele>
                <time>1970-01-01T01:53:33Z</time>
            </trkpt>
            <trkpt lon="101.395560" lat="14.154508">
                <ele>65.900000</ele>
                <time>1970-01-01T01:53:34Z</time>
            </trkpt>
            <trkpt lon="101.395543" lat="14.154530">
                <ele>65.600000</ele>
                <time>1970-01-01T01:53:35Z</time>
            </trkpt>
            <trkpt lon="101.395522" lat="14.154550">
                <ele>65.600000</ele>
                <time>1970-01-01T01:53:36Z</time>
            </trkpt>
            <trkpt lon="101.395496" lat="14.154565">
                <ele>65.400000</ele>
                <time>1970-01-01T01:53:37Z</time>
            </trkpt>
            <trkpt lon="101.395457" lat="14.154580">
                <ele>65.400000</ele>
                <time>1970-01-01T01:53:38Z</time>
            </trkpt>
            <trkpt lon="101.395413" lat="14.154595">
                <ele>65.400000</ele>
                <time>1970-01-01T01:53:39Z</time>
            </trkpt>
            <trkpt lon="101.395373" lat="14.154605">
                <ele>65.600000</ele>
                <time>1970-01-01T01:53:40Z</time>
            </trkpt>
            <trkpt lon="101.395341" lat="14.154617">
                <ele>65.800000</ele>
                <time>1970-01-01T01:53:41Z</time>
            </trkpt>
            <trkpt lon="101.395312" lat="14.154626">
                <ele>65.800000</ele>
                <time>1970-01-01T01:53:42Z</time>
            </trkpt>
            <trkpt lon="101.395277" lat="14.154634">
                <ele>65.900000</ele>
                <time>1970-01-01T01:53:43Z</time>
            </trkpt>
            <trkpt lon="101.395240" lat="14.154638">
                <ele>66.000000</ele>
                <time>1970-01-01T01:53:44Z</time>
            </trkpt>
            <trkpt lon="101.395201" lat="14.154635">
                <ele>65.900000</ele>
                <time>1970-01-01T01:53:45Z</time>
            </trkpt>
            <trkpt lon="101.395160" lat="14.154631">
                <ele>65.900000</ele>
                <time>1970-01-01T01:53:46Z</time>
            </trkpt>
            <trkpt lon="101.395128" lat="14.154635">
                <ele>66.000000</ele>
                <time>1970-01-01T01:53:47Z</time>
            </trkpt>
            <trkpt lon="101.395082" lat="14.154646">
                <ele>66.000000</ele>
                <time>1970-01-01T01:53:49Z</time>
            </trkpt>
            <trkpt lon="101.395055" lat="14.154654">
                <ele>66.000000</ele>
                <time>1970-01-01T01:53:50Z</time>
            </trkpt>
            <trkpt lon="101.395025" lat="14.154666">
                <ele>66.000000</ele>
                <time>1970-01-01T01:53:51Z</time>
            </trkpt>
            <trkpt lon="101.394996" lat="14.154678">
                <ele>66.000000</ele>
                <time>1970-01-01T01:53:52Z</time>
            </trkpt>
            <trkpt lon="101.394959" lat="14.154686">
                <ele>65.900000</ele>
                <time>1970-01-01T01:53:53Z</time>
            </trkpt>
            <trkpt lon="101.394926" lat="14.154693">
                <ele>65.900000</ele>
                <time>1970-01-01T01:53:54Z</time>
            </trkpt>
            <trkpt lon="101.394892" lat="14.154695">
                <ele>65.900000</ele>
                <time>1970-01-01T01:53:55Z</time>
            </trkpt>
            <trkpt lon="101.394855" lat="14.154697">
                <ele>65.900000</ele>
                <time>1970-01-01T01:53:56Z</time>
            </trkpt>
            <trkpt lon="101.394806" lat="14.154716">
                <ele>65.900000</ele>
                <time>1970-01-01T01:53:58Z</time>
            </trkpt>
            <trkpt lon="101.394760" lat="14.154747">
                <ele>66.000000</ele>
                <time>1970-01-01T01:54:00Z</time>
            </trkpt>
            <trkpt lon="101.394726" lat="14.154778">
                <ele>66.000000</ele>
                <time>1970-01-01T01:54:02Z</time>
            </trkpt>
            <trkpt lon="101.394685" lat="14.154796">
                <ele>66.000000</ele>
                <time>1970-01-01T01:54:04Z</time>
            </trkpt>
            <trkpt lon="101.394641" lat="14.154807">
                <ele>65.800000</ele>
                <time>1970-01-01T01:54:06Z</time>
            </trkpt>
            <trkpt lon="101.394598" lat="14.154825">
                <ele>65.800000</ele>
                <time>1970-01-01T01:54:08Z</time>
            </trkpt>
            <trkpt lon="101.394572" lat="14.154855">
                <ele>65.600000</ele>
                <time>1970-01-01T01:54:10Z</time>
            </trkpt>
            <trkpt lon="101.394545" lat="14.154893">
                <ele>65.300000</ele>
                <time>1970-01-01T01:54:12Z</time>
            </trkpt>
            <trkpt lon="101.394527" lat="14.154915">
                <ele>65.300000</ele>
                <time>1970-01-01T01:54:13Z</time>
            </trkpt>
            <trkpt lon="101.394503" lat="14.154937">
                <ele>65.100000</ele>
                <time>1970-01-01T01:54:14Z</time>
            </trkpt>
            <trkpt lon="101.394472" lat="14.154946">
                <ele>65.100000</ele>
                <time>1970-01-01T01:54:15Z</time>
            </trkpt>
            <trkpt lon="101.394434" lat="14.154945">
                <ele>65.100000</ele>
                <time>1970-01-01T01:54:16Z</time>
            </trkpt>
            <trkpt lon="101.394396" lat="14.154945">
                <ele>65.400000</ele>
                <time>1970-01-01T01:54:17Z</time>
            </trkpt>
            <trkpt lon="101.394361" lat="14.154951">
                <ele>65.600000</ele>
                <time>1970-01-01T01:54:18Z</time>
            </trkpt>
            <trkpt lon="101.394331" lat="14.154960">
                <ele>65.600000</ele>
                <time>1970-01-01T01:54:19Z</time>
            </trkpt>
            <trkpt lon="101.394301" lat="14.154972">
                <ele>65.700000</ele>
                <time>1970-01-01T01:54:20Z</time>
            </trkpt>
            <trkpt lon="101.394270" lat="14.154983">
                <ele>65.800000</ele>
                <time>1970-01-01T01:54:21Z</time>
            </trkpt>
            <trkpt lon="101.394241" lat="14.154993">
                <ele>65.800000</ele>
                <time>1970-01-01T01:54:22Z</time>
            </trkpt>
            <trkpt lon="101.394209" lat="14.155005">
                <ele>65.800000</ele>
                <time>1970-01-01T01:54:23Z</time>
            </trkpt>
            <trkpt lon="101.394179" lat="14.155016">
                <ele>65.600000</ele>
                <time>1970-01-01T01:54:24Z</time>
            </trkpt>
            <trkpt lon="101.394149" lat="14.155026">
                <ele>65.600000</ele>
                <time>1970-01-01T01:54:25Z</time>
            </trkpt>
            <trkpt lon="101.394118" lat="14.155032">
                <ele>65.600000</ele>
                <time>1970-01-01T01:54:26Z</time>
            </trkpt>
            <trkpt lon="101.394089" lat="14.155035">
                <ele>65.700000</ele>
                <time>1970-01-01T01:54:27Z</time>
            </trkpt>
            <trkpt lon="101.394039" lat="14.155049">
                <ele>66.100000</ele>
                <time>1970-01-01T01:54:29Z</time>
            </trkpt>
            <trkpt lon="101.394013" lat="14.155061">
                <ele>66.100000</ele>
                <time>1970-01-01T01:54:30Z</time>
            </trkpt>
            <trkpt lon="101.393973" lat="14.155075">
                <ele>66.500000</ele>
                <time>1970-01-01T01:54:32Z</time>
            </trkpt>
            <trkpt lon="101.393958" lat="14.155109">
                <ele>66.000000</ele>
                <time>1970-01-01T01:54:35Z</time>
            </trkpt>
            <trkpt lon="101.393941" lat="14.155143">
                <ele>65.600000</ele>
                <time>1970-01-01T01:54:38Z</time>
            </trkpt>
            <trkpt lon="101.393921" lat="14.155176">
                <ele>65.900000</ele>
                <time>1970-01-01T01:54:41Z</time>
            </trkpt>
            <trkpt lon="101.393914" lat="14.155220">
                <ele>65.400000</ele>
                <time>1970-01-01T01:54:44Z</time>
            </trkpt>
            <trkpt lon="101.393920" lat="14.155252">
                <ele>65.400000</ele>
                <time>1970-01-01T01:54:45Z</time>
            </trkpt>
            <trkpt lon="101.393924" lat="14.155290">
                <ele>65.100000</ele>
                <time>1970-01-01T01:54:46Z</time>
            </trkpt>
            <trkpt lon="101.393927" lat="14.155320">
                <ele>65.000000</ele>
                <time>1970-01-01T01:54:47Z</time>
            </trkpt>
            <trkpt lon="101.393934" lat="14.155360">
                <ele>65.000000</ele>
                <time>1970-01-01T01:54:49Z</time>
            </trkpt>
            <trkpt lon="101.393930" lat="14.155407">
                <ele>65.000000</ele>
                <time>1970-01-01T01:54:51Z</time>
            </trkpt>
            <trkpt lon="101.393929" lat="14.155449">
                <ele>65.000000</ele>
                <time>1970-01-01T01:54:53Z</time>
            </trkpt>
            <trkpt lon="101.393939" lat="14.155477">
                <ele>65.000000</ele>
                <time>1970-01-01T01:54:55Z</time>
            </trkpt>
            <trkpt lon="101.393947" lat="14.155512">
                <ele>65.200000</ele>
                <time>1970-01-01T01:54:57Z</time>
            </trkpt>
            <trkpt lon="101.393956" lat="14.155559">
                <ele>65.500000</ele>
                <time>1970-01-01T01:54:59Z</time>
            </trkpt>
            <trkpt lon="101.393973" lat="14.155602">
                <ele>65.700000</ele>
                <time>1970-01-01T01:55:01Z</time>
            </trkpt>
            <trkpt lon="101.393985" lat="14.155628">
                <ele>65.700000</ele>
                <time>1970-01-01T01:55:02Z</time>
            </trkpt>
            <trkpt lon="101.394009" lat="14.155670">
                <ele>65.900000</ele>
                <time>1970-01-01T01:55:04Z</time>
            </trkpt>
            <trkpt lon="101.394017" lat="14.155710">
                <ele>66.100000</ele>
                <time>1970-01-01T01:55:06Z</time>
            </trkpt>
            <trkpt lon="101.394016" lat="14.155738">
                <ele>66.200000</ele>
                <time>1970-01-01T01:55:07Z</time>
            </trkpt>
            <trkpt lon="101.394004" lat="14.155789">
                <ele>66.300000</ele>
                <time>1970-01-01T01:55:09Z</time>
            </trkpt>
            <trkpt lon="101.393991" lat="14.155830">
                <ele>66.400000</ele>
                <time>1970-01-01T01:55:11Z</time>
            </trkpt>
            <trkpt lon="101.393978" lat="14.155860">
                <ele>66.700000</ele>
                <time>1970-01-01T01:55:13Z</time>
            </trkpt>
            <trkpt lon="101.393966" lat="14.155885">
                <ele>66.700000</ele>
                <time>1970-01-01T01:55:15Z</time>
            </trkpt>
            <trkpt lon="101.393956" lat="14.155926">
                <ele>66.700000</ele>
                <time>1970-01-01T01:55:17Z</time>
            </trkpt>
            <trkpt lon="101.393944" lat="14.155969">
                <ele>66.800000</ele>
                <time>1970-01-01T01:55:19Z</time>
            </trkpt>
            <trkpt lon="101.393935" lat="14.155997">
                <ele>67.000000</ele>
                <time>1970-01-01T01:55:21Z</time>
            </trkpt>
            <trkpt lon="101.393930" lat="14.156028">
                <ele>67.200000</ele>
                <time>1970-01-01T01:55:23Z</time>
            </trkpt>
            <trkpt lon="101.393915" lat="14.156070">
                <ele>67.500000</ele>
                <time>1970-01-01T01:55:25Z</time>
            </trkpt>
            <trkpt lon="101.393900" lat="14.156096">
                <ele>67.700000</ele>
                <time>1970-01-01T01:55:26Z</time>
            </trkpt>
            <trkpt lon="101.393877" lat="14.156135">
                <ele>67.900000</ele>
                <time>1970-01-01T01:55:28Z</time>
            </trkpt>
            <trkpt lon="101.393859" lat="14.156159">
                <ele>67.900000</ele>
                <time>1970-01-01T01:55:30Z</time>
            </trkpt>
            <trkpt lon="101.393846" lat="14.156194">
                <ele>67.900000</ele>
                <time>1970-01-01T01:55:32Z</time>
            </trkpt>
            <trkpt lon="101.393828" lat="14.156216">
                <ele>67.900000</ele>
                <time>1970-01-01T01:55:34Z</time>
            </trkpt>
            <trkpt lon="101.393808" lat="14.156248">
                <ele>67.900000</ele>
                <time>1970-01-01T01:55:36Z</time>
            </trkpt>
            <trkpt lon="101.393794" lat="14.156277">
                <ele>67.900000</ele>
                <time>1970-01-01T01:55:38Z</time>
            </trkpt>
            <trkpt lon="101.393774" lat="14.156322">
                <ele>67.900000</ele>
                <time>1970-01-01T01:55:40Z</time>
            </trkpt>
            <trkpt lon="101.393755" lat="14.156357">
                <ele>67.900000</ele>
                <time>1970-01-01T01:55:42Z</time>
            </trkpt>
            <trkpt lon="101.393737" lat="14.156398">
                <ele>67.900000</ele>
                <time>1970-01-01T01:55:44Z</time>
            </trkpt>
            <trkpt lon="101.393707" lat="14.156445">
                <ele>67.900000</ele>
                <time>1970-01-01T01:55:46Z</time>
            </trkpt>
            <trkpt lon="101.393675" lat="14.156488">
                <ele>67.900000</ele>
                <time>1970-01-01T01:55:48Z</time>
            </trkpt>
            <trkpt lon="101.393655" lat="14.156510">
                <ele>68.200000</ele>
                <time>1970-01-01T01:55:50Z</time>
            </trkpt>
            <trkpt lon="101.393625" lat="14.156528">
                <ele>68.200000</ele>
                <time>1970-01-01T01:55:52Z</time>
            </trkpt>
            <trkpt lon="101.393608" lat="14.156552">
                <ele>68.400000</ele>
                <time>1970-01-01T01:55:53Z</time>
            </trkpt>
            <trkpt lon="101.393597" lat="14.156578">
                <ele>68.400000</ele>
                <time>1970-01-01T01:55:54Z</time>
            </trkpt>
            <trkpt lon="101.393580" lat="14.156625">
                <ele>68.700000</ele>
                <time>1970-01-01T01:55:56Z</time>
            </trkpt>
            <trkpt lon="101.393566" lat="14.156664">
                <ele>68.900000</ele>
                <time>1970-01-01T01:55:58Z</time>
            </trkpt>
            <trkpt lon="101.393553" lat="14.156699">
                <ele>69.200000</ele>
                <time>1970-01-01T01:56:00Z</time>
            </trkpt>
            <trkpt lon="101.393545" lat="14.156727">
                <ele>69.400000</ele>
                <time>1970-01-01T01:56:01Z</time>
            </trkpt>
            <trkpt lon="101.393535" lat="14.156754">
                <ele>69.400000</ele>
                <time>1970-01-01T01:56:02Z</time>
            </trkpt>
            <trkpt lon="101.393521" lat="14.156795">
                <ele>69.700000</ele>
                <time>1970-01-01T01:56:04Z</time>
            </trkpt>
            <trkpt lon="101.393511" lat="14.156830">
                <ele>69.900000</ele>
                <time>1970-01-01T01:56:06Z</time>
            </trkpt>
            <trkpt lon="101.393502" lat="14.156861">
                <ele>70.000000</ele>
                <time>1970-01-01T01:56:08Z</time>
            </trkpt>
            <trkpt lon="101.393497" lat="14.156891">
                <ele>70.200000</ele>
                <time>1970-01-01T01:56:09Z</time>
            </trkpt>
            <trkpt lon="101.393489" lat="14.156936">
                <ele>70.300000</ele>
                <time>1970-01-01T01:56:11Z</time>
            </trkpt>
            <trkpt lon="101.393477" lat="14.156970">
                <ele>70.500000</ele>
                <time>1970-01-01T01:56:13Z</time>
            </trkpt>
            <trkpt lon="101.393462" lat="14.156994">
                <ele>70.700000</ele>
                <time>1970-01-01T01:56:15Z</time>
            </trkpt>
            <trkpt lon="101.393448" lat="14.157021">
                <ele>71.000000</ele>
                <time>1970-01-01T01:56:17Z</time>
            </trkpt>
            <trkpt lon="101.393433" lat="14.157062">
                <ele>71.200000</ele>
                <time>1970-01-01T01:56:19Z</time>
            </trkpt>
            <trkpt lon="101.393411" lat="14.157105">
                <ele>71.700000</ele>
                <time>1970-01-01T01:56:21Z</time>
            </trkpt>
            <trkpt lon="101.393382" lat="14.157146">
                <ele>72.000000</ele>
                <time>1970-01-01T01:56:23Z</time>
            </trkpt>
            <trkpt lon="101.393353" lat="14.157180">
                <ele>72.500000</ele>
                <time>1970-01-01T01:56:25Z</time>
            </trkpt>
            <trkpt lon="101.393333" lat="14.157227">
                <ele>72.900000</ele>
                <time>1970-01-01T01:56:27Z</time>
            </trkpt>
            <trkpt lon="101.393330" lat="14.157255">
                <ele>72.900000</ele>
                <time>1970-01-01T01:56:28Z</time>
            </trkpt>
            <trkpt lon="101.393323" lat="14.157306">
                <ele>73.400000</ele>
                <time>1970-01-01T01:56:30Z</time>
            </trkpt>
            <trkpt lon="101.393307" lat="14.157345">
                <ele>73.700000</ele>
                <time>1970-01-01T01:56:32Z</time>
            </trkpt>
            <trkpt lon="101.393292" lat="14.157371">
                <ele>73.900000</ele>
                <time>1970-01-01T01:56:34Z</time>
            </trkpt>
            <trkpt lon="101.393273" lat="14.157405">
                <ele>74.200000</ele>
                <time>1970-01-01T01:56:36Z</time>
            </trkpt>
            <trkpt lon="101.393251" lat="14.157444">
                <ele>74.600000</ele>
                <time>1970-01-01T01:56:38Z</time>
            </trkpt>
            <trkpt lon="101.393237" lat="14.157469">
                <ele>74.900000</ele>
                <time>1970-01-01T01:56:40Z</time>
            </trkpt>
            <trkpt lon="101.393220" lat="14.157512">
                <ele>75.400000</ele>
                <time>1970-01-01T01:56:42Z</time>
            </trkpt>
            <trkpt lon="101.393196" lat="14.157555">
                <ele>75.800000</ele>
                <time>1970-01-01T01:56:44Z</time>
            </trkpt>
            <trkpt lon="101.393181" lat="14.157603">
                <ele>76.200000</ele>
                <time>1970-01-01T01:56:46Z</time>
            </trkpt>
            <trkpt lon="101.393172" lat="14.157632">
                <ele>76.200000</ele>
                <time>1970-01-01T01:56:47Z</time>
            </trkpt>
            <trkpt lon="101.393163" lat="14.157663">
                <ele>76.300000</ele>
                <time>1970-01-01T01:56:48Z</time>
            </trkpt>
            <trkpt lon="101.393149" lat="14.157695">
                <ele>76.600000</ele>
                <time>1970-01-01T01:56:49Z</time>
            </trkpt>
            <trkpt lon="101.393131" lat="14.157726">
                <ele>76.800000</ele>
                <time>1970-01-01T01:56:50Z</time>
            </trkpt>
            <trkpt lon="101.393109" lat="14.157755">
                <ele>76.600000</ele>
                <time>1970-01-01T01:56:51Z</time>
            </trkpt>
            <trkpt lon="101.393088" lat="14.157785">
                <ele>76.800000</ele>
                <time>1970-01-01T01:56:52Z</time>
            </trkpt>
            <trkpt lon="101.393071" lat="14.157809">
                <ele>76.900000</ele>
                <time>1970-01-01T01:56:53Z</time>
            </trkpt>
            <trkpt lon="101.393058" lat="14.157835">
                <ele>76.900000</ele>
                <time>1970-01-01T01:56:54Z</time>
            </trkpt>
            <trkpt lon="101.393045" lat="14.157865">
                <ele>77.400000</ele>
                <time>1970-01-01T01:56:55Z</time>
            </trkpt>
            <trkpt lon="101.393034" lat="14.157892">
                <ele>77.900000</ele>
                <time>1970-01-01T01:56:56Z</time>
            </trkpt>
            <trkpt lon="101.393023" lat="14.157918">
                <ele>77.900000</ele>
                <time>1970-01-01T01:56:57Z</time>
            </trkpt>
            <trkpt lon="101.393013" lat="14.157947">
                <ele>78.400000</ele>
                <time>1970-01-01T01:56:58Z</time>
            </trkpt>
            <trkpt lon="101.393003" lat="14.157977">
                <ele>78.800000</ele>
                <time>1970-01-01T01:56:59Z</time>
            </trkpt>
            <trkpt lon="101.392979" lat="14.158024">
                <ele>78.900000</ele>
                <time>1970-01-01T01:57:01Z</time>
            </trkpt>
            <trkpt lon="101.392950" lat="14.158073">
                <ele>79.300000</ele>
                <time>1970-01-01T01:57:03Z</time>
            </trkpt>
            <trkpt lon="101.392934" lat="14.158098">
                <ele>79.700000</ele>
                <time>1970-01-01T01:57:04Z</time>
            </trkpt>
            <trkpt lon="101.392906" lat="14.158145">
                <ele>80.000000</ele>
                <time>1970-01-01T01:57:06Z</time>
            </trkpt>
            <trkpt lon="101.392890" lat="14.158176">
                <ele>80.300000</ele>
                <time>1970-01-01T01:57:07Z</time>
            </trkpt>
            <trkpt lon="101.392878" lat="14.158209">
                <ele>80.300000</ele>
                <time>1970-01-01T01:57:08Z</time>
            </trkpt>
            <trkpt lon="101.392869" lat="14.158244">
                <ele>80.500000</ele>
                <time>1970-01-01T01:57:09Z</time>
            </trkpt>
            <trkpt lon="101.392863" lat="14.158279">
                <ele>81.000000</ele>
                <time>1970-01-01T01:57:10Z</time>
            </trkpt>
            <trkpt lon="101.392847" lat="14.158308">
                <ele>81.400000</ele>
                <time>1970-01-01T01:57:11Z</time>
            </trkpt>
            <trkpt lon="101.392828" lat="14.158334">
                <ele>81.400000</ele>
                <time>1970-01-01T01:57:12Z</time>
            </trkpt>
            <trkpt lon="101.392792" lat="14.158376">
                <ele>82.100000</ele>
                <time>1970-01-01T01:57:14Z</time>
            </trkpt>
            <trkpt lon="101.392764" lat="14.158408">
                <ele>82.500000</ele>
                <time>1970-01-01T01:57:16Z</time>
            </trkpt>
            <trkpt lon="101.392749" lat="14.158447">
                <ele>82.700000</ele>
                <time>1970-01-01T01:57:18Z</time>
            </trkpt>
            <trkpt lon="101.392738" lat="14.158492">
                <ele>83.000000</ele>
                <time>1970-01-01T01:57:20Z</time>
            </trkpt>
            <trkpt lon="101.392724" lat="14.158528">
                <ele>83.200000</ele>
                <time>1970-01-01T01:57:22Z</time>
            </trkpt>
            <trkpt lon="101.392712" lat="14.158567">
                <ele>83.500000</ele>
                <time>1970-01-01T01:57:24Z</time>
            </trkpt>
            <trkpt lon="101.392704" lat="14.158605">
                <ele>83.700000</ele>
                <time>1970-01-01T01:57:26Z</time>
            </trkpt>
            <trkpt lon="101.392697" lat="14.158658">
                <ele>84.000000</ele>
                <time>1970-01-01T01:57:28Z</time>
            </trkpt>
            <trkpt lon="101.392684" lat="14.158702">
                <ele>84.200000</ele>
                <time>1970-01-01T01:57:30Z</time>
            </trkpt>
            <trkpt lon="101.392667" lat="14.158746">
                <ele>84.500000</ele>
                <time>1970-01-01T01:57:32Z</time>
            </trkpt>
            <trkpt lon="101.392650" lat="14.158796">
                <ele>84.700000</ele>
                <time>1970-01-01T01:57:34Z</time>
            </trkpt>
            <trkpt lon="101.392636" lat="14.158839">
                <ele>85.200000</ele>
                <time>1970-01-01T01:57:36Z</time>
            </trkpt>
            <trkpt lon="101.392628" lat="14.158865">
                <ele>85.200000</ele>
                <time>1970-01-01T01:57:37Z</time>
            </trkpt>
            <trkpt lon="101.392618" lat="14.158891">
                <ele>85.500000</ele>
                <time>1970-01-01T01:57:38Z</time>
            </trkpt>
            <trkpt lon="101.392608" lat="14.158918">
                <ele>85.500000</ele>
                <time>1970-01-01T01:57:39Z</time>
            </trkpt>
            <trkpt lon="101.392595" lat="14.158961">
                <ele>85.700000</ele>
                <time>1970-01-01T01:57:41Z</time>
            </trkpt>
            <trkpt lon="101.392584" lat="14.159010">
                <ele>86.200000</ele>
                <time>1970-01-01T01:57:43Z</time>
            </trkpt>
            <trkpt lon="101.392580" lat="14.159038">
                <ele>86.200000</ele>
                <time>1970-01-01T01:57:44Z</time>
            </trkpt>
            <trkpt lon="101.392575" lat="14.159086">
                <ele>86.500000</ele>
                <time>1970-01-01T01:57:46Z</time>
            </trkpt>
            <trkpt lon="101.392567" lat="14.159136">
                <ele>87.000000</ele>
                <time>1970-01-01T01:57:48Z</time>
            </trkpt>
            <trkpt lon="101.392558" lat="14.159188">
                <ele>87.100000</ele>
                <time>1970-01-01T01:57:50Z</time>
            </trkpt>
            <trkpt lon="101.392553" lat="14.159216">
                <ele>87.300000</ele>
                <time>1970-01-01T01:57:51Z</time>
            </trkpt>
            <trkpt lon="101.392547" lat="14.159243">
                <ele>87.300000</ele>
                <time>1970-01-01T01:57:52Z</time>
            </trkpt>
            <trkpt lon="101.392532" lat="14.159283">
                <ele>87.500000</ele>
                <time>1970-01-01T01:57:54Z</time>
            </trkpt>
            <trkpt lon="101.392513" lat="14.159318">
                <ele>87.400000</ele>
                <time>1970-01-01T01:57:56Z</time>
            </trkpt>
            <trkpt lon="101.392486" lat="14.159360">
                <ele>87.500000</ele>
                <time>1970-01-01T01:57:58Z</time>
            </trkpt>
            <trkpt lon="101.392464" lat="14.159399">
                <ele>87.500000</ele>
                <time>1970-01-01T01:58:00Z</time>
            </trkpt>
            <trkpt lon="101.392449" lat="14.159441">
                <ele>87.700000</ele>
                <time>1970-01-01T01:58:02Z</time>
            </trkpt>
            <trkpt lon="101.392424" lat="14.159478">
                <ele>87.900000</ele>
                <time>1970-01-01T01:58:04Z</time>
            </trkpt>
            <trkpt lon="101.392403" lat="14.159512">
                <ele>88.200000</ele>
                <time>1970-01-01T01:58:06Z</time>
            </trkpt>
            <trkpt lon="101.392383" lat="14.159555">
                <ele>88.400000</ele>
                <time>1970-01-01T01:58:08Z</time>
            </trkpt>
            <trkpt lon="101.392356" lat="14.159599">
                <ele>88.700000</ele>
                <time>1970-01-01T01:58:10Z</time>
            </trkpt>
            <trkpt lon="101.392344" lat="14.159624">
                <ele>88.700000</ele>
                <time>1970-01-01T01:58:11Z</time>
            </trkpt>
            <trkpt lon="101.392331" lat="14.159653">
                <ele>88.800000</ele>
                <time>1970-01-01T01:58:12Z</time>
            </trkpt>
            <trkpt lon="101.392318" lat="14.159679">
                <ele>88.800000</ele>
                <time>1970-01-01T01:58:13Z</time>
            </trkpt>
            <trkpt lon="101.392298" lat="14.159723">
                <ele>89.000000</ele>
                <time>1970-01-01T01:58:15Z</time>
            </trkpt>
            <trkpt lon="101.392272" lat="14.159762">
                <ele>89.200000</ele>
                <time>1970-01-01T01:58:17Z</time>
            </trkpt>
            <trkpt lon="101.392246" lat="14.159775">
                <ele>89.300000</ele>
                <time>1970-01-01T01:58:18Z</time>
            </trkpt>
            <trkpt lon="101.392217" lat="14.159781">
                <ele>89.500000</ele>
                <time>1970-01-01T01:58:19Z</time>
            </trkpt>
            <trkpt lon="101.392162" lat="14.159791">
                <ele>89.700000</ele>
                <time>1970-01-01T01:58:21Z</time>
            </trkpt>
            <trkpt lon="101.392115" lat="14.159803">
                <ele>89.900000</ele>
                <time>1970-01-01T01:58:23Z</time>
            </trkpt>
            <trkpt lon="101.392074" lat="14.159819">
                <ele>90.100000</ele>
                <time>1970-01-01T01:58:25Z</time>
            </trkpt>
            <trkpt lon="101.392041" lat="14.159834">
                <ele>90.300000</ele>
                <time>1970-01-01T01:58:27Z</time>
            </trkpt>
            <trkpt lon="101.392003" lat="14.159860">
                <ele>90.500000</ele>
                <time>1970-01-01T01:58:30Z</time>
            </trkpt>
            <trkpt lon="101.391977" lat="14.159891">
                <ele>90.800000</ele>
                <time>1970-01-01T01:58:32Z</time>
            </trkpt>
            <trkpt lon="101.391939" lat="14.159921">
                <ele>91.000000</ele>
                <time>1970-01-01T01:58:34Z</time>
            </trkpt>
            <trkpt lon="101.391907" lat="14.159947">
                <ele>91.200000</ele>
                <time>1970-01-01T01:58:36Z</time>
            </trkpt>
            <trkpt lon="101.391885" lat="14.159971">
                <ele>91.300000</ele>
                <time>1970-01-01T01:58:38Z</time>
            </trkpt>
            <trkpt lon="101.391866" lat="14.160007">
                <ele>91.500000</ele>
                <time>1970-01-01T01:58:40Z</time>
            </trkpt>
            <trkpt lon="101.391856" lat="14.160038">
                <ele>91.600000</ele>
                <time>1970-01-01T01:58:41Z</time>
            </trkpt>
            <trkpt lon="101.391843" lat="14.160067">
                <ele>91.800000</ele>
                <time>1970-01-01T01:58:42Z</time>
            </trkpt>
            <trkpt lon="101.391824" lat="14.160094">
                <ele>91.900000</ele>
                <time>1970-01-01T01:58:43Z</time>
            </trkpt>
            <trkpt lon="101.391802" lat="14.160119">
                <ele>92.000000</ele>
                <time>1970-01-01T01:58:44Z</time>
            </trkpt>
            <trkpt lon="101.391784" lat="14.160140">
                <ele>92.200000</ele>
                <time>1970-01-01T01:58:45Z</time>
            </trkpt>
            <trkpt lon="101.391768" lat="14.160164">
                <ele>92.300000</ele>
                <time>1970-01-01T01:58:46Z</time>
            </trkpt>
            <trkpt lon="101.391749" lat="14.160184">
                <ele>92.500000</ele>
                <time>1970-01-01T01:58:47Z</time>
            </trkpt>
            <trkpt lon="101.391727" lat="14.160210">
                <ele>92.600000</ele>
                <time>1970-01-01T01:58:48Z</time>
            </trkpt>
            <trkpt lon="101.391701" lat="14.160233">
                <ele>92.800000</ele>
                <time>1970-01-01T01:58:49Z</time>
            </trkpt>
            <trkpt lon="101.391675" lat="14.160253">
                <ele>93.000000</ele>
                <time>1970-01-01T01:58:50Z</time>
            </trkpt>
            <trkpt lon="101.391634" lat="14.160283">
                <ele>93.200000</ele>
                <time>1970-01-01T01:58:52Z</time>
            </trkpt>
            <trkpt lon="101.391612" lat="14.160300">
                <ele>93.400000</ele>
                <time>1970-01-01T01:58:53Z</time>
            </trkpt>
            <trkpt lon="101.391588" lat="14.160320">
                <ele>93.600000</ele>
                <time>1970-01-01T01:58:54Z</time>
            </trkpt>
            <trkpt lon="101.391565" lat="14.160340">
                <ele>93.700000</ele>
                <time>1970-01-01T01:58:55Z</time>
            </trkpt>
            <trkpt lon="101.391545" lat="14.160362">
                <ele>93.900000</ele>
                <time>1970-01-01T01:58:56Z</time>
            </trkpt>
            <trkpt lon="101.391524" lat="14.160384">
                <ele>94.100000</ele>
                <time>1970-01-01T01:58:57Z</time>
            </trkpt>
            <trkpt lon="101.391502" lat="14.160405">
                <ele>94.300000</ele>
                <time>1970-01-01T01:58:58Z</time>
            </trkpt>
            <trkpt lon="101.391484" lat="14.160426">
                <ele>94.400000</ele>
                <time>1970-01-01T01:58:59Z</time>
            </trkpt>
            <trkpt lon="101.391458" lat="14.160461">
                <ele>94.700000</ele>
                <time>1970-01-01T01:59:01Z</time>
            </trkpt>
            <trkpt lon="101.391434" lat="14.160494">
                <ele>94.900000</ele>
                <time>1970-01-01T01:59:03Z</time>
            </trkpt>
            <trkpt lon="101.391417" lat="14.160516">
                <ele>95.100000</ele>
                <time>1970-01-01T01:59:04Z</time>
            </trkpt>
            <trkpt lon="101.391400" lat="14.160539">
                <ele>95.300000</ele>
                <time>1970-01-01T01:59:05Z</time>
            </trkpt>
            <trkpt lon="101.391385" lat="14.160562">
                <ele>95.500000</ele>
                <time>1970-01-01T01:59:06Z</time>
            </trkpt>
            <trkpt lon="101.391366" lat="14.160611">
                <ele>95.800000</ele>
                <time>1970-01-01T01:59:08Z</time>
            </trkpt>
            <trkpt lon="101.391355" lat="14.160638">
                <ele>96.000000</ele>
                <time>1970-01-01T01:59:09Z</time>
            </trkpt>
            <trkpt lon="101.391342" lat="14.160666">
                <ele>96.200000</ele>
                <time>1970-01-01T01:59:10Z</time>
            </trkpt>
            <trkpt lon="101.391328" lat="14.160691">
                <ele>96.300000</ele>
                <time>1970-01-01T01:59:11Z</time>
            </trkpt>
            <trkpt lon="101.391318" lat="14.160720">
                <ele>96.500000</ele>
                <time>1970-01-01T01:59:12Z</time>
            </trkpt>
            <trkpt lon="101.391309" lat="14.160749">
                <ele>96.700000</ele>
                <time>1970-01-01T01:59:13Z</time>
            </trkpt>
            <trkpt lon="101.391299" lat="14.160778">
                <ele>96.900000</ele>
                <time>1970-01-01T01:59:14Z</time>
            </trkpt>
            <trkpt lon="101.391289" lat="14.160809">
                <ele>97.100000</ele>
                <time>1970-01-01T01:59:15Z</time>
            </trkpt>
            <trkpt lon="101.391280" lat="14.160843">
                <ele>97.300000</ele>
                <time>1970-01-01T01:59:16Z</time>
            </trkpt>
            <trkpt lon="101.391271" lat="14.160873">
                <ele>97.500000</ele>
                <time>1970-01-01T01:59:17Z</time>
            </trkpt>
            <trkpt lon="101.391253" lat="14.160913">
                <ele>97.700000</ele>
                <time>1970-01-01T01:59:19Z</time>
            </trkpt>
            <trkpt lon="101.391244" lat="14.160942">
                <ele>97.900000</ele>
                <time>1970-01-01T01:59:21Z</time>
            </trkpt>
            <trkpt lon="101.391216" lat="14.160981">
                <ele>98.100000</ele>
                <time>1970-01-01T01:59:23Z</time>
            </trkpt>
            <trkpt lon="101.391184" lat="14.161020">
                <ele>98.400000</ele>
                <time>1970-01-01T01:59:25Z</time>
            </trkpt>
            <trkpt lon="101.391167" lat="14.161044">
                <ele>98.500000</ele>
                <time>1970-01-01T01:59:26Z</time>
            </trkpt>
            <trkpt lon="101.391138" lat="14.161089">
                <ele>98.800000</ele>
                <time>1970-01-01T01:59:28Z</time>
            </trkpt>
            <trkpt lon="101.391124" lat="14.161115">
                <ele>98.900000</ele>
                <time>1970-01-01T01:59:29Z</time>
            </trkpt>
            <trkpt lon="101.391114" lat="14.161143">
                <ele>99.100000</ele>
                <time>1970-01-01T01:59:30Z</time>
            </trkpt>
            <trkpt lon="101.391105" lat="14.161170">
                <ele>99.300000</ele>
                <time>1970-01-01T01:59:31Z</time>
            </trkpt>
            <trkpt lon="101.391085" lat="14.161207">
                <ele>99.600000</ele>
                <time>1970-01-01T01:59:33Z</time>
            </trkpt>
            <trkpt lon="101.391060" lat="14.161228">
                <ele>99.800000</ele>
                <time>1970-01-01T01:59:35Z</time>
            </trkpt>
            <trkpt lon="101.391022" lat="14.161266">
                <ele>100.200000</ele>
                <time>1970-01-01T01:59:37Z</time>
            </trkpt>
            <trkpt lon="101.390989" lat="14.161301">
                <ele>100.500000</ele>
                <time>1970-01-01T01:59:39Z</time>
            </trkpt>
            <trkpt lon="101.390962" lat="14.161338">
                <ele>100.800000</ele>
                <time>1970-01-01T01:59:41Z</time>
            </trkpt>
            <trkpt lon="101.390929" lat="14.161371">
                <ele>101.100000</ele>
                <time>1970-01-01T01:59:43Z</time>
            </trkpt>
            <trkpt lon="101.390905" lat="14.161387">
                <ele>101.300000</ele>
                <time>1970-01-01T01:59:44Z</time>
            </trkpt>
            <trkpt lon="101.390880" lat="14.161400">
                <ele>101.500000</ele>
                <time>1970-01-01T01:59:45Z</time>
            </trkpt>
            <trkpt lon="101.390841" lat="14.161434">
                <ele>101.900000</ele>
                <time>1970-01-01T01:59:47Z</time>
            </trkpt>
            <trkpt lon="101.390820" lat="14.161457">
                <ele>102.100000</ele>
                <time>1970-01-01T01:59:48Z</time>
            </trkpt>
            <trkpt lon="101.390801" lat="14.161480">
                <ele>102.300000</ele>
                <time>1970-01-01T01:59:49Z</time>
            </trkpt>
            <trkpt lon="101.390773" lat="14.161518">
                <ele>102.700000</ele>
                <time>1970-01-01T01:59:51Z</time>
            </trkpt>
            <trkpt lon="101.390761" lat="14.161564">
                <ele>103.000000</ele>
                <time>1970-01-01T01:59:53Z</time>
            </trkpt>
            <trkpt lon="101.390750" lat="14.161589">
                <ele>103.200000</ele>
                <time>1970-01-01T01:59:54Z</time>
            </trkpt>
            <trkpt lon="101.390735" lat="14.161612">
                <ele>103.300000</ele>
                <time>1970-01-01T01:59:55Z</time>
            </trkpt>
            <trkpt lon="101.390716" lat="14.161634">
                <ele>103.500000</ele>
                <time>1970-01-01T01:59:56Z</time>
            </trkpt>
            <trkpt lon="101.390679" lat="14.161668">
                <ele>103.800000</ele>
                <time>1970-01-01T01:59:58Z</time>
            </trkpt>
            <trkpt lon="101.390646" lat="14.161702">
                <ele>104.100000</ele>
                <time>1970-01-01T02:00:00Z</time>
            </trkpt>
            <trkpt lon="101.390631" lat="14.161745">
                <ele>104.400000</ele>
                <time>1970-01-01T02:00:02Z</time>
            </trkpt>
            <trkpt lon="101.390608" lat="14.161785">
                <ele>104.700000</ele>
                <time>1970-01-01T02:00:04Z</time>
            </trkpt>
            <trkpt lon="101.390581" lat="14.161827">
                <ele>105.100000</ele>
                <time>1970-01-01T02:00:06Z</time>
            </trkpt>
            <trkpt lon="101.390563" lat="14.161858">
                <ele>105.300000</ele>
                <time>1970-01-01T02:00:08Z</time>
            </trkpt>
            <trkpt lon="101.390553" lat="14.161886">
                <ele>105.500000</ele>
                <time>1970-01-01T02:00:10Z</time>
            </trkpt>
            <trkpt lon="101.390514" lat="14.161892">
                <ele>105.800000</ele>
                <time>1970-01-01T02:00:12Z</time>
            </trkpt>
            <trkpt lon="101.390461" lat="14.161895">
                <ele>106.100000</ele>
                <time>1970-01-01T02:00:14Z</time>
            </trkpt>
            <trkpt lon="101.390433" lat="14.161900">
                <ele>106.300000</ele>
                <time>1970-01-01T02:00:15Z</time>
            </trkpt>
            <trkpt lon="101.390383" lat="14.161910">
                <ele>106.700000</ele>
                <time>1970-01-01T02:00:17Z</time>
            </trkpt>
            <trkpt lon="101.390355" lat="14.161923">
                <ele>106.900000</ele>
                <time>1970-01-01T02:00:18Z</time>
            </trkpt>
            <trkpt lon="101.390323" lat="14.161941">
                <ele>107.100000</ele>
                <time>1970-01-01T02:00:19Z</time>
            </trkpt>
            <trkpt lon="101.390296" lat="14.161961">
                <ele>107.300000</ele>
                <time>1970-01-01T02:00:20Z</time>
            </trkpt>
            <trkpt lon="101.390268" lat="14.161996">
                <ele>107.700000</ele>
                <time>1970-01-01T02:00:22Z</time>
            </trkpt>
            <trkpt lon="101.390271" lat="14.162031">
                <ele>108.000000</ele>
                <time>1970-01-01T02:00:24Z</time>
            </trkpt>
            <trkpt lon="101.390280" lat="14.162073">
                <ele>108.300000</ele>
                <time>1970-01-01T02:00:26Z</time>
            </trkpt>
            <trkpt lon="101.390287" lat="14.162100">
                <ele>108.500000</ele>
                <time>1970-01-01T02:00:27Z</time>
            </trkpt>
            <trkpt lon="101.390297" lat="14.162154">
                <ele>108.800000</ele>
                <time>1970-01-01T02:00:29Z</time>
            </trkpt>
            <trkpt lon="101.390298" lat="14.162182">
                <ele>108.900000</ele>
                <time>1970-01-01T02:00:30Z</time>
            </trkpt>
            <trkpt lon="101.390297" lat="14.162212">
                <ele>109.100000</ele>
                <time>1970-01-01T02:00:31Z</time>
            </trkpt>
            <trkpt lon="101.390295" lat="14.162240">
                <ele>109.200000</ele>
                <time>1970-01-01T02:00:32Z</time>
            </trkpt>
            <trkpt lon="101.390297" lat="14.162295">
                <ele>109.500000</ele>
                <time>1970-01-01T02:00:34Z</time>
            </trkpt>
            <trkpt lon="101.390300" lat="14.162325">
                <ele>109.600000</ele>
                <time>1970-01-01T02:00:35Z</time>
            </trkpt>
            <trkpt lon="101.390302" lat="14.162354">
                <ele>109.800000</ele>
                <time>1970-01-01T02:00:36Z</time>
            </trkpt>
            <trkpt lon="101.390302" lat="14.162386">
                <ele>110.000000</ele>
                <time>1970-01-01T02:00:37Z</time>
            </trkpt>
            <trkpt lon="101.390301" lat="14.162415">
                <ele>110.200000</ele>
                <time>1970-01-01T02:00:38Z</time>
            </trkpt>
            <trkpt lon="101.390298" lat="14.162443">
                <ele>110.400000</ele>
                <time>1970-01-01T02:00:39Z</time>
            </trkpt>
            <trkpt lon="101.390285" lat="14.162483">
                <ele>110.600000</ele>
                <time>1970-01-01T02:00:41Z</time>
            </trkpt>
            <trkpt lon="101.390270" lat="14.162531">
                <ele>110.900000</ele>
                <time>1970-01-01T02:00:43Z</time>
            </trkpt>
            <trkpt lon="101.390275" lat="14.162585">
                <ele>111.200000</ele>
                <time>1970-01-01T02:00:45Z</time>
            </trkpt>
            <trkpt lon="101.390281" lat="14.162618">
                <ele>111.400000</ele>
                <time>1970-01-01T02:00:46Z</time>
            </trkpt>
            <trkpt lon="101.390285" lat="14.162645">
                <ele>111.500000</ele>
                <time>1970-01-01T02:00:47Z</time>
            </trkpt>
            <trkpt lon="101.390285" lat="14.162678">
                <ele>111.700000</ele>
                <time>1970-01-01T02:00:49Z</time>
            </trkpt>
            <trkpt lon="101.390278" lat="14.162729">
                <ele>112.000000</ele>
                <time>1970-01-01T02:00:51Z</time>
            </trkpt>
            <trkpt lon="101.390274" lat="14.162756">
                <ele>112.300000</ele>
                <time>1970-01-01T02:00:52Z</time>
            </trkpt>
            <trkpt lon="101.390272" lat="14.162785">
                <ele>112.500000</ele>
                <time>1970-01-01T02:00:53Z</time>
            </trkpt>
            <trkpt lon="101.390269" lat="14.162814">
                <ele>112.600000</ele>
                <time>1970-01-01T02:00:54Z</time>
            </trkpt>
            <trkpt lon="101.390266" lat="14.162844">
                <ele>112.800000</ele>
                <time>1970-01-01T02:00:55Z</time>
            </trkpt>
            <trkpt lon="101.390266" lat="14.162875">
                <ele>113.000000</ele>
                <time>1970-01-01T02:00:56Z</time>
            </trkpt>
            <trkpt lon="101.390267" lat="14.162905">
                <ele>113.200000</ele>
                <time>1970-01-01T02:00:57Z</time>
            </trkpt>
            <trkpt lon="101.390269" lat="14.162934">
                <ele>113.300000</ele>
                <time>1970-01-01T02:00:58Z</time>
            </trkpt>
            <trkpt lon="101.390273" lat="14.162982">
                <ele>113.600000</ele>
                <time>1970-01-01T02:01:00Z</time>
            </trkpt>
            <trkpt lon="101.390274" lat="14.163031">
                <ele>113.900000</ele>
                <time>1970-01-01T02:01:02Z</time>
            </trkpt>
            <trkpt lon="101.390267" lat="14.163078">
                <ele>114.200000</ele>
                <time>1970-01-01T02:01:04Z</time>
            </trkpt>
            <trkpt lon="101.390259" lat="14.163131">
                <ele>114.700000</ele>
                <time>1970-01-01T02:01:06Z</time>
            </trkpt>
            <trkpt lon="101.390250" lat="14.163169">
                <ele>114.900000</ele>
                <time>1970-01-01T02:01:08Z</time>
            </trkpt>
            <trkpt lon="101.390241" lat="14.163221">
                <ele>115.200000</ele>
                <time>1970-01-01T02:01:10Z</time>
            </trkpt>
            <trkpt lon="101.390242" lat="14.163265">
                <ele>115.400000</ele>
                <time>1970-01-01T02:01:12Z</time>
            </trkpt>
            <trkpt lon="101.390238" lat="14.163308">
                <ele>115.700000</ele>
                <time>1970-01-01T02:01:14Z</time>
            </trkpt>
            <trkpt lon="101.390229" lat="14.163335">
                <ele>116.000000</ele>
                <time>1970-01-01T02:01:15Z</time>
            </trkpt>
            <trkpt lon="101.390217" lat="14.163364">
                <ele>116.200000</ele>
                <time>1970-01-01T02:01:16Z</time>
            </trkpt>
            <trkpt lon="101.390205" lat="14.163390">
                <ele>116.400000</ele>
                <time>1970-01-01T02:01:17Z</time>
            </trkpt>
            <trkpt lon="101.390195" lat="14.163416">
                <ele>116.700000</ele>
                <time>1970-01-01T02:01:18Z</time>
            </trkpt>
            <trkpt lon="101.390186" lat="14.163445">
                <ele>116.900000</ele>
                <time>1970-01-01T02:01:19Z</time>
            </trkpt>
            <trkpt lon="101.390178" lat="14.163476">
                <ele>117.100000</ele>
                <time>1970-01-01T02:01:20Z</time>
            </trkpt>
            <trkpt lon="101.390170" lat="14.163505">
                <ele>117.300000</ele>
                <time>1970-01-01T02:01:21Z</time>
            </trkpt>
            <trkpt lon="101.390162" lat="14.163534">
                <ele>117.500000</ele>
                <time>1970-01-01T02:01:22Z</time>
            </trkpt>
            <trkpt lon="101.390155" lat="14.163562">
                <ele>117.700000</ele>
                <time>1970-01-01T02:01:23Z</time>
            </trkpt>
            <trkpt lon="101.390143" lat="14.163613">
                <ele>118.200000</ele>
                <time>1970-01-01T02:01:25Z</time>
            </trkpt>
            <trkpt lon="101.390135" lat="14.163660">
                <ele>118.500000</ele>
                <time>1970-01-01T02:01:27Z</time>
            </trkpt>
            <trkpt lon="101.390126" lat="14.163693">
                <ele>118.800000</ele>
                <time>1970-01-01T02:01:29Z</time>
            </trkpt>
            <trkpt lon="101.390111" lat="14.163735">
                <ele>119.100000</ele>
                <time>1970-01-01T02:01:31Z</time>
            </trkpt>
            <trkpt lon="101.390095" lat="14.163783">
                <ele>119.400000</ele>
                <time>1970-01-01T02:01:33Z</time>
            </trkpt>
            <trkpt lon="101.390087" lat="14.163811">
                <ele>119.700000</ele>
                <time>1970-01-01T02:01:34Z</time>
            </trkpt>
            <trkpt lon="101.390079" lat="14.163837">
                <ele>119.900000</ele>
                <time>1970-01-01T02:01:35Z</time>
            </trkpt>
            <trkpt lon="101.390065" lat="14.163881">
                <ele>120.200000</ele>
                <time>1970-01-01T02:01:37Z</time>
            </trkpt>
            <trkpt lon="101.390052" lat="14.163931">
                <ele>120.600000</ele>
                <time>1970-01-01T02:01:39Z</time>
            </trkpt>
            <trkpt lon="101.390038" lat="14.163978">
                <ele>121.400000</ele>
                <time>1970-01-01T02:01:41Z</time>
            </trkpt>
            <trkpt lon="101.390021" lat="14.164031">
                <ele>121.800000</ele>
                <time>1970-01-01T02:01:43Z</time>
            </trkpt>
            <trkpt lon="101.390012" lat="14.164057">
                <ele>122.000000</ele>
                <time>1970-01-01T02:01:44Z</time>
            </trkpt>
            <trkpt lon="101.390002" lat="14.164109">
                <ele>122.400000</ele>
                <time>1970-01-01T02:01:46Z</time>
            </trkpt>
            <trkpt lon="101.389990" lat="14.164161">
                <ele>122.800000</ele>
                <time>1970-01-01T02:01:48Z</time>
            </trkpt>
            <trkpt lon="101.389977" lat="14.164205">
                <ele>123.100000</ele>
                <time>1970-01-01T02:01:50Z</time>
            </trkpt>
            <trkpt lon="101.389968" lat="14.164251">
                <ele>123.500000</ele>
                <time>1970-01-01T02:01:52Z</time>
            </trkpt>
            <trkpt lon="101.389959" lat="14.164292">
                <ele>123.800000</ele>
                <time>1970-01-01T02:01:54Z</time>
            </trkpt>
            <trkpt lon="101.389950" lat="14.164333">
                <ele>124.100000</ele>
                <time>1970-01-01T02:01:56Z</time>
            </trkpt>
            <trkpt lon="101.389939" lat="14.164370">
                <ele>124.400000</ele>
                <time>1970-01-01T02:01:58Z</time>
            </trkpt>
            <trkpt lon="101.389926" lat="14.164413">
                <ele>124.700000</ele>
                <time>1970-01-01T02:02:00Z</time>
            </trkpt>
            <trkpt lon="101.389911" lat="14.164454">
                <ele>125.000000</ele>
                <time>1970-01-01T02:02:02Z</time>
            </trkpt>
            <trkpt lon="101.389893" lat="14.164496">
                <ele>125.300000</ele>
                <time>1970-01-01T02:02:04Z</time>
            </trkpt>
            <trkpt lon="101.389872" lat="14.164538">
                <ele>125.700000</ele>
                <time>1970-01-01T02:02:06Z</time>
            </trkpt>
            <trkpt lon="101.389851" lat="14.164582">
                <ele>126.100000</ele>
                <time>1970-01-01T02:02:08Z</time>
            </trkpt>
            <trkpt lon="101.389835" lat="14.164623">
                <ele>126.400000</ele>
                <time>1970-01-01T02:02:10Z</time>
            </trkpt>
            <trkpt lon="101.389812" lat="14.164671">
                <ele>126.800000</ele>
                <time>1970-01-01T02:02:12Z</time>
            </trkpt>
            <trkpt lon="101.389796" lat="14.164694">
                <ele>127.000000</ele>
                <time>1970-01-01T02:02:13Z</time>
            </trkpt>
            <trkpt lon="101.389778" lat="14.164716">
                <ele>127.200000</ele>
                <time>1970-01-01T02:02:14Z</time>
            </trkpt>
            <trkpt lon="101.389762" lat="14.164741">
                <ele>127.400000</ele>
                <time>1970-01-01T02:02:15Z</time>
            </trkpt>
            <trkpt lon="101.389741" lat="14.164788">
                <ele>127.800000</ele>
                <time>1970-01-01T02:02:17Z</time>
            </trkpt>
            <trkpt lon="101.389723" lat="14.164835">
                <ele>128.200000</ele>
                <time>1970-01-01T02:02:19Z</time>
            </trkpt>
            <trkpt lon="101.389709" lat="14.164877">
                <ele>128.500000</ele>
                <time>1970-01-01T02:02:21Z</time>
            </trkpt>
            <trkpt lon="101.389691" lat="14.164920">
                <ele>128.900000</ele>
                <time>1970-01-01T02:02:23Z</time>
            </trkpt>
            <trkpt lon="101.389669" lat="14.164961">
                <ele>129.200000</ele>
                <time>1970-01-01T02:02:25Z</time>
            </trkpt>
            <trkpt lon="101.389652" lat="14.165002">
                <ele>129.600000</ele>
                <time>1970-01-01T02:02:27Z</time>
            </trkpt>
            <trkpt lon="101.389638" lat="14.165040">
                <ele>129.800000</ele>
                <time>1970-01-01T02:02:29Z</time>
            </trkpt>
            <trkpt lon="101.389619" lat="14.165085">
                <ele>130.200000</ele>
                <time>1970-01-01T02:02:31Z</time>
            </trkpt>
            <trkpt lon="101.389606" lat="14.165126">
                <ele>130.500000</ele>
                <time>1970-01-01T02:02:33Z</time>
            </trkpt>
            <trkpt lon="101.389591" lat="14.165167">
                <ele>130.800000</ele>
                <time>1970-01-01T02:02:35Z</time>
            </trkpt>
            <trkpt lon="101.389571" lat="14.165213">
                <ele>131.200000</ele>
                <time>1970-01-01T02:02:37Z</time>
            </trkpt>
            <trkpt lon="101.389551" lat="14.165258">
                <ele>131.500000</ele>
                <time>1970-01-01T02:02:39Z</time>
            </trkpt>
            <trkpt lon="101.389528" lat="14.165300">
                <ele>131.800000</ele>
                <time>1970-01-01T02:02:41Z</time>
            </trkpt>
            <trkpt lon="101.389513" lat="14.165350">
                <ele>132.200000</ele>
                <time>1970-01-01T02:02:43Z</time>
            </trkpt>
            <trkpt lon="101.389495" lat="14.165391">
                <ele>132.500000</ele>
                <time>1970-01-01T02:02:45Z</time>
            </trkpt>
            <trkpt lon="101.389480" lat="14.165423">
                <ele>132.700000</ele>
                <time>1970-01-01T02:02:47Z</time>
            </trkpt>
            <trkpt lon="101.389459" lat="14.165461">
                <ele>133.000000</ele>
                <time>1970-01-01T02:02:49Z</time>
            </trkpt>
            <trkpt lon="101.389440" lat="14.165497">
                <ele>133.300000</ele>
                <time>1970-01-01T02:02:51Z</time>
            </trkpt>
            <trkpt lon="101.389424" lat="14.165531">
                <ele>133.500000</ele>
                <time>1970-01-01T02:02:53Z</time>
            </trkpt>
            <trkpt lon="101.389401" lat="14.165563">
                <ele>133.800000</ele>
                <time>1970-01-01T02:02:55Z</time>
            </trkpt>
            <trkpt lon="101.389373" lat="14.165596">
                <ele>134.000000</ele>
                <time>1970-01-01T02:02:57Z</time>
            </trkpt>
            <trkpt lon="101.389342" lat="14.165631">
                <ele>134.300000</ele>
                <time>1970-01-01T02:02:59Z</time>
            </trkpt>
            <trkpt lon="101.389309" lat="14.165669">
                <ele>134.600000</ele>
                <time>1970-01-01T02:03:01Z</time>
            </trkpt>
            <trkpt lon="101.389278" lat="14.165708">
                <ele>135.000000</ele>
                <time>1970-01-01T02:03:03Z</time>
            </trkpt>
            <trkpt lon="101.389255" lat="14.165748">
                <ele>135.200000</ele>
                <time>1970-01-01T02:03:05Z</time>
            </trkpt>
            <trkpt lon="101.389244" lat="14.165791">
                <ele>135.500000</ele>
                <time>1970-01-01T02:03:07Z</time>
            </trkpt>
            <trkpt lon="101.389238" lat="14.165820">
                <ele>135.700000</ele>
                <time>1970-01-01T02:03:09Z</time>
            </trkpt>
            <trkpt lon="101.389214" lat="14.165840">
                <ele>135.800000</ele>
                <time>1970-01-01T02:03:12Z</time>
            </trkpt>
            <trkpt lon="101.389215" lat="14.165806">
                <ele>136.000000</ele>
                <time>1970-01-01T02:03:15Z</time>
            </trkpt>
            <trkpt lon="101.389251" lat="14.165812">
                <ele>136.200000</ele>
                <time>1970-01-01T02:03:18Z</time>
            </trkpt>
            <trkpt lon="101.389281" lat="14.165818">
                <ele>136.200000</ele>
                <time>1970-01-01T02:03:20Z</time>
            </trkpt>
            <trkpt lon="101.389312" lat="14.165825">
                <ele>136.200000</ele>
                <time>1970-01-01T02:03:22Z</time>
            </trkpt>
            <trkpt lon="101.389345" lat="14.165834">
                <ele>136.200000</ele>
                <time>1970-01-01T02:03:24Z</time>
            </trkpt>
            <trkpt lon="101.389379" lat="14.165839">
                <ele>136.200000</ele>
                <time>1970-01-01T02:03:26Z</time>
            </trkpt>
            <trkpt lon="101.389410" lat="14.165852">
                <ele>136.200000</ele>
                <time>1970-01-01T02:03:28Z</time>
            </trkpt>
            <trkpt lon="101.389438" lat="14.165876">
                <ele>136.200000</ele>
                <time>1970-01-01T02:03:30Z</time>
            </trkpt>
            <trkpt lon="101.389467" lat="14.165900">
                <ele>136.200000</ele>
                <time>1970-01-01T02:03:32Z</time>
            </trkpt>
            <trkpt lon="101.389493" lat="14.165923">
                <ele>136.100000</ele>
                <time>1970-01-01T02:03:34Z</time>
            </trkpt>
            <trkpt lon="101.389507" lat="14.165949">
                <ele>136.100000</ele>
                <time>1970-01-01T02:03:36Z</time>
            </trkpt>
            <trkpt lon="101.389491" lat="14.165978">
                <ele>136.200000</ele>
                <time>1970-01-01T02:03:39Z</time>
            </trkpt>
            <trkpt lon="101.389475" lat="14.166010">
                <ele>136.500000</ele>
                <time>1970-01-01T02:03:42Z</time>
            </trkpt>
            <trkpt lon="101.389457" lat="14.166045">
                <ele>136.800000</ele>
                <time>1970-01-01T02:03:45Z</time>
            </trkpt>
            <trkpt lon="101.389444" lat="14.166079">
                <ele>136.800000</ele>
                <time>1970-01-01T02:03:48Z</time>
            </trkpt>
            <trkpt lon="101.389419" lat="14.166107">
                <ele>137.000000</ele>
                <time>1970-01-01T02:03:51Z</time>
            </trkpt>
            <trkpt lon="101.389398" lat="14.166126">
                <ele>137.300000</ele>
                <time>1970-01-01T02:03:54Z</time>
            </trkpt>
            <trkpt lon="101.389368" lat="14.166147">
                <ele>137.300000</ele>
                <time>1970-01-01T02:03:58Z</time>
            </trkpt>
            <trkpt lon="101.389345" lat="14.166171">
                <ele>137.500000</ele>
                <time>1970-01-01T02:04:01Z</time>
            </trkpt>
            <trkpt lon="101.389372" lat="14.166191">
                <ele>137.600000</ele>
                <time>1970-01-01T02:04:04Z</time>
            </trkpt>
            <trkpt lon="101.389404" lat="14.166186">
                <ele>137.700000</ele>
                <time>1970-01-01T02:04:07Z</time>
            </trkpt>
            <trkpt lon="101.389433" lat="14.166183">
                <ele>137.800000</ele>
                <time>1970-01-01T02:04:56Z</time>
            </trkpt>
            <trkpt lon="101.389466" lat="14.166204">
                <ele>137.800000</ele>
                <time>1970-01-01T02:04:58Z</time>
            </trkpt>
            <trkpt lon="101.389496" lat="14.166233">
                <ele>138.400000</ele>
                <time>1970-01-01T02:05:00Z</time>
            </trkpt>
            <trkpt lon="101.389527" lat="14.166264">
                <ele>139.400000</ele>
                <time>1970-01-01T02:05:02Z</time>
            </trkpt>
            <trkpt lon="101.389574" lat="14.166290">
                <ele>140.500000</ele>
                <time>1970-01-01T02:05:04Z</time>
            </trkpt>
            <trkpt lon="101.389603" lat="14.166298">
                <ele>140.500000</ele>
                <time>1970-01-01T02:05:05Z</time>
            </trkpt>
            <trkpt lon="101.389632" lat="14.166308">
                <ele>141.000000</ele>
                <time>1970-01-01T02:05:06Z</time>
            </trkpt>
            <trkpt lon="101.389656" lat="14.166321">
                <ele>141.300000</ele>
                <time>1970-01-01T02:05:07Z</time>
            </trkpt>
            <trkpt lon="101.389677" lat="14.166341">
                <ele>141.800000</ele>
                <time>1970-01-01T02:05:08Z</time>
            </trkpt>
            <trkpt lon="101.389697" lat="14.166363">
                <ele>141.900000</ele>
                <time>1970-01-01T02:05:09Z</time>
            </trkpt>
            <trkpt lon="101.389719" lat="14.166383">
                <ele>142.500000</ele>
                <time>1970-01-01T02:05:10Z</time>
            </trkpt>
            <trkpt lon="101.389746" lat="14.166401">
                <ele>142.600000</ele>
                <time>1970-01-01T02:05:11Z</time>
            </trkpt>
            <trkpt lon="101.389782" lat="14.166417">
                <ele>143.400000</ele>
                <time>1970-01-01T02:05:12Z</time>
            </trkpt>
            <trkpt lon="101.389826" lat="14.166431">
                <ele>143.400000</ele>
                <time>1970-01-01T02:05:13Z</time>
            </trkpt>
            <trkpt lon="101.389879" lat="14.166440">
                <ele>143.000000</ele>
                <time>1970-01-01T02:05:14Z</time>
            </trkpt>
            <trkpt lon="101.389924" lat="14.166449">
                <ele>142.500000</ele>
                <time>1970-01-01T02:05:15Z</time>
            </trkpt>
            <trkpt lon="101.389963" lat="14.166454">
                <ele>142.600000</ele>
                <time>1970-01-01T02:05:16Z</time>
            </trkpt>
            <trkpt lon="101.390012" lat="14.166462">
                <ele>142.100000</ele>
                <time>1970-01-01T02:05:17Z</time>
            </trkpt>
            <trkpt lon="101.390062" lat="14.166479">
                <ele>141.600000</ele>
                <time>1970-01-01T02:05:18Z</time>
            </trkpt>
            <trkpt lon="101.390100" lat="14.166486">
                <ele>141.100000</ele>
                <time>1970-01-01T02:05:19Z</time>
            </trkpt>
            <trkpt lon="101.390137" lat="14.166496">
                <ele>141.100000</ele>
                <time>1970-01-01T02:05:20Z</time>
            </trkpt>
            <trkpt lon="101.390192" lat="14.166507">
                <ele>140.400000</ele>
                <time>1970-01-01T02:05:22Z</time>
            </trkpt>
            <trkpt lon="101.390242" lat="14.166504">
                <ele>139.600000</ele>
                <time>1970-01-01T02:05:24Z</time>
            </trkpt>
            <trkpt lon="101.390268" lat="14.166488">
                <ele>138.400000</ele>
                <time>1970-01-01T02:05:25Z</time>
            </trkpt>
            <trkpt lon="101.390306" lat="14.166482">
                <ele>137.600000</ele>
                <time>1970-01-01T02:05:26Z</time>
            </trkpt>
            <trkpt lon="101.390337" lat="14.166464">
                <ele>136.900000</ele>
                <time>1970-01-01T02:05:27Z</time>
            </trkpt>
            <trkpt lon="101.390378" lat="14.166452">
                <ele>135.700000</ele>
                <time>1970-01-01T02:05:28Z</time>
            </trkpt>
            <trkpt lon="101.390418" lat="14.166438">
                <ele>135.700000</ele>
                <time>1970-01-01T02:05:29Z</time>
            </trkpt>
            <trkpt lon="101.390448" lat="14.166421">
                <ele>135.000000</ele>
                <time>1970-01-01T02:05:30Z</time>
            </trkpt>
            <trkpt lon="101.390474" lat="14.166406">
                <ele>134.000000</ele>
                <time>1970-01-01T02:05:31Z</time>
            </trkpt>
            <trkpt lon="101.390502" lat="14.166393">
                <ele>134.000000</ele>
                <time>1970-01-01T02:05:32Z</time>
            </trkpt>
            <trkpt lon="101.390534" lat="14.166381">
                <ele>133.400000</ele>
                <time>1970-01-01T02:05:33Z</time>
            </trkpt>
            <trkpt lon="101.390565" lat="14.166374">
                <ele>132.900000</ele>
                <time>1970-01-01T02:05:34Z</time>
            </trkpt>
            <trkpt lon="101.390598" lat="14.166371">
                <ele>132.400000</ele>
                <time>1970-01-01T02:05:35Z</time>
            </trkpt>
            <trkpt lon="101.390634" lat="14.166373">
                <ele>131.900000</ele>
                <time>1970-01-01T02:05:36Z</time>
            </trkpt>
            <trkpt lon="101.390669" lat="14.166378">
                <ele>131.900000</ele>
                <time>1970-01-01T02:05:37Z</time>
            </trkpt>
            <trkpt lon="101.390708" lat="14.166383">
                <ele>131.400000</ele>
                <time>1970-01-01T02:05:38Z</time>
            </trkpt>
            <trkpt lon="101.390752" lat="14.166388">
                <ele>130.900000</ele>
                <time>1970-01-01T02:05:39Z</time>
            </trkpt>
            <trkpt lon="101.390791" lat="14.166393">
                <ele>130.400000</ele>
                <time>1970-01-01T02:05:40Z</time>
            </trkpt>
            <trkpt lon="101.390821" lat="14.166393">
                <ele>129.900000</ele>
                <time>1970-01-01T02:05:41Z</time>
            </trkpt>
            <trkpt lon="101.390850" lat="14.166389">
                <ele>129.400000</ele>
                <time>1970-01-01T02:05:42Z</time>
            </trkpt>
            <trkpt lon="101.390898" lat="14.166375">
                <ele>129.100000</ele>
                <time>1970-01-01T02:05:43Z</time>
            </trkpt>
            <trkpt lon="101.390952" lat="14.166374">
                <ele>128.700000</ele>
                <time>1970-01-01T02:05:44Z</time>
            </trkpt>
            <trkpt lon="101.391010" lat="14.166371">
                <ele>128.400000</ele>
                <time>1970-01-01T02:05:45Z</time>
            </trkpt>
            <trkpt lon="101.391072" lat="14.166360">
                <ele>127.000000</ele>
                <time>1970-01-01T02:05:46Z</time>
            </trkpt>
            <trkpt lon="101.391130" lat="14.166349">
                <ele>126.500000</ele>
                <time>1970-01-01T02:05:47Z</time>
            </trkpt>
            <trkpt lon="101.391181" lat="14.166344">
                <ele>126.000000</ele>
                <time>1970-01-01T02:05:48Z</time>
            </trkpt>
            <trkpt lon="101.391231" lat="14.166343">
                <ele>125.500000</ele>
                <time>1970-01-01T02:05:49Z</time>
            </trkpt>
            <trkpt lon="101.391280" lat="14.166340">
                <ele>124.500000</ele>
                <time>1970-01-01T02:05:50Z</time>
            </trkpt>
            <trkpt lon="101.391330" lat="14.166322">
                <ele>123.500000</ele>
                <time>1970-01-01T02:05:51Z</time>
            </trkpt>
            <trkpt lon="101.391393" lat="14.166310">
                <ele>123.000000</ele>
                <time>1970-01-01T02:05:52Z</time>
            </trkpt>
            <trkpt lon="101.391434" lat="14.166296">
                <ele>122.700000</ele>
                <time>1970-01-01T02:05:53Z</time>
            </trkpt>
            <trkpt lon="101.391470" lat="14.166287">
                <ele>122.200000</ele>
                <time>1970-01-01T02:05:54Z</time>
            </trkpt>
            <trkpt lon="101.391504" lat="14.166288">
                <ele>122.200000</ele>
                <time>1970-01-01T02:05:55Z</time>
            </trkpt>
            <trkpt lon="101.391556" lat="14.166286">
                <ele>121.700000</ele>
                <time>1970-01-01T02:05:57Z</time>
            </trkpt>
            <trkpt lon="101.391606" lat="14.166303">
                <ele>121.700000</ele>
                <time>1970-01-01T02:05:59Z</time>
            </trkpt>
            <trkpt lon="101.391653" lat="14.166305">
                <ele>121.400000</ele>
                <time>1970-01-01T02:06:01Z</time>
            </trkpt>
            <trkpt lon="101.391700" lat="14.166303">
                <ele>121.200000</ele>
                <time>1970-01-01T02:06:03Z</time>
            </trkpt>
            <trkpt lon="101.391733" lat="14.166315">
                <ele>120.900000</ele>
                <time>1970-01-01T02:06:05Z</time>
            </trkpt>
            <trkpt lon="101.391778" lat="14.166322">
                <ele>120.700000</ele>
                <time>1970-01-01T02:06:07Z</time>
            </trkpt>
            <trkpt lon="101.391809" lat="14.166319">
                <ele>120.400000</ele>
                <time>1970-01-01T02:06:08Z</time>
            </trkpt>
            <trkpt lon="101.391842" lat="14.166312">
                <ele>120.200000</ele>
                <time>1970-01-01T02:06:09Z</time>
            </trkpt>
            <trkpt lon="101.391872" lat="14.166302">
                <ele>120.200000</ele>
                <time>1970-01-01T02:06:10Z</time>
            </trkpt>
            <trkpt lon="101.391899" lat="14.166294">
                <ele>119.800000</ele>
                <time>1970-01-01T02:06:11Z</time>
            </trkpt>
            <trkpt lon="101.391953" lat="14.166281">
                <ele>119.100000</ele>
                <time>1970-01-01T02:06:13Z</time>
            </trkpt>
            <trkpt lon="101.391982" lat="14.166282">
                <ele>118.600000</ele>
                <time>1970-01-01T02:06:14Z</time>
            </trkpt>
            <trkpt lon="101.392031" lat="14.166300">
                <ele>118.300000</ele>
                <time>1970-01-01T02:06:16Z</time>
            </trkpt>
            <trkpt lon="101.392080" lat="14.166307">
                <ele>117.900000</ele>
                <time>1970-01-01T02:06:18Z</time>
            </trkpt>
            <trkpt lon="101.392119" lat="14.166298">
                <ele>117.600000</ele>
                <time>1970-01-01T02:06:20Z</time>
            </trkpt>
            <trkpt lon="101.392145" lat="14.166288">
                <ele>117.400000</ele>
                <time>1970-01-01T02:06:21Z</time>
            </trkpt>
            <trkpt lon="101.392175" lat="14.166280">
                <ele>117.000000</ele>
                <time>1970-01-01T02:06:22Z</time>
            </trkpt>
            <trkpt lon="101.392219" lat="14.166292">
                <ele>117.100000</ele>
                <time>1970-01-01T02:06:24Z</time>
            </trkpt>
            <trkpt lon="101.392237" lat="14.166337">
                <ele>117.200000</ele>
                <time>1970-01-01T02:06:26Z</time>
            </trkpt>
            <trkpt lon="101.392222" lat="14.166361">
                <ele>117.100000</ele>
                <time>1970-01-01T02:06:29Z</time>
            </trkpt>
            <trkpt lon="101.392226" lat="14.166390">
                <ele>117.400000</ele>
                <time>1970-01-01T02:06:39Z</time>
            </trkpt>
            <trkpt lon="101.392253" lat="14.166407">
                <ele>117.400000</ele>
                <time>1970-01-01T02:06:44Z</time>
            </trkpt>
            <trkpt lon="101.392283" lat="14.166425">
                <ele>117.900000</ele>
                <time>1970-01-01T02:06:52Z</time>
            </trkpt>
            <trkpt lon="101.392318" lat="14.166424">
                <ele>118.000000</ele>
                <time>1970-01-01T02:06:58Z</time>
            </trkpt>
            <trkpt lon="101.392346" lat="14.166435">
                <ele>118.000000</ele>
                <time>1970-01-01T02:07:01Z</time>
            </trkpt>
            <trkpt lon="101.392375" lat="14.166440">
                <ele>118.200000</ele>
                <time>1970-01-01T02:07:05Z</time>
            </trkpt>
            <trkpt lon="101.392404" lat="14.166443">
                <ele>118.300000</ele>
                <time>1970-01-01T02:07:10Z</time>
            </trkpt>
            <trkpt lon="101.392437" lat="14.166447">
                <ele>118.300000</ele>
                <time>1970-01-01T02:07:15Z</time>
            </trkpt>
            <trkpt lon="101.392468" lat="14.166441">
                <ele>118.300000</ele>
                <time>1970-01-01T02:07:25Z</time>
            </trkpt>
            <trkpt lon="101.392504" lat="14.166436">
                <ele>118.300000</ele>
                <time>1970-01-01T02:07:35Z</time>
            </trkpt>
            <trkpt lon="101.392524" lat="14.166412">
                <ele>117.500000</ele>
                <time>1970-01-01T02:07:39Z</time>
            </trkpt>
            <trkpt lon="101.392556" lat="14.166389">
                <ele>117.500000</ele>
                <time>1970-01-01T02:07:42Z</time>
            </trkpt>
            <trkpt lon="101.392586" lat="14.166387">
                <ele>117.600000</ele>
                <time>1970-01-01T02:07:44Z</time>
            </trkpt>
            <trkpt lon="101.392622" lat="14.166395">
                <ele>117.800000</ele>
                <time>1970-01-01T02:07:46Z</time>
            </trkpt>
            <trkpt lon="101.392658" lat="14.166409">
                <ele>118.100000</ele>
                <time>1970-01-01T02:07:48Z</time>
            </trkpt>
            <trkpt lon="101.392700" lat="14.166424">
                <ele>119.100000</ele>
                <time>1970-01-01T02:07:50Z</time>
            </trkpt>
            <trkpt lon="101.392727" lat="14.166434">
                <ele>119.100000</ele>
                <time>1970-01-01T02:07:52Z</time>
            </trkpt>
            <trkpt lon="101.392767" lat="14.166445">
                <ele>119.300000</ele>
                <time>1970-01-01T02:07:55Z</time>
            </trkpt>
            <trkpt lon="101.392796" lat="14.166463">
                <ele>120.700000</ele>
                <time>1970-01-01T02:07:57Z</time>
            </trkpt>
            <trkpt lon="101.392827" lat="14.166479">
                <ele>121.500000</ele>
                <time>1970-01-01T02:08:00Z</time>
            </trkpt>
            <trkpt lon="101.392861" lat="14.166483">
                <ele>121.500000</ele>
                <time>1970-01-01T02:08:03Z</time>
            </trkpt>
            <trkpt lon="101.392893" lat="14.166502">
                <ele>123.000000</ele>
                <time>1970-01-01T02:08:08Z</time>
            </trkpt>
            <trkpt lon="101.392921" lat="14.166516">
                <ele>123.600000</ele>
                <time>1970-01-01T02:08:12Z</time>
            </trkpt>
            <trkpt lon="101.392952" lat="14.166535">
                <ele>124.400000</ele>
                <time>1970-01-01T02:08:16Z</time>
            </trkpt>
            <trkpt lon="101.392977" lat="14.166547">
                <ele>125.400000</ele>
                <time>1970-01-01T02:08:19Z</time>
            </trkpt>
            <trkpt lon="101.393005" lat="14.166560">
                <ele>126.100000</ele>
                <time>1970-01-01T02:08:24Z</time>
            </trkpt>
            <trkpt lon="101.393034" lat="14.166573">
                <ele>126.100000</ele>
                <time>1970-01-01T02:08:33Z</time>
            </trkpt>
            <trkpt lon="101.393058" lat="14.166588">
                <ele>127.900000</ele>
                <time>1970-01-01T02:08:40Z</time>
            </trkpt>
            <trkpt lon="101.393094" lat="14.166604">
                <ele>128.400000</ele>
                <time>1970-01-01T02:08:43Z</time>
            </trkpt>
            <trkpt lon="101.393112" lat="14.166631">
                <ele>129.300000</ele>
                <time>1970-01-01T02:08:46Z</time>
            </trkpt>
            <trkpt lon="101.393132" lat="14.166655">
                <ele>129.700000</ele>
                <time>1970-01-01T02:08:49Z</time>
            </trkpt>
            <trkpt lon="101.393155" lat="14.166685">
                <ele>130.200000</ele>
                <time>1970-01-01T02:08:52Z</time>
            </trkpt>
            <trkpt lon="101.393178" lat="14.166709">
                <ele>131.200000</ele>
                <time>1970-01-01T02:08:55Z</time>
            </trkpt>
            <trkpt lon="101.393198" lat="14.166737">
                <ele>131.200000</ele>
                <time>1970-01-01T02:08:57Z</time>
            </trkpt>
            <trkpt lon="101.393220" lat="14.166760">
                <ele>132.200000</ele>
                <time>1970-01-01T02:08:59Z</time>
            </trkpt>
            <trkpt lon="101.393237" lat="14.166782">
                <ele>132.200000</ele>
                <time>1970-01-01T02:09:01Z</time>
            </trkpt>
            <trkpt lon="101.393247" lat="14.166810">
                <ele>132.700000</ele>
                <time>1970-01-01T02:09:04Z</time>
            </trkpt>
            <trkpt lon="101.393248" lat="14.166843">
                <ele>133.200000</ele>
                <time>1970-01-01T02:09:07Z</time>
            </trkpt>
            <trkpt lon="101.393238" lat="14.166878">
                <ele>133.700000</ele>
                <time>1970-01-01T02:09:10Z</time>
            </trkpt>
            <trkpt lon="101.393238" lat="14.166910">
                <ele>133.700000</ele>
                <time>1970-01-01T02:09:12Z</time>
            </trkpt>
            <trkpt lon="101.393241" lat="14.166941">
                <ele>134.200000</ele>
                <time>1970-01-01T02:09:14Z</time>
            </trkpt>
            <trkpt lon="101.393250" lat="14.166972">
                <ele>134.700000</ele>
                <time>1970-01-01T02:09:16Z</time>
            </trkpt>
            <trkpt lon="101.393262" lat="14.167004">
                <ele>135.300000</ele>
                <time>1970-01-01T02:09:18Z</time>
            </trkpt>
            <trkpt lon="101.393280" lat="14.167036">
                <ele>135.300000</ele>
                <time>1970-01-01T02:09:20Z</time>
            </trkpt>
            <trkpt lon="101.393297" lat="14.167060">
                <ele>135.800000</ele>
                <time>1970-01-01T02:09:22Z</time>
            </trkpt>
            <trkpt lon="101.393305" lat="14.167095">
                <ele>136.300000</ele>
                <time>1970-01-01T02:09:25Z</time>
            </trkpt>
            <trkpt lon="101.393320" lat="14.167121">
                <ele>136.700000</ele>
                <time>1970-01-01T02:09:27Z</time>
            </trkpt>
            <trkpt lon="101.393340" lat="14.167154">
                <ele>136.700000</ele>
                <time>1970-01-01T02:09:30Z</time>
            </trkpt>
            <trkpt lon="101.393368" lat="14.167178">
                <ele>137.000000</ele>
                <time>1970-01-01T02:09:33Z</time>
            </trkpt>
            <trkpt lon="101.393392" lat="14.167204">
                <ele>137.200000</ele>
                <time>1970-01-01T02:09:36Z</time>
            </trkpt>
            <trkpt lon="101.393403" lat="14.167240">
                <ele>137.200000</ele>
                <time>1970-01-01T02:09:39Z</time>
            </trkpt>
            <trkpt lon="101.393418" lat="14.167273">
                <ele>137.500000</ele>
                <time>1970-01-01T02:09:43Z</time>
            </trkpt>
            <trkpt lon="101.393423" lat="14.167301">
                <ele>137.900000</ele>
                <time>1970-01-01T02:09:45Z</time>
            </trkpt>
            <trkpt lon="101.393427" lat="14.167334">
                <ele>138.700000</ele>
                <time>1970-01-01T02:09:47Z</time>
            </trkpt>
            <trkpt lon="101.393428" lat="14.167365">
                <ele>138.700000</ele>
                <time>1970-01-01T02:09:49Z</time>
            </trkpt>
            <trkpt lon="101.393428" lat="14.167396">
                <ele>139.400000</ele>
                <time>1970-01-01T02:09:52Z</time>
            </trkpt>
            <trkpt lon="101.393435" lat="14.167436">
                <ele>140.100000</ele>
                <time>1970-01-01T02:09:55Z</time>
            </trkpt>
            <trkpt lon="101.393440" lat="14.167471">
                <ele>140.700000</ele>
                <time>1970-01-01T02:09:58Z</time>
            </trkpt>
            <trkpt lon="101.393437" lat="14.167509">
                <ele>141.200000</ele>
                <time>1970-01-01T02:10:00Z</time>
            </trkpt>
            <trkpt lon="101.393437" lat="14.167540">
                <ele>141.700000</ele>
                <time>1970-01-01T02:10:02Z</time>
            </trkpt>
            <trkpt lon="101.393439" lat="14.167570">
                <ele>141.700000</ele>
                <time>1970-01-01T02:10:04Z</time>
            </trkpt>
            <trkpt lon="101.393447" lat="14.167597">
                <ele>142.200000</ele>
                <time>1970-01-01T02:10:06Z</time>
            </trkpt>
            <trkpt lon="101.393463" lat="14.167622">
                <ele>142.700000</ele>
                <time>1970-01-01T02:10:08Z</time>
            </trkpt>
            <trkpt lon="101.393484" lat="14.167649">
                <ele>142.700000</ele>
                <time>1970-01-01T02:10:10Z</time>
            </trkpt>
            <trkpt lon="101.393506" lat="14.167675">
                <ele>143.200000</ele>
                <time>1970-01-01T02:10:12Z</time>
            </trkpt>
            <trkpt lon="101.393523" lat="14.167696">
                <ele>143.200000</ele>
                <time>1970-01-01T02:10:14Z</time>
            </trkpt>
            <trkpt lon="101.393540" lat="14.167722">
                <ele>143.700000</ele>
                <time>1970-01-01T02:10:17Z</time>
            </trkpt>
            <trkpt lon="101.393548" lat="14.167756">
                <ele>144.200000</ele>
                <time>1970-01-01T02:10:22Z</time>
            </trkpt>
            <trkpt lon="101.393575" lat="14.167776">
                <ele>144.200000</ele>
                <time>1970-01-01T02:10:27Z</time>
            </trkpt>
            <trkpt lon="101.393585" lat="14.167801">
                <ele>144.700000</ele>
                <time>1970-01-01T02:10:33Z</time>
            </trkpt>
            <trkpt lon="101.393599" lat="14.167833">
                <ele>145.700000</ele>
                <time>1970-01-01T02:10:37Z</time>
            </trkpt>
            <trkpt lon="101.393608" lat="14.167862">
                <ele>145.600000</ele>
                <time>1970-01-01T02:10:40Z</time>
            </trkpt>
            <trkpt lon="101.393617" lat="14.167888">
                <ele>146.400000</ele>
                <time>1970-01-01T02:10:44Z</time>
            </trkpt>
            <trkpt lon="101.393637" lat="14.167912">
                <ele>147.100000</ele>
                <time>1970-01-01T02:10:48Z</time>
            </trkpt>
            <trkpt lon="101.393661" lat="14.167926">
                <ele>147.400000</ele>
                <time>1970-01-01T02:10:52Z</time>
            </trkpt>
            <trkpt lon="101.393677" lat="14.167951">
                <ele>147.400000</ele>
                <time>1970-01-01T02:11:02Z</time>
            </trkpt>
            <trkpt lon="101.393692" lat="14.167981">
                <ele>148.300000</ele>
                <time>1970-01-01T02:11:45Z</time>
            </trkpt>
            <trkpt lon="101.393719" lat="14.168005">
                <ele>148.900000</ele>
                <time>1970-01-01T02:11:53Z</time>
            </trkpt>
            <trkpt lon="101.393730" lat="14.168038">
                <ele>149.600000</ele>
                <time>1970-01-01T02:11:57Z</time>
            </trkpt>
            <trkpt lon="101.393739" lat="14.168065">
                <ele>149.600000</ele>
                <time>1970-01-01T02:11:59Z</time>
            </trkpt>
            <trkpt lon="101.393747" lat="14.168106">
                <ele>150.100000</ele>
                <time>1970-01-01T02:12:03Z</time>
            </trkpt>
            <trkpt lon="101.393756" lat="14.168140">
                <ele>150.600000</ele>
                <time>1970-01-01T02:12:05Z</time>
            </trkpt>
            <trkpt lon="101.393770" lat="14.168169">
                <ele>151.300000</ele>
                <time>1970-01-01T02:12:07Z</time>
            </trkpt>
            <trkpt lon="101.393791" lat="14.168204">
                <ele>151.800000</ele>
                <time>1970-01-01T02:12:09Z</time>
            </trkpt>
            <trkpt lon="101.393806" lat="14.168233">
                <ele>151.800000</ele>
                <time>1970-01-01T02:12:11Z</time>
            </trkpt>
            <trkpt lon="101.393821" lat="14.168262">
                <ele>152.500000</ele>
                <time>1970-01-01T02:12:13Z</time>
            </trkpt>
            <trkpt lon="101.393842" lat="14.168294">
                <ele>153.000000</ele>
                <time>1970-01-01T02:12:15Z</time>
            </trkpt>
            <trkpt lon="101.393866" lat="14.168334">
                <ele>153.500000</ele>
                <time>1970-01-01T02:12:17Z</time>
            </trkpt>
            <trkpt lon="101.393889" lat="14.168364">
                <ele>153.400000</ele>
                <time>1970-01-01T02:12:19Z</time>
            </trkpt>
            <trkpt lon="101.393914" lat="14.168400">
                <ele>153.900000</ele>
                <time>1970-01-01T02:12:21Z</time>
            </trkpt>
            <trkpt lon="101.393931" lat="14.168426">
                <ele>154.200000</ele>
                <time>1970-01-01T02:12:23Z</time>
            </trkpt>
            <trkpt lon="101.393963" lat="14.168441">
                <ele>154.200000</ele>
                <time>1970-01-01T02:12:25Z</time>
            </trkpt>
            <trkpt lon="101.394005" lat="14.168447">
                <ele>154.200000</ele>
                <time>1970-01-01T02:12:27Z</time>
            </trkpt>
            <trkpt lon="101.394036" lat="14.168458">
                <ele>154.500000</ele>
                <time>1970-01-01T02:12:29Z</time>
            </trkpt>
            <trkpt lon="101.394071" lat="14.168470">
                <ele>154.500000</ele>
                <time>1970-01-01T02:12:31Z</time>
            </trkpt>
            <trkpt lon="101.394104" lat="14.168488">
                <ele>154.500000</ele>
                <time>1970-01-01T02:12:33Z</time>
            </trkpt>
            <trkpt lon="101.394126" lat="14.168514">
                <ele>155.000000</ele>
                <time>1970-01-01T02:12:35Z</time>
            </trkpt>
            <trkpt lon="101.394133" lat="14.168542">
                <ele>155.700000</ele>
                <time>1970-01-01T02:12:37Z</time>
            </trkpt>
            <trkpt lon="101.394130" lat="14.168571">
                <ele>155.700000</ele>
                <time>1970-01-01T02:12:39Z</time>
            </trkpt>
            <trkpt lon="101.394129" lat="14.168605">
                <ele>156.100000</ele>
                <time>1970-01-01T02:12:41Z</time>
            </trkpt>
            <trkpt lon="101.394132" lat="14.168635">
                <ele>156.400000</ele>
                <time>1970-01-01T02:12:43Z</time>
            </trkpt>
            <trkpt lon="101.394137" lat="14.168675">
                <ele>156.900000</ele>
                <time>1970-01-01T02:12:46Z</time>
            </trkpt>
            <trkpt lon="101.394136" lat="14.168714">
                <ele>157.400000</ele>
                <time>1970-01-01T02:12:49Z</time>
            </trkpt>
            <trkpt lon="101.394131" lat="14.168746">
                <ele>157.700000</ele>
                <time>1970-01-01T02:12:51Z</time>
            </trkpt>
            <trkpt lon="101.394128" lat="14.168778">
                <ele>158.100000</ele>
                <time>1970-01-01T02:12:53Z</time>
            </trkpt>
            <trkpt lon="101.394117" lat="14.168805">
                <ele>158.400000</ele>
                <time>1970-01-01T02:12:55Z</time>
            </trkpt>
            <trkpt lon="101.394105" lat="14.168831">
                <ele>158.600000</ele>
                <time>1970-01-01T02:12:57Z</time>
            </trkpt>
            <trkpt lon="101.394084" lat="14.168868">
                <ele>159.000000</ele>
                <time>1970-01-01T02:13:00Z</time>
            </trkpt>
            <trkpt lon="101.394062" lat="14.168889">
                <ele>159.300000</ele>
                <time>1970-01-01T02:13:02Z</time>
            </trkpt>
            <trkpt lon="101.394040" lat="14.168909">
                <ele>159.600000</ele>
                <time>1970-01-01T02:13:04Z</time>
            </trkpt>
            <trkpt lon="101.394012" lat="14.168930">
                <ele>160.000000</ele>
                <time>1970-01-01T02:13:07Z</time>
            </trkpt>
            <trkpt lon="101.393989" lat="14.168959">
                <ele>160.300000</ele>
                <time>1970-01-01T02:13:10Z</time>
            </trkpt>
            <trkpt lon="101.393971" lat="14.168988">
                <ele>160.500000</ele>
                <time>1970-01-01T02:13:13Z</time>
            </trkpt>
            <trkpt lon="101.393957" lat="14.169015">
                <ele>160.700000</ele>
                <time>1970-01-01T02:13:15Z</time>
            </trkpt>
            <trkpt lon="101.393946" lat="14.169050">
                <ele>160.900000</ele>
                <time>1970-01-01T02:13:17Z</time>
            </trkpt>
            <trkpt lon="101.393937" lat="14.169088">
                <ele>161.300000</ele>
                <time>1970-01-01T02:13:20Z</time>
            </trkpt>
            <trkpt lon="101.393933" lat="14.169116">
                <ele>161.600000</ele>
                <time>1970-01-01T02:13:22Z</time>
            </trkpt>
            <trkpt lon="101.393920" lat="14.169151">
                <ele>162.000000</ele>
                <time>1970-01-01T02:13:24Z</time>
            </trkpt>
            <trkpt lon="101.393904" lat="14.169189">
                <ele>162.400000</ele>
                <time>1970-01-01T02:13:26Z</time>
            </trkpt>
            <trkpt lon="101.393899" lat="14.169221">
                <ele>162.700000</ele>
                <time>1970-01-01T02:13:28Z</time>
            </trkpt>
            <trkpt lon="101.393895" lat="14.169261">
                <ele>163.100000</ele>
                <time>1970-01-01T02:13:30Z</time>
            </trkpt>
            <trkpt lon="101.393887" lat="14.169294">
                <ele>163.500000</ele>
                <time>1970-01-01T02:13:32Z</time>
            </trkpt>
            <trkpt lon="101.393876" lat="14.169330">
                <ele>164.000000</ele>
                <time>1970-01-01T02:13:34Z</time>
            </trkpt>
            <trkpt lon="101.393862" lat="14.169365">
                <ele>164.500000</ele>
                <time>1970-01-01T02:13:36Z</time>
            </trkpt>
            <trkpt lon="101.393849" lat="14.169399">
                <ele>165.100000</ele>
                <time>1970-01-01T02:13:38Z</time>
            </trkpt>
            <trkpt lon="101.393835" lat="14.169440">
                <ele>165.700000</ele>
                <time>1970-01-01T02:13:41Z</time>
            </trkpt>
            <trkpt lon="101.393820" lat="14.169473">
                <ele>166.200000</ele>
                <time>1970-01-01T02:13:43Z</time>
            </trkpt>
            <trkpt lon="101.393804" lat="14.169499">
                <ele>166.700000</ele>
                <time>1970-01-01T02:13:45Z</time>
            </trkpt>
            <trkpt lon="101.393783" lat="14.169529">
                <ele>167.100000</ele>
                <time>1970-01-01T02:13:48Z</time>
            </trkpt>
            <trkpt lon="101.393766" lat="14.169558">
                <ele>167.600000</ele>
                <time>1970-01-01T02:13:50Z</time>
            </trkpt>
            <trkpt lon="101.393753" lat="14.169587">
                <ele>168.000000</ele>
                <time>1970-01-01T02:13:52Z</time>
            </trkpt>
            <trkpt lon="101.393746" lat="14.169617">
                <ele>168.400000</ele>
                <time>1970-01-01T02:13:54Z</time>
            </trkpt>
            <trkpt lon="101.393735" lat="14.169652">
                <ele>168.900000</ele>
                <time>1970-01-01T02:13:56Z</time>
            </trkpt>
            <trkpt lon="101.393722" lat="14.169686">
                <ele>169.300000</ele>
                <time>1970-01-01T02:13:58Z</time>
            </trkpt>
            <trkpt lon="101.393710" lat="14.169712">
                <ele>169.600000</ele>
                <time>1970-01-01T02:14:00Z</time>
            </trkpt>
            <trkpt lon="101.393694" lat="14.169748">
                <ele>169.900000</ele>
                <time>1970-01-01T02:14:03Z</time>
            </trkpt>
            <trkpt lon="101.393689" lat="14.169780">
                <ele>170.200000</ele>
                <time>1970-01-01T02:14:05Z</time>
            </trkpt>
            <trkpt lon="101.393683" lat="14.169815">
                <ele>170.600000</ele>
                <time>1970-01-01T02:14:07Z</time>
            </trkpt>
            <trkpt lon="101.393678" lat="14.169849">
                <ele>170.900000</ele>
                <time>1970-01-01T02:14:09Z</time>
            </trkpt>
            <trkpt lon="101.393672" lat="14.169878">
                <ele>171.300000</ele>
                <time>1970-01-01T02:14:11Z</time>
            </trkpt>
            <trkpt lon="101.393662" lat="14.169904">
                <ele>171.600000</ele>
                <time>1970-01-01T02:14:13Z</time>
            </trkpt>
            <trkpt lon="101.393649" lat="14.169939">
                <ele>172.000000</ele>
                <time>1970-01-01T02:14:16Z</time>
            </trkpt>
            <trkpt lon="101.393649" lat="14.169972">
                <ele>172.400000</ele>
                <time>1970-01-01T02:14:19Z</time>
            </trkpt>
            <trkpt lon="101.393654" lat="14.170008">
                <ele>172.900000</ele>
                <time>1970-01-01T02:14:21Z</time>
            </trkpt>
            <trkpt lon="101.393655" lat="14.170038">
                <ele>173.200000</ele>
                <time>1970-01-01T02:14:23Z</time>
            </trkpt>
            <trkpt lon="101.393650" lat="14.170064">
                <ele>173.500000</ele>
                <time>1970-01-01T02:14:25Z</time>
            </trkpt>
            <trkpt lon="101.393638" lat="14.170093">
                <ele>173.900000</ele>
                <time>1970-01-01T02:14:27Z</time>
            </trkpt>
            <trkpt lon="101.393617" lat="14.170113">
                <ele>174.300000</ele>
                <time>1970-01-01T02:14:29Z</time>
            </trkpt>
            <trkpt lon="101.393592" lat="14.170128">
                <ele>174.700000</ele>
                <time>1970-01-01T02:14:31Z</time>
            </trkpt>
            <trkpt lon="101.393574" lat="14.170153">
                <ele>175.200000</ele>
                <time>1970-01-01T02:14:33Z</time>
            </trkpt>
            <trkpt lon="101.393565" lat="14.170181">
                <ele>175.500000</ele>
                <time>1970-01-01T02:14:35Z</time>
            </trkpt>
            <trkpt lon="101.393556" lat="14.170218">
                <ele>175.900000</ele>
                <time>1970-01-01T02:14:37Z</time>
            </trkpt>
            <trkpt lon="101.393553" lat="14.170260">
                <ele>176.300000</ele>
                <time>1970-01-01T02:14:39Z</time>
            </trkpt>
            <trkpt lon="101.393557" lat="14.170291">
                <ele>176.600000</ele>
                <time>1970-01-01T02:14:41Z</time>
            </trkpt>
            <trkpt lon="101.393558" lat="14.170323">
                <ele>176.900000</ele>
                <time>1970-01-01T02:14:43Z</time>
            </trkpt>
            <trkpt lon="101.393559" lat="14.170353">
                <ele>177.200000</ele>
                <time>1970-01-01T02:14:45Z</time>
            </trkpt>
            <trkpt lon="101.393559" lat="14.170394">
                <ele>177.500000</ele>
                <time>1970-01-01T02:14:48Z</time>
            </trkpt>
            <trkpt lon="101.393554" lat="14.170426">
                <ele>177.800000</ele>
                <time>1970-01-01T02:14:50Z</time>
            </trkpt>
            <trkpt lon="101.393547" lat="14.170455">
                <ele>178.000000</ele>
                <time>1970-01-01T02:14:52Z</time>
            </trkpt>
            <trkpt lon="101.393547" lat="14.170494">
                <ele>178.400000</ele>
                <time>1970-01-01T02:14:54Z</time>
            </trkpt>
            <trkpt lon="101.393546" lat="14.170535">
                <ele>178.800000</ele>
                <time>1970-01-01T02:14:56Z</time>
            </trkpt>
            <trkpt lon="101.393538" lat="14.170572">
                <ele>179.100000</ele>
                <time>1970-01-01T02:14:58Z</time>
            </trkpt>
            <trkpt lon="101.393530" lat="14.170611">
                <ele>179.300000</ele>
                <time>1970-01-01T02:15:00Z</time>
            </trkpt>
            <trkpt lon="101.393520" lat="14.170652">
                <ele>179.600000</ele>
                <time>1970-01-01T02:15:02Z</time>
            </trkpt>
            <trkpt lon="101.393513" lat="14.170691">
                <ele>179.800000</ele>
                <time>1970-01-01T02:15:04Z</time>
            </trkpt>
            <trkpt lon="101.393509" lat="14.170724">
                <ele>180.100000</ele>
                <time>1970-01-01T02:15:06Z</time>
            </trkpt>
            <trkpt lon="101.393501" lat="14.170757">
                <ele>180.400000</ele>
                <time>1970-01-01T02:15:08Z</time>
            </trkpt>
            <trkpt lon="101.393490" lat="14.170801">
                <ele>180.700000</ele>
                <time>1970-01-01T02:15:10Z</time>
            </trkpt>
            <trkpt lon="101.393478" lat="14.170841">
                <ele>180.900000</ele>
                <time>1970-01-01T02:15:12Z</time>
            </trkpt>
            <trkpt lon="101.393468" lat="14.170879">
                <ele>181.100000</ele>
                <time>1970-01-01T02:15:14Z</time>
            </trkpt>
            <trkpt lon="101.393466" lat="14.170913">
                <ele>181.400000</ele>
                <time>1970-01-01T02:15:16Z</time>
            </trkpt>
            <trkpt lon="101.393471" lat="14.170954">
                <ele>181.700000</ele>
                <time>1970-01-01T02:15:18Z</time>
            </trkpt>
            <trkpt lon="101.393464" lat="14.170990">
                <ele>181.900000</ele>
                <time>1970-01-01T02:15:20Z</time>
            </trkpt>
            <trkpt lon="101.393437" lat="14.171020">
                <ele>182.100000</ele>
                <time>1970-01-01T02:15:22Z</time>
            </trkpt>
            <trkpt lon="101.393414" lat="14.171041">
                <ele>182.200000</ele>
                <time>1970-01-01T02:15:24Z</time>
            </trkpt>
            <trkpt lon="101.393392" lat="14.171068">
                <ele>182.400000</ele>
                <time>1970-01-01T02:15:26Z</time>
            </trkpt>
            <trkpt lon="101.393369" lat="14.171098">
                <ele>182.500000</ele>
                <time>1970-01-01T02:15:29Z</time>
            </trkpt>
            <trkpt lon="101.393354" lat="14.171123">
                <ele>182.700000</ele>
                <time>1970-01-01T02:15:31Z</time>
            </trkpt>
            <trkpt lon="101.393334" lat="14.171152">
                <ele>182.700000</ele>
                <time>1970-01-01T02:16:27Z</time>
            </trkpt>
            <trkpt lon="101.393324" lat="14.171179">
                <ele>182.800000</ele>
                <time>1970-01-01T02:16:29Z</time>
            </trkpt>
            <trkpt lon="101.393299" lat="14.171219">
                <ele>182.900000</ele>
                <time>1970-01-01T02:16:31Z</time>
            </trkpt>
            <trkpt lon="101.393282" lat="14.171252">
                <ele>183.000000</ele>
                <time>1970-01-01T02:16:32Z</time>
            </trkpt>
            <trkpt lon="101.393268" lat="14.171292">
                <ele>182.900000</ele>
                <time>1970-01-01T02:16:33Z</time>
            </trkpt>
            <trkpt lon="101.393266" lat="14.171345">
                <ele>182.900000</ele>
                <time>1970-01-01T02:16:34Z</time>
            </trkpt>
            <trkpt lon="101.393304" lat="14.171428">
                <ele>182.800000</ele>
                <time>1970-01-01T02:16:35Z</time>
            </trkpt>
            <trkpt lon="101.393303" lat="14.171500">
                <ele>182.700000</ele>
                <time>1970-01-01T02:16:36Z</time>
            </trkpt>
            <trkpt lon="101.393298" lat="14.171540">
                <ele>182.600000</ele>
                <time>1970-01-01T02:16:37Z</time>
            </trkpt>
            <trkpt lon="101.393287" lat="14.171569">
                <ele>182.600000</ele>
                <time>1970-01-01T02:16:38Z</time>
            </trkpt>
            <trkpt lon="101.393286" lat="14.171598">
                <ele>182.700000</ele>
                <time>1970-01-01T02:16:39Z</time>
            </trkpt>
            <trkpt lon="101.393271" lat="14.171646">
                <ele>182.900000</ele>
                <time>1970-01-01T02:16:41Z</time>
            </trkpt>
            <trkpt lon="101.393256" lat="14.171670">
                <ele>183.100000</ele>
                <time>1970-01-01T02:16:42Z</time>
            </trkpt>
            <trkpt lon="101.393248" lat="14.171701">
                <ele>183.400000</ele>
                <time>1970-01-01T02:16:43Z</time>
            </trkpt>
            <trkpt lon="101.393230" lat="14.171731">
                <ele>183.800000</ele>
                <time>1970-01-01T02:16:44Z</time>
            </trkpt>
            <trkpt lon="101.393215" lat="14.171757">
                <ele>184.200000</ele>
                <time>1970-01-01T02:16:45Z</time>
            </trkpt>
            <trkpt lon="101.393193" lat="14.171790">
                <ele>184.700000</ele>
                <time>1970-01-01T02:16:46Z</time>
            </trkpt>
            <trkpt lon="101.393183" lat="14.171816">
                <ele>185.000000</ele>
                <time>1970-01-01T02:16:47Z</time>
            </trkpt>
            <trkpt lon="101.393173" lat="14.171860">
                <ele>185.600000</ele>
                <time>1970-01-01T02:16:49Z</time>
            </trkpt>
            <trkpt lon="101.393161" lat="14.171910">
                <ele>186.300000</ele>
                <time>1970-01-01T02:16:51Z</time>
            </trkpt>
            <trkpt lon="101.393155" lat="14.171937">
                <ele>186.700000</ele>
                <time>1970-01-01T02:16:52Z</time>
            </trkpt>
            <trkpt lon="101.393147" lat="14.171964">
                <ele>187.000000</ele>
                <time>1970-01-01T02:16:53Z</time>
            </trkpt>
            <trkpt lon="101.393139" lat="14.171990">
                <ele>187.300000</ele>
                <time>1970-01-01T02:16:54Z</time>
            </trkpt>
            <trkpt lon="101.393121" lat="14.172030">
                <ele>187.700000</ele>
                <time>1970-01-01T02:16:56Z</time>
            </trkpt>
            <trkpt lon="101.393100" lat="14.172053">
                <ele>188.000000</ele>
                <time>1970-01-01T02:16:58Z</time>
            </trkpt>
            <trkpt lon="101.393076" lat="14.172071">
                <ele>188.200000</ele>
                <time>1970-01-01T02:17:00Z</time>
            </trkpt>
            <trkpt lon="101.393045" lat="14.172091">
                <ele>188.600000</ele>
                <time>1970-01-01T02:17:02Z</time>
            </trkpt>
            <trkpt lon="101.393021" lat="14.172109">
                <ele>188.800000</ele>
                <time>1970-01-01T02:17:04Z</time>
            </trkpt>
            <trkpt lon="101.392996" lat="14.172134">
                <ele>189.100000</ele>
                <time>1970-01-01T02:17:07Z</time>
            </trkpt>
            <trkpt lon="101.392969" lat="14.172163">
                <ele>189.400000</ele>
                <time>1970-01-01T02:17:09Z</time>
            </trkpt>
            <trkpt lon="101.392939" lat="14.172194">
                <ele>189.700000</ele>
                <time>1970-01-01T02:17:11Z</time>
            </trkpt>
            <trkpt lon="101.392919" lat="14.172238">
                <ele>189.900000</ele>
                <time>1970-01-01T02:17:13Z</time>
            </trkpt>
            <trkpt lon="101.392924" lat="14.172286">
                <ele>190.100000</ele>
                <time>1970-01-01T02:17:15Z</time>
            </trkpt>
            <trkpt lon="101.392943" lat="14.172326">
                <ele>190.300000</ele>
                <time>1970-01-01T02:17:17Z</time>
            </trkpt>
            <trkpt lon="101.392962" lat="14.172358">
                <ele>190.400000</ele>
                <time>1970-01-01T02:17:19Z</time>
            </trkpt>
            <trkpt lon="101.392970" lat="14.172385">
                <ele>190.600000</ele>
                <time>1970-01-01T02:17:21Z</time>
            </trkpt>
            <trkpt lon="101.392971" lat="14.172418">
                <ele>190.800000</ele>
                <time>1970-01-01T02:17:24Z</time>
            </trkpt>
            <trkpt lon="101.392967" lat="14.172452">
                <ele>191.000000</ele>
                <time>1970-01-01T02:17:27Z</time>
            </trkpt>
            <trkpt lon="101.392964" lat="14.172482">
                <ele>191.200000</ele>
                <time>1970-01-01T02:17:30Z</time>
            </trkpt>
            <trkpt lon="101.392962" lat="14.172518">
                <ele>191.500000</ele>
                <time>1970-01-01T02:17:34Z</time>
            </trkpt>
            <trkpt lon="101.392945" lat="14.172556">
                <ele>191.700000</ele>
                <time>1970-01-01T02:17:36Z</time>
            </trkpt>
            <trkpt lon="101.392916" lat="14.172574">
                <ele>191.900000</ele>
                <time>1970-01-01T02:17:37Z</time>
            </trkpt>
            <trkpt lon="101.392873" lat="14.172586">
                <ele>192.100000</ele>
                <time>1970-01-01T02:17:38Z</time>
            </trkpt>
            <trkpt lon="101.392832" lat="14.172592">
                <ele>192.300000</ele>
                <time>1970-01-01T02:17:39Z</time>
            </trkpt>
            <trkpt lon="101.392804" lat="14.172604">
                <ele>192.400000</ele>
                <time>1970-01-01T02:17:40Z</time>
            </trkpt>
            <trkpt lon="101.392817" lat="14.172639">
                <ele>192.400000</ele>
                <time>1970-01-01T02:17:41Z</time>
            </trkpt>
            <trkpt lon="101.392824" lat="14.172670">
                <ele>192.500000</ele>
                <time>1970-01-01T02:17:42Z</time>
            </trkpt>
            <trkpt lon="101.392818" lat="14.172721">
                <ele>192.500000</ele>
                <time>1970-01-01T02:17:44Z</time>
            </trkpt>
            <trkpt lon="101.392790" lat="14.172752">
                <ele>192.400000</ele>
                <time>1970-01-01T02:17:46Z</time>
            </trkpt>
            <trkpt lon="101.392783" lat="14.172783">
                <ele>192.400000</ele>
                <time>1970-01-01T02:17:48Z</time>
            </trkpt>
            <trkpt lon="101.392801" lat="14.172832">
                <ele>192.300000</ele>
                <time>1970-01-01T02:17:51Z</time>
            </trkpt>
            <trkpt lon="101.392808" lat="14.172866">
                <ele>192.300000</ele>
                <time>1970-01-01T02:17:53Z</time>
            </trkpt>
            <trkpt lon="101.392823" lat="14.172895">
                <ele>192.300000</ele>
                <time>1970-01-01T02:17:55Z</time>
            </trkpt>
            <trkpt lon="101.392829" lat="14.172929">
                <ele>192.400000</ele>
                <time>1970-01-01T02:17:58Z</time>
            </trkpt>
            <trkpt lon="101.392820" lat="14.172970">
                <ele>192.500000</ele>
                <time>1970-01-01T02:18:01Z</time>
            </trkpt>
            <trkpt lon="101.392808" lat="14.172999">
                <ele>192.500000</ele>
                <time>1970-01-01T02:18:03Z</time>
            </trkpt>
            <trkpt lon="101.392794" lat="14.173034">
                <ele>192.600000</ele>
                <time>1970-01-01T02:18:05Z</time>
            </trkpt>
            <trkpt lon="101.392792" lat="14.173075">
                <ele>192.700000</ele>
                <time>1970-01-01T02:18:08Z</time>
            </trkpt>
            <trkpt lon="101.392784" lat="14.173107">
                <ele>192.900000</ele>
                <time>1970-01-01T02:18:10Z</time>
            </trkpt>
            <trkpt lon="101.392766" lat="14.173141">
                <ele>193.100000</ele>
                <time>1970-01-01T02:18:12Z</time>
            </trkpt>
            <trkpt lon="101.392757" lat="14.173170">
                <ele>193.200000</ele>
                <time>1970-01-01T02:18:14Z</time>
            </trkpt>
            <trkpt lon="101.392754" lat="14.173204">
                <ele>193.500000</ele>
                <time>1970-01-01T02:18:16Z</time>
            </trkpt>
            <trkpt lon="101.392749" lat="14.173234">
                <ele>193.800000</ele>
                <time>1970-01-01T02:18:18Z</time>
            </trkpt>
            <trkpt lon="101.392746" lat="14.173269">
                <ele>194.200000</ele>
                <time>1970-01-01T02:18:21Z</time>
            </trkpt>
            <trkpt lon="101.392755" lat="14.173304">
                <ele>194.600000</ele>
                <time>1970-01-01T02:18:24Z</time>
            </trkpt>
            <trkpt lon="101.392763" lat="14.173337">
                <ele>195.000000</ele>
                <time>1970-01-01T02:18:27Z</time>
            </trkpt>
            <trkpt lon="101.392776" lat="14.173362">
                <ele>195.400000</ele>
                <time>1970-01-01T02:18:29Z</time>
            </trkpt>
            <trkpt lon="101.392790" lat="14.173404">
                <ele>195.900000</ele>
                <time>1970-01-01T02:18:31Z</time>
            </trkpt>
            <trkpt lon="101.392797" lat="14.173437">
                <ele>196.300000</ele>
                <time>1970-01-01T02:18:33Z</time>
            </trkpt>
            <trkpt lon="101.392797" lat="14.173470">
                <ele>196.700000</ele>
                <time>1970-01-01T02:18:35Z</time>
            </trkpt>
            <trkpt lon="101.392796" lat="14.173506">
                <ele>197.100000</ele>
                <time>1970-01-01T02:18:37Z</time>
            </trkpt>
            <trkpt lon="101.392799" lat="14.173539">
                <ele>197.600000</ele>
                <time>1970-01-01T02:18:39Z</time>
            </trkpt>
            <trkpt lon="101.392804" lat="14.173576">
                <ele>198.100000</ele>
                <time>1970-01-01T02:18:41Z</time>
            </trkpt>
            <trkpt lon="101.392806" lat="14.173607">
                <ele>198.500000</ele>
                <time>1970-01-01T02:18:43Z</time>
            </trkpt>
            <trkpt lon="101.392796" lat="14.173633">
                <ele>198.800000</ele>
                <time>1970-01-01T02:18:46Z</time>
            </trkpt>
            <trkpt lon="101.392790" lat="14.173663">
                <ele>199.200000</ele>
                <time>1970-01-01T02:18:48Z</time>
            </trkpt>
            <trkpt lon="101.392789" lat="14.173695">
                <ele>199.600000</ele>
                <time>1970-01-01T02:18:51Z</time>
            </trkpt>
            <trkpt lon="101.392785" lat="14.173726">
                <ele>200.100000</ele>
                <time>1970-01-01T02:18:56Z</time>
            </trkpt>
            <trkpt lon="101.392776" lat="14.173758">
                <ele>200.500000</ele>
                <time>1970-01-01T02:19:00Z</time>
            </trkpt>
            <trkpt lon="101.392774" lat="14.173790">
                <ele>200.900000</ele>
                <time>1970-01-01T02:19:04Z</time>
            </trkpt>
            <trkpt lon="101.392778" lat="14.173819">
                <ele>201.200000</ele>
                <time>1970-01-01T02:19:08Z</time>
            </trkpt>
            <trkpt lon="101.392812" lat="14.173830">
                <ele>201.600000</ele>
                <time>1970-01-01T02:19:19Z</time>
            </trkpt>
            <trkpt lon="101.392847" lat="14.173838">
                <ele>202.000000</ele>
                <time>1970-01-01T02:19:21Z</time>
            </trkpt>
            <trkpt lon="101.392887" lat="14.173850">
                <ele>202.500000</ele>
                <time>1970-01-01T02:19:23Z</time>
            </trkpt>
            <trkpt lon="101.392932" lat="14.173865">
                <ele>203.100000</ele>
                <time>1970-01-01T02:19:25Z</time>
            </trkpt>
            <trkpt lon="101.392959" lat="14.173872">
                <ele>203.400000</ele>
                <time>1970-01-01T02:19:26Z</time>
            </trkpt>
            <trkpt lon="101.392987" lat="14.173881">
                <ele>203.700000</ele>
                <time>1970-01-01T02:19:27Z</time>
            </trkpt>
            <trkpt lon="101.393014" lat="14.173893">
                <ele>204.000000</ele>
                <time>1970-01-01T02:19:28Z</time>
            </trkpt>
            <trkpt lon="101.393053" lat="14.173916">
                <ele>204.400000</ele>
                <time>1970-01-01T02:19:30Z</time>
            </trkpt>
            <trkpt lon="101.393085" lat="14.173937">
                <ele>204.700000</ele>
                <time>1970-01-01T02:19:32Z</time>
            </trkpt>
            <trkpt lon="101.393118" lat="14.173960">
                <ele>204.800000</ele>
                <time>1970-01-01T02:19:34Z</time>
            </trkpt>
            <trkpt lon="101.393164" lat="14.173999">
                <ele>205.000000</ele>
                <time>1970-01-01T02:19:36Z</time>
            </trkpt>
            <trkpt lon="101.393191" lat="14.174026">
                <ele>205.200000</ele>
                <time>1970-01-01T02:19:37Z</time>
            </trkpt>
            <trkpt lon="101.393218" lat="14.174054">
                <ele>205.400000</ele>
                <time>1970-01-01T02:19:38Z</time>
            </trkpt>
            <trkpt lon="101.393242" lat="14.174077">
                <ele>205.400000</ele>
                <time>1970-01-01T02:19:39Z</time>
            </trkpt>
            <trkpt lon="101.393264" lat="14.174097">
                <ele>205.500000</ele>
                <time>1970-01-01T02:19:40Z</time>
            </trkpt>
            <trkpt lon="101.393284" lat="14.174122">
                <ele>205.600000</ele>
                <time>1970-01-01T02:19:41Z</time>
            </trkpt>
            <trkpt lon="101.393298" lat="14.174148">
                <ele>205.700000</ele>
                <time>1970-01-01T02:19:42Z</time>
            </trkpt>
            <trkpt lon="101.393308" lat="14.174174">
                <ele>205.800000</ele>
                <time>1970-01-01T02:19:43Z</time>
            </trkpt>
            <trkpt lon="101.393327" lat="14.174216">
                <ele>205.900000</ele>
                <time>1970-01-01T02:19:45Z</time>
            </trkpt>
            <trkpt lon="101.393343" lat="14.174248">
                <ele>206.000000</ele>
                <time>1970-01-01T02:19:47Z</time>
            </trkpt>
            <trkpt lon="101.393356" lat="14.174275">
                <ele>206.200000</ele>
                <time>1970-01-01T02:19:49Z</time>
            </trkpt>
            <trkpt lon="101.393378" lat="14.174302">
                <ele>206.400000</ele>
                <time>1970-01-01T02:19:51Z</time>
            </trkpt>
            <trkpt lon="101.393390" lat="14.174342">
                <ele>206.800000</ele>
                <time>1970-01-01T02:20:22Z</time>
            </trkpt>
            <trkpt lon="101.393385" lat="14.174371">
                <ele>207.000000</ele>
                <time>1970-01-01T02:20:52Z</time>
            </trkpt>
            <trkpt lon="101.393383" lat="14.174403">
                <ele>207.400000</ele>
                <time>1970-01-01T02:20:56Z</time>
            </trkpt>
            <trkpt lon="101.393384" lat="14.174436">
                <ele>207.700000</ele>
                <time>1970-01-01T02:20:59Z</time>
            </trkpt>
            <trkpt lon="101.393382" lat="14.174466">
                <ele>208.000000</ele>
                <time>1970-01-01T02:21:02Z</time>
            </trkpt>
            <trkpt lon="101.393380" lat="14.174502">
                <ele>208.300000</ele>
                <time>1970-01-01T02:21:06Z</time>
            </trkpt>
            <trkpt lon="101.393365" lat="14.174528">
                <ele>208.500000</ele>
                <time>1970-01-01T02:21:09Z</time>
            </trkpt>
            <trkpt lon="101.393355" lat="14.174556">
                <ele>208.700000</ele>
                <time>1970-01-01T02:21:12Z</time>
            </trkpt>
            <trkpt lon="101.393343" lat="14.174582">
                <ele>208.900000</ele>
                <time>1970-01-01T02:21:16Z</time>
            </trkpt>
            <trkpt lon="101.393340" lat="14.174618">
                <ele>209.100000</ele>
                <time>1970-01-01T02:21:19Z</time>
            </trkpt>
            <trkpt lon="101.393340" lat="14.174651">
                <ele>209.300000</ele>
                <time>1970-01-01T02:21:22Z</time>
            </trkpt>
            <trkpt lon="101.393328" lat="14.174680">
                <ele>209.500000</ele>
                <time>1970-01-01T02:21:26Z</time>
            </trkpt>
            <trkpt lon="101.393318" lat="14.174708">
                <ele>209.700000</ele>
                <time>1970-01-01T02:21:30Z</time>
            </trkpt>
            <trkpt lon="101.393312" lat="14.174736">
                <ele>209.900000</ele>
                <time>1970-01-01T02:21:34Z</time>
            </trkpt>
            <trkpt lon="101.393310" lat="14.174767">
                <ele>210.300000</ele>
                <time>1970-01-01T02:21:37Z</time>
            </trkpt>
            <trkpt lon="101.393312" lat="14.174796">
                <ele>210.700000</ele>
                <time>1970-01-01T02:21:40Z</time>
            </trkpt>
            <trkpt lon="101.393327" lat="14.174820">
                <ele>211.100000</ele>
                <time>1970-01-01T02:21:43Z</time>
            </trkpt>
            <trkpt lon="101.393334" lat="14.174848">
                <ele>211.600000</ele>
                <time>1970-01-01T02:21:46Z</time>
            </trkpt>
            <trkpt lon="101.393333" lat="14.174879">
                <ele>212.100000</ele>
                <time>1970-01-01T02:21:57Z</time>
            </trkpt>
            <trkpt lon="101.393344" lat="14.174913">
                <ele>212.700000</ele>
                <time>1970-01-01T02:22:01Z</time>
            </trkpt>
            <trkpt lon="101.393344" lat="14.174946">
                <ele>213.200000</ele>
                <time>1970-01-01T02:22:04Z</time>
            </trkpt>
            <trkpt lon="101.393338" lat="14.174986">
                <ele>214.000000</ele>
                <time>1970-01-01T02:22:07Z</time>
            </trkpt>
            <trkpt lon="101.393333" lat="14.175018">
                <ele>214.600000</ele>
                <time>1970-01-01T02:22:09Z</time>
            </trkpt>
            <trkpt lon="101.393322" lat="14.175046">
                <ele>215.100000</ele>
                <time>1970-01-01T02:22:11Z</time>
            </trkpt>
            <trkpt lon="101.393311" lat="14.175077">
                <ele>215.700000</ele>
                <time>1970-01-01T02:22:14Z</time>
            </trkpt>
            <trkpt lon="101.393316" lat="14.175109">
                <ele>216.200000</ele>
                <time>1970-01-01T02:22:16Z</time>
            </trkpt>
            <trkpt lon="101.393320" lat="14.175144">
                <ele>216.700000</ele>
                <time>1970-01-01T02:22:18Z</time>
            </trkpt>
            <trkpt lon="101.393325" lat="14.175176">
                <ele>217.000000</ele>
                <time>1970-01-01T02:22:20Z</time>
            </trkpt>
            <trkpt lon="101.393334" lat="14.175216">
                <ele>217.500000</ele>
                <time>1970-01-01T02:22:22Z</time>
            </trkpt>
            <trkpt lon="101.393341" lat="14.175246">
                <ele>217.800000</ele>
                <time>1970-01-01T02:22:23Z</time>
            </trkpt>
            <trkpt lon="101.393348" lat="14.175301">
                <ele>218.300000</ele>
                <time>1970-01-01T02:22:25Z</time>
            </trkpt>
            <trkpt lon="101.393346" lat="14.175345">
                <ele>218.700000</ele>
                <time>1970-01-01T02:22:27Z</time>
            </trkpt>
            <trkpt lon="101.393337" lat="14.175377">
                <ele>219.000000</ele>
                <time>1970-01-01T02:22:29Z</time>
            </trkpt>
            <trkpt lon="101.393331" lat="14.175426">
                <ele>219.300000</ele>
                <time>1970-01-01T02:22:31Z</time>
            </trkpt>
            <trkpt lon="101.393325" lat="14.175455">
                <ele>219.500000</ele>
                <time>1970-01-01T02:22:32Z</time>
            </trkpt>
            <trkpt lon="101.393315" lat="14.175497">
                <ele>219.700000</ele>
                <time>1970-01-01T02:22:34Z</time>
            </trkpt>
            <trkpt lon="101.393315" lat="14.175527">
                <ele>219.900000</ele>
                <time>1970-01-01T02:22:36Z</time>
            </trkpt>
            <trkpt lon="101.393317" lat="14.175562">
                <ele>220.200000</ele>
                <time>1970-01-01T02:22:38Z</time>
            </trkpt>
            <trkpt lon="101.393316" lat="14.175606">
                <ele>220.500000</ele>
                <time>1970-01-01T02:22:41Z</time>
            </trkpt>
            <trkpt lon="101.393321" lat="14.175639">
                <ele>220.700000</ele>
                <time>1970-01-01T02:22:44Z</time>
            </trkpt>
            <trkpt lon="101.393323" lat="14.175674">
                <ele>221.000000</ele>
                <time>1970-01-01T02:22:46Z</time>
            </trkpt>
            <trkpt lon="101.393324" lat="14.175714">
                <ele>221.400000</ele>
                <time>1970-01-01T02:22:48Z</time>
            </trkpt>
            <trkpt lon="101.393335" lat="14.175746">
                <ele>221.600000</ele>
                <time>1970-01-01T02:22:50Z</time>
            </trkpt>
            <trkpt lon="101.393348" lat="14.175782">
                <ele>222.000000</ele>
                <time>1970-01-01T02:22:53Z</time>
            </trkpt>
            <trkpt lon="101.393359" lat="14.175822">
                <ele>222.300000</ele>
                <time>1970-01-01T02:22:56Z</time>
            </trkpt>
            <trkpt lon="101.393369" lat="14.175852">
                <ele>222.600000</ele>
                <time>1970-01-01T02:22:59Z</time>
            </trkpt>
            <trkpt lon="101.393388" lat="14.175879">
                <ele>222.900000</ele>
                <time>1970-01-01T02:23:03Z</time>
            </trkpt>
            <trkpt lon="101.393408" lat="14.175905">
                <ele>223.200000</ele>
                <time>1970-01-01T02:23:07Z</time>
            </trkpt>
            <trkpt lon="101.393412" lat="14.175933">
                <ele>223.400000</ele>
                <time>1970-01-01T02:23:12Z</time>
            </trkpt>
            <trkpt lon="101.393429" lat="14.175955">
                <ele>223.600000</ele>
                <time>1970-01-01T02:23:16Z</time>
            </trkpt>
            <trkpt lon="101.393433" lat="14.175986">
                <ele>223.900000</ele>
                <time>1970-01-01T02:23:21Z</time>
            </trkpt>
            <trkpt lon="101.393460" lat="14.175998">
                <ele>224.200000</ele>
                <time>1970-01-01T02:23:25Z</time>
            </trkpt>
            <trkpt lon="101.393474" lat="14.176023">
                <ele>224.600000</ele>
                <time>1970-01-01T02:23:31Z</time>
            </trkpt>
            <trkpt lon="101.393473" lat="14.176055">
                <ele>225.100000</ele>
                <time>1970-01-01T02:23:35Z</time>
            </trkpt>
            <trkpt lon="101.393488" lat="14.176081">
                <ele>225.600000</ele>
                <time>1970-01-01T02:23:40Z</time>
            </trkpt>
            <trkpt lon="101.393502" lat="14.176113">
                <ele>226.000000</ele>
                <time>1970-01-01T02:23:43Z</time>
            </trkpt>
            <trkpt lon="101.393514" lat="14.176140">
                <ele>226.300000</ele>
                <time>1970-01-01T02:23:46Z</time>
            </trkpt>
            <trkpt lon="101.393531" lat="14.176170">
                <ele>226.600000</ele>
                <time>1970-01-01T02:23:50Z</time>
            </trkpt>
            <trkpt lon="101.393545" lat="14.176199">
                <ele>226.800000</ele>
                <time>1970-01-01T02:23:53Z</time>
            </trkpt>
            <trkpt lon="101.393555" lat="14.176226">
                <ele>227.100000</ele>
                <time>1970-01-01T02:23:56Z</time>
            </trkpt>
            <trkpt lon="101.393572" lat="14.176251">
                <ele>227.300000</ele>
                <time>1970-01-01T02:23:58Z</time>
            </trkpt>
            <trkpt lon="101.393591" lat="14.176279">
                <ele>227.600000</ele>
                <time>1970-01-01T02:24:01Z</time>
            </trkpt>
            <trkpt lon="101.393603" lat="14.176313">
                <ele>227.900000</ele>
                <time>1970-01-01T02:24:04Z</time>
            </trkpt>
            <trkpt lon="101.393606" lat="14.176342">
                <ele>228.400000</ele>
                <time>1970-01-01T02:24:07Z</time>
            </trkpt>
            <trkpt lon="101.393631" lat="14.176367">
                <ele>229.100000</ele>
                <time>1970-01-01T02:24:11Z</time>
            </trkpt>
            <trkpt lon="101.393652" lat="14.176395">
                <ele>229.600000</ele>
                <time>1970-01-01T02:24:14Z</time>
            </trkpt>
            <trkpt lon="101.393664" lat="14.176425">
                <ele>230.100000</ele>
                <time>1970-01-01T02:24:17Z</time>
            </trkpt>
            <trkpt lon="101.393665" lat="14.176465">
                <ele>230.600000</ele>
                <time>1970-01-01T02:24:20Z</time>
            </trkpt>
            <trkpt lon="101.393681" lat="14.176499">
                <ele>231.100000</ele>
                <time>1970-01-01T02:24:23Z</time>
            </trkpt>
            <trkpt lon="101.393697" lat="14.176535">
                <ele>231.500000</ele>
                <time>1970-01-01T02:24:26Z</time>
            </trkpt>
            <trkpt lon="101.393712" lat="14.176568">
                <ele>231.900000</ele>
                <time>1970-01-01T02:24:29Z</time>
            </trkpt>
            <trkpt lon="101.393727" lat="14.176603">
                <ele>232.200000</ele>
                <time>1970-01-01T02:24:32Z</time>
            </trkpt>
            <trkpt lon="101.393729" lat="14.176641">
                <ele>232.600000</ele>
                <time>1970-01-01T02:24:35Z</time>
            </trkpt>
            <trkpt lon="101.393732" lat="14.176673">
                <ele>232.900000</ele>
                <time>1970-01-01T02:24:38Z</time>
            </trkpt>
            <trkpt lon="101.393734" lat="14.176701">
                <ele>233.100000</ele>
                <time>1970-01-01T02:24:40Z</time>
            </trkpt>
            <trkpt lon="101.393735" lat="14.176735">
                <ele>233.600000</ele>
                <time>1970-01-01T02:24:43Z</time>
            </trkpt>
            <trkpt lon="101.393729" lat="14.176772">
                <ele>234.000000</ele>
                <time>1970-01-01T02:24:46Z</time>
            </trkpt>
            <trkpt lon="101.393734" lat="14.176807">
                <ele>234.200000</ele>
                <time>1970-01-01T02:24:49Z</time>
            </trkpt>
            <trkpt lon="101.393732" lat="14.176835">
                <ele>234.400000</ele>
                <time>1970-01-01T02:24:52Z</time>
            </trkpt>
            <trkpt lon="101.393729" lat="14.176868">
                <ele>234.700000</ele>
                <time>1970-01-01T02:24:55Z</time>
            </trkpt>
            <trkpt lon="101.393730" lat="14.176898">
                <ele>234.900000</ele>
                <time>1970-01-01T02:24:57Z</time>
            </trkpt>
            <trkpt lon="101.393734" lat="14.176930">
                <ele>235.100000</ele>
                <time>1970-01-01T02:25:00Z</time>
            </trkpt>
            <trkpt lon="101.393741" lat="14.176961">
                <ele>235.400000</ele>
                <time>1970-01-01T02:25:03Z</time>
            </trkpt>
            <trkpt lon="101.393752" lat="14.176988">
                <ele>235.700000</ele>
                <time>1970-01-01T02:25:06Z</time>
            </trkpt>
            <trkpt lon="101.393763" lat="14.177019">
                <ele>236.000000</ele>
                <time>1970-01-01T02:25:09Z</time>
            </trkpt>
            <trkpt lon="101.393768" lat="14.177051">
                <ele>236.300000</ele>
                <time>1970-01-01T02:25:12Z</time>
            </trkpt>
            <trkpt lon="101.393765" lat="14.177085">
                <ele>236.700000</ele>
                <time>1970-01-01T02:25:15Z</time>
            </trkpt>
            <trkpt lon="101.393750" lat="14.177113">
                <ele>237.000000</ele>
                <time>1970-01-01T02:25:20Z</time>
            </trkpt>
            <trkpt lon="101.393746" lat="14.177153">
                <ele>237.300000</ele>
                <time>1970-01-01T02:25:24Z</time>
            </trkpt>
            <trkpt lon="101.393744" lat="14.177181">
                <ele>237.500000</ele>
                <time>1970-01-01T02:25:26Z</time>
            </trkpt>
            <trkpt lon="101.393744" lat="14.177210">
                <ele>237.800000</ele>
                <time>1970-01-01T02:25:29Z</time>
            </trkpt>
            <trkpt lon="101.393747" lat="14.177239">
                <ele>238.000000</ele>
                <time>1970-01-01T02:25:33Z</time>
            </trkpt>
            <trkpt lon="101.393750" lat="14.177272">
                <ele>238.200000</ele>
                <time>1970-01-01T02:25:36Z</time>
            </trkpt>
            <trkpt lon="101.393766" lat="14.177305">
                <ele>238.600000</ele>
                <time>1970-01-01T02:25:39Z</time>
            </trkpt>
            <trkpt lon="101.393785" lat="14.177341">
                <ele>239.100000</ele>
                <time>1970-01-01T02:25:42Z</time>
            </trkpt>
            <trkpt lon="101.393805" lat="14.177365">
                <ele>239.400000</ele>
                <time>1970-01-01T02:25:44Z</time>
            </trkpt>
            <trkpt lon="101.393821" lat="14.177397">
                <ele>239.700000</ele>
                <time>1970-01-01T02:25:47Z</time>
            </trkpt>
            <trkpt lon="101.393838" lat="14.177434">
                <ele>240.000000</ele>
                <time>1970-01-01T02:25:49Z</time>
            </trkpt>
            <trkpt lon="101.393848" lat="14.177466">
                <ele>240.300000</ele>
                <time>1970-01-01T02:25:51Z</time>
            </trkpt>
            <trkpt lon="101.393855" lat="14.177500">
                <ele>240.600000</ele>
                <time>1970-01-01T02:25:53Z</time>
            </trkpt>
            <trkpt lon="101.393867" lat="14.177534">
                <ele>240.800000</ele>
                <time>1970-01-01T02:25:55Z</time>
            </trkpt>
            <trkpt lon="101.393880" lat="14.177575">
                <ele>241.500000</ele>
                <time>1970-01-01T02:25:57Z</time>
            </trkpt>
            <trkpt lon="101.393885" lat="14.177604">
                <ele>241.900000</ele>
                <time>1970-01-01T02:25:59Z</time>
            </trkpt>
            <trkpt lon="101.393873" lat="14.177638">
                <ele>242.400000</ele>
                <time>1970-01-01T02:26:01Z</time>
            </trkpt>
            <trkpt lon="101.393856" lat="14.177669">
                <ele>242.600000</ele>
                <time>1970-01-01T02:26:03Z</time>
            </trkpt>
            <trkpt lon="101.393829" lat="14.177699">
                <ele>242.900000</ele>
                <time>1970-01-01T02:26:05Z</time>
            </trkpt>
            <trkpt lon="101.393794" lat="14.177721">
                <ele>243.100000</ele>
                <time>1970-01-01T02:26:07Z</time>
            </trkpt>
            <trkpt lon="101.393759" lat="14.177739">
                <ele>243.300000</ele>
                <time>1970-01-01T02:26:09Z</time>
            </trkpt>
            <trkpt lon="101.393724" lat="14.177753">
                <ele>243.600000</ele>
                <time>1970-01-01T02:26:11Z</time>
            </trkpt>
            <trkpt lon="101.393687" lat="14.177766">
                <ele>243.800000</ele>
                <time>1970-01-01T02:26:13Z</time>
            </trkpt>
            <trkpt lon="101.393656" lat="14.177775">
                <ele>244.000000</ele>
                <time>1970-01-01T02:26:15Z</time>
            </trkpt>
            <trkpt lon="101.393620" lat="14.177790">
                <ele>244.200000</ele>
                <time>1970-01-01T02:26:17Z</time>
            </trkpt>
            <trkpt lon="101.393590" lat="14.177808">
                <ele>244.300000</ele>
                <time>1970-01-01T02:26:19Z</time>
            </trkpt>
            <trkpt lon="101.393575" lat="14.177835">
                <ele>244.500000</ele>
                <time>1970-01-01T02:26:21Z</time>
            </trkpt>
            <trkpt lon="101.393555" lat="14.177865">
                <ele>244.700000</ele>
                <time>1970-01-01T02:26:23Z</time>
            </trkpt>
            <trkpt lon="101.393527" lat="14.177881">
                <ele>244.900000</ele>
                <time>1970-01-01T02:26:25Z</time>
            </trkpt>
            <trkpt lon="101.393485" lat="14.177890">
                <ele>245.100000</ele>
                <time>1970-01-01T02:26:27Z</time>
            </trkpt>
            <trkpt lon="101.393447" lat="14.177900">
                <ele>245.400000</ele>
                <time>1970-01-01T02:26:29Z</time>
            </trkpt>
            <trkpt lon="101.393418" lat="14.177914">
                <ele>245.600000</ele>
                <time>1970-01-01T02:26:31Z</time>
            </trkpt>
            <trkpt lon="101.393385" lat="14.177930">
                <ele>245.900000</ele>
                <time>1970-01-01T02:26:33Z</time>
            </trkpt>
            <trkpt lon="101.393349" lat="14.177951">
                <ele>246.200000</ele>
                <time>1970-01-01T02:26:35Z</time>
            </trkpt>
            <trkpt lon="101.393319" lat="14.177978">
                <ele>246.500000</ele>
                <time>1970-01-01T02:26:37Z</time>
            </trkpt>
            <trkpt lon="101.393282" lat="14.178006">
                <ele>246.900000</ele>
                <time>1970-01-01T02:26:39Z</time>
            </trkpt>
            <trkpt lon="101.393254" lat="14.178025">
                <ele>247.100000</ele>
                <time>1970-01-01T02:26:41Z</time>
            </trkpt>
            <trkpt lon="101.393218" lat="14.178040">
                <ele>247.400000</ele>
                <time>1970-01-01T02:26:43Z</time>
            </trkpt>
            <trkpt lon="101.393180" lat="14.178052">
                <ele>247.600000</ele>
                <time>1970-01-01T02:26:45Z</time>
            </trkpt>
            <trkpt lon="101.393148" lat="14.178076">
                <ele>247.900000</ele>
                <time>1970-01-01T02:26:47Z</time>
            </trkpt>
            <trkpt lon="101.393125" lat="14.178112">
                <ele>248.200000</ele>
                <time>1970-01-01T02:26:49Z</time>
            </trkpt>
            <trkpt lon="101.393104" lat="14.178146">
                <ele>248.400000</ele>
                <time>1970-01-01T02:26:51Z</time>
            </trkpt>
            <trkpt lon="101.393088" lat="14.178186">
                <ele>248.800000</ele>
                <time>1970-01-01T02:26:53Z</time>
            </trkpt>
            <trkpt lon="101.393084" lat="14.178222">
                <ele>249.000000</ele>
                <time>1970-01-01T02:26:55Z</time>
            </trkpt>
            <trkpt lon="101.393078" lat="14.178263">
                <ele>249.300000</ele>
                <time>1970-01-01T02:26:57Z</time>
            </trkpt>
            <trkpt lon="101.393068" lat="14.178294">
                <ele>249.500000</ele>
                <time>1970-01-01T02:26:59Z</time>
            </trkpt>
            <trkpt lon="101.393056" lat="14.178336">
                <ele>249.900000</ele>
                <time>1970-01-01T02:27:01Z</time>
            </trkpt>
            <trkpt lon="101.393051" lat="14.178371">
                <ele>250.000000</ele>
                <time>1970-01-01T02:27:03Z</time>
            </trkpt>
            <trkpt lon="101.393047" lat="14.178401">
                <ele>250.100000</ele>
                <time>1970-01-01T02:27:05Z</time>
            </trkpt>
            <trkpt lon="101.393043" lat="14.178441">
                <ele>250.300000</ele>
                <time>1970-01-01T02:27:08Z</time>
            </trkpt>
            <trkpt lon="101.393032" lat="14.178472">
                <ele>250.400000</ele>
                <time>1970-01-01T02:27:10Z</time>
            </trkpt>
            <trkpt lon="101.393021" lat="14.178501">
                <ele>250.500000</ele>
                <time>1970-01-01T02:27:12Z</time>
            </trkpt>
            <trkpt lon="101.393013" lat="14.178533">
                <ele>250.600000</ele>
                <time>1970-01-01T02:27:14Z</time>
            </trkpt>
            <trkpt lon="101.393006" lat="14.178563">
                <ele>250.700000</ele>
                <time>1970-01-01T02:27:16Z</time>
            </trkpt>
            <trkpt lon="101.393002" lat="14.178601">
                <ele>250.800000</ele>
                <time>1970-01-01T02:27:19Z</time>
            </trkpt>
            <trkpt lon="101.392993" lat="14.178634">
                <ele>251.000000</ele>
                <time>1970-01-01T02:27:21Z</time>
            </trkpt>
            <trkpt lon="101.392993" lat="14.178666">
                <ele>251.200000</ele>
                <time>1970-01-01T02:27:23Z</time>
            </trkpt>
            <trkpt lon="101.392991" lat="14.178710">
                <ele>251.400000</ele>
                <time>1970-01-01T02:27:26Z</time>
            </trkpt>
            <trkpt lon="101.392989" lat="14.178740">
                <ele>251.500000</ele>
                <time>1970-01-01T02:27:28Z</time>
            </trkpt>
            <trkpt lon="101.392976" lat="14.178782">
                <ele>251.700000</ele>
                <time>1970-01-01T02:27:31Z</time>
            </trkpt>
            <trkpt lon="101.392967" lat="14.178808">
                <ele>252.000000</ele>
                <time>1970-01-01T02:27:33Z</time>
            </trkpt>
            <trkpt lon="101.392950" lat="14.178830">
                <ele>252.200000</ele>
                <time>1970-01-01T02:27:38Z</time>
            </trkpt>
            <trkpt lon="101.392931" lat="14.178851">
                <ele>252.500000</ele>
                <time>1970-01-01T02:27:42Z</time>
            </trkpt>
            <trkpt lon="101.392911" lat="14.178882">
                <ele>252.700000</ele>
                <time>1970-01-01T02:27:45Z</time>
            </trkpt>
            <trkpt lon="101.392907" lat="14.178910">
                <ele>253.000000</ele>
                <time>1970-01-01T02:27:49Z</time>
            </trkpt>
            <trkpt lon="101.392905" lat="14.178939">
                <ele>253.200000</ele>
                <time>1970-01-01T02:27:54Z</time>
            </trkpt>
            <trkpt lon="101.392904" lat="14.178967">
                <ele>253.400000</ele>
                <time>1970-01-01T02:27:58Z</time>
            </trkpt>
            <trkpt lon="101.392896" lat="14.178994">
                <ele>253.700000</ele>
                <time>1970-01-01T02:28:01Z</time>
            </trkpt>
            <trkpt lon="101.392880" lat="14.179021">
                <ele>254.100000</ele>
                <time>1970-01-01T02:28:04Z</time>
            </trkpt>
            <trkpt lon="101.392860" lat="14.179056">
                <ele>254.500000</ele>
                <time>1970-01-01T02:28:08Z</time>
            </trkpt>
            <trkpt lon="101.392841" lat="14.179088">
                <ele>254.900000</ele>
                <time>1970-01-01T02:28:11Z</time>
            </trkpt>
            <trkpt lon="101.392821" lat="14.179108">
                <ele>255.200000</ele>
                <time>1970-01-01T02:28:14Z</time>
            </trkpt>
            <trkpt lon="101.392799" lat="14.179136">
                <ele>255.700000</ele>
                <time>1970-01-01T02:28:17Z</time>
            </trkpt>
            <trkpt lon="101.392767" lat="14.179138">
                <ele>256.100000</ele>
                <time>1970-01-01T02:28:21Z</time>
            </trkpt>
            <trkpt lon="101.392740" lat="14.179151">
                <ele>256.500000</ele>
                <time>1970-01-01T02:28:26Z</time>
            </trkpt>
            <trkpt lon="101.392715" lat="14.179163">
                <ele>256.900000</ele>
                <time>1970-01-01T02:28:32Z</time>
            </trkpt>
            <trkpt lon="101.392698" lat="14.179190">
                <ele>257.400000</ele>
                <time>1970-01-01T02:28:38Z</time>
            </trkpt>
            <trkpt lon="101.392678" lat="14.179216">
                <ele>257.900000</ele>
                <time>1970-01-01T02:28:44Z</time>
            </trkpt>
            <trkpt lon="101.392670" lat="14.179248">
                <ele>258.400000</ele>
                <time>1970-01-01T02:28:49Z</time>
            </trkpt>
            <trkpt lon="101.392646" lat="14.179277">
                <ele>259.000000</ele>
                <time>1970-01-01T02:28:53Z</time>
            </trkpt>
            <trkpt lon="101.392632" lat="14.179307">
                <ele>259.400000</ele>
                <time>1970-01-01T02:28:57Z</time>
            </trkpt>
            <trkpt lon="101.392601" lat="14.179324">
                <ele>259.900000</ele>
                <time>1970-01-01T02:29:02Z</time>
            </trkpt>
            <trkpt lon="101.392590" lat="14.179350">
                <ele>260.300000</ele>
                <time>1970-01-01T02:29:05Z</time>
            </trkpt>
            <trkpt lon="101.392586" lat="14.179382">
                <ele>260.900000</ele>
                <time>1970-01-01T02:29:08Z</time>
            </trkpt>
            <trkpt lon="101.392570" lat="14.179414">
                <ele>261.500000</ele>
                <time>1970-01-01T02:29:12Z</time>
            </trkpt>
            <trkpt lon="101.392556" lat="14.179438">
                <ele>262.000000</ele>
                <time>1970-01-01T02:29:16Z</time>
            </trkpt>
            <trkpt lon="101.392544" lat="14.179469">
                <ele>262.600000</ele>
                <time>1970-01-01T02:29:23Z</time>
            </trkpt>
            <trkpt lon="101.392522" lat="14.179497">
                <ele>263.200000</ele>
                <time>1970-01-01T02:29:28Z</time>
            </trkpt>
            <trkpt lon="101.392509" lat="14.179524">
                <ele>263.700000</ele>
                <time>1970-01-01T02:29:31Z</time>
            </trkpt>
            <trkpt lon="101.392505" lat="14.179553">
                <ele>264.100000</ele>
                <time>1970-01-01T02:29:34Z</time>
            </trkpt>
            <trkpt lon="101.392487" lat="14.179575">
                <ele>264.400000</ele>
                <time>1970-01-01T02:29:38Z</time>
            </trkpt>
            <trkpt lon="101.392472" lat="14.179599">
                <ele>264.800000</ele>
                <time>1970-01-01T02:29:42Z</time>
            </trkpt>
            <trkpt lon="101.392462" lat="14.179625">
                <ele>265.200000</ele>
                <time>1970-01-01T02:29:46Z</time>
            </trkpt>
            <trkpt lon="101.392453" lat="14.179654">
                <ele>265.700000</ele>
                <time>1970-01-01T02:29:50Z</time>
            </trkpt>
            <trkpt lon="101.392434" lat="14.179683">
                <ele>266.400000</ele>
                <time>1970-01-01T02:29:55Z</time>
            </trkpt>
            <trkpt lon="101.392413" lat="14.179706">
                <ele>267.100000</ele>
                <time>1970-01-01T02:29:59Z</time>
            </trkpt>
            <trkpt lon="101.392384" lat="14.179719">
                <ele>267.700000</ele>
                <time>1970-01-01T02:30:02Z</time>
            </trkpt>
            <trkpt lon="101.392376" lat="14.179749">
                <ele>268.400000</ele>
                <time>1970-01-01T02:30:05Z</time>
            </trkpt>
            <trkpt lon="101.392362" lat="14.179778">
                <ele>269.200000</ele>
                <time>1970-01-01T02:30:08Z</time>
            </trkpt>
            <trkpt lon="101.392343" lat="14.179801">
                <ele>269.800000</ele>
                <time>1970-01-01T02:30:10Z</time>
            </trkpt>
            <trkpt lon="101.392326" lat="14.179827">
                <ele>270.400000</ele>
                <time>1970-01-01T02:30:13Z</time>
            </trkpt>
            <trkpt lon="101.392319" lat="14.179862">
                <ele>271.000000</ele>
                <time>1970-01-01T02:30:18Z</time>
            </trkpt>
            <trkpt lon="101.392303" lat="14.179887">
                <ele>271.600000</ele>
                <time>1970-01-01T02:30:21Z</time>
            </trkpt>
            <trkpt lon="101.392283" lat="14.179909">
                <ele>272.100000</ele>
                <time>1970-01-01T02:30:24Z</time>
            </trkpt>
            <trkpt lon="101.392263" lat="14.179930">
                <ele>272.800000</ele>
                <time>1970-01-01T02:30:27Z</time>
            </trkpt>
            <trkpt lon="101.392248" lat="14.179965">
                <ele>273.600000</ele>
                <time>1970-01-01T02:30:30Z</time>
            </trkpt>
            <trkpt lon="101.392233" lat="14.179990">
                <ele>274.200000</ele>
                <time>1970-01-01T02:30:34Z</time>
            </trkpt>
            <trkpt lon="101.392183" lat="14.179985">
                <ele>275.100000</ele>
                <time>1970-01-01T02:30:54Z</time>
            </trkpt>
            <trkpt lon="101.392174" lat="14.180014">
                <ele>275.400000</ele>
                <time>1970-01-01T02:32:12Z</time>
            </trkpt>
            <trkpt lon="101.392149" lat="14.180039">
                <ele>275.800000</ele>
                <time>1970-01-01T02:32:16Z</time>
            </trkpt>
            <trkpt lon="101.392126" lat="14.180068">
                <ele>276.200000</ele>
                <time>1970-01-01T02:32:20Z</time>
            </trkpt>
            <trkpt lon="101.392103" lat="14.180086">
                <ele>276.500000</ele>
                <time>1970-01-01T02:32:23Z</time>
            </trkpt>
            <trkpt lon="101.392079" lat="14.180113">
                <ele>276.900000</ele>
                <time>1970-01-01T02:32:26Z</time>
            </trkpt>
            <trkpt lon="101.392060" lat="14.180140">
                <ele>277.200000</ele>
                <time>1970-01-01T02:32:30Z</time>
            </trkpt>
            <trkpt lon="101.392035" lat="14.180157">
                <ele>277.600000</ele>
                <time>1970-01-01T02:32:33Z</time>
            </trkpt>
            <trkpt lon="101.392018" lat="14.180179">
                <ele>277.900000</ele>
                <time>1970-01-01T02:32:37Z</time>
            </trkpt>
            <trkpt lon="101.391996" lat="14.180198">
                <ele>278.200000</ele>
                <time>1970-01-01T02:32:41Z</time>
            </trkpt>
            <trkpt lon="101.391977" lat="14.180224">
                <ele>278.600000</ele>
                <time>1970-01-01T02:32:46Z</time>
            </trkpt>
            <trkpt lon="101.391958" lat="14.180248">
                <ele>279.000000</ele>
                <time>1970-01-01T02:32:50Z</time>
            </trkpt>
            <trkpt lon="101.391935" lat="14.180268">
                <ele>279.300000</ele>
                <time>1970-01-01T02:32:54Z</time>
            </trkpt>
            <trkpt lon="101.391917" lat="14.180293">
                <ele>279.700000</ele>
                <time>1970-01-01T02:32:58Z</time>
            </trkpt>
            <trkpt lon="101.391903" lat="14.180326">
                <ele>280.200000</ele>
                <time>1970-01-01T02:33:03Z</time>
            </trkpt>
            <trkpt lon="101.391885" lat="14.180349">
                <ele>280.600000</ele>
                <time>1970-01-01T02:33:07Z</time>
            </trkpt>
            <trkpt lon="101.391859" lat="14.180359">
                <ele>280.900000</ele>
                <time>1970-01-01T02:33:12Z</time>
            </trkpt>
            <trkpt lon="101.391834" lat="14.180386">
                <ele>281.400000</ele>
                <time>1970-01-01T02:33:17Z</time>
            </trkpt>
            <trkpt lon="101.391805" lat="14.180401">
                <ele>281.700000</ele>
                <time>1970-01-01T02:33:21Z</time>
            </trkpt>
            <trkpt lon="101.391776" lat="14.180406">
                <ele>282.100000</ele>
                <time>1970-01-01T02:33:25Z</time>
            </trkpt>
            <trkpt lon="101.391743" lat="14.180425">
                <ele>282.500000</ele>
                <time>1970-01-01T02:33:30Z</time>
            </trkpt>
            <trkpt lon="101.391721" lat="14.180453">
                <ele>283.000000</ele>
                <time>1970-01-01T02:33:36Z</time>
            </trkpt>
            <trkpt lon="101.391696" lat="14.180465">
                <ele>283.300000</ele>
                <time>1970-01-01T02:33:41Z</time>
            </trkpt>
            <trkpt lon="101.391660" lat="14.180484">
                <ele>283.800000</ele>
                <time>1970-01-01T02:33:45Z</time>
            </trkpt>
            <trkpt lon="101.391624" lat="14.180506">
                <ele>284.200000</ele>
                <time>1970-01-01T02:33:48Z</time>
            </trkpt>
            <trkpt lon="101.391600" lat="14.180528">
                <ele>284.600000</ele>
                <time>1970-01-01T02:33:50Z</time>
            </trkpt>
            <trkpt lon="101.391573" lat="14.180549">
                <ele>285.300000</ele>
                <time>1970-01-01T02:33:52Z</time>
            </trkpt>
            <trkpt lon="101.391543" lat="14.180569">
                <ele>286.000000</ele>
                <time>1970-01-01T02:33:54Z</time>
            </trkpt>
            <trkpt lon="101.391505" lat="14.180588">
                <ele>286.900000</ele>
                <time>1970-01-01T02:33:56Z</time>
            </trkpt>
            <trkpt lon="101.391469" lat="14.180601">
                <ele>287.700000</ele>
                <time>1970-01-01T02:33:58Z</time>
            </trkpt>
            <trkpt lon="101.391433" lat="14.180609">
                <ele>288.300000</ele>
                <time>1970-01-01T02:34:00Z</time>
            </trkpt>
            <trkpt lon="101.391393" lat="14.180618">
                <ele>289.100000</ele>
                <time>1970-01-01T02:34:03Z</time>
            </trkpt>
            <trkpt lon="101.391356" lat="14.180622">
                <ele>289.800000</ele>
                <time>1970-01-01T02:34:05Z</time>
            </trkpt>
            <trkpt lon="101.391316" lat="14.180618">
                <ele>290.600000</ele>
                <time>1970-01-01T02:34:08Z</time>
            </trkpt>
            <trkpt lon="101.391284" lat="14.180623">
                <ele>291.100000</ele>
                <time>1970-01-01T02:34:10Z</time>
            </trkpt>
            <trkpt lon="101.391257" lat="14.180632">
                <ele>291.400000</ele>
                <time>1970-01-01T02:34:12Z</time>
            </trkpt>
            <trkpt lon="101.391212" lat="14.180644">
                <ele>291.800000</ele>
                <time>1970-01-01T02:34:14Z</time>
            </trkpt>
            <trkpt lon="101.391172" lat="14.180648">
                <ele>292.200000</ele>
                <time>1970-01-01T02:34:16Z</time>
            </trkpt>
            <trkpt lon="101.391146" lat="14.180657">
                <ele>292.400000</ele>
                <time>1970-01-01T02:34:18Z</time>
            </trkpt>
            <trkpt lon="101.391108" lat="14.180676">
                <ele>292.800000</ele>
                <time>1970-01-01T02:34:20Z</time>
            </trkpt>
            <trkpt lon="101.391081" lat="14.180670">
                <ele>293.100000</ele>
                <time>1970-01-01T02:34:27Z</time>
            </trkpt>
            <trkpt lon="101.391053" lat="14.180691">
                <ele>293.500000</ele>
                <time>1970-01-01T02:34:34Z</time>
            </trkpt>
            <trkpt lon="101.391021" lat="14.180697">
                <ele>293.800000</ele>
                <time>1970-01-01T02:34:36Z</time>
            </trkpt>
            <trkpt lon="101.390989" lat="14.180690">
                <ele>294.300000</ele>
                <time>1970-01-01T02:34:38Z</time>
            </trkpt>
            <trkpt lon="101.390959" lat="14.180678">
                <ele>294.700000</ele>
                <time>1970-01-01T02:34:40Z</time>
            </trkpt>
            <trkpt lon="101.390930" lat="14.180679">
                <ele>295.000000</ele>
                <time>1970-01-01T02:34:43Z</time>
            </trkpt>
            <trkpt lon="101.390897" lat="14.180694">
                <ele>295.400000</ele>
                <time>1970-01-01T02:34:46Z</time>
            </trkpt>
            <trkpt lon="101.390874" lat="14.180727">
                <ele>296.000000</ele>
                <time>1970-01-01T02:34:49Z</time>
            </trkpt>
            <trkpt lon="101.390855" lat="14.180752">
                <ele>296.400000</ele>
                <time>1970-01-01T02:34:51Z</time>
            </trkpt>
            <trkpt lon="101.390835" lat="14.180774">
                <ele>296.700000</ele>
                <time>1970-01-01T02:34:53Z</time>
            </trkpt>
            <trkpt lon="101.390812" lat="14.180794">
                <ele>297.000000</ele>
                <time>1970-01-01T02:34:55Z</time>
            </trkpt>
            <trkpt lon="101.390778" lat="14.180816">
                <ele>297.300000</ele>
                <time>1970-01-01T02:34:57Z</time>
            </trkpt>
            <trkpt lon="101.390739" lat="14.180835">
                <ele>297.600000</ele>
                <time>1970-01-01T02:34:59Z</time>
            </trkpt>
            <trkpt lon="101.390696" lat="14.180855">
                <ele>297.900000</ele>
                <time>1970-01-01T02:35:01Z</time>
            </trkpt>
            <trkpt lon="101.390663" lat="14.180886">
                <ele>298.000000</ele>
                <time>1970-01-01T02:35:03Z</time>
            </trkpt>
            <trkpt lon="101.390637" lat="14.180915">
                <ele>298.200000</ele>
                <time>1970-01-01T02:35:05Z</time>
            </trkpt>
            <trkpt lon="101.390596" lat="14.180938">
                <ele>298.400000</ele>
                <time>1970-01-01T02:35:07Z</time>
            </trkpt>
            <trkpt lon="101.390570" lat="14.180948">
                <ele>298.500000</ele>
                <time>1970-01-01T02:35:08Z</time>
            </trkpt>
            <trkpt lon="101.390527" lat="14.180969">
                <ele>298.700000</ele>
                <time>1970-01-01T02:35:10Z</time>
            </trkpt>
            <trkpt lon="101.390500" lat="14.180980">
                <ele>298.800000</ele>
                <time>1970-01-01T02:35:11Z</time>
            </trkpt>
            <trkpt lon="101.390471" lat="14.180989">
                <ele>298.900000</ele>
                <time>1970-01-01T02:35:12Z</time>
            </trkpt>
            <trkpt lon="101.390421" lat="14.181008">
                <ele>299.000000</ele>
                <time>1970-01-01T02:35:14Z</time>
            </trkpt>
            <trkpt lon="101.390373" lat="14.181029">
                <ele>299.200000</ele>
                <time>1970-01-01T02:35:16Z</time>
            </trkpt>
            <trkpt lon="101.390333" lat="14.181056">
                <ele>299.400000</ele>
                <time>1970-01-01T02:35:18Z</time>
            </trkpt>
            <trkpt lon="101.390300" lat="14.181083">
                <ele>299.600000</ele>
                <time>1970-01-01T02:35:20Z</time>
            </trkpt>
            <trkpt lon="101.390273" lat="14.181099">
                <ele>299.700000</ele>
                <time>1970-01-01T02:35:22Z</time>
            </trkpt>
            <trkpt lon="101.390243" lat="14.181108">
                <ele>299.900000</ele>
                <time>1970-01-01T02:35:24Z</time>
            </trkpt>
            <trkpt lon="101.390213" lat="14.181119">
                <ele>300.000000</ele>
                <time>1970-01-01T02:35:26Z</time>
            </trkpt>
            <trkpt lon="101.390183" lat="14.181135">
                <ele>300.200000</ele>
                <time>1970-01-01T02:35:29Z</time>
            </trkpt>
            <trkpt lon="101.390157" lat="14.181151">
                <ele>300.400000</ele>
                <time>1970-01-01T02:35:31Z</time>
            </trkpt>
            <trkpt lon="101.390127" lat="14.181163">
                <ele>300.600000</ele>
                <time>1970-01-01T02:35:33Z</time>
            </trkpt>
            <trkpt lon="101.390092" lat="14.181173">
                <ele>300.800000</ele>
                <time>1970-01-01T02:35:35Z</time>
            </trkpt>
            <trkpt lon="101.390055" lat="14.181183">
                <ele>301.000000</ele>
                <time>1970-01-01T02:35:37Z</time>
            </trkpt>
            <trkpt lon="101.390020" lat="14.181193">
                <ele>301.300000</ele>
                <time>1970-01-01T02:35:39Z</time>
            </trkpt>
            <trkpt lon="101.389975" lat="14.181202">
                <ele>301.600000</ele>
                <time>1970-01-01T02:35:46Z</time>
            </trkpt>
            <trkpt lon="101.389942" lat="14.181199">
                <ele>301.900000</ele>
                <time>1970-01-01T02:35:48Z</time>
            </trkpt>
            <trkpt lon="101.389903" lat="14.181197">
                <ele>302.100000</ele>
                <time>1970-01-01T02:35:50Z</time>
            </trkpt>
            <trkpt lon="101.389863" lat="14.181202">
                <ele>302.300000</ele>
                <time>1970-01-01T02:35:52Z</time>
            </trkpt>
            <trkpt lon="101.389809" lat="14.181211">
                <ele>302.600000</ele>
                <time>1970-01-01T02:35:54Z</time>
            </trkpt>
            <trkpt lon="101.389757" lat="14.181215">
                <ele>302.900000</ele>
                <time>1970-01-01T02:35:56Z</time>
            </trkpt>
            <trkpt lon="101.389705" lat="14.181220">
                <ele>303.100000</ele>
                <time>1970-01-01T02:35:58Z</time>
            </trkpt>
            <trkpt lon="101.389669" lat="14.181227">
                <ele>303.300000</ele>
                <time>1970-01-01T02:36:00Z</time>
            </trkpt>
            <trkpt lon="101.389636" lat="14.181255">
                <ele>303.500000</ele>
                <time>1970-01-01T02:36:03Z</time>
            </trkpt>
            <trkpt lon="101.389599" lat="14.181279">
                <ele>303.700000</ele>
                <time>1970-01-01T02:36:05Z</time>
            </trkpt>
            <trkpt lon="101.389570" lat="14.181300">
                <ele>303.800000</ele>
                <time>1970-01-01T02:36:07Z</time>
            </trkpt>
            <trkpt lon="101.389533" lat="14.181328">
                <ele>304.000000</ele>
                <time>1970-01-01T02:36:10Z</time>
            </trkpt>
            <trkpt lon="101.389491" lat="14.181338">
                <ele>304.200000</ele>
                <time>1970-01-01T02:36:12Z</time>
            </trkpt>
            <trkpt lon="101.389450" lat="14.181334">
                <ele>304.400000</ele>
                <time>1970-01-01T02:36:14Z</time>
            </trkpt>
            <trkpt lon="101.389412" lat="14.181330">
                <ele>304.500000</ele>
                <time>1970-01-01T02:36:16Z</time>
            </trkpt>
            <trkpt lon="101.389364" lat="14.181331">
                <ele>304.700000</ele>
                <time>1970-01-01T02:36:18Z</time>
            </trkpt>
            <trkpt lon="101.389337" lat="14.181329">
                <ele>304.800000</ele>
                <time>1970-01-01T02:36:19Z</time>
            </trkpt>
            <trkpt lon="101.389284" lat="14.181319">
                <ele>305.000000</ele>
                <time>1970-01-01T02:36:21Z</time>
            </trkpt>
            <trkpt lon="101.389257" lat="14.181314">
                <ele>305.100000</ele>
                <time>1970-01-01T02:36:22Z</time>
            </trkpt>
            <trkpt lon="101.389225" lat="14.181314">
                <ele>305.200000</ele>
                <time>1970-01-01T02:36:23Z</time>
            </trkpt>
            <trkpt lon="101.389182" lat="14.181317">
                <ele>305.400000</ele>
                <time>1970-01-01T02:36:25Z</time>
            </trkpt>
            <trkpt lon="101.389144" lat="14.181322">
                <ele>305.600000</ele>
                <time>1970-01-01T02:36:27Z</time>
            </trkpt>
            <trkpt lon="101.389110" lat="14.181320">
                <ele>305.800000</ele>
                <time>1970-01-01T02:36:29Z</time>
            </trkpt>
            <trkpt lon="101.389060" lat="14.181324">
                <ele>306.100000</ele>
                <time>1970-01-01T02:36:31Z</time>
            </trkpt>
            <trkpt lon="101.389017" lat="14.181329">
                <ele>306.300000</ele>
                <time>1970-01-01T02:36:33Z</time>
            </trkpt>
            <trkpt lon="101.388978" lat="14.181330">
                <ele>306.400000</ele>
                <time>1970-01-01T02:36:35Z</time>
            </trkpt>
            <trkpt lon="101.388938" lat="14.181331">
                <ele>306.600000</ele>
                <time>1970-01-01T02:36:37Z</time>
            </trkpt>
            <trkpt lon="101.388896" lat="14.181336">
                <ele>306.800000</ele>
                <time>1970-01-01T02:36:39Z</time>
            </trkpt>
            <trkpt lon="101.388846" lat="14.181354">
                <ele>307.100000</ele>
                <time>1970-01-01T02:36:41Z</time>
            </trkpt>
            <trkpt lon="101.388809" lat="14.181382">
                <ele>307.300000</ele>
                <time>1970-01-01T02:36:43Z</time>
            </trkpt>
            <trkpt lon="101.388786" lat="14.181410">
                <ele>307.500000</ele>
                <time>1970-01-01T02:36:45Z</time>
            </trkpt>
            <trkpt lon="101.388763" lat="14.181432">
                <ele>307.800000</ele>
                <time>1970-01-01T02:36:47Z</time>
            </trkpt>
            <trkpt lon="101.388731" lat="14.181449">
                <ele>308.100000</ele>
                <time>1970-01-01T02:36:49Z</time>
            </trkpt>
            <trkpt lon="101.388697" lat="14.181462">
                <ele>308.400000</ele>
                <time>1970-01-01T02:36:51Z</time>
            </trkpt>
            <trkpt lon="101.388666" lat="14.181472">
                <ele>308.600000</ele>
                <time>1970-01-01T02:36:53Z</time>
            </trkpt>
            <trkpt lon="101.388623" lat="14.181478">
                <ele>309.000000</ele>
                <time>1970-01-01T02:36:55Z</time>
            </trkpt>
            <trkpt lon="101.388570" lat="14.181480">
                <ele>309.400000</ele>
                <time>1970-01-01T02:36:57Z</time>
            </trkpt>
            <trkpt lon="101.388522" lat="14.181486">
                <ele>309.600000</ele>
                <time>1970-01-01T02:36:59Z</time>
            </trkpt>
            <trkpt lon="101.388480" lat="14.181490">
                <ele>309.800000</ele>
                <time>1970-01-01T02:37:01Z</time>
            </trkpt>
            <trkpt lon="101.388437" lat="14.181489">
                <ele>310.100000</ele>
                <time>1970-01-01T02:37:03Z</time>
            </trkpt>
            <trkpt lon="101.388393" lat="14.181487">
                <ele>310.300000</ele>
                <time>1970-01-01T02:37:05Z</time>
            </trkpt>
            <trkpt lon="101.388351" lat="14.181494">
                <ele>310.600000</ele>
                <time>1970-01-01T02:37:07Z</time>
            </trkpt>
            <trkpt lon="101.388314" lat="14.181516">
                <ele>310.900000</ele>
                <time>1970-01-01T02:37:09Z</time>
            </trkpt>
            <trkpt lon="101.388279" lat="14.181529">
                <ele>311.100000</ele>
                <time>1970-01-01T02:37:11Z</time>
            </trkpt>
            <trkpt lon="101.388249" lat="14.181543">
                <ele>311.300000</ele>
                <time>1970-01-01T02:37:13Z</time>
            </trkpt>
            <trkpt lon="101.388213" lat="14.181553">
                <ele>311.400000</ele>
                <time>1970-01-01T02:37:15Z</time>
            </trkpt>
            <trkpt lon="101.388185" lat="14.181570">
                <ele>311.600000</ele>
                <time>1970-01-01T02:37:17Z</time>
            </trkpt>
            <trkpt lon="101.388167" lat="14.181595">
                <ele>311.800000</ele>
                <time>1970-01-01T02:37:19Z</time>
            </trkpt>
            <trkpt lon="101.388143" lat="14.181626">
                <ele>312.000000</ele>
                <time>1970-01-01T02:37:22Z</time>
            </trkpt>
            <trkpt lon="101.388118" lat="14.181640">
                <ele>312.100000</ele>
                <time>1970-01-01T02:37:24Z</time>
            </trkpt>
            <trkpt lon="101.388083" lat="14.181646">
                <ele>312.300000</ele>
                <time>1970-01-01T02:37:26Z</time>
            </trkpt>
            <trkpt lon="101.388041" lat="14.181668">
                <ele>312.600000</ele>
                <time>1970-01-01T02:37:28Z</time>
            </trkpt>
            <trkpt lon="101.388004" lat="14.181691">
                <ele>312.800000</ele>
                <time>1970-01-01T02:37:30Z</time>
            </trkpt>
            <trkpt lon="101.387974" lat="14.181698">
                <ele>313.000000</ele>
                <time>1970-01-01T02:37:32Z</time>
            </trkpt>
            <trkpt lon="101.387937" lat="14.181711">
                <ele>313.200000</ele>
                <time>1970-01-01T02:37:35Z</time>
            </trkpt>
            <trkpt lon="101.387905" lat="14.181728">
                <ele>313.400000</ele>
                <time>1970-01-01T02:37:38Z</time>
            </trkpt>
            <trkpt lon="101.387878" lat="14.181741">
                <ele>313.500000</ele>
                <time>1970-01-01T02:37:40Z</time>
            </trkpt>
            <trkpt lon="101.387845" lat="14.181757">
                <ele>313.800000</ele>
                <time>1970-01-01T02:37:42Z</time>
            </trkpt>
            <trkpt lon="101.387807" lat="14.181767">
                <ele>314.100000</ele>
                <time>1970-01-01T02:37:44Z</time>
            </trkpt>
            <trkpt lon="101.387777" lat="14.181771">
                <ele>314.400000</ele>
                <time>1970-01-01T02:37:46Z</time>
            </trkpt>
            <trkpt lon="101.387737" lat="14.181782">
                <ele>314.600000</ele>
                <time>1970-01-01T02:37:49Z</time>
            </trkpt>
            <trkpt lon="101.387694" lat="14.181789">
                <ele>315.000000</ele>
                <time>1970-01-01T02:37:51Z</time>
            </trkpt>
            <trkpt lon="101.387654" lat="14.181797">
                <ele>315.200000</ele>
                <time>1970-01-01T02:37:53Z</time>
            </trkpt>
            <trkpt lon="101.387627" lat="14.181803">
                <ele>315.400000</ele>
                <time>1970-01-01T02:37:55Z</time>
            </trkpt>
            <trkpt lon="101.387600" lat="14.181810">
                <ele>315.600000</ele>
                <time>1970-01-01T02:37:57Z</time>
            </trkpt>
            <trkpt lon="101.387563" lat="14.181815">
                <ele>315.900000</ele>
                <time>1970-01-01T02:37:59Z</time>
            </trkpt>
            <trkpt lon="101.387524" lat="14.181810">
                <ele>316.200000</ele>
                <time>1970-01-01T02:38:01Z</time>
            </trkpt>
            <trkpt lon="101.387485" lat="14.181809">
                <ele>316.400000</ele>
                <time>1970-01-01T02:38:04Z</time>
            </trkpt>
            <trkpt lon="101.387450" lat="14.181809">
                <ele>316.700000</ele>
                <time>1970-01-01T02:38:07Z</time>
            </trkpt>
            <trkpt lon="101.387412" lat="14.181814">
                <ele>316.900000</ele>
                <time>1970-01-01T02:38:09Z</time>
            </trkpt>
            <trkpt lon="101.387373" lat="14.181821">
                <ele>317.100000</ele>
                <time>1970-01-01T02:38:11Z</time>
            </trkpt>
            <trkpt lon="101.387339" lat="14.181827">
                <ele>317.300000</ele>
                <time>1970-01-01T02:38:13Z</time>
            </trkpt>
            <trkpt lon="101.387308" lat="14.181830">
                <ele>317.500000</ele>
                <time>1970-01-01T02:38:15Z</time>
            </trkpt>
            <trkpt lon="101.387269" lat="14.181839">
                <ele>317.800000</ele>
                <time>1970-01-01T02:38:17Z</time>
            </trkpt>
            <trkpt lon="101.387239" lat="14.181850">
                <ele>318.000000</ele>
                <time>1970-01-01T02:38:19Z</time>
            </trkpt>
            <trkpt lon="101.387190" lat="14.181851">
                <ele>318.400000</ele>
                <time>1970-01-01T02:39:06Z</time>
            </trkpt>
            <trkpt lon="101.387164" lat="14.181876">
                <ele>318.800000</ele>
                <time>1970-01-01T02:39:10Z</time>
            </trkpt>
            <trkpt lon="101.387138" lat="14.181892">
                <ele>319.100000</ele>
                <time>1970-01-01T02:39:16Z</time>
            </trkpt>
            <trkpt lon="101.387112" lat="14.181905">
                <ele>319.300000</ele>
                <time>1970-01-01T02:39:21Z</time>
            </trkpt>
            <trkpt lon="101.387083" lat="14.181908">
                <ele>319.600000</ele>
                <time>1970-01-01T02:39:25Z</time>
            </trkpt>
            <trkpt lon="101.387056" lat="14.181899">
                <ele>319.800000</ele>
                <time>1970-01-01T02:39:30Z</time>
            </trkpt>
            <trkpt lon="101.387024" lat="14.181896">
                <ele>320.000000</ele>
                <time>1970-01-01T02:39:35Z</time>
            </trkpt>
            <trkpt lon="101.386996" lat="14.181900">
                <ele>320.200000</ele>
                <time>1970-01-01T02:39:39Z</time>
            </trkpt>
            <trkpt lon="101.386973" lat="14.181917">
                <ele>320.400000</ele>
                <time>1970-01-01T02:39:42Z</time>
            </trkpt>
            <trkpt lon="101.386950" lat="14.181936">
                <ele>320.700000</ele>
                <time>1970-01-01T02:39:46Z</time>
            </trkpt>
            <trkpt lon="101.386921" lat="14.181949">
                <ele>321.000000</ele>
                <time>1970-01-01T02:39:49Z</time>
            </trkpt>
            <trkpt lon="101.386891" lat="14.181957">
                <ele>321.300000</ele>
                <time>1970-01-01T02:40:02Z</time>
            </trkpt>
            <trkpt lon="101.386863" lat="14.181964">
                <ele>321.700000</ele>
                <time>1970-01-01T02:40:06Z</time>
            </trkpt>
            <trkpt lon="101.386843" lat="14.181987">
                <ele>322.100000</ele>
                <time>1970-01-01T02:40:13Z</time>
            </trkpt>
            <trkpt lon="101.386810" lat="14.181992">
                <ele>322.500000</ele>
                <time>1970-01-01T02:40:19Z</time>
            </trkpt>
            <trkpt lon="101.386785" lat="14.182008">
                <ele>322.900000</ele>
                <time>1970-01-01T02:40:25Z</time>
            </trkpt>
            <trkpt lon="101.386762" lat="14.182027">
                <ele>323.300000</ele>
                <time>1970-01-01T02:40:28Z</time>
            </trkpt>
            <trkpt lon="101.386728" lat="14.182026">
                <ele>323.800000</ele>
                <time>1970-01-01T02:40:31Z</time>
            </trkpt>
            <trkpt lon="101.386678" lat="14.182024">
                <ele>324.600000</ele>
                <time>1970-01-01T02:40:39Z</time>
            </trkpt>
            <trkpt lon="101.386647" lat="14.182027">
                <ele>325.100000</ele>
                <time>1970-01-01T02:40:41Z</time>
            </trkpt>
            <trkpt lon="101.386611" lat="14.182034">
                <ele>325.800000</ele>
                <time>1970-01-01T02:40:43Z</time>
            </trkpt>
            <trkpt lon="101.386585" lat="14.182057">
                <ele>326.500000</ele>
                <time>1970-01-01T02:40:46Z</time>
            </trkpt>
            <trkpt lon="101.386575" lat="14.182091">
                <ele>327.200000</ele>
                <time>1970-01-01T02:40:49Z</time>
            </trkpt>
            <trkpt lon="101.386546" lat="14.182098">
                <ele>327.700000</ele>
                <time>1970-01-01T02:50:15Z</time>
            </trkpt>
            <trkpt lon="101.386517" lat="14.182116">
                <ele>328.400000</ele>
                <time>1970-01-01T02:50:20Z</time>
            </trkpt>
            <trkpt lon="101.386486" lat="14.182119">
                <ele>328.800000</ele>
                <time>1970-01-01T02:50:48Z</time>
            </trkpt>
            <trkpt lon="101.386451" lat="14.182122">
                <ele>329.400000</ele>
                <time>1970-01-01T02:50:50Z</time>
            </trkpt>
            <trkpt lon="101.386405" lat="14.182118">
                <ele>330.100000</ele>
                <time>1970-01-01T02:50:52Z</time>
            </trkpt>
            <trkpt lon="101.386357" lat="14.182112">
                <ele>331.000000</ele>
                <time>1970-01-01T02:50:54Z</time>
            </trkpt>
            <trkpt lon="101.386323" lat="14.182110">
                <ele>331.600000</ele>
                <time>1970-01-01T02:50:56Z</time>
            </trkpt>
            <trkpt lon="101.386293" lat="14.182109">
                <ele>332.000000</ele>
                <time>1970-01-01T02:50:58Z</time>
            </trkpt>
            <trkpt lon="101.386262" lat="14.182107">
                <ele>332.400000</ele>
                <time>1970-01-01T02:51:00Z</time>
            </trkpt>
            <trkpt lon="101.386228" lat="14.182109">
                <ele>332.800000</ele>
                <time>1970-01-01T02:51:03Z</time>
            </trkpt>
            <trkpt lon="101.386196" lat="14.182101">
                <ele>333.000000</ele>
                <time>1970-01-01T02:51:05Z</time>
            </trkpt>
            <trkpt lon="101.386154" lat="14.182093">
                <ele>333.200000</ele>
                <time>1970-01-01T02:51:07Z</time>
            </trkpt>
            <trkpt lon="101.386128" lat="14.182080">
                <ele>333.200000</ele>
                <time>1970-01-01T02:51:09Z</time>
            </trkpt>
            <trkpt lon="101.386104" lat="14.182062">
                <ele>333.100000</ele>
                <time>1970-01-01T02:51:11Z</time>
            </trkpt>
            <trkpt lon="101.386072" lat="14.182026">
                <ele>332.800000</ele>
                <time>1970-01-01T02:51:13Z</time>
            </trkpt>
            <trkpt lon="101.386056" lat="14.182002">
                <ele>332.500000</ele>
                <time>1970-01-01T02:51:14Z</time>
            </trkpt>
            <trkpt lon="101.386036" lat="14.181970">
                <ele>332.100000</ele>
                <time>1970-01-01T02:51:15Z</time>
            </trkpt>
            <trkpt lon="101.386020" lat="14.181938">
                <ele>331.600000</ele>
                <time>1970-01-01T02:51:16Z</time>
            </trkpt>
            <trkpt lon="101.386018" lat="14.181894">
                <ele>331.000000</ele>
                <time>1970-01-01T02:51:18Z</time>
            </trkpt>
            <trkpt lon="101.386056" lat="14.181850">
                <ele>329.000000</ele>
                <time>1970-01-01T02:51:20Z</time>
            </trkpt>
            <trkpt lon="101.386089" lat="14.181834">
                <ele>327.800000</ele>
                <time>1970-01-01T02:51:21Z</time>
            </trkpt>
            <trkpt lon="101.386127" lat="14.181825">
                <ele>326.700000</ele>
                <time>1970-01-01T02:51:22Z</time>
            </trkpt>
            <trkpt lon="101.386165" lat="14.181818">
                <ele>325.600000</ele>
                <time>1970-01-01T02:51:23Z</time>
            </trkpt>
            <trkpt lon="101.386218" lat="14.181803">
                <ele>324.600000</ele>
                <time>1970-01-01T02:51:24Z</time>
            </trkpt>
            <trkpt lon="101.386249" lat="14.181789">
                <ele>323.900000</ele>
                <time>1970-01-01T02:51:25Z</time>
            </trkpt>
            <trkpt lon="101.386277" lat="14.181778">
                <ele>323.400000</ele>
                <time>1970-01-01T02:51:26Z</time>
            </trkpt>
            <trkpt lon="101.386292" lat="14.181743">
                <ele>322.800000</ele>
                <time>1970-01-01T02:51:28Z</time>
            </trkpt>
            <trkpt lon="101.386318" lat="14.181712">
                <ele>322.000000</ele>
                <time>1970-01-01T02:51:30Z</time>
            </trkpt>
            <trkpt lon="101.386337" lat="14.181683">
                <ele>321.300000</ele>
                <time>1970-01-01T02:51:32Z</time>
            </trkpt>
            <trkpt lon="101.386314" lat="14.181657">
                <ele>320.600000</ele>
                <time>1970-01-01T02:51:34Z</time>
            </trkpt>
            <trkpt lon="101.386320" lat="14.181622">
                <ele>319.900000</ele>
                <time>1970-01-01T02:51:38Z</time>
            </trkpt>
            <trkpt lon="101.386345" lat="14.181595">
                <ele>319.300000</ele>
                <time>1970-01-01T02:51:40Z</time>
            </trkpt>
            <trkpt lon="101.386344" lat="14.181564">
                <ele>318.700000</ele>
                <time>1970-01-01T02:51:42Z</time>
            </trkpt>
            <trkpt lon="101.386317" lat="14.181543">
                <ele>318.100000</ele>
                <time>1970-01-01T02:51:44Z</time>
            </trkpt>
            <trkpt lon="101.386295" lat="14.181514">
                <ele>317.400000</ele>
                <time>1970-01-01T02:51:47Z</time>
            </trkpt>
            <trkpt lon="101.386287" lat="14.181486">
                <ele>316.900000</ele>
                <time>1970-01-01T02:51:50Z</time>
            </trkpt>
            <trkpt lon="101.386289" lat="14.181456">
                <ele>316.500000</ele>
                <time>1970-01-01T02:51:52Z</time>
            </trkpt>
            <trkpt lon="101.386293" lat="14.181425">
                <ele>316.000000</ele>
                <time>1970-01-01T02:51:54Z</time>
            </trkpt>
            <trkpt lon="101.386296" lat="14.181389">
                <ele>315.500000</ele>
                <time>1970-01-01T02:51:57Z</time>
            </trkpt>
            <trkpt lon="101.386288" lat="14.181360">
                <ele>314.900000</ele>
                <time>1970-01-01T02:51:59Z</time>
            </trkpt>
            <trkpt lon="101.386266" lat="14.181310">
                <ele>314.000000</ele>
                <time>1970-01-01T02:52:04Z</time>
            </trkpt>
            <trkpt lon="101.386266" lat="14.181279">
                <ele>313.500000</ele>
                <time>1970-01-01T02:52:07Z</time>
            </trkpt>
            <trkpt lon="101.386276" lat="14.181239">
                <ele>312.800000</ele>
                <time>1970-01-01T02:52:10Z</time>
            </trkpt>
            <trkpt lon="101.386273" lat="14.181208">
                <ele>312.300000</ele>
                <time>1970-01-01T02:52:12Z</time>
            </trkpt>
            <trkpt lon="101.386269" lat="14.181180">
                <ele>311.900000</ele>
                <time>1970-01-01T02:52:14Z</time>
            </trkpt>
            <trkpt lon="101.386263" lat="14.181143">
                <ele>311.400000</ele>
                <time>1970-01-01T02:52:17Z</time>
            </trkpt>
            <trkpt lon="101.386279" lat="14.181110">
                <ele>310.900000</ele>
                <time>1970-01-01T02:52:19Z</time>
            </trkpt>
            <trkpt lon="101.386287" lat="14.181058">
                <ele>310.200000</ele>
                <time>1970-01-01T02:52:21Z</time>
            </trkpt>
            <trkpt lon="101.386290" lat="14.181011">
                <ele>309.600000</ele>
                <time>1970-01-01T02:52:23Z</time>
            </trkpt>
            <trkpt lon="101.386302" lat="14.180984">
                <ele>309.300000</ele>
                <time>1970-01-01T02:52:25Z</time>
            </trkpt>
            <trkpt lon="101.386323" lat="14.180936">
                <ele>308.800000</ele>
                <time>1970-01-01T02:52:27Z</time>
            </trkpt>
            <trkpt lon="101.386323" lat="14.180907">
                <ele>308.500000</ele>
                <time>1970-01-01T02:52:28Z</time>
            </trkpt>
            <trkpt lon="101.386319" lat="14.180880">
                <ele>308.200000</ele>
                <time>1970-01-01T02:52:29Z</time>
            </trkpt>
            <trkpt lon="101.386324" lat="14.180849">
                <ele>307.800000</ele>
                <time>1970-01-01T02:52:30Z</time>
            </trkpt>
            <trkpt lon="101.386335" lat="14.180821">
                <ele>307.500000</ele>
                <time>1970-01-01T02:52:31Z</time>
            </trkpt>
            <trkpt lon="101.386358" lat="14.180782">
                <ele>306.700000</ele>
                <time>1970-01-01T02:52:33Z</time>
            </trkpt>
            <trkpt lon="101.386382" lat="14.180750">
                <ele>306.000000</ele>
                <time>1970-01-01T02:52:35Z</time>
            </trkpt>
            <trkpt lon="101.386405" lat="14.180725">
                <ele>305.200000</ele>
                <time>1970-01-01T02:52:40Z</time>
            </trkpt>
            <trkpt lon="101.386410" lat="14.180696">
                <ele>304.600000</ele>
                <time>1970-01-01T02:52:44Z</time>
            </trkpt>
            <trkpt lon="101.386426" lat="14.180669">
                <ele>304.000000</ele>
                <time>1970-01-01T02:52:47Z</time>
            </trkpt>
            <trkpt lon="101.386448" lat="14.180631">
                <ele>302.900000</ele>
                <time>1970-01-01T02:52:50Z</time>
            </trkpt>
            <trkpt lon="101.386469" lat="14.180601">
                <ele>302.100000</ele>
                <time>1970-01-01T02:52:52Z</time>
            </trkpt>
            <trkpt lon="101.386487" lat="14.180577">
                <ele>301.400000</ele>
                <time>1970-01-01T02:52:54Z</time>
            </trkpt>
            <trkpt lon="101.386505" lat="14.180550">
                <ele>300.600000</ele>
                <time>1970-01-01T02:52:57Z</time>
            </trkpt>
            <trkpt lon="101.386509" lat="14.180518">
                <ele>299.800000</ele>
                <time>1970-01-01T02:53:01Z</time>
            </trkpt>
            <trkpt lon="101.386512" lat="14.180487">
                <ele>299.000000</ele>
                <time>1970-01-01T02:53:04Z</time>
            </trkpt>
            <trkpt lon="101.386511" lat="14.180453">
                <ele>298.200000</ele>
                <time>1970-01-01T02:53:08Z</time>
            </trkpt>
            <trkpt lon="101.386519" lat="14.180426">
                <ele>297.600000</ele>
                <time>1970-01-01T02:53:13Z</time>
            </trkpt>
            <trkpt lon="101.386510" lat="14.180396">
                <ele>296.800000</ele>
                <time>1970-01-01T02:53:19Z</time>
            </trkpt>
            <trkpt lon="101.386509" lat="14.180367">
                <ele>296.100000</ele>
                <time>1970-01-01T02:53:24Z</time>
            </trkpt>
            <trkpt lon="101.386498" lat="14.180335">
                <ele>295.600000</ele>
                <time>1970-01-01T02:53:29Z</time>
            </trkpt>
            <trkpt lon="101.386496" lat="14.180303">
                <ele>295.100000</ele>
                <time>1970-01-01T02:53:32Z</time>
            </trkpt>
            <trkpt lon="101.386500" lat="14.180274">
                <ele>294.700000</ele>
                <time>1970-01-01T02:53:42Z</time>
            </trkpt>
            <trkpt lon="101.386506" lat="14.180242">
                <ele>294.300000</ele>
                <time>1970-01-01T02:53:45Z</time>
            </trkpt>
            <trkpt lon="101.386511" lat="14.180208">
                <ele>293.900000</ele>
                <time>1970-01-01T02:53:48Z</time>
            </trkpt>
            <trkpt lon="101.386528" lat="14.180178">
                <ele>293.700000</ele>
                <time>1970-01-01T02:53:50Z</time>
            </trkpt>
            <trkpt lon="101.386534" lat="14.180140">
                <ele>293.500000</ele>
                <time>1970-01-01T02:53:52Z</time>
            </trkpt>
            <trkpt lon="101.386537" lat="14.180104">
                <ele>293.300000</ele>
                <time>1970-01-01T02:53:54Z</time>
            </trkpt>
            <trkpt lon="101.386539" lat="14.180074">
                <ele>293.100000</ele>
                <time>1970-01-01T02:53:55Z</time>
            </trkpt>
            <trkpt lon="101.386541" lat="14.180033">
                <ele>293.000000</ele>
                <time>1970-01-01T02:53:56Z</time>
            </trkpt>
            <trkpt lon="101.386540" lat="14.179992">
                <ele>292.900000</ele>
                <time>1970-01-01T02:53:57Z</time>
            </trkpt>
            <trkpt lon="101.386542" lat="14.179953">
                <ele>292.700000</ele>
                <time>1970-01-01T02:53:58Z</time>
            </trkpt>
            <trkpt lon="101.386543" lat="14.179923">
                <ele>292.700000</ele>
                <time>1970-01-01T02:53:59Z</time>
            </trkpt>
            <trkpt lon="101.386545" lat="14.179878">
                <ele>292.600000</ele>
                <time>1970-01-01T02:54:01Z</time>
            </trkpt>
            <trkpt lon="101.386544" lat="14.179843">
                <ele>292.500000</ele>
                <time>1970-01-01T02:54:03Z</time>
            </trkpt>
            <trkpt lon="101.386539" lat="14.179813">
                <ele>292.400000</ele>
                <time>1970-01-01T02:54:05Z</time>
            </trkpt>
            <trkpt lon="101.386544" lat="14.179765">
                <ele>292.300000</ele>
                <time>1970-01-01T02:54:07Z</time>
            </trkpt>
            <trkpt lon="101.386555" lat="14.179713">
                <ele>291.900000</ele>
                <time>1970-01-01T02:54:09Z</time>
            </trkpt>
            <trkpt lon="101.386564" lat="14.179686">
                <ele>291.700000</ele>
                <time>1970-01-01T02:54:10Z</time>
            </trkpt>
            <trkpt lon="101.386569" lat="14.179645">
                <ele>291.300000</ele>
                <time>1970-01-01T02:54:12Z</time>
            </trkpt>
            <trkpt lon="101.386568" lat="14.179616">
                <ele>291.000000</ele>
                <time>1970-01-01T02:54:14Z</time>
            </trkpt>
            <trkpt lon="101.386572" lat="14.179584">
                <ele>290.700000</ele>
                <time>1970-01-01T02:54:16Z</time>
            </trkpt>
            <trkpt lon="101.386571" lat="14.179557">
                <ele>290.400000</ele>
                <time>1970-01-01T02:54:17Z</time>
            </trkpt>
            <trkpt lon="101.386557" lat="14.179507">
                <ele>289.800000</ele>
                <time>1970-01-01T02:54:19Z</time>
            </trkpt>
            <trkpt lon="101.386512" lat="14.179473">
                <ele>289.100000</ele>
                <time>1970-01-01T02:54:21Z</time>
            </trkpt>
            <trkpt lon="101.386483" lat="14.179460">
                <ele>288.600000</ele>
                <time>1970-01-01T02:54:22Z</time>
            </trkpt>
            <trkpt lon="101.386457" lat="14.179443">
                <ele>288.100000</ele>
                <time>1970-01-01T02:54:23Z</time>
            </trkpt>
            <trkpt lon="101.386414" lat="14.179412">
                <ele>287.200000</ele>
                <time>1970-01-01T02:54:25Z</time>
            </trkpt>
            <trkpt lon="101.386380" lat="14.179383">
                <ele>286.300000</ele>
                <time>1970-01-01T02:54:27Z</time>
            </trkpt>
            <trkpt lon="101.386355" lat="14.179348">
                <ele>285.400000</ele>
                <time>1970-01-01T02:54:29Z</time>
            </trkpt>
            <trkpt lon="101.386343" lat="14.179316">
                <ele>284.700000</ele>
                <time>1970-01-01T02:54:31Z</time>
            </trkpt>
            <trkpt lon="101.386319" lat="14.179284">
                <ele>284.000000</ele>
                <time>1970-01-01T02:54:33Z</time>
            </trkpt>
            <trkpt lon="101.386299" lat="14.179264">
                <ele>283.600000</ele>
                <time>1970-01-01T02:54:35Z</time>
            </trkpt>
            <trkpt lon="101.386277" lat="14.179241">
                <ele>283.000000</ele>
                <time>1970-01-01T02:54:37Z</time>
            </trkpt>
            <trkpt lon="101.386250" lat="14.179209">
                <ele>282.200000</ele>
                <time>1970-01-01T02:54:39Z</time>
            </trkpt>
            <trkpt lon="101.386222" lat="14.179173">
                <ele>281.200000</ele>
                <time>1970-01-01T02:54:41Z</time>
            </trkpt>
            <trkpt lon="101.386199" lat="14.179131">
                <ele>280.100000</ele>
                <time>1970-01-01T02:54:43Z</time>
            </trkpt>
            <trkpt lon="101.386197" lat="14.179091">
                <ele>279.100000</ele>
                <time>1970-01-01T02:54:45Z</time>
            </trkpt>
            <trkpt lon="101.386194" lat="14.179050">
                <ele>278.100000</ele>
                <time>1970-01-01T02:54:47Z</time>
            </trkpt>
            <trkpt lon="101.386187" lat="14.179015">
                <ele>277.200000</ele>
                <time>1970-01-01T02:54:49Z</time>
            </trkpt>
            <trkpt lon="101.386173" lat="14.178981">
                <ele>276.300000</ele>
                <time>1970-01-01T02:54:51Z</time>
            </trkpt>
            <trkpt lon="101.386166" lat="14.178929">
                <ele>275.400000</ele>
                <time>1970-01-01T02:54:53Z</time>
            </trkpt>
            <trkpt lon="101.386171" lat="14.178898">
                <ele>274.800000</ele>
                <time>1970-01-01T02:54:54Z</time>
            </trkpt>
            <trkpt lon="101.386181" lat="14.178865">
                <ele>274.100000</ele>
                <time>1970-01-01T02:54:55Z</time>
            </trkpt>
            <trkpt lon="101.386196" lat="14.178835">
                <ele>273.400000</ele>
                <time>1970-01-01T02:54:56Z</time>
            </trkpt>
            <trkpt lon="101.386212" lat="14.178809">
                <ele>272.800000</ele>
                <time>1970-01-01T02:54:57Z</time>
            </trkpt>
            <trkpt lon="101.386230" lat="14.178784">
                <ele>272.300000</ele>
                <time>1970-01-01T02:54:58Z</time>
            </trkpt>
            <trkpt lon="101.386260" lat="14.178749">
                <ele>271.400000</ele>
                <time>1970-01-01T02:55:00Z</time>
            </trkpt>
            <trkpt lon="101.386262" lat="14.178713">
                <ele>270.700000</ele>
                <time>1970-01-01T02:55:03Z</time>
            </trkpt>
            <trkpt lon="101.386257" lat="14.178684">
                <ele>270.100000</ele>
                <time>1970-01-01T02:55:04Z</time>
            </trkpt>
            <trkpt lon="101.386249" lat="14.178656">
                <ele>269.500000</ele>
                <time>1970-01-01T02:55:05Z</time>
            </trkpt>
            <trkpt lon="101.386223" lat="14.178619">
                <ele>268.500000</ele>
                <time>1970-01-01T02:55:07Z</time>
            </trkpt>
            <trkpt lon="101.386188" lat="14.178591">
                <ele>267.700000</ele>
                <time>1970-01-01T02:55:09Z</time>
            </trkpt>
            <trkpt lon="101.386162" lat="14.178558">
                <ele>266.800000</ele>
                <time>1970-01-01T02:55:11Z</time>
            </trkpt>
            <trkpt lon="101.386138" lat="14.178530">
                <ele>266.000000</ele>
                <time>1970-01-01T02:55:13Z</time>
            </trkpt>
            <trkpt lon="101.386112" lat="14.178495">
                <ele>265.300000</ele>
                <time>1970-01-01T02:55:15Z</time>
            </trkpt>
            <trkpt lon="101.386096" lat="14.178471">
                <ele>264.800000</ele>
                <time>1970-01-01T02:55:16Z</time>
            </trkpt>
            <trkpt lon="101.386077" lat="14.178446">
                <ele>264.300000</ele>
                <time>1970-01-01T02:55:17Z</time>
            </trkpt>
            <trkpt lon="101.386055" lat="14.178422">
                <ele>263.900000</ele>
                <time>1970-01-01T02:55:18Z</time>
            </trkpt>
            <trkpt lon="101.386035" lat="14.178397">
                <ele>263.500000</ele>
                <time>1970-01-01T02:55:19Z</time>
            </trkpt>
            <trkpt lon="101.386028" lat="14.178350">
                <ele>262.900000</ele>
                <time>1970-01-01T02:55:21Z</time>
            </trkpt>
            <trkpt lon="101.386061" lat="14.178311">
                <ele>262.200000</ele>
                <time>1970-01-01T02:55:23Z</time>
            </trkpt>
            <trkpt lon="101.386079" lat="14.178264">
                <ele>261.600000</ele>
                <time>1970-01-01T02:55:25Z</time>
            </trkpt>
            <trkpt lon="101.386085" lat="14.178221">
                <ele>261.000000</ele>
                <time>1970-01-01T02:55:27Z</time>
            </trkpt>
            <trkpt lon="101.386095" lat="14.178183">
                <ele>260.500000</ele>
                <time>1970-01-01T02:55:29Z</time>
            </trkpt>
            <trkpt lon="101.386094" lat="14.178146">
                <ele>260.200000</ele>
                <time>1970-01-01T02:55:31Z</time>
            </trkpt>
            <trkpt lon="101.386095" lat="14.178090">
                <ele>259.600000</ele>
                <time>1970-01-01T02:55:33Z</time>
            </trkpt>
            <trkpt lon="101.386088" lat="14.178059">
                <ele>259.400000</ele>
                <time>1970-01-01T02:55:34Z</time>
            </trkpt>
            <trkpt lon="101.386081" lat="14.178031">
                <ele>259.200000</ele>
                <time>1970-01-01T02:55:35Z</time>
            </trkpt>
            <trkpt lon="101.386075" lat="14.178001">
                <ele>258.900000</ele>
                <time>1970-01-01T02:55:36Z</time>
            </trkpt>
            <trkpt lon="101.386070" lat="14.177973">
                <ele>258.700000</ele>
                <time>1970-01-01T02:55:37Z</time>
            </trkpt>
            <trkpt lon="101.386060" lat="14.177921">
                <ele>258.300000</ele>
                <time>1970-01-01T02:55:39Z</time>
            </trkpt>
            <trkpt lon="101.386053" lat="14.177891">
                <ele>258.100000</ele>
                <time>1970-01-01T02:55:40Z</time>
            </trkpt>
            <trkpt lon="101.386046" lat="14.177857">
                <ele>257.800000</ele>
                <time>1970-01-01T02:55:41Z</time>
            </trkpt>
            <trkpt lon="101.386040" lat="14.177826">
                <ele>257.600000</ele>
                <time>1970-01-01T02:55:42Z</time>
            </trkpt>
            <trkpt lon="101.386037" lat="14.177793">
                <ele>257.500000</ele>
                <time>1970-01-01T02:55:43Z</time>
            </trkpt>
            <trkpt lon="101.386035" lat="14.177752">
                <ele>257.400000</ele>
                <time>1970-01-01T02:55:44Z</time>
            </trkpt>
            <trkpt lon="101.386035" lat="14.177711">
                <ele>257.200000</ele>
                <time>1970-01-01T02:55:45Z</time>
            </trkpt>
            <trkpt lon="101.386033" lat="14.177671">
                <ele>257.100000</ele>
                <time>1970-01-01T02:55:46Z</time>
            </trkpt>
            <trkpt lon="101.386049" lat="14.177593">
                <ele>256.800000</ele>
                <time>1970-01-01T02:55:47Z</time>
            </trkpt>
            <trkpt lon="101.386072" lat="14.177548">
                <ele>256.700000</ele>
                <time>1970-01-01T02:55:48Z</time>
            </trkpt>
            <trkpt lon="101.386093" lat="14.177490">
                <ele>256.500000</ele>
                <time>1970-01-01T02:55:49Z</time>
            </trkpt>
            <trkpt lon="101.386108" lat="14.177444">
                <ele>256.400000</ele>
                <time>1970-01-01T02:55:50Z</time>
            </trkpt>
            <trkpt lon="101.386114" lat="14.177382">
                <ele>256.200000</ele>
                <time>1970-01-01T02:55:51Z</time>
            </trkpt>
            <trkpt lon="101.386140" lat="14.177334">
                <ele>256.100000</ele>
                <time>1970-01-01T02:55:52Z</time>
            </trkpt>
            <trkpt lon="101.386175" lat="14.177302">
                <ele>256.000000</ele>
                <time>1970-01-01T02:55:53Z</time>
            </trkpt>
            <trkpt lon="101.386210" lat="14.177270">
                <ele>255.800000</ele>
                <time>1970-01-01T02:55:54Z</time>
            </trkpt>
            <trkpt lon="101.386222" lat="14.177231">
                <ele>255.700000</ele>
                <time>1970-01-01T02:55:55Z</time>
            </trkpt>
            <trkpt lon="101.386238" lat="14.177201">
                <ele>255.600000</ele>
                <time>1970-01-01T02:55:56Z</time>
            </trkpt>
            <trkpt lon="101.386268" lat="14.177186">
                <ele>255.500000</ele>
                <time>1970-01-01T02:55:57Z</time>
            </trkpt>
            <trkpt lon="101.386319" lat="14.177183">
                <ele>255.300000</ele>
                <time>1970-01-01T02:55:59Z</time>
            </trkpt>
            <trkpt lon="101.386353" lat="14.177163">
                <ele>255.200000</ele>
                <time>1970-01-01T02:56:00Z</time>
            </trkpt>
            <trkpt lon="101.386386" lat="14.177152">
                <ele>255.100000</ele>
                <time>1970-01-01T02:56:03Z</time>
            </trkpt>
            <trkpt lon="101.386418" lat="14.177136">
                <ele>254.900000</ele>
                <time>1970-01-01T02:56:05Z</time>
            </trkpt>
            <trkpt lon="101.386463" lat="14.177117">
                <ele>254.700000</ele>
                <time>1970-01-01T02:56:07Z</time>
            </trkpt>
            <trkpt lon="101.386493" lat="14.177112">
                <ele>254.600000</ele>
                <time>1970-01-01T02:56:08Z</time>
            </trkpt>
            <trkpt lon="101.386527" lat="14.177113">
                <ele>254.500000</ele>
                <time>1970-01-01T02:56:09Z</time>
            </trkpt>
            <trkpt lon="101.386560" lat="14.177116">
                <ele>254.400000</ele>
                <time>1970-01-01T02:56:10Z</time>
            </trkpt>
            <trkpt lon="101.386591" lat="14.177122">
                <ele>254.200000</ele>
                <time>1970-01-01T02:56:11Z</time>
            </trkpt>
            <trkpt lon="101.386622" lat="14.177131">
                <ele>254.100000</ele>
                <time>1970-01-01T02:56:12Z</time>
            </trkpt>
            <trkpt lon="101.386653" lat="14.177142">
                <ele>254.000000</ele>
                <time>1970-01-01T02:56:13Z</time>
            </trkpt>
            <trkpt lon="101.386703" lat="14.177157">
                <ele>253.700000</ele>
                <time>1970-01-01T02:56:15Z</time>
            </trkpt>
            <trkpt lon="101.386729" lat="14.177167">
                <ele>253.600000</ele>
                <time>1970-01-01T02:56:16Z</time>
            </trkpt>
            <trkpt lon="101.386756" lat="14.177176">
                <ele>253.500000</ele>
                <time>1970-01-01T02:56:17Z</time>
            </trkpt>
            <trkpt lon="101.386787" lat="14.177185">
                <ele>253.400000</ele>
                <time>1970-01-01T02:56:18Z</time>
            </trkpt>
            <trkpt lon="101.386817" lat="14.177190">
                <ele>253.300000</ele>
                <time>1970-01-01T02:56:19Z</time>
            </trkpt>
            <trkpt lon="101.386875" lat="14.177174">
                <ele>253.200000</ele>
                <time>1970-01-01T02:56:21Z</time>
            </trkpt>
            <trkpt lon="101.386910" lat="14.177149">
                <ele>253.100000</ele>
                <time>1970-01-01T02:56:22Z</time>
            </trkpt>
            <trkpt lon="101.386947" lat="14.177115">
                <ele>253.000000</ele>
                <time>1970-01-01T02:56:23Z</time>
            </trkpt>
            <trkpt lon="101.387012" lat="14.177048">
                <ele>252.900000</ele>
                <time>1970-01-01T02:56:24Z</time>
            </trkpt>
            <trkpt lon="101.387036" lat="14.177010">
                <ele>252.800000</ele>
                <time>1970-01-01T02:56:25Z</time>
            </trkpt>
            <trkpt lon="101.387064" lat="14.176975">
                <ele>252.700000</ele>
                <time>1970-01-01T02:56:26Z</time>
            </trkpt>
            <trkpt lon="101.387080" lat="14.176941">
                <ele>252.600000</ele>
                <time>1970-01-01T02:56:27Z</time>
            </trkpt>
            <trkpt lon="101.387110" lat="14.176892">
                <ele>252.300000</ele>
                <time>1970-01-01T02:56:29Z</time>
            </trkpt>
            <trkpt lon="101.387103" lat="14.176841">
                <ele>252.000000</ele>
                <time>1970-01-01T02:56:31Z</time>
            </trkpt>
            <trkpt lon="101.387102" lat="14.176808">
                <ele>251.800000</ele>
                <time>1970-01-01T02:56:32Z</time>
            </trkpt>
            <trkpt lon="101.387104" lat="14.176780">
                <ele>251.700000</ele>
                <time>1970-01-01T02:56:33Z</time>
            </trkpt>
            <trkpt lon="101.387113" lat="14.176734">
                <ele>251.500000</ele>
                <time>1970-01-01T02:56:35Z</time>
            </trkpt>
            <trkpt lon="101.387111" lat="14.176703">
                <ele>251.300000</ele>
                <time>1970-01-01T02:56:36Z</time>
            </trkpt>
            <trkpt lon="101.387118" lat="14.176664">
                <ele>251.200000</ele>
                <time>1970-01-01T02:56:38Z</time>
            </trkpt>
            <trkpt lon="101.387111" lat="14.176614">
                <ele>250.900000</ele>
                <time>1970-01-01T02:56:40Z</time>
            </trkpt>
            <trkpt lon="101.387073" lat="14.176578">
                <ele>250.600000</ele>
                <time>1970-01-01T02:56:42Z</time>
            </trkpt>
            <trkpt lon="101.387046" lat="14.176546">
                <ele>250.400000</ele>
                <time>1970-01-01T02:56:43Z</time>
            </trkpt>
            <trkpt lon="101.387026" lat="14.176508">
                <ele>250.100000</ele>
                <time>1970-01-01T02:56:44Z</time>
            </trkpt>
            <trkpt lon="101.387007" lat="14.176409">
                <ele>249.300000</ele>
                <time>1970-01-01T02:56:45Z</time>
            </trkpt>
            <trkpt lon="101.387008" lat="14.176373">
                <ele>249.000000</ele>
                <time>1970-01-01T02:56:46Z</time>
            </trkpt>
            <trkpt lon="101.386983" lat="14.176337">
                <ele>248.600000</ele>
                <time>1970-01-01T02:56:47Z</time>
            </trkpt>
            <trkpt lon="101.386970" lat="14.176294">
                <ele>248.300000</ele>
                <time>1970-01-01T02:56:48Z</time>
            </trkpt>
            <trkpt lon="101.386953" lat="14.176238">
                <ele>247.800000</ele>
                <time>1970-01-01T02:56:49Z</time>
            </trkpt>
            <trkpt lon="101.386915" lat="14.176194">
                <ele>247.100000</ele>
                <time>1970-01-01T02:56:50Z</time>
            </trkpt>
            <trkpt lon="101.386880" lat="14.176154">
                <ele>246.400000</ele>
                <time>1970-01-01T02:56:51Z</time>
            </trkpt>
            <trkpt lon="101.386843" lat="14.176118">
                <ele>245.800000</ele>
                <time>1970-01-01T02:56:52Z</time>
            </trkpt>
            <trkpt lon="101.386828" lat="14.176058">
                <ele>245.100000</ele>
                <time>1970-01-01T02:56:54Z</time>
            </trkpt>
            <trkpt lon="101.386811" lat="14.176024">
                <ele>244.600000</ele>
                <time>1970-01-01T02:56:55Z</time>
            </trkpt>
            <trkpt lon="101.386797" lat="14.175990">
                <ele>244.200000</ele>
                <time>1970-01-01T02:56:56Z</time>
            </trkpt>
            <trkpt lon="101.386783" lat="14.175951">
                <ele>243.800000</ele>
                <time>1970-01-01T02:56:58Z</time>
            </trkpt>
            <trkpt lon="101.386738" lat="14.175913">
                <ele>243.200000</ele>
                <time>1970-01-01T02:57:00Z</time>
            </trkpt>
            <trkpt lon="101.386683" lat="14.175881">
                <ele>242.600000</ele>
                <time>1970-01-01T02:57:02Z</time>
            </trkpt>
            <trkpt lon="101.386644" lat="14.175865">
                <ele>242.100000</ele>
                <time>1970-01-01T02:57:03Z</time>
            </trkpt>
            <trkpt lon="101.386610" lat="14.175848">
                <ele>241.700000</ele>
                <time>1970-01-01T02:57:04Z</time>
            </trkpt>
            <trkpt lon="101.386581" lat="14.175834">
                <ele>241.200000</ele>
                <time>1970-01-01T02:57:05Z</time>
            </trkpt>
            <trkpt lon="101.386554" lat="14.175825">
                <ele>240.800000</ele>
                <time>1970-01-01T02:57:06Z</time>
            </trkpt>
            <trkpt lon="101.386517" lat="14.175818">
                <ele>240.100000</ele>
                <time>1970-01-01T02:57:08Z</time>
            </trkpt>
            <trkpt lon="101.386499" lat="14.175789">
                <ele>239.400000</ele>
                <time>1970-01-01T02:57:10Z</time>
            </trkpt>
            <trkpt lon="101.386496" lat="14.175740">
                <ele>238.400000</ele>
                <time>1970-01-01T02:57:13Z</time>
            </trkpt>
            <trkpt lon="101.386494" lat="14.175703">
                <ele>237.800000</ele>
                <time>1970-01-01T02:57:14Z</time>
            </trkpt>
            <trkpt lon="101.386490" lat="14.175662">
                <ele>237.000000</ele>
                <time>1970-01-01T02:57:15Z</time>
            </trkpt>
            <trkpt lon="101.386486" lat="14.175626">
                <ele>236.600000</ele>
                <time>1970-01-01T02:57:16Z</time>
            </trkpt>
            <trkpt lon="101.386476" lat="14.175592">
                <ele>236.100000</ele>
                <time>1970-01-01T02:57:17Z</time>
            </trkpt>
            <trkpt lon="101.386463" lat="14.175552">
                <ele>235.600000</ele>
                <time>1970-01-01T02:57:18Z</time>
            </trkpt>
            <trkpt lon="101.386447" lat="14.175515">
                <ele>235.200000</ele>
                <time>1970-01-01T02:57:19Z</time>
            </trkpt>
            <trkpt lon="101.386435" lat="14.175471">
                <ele>234.800000</ele>
                <time>1970-01-01T02:57:20Z</time>
            </trkpt>
            <trkpt lon="101.386433" lat="14.175433">
                <ele>234.500000</ele>
                <time>1970-01-01T02:57:21Z</time>
            </trkpt>
            <trkpt lon="101.386441" lat="14.175402">
                <ele>234.200000</ele>
                <time>1970-01-01T02:57:22Z</time>
            </trkpt>
            <trkpt lon="101.386458" lat="14.175377">
                <ele>234.100000</ele>
                <time>1970-01-01T02:57:23Z</time>
            </trkpt>
            <trkpt lon="101.386484" lat="14.175344">
                <ele>234.000000</ele>
                <time>1970-01-01T02:57:24Z</time>
            </trkpt>
            <trkpt lon="101.386513" lat="14.175305">
                <ele>233.900000</ele>
                <time>1970-01-01T02:57:25Z</time>
            </trkpt>
            <trkpt lon="101.386534" lat="14.175268">
                <ele>233.800000</ele>
                <time>1970-01-01T02:57:26Z</time>
            </trkpt>
            <trkpt lon="101.386553" lat="14.175231">
                <ele>233.800000</ele>
                <time>1970-01-01T02:57:27Z</time>
            </trkpt>
            <trkpt lon="101.386568" lat="14.175197">
                <ele>233.800000</ele>
                <time>1970-01-01T02:57:28Z</time>
            </trkpt>
            <trkpt lon="101.386580" lat="14.175166">
                <ele>233.700000</ele>
                <time>1970-01-01T02:57:29Z</time>
            </trkpt>
            <trkpt lon="101.386594" lat="14.175135">
                <ele>233.700000</ele>
                <time>1970-01-01T02:57:30Z</time>
            </trkpt>
            <trkpt lon="101.386610" lat="14.175105">
                <ele>233.700000</ele>
                <time>1970-01-01T02:57:31Z</time>
            </trkpt>
            <trkpt lon="101.386634" lat="14.175062">
                <ele>233.600000</ele>
                <time>1970-01-01T02:57:33Z</time>
            </trkpt>
            <trkpt lon="101.386645" lat="14.175035">
                <ele>233.600000</ele>
                <time>1970-01-01T02:57:34Z</time>
            </trkpt>
            <trkpt lon="101.386661" lat="14.174998">
                <ele>233.600000</ele>
                <time>1970-01-01T02:57:35Z</time>
            </trkpt>
            <trkpt lon="101.386674" lat="14.174954">
                <ele>233.500000</ele>
                <time>1970-01-01T02:57:36Z</time>
            </trkpt>
            <trkpt lon="101.386683" lat="14.174910">
                <ele>233.500000</ele>
                <time>1970-01-01T02:57:37Z</time>
            </trkpt>
            <trkpt lon="101.386682" lat="14.174864">
                <ele>233.500000</ele>
                <time>1970-01-01T02:57:38Z</time>
            </trkpt>
            <trkpt lon="101.386674" lat="14.174819">
                <ele>233.500000</ele>
                <time>1970-01-01T02:57:39Z</time>
            </trkpt>
            <trkpt lon="101.386661" lat="14.174781">
                <ele>233.400000</ele>
                <time>1970-01-01T02:57:40Z</time>
            </trkpt>
            <trkpt lon="101.386638" lat="14.174745">
                <ele>233.400000</ele>
                <time>1970-01-01T02:57:41Z</time>
            </trkpt>
            <trkpt lon="101.386612" lat="14.174714">
                <ele>233.400000</ele>
                <time>1970-01-01T02:57:42Z</time>
            </trkpt>
            <trkpt lon="101.386587" lat="14.174687">
                <ele>233.400000</ele>
                <time>1970-01-01T02:57:43Z</time>
            </trkpt>
            <trkpt lon="101.386565" lat="14.174662">
                <ele>233.300000</ele>
                <time>1970-01-01T02:57:44Z</time>
            </trkpt>
            <trkpt lon="101.386542" lat="14.174639">
                <ele>233.300000</ele>
                <time>1970-01-01T02:57:45Z</time>
            </trkpt>
            <trkpt lon="101.386517" lat="14.174617">
                <ele>233.300000</ele>
                <time>1970-01-01T02:57:46Z</time>
            </trkpt>
            <trkpt lon="101.386482" lat="14.174586">
                <ele>233.300000</ele>
                <time>1970-01-01T02:57:48Z</time>
            </trkpt>
            <trkpt lon="101.386441" lat="14.174557">
                <ele>233.300000</ele>
                <time>1970-01-01T02:57:50Z</time>
            </trkpt>
            <trkpt lon="101.386401" lat="14.174527">
                <ele>233.200000</ele>
                <time>1970-01-01T02:57:52Z</time>
            </trkpt>
            <trkpt lon="101.386366" lat="14.174500">
                <ele>233.200000</ele>
                <time>1970-01-01T02:57:54Z</time>
            </trkpt>
            <trkpt lon="101.386343" lat="14.174481">
                <ele>233.200000</ele>
                <time>1970-01-01T02:57:56Z</time>
            </trkpt>
            <trkpt lon="101.386316" lat="14.174461">
                <ele>233.100000</ele>
                <time>1970-01-01T02:57:58Z</time>
            </trkpt>
            <trkpt lon="101.386283" lat="14.174421">
                <ele>233.100000</ele>
                <time>1970-01-01T02:58:00Z</time>
            </trkpt>
            <trkpt lon="101.386249" lat="14.174389">
                <ele>233.000000</ele>
                <time>1970-01-01T02:58:02Z</time>
            </trkpt>
            <trkpt lon="101.386227" lat="14.174367">
                <ele>233.000000</ele>
                <time>1970-01-01T02:58:03Z</time>
            </trkpt>
            <trkpt lon="101.386207" lat="14.174345">
                <ele>232.900000</ele>
                <time>1970-01-01T02:58:04Z</time>
            </trkpt>
            <trkpt lon="101.386187" lat="14.174318">
                <ele>232.900000</ele>
                <time>1970-01-01T02:58:05Z</time>
            </trkpt>
            <trkpt lon="101.386168" lat="14.174287">
                <ele>232.800000</ele>
                <time>1970-01-01T02:58:06Z</time>
            </trkpt>
            <trkpt lon="101.386152" lat="14.174257">
                <ele>232.700000</ele>
                <time>1970-01-01T02:58:07Z</time>
            </trkpt>
            <trkpt lon="101.386138" lat="14.174227">
                <ele>232.500000</ele>
                <time>1970-01-01T02:58:08Z</time>
            </trkpt>
            <trkpt lon="101.386128" lat="14.174194">
                <ele>232.400000</ele>
                <time>1970-01-01T02:58:09Z</time>
            </trkpt>
            <trkpt lon="101.386122" lat="14.174161">
                <ele>232.300000</ele>
                <time>1970-01-01T02:58:10Z</time>
            </trkpt>
            <trkpt lon="101.386119" lat="14.174134">
                <ele>232.100000</ele>
                <time>1970-01-01T02:58:11Z</time>
            </trkpt>
            <trkpt lon="101.386119" lat="14.174101">
                <ele>231.900000</ele>
                <time>1970-01-01T02:58:12Z</time>
            </trkpt>
            <trkpt lon="101.386124" lat="14.174057">
                <ele>231.400000</ele>
                <time>1970-01-01T02:58:13Z</time>
            </trkpt>
            <trkpt lon="101.386132" lat="14.174017">
                <ele>230.800000</ele>
                <time>1970-01-01T02:58:14Z</time>
            </trkpt>
            <trkpt lon="101.386140" lat="14.173982">
                <ele>230.500000</ele>
                <time>1970-01-01T02:58:15Z</time>
            </trkpt>
            <trkpt lon="101.386141" lat="14.173908">
                <ele>229.600000</ele>
                <time>1970-01-01T02:58:16Z</time>
            </trkpt>
            <trkpt lon="101.386138" lat="14.173861">
                <ele>229.100000</ele>
                <time>1970-01-01T02:58:17Z</time>
            </trkpt>
            <trkpt lon="101.386138" lat="14.173813">
                <ele>228.400000</ele>
                <time>1970-01-01T02:58:18Z</time>
            </trkpt>
            <trkpt lon="101.386149" lat="14.173779">
                <ele>227.700000</ele>
                <time>1970-01-01T02:58:21Z</time>
            </trkpt>
            <trkpt lon="101.386156" lat="14.173753">
                <ele>227.100000</ele>
                <time>1970-01-01T02:58:23Z</time>
            </trkpt>
            <trkpt lon="101.386192" lat="14.173765">
                <ele>226.300000</ele>
                <time>1970-01-01T02:58:25Z</time>
            </trkpt>
            <trkpt lon="101.386205" lat="14.173731">
                <ele>225.400000</ele>
                <time>1970-01-01T02:58:28Z</time>
            </trkpt>
            <trkpt lon="101.386223" lat="14.173708">
                <ele>224.700000</ele>
                <time>1970-01-01T02:58:30Z</time>
            </trkpt>
            <trkpt lon="101.386249" lat="14.173673">
                <ele>223.700000</ele>
                <time>1970-01-01T02:58:32Z</time>
            </trkpt>
            <trkpt lon="101.386266" lat="14.173628">
                <ele>222.800000</ele>
                <time>1970-01-01T02:58:34Z</time>
            </trkpt>
            <trkpt lon="101.386267" lat="14.173574">
                <ele>221.800000</ele>
                <time>1970-01-01T02:58:36Z</time>
            </trkpt>
            <trkpt lon="101.386265" lat="14.173539">
                <ele>221.200000</ele>
                <time>1970-01-01T02:58:37Z</time>
            </trkpt>
            <trkpt lon="101.386270" lat="14.173503">
                <ele>220.700000</ele>
                <time>1970-01-01T02:58:38Z</time>
            </trkpt>
            <trkpt lon="101.386274" lat="14.173464">
                <ele>220.300000</ele>
                <time>1970-01-01T02:58:39Z</time>
            </trkpt>
            <trkpt lon="101.386277" lat="14.173430">
                <ele>219.800000</ele>
                <time>1970-01-01T02:58:40Z</time>
            </trkpt>
            <trkpt lon="101.386281" lat="14.173402">
                <ele>219.400000</ele>
                <time>1970-01-01T02:58:41Z</time>
            </trkpt>
            <trkpt lon="101.386278" lat="14.173362">
                <ele>218.900000</ele>
                <time>1970-01-01T02:58:43Z</time>
            </trkpt>
            <trkpt lon="101.386264" lat="14.173326">
                <ele>218.400000</ele>
                <time>1970-01-01T02:58:45Z</time>
            </trkpt>
            <trkpt lon="101.386254" lat="14.173289">
                <ele>217.900000</ele>
                <time>1970-01-01T02:58:47Z</time>
            </trkpt>
            <trkpt lon="101.386241" lat="14.173250">
                <ele>217.500000</ele>
                <time>1970-01-01T02:58:49Z</time>
            </trkpt>
            <trkpt lon="101.386233" lat="14.173210">
                <ele>217.100000</ele>
                <time>1970-01-01T02:58:51Z</time>
            </trkpt>
            <trkpt lon="101.386235" lat="14.173160">
                <ele>216.600000</ele>
                <time>1970-01-01T02:58:53Z</time>
            </trkpt>
            <trkpt lon="101.386247" lat="14.173131">
                <ele>216.200000</ele>
                <time>1970-01-01T02:58:54Z</time>
            </trkpt>
            <trkpt lon="101.386272" lat="14.173104">
                <ele>215.500000</ele>
                <time>1970-01-01T02:58:55Z</time>
            </trkpt>
            <trkpt lon="101.386301" lat="14.173082">
                <ele>215.000000</ele>
                <time>1970-01-01T02:58:56Z</time>
            </trkpt>
            <trkpt lon="101.386333" lat="14.173062">
                <ele>214.500000</ele>
                <time>1970-01-01T02:58:57Z</time>
            </trkpt>
            <trkpt lon="101.386375" lat="14.173021">
                <ele>213.700000</ele>
                <time>1970-01-01T02:58:58Z</time>
            </trkpt>
            <trkpt lon="101.386418" lat="14.173004">
                <ele>213.100000</ele>
                <time>1970-01-01T02:58:59Z</time>
            </trkpt>
            <trkpt lon="101.386457" lat="14.172974">
                <ele>212.300000</ele>
                <time>1970-01-01T02:59:00Z</time>
            </trkpt>
            <trkpt lon="101.386493" lat="14.172962">
                <ele>211.700000</ele>
                <time>1970-01-01T02:59:01Z</time>
            </trkpt>
            <trkpt lon="101.386547" lat="14.172936">
                <ele>211.000000</ele>
                <time>1970-01-01T02:59:03Z</time>
            </trkpt>
            <trkpt lon="101.386576" lat="14.172930">
                <ele>210.700000</ele>
                <time>1970-01-01T02:59:04Z</time>
            </trkpt>
            <trkpt lon="101.386607" lat="14.172907">
                <ele>210.200000</ele>
                <time>1970-01-01T02:59:05Z</time>
            </trkpt>
            <trkpt lon="101.386630" lat="14.172877">
                <ele>209.500000</ele>
                <time>1970-01-01T02:59:06Z</time>
            </trkpt>
            <trkpt lon="101.386646" lat="14.172849">
                <ele>209.200000</ele>
                <time>1970-01-01T02:59:07Z</time>
            </trkpt>
            <trkpt lon="101.386670" lat="14.172828">
                <ele>208.800000</ele>
                <time>1970-01-01T02:59:09Z</time>
            </trkpt>
            <trkpt lon="101.386697" lat="14.172811">
                <ele>208.500000</ele>
                <time>1970-01-01T02:59:13Z</time>
            </trkpt>
            <trkpt lon="101.386722" lat="14.172783">
                <ele>208.000000</ele>
                <time>1970-01-01T02:59:15Z</time>
            </trkpt>
            <trkpt lon="101.386748" lat="14.172759">
                <ele>207.300000</ele>
                <time>1970-01-01T02:59:17Z</time>
            </trkpt>
            <trkpt lon="101.386771" lat="14.172725">
                <ele>206.700000</ele>
                <time>1970-01-01T02:59:19Z</time>
            </trkpt>
            <trkpt lon="101.386787" lat="14.172701">
                <ele>206.300000</ele>
                <time>1970-01-01T02:59:21Z</time>
            </trkpt>
            <trkpt lon="101.386808" lat="14.172681">
                <ele>205.800000</ele>
                <time>1970-01-01T02:59:24Z</time>
            </trkpt>
            <trkpt lon="101.386825" lat="14.172647">
                <ele>205.000000</ele>
                <time>1970-01-01T02:59:27Z</time>
            </trkpt>
            <trkpt lon="101.386841" lat="14.172615">
                <ele>204.000000</ele>
                <time>1970-01-01T02:59:30Z</time>
            </trkpt>
            <trkpt lon="101.386876" lat="14.172582">
                <ele>202.700000</ele>
                <time>1970-01-01T02:59:38Z</time>
            </trkpt>
            <trkpt lon="101.386892" lat="14.172556">
                <ele>201.800000</ele>
                <time>1970-01-01T02:59:45Z</time>
            </trkpt>
            <trkpt lon="101.386917" lat="14.172534">
                <ele>200.800000</ele>
                <time>1970-01-01T02:59:48Z</time>
            </trkpt>
            <trkpt lon="101.386929" lat="14.172504">
                <ele>199.800000</ele>
                <time>1970-01-01T02:59:53Z</time>
            </trkpt>
            <trkpt lon="101.386944" lat="14.172478">
                <ele>199.000000</ele>
                <time>1970-01-01T03:00:06Z</time>
            </trkpt>
            <trkpt lon="101.386962" lat="14.172445">
                <ele>198.000000</ele>
                <time>1970-01-01T03:00:08Z</time>
            </trkpt>
            <trkpt lon="101.386983" lat="14.172410">
                <ele>197.200000</ele>
                <time>1970-01-01T03:00:10Z</time>
            </trkpt>
            <trkpt lon="101.387005" lat="14.172364">
                <ele>196.400000</ele>
                <time>1970-01-01T03:00:12Z</time>
            </trkpt>
            <trkpt lon="101.387014" lat="14.172311">
                <ele>195.700000</ele>
                <time>1970-01-01T03:00:14Z</time>
            </trkpt>
            <trkpt lon="101.387015" lat="14.172280">
                <ele>195.300000</ele>
                <time>1970-01-01T03:00:15Z</time>
            </trkpt>
            <trkpt lon="101.387015" lat="14.172247">
                <ele>194.900000</ele>
                <time>1970-01-01T03:00:16Z</time>
            </trkpt>
            <trkpt lon="101.387014" lat="14.172215">
                <ele>194.400000</ele>
                <time>1970-01-01T03:00:17Z</time>
            </trkpt>
            <trkpt lon="101.387010" lat="14.172165">
                <ele>193.700000</ele>
                <time>1970-01-01T03:00:19Z</time>
            </trkpt>
            <trkpt lon="101.387009" lat="14.172137">
                <ele>193.300000</ele>
                <time>1970-01-01T03:00:20Z</time>
            </trkpt>
            <trkpt lon="101.387010" lat="14.172109">
                <ele>192.900000</ele>
                <time>1970-01-01T03:00:21Z</time>
            </trkpt>
            <trkpt lon="101.387007" lat="14.172055">
                <ele>192.000000</ele>
                <time>1970-01-01T03:00:23Z</time>
            </trkpt>
            <trkpt lon="101.387007" lat="14.172026">
                <ele>191.700000</ele>
                <time>1970-01-01T03:00:24Z</time>
            </trkpt>
            <trkpt lon="101.387009" lat="14.171997">
                <ele>191.400000</ele>
                <time>1970-01-01T03:00:25Z</time>
            </trkpt>
            <trkpt lon="101.387008" lat="14.171933">
                <ele>190.700000</ele>
                <time>1970-01-01T03:00:27Z</time>
            </trkpt>
            <trkpt lon="101.387008" lat="14.171886">
                <ele>190.100000</ele>
                <time>1970-01-01T03:00:28Z</time>
            </trkpt>
            <trkpt lon="101.387010" lat="14.171842">
                <ele>189.700000</ele>
                <time>1970-01-01T03:00:29Z</time>
            </trkpt>
            <trkpt lon="101.387012" lat="14.171808">
                <ele>189.300000</ele>
                <time>1970-01-01T03:00:30Z</time>
            </trkpt>
            <trkpt lon="101.387014" lat="14.171779">
                <ele>189.000000</ele>
                <time>1970-01-01T03:00:31Z</time>
            </trkpt>
            <trkpt lon="101.387013" lat="14.171725">
                <ele>188.300000</ele>
                <time>1970-01-01T03:00:33Z</time>
            </trkpt>
            <trkpt lon="101.387008" lat="14.171690">
                <ele>188.000000</ele>
                <time>1970-01-01T03:00:34Z</time>
            </trkpt>
            <trkpt lon="101.387003" lat="14.171649">
                <ele>187.600000</ele>
                <time>1970-01-01T03:00:35Z</time>
            </trkpt>
            <trkpt lon="101.387000" lat="14.171608">
                <ele>187.300000</ele>
                <time>1970-01-01T03:00:36Z</time>
            </trkpt>
            <trkpt lon="101.387011" lat="14.171536">
                <ele>186.700000</ele>
                <time>1970-01-01T03:00:37Z</time>
            </trkpt>
            <trkpt lon="101.387010" lat="14.171490">
                <ele>186.300000</ele>
                <time>1970-01-01T03:00:38Z</time>
            </trkpt>
            <trkpt lon="101.386996" lat="14.171430">
                <ele>185.900000</ele>
                <time>1970-01-01T03:00:40Z</time>
            </trkpt>
            <trkpt lon="101.386989" lat="14.171401">
                <ele>185.700000</ele>
                <time>1970-01-01T03:00:41Z</time>
            </trkpt>
            <trkpt lon="101.386994" lat="14.171363">
                <ele>185.400000</ele>
                <time>1970-01-01T03:00:43Z</time>
            </trkpt>
            <trkpt lon="101.386983" lat="14.171329">
                <ele>185.100000</ele>
                <time>1970-01-01T03:00:44Z</time>
            </trkpt>
            <trkpt lon="101.387001" lat="14.171293">
                <ele>184.600000</ele>
                <time>1970-01-01T03:00:46Z</time>
            </trkpt>
            <trkpt lon="101.387003" lat="14.171258">
                <ele>184.100000</ele>
                <time>1970-01-01T03:00:47Z</time>
            </trkpt>
            <trkpt lon="101.387016" lat="14.171212">
                <ele>183.500000</ele>
                <time>1970-01-01T03:00:49Z</time>
            </trkpt>
            <trkpt lon="101.387025" lat="14.171177">
                <ele>183.200000</ele>
                <time>1970-01-01T03:00:52Z</time>
            </trkpt>
            <trkpt lon="101.387034" lat="14.171145">
                <ele>182.900000</ele>
                <time>1970-01-01T03:00:56Z</time>
            </trkpt>
            <trkpt lon="101.387053" lat="14.171112">
                <ele>182.600000</ele>
                <time>1970-01-01T03:00:59Z</time>
            </trkpt>
            <trkpt lon="101.387056" lat="14.171082">
                <ele>182.300000</ele>
                <time>1970-01-01T03:01:02Z</time>
            </trkpt>
            <trkpt lon="101.387070" lat="14.171058">
                <ele>182.100000</ele>
                <time>1970-01-01T03:01:04Z</time>
            </trkpt>
            <trkpt lon="101.387096" lat="14.171026">
                <ele>181.700000</ele>
                <time>1970-01-01T03:01:07Z</time>
            </trkpt>
            <trkpt lon="101.387115" lat="14.171001">
                <ele>181.300000</ele>
                <time>1970-01-01T03:01:09Z</time>
            </trkpt>
            <trkpt lon="101.387140" lat="14.170982">
                <ele>181.000000</ele>
                <time>1970-01-01T03:01:11Z</time>
            </trkpt>
            <trkpt lon="101.387164" lat="14.170950">
                <ele>180.400000</ele>
                <time>1970-01-01T03:01:13Z</time>
            </trkpt>
            <trkpt lon="101.387189" lat="14.170933">
                <ele>179.800000</ele>
                <time>1970-01-01T03:01:15Z</time>
            </trkpt>
            <trkpt lon="101.387222" lat="14.170918">
                <ele>179.300000</ele>
                <time>1970-01-01T03:01:17Z</time>
            </trkpt>
            <trkpt lon="101.387256" lat="14.170897">
                <ele>178.700000</ele>
                <time>1970-01-01T03:01:19Z</time>
            </trkpt>
            <trkpt lon="101.387304" lat="14.170884">
                <ele>178.500000</ele>
                <time>1970-01-01T03:01:21Z</time>
            </trkpt>
            <trkpt lon="101.387358" lat="14.170868">
                <ele>178.200000</ele>
                <time>1970-01-01T03:01:23Z</time>
            </trkpt>
            <trkpt lon="101.387386" lat="14.170860">
                <ele>177.700000</ele>
                <time>1970-01-01T03:01:24Z</time>
            </trkpt>
            <trkpt lon="101.387416" lat="14.170852">
                <ele>177.400000</ele>
                <time>1970-01-01T03:01:25Z</time>
            </trkpt>
            <trkpt lon="101.387447" lat="14.170842">
                <ele>177.400000</ele>
                <time>1970-01-01T03:01:26Z</time>
            </trkpt>
            <trkpt lon="101.387479" lat="14.170832">
                <ele>177.100000</ele>
                <time>1970-01-01T03:01:27Z</time>
            </trkpt>
            <trkpt lon="101.387512" lat="14.170824">
                <ele>176.800000</ele>
                <time>1970-01-01T03:01:28Z</time>
            </trkpt>
            <trkpt lon="101.387549" lat="14.170814">
                <ele>176.300000</ele>
                <time>1970-01-01T03:01:29Z</time>
            </trkpt>
            <trkpt lon="101.387603" lat="14.170805">
                <ele>176.100000</ele>
                <time>1970-01-01T03:01:31Z</time>
            </trkpt>
            <trkpt lon="101.387638" lat="14.170801">
                <ele>175.800000</ele>
                <time>1970-01-01T03:01:32Z</time>
            </trkpt>
            <trkpt lon="101.387673" lat="14.170797">
                <ele>175.500000</ele>
                <time>1970-01-01T03:01:33Z</time>
            </trkpt>
            <trkpt lon="101.387699" lat="14.170787">
                <ele>175.500000</ele>
                <time>1970-01-01T03:01:34Z</time>
            </trkpt>
            <trkpt lon="101.387748" lat="14.170765">
                <ele>174.900000</ele>
                <time>1970-01-01T03:01:36Z</time>
            </trkpt>
            <trkpt lon="101.387773" lat="14.170744">
                <ele>174.600000</ele>
                <time>1970-01-01T03:01:37Z</time>
            </trkpt>
            <trkpt lon="101.387773" lat="14.170716">
                <ele>174.100000</ele>
                <time>1970-01-01T03:01:38Z</time>
            </trkpt>
            <trkpt lon="101.387780" lat="14.170673">
                <ele>173.600000</ele>
                <time>1970-01-01T03:01:40Z</time>
            </trkpt>
            <trkpt lon="101.387783" lat="14.170646">
                <ele>173.200000</ele>
                <time>1970-01-01T03:01:41Z</time>
            </trkpt>
            <trkpt lon="101.387782" lat="14.170592">
                <ele>172.700000</ele>
                <time>1970-01-01T03:01:43Z</time>
            </trkpt>
            <trkpt lon="101.387775" lat="14.170545">
                <ele>172.500000</ele>
                <time>1970-01-01T03:01:45Z</time>
            </trkpt>
            <trkpt lon="101.387771" lat="14.170505">
                <ele>172.200000</ele>
                <time>1970-01-01T03:01:47Z</time>
            </trkpt>
            <trkpt lon="101.387779" lat="14.170459">
                <ele>171.900000</ele>
                <time>1970-01-01T03:01:49Z</time>
            </trkpt>
            <trkpt lon="101.387795" lat="14.170435">
                <ele>171.700000</ele>
                <time>1970-01-01T03:01:50Z</time>
            </trkpt>
            <trkpt lon="101.387821" lat="14.170408">
                <ele>171.700000</ele>
                <time>1970-01-01T03:01:51Z</time>
            </trkpt>
            <trkpt lon="101.387849" lat="14.170381">
                <ele>171.700000</ele>
                <time>1970-01-01T03:01:52Z</time>
            </trkpt>
            <trkpt lon="101.387873" lat="14.170353">
                <ele>171.700000</ele>
                <time>1970-01-01T03:01:53Z</time>
            </trkpt>
            <trkpt lon="101.387894" lat="14.170320">
                <ele>171.600000</ele>
                <time>1970-01-01T03:01:54Z</time>
            </trkpt>
            <trkpt lon="101.387912" lat="14.170283">
                <ele>171.600000</ele>
                <time>1970-01-01T03:01:55Z</time>
            </trkpt>
            <trkpt lon="101.387927" lat="14.170246">
                <ele>171.700000</ele>
                <time>1970-01-01T03:01:56Z</time>
            </trkpt>
            <trkpt lon="101.387955" lat="14.170213">
                <ele>171.800000</ele>
                <time>1970-01-01T03:01:57Z</time>
            </trkpt>
            <trkpt lon="101.387988" lat="14.170182">
                <ele>171.700000</ele>
                <time>1970-01-01T03:01:58Z</time>
            </trkpt>
            <trkpt lon="101.388026" lat="14.170152">
                <ele>171.300000</ele>
                <time>1970-01-01T03:01:59Z</time>
            </trkpt>
            <trkpt lon="101.388052" lat="14.170137">
                <ele>171.300000</ele>
                <time>1970-01-01T03:02:00Z</time>
            </trkpt>
            <trkpt lon="101.388105" lat="14.170113">
                <ele>170.300000</ele>
                <time>1970-01-01T03:02:02Z</time>
            </trkpt>
            <trkpt lon="101.388148" lat="14.170096">
                <ele>169.800000</ele>
                <time>1970-01-01T03:02:03Z</time>
            </trkpt>
            <trkpt lon="101.388180" lat="14.170082">
                <ele>169.800000</ele>
                <time>1970-01-01T03:02:04Z</time>
            </trkpt>
            <trkpt lon="101.388212" lat="14.170065">
                <ele>169.300000</ele>
                <time>1970-01-01T03:02:06Z</time>
            </trkpt>
            <trkpt lon="101.388239" lat="14.170057">
                <ele>168.700000</ele>
                <time>1970-01-01T03:02:08Z</time>
            </trkpt>
            <trkpt lon="101.388211" lat="14.170052">
                <ele>169.300000</ele>
                <time>1970-01-01T03:02:26Z</time>
            </trkpt>
            <trkpt lon="101.388180" lat="14.170063">
                <ele>169.800000</ele>
                <time>1970-01-01T03:02:32Z</time>
            </trkpt>
            <trkpt lon="101.388129" lat="14.170060">
                <ele>170.400000</ele>
                <time>1970-01-01T03:02:40Z</time>
            </trkpt>
            <trkpt lon="101.388082" lat="14.170068">
                <ele>170.900000</ele>
                <time>1970-01-01T03:02:42Z</time>
            </trkpt>
            <trkpt lon="101.388056" lat="14.170058">
                <ele>171.400000</ele>
                <time>1970-01-01T03:02:45Z</time>
            </trkpt>
            <trkpt lon="101.388041" lat="14.170029">
                <ele>171.600000</ele>
                <time>1970-01-01T03:02:52Z</time>
            </trkpt>
            <trkpt lon="101.388025" lat="14.170000">
                <ele>171.600000</ele>
                <time>1970-01-01T03:02:55Z</time>
            </trkpt>
            <trkpt lon="101.387997" lat="14.169976">
                <ele>172.300000</ele>
                <time>1970-01-01T03:02:58Z</time>
            </trkpt>
            <trkpt lon="101.387971" lat="14.169955">
                <ele>172.800000</ele>
                <time>1970-01-01T03:03:01Z</time>
            </trkpt>
            <trkpt lon="101.387950" lat="14.169934">
                <ele>173.000000</ele>
                <time>1970-01-01T03:03:05Z</time>
            </trkpt>
            <trkpt lon="101.387944" lat="14.169901">
                <ele>172.900000</ele>
                <time>1970-01-01T03:03:08Z</time>
            </trkpt>
            <trkpt lon="101.387942" lat="14.169871">
                <ele>172.900000</ele>
                <time>1970-01-01T03:03:11Z</time>
            </trkpt>
            <trkpt lon="101.387939" lat="14.169841">
                <ele>172.900000</ele>
                <time>1970-01-01T03:03:14Z</time>
            </trkpt>
            <trkpt lon="101.387929" lat="14.169816">
                <ele>173.300000</ele>
                <time>1970-01-01T03:03:18Z</time>
            </trkpt>
            <trkpt lon="101.387909" lat="14.169776">
                <ele>173.400000</ele>
                <time>1970-01-01T03:03:21Z</time>
            </trkpt>
            <trkpt lon="101.387901" lat="14.169740">
                <ele>173.600000</ele>
                <time>1970-01-01T03:03:23Z</time>
            </trkpt>
            <trkpt lon="101.387901" lat="14.169698">
                <ele>173.800000</ele>
                <time>1970-01-01T03:03:25Z</time>
            </trkpt>
            <trkpt lon="101.387889" lat="14.169646">
                <ele>174.000000</ele>
                <time>1970-01-01T03:03:27Z</time>
            </trkpt>
            <trkpt lon="101.387876" lat="14.169615">
                <ele>174.400000</ele>
                <time>1970-01-01T03:03:28Z</time>
            </trkpt>
            <trkpt lon="101.387864" lat="14.169586">
                <ele>174.400000</ele>
                <time>1970-01-01T03:03:29Z</time>
            </trkpt>
            <trkpt lon="101.387850" lat="14.169548">
                <ele>174.300000</ele>
                <time>1970-01-01T03:03:31Z</time>
            </trkpt>
            <trkpt lon="101.387842" lat="14.169499">
                <ele>174.100000</ele>
                <time>1970-01-01T03:03:33Z</time>
            </trkpt>
            <trkpt lon="101.387837" lat="14.169469">
                <ele>173.900000</ele>
                <time>1970-01-01T03:03:34Z</time>
            </trkpt>
            <trkpt lon="101.387834" lat="14.169434">
                <ele>173.600000</ele>
                <time>1970-01-01T03:03:35Z</time>
            </trkpt>
            <trkpt lon="101.387836" lat="14.169400">
                <ele>173.200000</ele>
                <time>1970-01-01T03:03:36Z</time>
            </trkpt>
            <trkpt lon="101.387842" lat="14.169372">
                <ele>172.900000</ele>
                <time>1970-01-01T03:03:37Z</time>
            </trkpt>
            <trkpt lon="101.387850" lat="14.169346">
                <ele>172.600000</ele>
                <time>1970-01-01T03:03:38Z</time>
            </trkpt>
            <trkpt lon="101.387866" lat="14.169319">
                <ele>172.200000</ele>
                <time>1970-01-01T03:03:39Z</time>
            </trkpt>
            <trkpt lon="101.387884" lat="14.169295">
                <ele>171.800000</ele>
                <time>1970-01-01T03:03:40Z</time>
            </trkpt>
            <trkpt lon="101.387922" lat="14.169265">
                <ele>171.300000</ele>
                <time>1970-01-01T03:03:42Z</time>
            </trkpt>
            <trkpt lon="101.387963" lat="14.169225">
                <ele>170.700000</ele>
                <time>1970-01-01T03:03:44Z</time>
            </trkpt>
            <trkpt lon="101.387979" lat="14.169198">
                <ele>170.400000</ele>
                <time>1970-01-01T03:03:45Z</time>
            </trkpt>
            <trkpt lon="101.387994" lat="14.169173">
                <ele>170.200000</ele>
                <time>1970-01-01T03:03:46Z</time>
            </trkpt>
            <trkpt lon="101.388031" lat="14.169136">
                <ele>169.800000</ele>
                <time>1970-01-01T03:03:48Z</time>
            </trkpt>
            <trkpt lon="101.388063" lat="14.169119">
                <ele>169.500000</ele>
                <time>1970-01-01T03:03:49Z</time>
            </trkpt>
            <trkpt lon="101.388095" lat="14.169098">
                <ele>169.200000</ele>
                <time>1970-01-01T03:03:50Z</time>
            </trkpt>
            <trkpt lon="101.388120" lat="14.169080">
                <ele>169.000000</ele>
                <time>1970-01-01T03:03:51Z</time>
            </trkpt>
            <trkpt lon="101.388147" lat="14.169050">
                <ele>168.600000</ele>
                <time>1970-01-01T03:03:52Z</time>
            </trkpt>
            <trkpt lon="101.388179" lat="14.169011">
                <ele>167.900000</ele>
                <time>1970-01-01T03:03:53Z</time>
            </trkpt>
            <trkpt lon="101.388212" lat="14.168974">
                <ele>167.300000</ele>
                <time>1970-01-01T03:03:54Z</time>
            </trkpt>
            <trkpt lon="101.388240" lat="14.168944">
                <ele>167.000000</ele>
                <time>1970-01-01T03:03:55Z</time>
            </trkpt>
            <trkpt lon="101.388260" lat="14.168920">
                <ele>166.800000</ele>
                <time>1970-01-01T03:03:56Z</time>
            </trkpt>
            <trkpt lon="101.388276" lat="14.168895">
                <ele>166.600000</ele>
                <time>1970-01-01T03:03:57Z</time>
            </trkpt>
            <trkpt lon="101.388294" lat="14.168866">
                <ele>166.400000</ele>
                <time>1970-01-01T03:03:58Z</time>
            </trkpt>
            <trkpt lon="101.388314" lat="14.168835">
                <ele>166.300000</ele>
                <time>1970-01-01T03:03:59Z</time>
            </trkpt>
            <trkpt lon="101.388333" lat="14.168806">
                <ele>166.100000</ele>
                <time>1970-01-01T03:04:00Z</time>
            </trkpt>
            <trkpt lon="101.388352" lat="14.168775">
                <ele>166.000000</ele>
                <time>1970-01-01T03:04:01Z</time>
            </trkpt>
            <trkpt lon="101.388372" lat="14.168741">
                <ele>165.800000</ele>
                <time>1970-01-01T03:04:02Z</time>
            </trkpt>
            <trkpt lon="101.388386" lat="14.168717">
                <ele>165.700000</ele>
                <time>1970-01-01T03:04:03Z</time>
            </trkpt>
            <trkpt lon="101.388419" lat="14.168662">
                <ele>165.300000</ele>
                <time>1970-01-01T03:04:05Z</time>
            </trkpt>
            <trkpt lon="101.388441" lat="14.168633">
                <ele>165.100000</ele>
                <time>1970-01-01T03:04:06Z</time>
            </trkpt>
            <trkpt lon="101.388470" lat="14.168605">
                <ele>164.800000</ele>
                <time>1970-01-01T03:04:07Z</time>
            </trkpt>
            <trkpt lon="101.388509" lat="14.168577">
                <ele>164.500000</ele>
                <time>1970-01-01T03:04:08Z</time>
            </trkpt>
            <trkpt lon="101.388553" lat="14.168552">
                <ele>164.000000</ele>
                <time>1970-01-01T03:04:09Z</time>
            </trkpt>
            <trkpt lon="101.388594" lat="14.168529">
                <ele>163.600000</ele>
                <time>1970-01-01T03:04:10Z</time>
            </trkpt>
            <trkpt lon="101.388651" lat="14.168482">
                <ele>162.800000</ele>
                <time>1970-01-01T03:04:11Z</time>
            </trkpt>
            <trkpt lon="101.388678" lat="14.168457">
                <ele>162.500000</ele>
                <time>1970-01-01T03:04:12Z</time>
            </trkpt>
            <trkpt lon="101.388709" lat="14.168416">
                <ele>162.000000</ele>
                <time>1970-01-01T03:04:13Z</time>
            </trkpt>
            <trkpt lon="101.388705" lat="14.168366">
                <ele>161.500000</ele>
                <time>1970-01-01T03:04:15Z</time>
            </trkpt>
            <trkpt lon="101.388737" lat="14.168335">
                <ele>161.100000</ele>
                <time>1970-01-01T03:04:16Z</time>
            </trkpt>
            <trkpt lon="101.388751" lat="14.168311">
                <ele>160.900000</ele>
                <time>1970-01-01T03:04:17Z</time>
            </trkpt>
            <trkpt lon="101.388749" lat="14.168283">
                <ele>160.600000</ele>
                <time>1970-01-01T03:04:18Z</time>
            </trkpt>
            <trkpt lon="101.388743" lat="14.168255">
                <ele>160.300000</ele>
                <time>1970-01-01T03:04:19Z</time>
            </trkpt>
            <trkpt lon="101.388756" lat="14.168225">
                <ele>159.900000</ele>
                <time>1970-01-01T03:04:20Z</time>
            </trkpt>
            <trkpt lon="101.388769" lat="14.168193">
                <ele>159.500000</ele>
                <time>1970-01-01T03:04:22Z</time>
            </trkpt>
            <trkpt lon="101.388787" lat="14.168161">
                <ele>158.900000</ele>
                <time>1970-01-01T03:04:24Z</time>
            </trkpt>
            <trkpt lon="101.388802" lat="14.168132">
                <ele>158.500000</ele>
                <time>1970-01-01T03:04:25Z</time>
            </trkpt>
            <trkpt lon="101.388816" lat="14.168098">
                <ele>158.100000</ele>
                <time>1970-01-01T03:04:26Z</time>
            </trkpt>
            <trkpt lon="101.388823" lat="14.168071">
                <ele>157.700000</ele>
                <time>1970-01-01T03:04:27Z</time>
            </trkpt>
            <trkpt lon="101.388819" lat="14.168032">
                <ele>157.300000</ele>
                <time>1970-01-01T03:04:29Z</time>
            </trkpt>
            <trkpt lon="101.388802" lat="14.168001">
                <ele>156.700000</ele>
                <time>1970-01-01T03:04:31Z</time>
            </trkpt>
            <trkpt lon="101.388793" lat="14.167958">
                <ele>156.000000</ele>
                <time>1970-01-01T03:04:33Z</time>
            </trkpt>
            <trkpt lon="101.388790" lat="14.167931">
                <ele>155.600000</ele>
                <time>1970-01-01T03:04:34Z</time>
            </trkpt>
            <trkpt lon="101.388789" lat="14.167885">
                <ele>155.100000</ele>
                <time>1970-01-01T03:04:36Z</time>
            </trkpt>
            <trkpt lon="101.388797" lat="14.167852">
                <ele>154.700000</ele>
                <time>1970-01-01T03:04:38Z</time>
            </trkpt>
            <trkpt lon="101.388804" lat="14.167807">
                <ele>154.200000</ele>
                <time>1970-01-01T03:04:40Z</time>
            </trkpt>
            <trkpt lon="101.388804" lat="14.167752">
                <ele>153.400000</ele>
                <time>1970-01-01T03:04:42Z</time>
            </trkpt>
            <trkpt lon="101.388809" lat="14.167719">
                <ele>153.000000</ele>
                <time>1970-01-01T03:04:43Z</time>
            </trkpt>
            <trkpt lon="101.388825" lat="14.167681">
                <ele>152.500000</ele>
                <time>1970-01-01T03:04:44Z</time>
            </trkpt>
            <trkpt lon="101.388846" lat="14.167649">
                <ele>152.100000</ele>
                <time>1970-01-01T03:04:45Z</time>
            </trkpt>
            <trkpt lon="101.388872" lat="14.167625">
                <ele>151.700000</ele>
                <time>1970-01-01T03:04:46Z</time>
            </trkpt>
            <trkpt lon="101.388904" lat="14.167583">
                <ele>151.100000</ele>
                <time>1970-01-01T03:04:47Z</time>
            </trkpt>
            <trkpt lon="101.388908" lat="14.167555">
                <ele>150.900000</ele>
                <time>1970-01-01T03:04:48Z</time>
            </trkpt>
            <trkpt lon="101.388923" lat="14.167524">
                <ele>150.500000</ele>
                <time>1970-01-01T03:04:49Z</time>
            </trkpt>
            <trkpt lon="101.388934" lat="14.167493">
                <ele>150.300000</ele>
                <time>1970-01-01T03:04:50Z</time>
            </trkpt>
            <trkpt lon="101.388933" lat="14.167462">
                <ele>150.100000</ele>
                <time>1970-01-01T03:04:51Z</time>
            </trkpt>
            <trkpt lon="101.388946" lat="14.167427">
                <ele>149.800000</ele>
                <time>1970-01-01T03:04:52Z</time>
            </trkpt>
            <trkpt lon="101.388929" lat="14.167404">
                <ele>149.600000</ele>
                <time>1970-01-01T03:04:53Z</time>
            </trkpt>
            <trkpt lon="101.388946" lat="14.167345">
                <ele>149.200000</ele>
                <time>1970-01-01T03:04:55Z</time>
            </trkpt>
            <trkpt lon="101.388954" lat="14.167318">
                <ele>149.000000</ele>
                <time>1970-01-01T03:04:56Z</time>
            </trkpt>
            <trkpt lon="101.388968" lat="14.167294">
                <ele>148.800000</ele>
                <time>1970-01-01T03:04:57Z</time>
            </trkpt>
            <trkpt lon="101.388955" lat="14.167255">
                <ele>148.600000</ele>
                <time>1970-01-01T03:05:00Z</time>
            </trkpt>
            <trkpt lon="101.388939" lat="14.167221">
                <ele>148.300000</ele>
                <time>1970-01-01T03:05:02Z</time>
            </trkpt>
            <trkpt lon="101.388938" lat="14.167179">
                <ele>147.900000</ele>
                <time>1970-01-01T03:05:04Z</time>
            </trkpt>
            <trkpt lon="101.388932" lat="14.167142">
                <ele>147.600000</ele>
                <time>1970-01-01T03:05:06Z</time>
            </trkpt>
            <trkpt lon="101.388898" lat="14.167109">
                <ele>147.100000</ele>
                <time>1970-01-01T03:05:08Z</time>
            </trkpt>
            <trkpt lon="101.388861" lat="14.167074">
                <ele>146.300000</ele>
                <time>1970-01-01T03:05:10Z</time>
            </trkpt>
            <trkpt lon="101.388856" lat="14.167045">
                <ele>145.900000</ele>
                <time>1970-01-01T03:05:11Z</time>
            </trkpt>
            <trkpt lon="101.388864" lat="14.167008">
                <ele>145.300000</ele>
                <time>1970-01-01T03:05:12Z</time>
            </trkpt>
            <trkpt lon="101.388881" lat="14.166969">
                <ele>144.600000</ele>
                <time>1970-01-01T03:05:13Z</time>
            </trkpt>
            <trkpt lon="101.388892" lat="14.166936">
                <ele>144.100000</ele>
                <time>1970-01-01T03:05:14Z</time>
            </trkpt>
            <trkpt lon="101.388916" lat="14.166894">
                <ele>143.500000</ele>
                <time>1970-01-01T03:05:16Z</time>
            </trkpt>
            <trkpt lon="101.388932" lat="14.166842">
                <ele>143.000000</ele>
                <time>1970-01-01T03:05:18Z</time>
            </trkpt>
            <trkpt lon="101.388935" lat="14.166812">
                <ele>142.900000</ele>
                <time>1970-01-01T03:05:19Z</time>
            </trkpt>
            <trkpt lon="101.388939" lat="14.166780">
                <ele>142.700000</ele>
                <time>1970-01-01T03:05:20Z</time>
            </trkpt>
            <trkpt lon="101.388942" lat="14.166748">
                <ele>142.500000</ele>
                <time>1970-01-01T03:05:21Z</time>
            </trkpt>
            <trkpt lon="101.388940" lat="14.166707">
                <ele>142.300000</ele>
                <time>1970-01-01T03:05:23Z</time>
            </trkpt>
            <trkpt lon="101.388928" lat="14.166669">
                <ele>141.400000</ele>
                <time>1970-01-01T03:05:25Z</time>
            </trkpt>
            <trkpt lon="101.388904" lat="14.166625">
                <ele>140.400000</ele>
                <time>1970-01-01T03:05:27Z</time>
            </trkpt>
            <trkpt lon="101.388894" lat="14.166594">
                <ele>139.800000</ele>
                <time>1970-01-01T03:05:28Z</time>
            </trkpt>
            <trkpt lon="101.388889" lat="14.166565">
                <ele>139.200000</ele>
                <time>1970-01-01T03:05:29Z</time>
            </trkpt>
            <trkpt lon="101.388885" lat="14.166518">
                <ele>138.600000</ele>
                <time>1970-01-01T03:05:31Z</time>
            </trkpt>
            <trkpt lon="101.388875" lat="14.166477">
                <ele>138.000000</ele>
                <time>1970-01-01T03:05:33Z</time>
            </trkpt>
            <trkpt lon="101.388855" lat="14.166451">
                <ele>137.500000</ele>
                <time>1970-01-01T03:05:35Z</time>
            </trkpt>
            <trkpt lon="101.388845" lat="14.166423">
                <ele>137.500000</ele>
                <time>1970-01-01T03:05:36Z</time>
            </trkpt>
            <trkpt lon="101.388836" lat="14.166397">
                <ele>137.500000</ele>
                <time>1970-01-01T03:05:37Z</time>
            </trkpt>
            <trkpt lon="101.388828" lat="14.166362">
                <ele>137.300000</ele>
                <time>1970-01-01T03:05:38Z</time>
            </trkpt>
            <trkpt lon="101.388821" lat="14.166321">
                <ele>137.300000</ele>
                <time>1970-01-01T03:05:39Z</time>
            </trkpt>
            <trkpt lon="101.388815" lat="14.166274">
                <ele>137.400000</ele>
                <time>1970-01-01T03:05:40Z</time>
            </trkpt>
            <trkpt lon="101.388819" lat="14.166234">
                <ele>137.700000</ele>
                <time>1970-01-01T03:05:41Z</time>
            </trkpt>
            <trkpt lon="101.388827" lat="14.166196">
                <ele>137.900000</ele>
                <time>1970-01-01T03:05:42Z</time>
            </trkpt>
            <trkpt lon="101.388833" lat="14.166159">
                <ele>137.900000</ele>
                <time>1970-01-01T03:05:43Z</time>
            </trkpt>
            <trkpt lon="101.388834" lat="14.166128">
                <ele>137.900000</ele>
                <time>1970-01-01T03:05:44Z</time>
            </trkpt>
            <trkpt lon="101.388821" lat="14.166081">
                <ele>138.000000</ele>
                <time>1970-01-01T03:05:46Z</time>
            </trkpt>
            <trkpt lon="101.388804" lat="14.166039">
                <ele>137.800000</ele>
                <time>1970-01-01T03:05:48Z</time>
            </trkpt>
            <trkpt lon="101.388772" lat="14.166015">
                <ele>137.700000</ele>
                <time>1970-01-01T03:05:50Z</time>
            </trkpt>
            <trkpt lon="101.388746" lat="14.166003">
                <ele>137.700000</ele>
                <time>1970-01-01T03:05:51Z</time>
            </trkpt>
            <trkpt lon="101.388721" lat="14.165987">
                <ele>137.400000</ele>
                <time>1970-01-01T03:05:52Z</time>
            </trkpt>
            <trkpt lon="101.388649" lat="14.165945">
                <ele>137.200000</ele>
                <time>1970-01-01T03:05:53Z</time>
            </trkpt>
            <trkpt lon="101.388605" lat="14.165903">
                <ele>136.700000</ele>
                <time>1970-01-01T03:05:54Z</time>
            </trkpt>
            <trkpt lon="101.388550" lat="14.165889">
                <ele>136.200000</ele>
                <time>1970-01-01T03:05:55Z</time>
            </trkpt>
            <trkpt lon="101.388518" lat="14.165871">
                <ele>135.400000</ele>
                <time>1970-01-01T03:05:56Z</time>
            </trkpt>
            <trkpt lon="101.388526" lat="14.165839">
                <ele>135.400000</ele>
                <time>1970-01-01T03:05:57Z</time>
            </trkpt>
            <trkpt lon="101.388495" lat="14.165801">
                <ele>135.200000</ele>
                <time>1970-01-01T03:05:59Z</time>
            </trkpt>
            <trkpt lon="101.388477" lat="14.165778">
                <ele>134.300000</ele>
                <time>1970-01-01T03:06:00Z</time>
            </trkpt>
            <trkpt lon="101.388452" lat="14.165744">
                <ele>133.800000</ele>
                <time>1970-01-01T03:06:02Z</time>
            </trkpt>
            <trkpt lon="101.388413" lat="14.165676">
                <ele>132.700000</ele>
                <time>1970-01-01T03:06:04Z</time>
            </trkpt>
            <trkpt lon="101.388399" lat="14.165634">
                <ele>131.400000</ele>
                <time>1970-01-01T03:06:05Z</time>
            </trkpt>
            <trkpt lon="101.388392" lat="14.165587">
                <ele>130.800000</ele>
                <time>1970-01-01T03:06:07Z</time>
            </trkpt>
            <trkpt lon="101.388384" lat="14.165553">
                <ele>130.100000</ele>
                <time>1970-01-01T03:06:09Z</time>
            </trkpt>
            <trkpt lon="101.388368" lat="14.165529">
                <ele>129.300000</ele>
                <time>1970-01-01T03:06:11Z</time>
            </trkpt>
            <trkpt lon="101.388350" lat="14.165508">
                <ele>128.600000</ele>
                <time>1970-01-01T03:06:15Z</time>
            </trkpt>
            <trkpt lon="101.388342" lat="14.165478">
                <ele>127.800000</ele>
                <time>1970-01-01T03:06:19Z</time>
            </trkpt>
            <trkpt lon="101.388329" lat="14.165454">
                <ele>127.100000</ele>
                <time>1970-01-01T03:06:21Z</time>
            </trkpt>
            <trkpt lon="101.388316" lat="14.165407">
                <ele>125.600000</ele>
                <time>1970-01-01T03:06:23Z</time>
            </trkpt>
            <trkpt lon="101.388295" lat="14.165376">
                <ele>125.600000</ele>
                <time>1970-01-01T03:06:25Z</time>
            </trkpt>
            <trkpt lon="101.388275" lat="14.165348">
                <ele>124.900000</ele>
                <time>1970-01-01T03:06:27Z</time>
            </trkpt>
            <trkpt lon="101.388252" lat="14.165320">
                <ele>123.400000</ele>
                <time>1970-01-01T03:06:29Z</time>
            </trkpt>
            <trkpt lon="101.388238" lat="14.165281">
                <ele>122.700000</ele>
                <time>1970-01-01T03:06:31Z</time>
            </trkpt>
            <trkpt lon="101.388230" lat="14.165245">
                <ele>121.300000</ele>
                <time>1970-01-01T03:06:33Z</time>
            </trkpt>
            <trkpt lon="101.388215" lat="14.165222">
                <ele>121.300000</ele>
                <time>1970-01-01T03:06:35Z</time>
            </trkpt>
            <trkpt lon="101.388189" lat="14.165199">
                <ele>120.700000</ele>
                <time>1970-01-01T03:06:37Z</time>
            </trkpt>
            <trkpt lon="101.388179" lat="14.165161">
                <ele>119.500000</ele>
                <time>1970-01-01T03:06:40Z</time>
            </trkpt>
            <trkpt lon="101.388172" lat="14.165104">
                <ele>119.000000</ele>
                <time>1970-01-01T03:06:42Z</time>
            </trkpt>
            <trkpt lon="101.388149" lat="14.165047">
                <ele>118.600000</ele>
                <time>1970-01-01T03:06:44Z</time>
            </trkpt>
            <trkpt lon="101.388123" lat="14.165014">
                <ele>117.600000</ele>
                <time>1970-01-01T03:06:45Z</time>
            </trkpt>
            <trkpt lon="101.388091" lat="14.164986">
                <ele>116.600000</ele>
                <time>1970-01-01T03:06:46Z</time>
            </trkpt>
            <trkpt lon="101.388056" lat="14.164958">
                <ele>116.300000</ele>
                <time>1970-01-01T03:06:47Z</time>
            </trkpt>
            <trkpt lon="101.388017" lat="14.164902">
                <ele>116.200000</ele>
                <time>1970-01-01T03:06:48Z</time>
            </trkpt>
            <trkpt lon="101.388006" lat="14.164864">
                <ele>116.000000</ele>
                <time>1970-01-01T03:06:49Z</time>
            </trkpt>
            <trkpt lon="101.387988" lat="14.164838">
                <ele>116.000000</ele>
                <time>1970-01-01T03:06:50Z</time>
            </trkpt>
            <trkpt lon="101.387977" lat="14.164810">
                <ele>116.000000</ele>
                <time>1970-01-01T03:06:51Z</time>
            </trkpt>
            <trkpt lon="101.387943" lat="14.164775">
                <ele>115.800000</ele>
                <time>1970-01-01T03:06:52Z</time>
            </trkpt>
            <trkpt lon="101.387930" lat="14.164724">
                <ele>115.800000</ele>
                <time>1970-01-01T03:06:54Z</time>
            </trkpt>
            <trkpt lon="101.387936" lat="14.164684">
                <ele>115.800000</ele>
                <time>1970-01-01T03:06:55Z</time>
            </trkpt>
            <trkpt lon="101.387925" lat="14.164654">
                <ele>115.400000</ele>
                <time>1970-01-01T03:06:56Z</time>
            </trkpt>
            <trkpt lon="101.387912" lat="14.164623">
                <ele>115.400000</ele>
                <time>1970-01-01T03:06:57Z</time>
            </trkpt>
            <trkpt lon="101.387902" lat="14.164595">
                <ele>115.300000</ele>
                <time>1970-01-01T03:06:58Z</time>
            </trkpt>
            <trkpt lon="101.387873" lat="14.164569">
                <ele>114.700000</ele>
                <time>1970-01-01T03:06:59Z</time>
            </trkpt>
            <trkpt lon="101.387843" lat="14.164558">
                <ele>114.300000</ele>
                <time>1970-01-01T03:07:00Z</time>
            </trkpt>
            <trkpt lon="101.387791" lat="14.164554">
                <ele>113.900000</ele>
                <time>1970-01-01T03:07:02Z</time>
            </trkpt>
            <trkpt lon="101.387741" lat="14.164542">
                <ele>113.400000</ele>
                <time>1970-01-01T03:07:04Z</time>
            </trkpt>
            <trkpt lon="101.387712" lat="14.164538">
                <ele>112.700000</ele>
                <time>1970-01-01T03:07:05Z</time>
            </trkpt>
            <trkpt lon="101.387672" lat="14.164533">
                <ele>112.100000</ele>
                <time>1970-01-01T03:07:07Z</time>
            </trkpt>
            <trkpt lon="101.387630" lat="14.164539">
                <ele>112.100000</ele>
                <time>1970-01-01T03:07:09Z</time>
            </trkpt>
            <trkpt lon="101.387594" lat="14.164552">
                <ele>111.600000</ele>
                <time>1970-01-01T03:07:11Z</time>
            </trkpt>
            <trkpt lon="101.387564" lat="14.164568">
                <ele>111.100000</ele>
                <time>1970-01-01T03:07:13Z</time>
            </trkpt>
            <trkpt lon="101.387505" lat="14.164559">
                <ele>110.600000</ele>
                <time>1970-01-01T03:07:15Z</time>
            </trkpt>
            <trkpt lon="101.387472" lat="14.164544">
                <ele>110.100000</ele>
                <time>1970-01-01T03:07:16Z</time>
            </trkpt>
            <trkpt lon="101.387446" lat="14.164522">
                <ele>109.400000</ele>
                <time>1970-01-01T03:07:17Z</time>
            </trkpt>
            <trkpt lon="101.387419" lat="14.164498">
                <ele>109.200000</ele>
                <time>1970-01-01T03:07:18Z</time>
            </trkpt>
            <trkpt lon="101.387392" lat="14.164479">
                <ele>108.500000</ele>
                <time>1970-01-01T03:07:19Z</time>
            </trkpt>
            <trkpt lon="101.387365" lat="14.164466">
                <ele>107.800000</ele>
                <time>1970-01-01T03:07:20Z</time>
            </trkpt>
            <trkpt lon="101.387324" lat="14.164449">
                <ele>106.800000</ele>
                <time>1970-01-01T03:07:21Z</time>
            </trkpt>
            <trkpt lon="101.387276" lat="14.164435">
                <ele>106.100000</ele>
                <time>1970-01-01T03:07:22Z</time>
            </trkpt>
            <trkpt lon="101.387230" lat="14.164426">
                <ele>105.600000</ele>
                <time>1970-01-01T03:07:23Z</time>
            </trkpt>
            <trkpt lon="101.387181" lat="14.164427">
                <ele>105.300000</ele>
                <time>1970-01-01T03:07:24Z</time>
            </trkpt>
            <trkpt lon="101.387133" lat="14.164430">
                <ele>105.100000</ele>
                <time>1970-01-01T03:07:25Z</time>
            </trkpt>
            <trkpt lon="101.387086" lat="14.164424">
                <ele>104.800000</ele>
                <time>1970-01-01T03:07:26Z</time>
            </trkpt>
            <trkpt lon="101.387044" lat="14.164412">
                <ele>104.500000</ele>
                <time>1970-01-01T03:07:27Z</time>
            </trkpt>
            <trkpt lon="101.387006" lat="14.164398">
                <ele>104.500000</ele>
                <time>1970-01-01T03:07:29Z</time>
            </trkpt>
            <trkpt lon="101.386992" lat="14.164363">
                <ele>104.200000</ele>
                <time>1970-01-01T03:07:35Z</time>
            </trkpt>
            <trkpt lon="101.386964" lat="14.164373">
                <ele>104.300000</ele>
                <time>1970-01-01T03:07:43Z</time>
            </trkpt>
            <trkpt lon="101.386937" lat="14.164385">
                <ele>104.500000</ele>
                <time>1970-01-01T03:07:47Z</time>
            </trkpt>
            <trkpt lon="101.386906" lat="14.164382">
                <ele>104.500000</ele>
                <time>1970-01-01T03:07:50Z</time>
            </trkpt>
            <trkpt lon="101.386868" lat="14.164387">
                <ele>104.700000</ele>
                <time>1970-01-01T03:07:55Z</time>
            </trkpt>
            <trkpt lon="101.386829" lat="14.164384">
                <ele>105.100000</ele>
                <time>1970-01-01T03:07:58Z</time>
            </trkpt>
            <trkpt lon="101.386779" lat="14.164394">
                <ele>105.500000</ele>
                <time>1970-01-01T03:08:00Z</time>
            </trkpt>
            <trkpt lon="101.386732" lat="14.164399">
                <ele>106.000000</ele>
                <time>1970-01-01T03:08:02Z</time>
            </trkpt>
            <trkpt lon="101.386702" lat="14.164400">
                <ele>106.200000</ele>
                <time>1970-01-01T03:08:03Z</time>
            </trkpt>
            <trkpt lon="101.386670" lat="14.164403">
                <ele>106.200000</ele>
                <time>1970-01-01T03:08:04Z</time>
            </trkpt>
            <trkpt lon="101.386624" lat="14.164411">
                <ele>106.200000</ele>
                <time>1970-01-01T03:08:06Z</time>
            </trkpt>
            <trkpt lon="101.386595" lat="14.164419">
                <ele>106.700000</ele>
                <time>1970-01-01T03:08:07Z</time>
            </trkpt>
            <trkpt lon="101.386566" lat="14.164430">
                <ele>106.700000</ele>
                <time>1970-01-01T03:08:08Z</time>
            </trkpt>
            <trkpt lon="101.386538" lat="14.164441">
                <ele>106.600000</ele>
                <time>1970-01-01T03:08:09Z</time>
            </trkpt>
            <trkpt lon="101.386506" lat="14.164453">
                <ele>106.400000</ele>
                <time>1970-01-01T03:08:10Z</time>
            </trkpt>
            <trkpt lon="101.386469" lat="14.164464">
                <ele>106.700000</ele>
                <time>1970-01-01T03:08:11Z</time>
            </trkpt>
            <trkpt lon="101.386435" lat="14.164476">
                <ele>106.700000</ele>
                <time>1970-01-01T03:08:12Z</time>
            </trkpt>
            <trkpt lon="101.386397" lat="14.164503">
                <ele>107.200000</ele>
                <time>1970-01-01T03:08:14Z</time>
            </trkpt>
            <trkpt lon="101.386362" lat="14.164533">
                <ele>107.000000</ele>
                <time>1970-01-01T03:08:16Z</time>
            </trkpt>
            <trkpt lon="101.386325" lat="14.164564">
                <ele>107.500000</ele>
                <time>1970-01-01T03:08:18Z</time>
            </trkpt>
            <trkpt lon="101.386309" lat="14.164586">
                <ele>108.300000</ele>
                <time>1970-01-01T03:08:19Z</time>
            </trkpt>
            <trkpt lon="101.386281" lat="14.164625">
                <ele>108.800000</ele>
                <time>1970-01-01T03:08:21Z</time>
            </trkpt>
            <trkpt lon="101.386258" lat="14.164667">
                <ele>109.500000</ele>
                <time>1970-01-01T03:08:23Z</time>
            </trkpt>
            <trkpt lon="101.386233" lat="14.164701">
                <ele>109.300000</ele>
                <time>1970-01-01T03:08:25Z</time>
            </trkpt>
            <trkpt lon="101.386208" lat="14.164720">
                <ele>109.700000</ele>
                <time>1970-01-01T03:08:27Z</time>
            </trkpt>
            <trkpt lon="101.386173" lat="14.164741">
                <ele>109.700000</ele>
                <time>1970-01-01T03:08:29Z</time>
            </trkpt>
            <trkpt lon="101.386145" lat="14.164784">
                <ele>110.000000</ele>
                <time>1970-01-01T03:08:31Z</time>
            </trkpt>
            <trkpt lon="101.386110" lat="14.164828">
                <ele>110.200000</ele>
                <time>1970-01-01T03:08:33Z</time>
            </trkpt>
            <trkpt lon="101.386074" lat="14.164858">
                <ele>110.500000</ele>
                <time>1970-01-01T03:08:35Z</time>
            </trkpt>
            <trkpt lon="101.386045" lat="14.164885">
                <ele>111.200000</ele>
                <time>1970-01-01T03:08:37Z</time>
            </trkpt>
            <trkpt lon="101.386006" lat="14.164908">
                <ele>110.800000</ele>
                <time>1970-01-01T03:08:39Z</time>
            </trkpt>
            <trkpt lon="101.385956" lat="14.164921">
                <ele>111.000000</ele>
                <time>1970-01-01T03:08:41Z</time>
            </trkpt>
            <trkpt lon="101.385901" lat="14.164933">
                <ele>110.100000</ele>
                <time>1970-01-01T03:08:43Z</time>
            </trkpt>
            <trkpt lon="101.385866" lat="14.164943">
                <ele>109.700000</ele>
                <time>1970-01-01T03:08:44Z</time>
            </trkpt>
            <trkpt lon="101.385836" lat="14.164952">
                <ele>109.700000</ele>
                <time>1970-01-01T03:08:45Z</time>
            </trkpt>
            <trkpt lon="101.385801" lat="14.164973">
                <ele>109.600000</ele>
                <time>1970-01-01T03:08:47Z</time>
            </trkpt>
            <trkpt lon="101.385764" lat="14.164998">
                <ele>109.500000</ele>
                <time>1970-01-01T03:08:49Z</time>
            </trkpt>
            <trkpt lon="101.385725" lat="14.165021">
                <ele>109.100000</ele>
                <time>1970-01-01T03:08:51Z</time>
            </trkpt>
            <trkpt lon="101.385684" lat="14.165035">
                <ele>108.900000</ele>
                <time>1970-01-01T03:08:53Z</time>
            </trkpt>
            <trkpt lon="101.385639" lat="14.165046">
                <ele>109.200000</ele>
                <time>1970-01-01T03:08:55Z</time>
            </trkpt>
            <trkpt lon="101.385601" lat="14.165049">
                <ele>109.100000</ele>
                <time>1970-01-01T03:08:57Z</time>
            </trkpt>
            <trkpt lon="101.385549" lat="14.165036">
                <ele>108.600000</ele>
                <time>1970-01-01T03:08:59Z</time>
            </trkpt>
            <trkpt lon="101.385505" lat="14.165020">
                <ele>108.600000</ele>
                <time>1970-01-01T03:09:01Z</time>
            </trkpt>
            <trkpt lon="101.385457" lat="14.165007">
                <ele>108.600000</ele>
                <time>1970-01-01T03:09:03Z</time>
            </trkpt>
            <trkpt lon="101.385426" lat="14.165004">
                <ele>108.600000</ele>
                <time>1970-01-01T03:09:04Z</time>
            </trkpt>
            <trkpt lon="101.385396" lat="14.165006">
                <ele>108.600000</ele>
                <time>1970-01-01T03:09:05Z</time>
            </trkpt>
            <trkpt lon="101.385368" lat="14.165012">
                <ele>108.600000</ele>
                <time>1970-01-01T03:09:06Z</time>
            </trkpt>
            <trkpt lon="101.385316" lat="14.165019">
                <ele>108.800000</ele>
                <time>1970-01-01T03:09:08Z</time>
            </trkpt>
            <trkpt lon="101.385270" lat="14.165015">
                <ele>109.200000</ele>
                <time>1970-01-01T03:09:10Z</time>
            </trkpt>
            <trkpt lon="101.385229" lat="14.165021">
                <ele>109.600000</ele>
                <time>1970-01-01T03:09:12Z</time>
            </trkpt>
            <trkpt lon="101.385198" lat="14.165025">
                <ele>110.100000</ele>
                <time>1970-01-01T03:09:13Z</time>
            </trkpt>
            <trkpt lon="101.385165" lat="14.165025">
                <ele>110.600000</ele>
                <time>1970-01-01T03:09:14Z</time>
            </trkpt>
            <trkpt lon="101.385133" lat="14.165026">
                <ele>111.400000</ele>
                <time>1970-01-01T03:09:15Z</time>
            </trkpt>
            <trkpt lon="101.385103" lat="14.165028">
                <ele>111.400000</ele>
                <time>1970-01-01T03:09:16Z</time>
            </trkpt>
            <trkpt lon="101.385062" lat="14.165038">
                <ele>112.100000</ele>
                <time>1970-01-01T03:09:18Z</time>
            </trkpt>
            <trkpt lon="101.385015" lat="14.165033">
                <ele>112.900000</ele>
                <time>1970-01-01T03:09:20Z</time>
            </trkpt>
            <trkpt lon="101.384977" lat="14.165032">
                <ele>113.800000</ele>
                <time>1970-01-01T03:09:22Z</time>
            </trkpt>
            <trkpt lon="101.384954" lat="14.165061">
                <ele>114.900000</ele>
                <time>1970-01-01T03:09:25Z</time>
            </trkpt>
            <trkpt lon="101.384961" lat="14.165088">
                <ele>115.000000</ele>
                <time>1970-01-01T03:09:27Z</time>
            </trkpt>
            <trkpt lon="101.384963" lat="14.165121">
                <ele>115.000000</ele>
                <time>1970-01-01T03:09:30Z</time>
            </trkpt>
            <trkpt lon="101.384934" lat="14.165151">
                <ele>115.300000</ele>
                <time>1970-01-01T03:09:33Z</time>
            </trkpt>
            <trkpt lon="101.384907" lat="14.165176">
                <ele>116.900000</ele>
                <time>1970-01-01T03:09:35Z</time>
            </trkpt>
            <trkpt lon="101.384878" lat="14.165198">
                <ele>118.000000</ele>
                <time>1970-01-01T03:09:37Z</time>
            </trkpt>
            <trkpt lon="101.384840" lat="14.165220">
                <ele>119.300000</ele>
                <time>1970-01-01T03:09:39Z</time>
            </trkpt>
            <trkpt lon="101.384808" lat="14.165228">
                <ele>119.300000</ele>
                <time>1970-01-01T03:09:41Z</time>
            </trkpt>
            <trkpt lon="101.384775" lat="14.165226">
                <ele>120.200000</ele>
                <time>1970-01-01T03:09:43Z</time>
            </trkpt>
            <trkpt lon="101.384739" lat="14.165229">
                <ele>121.000000</ele>
                <time>1970-01-01T03:09:47Z</time>
            </trkpt>
            <trkpt lon="101.384713" lat="14.165243">
                <ele>121.100000</ele>
                <time>1970-01-01T03:09:50Z</time>
            </trkpt>
            <trkpt lon="101.384678" lat="14.165252">
                <ele>122.000000</ele>
                <time>1970-01-01T03:09:54Z</time>
            </trkpt>
            <trkpt lon="101.384647" lat="14.165255">
                <ele>122.700000</ele>
                <time>1970-01-01T03:09:58Z</time>
            </trkpt>
            <trkpt lon="101.384627" lat="14.165276">
                <ele>122.700000</ele>
                <time>1970-01-01T03:10:10Z</time>
            </trkpt>
            <trkpt lon="101.384598" lat="14.165291">
                <ele>123.500000</ele>
                <time>1970-01-01T03:10:13Z</time>
            </trkpt>
            <trkpt lon="101.384567" lat="14.165313">
                <ele>124.300000</ele>
                <time>1970-01-01T03:10:17Z</time>
            </trkpt>
            <trkpt lon="101.384534" lat="14.165327">
                <ele>125.000000</ele>
                <time>1970-01-01T03:10:22Z</time>
            </trkpt>
            <trkpt lon="101.384509" lat="14.165338">
                <ele>125.000000</ele>
                <time>1970-01-01T03:10:25Z</time>
            </trkpt>
            <trkpt lon="101.384480" lat="14.165348">
                <ele>125.700000</ele>
                <time>1970-01-01T03:10:30Z</time>
            </trkpt>
            <trkpt lon="101.384452" lat="14.165357">
                <ele>126.300000</ele>
                <time>1970-01-01T03:10:36Z</time>
            </trkpt>
            <trkpt lon="101.384427" lat="14.165371">
                <ele>126.300000</ele>
                <time>1970-01-01T03:10:41Z</time>
            </trkpt>
            <trkpt lon="101.384399" lat="14.165381">
                <ele>127.100000</ele>
                <time>1970-01-01T03:10:45Z</time>
            </trkpt>
            <trkpt lon="101.384370" lat="14.165393">
                <ele>127.100000</ele>
                <time>1970-01-01T03:10:50Z</time>
            </trkpt>
            <trkpt lon="101.384338" lat="14.165403">
                <ele>127.700000</ele>
                <time>1970-01-01T03:10:56Z</time>
            </trkpt>
            <trkpt lon="101.384308" lat="14.165408">
                <ele>128.300000</ele>
                <time>1970-01-01T03:11:02Z</time>
            </trkpt>
            <trkpt lon="101.384278" lat="14.165416">
                <ele>129.100000</ele>
                <time>1970-01-01T03:11:07Z</time>
            </trkpt>
            <trkpt lon="101.384243" lat="14.165416">
                <ele>129.100000</ele>
                <time>1970-01-01T03:11:13Z</time>
            </trkpt>
            <trkpt lon="101.384212" lat="14.165415">
                <ele>129.600000</ele>
                <time>1970-01-01T03:11:18Z</time>
            </trkpt>
            <trkpt lon="101.384183" lat="14.165412">
                <ele>129.900000</ele>
                <time>1970-01-01T03:11:23Z</time>
            </trkpt>
            <trkpt lon="101.384154" lat="14.165413">
                <ele>129.900000</ele>
                <time>1970-01-01T03:11:27Z</time>
            </trkpt>
            <trkpt lon="101.384125" lat="14.165414">
                <ele>130.700000</ele>
                <time>1970-01-01T03:11:32Z</time>
            </trkpt>
            <trkpt lon="101.384100" lat="14.165400">
                <ele>131.100000</ele>
                <time>1970-01-01T03:11:36Z</time>
            </trkpt>
            <trkpt lon="101.384039" lat="14.165394">
                <ele>131.700000</ele>
                <time>1970-01-01T03:11:48Z</time>
            </trkpt>
            <trkpt lon="101.384007" lat="14.165393">
                <ele>132.400000</ele>
                <time>1970-01-01T03:12:11Z</time>
            </trkpt>
            <trkpt lon="101.383982" lat="14.165372">
                <ele>132.400000</ele>
                <time>1970-01-01T03:12:15Z</time>
            </trkpt>
            <trkpt lon="101.383975" lat="14.165343">
                <ele>132.400000</ele>
                <time>1970-01-01T03:12:18Z</time>
            </trkpt>
            <trkpt lon="101.383953" lat="14.165319">
                <ele>131.900000</ele>
                <time>1970-01-01T03:12:20Z</time>
            </trkpt>
            <trkpt lon="101.383919" lat="14.165305">
                <ele>132.200000</ele>
                <time>1970-01-01T03:12:23Z</time>
            </trkpt>
            <trkpt lon="101.383882" lat="14.165289">
                <ele>132.400000</ele>
                <time>1970-01-01T03:12:26Z</time>
            </trkpt>
            <trkpt lon="101.383853" lat="14.165273">
                <ele>132.000000</ele>
                <time>1970-01-01T03:12:28Z</time>
            </trkpt>
            <trkpt lon="101.383831" lat="14.165242">
                <ele>131.800000</ele>
                <time>1970-01-01T03:12:30Z</time>
            </trkpt>
            <trkpt lon="101.383819" lat="14.165199">
                <ele>131.300000</ele>
                <time>1970-01-01T03:12:32Z</time>
            </trkpt>
            <trkpt lon="101.383797" lat="14.165172">
                <ele>131.400000</ele>
                <time>1970-01-01T03:12:34Z</time>
            </trkpt>
            <trkpt lon="101.383774" lat="14.165148">
                <ele>130.900000</ele>
                <time>1970-01-01T03:12:35Z</time>
            </trkpt>
            <trkpt lon="101.383753" lat="14.165127">
                <ele>130.900000</ele>
                <time>1970-01-01T03:12:36Z</time>
            </trkpt>
            <trkpt lon="101.383724" lat="14.165098">
                <ele>130.700000</ele>
                <time>1970-01-01T03:12:38Z</time>
            </trkpt>
            <trkpt lon="101.383694" lat="14.165064">
                <ele>130.600000</ele>
                <time>1970-01-01T03:12:40Z</time>
            </trkpt>
            <trkpt lon="101.383675" lat="14.165019">
                <ele>130.700000</ele>
                <time>1970-01-01T03:12:42Z</time>
            </trkpt>
            <trkpt lon="101.383651" lat="14.164973">
                <ele>130.600000</ele>
                <time>1970-01-01T03:12:44Z</time>
            </trkpt>
            <trkpt lon="101.383624" lat="14.164930">
                <ele>130.700000</ele>
                <time>1970-01-01T03:12:46Z</time>
            </trkpt>
            <trkpt lon="101.383601" lat="14.164892">
                <ele>130.700000</ele>
                <time>1970-01-01T03:12:48Z</time>
            </trkpt>
            <trkpt lon="101.383582" lat="14.164871">
                <ele>130.700000</ele>
                <time>1970-01-01T03:12:49Z</time>
            </trkpt>
            <trkpt lon="101.383562" lat="14.164851">
                <ele>130.700000</ele>
                <time>1970-01-01T03:12:50Z</time>
            </trkpt>
            <trkpt lon="101.383527" lat="14.164835">
                <ele>130.600000</ele>
                <time>1970-01-01T03:12:52Z</time>
            </trkpt>
            <trkpt lon="101.383490" lat="14.164831">
                <ele>130.500000</ele>
                <time>1970-01-01T03:12:54Z</time>
            </trkpt>
            <trkpt lon="101.383454" lat="14.164804">
                <ele>130.600000</ele>
                <time>1970-01-01T03:12:57Z</time>
            </trkpt>
            <trkpt lon="101.383428" lat="14.164765">
                <ele>130.900000</ele>
                <time>1970-01-01T03:12:59Z</time>
            </trkpt>
            <trkpt lon="101.383403" lat="14.164726">
                <ele>130.700000</ele>
                <time>1970-01-01T03:13:01Z</time>
            </trkpt>
            <trkpt lon="101.383407" lat="14.164681">
                <ele>131.100000</ele>
                <time>1970-01-01T03:13:04Z</time>
            </trkpt>
            <trkpt lon="101.383408" lat="14.164641">
                <ele>131.400000</ele>
                <time>1970-01-01T03:13:06Z</time>
            </trkpt>
            <trkpt lon="101.383400" lat="14.164602">
                <ele>132.000000</ele>
                <time>1970-01-01T03:13:09Z</time>
            </trkpt>
            <trkpt lon="101.383395" lat="14.164561">
                <ele>132.700000</ele>
                <time>1970-01-01T03:13:12Z</time>
            </trkpt>
            <trkpt lon="101.383392" lat="14.164533">
                <ele>133.500000</ele>
                <time>1970-01-01T03:13:14Z</time>
            </trkpt>
            <trkpt lon="101.383389" lat="14.164503">
                <ele>133.500000</ele>
                <time>1970-01-01T03:13:16Z</time>
            </trkpt>
            <trkpt lon="101.383381" lat="14.164476">
                <ele>134.300000</ele>
                <time>1970-01-01T03:13:18Z</time>
            </trkpt>
            <trkpt lon="101.383377" lat="14.164449">
                <ele>134.500000</ele>
                <time>1970-01-01T03:13:20Z</time>
            </trkpt>
            <trkpt lon="101.383392" lat="14.164408">
                <ele>135.000000</ele>
                <time>1970-01-01T03:13:23Z</time>
            </trkpt>
            <trkpt lon="101.383407" lat="14.164377">
                <ele>135.000000</ele>
                <time>1970-01-01T03:13:25Z</time>
            </trkpt>
            <trkpt lon="101.383403" lat="14.164343">
                <ele>135.300000</ele>
                <time>1970-01-01T03:13:27Z</time>
            </trkpt>
            <trkpt lon="101.383389" lat="14.164307">
                <ele>135.500000</ele>
                <time>1970-01-01T03:13:29Z</time>
            </trkpt>
            <trkpt lon="101.383384" lat="14.164274">
                <ele>135.700000</ele>
                <time>1970-01-01T03:13:31Z</time>
            </trkpt>
            <trkpt lon="101.383373" lat="14.164238">
                <ele>135.600000</ele>
                <time>1970-01-01T03:13:33Z</time>
            </trkpt>
            <trkpt lon="101.383352" lat="14.164206">
                <ele>135.800000</ele>
                <time>1970-01-01T03:13:35Z</time>
            </trkpt>
            <trkpt lon="101.383315" lat="14.164170">
                <ele>135.700000</ele>
                <time>1970-01-01T03:13:37Z</time>
            </trkpt>
            <trkpt lon="101.383279" lat="14.164136">
                <ele>135.900000</ele>
                <time>1970-01-01T03:13:39Z</time>
            </trkpt>
            <trkpt lon="101.383253" lat="14.164091">
                <ele>136.000000</ele>
                <time>1970-01-01T03:13:41Z</time>
            </trkpt>
            <trkpt lon="101.383222" lat="14.164047">
                <ele>136.000000</ele>
                <time>1970-01-01T03:13:43Z</time>
            </trkpt>
            <trkpt lon="101.383197" lat="14.164019">
                <ele>136.000000</ele>
                <time>1970-01-01T03:13:44Z</time>
            </trkpt>
            <trkpt lon="101.383178" lat="14.163993">
                <ele>136.000000</ele>
                <time>1970-01-01T03:13:45Z</time>
            </trkpt>
            <trkpt lon="101.383167" lat="14.163962">
                <ele>136.000000</ele>
                <time>1970-01-01T03:13:46Z</time>
            </trkpt>
            <trkpt lon="101.383156" lat="14.163932">
                <ele>136.100000</ele>
                <time>1970-01-01T03:13:47Z</time>
            </trkpt>
            <trkpt lon="101.383136" lat="14.163887">
                <ele>136.100000</ele>
                <time>1970-01-01T03:13:49Z</time>
            </trkpt>
            <trkpt lon="101.383122" lat="14.163861">
                <ele>136.000000</ele>
                <time>1970-01-01T03:13:50Z</time>
            </trkpt>
            <trkpt lon="101.383104" lat="14.163814">
                <ele>136.100000</ele>
                <time>1970-01-01T03:13:52Z</time>
            </trkpt>
            <trkpt lon="101.383084" lat="14.163766">
                <ele>136.200000</ele>
                <time>1970-01-01T03:13:54Z</time>
            </trkpt>
            <trkpt lon="101.383071" lat="14.163738">
                <ele>136.300000</ele>
                <time>1970-01-01T03:13:55Z</time>
            </trkpt>
            <trkpt lon="101.383057" lat="14.163712">
                <ele>136.400000</ele>
                <time>1970-01-01T03:13:56Z</time>
            </trkpt>
            <trkpt lon="101.383039" lat="14.163685">
                <ele>136.500000</ele>
                <time>1970-01-01T03:13:57Z</time>
            </trkpt>
            <trkpt lon="101.383020" lat="14.163663">
                <ele>136.500000</ele>
                <time>1970-01-01T03:13:58Z</time>
            </trkpt>
            <trkpt lon="101.382983" lat="14.163634">
                <ele>136.300000</ele>
                <time>1970-01-01T03:14:00Z</time>
            </trkpt>
            <trkpt lon="101.382962" lat="14.163614">
                <ele>136.400000</ele>
                <time>1970-01-01T03:14:01Z</time>
            </trkpt>
            <trkpt lon="101.382941" lat="14.163595">
                <ele>136.100000</ele>
                <time>1970-01-01T03:14:02Z</time>
            </trkpt>
            <trkpt lon="101.382919" lat="14.163554">
                <ele>136.400000</ele>
                <time>1970-01-01T03:14:04Z</time>
            </trkpt>
            <trkpt lon="101.382908" lat="14.163511">
                <ele>136.000000</ele>
                <time>1970-01-01T03:14:06Z</time>
            </trkpt>
            <trkpt lon="101.382900" lat="14.163479">
                <ele>136.100000</ele>
                <time>1970-01-01T03:14:07Z</time>
            </trkpt>
            <trkpt lon="101.382889" lat="14.163452">
                <ele>136.300000</ele>
                <time>1970-01-01T03:14:08Z</time>
            </trkpt>
            <trkpt lon="101.382880" lat="14.163402">
                <ele>136.400000</ele>
                <time>1970-01-01T03:14:10Z</time>
            </trkpt>
            <trkpt lon="101.382879" lat="14.163370">
                <ele>136.400000</ele>
                <time>1970-01-01T03:14:11Z</time>
            </trkpt>
            <trkpt lon="101.382878" lat="14.163334">
                <ele>136.500000</ele>
                <time>1970-01-01T03:14:12Z</time>
            </trkpt>
            <trkpt lon="101.382875" lat="14.163294">
                <ele>136.500000</ele>
                <time>1970-01-01T03:14:14Z</time>
            </trkpt>
            <trkpt lon="101.382886" lat="14.163248">
                <ele>137.100000</ele>
                <time>1970-01-01T03:14:16Z</time>
            </trkpt>
            <trkpt lon="101.382897" lat="14.163221">
                <ele>137.100000</ele>
                <time>1970-01-01T03:14:17Z</time>
            </trkpt>
            <trkpt lon="101.382904" lat="14.163190">
                <ele>137.400000</ele>
                <time>1970-01-01T03:14:18Z</time>
            </trkpt>
            <trkpt lon="101.382906" lat="14.163156">
                <ele>137.800000</ele>
                <time>1970-01-01T03:14:19Z</time>
            </trkpt>
            <trkpt lon="101.382910" lat="14.163118">
                <ele>138.300000</ele>
                <time>1970-01-01T03:14:20Z</time>
            </trkpt>
            <trkpt lon="101.382916" lat="14.163083">
                <ele>138.600000</ele>
                <time>1970-01-01T03:14:21Z</time>
            </trkpt>
            <trkpt lon="101.382919" lat="14.163049">
                <ele>138.600000</ele>
                <time>1970-01-01T03:14:22Z</time>
            </trkpt>
            <trkpt lon="101.382920" lat="14.163020">
                <ele>138.900000</ele>
                <time>1970-01-01T03:14:23Z</time>
            </trkpt>
            <trkpt lon="101.382918" lat="14.162989">
                <ele>139.100000</ele>
                <time>1970-01-01T03:14:24Z</time>
            </trkpt>
            <trkpt lon="101.382917" lat="14.162960">
                <ele>139.200000</ele>
                <time>1970-01-01T03:14:25Z</time>
            </trkpt>
            <trkpt lon="101.382922" lat="14.162921">
                <ele>139.400000</ele>
                <time>1970-01-01T03:14:26Z</time>
            </trkpt>
            <trkpt lon="101.382932" lat="14.162878">
                <ele>139.700000</ele>
                <time>1970-01-01T03:14:27Z</time>
            </trkpt>
            <trkpt lon="101.382947" lat="14.162835">
                <ele>139.900000</ele>
                <time>1970-01-01T03:14:28Z</time>
            </trkpt>
            <trkpt lon="101.382958" lat="14.162751">
                <ele>140.300000</ele>
                <time>1970-01-01T03:14:29Z</time>
            </trkpt>
            <trkpt lon="101.382993" lat="14.162708">
                <ele>140.300000</ele>
                <time>1970-01-01T03:14:30Z</time>
            </trkpt>
            <trkpt lon="101.383003" lat="14.162654">
                <ele>140.300000</ele>
                <time>1970-01-01T03:14:31Z</time>
            </trkpt>
            <trkpt lon="101.383030" lat="14.162633">
                <ele>140.300000</ele>
                <time>1970-01-01T03:14:32Z</time>
            </trkpt>
            <trkpt lon="101.383048" lat="14.162587">
                <ele>140.200000</ele>
                <time>1970-01-01T03:14:33Z</time>
            </trkpt>
            <trkpt lon="101.383020" lat="14.162536">
                <ele>139.700000</ele>
                <time>1970-01-01T03:14:34Z</time>
            </trkpt>
            <trkpt lon="101.383027" lat="14.162501">
                <ele>139.800000</ele>
                <time>1970-01-01T03:14:35Z</time>
            </trkpt>
            <trkpt lon="101.383025" lat="14.162468">
                <ele>139.500000</ele>
                <time>1970-01-01T03:14:36Z</time>
            </trkpt>
            <trkpt lon="101.383031" lat="14.162434">
                <ele>139.300000</ele>
                <time>1970-01-01T03:14:37Z</time>
            </trkpt>
            <trkpt lon="101.383037" lat="14.162379">
                <ele>139.000000</ele>
                <time>1970-01-01T03:14:39Z</time>
            </trkpt>
            <trkpt lon="101.383034" lat="14.162334">
                <ele>138.500000</ele>
                <time>1970-01-01T03:14:40Z</time>
            </trkpt>
            <trkpt lon="101.383021" lat="14.162290">
                <ele>138.400000</ele>
                <time>1970-01-01T03:14:41Z</time>
            </trkpt>
            <trkpt lon="101.383024" lat="14.162258">
                <ele>138.400000</ele>
                <time>1970-01-01T03:14:42Z</time>
            </trkpt>
            <trkpt lon="101.383030" lat="14.162226">
                <ele>138.200000</ele>
                <time>1970-01-01T03:14:43Z</time>
            </trkpt>
            <trkpt lon="101.383034" lat="14.162189">
                <ele>138.100000</ele>
                <time>1970-01-01T03:14:44Z</time>
            </trkpt>
            <trkpt lon="101.383038" lat="14.162144">
                <ele>138.200000</ele>
                <time>1970-01-01T03:14:45Z</time>
            </trkpt>
            <trkpt lon="101.383039" lat="14.162105">
                <ele>138.100000</ele>
                <time>1970-01-01T03:14:46Z</time>
            </trkpt>
            <trkpt lon="101.383049" lat="14.162066">
                <ele>137.900000</ele>
                <time>1970-01-01T03:14:47Z</time>
            </trkpt>
            <trkpt lon="101.383067" lat="14.162030">
                <ele>137.700000</ele>
                <time>1970-01-01T03:14:48Z</time>
            </trkpt>
            <trkpt lon="101.383095" lat="14.161993">
                <ele>137.600000</ele>
                <time>1970-01-01T03:14:49Z</time>
            </trkpt>
            <trkpt lon="101.383126" lat="14.161957">
                <ele>137.700000</ele>
                <time>1970-01-01T03:14:50Z</time>
            </trkpt>
            <trkpt lon="101.383151" lat="14.161927">
                <ele>137.700000</ele>
                <time>1970-01-01T03:14:51Z</time>
            </trkpt>
            <trkpt lon="101.383166" lat="14.161901">
                <ele>137.600000</ele>
                <time>1970-01-01T03:14:52Z</time>
            </trkpt>
            <trkpt lon="101.383177" lat="14.161863">
                <ele>137.700000</ele>
                <time>1970-01-01T03:14:53Z</time>
            </trkpt>
            <trkpt lon="101.383182" lat="14.161815">
                <ele>137.600000</ele>
                <time>1970-01-01T03:14:54Z</time>
            </trkpt>
            <trkpt lon="101.383182" lat="14.161770">
                <ele>137.500000</ele>
                <time>1970-01-01T03:14:55Z</time>
            </trkpt>
            <trkpt lon="101.383171" lat="14.161727">
                <ele>137.400000</ele>
                <time>1970-01-01T03:14:56Z</time>
            </trkpt>
            <trkpt lon="101.383153" lat="14.161690">
                <ele>137.400000</ele>
                <time>1970-01-01T03:14:57Z</time>
            </trkpt>
            <trkpt lon="101.383127" lat="14.161651">
                <ele>137.400000</ele>
                <time>1970-01-01T03:14:58Z</time>
            </trkpt>
            <trkpt lon="101.383095" lat="14.161614">
                <ele>137.700000</ele>
                <time>1970-01-01T03:14:59Z</time>
            </trkpt>
            <trkpt lon="101.383064" lat="14.161580">
                <ele>138.200000</ele>
                <time>1970-01-01T03:15:00Z</time>
            </trkpt>
            <trkpt lon="101.383033" lat="14.161550">
                <ele>138.500000</ele>
                <time>1970-01-01T03:15:01Z</time>
            </trkpt>
            <trkpt lon="101.383005" lat="14.161520">
                <ele>138.800000</ele>
                <time>1970-01-01T03:15:02Z</time>
            </trkpt>
            <trkpt lon="101.382971" lat="14.161486">
                <ele>139.300000</ele>
                <time>1970-01-01T03:15:03Z</time>
            </trkpt>
            <trkpt lon="101.382944" lat="14.161454">
                <ele>139.700000</ele>
                <time>1970-01-01T03:15:04Z</time>
            </trkpt>
            <trkpt lon="101.382920" lat="14.161424">
                <ele>139.800000</ele>
                <time>1970-01-01T03:15:05Z</time>
            </trkpt>
            <trkpt lon="101.382885" lat="14.161384">
                <ele>140.000000</ele>
                <time>1970-01-01T03:15:06Z</time>
            </trkpt>
            <trkpt lon="101.382848" lat="14.161349">
                <ele>140.300000</ele>
                <time>1970-01-01T03:15:07Z</time>
            </trkpt>
            <trkpt lon="101.382813" lat="14.161320">
                <ele>140.500000</ele>
                <time>1970-01-01T03:15:08Z</time>
            </trkpt>
            <trkpt lon="101.382778" lat="14.161292">
                <ele>140.600000</ele>
                <time>1970-01-01T03:15:09Z</time>
            </trkpt>
            <trkpt lon="101.382743" lat="14.161269">
                <ele>140.600000</ele>
                <time>1970-01-01T03:15:10Z</time>
            </trkpt>
            <trkpt lon="101.382706" lat="14.161247">
                <ele>140.100000</ele>
                <time>1970-01-01T03:15:11Z</time>
            </trkpt>
            <trkpt lon="101.382670" lat="14.161225">
                <ele>139.300000</ele>
                <time>1970-01-01T03:15:12Z</time>
            </trkpt>
            <trkpt lon="101.382643" lat="14.161203">
                <ele>138.900000</ele>
                <time>1970-01-01T03:15:13Z</time>
            </trkpt>
            <trkpt lon="101.382618" lat="14.161180">
                <ele>138.900000</ele>
                <time>1970-01-01T03:15:14Z</time>
            </trkpt>
            <trkpt lon="101.382593" lat="14.161156">
                <ele>138.400000</ele>
                <time>1970-01-01T03:15:15Z</time>
            </trkpt>
            <trkpt lon="101.382556" lat="14.161132">
                <ele>137.600000</ele>
                <time>1970-01-01T03:15:16Z</time>
            </trkpt>
            <trkpt lon="101.382516" lat="14.161108">
                <ele>137.200000</ele>
                <time>1970-01-01T03:15:17Z</time>
            </trkpt>
            <trkpt lon="101.382481" lat="14.161091">
                <ele>137.200000</ele>
                <time>1970-01-01T03:15:18Z</time>
            </trkpt>
            <trkpt lon="101.382445" lat="14.161081">
                <ele>136.900000</ele>
                <time>1970-01-01T03:15:19Z</time>
            </trkpt>
            <trkpt lon="101.382400" lat="14.161076">
                <ele>136.300000</ele>
                <time>1970-01-01T03:15:20Z</time>
            </trkpt>
            <trkpt lon="101.382307" lat="14.161050">
                <ele>134.300000</ele>
                <time>1970-01-01T03:15:21Z</time>
            </trkpt>
            <trkpt lon="101.382253" lat="14.161053">
                <ele>133.700000</ele>
                <time>1970-01-01T03:15:22Z</time>
            </trkpt>
            <trkpt lon="101.382208" lat="14.161048">
                <ele>133.200000</ele>
                <time>1970-01-01T03:15:23Z</time>
            </trkpt>
            <trkpt lon="101.382183" lat="14.161032">
                <ele>134.000000</ele>
                <time>1970-01-01T03:15:24Z</time>
            </trkpt>
            <trkpt lon="101.382138" lat="14.161026">
                <ele>133.500000</ele>
                <time>1970-01-01T03:15:25Z</time>
            </trkpt>
            <trkpt lon="101.382082" lat="14.160998">
                <ele>133.200000</ele>
                <time>1970-01-01T03:15:26Z</time>
            </trkpt>
            <trkpt lon="101.382042" lat="14.160962">
                <ele>132.800000</ele>
                <time>1970-01-01T03:15:27Z</time>
            </trkpt>
            <trkpt lon="101.381993" lat="14.160930">
                <ele>133.100000</ele>
                <time>1970-01-01T03:15:28Z</time>
            </trkpt>
            <trkpt lon="101.381990" lat="14.160882">
                <ele>134.100000</ele>
                <time>1970-01-01T03:15:30Z</time>
            </trkpt>
            <trkpt lon="101.381985" lat="14.160844">
                <ele>135.100000</ele>
                <time>1970-01-01T03:15:31Z</time>
            </trkpt>
            <trkpt lon="101.381970" lat="14.160805">
                <ele>136.100000</ele>
                <time>1970-01-01T03:15:32Z</time>
            </trkpt>
            <trkpt lon="101.381954" lat="14.160767">
                <ele>136.600000</ele>
                <time>1970-01-01T03:15:33Z</time>
            </trkpt>
            <trkpt lon="101.381937" lat="14.160740">
                <ele>137.500000</ele>
                <time>1970-01-01T03:15:34Z</time>
            </trkpt>
            <trkpt lon="101.381921" lat="14.160708">
                <ele>138.000000</ele>
                <time>1970-01-01T03:15:36Z</time>
            </trkpt>
            <trkpt lon="101.381896" lat="14.160675">
                <ele>138.000000</ele>
                <time>1970-01-01T03:15:38Z</time>
            </trkpt>
            <trkpt lon="101.381869" lat="14.160651">
                <ele>138.000000</ele>
                <time>1970-01-01T03:15:39Z</time>
            </trkpt>
            <trkpt lon="101.381843" lat="14.160633">
                <ele>138.000000</ele>
                <time>1970-01-01T03:15:40Z</time>
            </trkpt>
            <trkpt lon="101.381820" lat="14.160613">
                <ele>137.200000</ele>
                <time>1970-01-01T03:15:41Z</time>
            </trkpt>
            <trkpt lon="101.381803" lat="14.160591">
                <ele>137.300000</ele>
                <time>1970-01-01T03:15:42Z</time>
            </trkpt>
            <trkpt lon="101.381782" lat="14.160540">
                <ele>137.300000</ele>
                <time>1970-01-01T03:15:44Z</time>
            </trkpt>
            <trkpt lon="101.381761" lat="14.160496">
                <ele>137.800000</ele>
                <time>1970-01-01T03:15:46Z</time>
            </trkpt>
            <trkpt lon="101.381741" lat="14.160452">
                <ele>137.400000</ele>
                <time>1970-01-01T03:15:48Z</time>
            </trkpt>
            <trkpt lon="101.381737" lat="14.160425">
                <ele>137.400000</ele>
                <time>1970-01-01T03:15:49Z</time>
            </trkpt>
            <trkpt lon="101.381735" lat="14.160394">
                <ele>137.800000</ele>
                <time>1970-01-01T03:15:50Z</time>
            </trkpt>
            <trkpt lon="101.381739" lat="14.160355">
                <ele>138.100000</ele>
                <time>1970-01-01T03:15:52Z</time>
            </trkpt>
            <trkpt lon="101.381750" lat="14.160322">
                <ele>138.400000</ele>
                <time>1970-01-01T03:15:54Z</time>
            </trkpt>
            <trkpt lon="101.381766" lat="14.160289">
                <ele>139.000000</ele>
                <time>1970-01-01T03:15:56Z</time>
            </trkpt>
            <trkpt lon="101.381789" lat="14.160240">
                <ele>139.000000</ele>
                <time>1970-01-01T03:15:58Z</time>
            </trkpt>
            <trkpt lon="101.381799" lat="14.160202">
                <ele>139.100000</ele>
                <time>1970-01-01T03:16:00Z</time>
            </trkpt>
            <trkpt lon="101.381789" lat="14.160158">
                <ele>139.000000</ele>
                <time>1970-01-01T03:16:02Z</time>
            </trkpt>
            <trkpt lon="101.381774" lat="14.160125">
                <ele>139.000000</ele>
                <time>1970-01-01T03:16:04Z</time>
            </trkpt>
            <trkpt lon="101.381751" lat="14.160096">
                <ele>139.000000</ele>
                <time>1970-01-01T03:16:06Z</time>
            </trkpt>
            <trkpt lon="101.381729" lat="14.160059">
                <ele>139.000000</ele>
                <time>1970-01-01T03:16:08Z</time>
            </trkpt>
            <trkpt lon="101.381721" lat="14.160030">
                <ele>139.000000</ele>
                <time>1970-01-01T03:16:10Z</time>
            </trkpt>
            <trkpt lon="101.381717" lat="14.159991">
                <ele>139.000000</ele>
                <time>1970-01-01T03:16:12Z</time>
            </trkpt>
            <trkpt lon="101.381706" lat="14.159938">
                <ele>139.000000</ele>
                <time>1970-01-01T03:16:14Z</time>
            </trkpt>
            <trkpt lon="101.381705" lat="14.159900">
                <ele>139.100000</ele>
                <time>1970-01-01T03:16:16Z</time>
            </trkpt>
            <trkpt lon="101.381695" lat="14.159869">
                <ele>139.100000</ele>
                <time>1970-01-01T03:16:18Z</time>
            </trkpt>
            <trkpt lon="101.381677" lat="14.159830">
                <ele>139.100000</ele>
                <time>1970-01-01T03:16:20Z</time>
            </trkpt>
            <trkpt lon="101.381659" lat="14.159782">
                <ele>139.100000</ele>
                <time>1970-01-01T03:16:22Z</time>
            </trkpt>
            <trkpt lon="101.381653" lat="14.159732">
                <ele>139.100000</ele>
                <time>1970-01-01T03:16:24Z</time>
            </trkpt>
            <trkpt lon="101.381647" lat="14.159684">
                <ele>139.100000</ele>
                <time>1970-01-01T03:16:26Z</time>
            </trkpt>
            <trkpt lon="101.381635" lat="14.159639">
                <ele>139.100000</ele>
                <time>1970-01-01T03:16:28Z</time>
            </trkpt>
            <trkpt lon="101.381597" lat="14.159609">
                <ele>139.100000</ele>
                <time>1970-01-01T03:16:30Z</time>
            </trkpt>
            <trkpt lon="101.381552" lat="14.159601">
                <ele>139.100000</ele>
                <time>1970-01-01T03:16:32Z</time>
            </trkpt>
            <trkpt lon="101.381520" lat="14.159595">
                <ele>139.100000</ele>
                <time>1970-01-01T03:16:34Z</time>
            </trkpt>
            <trkpt lon="101.381483" lat="14.159576">
                <ele>139.100000</ele>
                <time>1970-01-01T03:16:36Z</time>
            </trkpt>
            <trkpt lon="101.381448" lat="14.159548">
                <ele>139.200000</ele>
                <time>1970-01-01T03:16:39Z</time>
            </trkpt>
            <trkpt lon="101.381423" lat="14.159520">
                <ele>139.200000</ele>
                <time>1970-01-01T03:16:41Z</time>
            </trkpt>
            <trkpt lon="101.381398" lat="14.159492">
                <ele>139.300000</ele>
                <time>1970-01-01T03:16:43Z</time>
            </trkpt>
            <trkpt lon="101.381374" lat="14.159473">
                <ele>139.300000</ele>
                <time>1970-01-01T03:16:45Z</time>
            </trkpt>
            <trkpt lon="101.381345" lat="14.159451">
                <ele>139.600000</ele>
                <time>1970-01-01T03:16:47Z</time>
            </trkpt>
            <trkpt lon="101.381320" lat="14.159416">
                <ele>139.900000</ele>
                <time>1970-01-01T03:16:49Z</time>
            </trkpt>
            <trkpt lon="101.381284" lat="14.159372">
                <ele>139.900000</ele>
                <time>1970-01-01T03:16:51Z</time>
            </trkpt>
            <trkpt lon="101.381263" lat="14.159350">
                <ele>140.200000</ele>
                <time>1970-01-01T03:16:52Z</time>
            </trkpt>
            <trkpt lon="101.381226" lat="14.159311">
                <ele>140.600000</ele>
                <time>1970-01-01T03:16:54Z</time>
            </trkpt>
            <trkpt lon="101.381202" lat="14.159289">
                <ele>140.600000</ele>
                <time>1970-01-01T03:16:55Z</time>
            </trkpt>
            <trkpt lon="101.381176" lat="14.159269">
                <ele>141.100000</ele>
                <time>1970-01-01T03:16:56Z</time>
            </trkpt>
            <trkpt lon="101.381135" lat="14.159252">
                <ele>141.600000</ele>
                <time>1970-01-01T03:16:58Z</time>
            </trkpt>
            <trkpt lon="101.381092" lat="14.159243">
                <ele>142.100000</ele>
                <time>1970-01-01T03:17:00Z</time>
            </trkpt>
            <trkpt lon="101.381060" lat="14.159236">
                <ele>142.400000</ele>
                <time>1970-01-01T03:17:01Z</time>
            </trkpt>
            <trkpt lon="101.381032" lat="14.159229">
                <ele>142.500000</ele>
                <time>1970-01-01T03:17:02Z</time>
            </trkpt>
            <trkpt lon="101.381003" lat="14.159220">
                <ele>142.700000</ele>
                <time>1970-01-01T03:17:03Z</time>
            </trkpt>
            <trkpt lon="101.380974" lat="14.159211">
                <ele>143.000000</ele>
                <time>1970-01-01T03:17:04Z</time>
            </trkpt>
            <trkpt lon="101.380947" lat="14.159202">
                <ele>143.000000</ele>
                <time>1970-01-01T03:17:05Z</time>
            </trkpt>
            <trkpt lon="101.380883" lat="14.159174">
                <ele>143.100000</ele>
                <time>1970-01-01T03:17:09Z</time>
            </trkpt>
            <trkpt lon="101.380847" lat="14.159152">
                <ele>142.900000</ele>
                <time>1970-01-01T03:18:02Z</time>
            </trkpt>
            <trkpt lon="101.380818" lat="14.159145">
                <ele>142.900000</ele>
                <time>1970-01-01T03:18:04Z</time>
            </trkpt>
            <trkpt lon="101.380779" lat="14.159140">
                <ele>142.600000</ele>
                <time>1970-01-01T03:18:06Z</time>
            </trkpt>
            <trkpt lon="101.380734" lat="14.159126">
                <ele>142.400000</ele>
                <time>1970-01-01T03:18:08Z</time>
            </trkpt>
            <trkpt lon="101.380680" lat="14.159114">
                <ele>142.200000</ele>
                <time>1970-01-01T03:18:10Z</time>
            </trkpt>
            <trkpt lon="101.380634" lat="14.159095">
                <ele>141.700000</ele>
                <time>1970-01-01T03:18:12Z</time>
            </trkpt>
            <trkpt lon="101.380586" lat="14.159072">
                <ele>141.700000</ele>
                <time>1970-01-01T03:18:14Z</time>
            </trkpt>
            <trkpt lon="101.380542" lat="14.159058">
                <ele>141.600000</ele>
                <time>1970-01-01T03:18:16Z</time>
            </trkpt>
            <trkpt lon="101.380491" lat="14.159050">
                <ele>141.400000</ele>
                <time>1970-01-01T03:18:18Z</time>
            </trkpt>
            <trkpt lon="101.380444" lat="14.159033">
                <ele>141.700000</ele>
                <time>1970-01-01T03:18:20Z</time>
            </trkpt>
            <trkpt lon="101.380421" lat="14.159017">
                <ele>141.700000</ele>
                <time>1970-01-01T03:18:21Z</time>
            </trkpt>
            <trkpt lon="101.380399" lat="14.158999">
                <ele>142.000000</ele>
                <time>1970-01-01T03:18:22Z</time>
            </trkpt>
            <trkpt lon="101.380372" lat="14.158978">
                <ele>141.900000</ele>
                <time>1970-01-01T03:18:23Z</time>
            </trkpt>
            <trkpt lon="101.380339" lat="14.158953">
                <ele>142.400000</ele>
                <time>1970-01-01T03:18:25Z</time>
            </trkpt>
            <trkpt lon="101.380315" lat="14.158935">
                <ele>142.100000</ele>
                <time>1970-01-01T03:18:26Z</time>
            </trkpt>
            <trkpt lon="101.380282" lat="14.158918">
                <ele>142.400000</ele>
                <time>1970-01-01T03:18:27Z</time>
            </trkpt>
            <trkpt lon="101.380246" lat="14.158901">
                <ele>142.100000</ele>
                <time>1970-01-01T03:18:28Z</time>
            </trkpt>
            <trkpt lon="101.380212" lat="14.158893">
                <ele>142.200000</ele>
                <time>1970-01-01T03:18:29Z</time>
            </trkpt>
            <trkpt lon="101.380181" lat="14.158889">
                <ele>141.800000</ele>
                <time>1970-01-01T03:18:30Z</time>
            </trkpt>
            <trkpt lon="101.380149" lat="14.158886">
                <ele>141.400000</ele>
                <time>1970-01-01T03:18:31Z</time>
            </trkpt>
            <trkpt lon="101.380121" lat="14.158875">
                <ele>142.000000</ele>
                <time>1970-01-01T03:18:32Z</time>
            </trkpt>
            <trkpt lon="101.380095" lat="14.158857">
                <ele>141.600000</ele>
                <time>1970-01-01T03:18:33Z</time>
            </trkpt>
            <trkpt lon="101.380072" lat="14.158832">
                <ele>142.000000</ele>
                <time>1970-01-01T03:18:34Z</time>
            </trkpt>
            <trkpt lon="101.380046" lat="14.158803">
                <ele>142.000000</ele>
                <time>1970-01-01T03:18:35Z</time>
            </trkpt>
            <trkpt lon="101.380021" lat="14.158784">
                <ele>142.300000</ele>
                <time>1970-01-01T03:18:36Z</time>
            </trkpt>
            <trkpt lon="101.379994" lat="14.158767">
                <ele>142.400000</ele>
                <time>1970-01-01T03:18:37Z</time>
            </trkpt>
            <trkpt lon="101.379960" lat="14.158746">
                <ele>142.600000</ele>
                <time>1970-01-01T03:18:38Z</time>
            </trkpt>
            <trkpt lon="101.379930" lat="14.158723">
                <ele>142.100000</ele>
                <time>1970-01-01T03:18:39Z</time>
            </trkpt>
            <trkpt lon="101.379902" lat="14.158697">
                <ele>142.400000</ele>
                <time>1970-01-01T03:18:40Z</time>
            </trkpt>
            <trkpt lon="101.379873" lat="14.158663">
                <ele>143.100000</ele>
                <time>1970-01-01T03:18:41Z</time>
            </trkpt>
            <trkpt lon="101.379843" lat="14.158629">
                <ele>143.200000</ele>
                <time>1970-01-01T03:18:42Z</time>
            </trkpt>
            <trkpt lon="101.379816" lat="14.158597">
                <ele>142.500000</ele>
                <time>1970-01-01T03:18:43Z</time>
            </trkpt>
            <trkpt lon="101.379799" lat="14.158573">
                <ele>143.200000</ele>
                <time>1970-01-01T03:18:44Z</time>
            </trkpt>
            <trkpt lon="101.379759" lat="14.158544">
                <ele>143.300000</ele>
                <time>1970-01-01T03:18:46Z</time>
            </trkpt>
            <trkpt lon="101.379725" lat="14.158531">
                <ele>142.500000</ele>
                <time>1970-01-01T03:18:47Z</time>
            </trkpt>
            <trkpt lon="101.379687" lat="14.158510">
                <ele>141.700000</ele>
                <time>1970-01-01T03:18:48Z</time>
            </trkpt>
            <trkpt lon="101.379652" lat="14.158480">
                <ele>142.500000</ele>
                <time>1970-01-01T03:18:49Z</time>
            </trkpt>
            <trkpt lon="101.379624" lat="14.158439">
                <ele>142.500000</ele>
                <time>1970-01-01T03:18:50Z</time>
            </trkpt>
            <trkpt lon="101.379608" lat="14.158402">
                <ele>143.300000</ele>
                <time>1970-01-01T03:18:51Z</time>
            </trkpt>
            <trkpt lon="101.379603" lat="14.158369">
                <ele>143.300000</ele>
                <time>1970-01-01T03:18:52Z</time>
            </trkpt>
            <trkpt lon="101.379602" lat="14.158341">
                <ele>143.300000</ele>
                <time>1970-01-01T03:18:53Z</time>
            </trkpt>
            <trkpt lon="101.379606" lat="14.158288">
                <ele>145.500000</ele>
                <time>1970-01-01T03:18:55Z</time>
            </trkpt>
            <trkpt lon="101.379600" lat="14.158260">
                <ele>144.800000</ele>
                <time>1970-01-01T03:18:56Z</time>
            </trkpt>
            <trkpt lon="101.379588" lat="14.158232">
                <ele>145.300000</ele>
                <time>1970-01-01T03:18:57Z</time>
            </trkpt>
            <trkpt lon="101.379576" lat="14.158204">
                <ele>145.800000</ele>
                <time>1970-01-01T03:18:58Z</time>
            </trkpt>
            <trkpt lon="101.379560" lat="14.158178">
                <ele>145.000000</ele>
                <time>1970-01-01T03:18:59Z</time>
            </trkpt>
            <trkpt lon="101.379540" lat="14.158150">
                <ele>145.600000</ele>
                <time>1970-01-01T03:19:00Z</time>
            </trkpt>
            <trkpt lon="101.379520" lat="14.158117">
                <ele>146.000000</ele>
                <time>1970-01-01T03:19:01Z</time>
            </trkpt>
            <trkpt lon="101.379505" lat="14.158082">
                <ele>145.300000</ele>
                <time>1970-01-01T03:19:02Z</time>
            </trkpt>
            <trkpt lon="101.379501" lat="14.158050">
                <ele>145.400000</ele>
                <time>1970-01-01T03:19:03Z</time>
            </trkpt>
            <trkpt lon="101.379502" lat="14.158017">
                <ele>145.600000</ele>
                <time>1970-01-01T03:19:04Z</time>
            </trkpt>
            <trkpt lon="101.379499" lat="14.157983">
                <ele>145.900000</ele>
                <time>1970-01-01T03:19:05Z</time>
            </trkpt>
            <trkpt lon="101.379485" lat="14.157952">
                <ele>146.000000</ele>
                <time>1970-01-01T03:19:06Z</time>
            </trkpt>
            <trkpt lon="101.379468" lat="14.157928">
                <ele>145.100000</ele>
                <time>1970-01-01T03:19:07Z</time>
            </trkpt>
            <trkpt lon="101.379422" lat="14.157894">
                <ele>144.200000</ele>
                <time>1970-01-01T03:19:09Z</time>
            </trkpt>
            <trkpt lon="101.379392" lat="14.157867">
                <ele>144.300000</ele>
                <time>1970-01-01T03:19:10Z</time>
            </trkpt>
            <trkpt lon="101.379367" lat="14.157839">
                <ele>143.900000</ele>
                <time>1970-01-01T03:19:11Z</time>
            </trkpt>
            <trkpt lon="101.379348" lat="14.157816">
                <ele>143.900000</ele>
                <time>1970-01-01T03:19:12Z</time>
            </trkpt>
            <trkpt lon="101.379324" lat="14.157792">
                <ele>143.000000</ele>
                <time>1970-01-01T03:19:13Z</time>
            </trkpt>
            <trkpt lon="101.379298" lat="14.157770">
                <ele>142.000000</ele>
                <time>1970-01-01T03:19:14Z</time>
            </trkpt>
            <trkpt lon="101.379270" lat="14.157750">
                <ele>141.900000</ele>
                <time>1970-01-01T03:19:15Z</time>
            </trkpt>
            <trkpt lon="101.379239" lat="14.157734">
                <ele>141.000000</ele>
                <time>1970-01-01T03:19:16Z</time>
            </trkpt>
            <trkpt lon="101.379212" lat="14.157723">
                <ele>140.100000</ele>
                <time>1970-01-01T03:19:17Z</time>
            </trkpt>
            <trkpt lon="101.379182" lat="14.157716">
                <ele>140.100000</ele>
                <time>1970-01-01T03:19:18Z</time>
            </trkpt>
            <trkpt lon="101.379152" lat="14.157710">
                <ele>139.300000</ele>
                <time>1970-01-01T03:19:19Z</time>
            </trkpt>
            <trkpt lon="101.379123" lat="14.157696">
                <ele>138.500000</ele>
                <time>1970-01-01T03:19:20Z</time>
            </trkpt>
            <trkpt lon="101.379101" lat="14.157677">
                <ele>138.500000</ele>
                <time>1970-01-01T03:19:21Z</time>
            </trkpt>
            <trkpt lon="101.379076" lat="14.157629">
                <ele>137.900000</ele>
                <time>1970-01-01T03:19:23Z</time>
            </trkpt>
            <trkpt lon="101.379062" lat="14.157596">
                <ele>137.900000</ele>
                <time>1970-01-01T03:19:25Z</time>
            </trkpt>
            <trkpt lon="101.379058" lat="14.157559">
                <ele>137.900000</ele>
                <time>1970-01-01T03:19:27Z</time>
            </trkpt>
            <trkpt lon="101.379050" lat="14.157512">
                <ele>137.900000</ele>
                <time>1970-01-01T03:19:29Z</time>
            </trkpt>
            <trkpt lon="101.379038" lat="14.157481">
                <ele>137.200000</ele>
                <time>1970-01-01T03:19:30Z</time>
            </trkpt>
            <trkpt lon="101.379024" lat="14.157452">
                <ele>137.500000</ele>
                <time>1970-01-01T03:19:31Z</time>
            </trkpt>
            <trkpt lon="101.379009" lat="14.157424">
                <ele>138.000000</ele>
                <time>1970-01-01T03:19:32Z</time>
            </trkpt>
            <trkpt lon="101.378999" lat="14.157398">
                <ele>137.400000</ele>
                <time>1970-01-01T03:19:33Z</time>
            </trkpt>
            <trkpt lon="101.378995" lat="14.157349">
                <ele>138.000000</ele>
                <time>1970-01-01T03:19:35Z</time>
            </trkpt>
            <trkpt lon="101.379012" lat="14.157305">
                <ele>138.900000</ele>
                <time>1970-01-01T03:19:37Z</time>
            </trkpt>
            <trkpt lon="101.379041" lat="14.157261">
                <ele>139.100000</ele>
                <time>1970-01-01T03:19:39Z</time>
            </trkpt>
            <trkpt lon="101.379060" lat="14.157216">
                <ele>139.300000</ele>
                <time>1970-01-01T03:19:41Z</time>
            </trkpt>
            <trkpt lon="101.379073" lat="14.157176">
                <ele>139.300000</ele>
                <time>1970-01-01T03:19:43Z</time>
            </trkpt>
            <trkpt lon="101.379099" lat="14.157133">
                <ele>139.600000</ele>
                <time>1970-01-01T03:19:45Z</time>
            </trkpt>
            <trkpt lon="101.379116" lat="14.157111">
                <ele>139.600000</ele>
                <time>1970-01-01T03:19:46Z</time>
            </trkpt>
            <trkpt lon="101.379152" lat="14.157078">
                <ele>139.800000</ele>
                <time>1970-01-01T03:19:48Z</time>
            </trkpt>
            <trkpt lon="101.379193" lat="14.157041">
                <ele>140.100000</ele>
                <time>1970-01-01T03:19:50Z</time>
            </trkpt>
            <trkpt lon="101.379215" lat="14.157020">
                <ele>140.100000</ele>
                <time>1970-01-01T03:19:51Z</time>
            </trkpt>
            <trkpt lon="101.379249" lat="14.156987">
                <ele>140.400000</ele>
                <time>1970-01-01T03:19:53Z</time>
            </trkpt>
            <trkpt lon="101.379272" lat="14.156954">
                <ele>140.800000</ele>
                <time>1970-01-01T03:19:55Z</time>
            </trkpt>
            <trkpt lon="101.379291" lat="14.156921">
                <ele>141.100000</ele>
                <time>1970-01-01T03:19:57Z</time>
            </trkpt>
            <trkpt lon="101.379331" lat="14.156882">
                <ele>141.600000</ele>
                <time>1970-01-01T03:19:59Z</time>
            </trkpt>
            <trkpt lon="101.379355" lat="14.156862">
                <ele>141.900000</ele>
                <time>1970-01-01T03:20:00Z</time>
            </trkpt>
            <trkpt lon="101.379386" lat="14.156828">
                <ele>142.100000</ele>
                <time>1970-01-01T03:20:02Z</time>
            </trkpt>
            <trkpt lon="101.379403" lat="14.156784">
                <ele>142.400000</ele>
                <time>1970-01-01T03:20:04Z</time>
            </trkpt>
            <trkpt lon="101.379393" lat="14.156752">
                <ele>142.300000</ele>
                <time>1970-01-01T03:20:05Z</time>
            </trkpt>
            <trkpt lon="101.379372" lat="14.156721">
                <ele>142.100000</ele>
                <time>1970-01-01T03:20:06Z</time>
            </trkpt>
            <trkpt lon="101.379348" lat="14.156695">
                <ele>142.100000</ele>
                <time>1970-01-01T03:20:07Z</time>
            </trkpt>
            <trkpt lon="101.379330" lat="14.156669">
                <ele>142.100000</ele>
                <time>1970-01-01T03:20:08Z</time>
            </trkpt>
            <trkpt lon="101.379315" lat="14.156640">
                <ele>142.100000</ele>
                <time>1970-01-01T03:20:09Z</time>
            </trkpt>
            <trkpt lon="101.379302" lat="14.156609">
                <ele>141.900000</ele>
                <time>1970-01-01T03:20:10Z</time>
            </trkpt>
            <trkpt lon="101.379296" lat="14.156579">
                <ele>141.700000</ele>
                <time>1970-01-01T03:20:11Z</time>
            </trkpt>
            <trkpt lon="101.379298" lat="14.156534">
                <ele>141.500000</ele>
                <time>1970-01-01T03:20:13Z</time>
            </trkpt>
            <trkpt lon="101.379334" lat="14.156485">
                <ele>141.200000</ele>
                <time>1970-01-01T03:20:22Z</time>
            </trkpt>
            <trkpt lon="101.379364" lat="14.156449">
                <ele>141.000000</ele>
                <time>1970-01-01T03:20:25Z</time>
            </trkpt>
            <trkpt lon="101.379390" lat="14.156416">
                <ele>140.900000</ele>
                <time>1970-01-01T03:20:27Z</time>
            </trkpt>
            <trkpt lon="101.379409" lat="14.156393">
                <ele>140.900000</ele>
                <time>1970-01-01T03:20:28Z</time>
            </trkpt>
            <trkpt lon="101.379429" lat="14.156371">
                <ele>140.700000</ele>
                <time>1970-01-01T03:20:29Z</time>
            </trkpt>
            <trkpt lon="101.379447" lat="14.156349">
                <ele>140.900000</ele>
                <time>1970-01-01T03:20:30Z</time>
            </trkpt>
            <trkpt lon="101.379460" lat="14.156321">
                <ele>140.800000</ele>
                <time>1970-01-01T03:20:31Z</time>
            </trkpt>
            <trkpt lon="101.379478" lat="14.156279">
                <ele>140.900000</ele>
                <time>1970-01-01T03:20:33Z</time>
            </trkpt>
            <trkpt lon="101.379501" lat="14.156231">
                <ele>140.700000</ele>
                <time>1970-01-01T03:20:35Z</time>
            </trkpt>
            <trkpt lon="101.379500" lat="14.156202">
                <ele>140.500000</ele>
                <time>1970-01-01T03:20:37Z</time>
            </trkpt>
            <trkpt lon="101.379484" lat="14.156166">
                <ele>140.300000</ele>
                <time>1970-01-01T03:20:41Z</time>
            </trkpt>
            <trkpt lon="101.379455" lat="14.156151">
                <ele>140.300000</ele>
                <time>1970-01-01T03:20:42Z</time>
            </trkpt>
            <trkpt lon="101.379431" lat="14.156133">
                <ele>140.100000</ele>
                <time>1970-01-01T03:20:43Z</time>
            </trkpt>
            <trkpt lon="101.379412" lat="14.156107">
                <ele>140.100000</ele>
                <time>1970-01-01T03:20:44Z</time>
            </trkpt>
            <trkpt lon="101.379397" lat="14.156076">
                <ele>140.000000</ele>
                <time>1970-01-01T03:20:45Z</time>
            </trkpt>
            <trkpt lon="101.379396" lat="14.156032">
                <ele>139.800000</ele>
                <time>1970-01-01T03:20:46Z</time>
            </trkpt>
            <trkpt lon="101.379403" lat="14.155991">
                <ele>139.700000</ele>
                <time>1970-01-01T03:20:47Z</time>
            </trkpt>
            <trkpt lon="101.379412" lat="14.155959">
                <ele>139.500000</ele>
                <time>1970-01-01T03:20:48Z</time>
            </trkpt>
            <trkpt lon="101.379419" lat="14.155931">
                <ele>139.500000</ele>
                <time>1970-01-01T03:20:49Z</time>
            </trkpt>
            <trkpt lon="101.379417" lat="14.155898">
                <ele>139.200000</ele>
                <time>1970-01-01T03:20:50Z</time>
            </trkpt>
            <trkpt lon="101.379411" lat="14.155859">
                <ele>139.000000</ele>
                <time>1970-01-01T03:20:51Z</time>
            </trkpt>
            <trkpt lon="101.379399" lat="14.155820">
                <ele>138.700000</ele>
                <time>1970-01-01T03:20:52Z</time>
            </trkpt>
            <trkpt lon="101.379383" lat="14.155785">
                <ele>138.200000</ele>
                <time>1970-01-01T03:20:53Z</time>
            </trkpt>
            <trkpt lon="101.379367" lat="14.155752">
                <ele>138.000000</ele>
                <time>1970-01-01T03:20:54Z</time>
            </trkpt>
            <trkpt lon="101.379355" lat="14.155719">
                <ele>138.000000</ele>
                <time>1970-01-01T03:20:55Z</time>
            </trkpt>
            <trkpt lon="101.379347" lat="14.155685">
                <ele>137.700000</ele>
                <time>1970-01-01T03:20:56Z</time>
            </trkpt>
            <trkpt lon="101.379340" lat="14.155648">
                <ele>137.300000</ele>
                <time>1970-01-01T03:20:57Z</time>
            </trkpt>
            <trkpt lon="101.379332" lat="14.155609">
                <ele>136.700000</ele>
                <time>1970-01-01T03:20:58Z</time>
            </trkpt>
            <trkpt lon="101.379316" lat="14.155568">
                <ele>136.000000</ele>
                <time>1970-01-01T03:20:59Z</time>
            </trkpt>
            <trkpt lon="101.379299" lat="14.155527">
                <ele>135.300000</ele>
                <time>1970-01-01T03:21:00Z</time>
            </trkpt>
            <trkpt lon="101.379277" lat="14.155448">
                <ele>134.000000</ele>
                <time>1970-01-01T03:21:01Z</time>
            </trkpt>
            <trkpt lon="101.379252" lat="14.155403">
                <ele>133.300000</ele>
                <time>1970-01-01T03:21:02Z</time>
            </trkpt>
            <trkpt lon="101.379266" lat="14.155341">
                <ele>132.200000</ele>
                <time>1970-01-01T03:21:03Z</time>
            </trkpt>
            <trkpt lon="101.379283" lat="14.155283">
                <ele>131.800000</ele>
                <time>1970-01-01T03:21:04Z</time>
            </trkpt>
            <trkpt lon="101.379288" lat="14.155248">
                <ele>131.400000</ele>
                <time>1970-01-01T03:21:05Z</time>
            </trkpt>
            <trkpt lon="101.379297" lat="14.155200">
                <ele>131.000000</ele>
                <time>1970-01-01T03:21:06Z</time>
            </trkpt>
            <trkpt lon="101.379326" lat="14.155165">
                <ele>130.600000</ele>
                <time>1970-01-01T03:21:07Z</time>
            </trkpt>
            <trkpt lon="101.379349" lat="14.155128">
                <ele>130.400000</ele>
                <time>1970-01-01T03:21:08Z</time>
            </trkpt>
            <trkpt lon="101.379362" lat="14.155095">
                <ele>130.400000</ele>
                <time>1970-01-01T03:21:09Z</time>
            </trkpt>
            <trkpt lon="101.379358" lat="14.155030">
                <ele>129.900000</ele>
                <time>1970-01-01T03:21:11Z</time>
            </trkpt>
            <trkpt lon="101.379362" lat="14.154998">
                <ele>129.700000</ele>
                <time>1970-01-01T03:21:12Z</time>
            </trkpt>
            <trkpt lon="101.379372" lat="14.154962">
                <ele>129.600000</ele>
                <time>1970-01-01T03:21:13Z</time>
            </trkpt>
            <trkpt lon="101.379388" lat="14.154925">
                <ele>129.600000</ele>
                <time>1970-01-01T03:21:14Z</time>
            </trkpt>
            <trkpt lon="101.379402" lat="14.154889">
                <ele>130.000000</ele>
                <time>1970-01-01T03:21:15Z</time>
            </trkpt>
            <trkpt lon="101.379422" lat="14.154854">
                <ele>130.100000</ele>
                <time>1970-01-01T03:21:16Z</time>
            </trkpt>
            <trkpt lon="101.379445" lat="14.154825">
                <ele>130.600000</ele>
                <time>1970-01-01T03:21:17Z</time>
            </trkpt>
            <trkpt lon="101.379463" lat="14.154805">
                <ele>130.700000</ele>
                <time>1970-01-01T03:21:18Z</time>
            </trkpt>
            <trkpt lon="101.379495" lat="14.154769">
                <ele>131.500000</ele>
                <time>1970-01-01T03:21:20Z</time>
            </trkpt>
            <trkpt lon="101.379515" lat="14.154741">
                <ele>132.000000</ele>
                <time>1970-01-01T03:21:22Z</time>
            </trkpt>
            <trkpt lon="101.379540" lat="14.154707">
                <ele>133.000000</ele>
                <time>1970-01-01T03:21:24Z</time>
            </trkpt>
            <trkpt lon="101.379560" lat="14.154683">
                <ele>133.000000</ele>
                <time>1970-01-01T03:21:25Z</time>
            </trkpt>
            <trkpt lon="101.379581" lat="14.154661">
                <ele>133.700000</ele>
                <time>1970-01-01T03:21:26Z</time>
            </trkpt>
            <trkpt lon="101.379614" lat="14.154619">
                <ele>134.500000</ele>
                <time>1970-01-01T03:21:28Z</time>
            </trkpt>
            <trkpt lon="101.379647" lat="14.154580">
                <ele>135.000000</ele>
                <time>1970-01-01T03:21:30Z</time>
            </trkpt>
            <trkpt lon="101.379668" lat="14.154554">
                <ele>135.200000</ele>
                <time>1970-01-01T03:21:32Z</time>
            </trkpt>
            <trkpt lon="101.379683" lat="14.154523">
                <ele>135.800000</ele>
                <time>1970-01-01T03:21:34Z</time>
            </trkpt>
            <trkpt lon="101.379702" lat="14.154481">
                <ele>136.400000</ele>
                <time>1970-01-01T03:21:36Z</time>
            </trkpt>
            <trkpt lon="101.379743" lat="14.154445">
                <ele>136.800000</ele>
                <time>1970-01-01T03:21:38Z</time>
            </trkpt>
            <trkpt lon="101.379786" lat="14.154418">
                <ele>137.000000</ele>
                <time>1970-01-01T03:21:40Z</time>
            </trkpt>
            <trkpt lon="101.379829" lat="14.154391">
                <ele>137.100000</ele>
                <time>1970-01-01T03:21:42Z</time>
            </trkpt>
            <trkpt lon="101.379860" lat="14.154365">
                <ele>137.300000</ele>
                <time>1970-01-01T03:21:44Z</time>
            </trkpt>
            <trkpt lon="101.379897" lat="14.154342">
                <ele>137.600000</ele>
                <time>1970-01-01T03:21:46Z</time>
            </trkpt>
            <trkpt lon="101.379930" lat="14.154338">
                <ele>137.900000</ele>
                <time>1970-01-01T03:21:48Z</time>
            </trkpt>
            <trkpt lon="101.379967" lat="14.154352">
                <ele>137.900000</ele>
                <time>1970-01-01T03:21:50Z</time>
            </trkpt>
            <trkpt lon="101.379998" lat="14.154365">
                <ele>138.200000</ele>
                <time>1970-01-01T03:21:52Z</time>
            </trkpt>
            <trkpt lon="101.380028" lat="14.154366">
                <ele>138.200000</ele>
                <time>1970-01-01T03:21:54Z</time>
            </trkpt>
            <trkpt lon="101.380047" lat="14.154388">
                <ele>138.200000</ele>
                <time>1970-01-01T03:21:56Z</time>
            </trkpt>
            <trkpt lon="101.380075" lat="14.154424">
                <ele>138.200000</ele>
                <time>1970-01-01T03:21:58Z</time>
            </trkpt>
            <trkpt lon="101.380101" lat="14.154454">
                <ele>138.200000</ele>
                <time>1970-01-01T03:22:00Z</time>
            </trkpt>
            <trkpt lon="101.380097" lat="14.154502">
                <ele>138.100000</ele>
                <time>1970-01-01T03:22:02Z</time>
            </trkpt>
            <trkpt lon="101.380089" lat="14.154536">
                <ele>138.100000</ele>
                <time>1970-01-01T03:22:03Z</time>
            </trkpt>
            <trkpt lon="101.380078" lat="14.154589">
                <ele>138.100000</ele>
                <time>1970-01-01T03:22:05Z</time>
            </trkpt>
            <trkpt lon="101.380082" lat="14.154629">
                <ele>138.100000</ele>
                <time>1970-01-01T03:22:07Z</time>
            </trkpt>
            <trkpt lon="101.380115" lat="14.154639">
                <ele>138.000000</ele>
                <time>1970-01-01T03:22:09Z</time>
            </trkpt>
            <trkpt lon="101.380155" lat="14.154633">
                <ele>138.400000</ele>
                <time>1970-01-01T03:22:11Z</time>
            </trkpt>
            <trkpt lon="101.380190" lat="14.154619">
                <ele>138.600000</ele>
                <time>1970-01-01T03:22:13Z</time>
            </trkpt>
            <trkpt lon="101.380230" lat="14.154607">
                <ele>138.900000</ele>
                <time>1970-01-01T03:22:15Z</time>
            </trkpt>
            <trkpt lon="101.380286" lat="14.154608">
                <ele>139.200000</ele>
                <time>1970-01-01T03:22:17Z</time>
            </trkpt>
            <trkpt lon="101.380317" lat="14.154609">
                <ele>139.500000</ele>
                <time>1970-01-01T03:22:18Z</time>
            </trkpt>
            <trkpt lon="101.380351" lat="14.154609">
                <ele>139.800000</ele>
                <time>1970-01-01T03:22:19Z</time>
            </trkpt>
            <trkpt lon="101.380381" lat="14.154608">
                <ele>140.100000</ele>
                <time>1970-01-01T03:22:20Z</time>
            </trkpt>
            <trkpt lon="101.380409" lat="14.154608">
                <ele>140.100000</ele>
                <time>1970-01-01T03:22:21Z</time>
            </trkpt>
            <trkpt lon="101.380437" lat="14.154610">
                <ele>140.600000</ele>
                <time>1970-01-01T03:22:22Z</time>
            </trkpt>
            <trkpt lon="101.380487" lat="14.154635">
                <ele>141.100000</ele>
                <time>1970-01-01T03:22:24Z</time>
            </trkpt>
            <trkpt lon="101.380517" lat="14.154648">
                <ele>141.500000</ele>
                <time>1970-01-01T03:22:25Z</time>
            </trkpt>
            <trkpt lon="101.380545" lat="14.154658">
                <ele>141.500000</ele>
                <time>1970-01-01T03:22:26Z</time>
            </trkpt>
            <trkpt lon="101.380576" lat="14.154671">
                <ele>142.000000</ele>
                <time>1970-01-01T03:22:27Z</time>
            </trkpt>
            <trkpt lon="101.380602" lat="14.154686">
                <ele>142.300000</ele>
                <time>1970-01-01T03:22:28Z</time>
            </trkpt>
            <trkpt lon="101.380640" lat="14.154716">
                <ele>142.700000</ele>
                <time>1970-01-01T03:22:30Z</time>
            </trkpt>
            <trkpt lon="101.380666" lat="14.154735">
                <ele>142.800000</ele>
                <time>1970-01-01T03:22:31Z</time>
            </trkpt>
            <trkpt lon="101.380690" lat="14.154749">
                <ele>143.200000</ele>
                <time>1970-01-01T03:22:32Z</time>
            </trkpt>
            <trkpt lon="101.380734" lat="14.154772">
                <ele>143.800000</ele>
                <time>1970-01-01T03:22:34Z</time>
            </trkpt>
            <trkpt lon="101.380759" lat="14.154785">
                <ele>143.800000</ele>
                <time>1970-01-01T03:22:35Z</time>
            </trkpt>
            <trkpt lon="101.380787" lat="14.154801">
                <ele>144.000000</ele>
                <time>1970-01-01T03:22:36Z</time>
            </trkpt>
            <trkpt lon="101.380817" lat="14.154818">
                <ele>144.500000</ele>
                <time>1970-01-01T03:22:37Z</time>
            </trkpt>
            <trkpt lon="101.380846" lat="14.154841">
                <ele>144.500000</ele>
                <time>1970-01-01T03:22:38Z</time>
            </trkpt>
            <trkpt lon="101.380876" lat="14.154867">
                <ele>144.800000</ele>
                <time>1970-01-01T03:22:39Z</time>
            </trkpt>
            <trkpt lon="101.380909" lat="14.154895">
                <ele>145.100000</ele>
                <time>1970-01-01T03:22:40Z</time>
            </trkpt>
            <trkpt lon="101.380940" lat="14.154917">
                <ele>145.500000</ele>
                <time>1970-01-01T03:22:41Z</time>
            </trkpt>
            <trkpt lon="101.380966" lat="14.154938">
                <ele>145.600000</ele>
                <time>1970-01-01T03:22:42Z</time>
            </trkpt>
            <trkpt lon="101.381016" lat="14.154952">
                <ele>146.000000</ele>
                <time>1970-01-01T03:22:44Z</time>
            </trkpt>
            <trkpt lon="101.381062" lat="14.154933">
                <ele>146.500000</ele>
                <time>1970-01-01T03:22:46Z</time>
            </trkpt>
            <trkpt lon="101.381085" lat="14.154914">
                <ele>146.500000</ele>
                <time>1970-01-01T03:22:47Z</time>
            </trkpt>
            <trkpt lon="101.381103" lat="14.154893">
                <ele>146.600000</ele>
                <time>1970-01-01T03:22:48Z</time>
            </trkpt>
            <trkpt lon="101.381135" lat="14.154857">
                <ele>146.100000</ele>
                <time>1970-01-01T03:22:50Z</time>
            </trkpt>
            <trkpt lon="101.381157" lat="14.154809">
                <ele>145.600000</ele>
                <time>1970-01-01T03:22:52Z</time>
            </trkpt>
            <trkpt lon="101.381160" lat="14.154769">
                <ele>145.300000</ele>
                <time>1970-01-01T03:22:54Z</time>
            </trkpt>
            <trkpt lon="101.381127" lat="14.154742">
                <ele>145.100000</ele>
                <time>1970-01-01T03:22:57Z</time>
            </trkpt>
            <trkpt lon="101.381096" lat="14.154711">
                <ele>144.700000</ele>
                <time>1970-01-01T03:22:59Z</time>
            </trkpt>
            <trkpt lon="101.381086" lat="14.154674">
                <ele>144.300000</ele>
                <time>1970-01-01T03:23:01Z</time>
            </trkpt>
            <trkpt lon="101.381071" lat="14.154632">
                <ele>143.800000</ele>
                <time>1970-01-01T03:23:03Z</time>
            </trkpt>
            <trkpt lon="101.381054" lat="14.154592">
                <ele>143.200000</ele>
                <time>1970-01-01T03:23:05Z</time>
            </trkpt>
            <trkpt lon="101.381047" lat="14.154551">
                <ele>142.700000</ele>
                <time>1970-01-01T03:23:07Z</time>
            </trkpt>
            <trkpt lon="101.381044" lat="14.154514">
                <ele>142.700000</ele>
                <time>1970-01-01T03:23:09Z</time>
            </trkpt>
            <trkpt lon="101.381007" lat="14.154472">
                <ele>142.300000</ele>
                <time>1970-01-01T03:23:11Z</time>
            </trkpt>
            <trkpt lon="101.380983" lat="14.154452">
                <ele>142.000000</ele>
                <time>1970-01-01T03:23:12Z</time>
            </trkpt>
            <trkpt lon="101.380961" lat="14.154431">
                <ele>142.100000</ele>
                <time>1970-01-01T03:23:13Z</time>
            </trkpt>
            <trkpt lon="101.380943" lat="14.154409">
                <ele>142.000000</ele>
                <time>1970-01-01T03:23:14Z</time>
            </trkpt>
            <trkpt lon="101.380929" lat="14.154370">
                <ele>142.100000</ele>
                <time>1970-01-01T03:23:16Z</time>
            </trkpt>
            <trkpt lon="101.380925" lat="14.154320">
                <ele>142.100000</ele>
                <time>1970-01-01T03:23:18Z</time>
            </trkpt>
            <trkpt lon="101.380923" lat="14.154293">
                <ele>142.100000</ele>
                <time>1970-01-01T03:23:19Z</time>
            </trkpt>
            <trkpt lon="101.380918" lat="14.154253">
                <ele>142.100000</ele>
                <time>1970-01-01T03:23:21Z</time>
            </trkpt>
            <trkpt lon="101.380924" lat="14.154214">
                <ele>142.100000</ele>
                <time>1970-01-01T03:23:23Z</time>
            </trkpt>
            <trkpt lon="101.380930" lat="14.154183">
                <ele>142.100000</ele>
                <time>1970-01-01T03:23:25Z</time>
            </trkpt>
            <trkpt lon="101.380920" lat="14.154149">
                <ele>142.100000</ele>
                <time>1970-01-01T03:23:27Z</time>
            </trkpt>
            <trkpt lon="101.380910" lat="14.154113">
                <ele>142.000000</ele>
                <time>1970-01-01T03:23:29Z</time>
            </trkpt>
            <trkpt lon="101.380914" lat="14.154073">
                <ele>141.800000</ele>
                <time>1970-01-01T03:23:31Z</time>
            </trkpt>
            <trkpt lon="101.380912" lat="14.154024">
                <ele>141.500000</ele>
                <time>1970-01-01T03:23:33Z</time>
            </trkpt>
            <trkpt lon="101.380900" lat="14.153984">
                <ele>141.300000</ele>
                <time>1970-01-01T03:23:35Z</time>
            </trkpt>
            <trkpt lon="101.380886" lat="14.153937">
                <ele>141.500000</ele>
                <time>1970-01-01T03:23:37Z</time>
            </trkpt>
            <trkpt lon="101.380879" lat="14.153892">
                <ele>141.200000</ele>
                <time>1970-01-01T03:23:39Z</time>
            </trkpt>
            <trkpt lon="101.380876" lat="14.153842">
                <ele>140.700000</ele>
                <time>1970-01-01T03:23:41Z</time>
            </trkpt>
            <trkpt lon="101.380874" lat="14.153792">
                <ele>140.800000</ele>
                <time>1970-01-01T03:23:43Z</time>
            </trkpt>
            <trkpt lon="101.380874" lat="14.153744">
                <ele>141.000000</ele>
                <time>1970-01-01T03:23:45Z</time>
            </trkpt>
            <trkpt lon="101.380885" lat="14.153702">
                <ele>141.200000</ele>
                <time>1970-01-01T03:23:47Z</time>
            </trkpt>
            <trkpt lon="101.380893" lat="14.153667">
                <ele>141.100000</ele>
                <time>1970-01-01T03:23:49Z</time>
            </trkpt>
            <trkpt lon="101.380877" lat="14.153619">
                <ele>141.400000</ele>
                <time>1970-01-01T03:23:51Z</time>
            </trkpt>
            <trkpt lon="101.380867" lat="14.153593">
                <ele>141.100000</ele>
                <time>1970-01-01T03:23:52Z</time>
            </trkpt>
            <trkpt lon="101.380867" lat="14.153565">
                <ele>141.100000</ele>
                <time>1970-01-01T03:23:53Z</time>
            </trkpt>
            <trkpt lon="101.380880" lat="14.153540">
                <ele>140.900000</ele>
                <time>1970-01-01T03:23:54Z</time>
            </trkpt>
            <trkpt lon="101.380905" lat="14.153525">
                <ele>140.700000</ele>
                <time>1970-01-01T03:23:55Z</time>
            </trkpt>
            <trkpt lon="101.380938" lat="14.153535">
                <ele>140.600000</ele>
                <time>1970-01-01T03:23:57Z</time>
            </trkpt>
            <trkpt lon="101.380902" lat="14.153550">
                <ele>140.700000</ele>
                <time>1970-01-01T03:24:30Z</time>
            </trkpt>
            <trkpt lon="101.380869" lat="14.153551">
                <ele>140.900000</ele>
                <time>1970-01-01T03:24:33Z</time>
            </trkpt>
            <trkpt lon="101.380841" lat="14.153524">
                <ele>141.200000</ele>
                <time>1970-01-01T03:24:35Z</time>
            </trkpt>
            <trkpt lon="101.380822" lat="14.153492">
                <ele>140.900000</ele>
                <time>1970-01-01T03:24:37Z</time>
            </trkpt>
            <trkpt lon="101.380777" lat="14.153468">
                <ele>141.000000</ele>
                <time>1970-01-01T03:24:39Z</time>
            </trkpt>
            <trkpt lon="101.380739" lat="14.153464">
                <ele>141.000000</ele>
                <time>1970-01-01T03:24:40Z</time>
            </trkpt>
            <trkpt lon="101.380687" lat="14.153457">
                <ele>141.000000</ele>
                <time>1970-01-01T03:24:41Z</time>
            </trkpt>
            <trkpt lon="101.380629" lat="14.153440">
                <ele>141.000000</ele>
                <time>1970-01-01T03:24:42Z</time>
            </trkpt>
            <trkpt lon="101.380564" lat="14.153400">
                <ele>141.000000</ele>
                <time>1970-01-01T03:24:43Z</time>
            </trkpt>
            <trkpt lon="101.380535" lat="14.153386">
                <ele>140.900000</ele>
                <time>1970-01-01T03:24:44Z</time>
            </trkpt>
            <trkpt lon="101.380507" lat="14.153388">
                <ele>140.900000</ele>
                <time>1970-01-01T03:24:45Z</time>
            </trkpt>
            <trkpt lon="101.380457" lat="14.153384">
                <ele>140.800000</ele>
                <time>1970-01-01T03:24:47Z</time>
            </trkpt>
            <trkpt lon="101.380425" lat="14.153360">
                <ele>140.700000</ele>
                <time>1970-01-01T03:24:49Z</time>
            </trkpt>
            <trkpt lon="101.380401" lat="14.153324">
                <ele>140.600000</ele>
                <time>1970-01-01T03:24:50Z</time>
            </trkpt>
            <trkpt lon="101.380387" lat="14.153295">
                <ele>140.600000</ele>
                <time>1970-01-01T03:24:51Z</time>
            </trkpt>
            <trkpt lon="101.380390" lat="14.153257">
                <ele>140.500000</ele>
                <time>1970-01-01T03:24:52Z</time>
            </trkpt>
            <trkpt lon="101.380411" lat="14.153199">
                <ele>140.400000</ele>
                <time>1970-01-01T03:24:53Z</time>
            </trkpt>
            <trkpt lon="101.380411" lat="14.153166">
                <ele>140.300000</ele>
                <time>1970-01-01T03:24:54Z</time>
            </trkpt>
            <trkpt lon="101.380416" lat="14.153115">
                <ele>140.300000</ele>
                <time>1970-01-01T03:24:55Z</time>
            </trkpt>
            <trkpt lon="101.380426" lat="14.153081">
                <ele>140.200000</ele>
                <time>1970-01-01T03:24:56Z</time>
            </trkpt>
            <trkpt lon="101.380448" lat="14.153047">
                <ele>140.100000</ele>
                <time>1970-01-01T03:24:57Z</time>
            </trkpt>
            <trkpt lon="101.380466" lat="14.153017">
                <ele>140.100000</ele>
                <time>1970-01-01T03:24:58Z</time>
            </trkpt>
            <trkpt lon="101.380464" lat="14.152967">
                <ele>139.900000</ele>
                <time>1970-01-01T03:24:59Z</time>
            </trkpt>
            <trkpt lon="101.380445" lat="14.152918">
                <ele>139.800000</ele>
                <time>1970-01-01T03:25:00Z</time>
            </trkpt>
            <trkpt lon="101.380441" lat="14.152883">
                <ele>139.800000</ele>
                <time>1970-01-01T03:25:01Z</time>
            </trkpt>
            <trkpt lon="101.380428" lat="14.152855">
                <ele>139.800000</ele>
                <time>1970-01-01T03:25:02Z</time>
            </trkpt>
            <trkpt lon="101.380414" lat="14.152818">
                <ele>139.800000</ele>
                <time>1970-01-01T03:25:03Z</time>
            </trkpt>
            <trkpt lon="101.380394" lat="14.152787">
                <ele>139.800000</ele>
                <time>1970-01-01T03:25:04Z</time>
            </trkpt>
            <trkpt lon="101.380384" lat="14.152754">
                <ele>139.800000</ele>
                <time>1970-01-01T03:25:05Z</time>
            </trkpt>
            <trkpt lon="101.380376" lat="14.152714">
                <ele>139.800000</ele>
                <time>1970-01-01T03:25:06Z</time>
            </trkpt>
            <trkpt lon="101.380367" lat="14.152678">
                <ele>139.900000</ele>
                <time>1970-01-01T03:25:07Z</time>
            </trkpt>
            <trkpt lon="101.380369" lat="14.152649">
                <ele>139.900000</ele>
                <time>1970-01-01T03:25:08Z</time>
            </trkpt>
            <trkpt lon="101.380372" lat="14.152615">
                <ele>139.900000</ele>
                <time>1970-01-01T03:25:09Z</time>
            </trkpt>
            <trkpt lon="101.380372" lat="14.152576">
                <ele>140.000000</ele>
                <time>1970-01-01T03:25:10Z</time>
            </trkpt>
            <trkpt lon="101.380363" lat="14.152539">
                <ele>140.100000</ele>
                <time>1970-01-01T03:25:11Z</time>
            </trkpt>
            <trkpt lon="101.380349" lat="14.152500">
                <ele>140.100000</ele>
                <time>1970-01-01T03:25:12Z</time>
            </trkpt>
            <trkpt lon="101.380328" lat="14.152457">
                <ele>140.200000</ele>
                <time>1970-01-01T03:25:13Z</time>
            </trkpt>
            <trkpt lon="101.380302" lat="14.152412">
                <ele>140.300000</ele>
                <time>1970-01-01T03:25:14Z</time>
            </trkpt>
            <trkpt lon="101.380282" lat="14.152371">
                <ele>140.400000</ele>
                <time>1970-01-01T03:25:15Z</time>
            </trkpt>
            <trkpt lon="101.380271" lat="14.152339">
                <ele>140.500000</ele>
                <time>1970-01-01T03:25:16Z</time>
            </trkpt>
            <trkpt lon="101.380264" lat="14.152288">
                <ele>140.600000</ele>
                <time>1970-01-01T03:25:18Z</time>
            </trkpt>
            <trkpt lon="101.380260" lat="14.152256">
                <ele>140.600000</ele>
                <time>1970-01-01T03:25:19Z</time>
            </trkpt>
            <trkpt lon="101.380252" lat="14.152223">
                <ele>140.700000</ele>
                <time>1970-01-01T03:25:20Z</time>
            </trkpt>
            <trkpt lon="101.380241" lat="14.152197">
                <ele>140.700000</ele>
                <time>1970-01-01T03:25:21Z</time>
            </trkpt>
            <trkpt lon="101.380229" lat="14.152170">
                <ele>140.800000</ele>
                <time>1970-01-01T03:25:22Z</time>
            </trkpt>
            <trkpt lon="101.380217" lat="14.152138">
                <ele>140.800000</ele>
                <time>1970-01-01T03:25:23Z</time>
            </trkpt>
            <trkpt lon="101.380204" lat="14.152102">
                <ele>140.900000</ele>
                <time>1970-01-01T03:25:24Z</time>
            </trkpt>
            <trkpt lon="101.380183" lat="14.152074">
                <ele>141.000000</ele>
                <time>1970-01-01T03:25:25Z</time>
            </trkpt>
            <trkpt lon="101.380161" lat="14.152047">
                <ele>141.000000</ele>
                <time>1970-01-01T03:25:26Z</time>
            </trkpt>
            <trkpt lon="101.380145" lat="14.152011">
                <ele>141.100000</ele>
                <time>1970-01-01T03:25:27Z</time>
            </trkpt>
            <trkpt lon="101.380134" lat="14.151965">
                <ele>141.200000</ele>
                <time>1970-01-01T03:25:28Z</time>
            </trkpt>
            <trkpt lon="101.380131" lat="14.151915">
                <ele>141.200000</ele>
                <time>1970-01-01T03:25:29Z</time>
            </trkpt>
            <trkpt lon="101.380127" lat="14.151866">
                <ele>141.200000</ele>
                <time>1970-01-01T03:25:30Z</time>
            </trkpt>
            <trkpt lon="101.380122" lat="14.151821">
                <ele>141.200000</ele>
                <time>1970-01-01T03:25:31Z</time>
            </trkpt>
            <trkpt lon="101.380116" lat="14.151780">
                <ele>141.200000</ele>
                <time>1970-01-01T03:25:32Z</time>
            </trkpt>
            <trkpt lon="101.380113" lat="14.151740">
                <ele>141.200000</ele>
                <time>1970-01-01T03:25:33Z</time>
            </trkpt>
            <trkpt lon="101.380110" lat="14.151698">
                <ele>141.200000</ele>
                <time>1970-01-01T03:25:34Z</time>
            </trkpt>
            <trkpt lon="101.380101" lat="14.151656">
                <ele>141.200000</ele>
                <time>1970-01-01T03:25:35Z</time>
            </trkpt>
            <trkpt lon="101.380091" lat="14.151612">
                <ele>141.100000</ele>
                <time>1970-01-01T03:25:36Z</time>
            </trkpt>
            <trkpt lon="101.380077" lat="14.151560">
                <ele>141.100000</ele>
                <time>1970-01-01T03:25:37Z</time>
            </trkpt>
            <trkpt lon="101.380061" lat="14.151508">
                <ele>141.000000</ele>
                <time>1970-01-01T03:25:38Z</time>
            </trkpt>
            <trkpt lon="101.380044" lat="14.151459">
                <ele>141.000000</ele>
                <time>1970-01-01T03:25:39Z</time>
            </trkpt>
            <trkpt lon="101.380025" lat="14.151412">
                <ele>140.900000</ele>
                <time>1970-01-01T03:25:40Z</time>
            </trkpt>
            <trkpt lon="101.380002" lat="14.151367">
                <ele>140.900000</ele>
                <time>1970-01-01T03:25:41Z</time>
            </trkpt>
            <trkpt lon="101.379979" lat="14.151324">
                <ele>140.800000</ele>
                <time>1970-01-01T03:25:42Z</time>
            </trkpt>
            <trkpt lon="101.379936" lat="14.151239">
                <ele>140.700000</ele>
                <time>1970-01-01T03:25:43Z</time>
            </trkpt>
            <trkpt lon="101.379910" lat="14.151179">
                <ele>140.700000</ele>
                <time>1970-01-01T03:25:44Z</time>
            </trkpt>
            <trkpt lon="101.379895" lat="14.151128">
                <ele>140.600000</ele>
                <time>1970-01-01T03:25:45Z</time>
            </trkpt>
            <trkpt lon="101.379878" lat="14.151084">
                <ele>140.600000</ele>
                <time>1970-01-01T03:25:46Z</time>
            </trkpt>
            <trkpt lon="101.379865" lat="14.151027">
                <ele>140.500000</ele>
                <time>1970-01-01T03:25:47Z</time>
            </trkpt>
            <trkpt lon="101.379850" lat="14.150989">
                <ele>140.500000</ele>
                <time>1970-01-01T03:25:48Z</time>
            </trkpt>
            <trkpt lon="101.379829" lat="14.150950">
                <ele>140.400000</ele>
                <time>1970-01-01T03:25:49Z</time>
            </trkpt>
            <trkpt lon="101.379817" lat="14.150916">
                <ele>140.400000</ele>
                <time>1970-01-01T03:25:50Z</time>
            </trkpt>
            <trkpt lon="101.379798" lat="14.150873">
                <ele>140.400000</ele>
                <time>1970-01-01T03:25:51Z</time>
            </trkpt>
            <trkpt lon="101.379776" lat="14.150824">
                <ele>140.300000</ele>
                <time>1970-01-01T03:25:52Z</time>
            </trkpt>
            <trkpt lon="101.379748" lat="14.150801">
                <ele>140.300000</ele>
                <time>1970-01-01T03:25:53Z</time>
            </trkpt>
            <trkpt lon="101.379711" lat="14.150769">
                <ele>140.300000</ele>
                <time>1970-01-01T03:25:54Z</time>
            </trkpt>
            <trkpt lon="101.379706" lat="14.150711">
                <ele>140.300000</ele>
                <time>1970-01-01T03:25:55Z</time>
            </trkpt>
            <trkpt lon="101.379695" lat="14.150671">
                <ele>140.200000</ele>
                <time>1970-01-01T03:25:56Z</time>
            </trkpt>
            <trkpt lon="101.379688" lat="14.150620">
                <ele>140.200000</ele>
                <time>1970-01-01T03:25:57Z</time>
            </trkpt>
            <trkpt lon="101.379679" lat="14.150569">
                <ele>140.200000</ele>
                <time>1970-01-01T03:25:58Z</time>
            </trkpt>
            <trkpt lon="101.379685" lat="14.150513">
                <ele>140.200000</ele>
                <time>1970-01-01T03:25:59Z</time>
            </trkpt>
            <trkpt lon="101.379675" lat="14.150460">
                <ele>140.100000</ele>
                <time>1970-01-01T03:26:00Z</time>
            </trkpt>
            <trkpt lon="101.379664" lat="14.150406">
                <ele>140.100000</ele>
                <time>1970-01-01T03:26:01Z</time>
            </trkpt>
            <trkpt lon="101.379634" lat="14.150357">
                <ele>140.000000</ele>
                <time>1970-01-01T03:26:02Z</time>
            </trkpt>
            <trkpt lon="101.379622" lat="14.150313">
                <ele>140.000000</ele>
                <time>1970-01-01T03:26:03Z</time>
            </trkpt>
            <trkpt lon="101.379608" lat="14.150256">
                <ele>139.900000</ele>
                <time>1970-01-01T03:26:04Z</time>
            </trkpt>
            <trkpt lon="101.379597" lat="14.150195">
                <ele>139.900000</ele>
                <time>1970-01-01T03:26:05Z</time>
            </trkpt>
            <trkpt lon="101.379595" lat="14.150143">
                <ele>139.800000</ele>
                <time>1970-01-01T03:26:06Z</time>
            </trkpt>
            <trkpt lon="101.379597" lat="14.150097">
                <ele>139.800000</ele>
                <time>1970-01-01T03:26:07Z</time>
            </trkpt>
            <trkpt lon="101.379655" lat="14.150028">
                <ele>139.700000</ele>
                <time>1970-01-01T03:26:08Z</time>
            </trkpt>
            <trkpt lon="101.379672" lat="14.149992">
                <ele>139.700000</ele>
                <time>1970-01-01T03:26:09Z</time>
            </trkpt>
            <trkpt lon="101.379683" lat="14.149954">
                <ele>139.600000</ele>
                <time>1970-01-01T03:26:10Z</time>
            </trkpt>
            <trkpt lon="101.379694" lat="14.149917">
                <ele>139.600000</ele>
                <time>1970-01-01T03:26:11Z</time>
            </trkpt>
            <trkpt lon="101.379705" lat="14.149872">
                <ele>139.500000</ele>
                <time>1970-01-01T03:26:12Z</time>
            </trkpt>
            <trkpt lon="101.379732" lat="14.149824">
                <ele>139.500000</ele>
                <time>1970-01-01T03:26:13Z</time>
            </trkpt>
            <trkpt lon="101.379756" lat="14.149768">
                <ele>139.400000</ele>
                <time>1970-01-01T03:26:14Z</time>
            </trkpt>
            <trkpt lon="101.379767" lat="14.149710">
                <ele>139.400000</ele>
                <time>1970-01-01T03:26:15Z</time>
            </trkpt>
            <trkpt lon="101.379778" lat="14.149662">
                <ele>139.300000</ele>
                <time>1970-01-01T03:26:16Z</time>
            </trkpt>
            <trkpt lon="101.379795" lat="14.149621">
                <ele>139.300000</ele>
                <time>1970-01-01T03:26:17Z</time>
            </trkpt>
            <trkpt lon="101.379805" lat="14.149568">
                <ele>139.200000</ele>
                <time>1970-01-01T03:26:18Z</time>
            </trkpt>
            <trkpt lon="101.379802" lat="14.149516">
                <ele>139.200000</ele>
                <time>1970-01-01T03:26:19Z</time>
            </trkpt>
            <trkpt lon="101.379810" lat="14.149463">
                <ele>139.100000</ele>
                <time>1970-01-01T03:26:20Z</time>
            </trkpt>
            <trkpt lon="101.379799" lat="14.149411">
                <ele>139.100000</ele>
                <time>1970-01-01T03:26:21Z</time>
            </trkpt>
            <trkpt lon="101.379799" lat="14.149359">
                <ele>139.100000</ele>
                <time>1970-01-01T03:26:22Z</time>
            </trkpt>
            <trkpt lon="101.379813" lat="14.149301">
                <ele>139.100000</ele>
                <time>1970-01-01T03:26:23Z</time>
            </trkpt>
            <trkpt lon="101.379817" lat="14.149244">
                <ele>139.100000</ele>
                <time>1970-01-01T03:26:24Z</time>
            </trkpt>
            <trkpt lon="101.379826" lat="14.149189">
                <ele>139.200000</ele>
                <time>1970-01-01T03:26:25Z</time>
            </trkpt>
            <trkpt lon="101.379832" lat="14.149128">
                <ele>139.200000</ele>
                <time>1970-01-01T03:26:26Z</time>
            </trkpt>
            <trkpt lon="101.379810" lat="14.149090">
                <ele>139.200000</ele>
                <time>1970-01-01T03:26:27Z</time>
            </trkpt>
            <trkpt lon="101.379828" lat="14.149026">
                <ele>139.300000</ele>
                <time>1970-01-01T03:26:28Z</time>
            </trkpt>
            <trkpt lon="101.379819" lat="14.148966">
                <ele>139.500000</ele>
                <time>1970-01-01T03:26:29Z</time>
            </trkpt>
            <trkpt lon="101.379822" lat="14.148909">
                <ele>139.600000</ele>
                <time>1970-01-01T03:26:30Z</time>
            </trkpt>
            <trkpt lon="101.379831" lat="14.148869">
                <ele>139.600000</ele>
                <time>1970-01-01T03:26:31Z</time>
            </trkpt>
            <trkpt lon="101.379844" lat="14.148840">
                <ele>139.700000</ele>
                <time>1970-01-01T03:26:32Z</time>
            </trkpt>
            <trkpt lon="101.379882" lat="14.148821">
                <ele>139.800000</ele>
                <time>1970-01-01T03:26:33Z</time>
            </trkpt>
            <trkpt lon="101.379859" lat="14.148805">
                <ele>139.800000</ele>
                <time>1970-01-01T03:26:35Z</time>
            </trkpt>
            <trkpt lon="101.379883" lat="14.148775">
                <ele>139.900000</ele>
                <time>1970-01-01T03:27:11Z</time>
            </trkpt>
            <trkpt lon="101.379885" lat="14.148741">
                <ele>140.000000</ele>
                <time>1970-01-01T03:27:21Z</time>
            </trkpt>
            <trkpt lon="101.379896" lat="14.148711">
                <ele>140.000000</ele>
                <time>1970-01-01T03:27:23Z</time>
            </trkpt>
            <trkpt lon="101.379907" lat="14.148669">
                <ele>140.100000</ele>
                <time>1970-01-01T03:27:25Z</time>
            </trkpt>
            <trkpt lon="101.379923" lat="14.148624">
                <ele>140.200000</ele>
                <time>1970-01-01T03:27:27Z</time>
            </trkpt>
            <trkpt lon="101.379936" lat="14.148577">
                <ele>140.200000</ele>
                <time>1970-01-01T03:27:29Z</time>
            </trkpt>
            <trkpt lon="101.379940" lat="14.148549">
                <ele>140.300000</ele>
                <time>1970-01-01T03:27:30Z</time>
            </trkpt>
            <trkpt lon="101.379943" lat="14.148516">
                <ele>140.300000</ele>
                <time>1970-01-01T03:27:31Z</time>
            </trkpt>
            <trkpt lon="101.379947" lat="14.148480">
                <ele>140.300000</ele>
                <time>1970-01-01T03:27:32Z</time>
            </trkpt>
            <trkpt lon="101.379953" lat="14.148443">
                <ele>140.400000</ele>
                <time>1970-01-01T03:27:33Z</time>
            </trkpt>
            <trkpt lon="101.379957" lat="14.148413">
                <ele>140.400000</ele>
                <time>1970-01-01T03:27:34Z</time>
            </trkpt>
            <trkpt lon="101.379958" lat="14.148367">
                <ele>140.400000</ele>
                <time>1970-01-01T03:27:36Z</time>
            </trkpt>
            <trkpt lon="101.379955" lat="14.148339">
                <ele>140.400000</ele>
                <time>1970-01-01T03:27:37Z</time>
            </trkpt>
            <trkpt lon="101.379954" lat="14.148305">
                <ele>140.400000</ele>
                <time>1970-01-01T03:27:38Z</time>
            </trkpt>
            <trkpt lon="101.379956" lat="14.148266">
                <ele>140.400000</ele>
                <time>1970-01-01T03:27:39Z</time>
            </trkpt>
            <trkpt lon="101.379962" lat="14.148227">
                <ele>140.300000</ele>
                <time>1970-01-01T03:27:40Z</time>
            </trkpt>
            <trkpt lon="101.379954" lat="14.148195">
                <ele>140.300000</ele>
                <time>1970-01-01T03:27:41Z</time>
            </trkpt>
            <trkpt lon="101.379957" lat="14.148150">
                <ele>140.300000</ele>
                <time>1970-01-01T03:27:42Z</time>
            </trkpt>
            <trkpt lon="101.379983" lat="14.148110">
                <ele>140.200000</ele>
                <time>1970-01-01T03:27:43Z</time>
            </trkpt>
            <trkpt lon="101.380008" lat="14.148076">
                <ele>140.100000</ele>
                <time>1970-01-01T03:27:44Z</time>
            </trkpt>
            <trkpt lon="101.380041" lat="14.148053">
                <ele>140.000000</ele>
                <time>1970-01-01T03:27:45Z</time>
            </trkpt>
            <trkpt lon="101.380064" lat="14.148025">
                <ele>139.800000</ele>
                <time>1970-01-01T03:27:46Z</time>
            </trkpt>
            <trkpt lon="101.380063" lat="14.147989">
                <ele>139.600000</ele>
                <time>1970-01-01T03:27:47Z</time>
            </trkpt>
            <trkpt lon="101.380062" lat="14.147944">
                <ele>139.200000</ele>
                <time>1970-01-01T03:27:48Z</time>
            </trkpt>
            <trkpt lon="101.380033" lat="14.147912">
                <ele>138.900000</ele>
                <time>1970-01-01T03:27:49Z</time>
            </trkpt>
            <trkpt lon="101.380002" lat="14.147873">
                <ele>138.600000</ele>
                <time>1970-01-01T03:27:50Z</time>
            </trkpt>
            <trkpt lon="101.379998" lat="14.147825">
                <ele>138.300000</ele>
                <time>1970-01-01T03:27:51Z</time>
            </trkpt>
            <trkpt lon="101.379997" lat="14.147791">
                <ele>138.100000</ele>
                <time>1970-01-01T03:27:52Z</time>
            </trkpt>
            <trkpt lon="101.379994" lat="14.147745">
                <ele>137.800000</ele>
                <time>1970-01-01T03:27:53Z</time>
            </trkpt>
            <trkpt lon="101.379965" lat="14.147715">
                <ele>137.500000</ele>
                <time>1970-01-01T03:27:54Z</time>
            </trkpt>
            <trkpt lon="101.379934" lat="14.147682">
                <ele>137.200000</ele>
                <time>1970-01-01T03:27:55Z</time>
            </trkpt>
            <trkpt lon="101.379912" lat="14.147656">
                <ele>137.000000</ele>
                <time>1970-01-01T03:27:56Z</time>
            </trkpt>
            <trkpt lon="101.379892" lat="14.147629">
                <ele>136.700000</ele>
                <time>1970-01-01T03:27:57Z</time>
            </trkpt>
            <trkpt lon="101.379860" lat="14.147598">
                <ele>136.500000</ele>
                <time>1970-01-01T03:27:58Z</time>
            </trkpt>
            <trkpt lon="101.379842" lat="14.147575">
                <ele>136.300000</ele>
                <time>1970-01-01T03:27:59Z</time>
            </trkpt>
            <trkpt lon="101.379799" lat="14.147568">
                <ele>136.100000</ele>
                <time>1970-01-01T03:28:01Z</time>
            </trkpt>
            <trkpt lon="101.379746" lat="14.147567">
                <ele>135.800000</ele>
                <time>1970-01-01T03:28:03Z</time>
            </trkpt>
            <trkpt lon="101.379719" lat="14.147572">
                <ele>135.600000</ele>
                <time>1970-01-01T03:28:04Z</time>
            </trkpt>
            <trkpt lon="101.379671" lat="14.147574">
                <ele>135.100000</ele>
                <time>1970-01-01T03:28:06Z</time>
            </trkpt>
            <trkpt lon="101.379623" lat="14.147565">
                <ele>134.700000</ele>
                <time>1970-01-01T03:28:08Z</time>
            </trkpt>
            <trkpt lon="101.379577" lat="14.147553">
                <ele>134.300000</ele>
                <time>1970-01-01T03:28:10Z</time>
            </trkpt>
            <trkpt lon="101.379535" lat="14.147538">
                <ele>134.000000</ele>
                <time>1970-01-01T03:28:12Z</time>
            </trkpt>
            <trkpt lon="101.379495" lat="14.147518">
                <ele>133.700000</ele>
                <time>1970-01-01T03:28:14Z</time>
            </trkpt>
            <trkpt lon="101.379469" lat="14.147501">
                <ele>133.500000</ele>
                <time>1970-01-01T03:28:15Z</time>
            </trkpt>
            <trkpt lon="101.379439" lat="14.147488">
                <ele>133.300000</ele>
                <time>1970-01-01T03:28:16Z</time>
            </trkpt>
            <trkpt lon="101.379409" lat="14.147479">
                <ele>133.100000</ele>
                <time>1970-01-01T03:28:17Z</time>
            </trkpt>
            <trkpt lon="101.379377" lat="14.147471">
                <ele>132.900000</ele>
                <time>1970-01-01T03:28:18Z</time>
            </trkpt>
            <trkpt lon="101.379330" lat="14.147452">
                <ele>132.700000</ele>
                <time>1970-01-01T03:28:20Z</time>
            </trkpt>
            <trkpt lon="101.379303" lat="14.147444">
                <ele>132.600000</ele>
                <time>1970-01-01T03:28:21Z</time>
            </trkpt>
            <trkpt lon="101.379272" lat="14.147437">
                <ele>132.500000</ele>
                <time>1970-01-01T03:28:22Z</time>
            </trkpt>
            <trkpt lon="101.379236" lat="14.147435">
                <ele>132.400000</ele>
                <time>1970-01-01T03:28:23Z</time>
            </trkpt>
            <trkpt lon="101.379188" lat="14.147444">
                <ele>132.100000</ele>
                <time>1970-01-01T03:28:24Z</time>
            </trkpt>
            <trkpt lon="101.379139" lat="14.147463">
                <ele>131.900000</ele>
                <time>1970-01-01T03:28:25Z</time>
            </trkpt>
            <trkpt lon="101.379096" lat="14.147480">
                <ele>131.600000</ele>
                <time>1970-01-01T03:28:26Z</time>
            </trkpt>
            <trkpt lon="101.379053" lat="14.147488">
                <ele>131.400000</ele>
                <time>1970-01-01T03:28:27Z</time>
            </trkpt>
            <trkpt lon="101.379005" lat="14.147490">
                <ele>131.100000</ele>
                <time>1970-01-01T03:28:28Z</time>
            </trkpt>
            <trkpt lon="101.378956" lat="14.147488">
                <ele>130.900000</ele>
                <time>1970-01-01T03:28:29Z</time>
            </trkpt>
            <trkpt lon="101.378913" lat="14.147488">
                <ele>130.700000</ele>
                <time>1970-01-01T03:28:30Z</time>
            </trkpt>
            <trkpt lon="101.378871" lat="14.147485">
                <ele>130.600000</ele>
                <time>1970-01-01T03:28:31Z</time>
            </trkpt>
            <trkpt lon="101.378822" lat="14.147477">
                <ele>130.500000</ele>
                <time>1970-01-01T03:28:32Z</time>
            </trkpt>
            <trkpt lon="101.378781" lat="14.147463">
                <ele>130.400000</ele>
                <time>1970-01-01T03:28:33Z</time>
            </trkpt>
            <trkpt lon="101.378753" lat="14.147452">
                <ele>130.300000</ele>
                <time>1970-01-01T03:28:34Z</time>
            </trkpt>
            <trkpt lon="101.378721" lat="14.147434">
                <ele>130.200000</ele>
                <time>1970-01-01T03:28:35Z</time>
            </trkpt>
            <trkpt lon="101.378690" lat="14.147407">
                <ele>130.100000</ele>
                <time>1970-01-01T03:28:36Z</time>
            </trkpt>
            <trkpt lon="101.378668" lat="14.147373">
                <ele>130.000000</ele>
                <time>1970-01-01T03:28:37Z</time>
            </trkpt>
            <trkpt lon="101.378652" lat="14.147337">
                <ele>129.900000</ele>
                <time>1970-01-01T03:28:38Z</time>
            </trkpt>
            <trkpt lon="101.378630" lat="14.147302">
                <ele>129.800000</ele>
                <time>1970-01-01T03:28:39Z</time>
            </trkpt>
            <trkpt lon="101.378604" lat="14.147264">
                <ele>129.800000</ele>
                <time>1970-01-01T03:28:40Z</time>
            </trkpt>
            <trkpt lon="101.378579" lat="14.147225">
                <ele>129.800000</ele>
                <time>1970-01-01T03:28:41Z</time>
            </trkpt>
            <trkpt lon="101.378563" lat="14.147181">
                <ele>129.700000</ele>
                <time>1970-01-01T03:28:42Z</time>
            </trkpt>
            <trkpt lon="101.378561" lat="14.147132">
                <ele>129.700000</ele>
                <time>1970-01-01T03:28:43Z</time>
            </trkpt>
            <trkpt lon="101.378576" lat="14.147086">
                <ele>129.700000</ele>
                <time>1970-01-01T03:28:44Z</time>
            </trkpt>
            <trkpt lon="101.378601" lat="14.147048">
                <ele>129.700000</ele>
                <time>1970-01-01T03:28:45Z</time>
            </trkpt>
            <trkpt lon="101.378625" lat="14.147022">
                <ele>129.700000</ele>
                <time>1970-01-01T03:28:46Z</time>
            </trkpt>
            <trkpt lon="101.378653" lat="14.146998">
                <ele>129.700000</ele>
                <time>1970-01-01T03:28:47Z</time>
            </trkpt>
            <trkpt lon="101.378683" lat="14.146976">
                <ele>129.800000</ele>
                <time>1970-01-01T03:28:48Z</time>
            </trkpt>
            <trkpt lon="101.378713" lat="14.146958">
                <ele>129.800000</ele>
                <time>1970-01-01T03:28:49Z</time>
            </trkpt>
            <trkpt lon="101.378740" lat="14.146941">
                <ele>129.800000</ele>
                <time>1970-01-01T03:28:50Z</time>
            </trkpt>
            <trkpt lon="101.378767" lat="14.146924">
                <ele>129.800000</ele>
                <time>1970-01-01T03:28:51Z</time>
            </trkpt>
            <trkpt lon="101.378800" lat="14.146906">
                <ele>129.900000</ele>
                <time>1970-01-01T03:28:52Z</time>
            </trkpt>
            <trkpt lon="101.378831" lat="14.146893">
                <ele>130.000000</ele>
                <time>1970-01-01T03:28:53Z</time>
            </trkpt>
            <trkpt lon="101.378860" lat="14.146884">
                <ele>130.000000</ele>
                <time>1970-01-01T03:28:54Z</time>
            </trkpt>
            <trkpt lon="101.378886" lat="14.146872">
                <ele>130.100000</ele>
                <time>1970-01-01T03:28:55Z</time>
            </trkpt>
            <trkpt lon="101.378909" lat="14.146857">
                <ele>130.100000</ele>
                <time>1970-01-01T03:28:56Z</time>
            </trkpt>
            <trkpt lon="101.378933" lat="14.146838">
                <ele>130.200000</ele>
                <time>1970-01-01T03:28:57Z</time>
            </trkpt>
            <trkpt lon="101.378966" lat="14.146819">
                <ele>130.300000</ele>
                <time>1970-01-01T03:28:58Z</time>
            </trkpt>
            <trkpt lon="101.379002" lat="14.146807">
                <ele>130.300000</ele>
                <time>1970-01-01T03:28:59Z</time>
            </trkpt>
            <trkpt lon="101.379037" lat="14.146799">
                <ele>130.500000</ele>
                <time>1970-01-01T03:29:00Z</time>
            </trkpt>
            <trkpt lon="101.379070" lat="14.146792">
                <ele>130.600000</ele>
                <time>1970-01-01T03:29:01Z</time>
            </trkpt>
            <trkpt lon="101.379101" lat="14.146780">
                <ele>130.700000</ele>
                <time>1970-01-01T03:29:02Z</time>
            </trkpt>
            <trkpt lon="101.379130" lat="14.146767">
                <ele>130.800000</ele>
                <time>1970-01-01T03:29:03Z</time>
            </trkpt>
            <trkpt lon="101.379159" lat="14.146756">
                <ele>130.900000</ele>
                <time>1970-01-01T03:29:04Z</time>
            </trkpt>
            <trkpt lon="101.379194" lat="14.146746">
                <ele>131.000000</ele>
                <time>1970-01-01T03:29:05Z</time>
            </trkpt>
            <trkpt lon="101.379221" lat="14.146740">
                <ele>131.100000</ele>
                <time>1970-01-01T03:29:06Z</time>
            </trkpt>
            <trkpt lon="101.379275" lat="14.146720">
                <ele>131.300000</ele>
                <time>1970-01-01T03:29:08Z</time>
            </trkpt>
            <trkpt lon="101.379303" lat="14.146708">
                <ele>131.400000</ele>
                <time>1970-01-01T03:29:09Z</time>
            </trkpt>
            <trkpt lon="101.379345" lat="14.146701">
                <ele>131.600000</ele>
                <time>1970-01-01T03:29:11Z</time>
            </trkpt>
            <trkpt lon="101.379394" lat="14.146710">
                <ele>131.700000</ele>
                <time>1970-01-01T03:29:13Z</time>
            </trkpt>
            <trkpt lon="101.379443" lat="14.146708">
                <ele>131.800000</ele>
                <time>1970-01-01T03:29:15Z</time>
            </trkpt>
            <trkpt lon="101.379508" lat="14.146703">
                <ele>132.000000</ele>
                <time>1970-01-01T03:29:17Z</time>
            </trkpt>
            <trkpt lon="101.379547" lat="14.146702">
                <ele>132.100000</ele>
                <time>1970-01-01T03:29:18Z</time>
            </trkpt>
            <trkpt lon="101.379586" lat="14.146700">
                <ele>132.200000</ele>
                <time>1970-01-01T03:29:19Z</time>
            </trkpt>
            <trkpt lon="101.379621" lat="14.146700">
                <ele>132.300000</ele>
                <time>1970-01-01T03:29:20Z</time>
            </trkpt>
            <trkpt lon="101.379656" lat="14.146698">
                <ele>132.300000</ele>
                <time>1970-01-01T03:29:21Z</time>
            </trkpt>
            <trkpt lon="101.379687" lat="14.146696">
                <ele>132.400000</ele>
                <time>1970-01-01T03:29:22Z</time>
            </trkpt>
            <trkpt lon="101.379721" lat="14.146696">
                <ele>132.400000</ele>
                <time>1970-01-01T03:29:23Z</time>
            </trkpt>
            <trkpt lon="101.379760" lat="14.146697">
                <ele>132.500000</ele>
                <time>1970-01-01T03:29:24Z</time>
            </trkpt>
            <trkpt lon="101.379800" lat="14.146696">
                <ele>132.600000</ele>
                <time>1970-01-01T03:29:25Z</time>
            </trkpt>
            <trkpt lon="101.379837" lat="14.146690">
                <ele>132.700000</ele>
                <time>1970-01-01T03:29:26Z</time>
            </trkpt>
            <trkpt lon="101.379871" lat="14.146684">
                <ele>132.800000</ele>
                <time>1970-01-01T03:29:27Z</time>
            </trkpt>
            <trkpt lon="101.379902" lat="14.146675">
                <ele>132.900000</ele>
                <time>1970-01-01T03:29:28Z</time>
            </trkpt>
            <trkpt lon="101.379953" lat="14.146657">
                <ele>133.000000</ele>
                <time>1970-01-01T03:29:30Z</time>
            </trkpt>
            <trkpt lon="101.379984" lat="14.146652">
                <ele>133.100000</ele>
                <time>1970-01-01T03:29:31Z</time>
            </trkpt>
            <trkpt lon="101.380019" lat="14.146648">
                <ele>133.100000</ele>
                <time>1970-01-01T03:29:32Z</time>
            </trkpt>
            <trkpt lon="101.380055" lat="14.146645">
                <ele>133.200000</ele>
                <time>1970-01-01T03:29:33Z</time>
            </trkpt>
            <trkpt lon="101.380088" lat="14.146638">
                <ele>133.200000</ele>
                <time>1970-01-01T03:29:34Z</time>
            </trkpt>
            <trkpt lon="101.380122" lat="14.146627">
                <ele>133.300000</ele>
                <time>1970-01-01T03:29:35Z</time>
            </trkpt>
            <trkpt lon="101.380160" lat="14.146615">
                <ele>133.300000</ele>
                <time>1970-01-01T03:29:36Z</time>
            </trkpt>
            <trkpt lon="101.380199" lat="14.146603">
                <ele>133.400000</ele>
                <time>1970-01-01T03:29:37Z</time>
            </trkpt>
            <trkpt lon="101.380240" lat="14.146587">
                <ele>133.400000</ele>
                <time>1970-01-01T03:29:38Z</time>
            </trkpt>
            <trkpt lon="101.380280" lat="14.146569">
                <ele>133.400000</ele>
                <time>1970-01-01T03:29:39Z</time>
            </trkpt>
            <trkpt lon="101.380320" lat="14.146553">
                <ele>133.400000</ele>
                <time>1970-01-01T03:29:40Z</time>
            </trkpt>
            <trkpt lon="101.380393" lat="14.146542">
                <ele>133.400000</ele>
                <time>1970-01-01T03:29:41Z</time>
            </trkpt>
            <trkpt lon="101.380424" lat="14.146538">
                <ele>133.400000</ele>
                <time>1970-01-01T03:29:42Z</time>
            </trkpt>
            <trkpt lon="101.380461" lat="14.146536">
                <ele>133.400000</ele>
                <time>1970-01-01T03:29:43Z</time>
            </trkpt>
            <trkpt lon="101.380510" lat="14.146524">
                <ele>133.400000</ele>
                <time>1970-01-01T03:29:44Z</time>
            </trkpt>
            <trkpt lon="101.380566" lat="14.146508">
                <ele>133.400000</ele>
                <time>1970-01-01T03:29:45Z</time>
            </trkpt>
            <trkpt lon="101.380604" lat="14.146509">
                <ele>133.400000</ele>
                <time>1970-01-01T03:29:46Z</time>
            </trkpt>
            <trkpt lon="101.380647" lat="14.146496">
                <ele>133.400000</ele>
                <time>1970-01-01T03:29:47Z</time>
            </trkpt>
            <trkpt lon="101.380694" lat="14.146496">
                <ele>133.400000</ele>
                <time>1970-01-01T03:29:48Z</time>
            </trkpt>
            <trkpt lon="101.380747" lat="14.146482">
                <ele>133.400000</ele>
                <time>1970-01-01T03:29:49Z</time>
            </trkpt>
            <trkpt lon="101.380817" lat="14.146504">
                <ele>133.300000</ele>
                <time>1970-01-01T03:29:50Z</time>
            </trkpt>
            <trkpt lon="101.380847" lat="14.146529">
                <ele>133.300000</ele>
                <time>1970-01-01T03:29:51Z</time>
            </trkpt>
            <trkpt lon="101.380896" lat="14.146533">
                <ele>133.300000</ele>
                <time>1970-01-01T03:29:52Z</time>
            </trkpt>
            <trkpt lon="101.380949" lat="14.146519">
                <ele>133.200000</ele>
                <time>1970-01-01T03:29:53Z</time>
            </trkpt>
            <trkpt lon="101.380984" lat="14.146507">
                <ele>133.200000</ele>
                <time>1970-01-01T03:29:54Z</time>
            </trkpt>
            <trkpt lon="101.381018" lat="14.146487">
                <ele>133.100000</ele>
                <time>1970-01-01T03:29:55Z</time>
            </trkpt>
            <trkpt lon="101.381073" lat="14.146470">
                <ele>133.100000</ele>
                <time>1970-01-01T03:29:57Z</time>
            </trkpt>
            <trkpt lon="101.381107" lat="14.146459">
                <ele>133.100000</ele>
                <time>1970-01-01T03:29:58Z</time>
            </trkpt>
            <trkpt lon="101.381167" lat="14.146428">
                <ele>133.000000</ele>
                <time>1970-01-01T03:29:59Z</time>
            </trkpt>
            <trkpt lon="101.381211" lat="14.146410">
                <ele>133.000000</ele>
                <time>1970-01-01T03:30:00Z</time>
            </trkpt>
            <trkpt lon="101.381247" lat="14.146400">
                <ele>132.900000</ele>
                <time>1970-01-01T03:30:01Z</time>
            </trkpt>
            <trkpt lon="101.381276" lat="14.146390">
                <ele>132.900000</ele>
                <time>1970-01-01T03:30:02Z</time>
            </trkpt>
            <trkpt lon="101.381329" lat="14.146367">
                <ele>132.900000</ele>
                <time>1970-01-01T03:30:03Z</time>
            </trkpt>
            <trkpt lon="101.381369" lat="14.146351">
                <ele>132.800000</ele>
                <time>1970-01-01T03:30:04Z</time>
            </trkpt>
            <trkpt lon="101.381416" lat="14.146340">
                <ele>132.800000</ele>
                <time>1970-01-01T03:30:05Z</time>
            </trkpt>
            <trkpt lon="101.381463" lat="14.146336">
                <ele>132.800000</ele>
                <time>1970-01-01T03:30:06Z</time>
            </trkpt>
            <trkpt lon="101.381508" lat="14.146330">
                <ele>132.800000</ele>
                <time>1970-01-01T03:30:07Z</time>
            </trkpt>
            <trkpt lon="101.381556" lat="14.146322">
                <ele>132.700000</ele>
                <time>1970-01-01T03:30:08Z</time>
            </trkpt>
            <trkpt lon="101.381601" lat="14.146313">
                <ele>132.700000</ele>
                <time>1970-01-01T03:30:09Z</time>
            </trkpt>
            <trkpt lon="101.381640" lat="14.146306">
                <ele>132.700000</ele>
                <time>1970-01-01T03:30:10Z</time>
            </trkpt>
            <trkpt lon="101.381678" lat="14.146302">
                <ele>132.700000</ele>
                <time>1970-01-01T03:30:11Z</time>
            </trkpt>
            <trkpt lon="101.381722" lat="14.146293">
                <ele>132.600000</ele>
                <time>1970-01-01T03:30:12Z</time>
            </trkpt>
            <trkpt lon="101.381765" lat="14.146280">
                <ele>132.600000</ele>
                <time>1970-01-01T03:30:13Z</time>
            </trkpt>
            <trkpt lon="101.381807" lat="14.146268">
                <ele>132.600000</ele>
                <time>1970-01-01T03:30:14Z</time>
            </trkpt>
            <trkpt lon="101.381851" lat="14.146259">
                <ele>132.600000</ele>
                <time>1970-01-01T03:30:15Z</time>
            </trkpt>
            <trkpt lon="101.381897" lat="14.146253">
                <ele>132.500000</ele>
                <time>1970-01-01T03:30:16Z</time>
            </trkpt>
            <trkpt lon="101.381942" lat="14.146248">
                <ele>132.400000</ele>
                <time>1970-01-01T03:30:17Z</time>
            </trkpt>
            <trkpt lon="101.381994" lat="14.146231">
                <ele>132.400000</ele>
                <time>1970-01-01T03:30:18Z</time>
            </trkpt>
            <trkpt lon="101.382043" lat="14.146213">
                <ele>132.300000</ele>
                <time>1970-01-01T03:30:19Z</time>
            </trkpt>
            <trkpt lon="101.382099" lat="14.146199">
                <ele>132.200000</ele>
                <time>1970-01-01T03:30:20Z</time>
            </trkpt>
            <trkpt lon="101.382149" lat="14.146194">
                <ele>132.100000</ele>
                <time>1970-01-01T03:30:21Z</time>
            </trkpt>
            <trkpt lon="101.382200" lat="14.146173">
                <ele>132.000000</ele>
                <time>1970-01-01T03:30:22Z</time>
            </trkpt>
            <trkpt lon="101.382242" lat="14.146158">
                <ele>131.900000</ele>
                <time>1970-01-01T03:30:23Z</time>
            </trkpt>
            <trkpt lon="101.382305" lat="14.146145">
                <ele>131.700000</ele>
                <time>1970-01-01T03:30:24Z</time>
            </trkpt>
            <trkpt lon="101.382357" lat="14.146140">
                <ele>131.600000</ele>
                <time>1970-01-01T03:30:25Z</time>
            </trkpt>
            <trkpt lon="101.382404" lat="14.146126">
                <ele>131.500000</ele>
                <time>1970-01-01T03:30:26Z</time>
            </trkpt>
            <trkpt lon="101.382451" lat="14.146108">
                <ele>131.400000</ele>
                <time>1970-01-01T03:30:27Z</time>
            </trkpt>
            <trkpt lon="101.382489" lat="14.146092">
                <ele>131.400000</ele>
                <time>1970-01-01T03:30:28Z</time>
            </trkpt>
            <trkpt lon="101.382536" lat="14.146075">
                <ele>131.300000</ele>
                <time>1970-01-01T03:30:29Z</time>
            </trkpt>
            <trkpt lon="101.382578" lat="14.146068">
                <ele>131.300000</ele>
                <time>1970-01-01T03:30:30Z</time>
            </trkpt>
            <trkpt lon="101.382622" lat="14.146054">
                <ele>131.300000</ele>
                <time>1970-01-01T03:30:31Z</time>
            </trkpt>
            <trkpt lon="101.382666" lat="14.146028">
                <ele>131.300000</ele>
                <time>1970-01-01T03:30:32Z</time>
            </trkpt>
            <trkpt lon="101.382714" lat="14.146014">
                <ele>131.300000</ele>
                <time>1970-01-01T03:30:33Z</time>
            </trkpt>
            <trkpt lon="101.382751" lat="14.146016">
                <ele>131.300000</ele>
                <time>1970-01-01T03:30:34Z</time>
            </trkpt>
            <trkpt lon="101.382787" lat="14.146028">
                <ele>131.200000</ele>
                <time>1970-01-01T03:30:35Z</time>
            </trkpt>
            <trkpt lon="101.382829" lat="14.146036">
                <ele>131.200000</ele>
                <time>1970-01-01T03:30:36Z</time>
            </trkpt>
            <trkpt lon="101.382852" lat="14.146056">
                <ele>131.200000</ele>
                <time>1970-01-01T03:30:37Z</time>
            </trkpt>
            <trkpt lon="101.382894" lat="14.146088">
                <ele>131.100000</ele>
                <time>1970-01-01T03:30:39Z</time>
            </trkpt>
            <trkpt lon="101.382928" lat="14.146126">
                <ele>131.100000</ele>
                <time>1970-01-01T03:30:41Z</time>
            </trkpt>
            <trkpt lon="101.382953" lat="14.146153">
                <ele>131.000000</ele>
                <time>1970-01-01T03:30:42Z</time>
            </trkpt>
            <trkpt lon="101.382981" lat="14.146182">
                <ele>130.900000</ele>
                <time>1970-01-01T03:30:43Z</time>
            </trkpt>
            <trkpt lon="101.383012" lat="14.146212">
                <ele>130.800000</ele>
                <time>1970-01-01T03:30:44Z</time>
            </trkpt>
            <trkpt lon="101.383045" lat="14.146231">
                <ele>130.700000</ele>
                <time>1970-01-01T03:30:45Z</time>
            </trkpt>
            <trkpt lon="101.383120" lat="14.146212">
                <ele>130.300000</ele>
                <time>1970-01-01T03:30:46Z</time>
            </trkpt>
            <trkpt lon="101.383176" lat="14.146207">
                <ele>130.000000</ele>
                <time>1970-01-01T03:30:47Z</time>
            </trkpt>
            <trkpt lon="101.383224" lat="14.146206">
                <ele>129.700000</ele>
                <time>1970-01-01T03:30:48Z</time>
            </trkpt>
            <trkpt lon="101.383274" lat="14.146221">
                <ele>129.400000</ele>
                <time>1970-01-01T03:30:49Z</time>
            </trkpt>
            <trkpt lon="101.383307" lat="14.146231">
                <ele>129.200000</ele>
                <time>1970-01-01T03:30:50Z</time>
            </trkpt>
            <trkpt lon="101.383354" lat="14.146232">
                <ele>128.900000</ele>
                <time>1970-01-01T03:30:51Z</time>
            </trkpt>
            <trkpt lon="101.383386" lat="14.146219">
                <ele>128.700000</ele>
                <time>1970-01-01T03:30:52Z</time>
            </trkpt>
            <trkpt lon="101.383418" lat="14.146209">
                <ele>128.500000</ele>
                <time>1970-01-01T03:30:53Z</time>
            </trkpt>
            <trkpt lon="101.383447" lat="14.146200">
                <ele>128.300000</ele>
                <time>1970-01-01T03:30:54Z</time>
            </trkpt>
            <trkpt lon="101.383467" lat="14.146229">
                <ele>128.200000</ele>
                <time>1970-01-01T03:30:55Z</time>
            </trkpt>
            <trkpt lon="101.383520" lat="14.146246">
                <ele>128.100000</ele>
                <time>1970-01-01T03:30:57Z</time>
            </trkpt>
            <trkpt lon="101.383559" lat="14.146257">
                <ele>128.000000</ele>
                <time>1970-01-01T03:30:58Z</time>
            </trkpt>
            <trkpt lon="101.383599" lat="14.146281">
                <ele>127.900000</ele>
                <time>1970-01-01T03:31:00Z</time>
            </trkpt>
            <trkpt lon="101.383627" lat="14.146290">
                <ele>127.800000</ele>
                <time>1970-01-01T03:31:01Z</time>
            </trkpt>
            <trkpt lon="101.383667" lat="14.146291">
                <ele>127.700000</ele>
                <time>1970-01-01T03:31:02Z</time>
            </trkpt>
            <trkpt lon="101.383717" lat="14.146293">
                <ele>127.600000</ele>
                <time>1970-01-01T03:31:03Z</time>
            </trkpt>
            <trkpt lon="101.383769" lat="14.146298">
                <ele>127.500000</ele>
                <time>1970-01-01T03:31:04Z</time>
            </trkpt>
            <trkpt lon="101.383817" lat="14.146306">
                <ele>127.400000</ele>
                <time>1970-01-01T03:31:05Z</time>
            </trkpt>
            <trkpt lon="101.383855" lat="14.146311">
                <ele>127.400000</ele>
                <time>1970-01-01T03:31:06Z</time>
            </trkpt>
            <trkpt lon="101.383886" lat="14.146312">
                <ele>127.300000</ele>
                <time>1970-01-01T03:31:07Z</time>
            </trkpt>
            <trkpt lon="101.383919" lat="14.146309">
                <ele>127.300000</ele>
                <time>1970-01-01T03:31:08Z</time>
            </trkpt>
            <trkpt lon="101.383950" lat="14.146301">
                <ele>127.300000</ele>
                <time>1970-01-01T03:31:09Z</time>
            </trkpt>
            <trkpt lon="101.384002" lat="14.146284">
                <ele>127.300000</ele>
                <time>1970-01-01T03:31:11Z</time>
            </trkpt>
            <trkpt lon="101.384031" lat="14.146274">
                <ele>127.300000</ele>
                <time>1970-01-01T03:31:12Z</time>
            </trkpt>
            <trkpt lon="101.384061" lat="14.146267">
                <ele>127.300000</ele>
                <time>1970-01-01T03:31:13Z</time>
            </trkpt>
            <trkpt lon="101.384099" lat="14.146255">
                <ele>127.200000</ele>
                <time>1970-01-01T03:31:14Z</time>
            </trkpt>
            <trkpt lon="101.384142" lat="14.146236">
                <ele>127.200000</ele>
                <time>1970-01-01T03:31:15Z</time>
            </trkpt>
            <trkpt lon="101.384183" lat="14.146214">
                <ele>127.100000</ele>
                <time>1970-01-01T03:31:16Z</time>
            </trkpt>
            <trkpt lon="101.384213" lat="14.146190">
                <ele>127.100000</ele>
                <time>1970-01-01T03:31:17Z</time>
            </trkpt>
            <trkpt lon="101.384237" lat="14.146165">
                <ele>127.000000</ele>
                <time>1970-01-01T03:31:18Z</time>
            </trkpt>
            <trkpt lon="101.384263" lat="14.146138">
                <ele>127.000000</ele>
                <time>1970-01-01T03:31:19Z</time>
            </trkpt>
            <trkpt lon="101.384295" lat="14.146105">
                <ele>126.900000</ele>
                <time>1970-01-01T03:31:20Z</time>
            </trkpt>
            <trkpt lon="101.384329" lat="14.146068">
                <ele>126.800000</ele>
                <time>1970-01-01T03:31:21Z</time>
            </trkpt>
            <trkpt lon="101.384367" lat="14.146029">
                <ele>126.600000</ele>
                <time>1970-01-01T03:31:22Z</time>
            </trkpt>
            <trkpt lon="101.384409" lat="14.145993">
                <ele>126.500000</ele>
                <time>1970-01-01T03:31:23Z</time>
            </trkpt>
            <trkpt lon="101.384453" lat="14.145963">
                <ele>126.300000</ele>
                <time>1970-01-01T03:31:24Z</time>
            </trkpt>
            <trkpt lon="101.384493" lat="14.145939">
                <ele>126.100000</ele>
                <time>1970-01-01T03:31:25Z</time>
            </trkpt>
            <trkpt lon="101.384529" lat="14.145921">
                <ele>126.000000</ele>
                <time>1970-01-01T03:31:26Z</time>
            </trkpt>
            <trkpt lon="101.384558" lat="14.145908">
                <ele>125.900000</ele>
                <time>1970-01-01T03:31:27Z</time>
            </trkpt>
            <trkpt lon="101.384591" lat="14.145895">
                <ele>125.800000</ele>
                <time>1970-01-01T03:31:28Z</time>
            </trkpt>
            <trkpt lon="101.384624" lat="14.145887">
                <ele>125.800000</ele>
                <time>1970-01-01T03:31:29Z</time>
            </trkpt>
            <trkpt lon="101.384659" lat="14.145888">
                <ele>125.700000</ele>
                <time>1970-01-01T03:31:30Z</time>
            </trkpt>
            <trkpt lon="101.384694" lat="14.145895">
                <ele>125.600000</ele>
                <time>1970-01-01T03:31:31Z</time>
            </trkpt>
            <trkpt lon="101.384724" lat="14.145909">
                <ele>125.500000</ele>
                <time>1970-01-01T03:31:32Z</time>
            </trkpt>
            <trkpt lon="101.384754" lat="14.145928">
                <ele>125.400000</ele>
                <time>1970-01-01T03:31:33Z</time>
            </trkpt>
            <trkpt lon="101.384780" lat="14.145944">
                <ele>125.300000</ele>
                <time>1970-01-01T03:31:34Z</time>
            </trkpt>
            <trkpt lon="101.384806" lat="14.145958">
                <ele>125.200000</ele>
                <time>1970-01-01T03:31:35Z</time>
            </trkpt>
            <trkpt lon="101.384831" lat="14.145973">
                <ele>125.100000</ele>
                <time>1970-01-01T03:31:36Z</time>
            </trkpt>
            <trkpt lon="101.384861" lat="14.145983">
                <ele>125.000000</ele>
                <time>1970-01-01T03:31:37Z</time>
            </trkpt>
            <trkpt lon="101.384894" lat="14.145991">
                <ele>124.800000</ele>
                <time>1970-01-01T03:31:38Z</time>
            </trkpt>
            <trkpt lon="101.384931" lat="14.145994">
                <ele>124.700000</ele>
                <time>1970-01-01T03:31:39Z</time>
            </trkpt>
            <trkpt lon="101.384971" lat="14.145990">
                <ele>124.500000</ele>
                <time>1970-01-01T03:31:40Z</time>
            </trkpt>
            <trkpt lon="101.385009" lat="14.145976">
                <ele>124.300000</ele>
                <time>1970-01-01T03:31:41Z</time>
            </trkpt>
            <trkpt lon="101.385041" lat="14.145953">
                <ele>124.200000</ele>
                <time>1970-01-01T03:31:42Z</time>
            </trkpt>
            <trkpt lon="101.385067" lat="14.145929">
                <ele>124.100000</ele>
                <time>1970-01-01T03:31:43Z</time>
            </trkpt>
            <trkpt lon="101.385093" lat="14.145904">
                <ele>124.100000</ele>
                <time>1970-01-01T03:31:44Z</time>
            </trkpt>
            <trkpt lon="101.385125" lat="14.145876">
                <ele>124.000000</ele>
                <time>1970-01-01T03:31:45Z</time>
            </trkpt>
            <trkpt lon="101.385160" lat="14.145853">
                <ele>123.900000</ele>
                <time>1970-01-01T03:31:46Z</time>
            </trkpt>
            <trkpt lon="101.385194" lat="14.145831">
                <ele>123.800000</ele>
                <time>1970-01-01T03:31:47Z</time>
            </trkpt>
            <trkpt lon="101.385228" lat="14.145812">
                <ele>123.800000</ele>
                <time>1970-01-01T03:31:48Z</time>
            </trkpt>
            <trkpt lon="101.385256" lat="14.145797">
                <ele>123.800000</ele>
                <time>1970-01-01T03:31:49Z</time>
            </trkpt>
            <trkpt lon="101.385288" lat="14.145781">
                <ele>123.700000</ele>
                <time>1970-01-01T03:31:50Z</time>
            </trkpt>
            <trkpt lon="101.385317" lat="14.145773">
                <ele>123.700000</ele>
                <time>1970-01-01T03:31:51Z</time>
            </trkpt>
            <trkpt lon="101.385366" lat="14.145768">
                <ele>123.700000</ele>
                <time>1970-01-01T03:31:53Z</time>
            </trkpt>
            <trkpt lon="101.385394" lat="14.145777">
                <ele>123.800000</ele>
                <time>1970-01-01T03:31:54Z</time>
            </trkpt>
            <trkpt lon="101.385425" lat="14.145791">
                <ele>123.800000</ele>
                <time>1970-01-01T03:31:55Z</time>
            </trkpt>
            <trkpt lon="101.385451" lat="14.145808">
                <ele>123.800000</ele>
                <time>1970-01-01T03:31:56Z</time>
            </trkpt>
            <trkpt lon="101.385477" lat="14.145832">
                <ele>123.900000</ele>
                <time>1970-01-01T03:31:57Z</time>
            </trkpt>
            <trkpt lon="101.385496" lat="14.145856">
                <ele>123.900000</ele>
                <time>1970-01-01T03:31:58Z</time>
            </trkpt>
            <trkpt lon="101.385514" lat="14.145877">
                <ele>124.000000</ele>
                <time>1970-01-01T03:31:59Z</time>
            </trkpt>
            <trkpt lon="101.385539" lat="14.145895">
                <ele>124.100000</ele>
                <time>1970-01-01T03:32:00Z</time>
            </trkpt>
            <trkpt lon="101.385573" lat="14.145905">
                <ele>124.200000</ele>
                <time>1970-01-01T03:32:01Z</time>
            </trkpt>
            <trkpt lon="101.385607" lat="14.145903">
                <ele>124.300000</ele>
                <time>1970-01-01T03:32:02Z</time>
            </trkpt>
            <trkpt lon="101.385645" lat="14.145896">
                <ele>124.400000</ele>
                <time>1970-01-01T03:32:03Z</time>
            </trkpt>
            <trkpt lon="101.385689" lat="14.145889">
                <ele>124.400000</ele>
                <time>1970-01-01T03:32:04Z</time>
            </trkpt>
            <trkpt lon="101.385732" lat="14.145882">
                <ele>124.300000</ele>
                <time>1970-01-01T03:32:05Z</time>
            </trkpt>
            <trkpt lon="101.385774" lat="14.145873">
                <ele>124.300000</ele>
                <time>1970-01-01T03:32:06Z</time>
            </trkpt>
            <trkpt lon="101.385807" lat="14.145862">
                <ele>124.200000</ele>
                <time>1970-01-01T03:32:07Z</time>
            </trkpt>
            <trkpt lon="101.385835" lat="14.145853">
                <ele>124.200000</ele>
                <time>1970-01-01T03:32:08Z</time>
            </trkpt>
            <trkpt lon="101.385879" lat="14.145840">
                <ele>124.100000</ele>
                <time>1970-01-01T03:32:10Z</time>
            </trkpt>
            <trkpt lon="101.385911" lat="14.145815">
                <ele>124.000000</ele>
                <time>1970-01-01T03:32:12Z</time>
            </trkpt>
            <trkpt lon="101.385942" lat="14.145799">
                <ele>124.000000</ele>
                <time>1970-01-01T03:32:13Z</time>
            </trkpt>
            <trkpt lon="101.385977" lat="14.145786">
                <ele>123.900000</ele>
                <time>1970-01-01T03:32:14Z</time>
            </trkpt>
            <trkpt lon="101.386009" lat="14.145783">
                <ele>123.800000</ele>
                <time>1970-01-01T03:32:15Z</time>
            </trkpt>
            <trkpt lon="101.386043" lat="14.145785">
                <ele>123.800000</ele>
                <time>1970-01-01T03:32:16Z</time>
            </trkpt>
            <trkpt lon="101.386081" lat="14.145785">
                <ele>123.700000</ele>
                <time>1970-01-01T03:32:17Z</time>
            </trkpt>
            <trkpt lon="101.386112" lat="14.145780">
                <ele>123.600000</ele>
                <time>1970-01-01T03:32:18Z</time>
            </trkpt>
            <trkpt lon="101.386146" lat="14.145773">
                <ele>123.400000</ele>
                <time>1970-01-01T03:32:20Z</time>
            </trkpt>
            <trkpt lon="101.386178" lat="14.145788">
                <ele>123.300000</ele>
                <time>1970-01-01T03:32:22Z</time>
            </trkpt>
            <trkpt lon="101.386227" lat="14.145805">
                <ele>123.100000</ele>
                <time>1970-01-01T03:32:24Z</time>
            </trkpt>
            <trkpt lon="101.386262" lat="14.145806">
                <ele>123.000000</ele>
                <time>1970-01-01T03:32:25Z</time>
            </trkpt>
            <trkpt lon="101.386303" lat="14.145809">
                <ele>122.900000</ele>
                <time>1970-01-01T03:32:26Z</time>
            </trkpt>
            <trkpt lon="101.386341" lat="14.145811">
                <ele>122.800000</ele>
                <time>1970-01-01T03:32:27Z</time>
            </trkpt>
            <trkpt lon="101.386382" lat="14.145808">
                <ele>122.800000</ele>
                <time>1970-01-01T03:32:28Z</time>
            </trkpt>
            <trkpt lon="101.386423" lat="14.145799">
                <ele>122.700000</ele>
                <time>1970-01-01T03:32:29Z</time>
            </trkpt>
            <trkpt lon="101.386459" lat="14.145784">
                <ele>122.600000</ele>
                <time>1970-01-01T03:32:30Z</time>
            </trkpt>
            <trkpt lon="101.386495" lat="14.145767">
                <ele>122.500000</ele>
                <time>1970-01-01T03:32:31Z</time>
            </trkpt>
            <trkpt lon="101.386526" lat="14.145752">
                <ele>122.500000</ele>
                <time>1970-01-01T03:32:32Z</time>
            </trkpt>
            <trkpt lon="101.386555" lat="14.145738">
                <ele>122.400000</ele>
                <time>1970-01-01T03:32:33Z</time>
            </trkpt>
            <trkpt lon="101.386585" lat="14.145723">
                <ele>122.400000</ele>
                <time>1970-01-01T03:32:34Z</time>
            </trkpt>
            <trkpt lon="101.386625" lat="14.145710">
                <ele>122.300000</ele>
                <time>1970-01-01T03:32:35Z</time>
            </trkpt>
            <trkpt lon="101.386659" lat="14.145701">
                <ele>122.300000</ele>
                <time>1970-01-01T03:32:36Z</time>
            </trkpt>
            <trkpt lon="101.386690" lat="14.145698">
                <ele>122.200000</ele>
                <time>1970-01-01T03:32:37Z</time>
            </trkpt>
            <trkpt lon="101.386722" lat="14.145696">
                <ele>122.200000</ele>
                <time>1970-01-01T03:32:38Z</time>
            </trkpt>
            <trkpt lon="101.386783" lat="14.145708">
                <ele>122.100000</ele>
                <time>1970-01-01T03:32:40Z</time>
            </trkpt>
            <trkpt lon="101.386827" lat="14.145719">
                <ele>122.000000</ele>
                <time>1970-01-01T03:32:41Z</time>
            </trkpt>
            <trkpt lon="101.386875" lat="14.145730">
                <ele>121.900000</ele>
                <time>1970-01-01T03:32:42Z</time>
            </trkpt>
            <trkpt lon="101.386925" lat="14.145734">
                <ele>121.800000</ele>
                <time>1970-01-01T03:32:43Z</time>
            </trkpt>
            <trkpt lon="101.386976" lat="14.145731">
                <ele>121.700000</ele>
                <time>1970-01-01T03:32:44Z</time>
            </trkpt>
            <trkpt lon="101.387023" lat="14.145727">
                <ele>121.600000</ele>
                <time>1970-01-01T03:32:45Z</time>
            </trkpt>
            <trkpt lon="101.387062" lat="14.145725">
                <ele>121.400000</ele>
                <time>1970-01-01T03:32:46Z</time>
            </trkpt>
            <trkpt lon="101.387100" lat="14.145727">
                <ele>121.200000</ele>
                <time>1970-01-01T03:32:47Z</time>
            </trkpt>
            <trkpt lon="101.387135" lat="14.145735">
                <ele>121.100000</ele>
                <time>1970-01-01T03:32:48Z</time>
            </trkpt>
            <trkpt lon="101.387168" lat="14.145739">
                <ele>121.000000</ele>
                <time>1970-01-01T03:32:49Z</time>
            </trkpt>
            <trkpt lon="101.387197" lat="14.145737">
                <ele>120.900000</ele>
                <time>1970-01-01T03:32:50Z</time>
            </trkpt>
            <trkpt lon="101.387244" lat="14.145725">
                <ele>120.800000</ele>
                <time>1970-01-01T03:32:52Z</time>
            </trkpt>
            <trkpt lon="101.387278" lat="14.145715">
                <ele>120.700000</ele>
                <time>1970-01-01T03:32:54Z</time>
            </trkpt>
            <trkpt lon="101.387330" lat="14.145722">
                <ele>120.600000</ele>
                <time>1970-01-01T03:32:57Z</time>
            </trkpt>
            <trkpt lon="101.387358" lat="14.145730">
                <ele>120.500000</ele>
                <time>1970-01-01T03:32:58Z</time>
            </trkpt>
            <trkpt lon="101.387385" lat="14.145736">
                <ele>120.500000</ele>
                <time>1970-01-01T03:32:59Z</time>
            </trkpt>
            <trkpt lon="101.387418" lat="14.145739">
                <ele>120.400000</ele>
                <time>1970-01-01T03:33:00Z</time>
            </trkpt>
            <trkpt lon="101.387453" lat="14.145742">
                <ele>120.400000</ele>
                <time>1970-01-01T03:33:01Z</time>
            </trkpt>
            <trkpt lon="101.387490" lat="14.145740">
                <ele>120.300000</ele>
                <time>1970-01-01T03:33:03Z</time>
            </trkpt>
            <trkpt lon="101.387528" lat="14.145723">
                <ele>120.300000</ele>
                <time>1970-01-01T03:33:05Z</time>
            </trkpt>
            <trkpt lon="101.387560" lat="14.145718">
                <ele>120.300000</ele>
                <time>1970-01-01T03:33:08Z</time>
            </trkpt>
            <trkpt lon="101.387594" lat="14.145720">
                <ele>120.200000</ele>
                <time>1970-01-01T03:33:10Z</time>
            </trkpt>
            <trkpt lon="101.387622" lat="14.145717">
                <ele>120.200000</ele>
                <time>1970-01-01T03:33:11Z</time>
            </trkpt>
            <trkpt lon="101.387655" lat="14.145713">
                <ele>120.200000</ele>
                <time>1970-01-01T03:33:12Z</time>
            </trkpt>
            <trkpt lon="101.387688" lat="14.145710">
                <ele>120.100000</ele>
                <time>1970-01-01T03:33:13Z</time>
            </trkpt>
            <trkpt lon="101.387719" lat="14.145703">
                <ele>120.100000</ele>
                <time>1970-01-01T03:33:14Z</time>
            </trkpt>
            <trkpt lon="101.387756" lat="14.145693">
                <ele>120.000000</ele>
                <time>1970-01-01T03:33:15Z</time>
            </trkpt>
            <trkpt lon="101.387796" lat="14.145682">
                <ele>120.000000</ele>
                <time>1970-01-01T03:33:16Z</time>
            </trkpt>
            <trkpt lon="101.387836" lat="14.145676">
                <ele>119.900000</ele>
                <time>1970-01-01T03:33:17Z</time>
            </trkpt>
            <trkpt lon="101.387878" lat="14.145677">
                <ele>119.900000</ele>
                <time>1970-01-01T03:33:18Z</time>
            </trkpt>
            <trkpt lon="101.387917" lat="14.145683">
                <ele>119.800000</ele>
                <time>1970-01-01T03:33:19Z</time>
            </trkpt>
            <trkpt lon="101.387945" lat="14.145680">
                <ele>119.700000</ele>
                <time>1970-01-01T03:33:21Z</time>
            </trkpt>
            <trkpt lon="101.387977" lat="14.145686">
                <ele>119.600000</ele>
                <time>1970-01-01T03:33:24Z</time>
            </trkpt>
            <trkpt lon="101.388009" lat="14.145690">
                <ele>119.500000</ele>
                <time>1970-01-01T03:33:25Z</time>
            </trkpt>
            <trkpt lon="101.388044" lat="14.145698">
                <ele>119.300000</ele>
                <time>1970-01-01T03:33:26Z</time>
            </trkpt>
            <trkpt lon="101.388072" lat="14.145703">
                <ele>119.200000</ele>
                <time>1970-01-01T03:33:27Z</time>
            </trkpt>
            <trkpt lon="101.388131" lat="14.145709">
                <ele>118.900000</ele>
                <time>1970-01-01T03:33:29Z</time>
            </trkpt>
            <trkpt lon="101.388166" lat="14.145712">
                <ele>118.700000</ele>
                <time>1970-01-01T03:33:30Z</time>
            </trkpt>
            <trkpt lon="101.388198" lat="14.145713">
                <ele>118.600000</ele>
                <time>1970-01-01T03:33:31Z</time>
            </trkpt>
            <trkpt lon="101.388235" lat="14.145717">
                <ele>118.500000</ele>
                <time>1970-01-01T03:33:32Z</time>
            </trkpt>
            <trkpt lon="101.388273" lat="14.145719">
                <ele>118.400000</ele>
                <time>1970-01-01T03:33:33Z</time>
            </trkpt>
            <trkpt lon="101.388312" lat="14.145718">
                <ele>118.300000</ele>
                <time>1970-01-01T03:33:34Z</time>
            </trkpt>
            <trkpt lon="101.388354" lat="14.145713">
                <ele>118.100000</ele>
                <time>1970-01-01T03:33:35Z</time>
            </trkpt>
            <trkpt lon="101.388391" lat="14.145707">
                <ele>118.000000</ele>
                <time>1970-01-01T03:33:36Z</time>
            </trkpt>
            <trkpt lon="101.388428" lat="14.145692">
                <ele>117.900000</ele>
                <time>1970-01-01T03:33:37Z</time>
            </trkpt>
            <trkpt lon="101.388467" lat="14.145670">
                <ele>117.800000</ele>
                <time>1970-01-01T03:33:38Z</time>
            </trkpt>
            <trkpt lon="101.388509" lat="14.145652">
                <ele>117.600000</ele>
                <time>1970-01-01T03:33:39Z</time>
            </trkpt>
            <trkpt lon="101.388550" lat="14.145648">
                <ele>117.500000</ele>
                <time>1970-01-01T03:33:40Z</time>
            </trkpt>
            <trkpt lon="101.388587" lat="14.145656">
                <ele>117.300000</ele>
                <time>1970-01-01T03:33:41Z</time>
            </trkpt>
            <trkpt lon="101.388627" lat="14.145667">
                <ele>117.000000</ele>
                <time>1970-01-01T03:33:42Z</time>
            </trkpt>
            <trkpt lon="101.388667" lat="14.145675">
                <ele>116.900000</ele>
                <time>1970-01-01T03:33:43Z</time>
            </trkpt>
            <trkpt lon="101.388705" lat="14.145679">
                <ele>116.800000</ele>
                <time>1970-01-01T03:33:44Z</time>
            </trkpt>
            <trkpt lon="101.388736" lat="14.145679">
                <ele>116.700000</ele>
                <time>1970-01-01T03:33:45Z</time>
            </trkpt>
            <trkpt lon="101.388781" lat="14.145677">
                <ele>116.600000</ele>
                <time>1970-01-01T03:33:47Z</time>
            </trkpt>
            <trkpt lon="101.388820" lat="14.145682">
                <ele>116.500000</ele>
                <time>1970-01-01T03:33:49Z</time>
            </trkpt>
            <trkpt lon="101.388847" lat="14.145708">
                <ele>116.400000</ele>
                <time>1970-01-01T03:33:52Z</time>
            </trkpt>
            <trkpt lon="101.388878" lat="14.145695">
                <ele>116.300000</ele>
                <time>1970-01-01T03:33:55Z</time>
            </trkpt>
            <trkpt lon="101.388895" lat="14.145672">
                <ele>116.200000</ele>
                <time>1970-01-01T03:33:56Z</time>
            </trkpt>
            <trkpt lon="101.388913" lat="14.145639">
                <ele>116.200000</ele>
                <time>1970-01-01T03:33:58Z</time>
            </trkpt>
            <trkpt lon="101.388943" lat="14.145617">
                <ele>116.100000</ele>
                <time>1970-01-01T03:34:00Z</time>
            </trkpt>
            <trkpt lon="101.388992" lat="14.145615">
                <ele>116.100000</ele>
                <time>1970-01-01T03:34:02Z</time>
            </trkpt>
            <trkpt lon="101.389022" lat="14.145623">
                <ele>116.000000</ele>
                <time>1970-01-01T03:34:03Z</time>
            </trkpt>
            <trkpt lon="101.389052" lat="14.145638">
                <ele>115.900000</ele>
                <time>1970-01-01T03:34:04Z</time>
            </trkpt>
            <trkpt lon="101.389079" lat="14.145653">
                <ele>115.800000</ele>
                <time>1970-01-01T03:34:05Z</time>
            </trkpt>
            <trkpt lon="101.389120" lat="14.145677">
                <ele>115.600000</ele>
                <time>1970-01-01T03:34:07Z</time>
            </trkpt>
            <trkpt lon="101.389167" lat="14.145701">
                <ele>115.400000</ele>
                <time>1970-01-01T03:34:09Z</time>
            </trkpt>
            <trkpt lon="101.389197" lat="14.145707">
                <ele>115.200000</ele>
                <time>1970-01-01T03:34:10Z</time>
            </trkpt>
            <trkpt lon="101.389251" lat="14.145707">
                <ele>114.800000</ele>
                <time>1970-01-01T03:34:12Z</time>
            </trkpt>
            <trkpt lon="101.389288" lat="14.145708">
                <ele>114.500000</ele>
                <time>1970-01-01T03:34:13Z</time>
            </trkpt>
            <trkpt lon="101.389326" lat="14.145711">
                <ele>114.300000</ele>
                <time>1970-01-01T03:34:14Z</time>
            </trkpt>
            <trkpt lon="101.389360" lat="14.145716">
                <ele>114.100000</ele>
                <time>1970-01-01T03:34:15Z</time>
            </trkpt>
            <trkpt lon="101.389389" lat="14.145724">
                <ele>113.900000</ele>
                <time>1970-01-01T03:34:16Z</time>
            </trkpt>
            <trkpt lon="101.389417" lat="14.145732">
                <ele>113.700000</ele>
                <time>1970-01-01T03:34:17Z</time>
            </trkpt>
            <trkpt lon="101.389444" lat="14.145745">
                <ele>113.400000</ele>
                <time>1970-01-01T03:34:18Z</time>
            </trkpt>
            <trkpt lon="101.389468" lat="14.145759">
                <ele>113.200000</ele>
                <time>1970-01-01T03:34:19Z</time>
            </trkpt>
            <trkpt lon="101.389503" lat="14.145792">
                <ele>113.000000</ele>
                <time>1970-01-01T03:34:21Z</time>
            </trkpt>
            <trkpt lon="101.389541" lat="14.145815">
                <ele>112.800000</ele>
                <time>1970-01-01T03:34:23Z</time>
            </trkpt>
            <trkpt lon="101.389590" lat="14.145809">
                <ele>112.600000</ele>
                <time>1970-01-01T03:34:25Z</time>
            </trkpt>
            <trkpt lon="101.389628" lat="14.145797">
                <ele>112.500000</ele>
                <time>1970-01-01T03:34:27Z</time>
            </trkpt>
            <trkpt lon="101.389677" lat="14.145787">
                <ele>112.300000</ele>
                <time>1970-01-01T03:34:29Z</time>
            </trkpt>
            <trkpt lon="101.389729" lat="14.145796">
                <ele>112.200000</ele>
                <time>1970-01-01T03:34:31Z</time>
            </trkpt>
            <trkpt lon="101.389755" lat="14.145812">
                <ele>112.200000</ele>
                <time>1970-01-01T03:34:33Z</time>
            </trkpt>
            <trkpt lon="101.389789" lat="14.145826">
                <ele>112.100000</ele>
                <time>1970-01-01T03:34:39Z</time>
            </trkpt>
            <trkpt lon="101.389819" lat="14.145828">
                <ele>112.100000</ele>
                <time>1970-01-01T03:34:49Z</time>
            </trkpt>
            <trkpt lon="101.389847" lat="14.145845">
                <ele>112.000000</ele>
                <time>1970-01-01T03:34:56Z</time>
            </trkpt>
            <trkpt lon="101.389875" lat="14.145847">
                <ele>112.000000</ele>
                <time>1970-01-01T03:35:05Z</time>
            </trkpt>
            <trkpt lon="101.389910" lat="14.145849">
                <ele>111.900000</ele>
                <time>1970-01-01T03:35:18Z</time>
            </trkpt>
            <trkpt lon="101.389944" lat="14.145844">
                <ele>111.900000</ele>
                <time>1970-01-01T03:35:26Z</time>
            </trkpt>
            <trkpt lon="101.389978" lat="14.145847">
                <ele>111.800000</ele>
                <time>1970-01-01T03:35:30Z</time>
            </trkpt>
            <trkpt lon="101.390010" lat="14.145851">
                <ele>111.800000</ele>
                <time>1970-01-01T03:35:33Z</time>
            </trkpt>
            <trkpt lon="101.390038" lat="14.145833">
                <ele>111.700000</ele>
                <time>1970-01-01T03:35:35Z</time>
            </trkpt>
            <trkpt lon="101.390073" lat="14.145810">
                <ele>111.700000</ele>
                <time>1970-01-01T03:35:37Z</time>
            </trkpt>
            <trkpt lon="101.390109" lat="14.145781">
                <ele>111.600000</ele>
                <time>1970-01-01T03:35:39Z</time>
            </trkpt>
            <trkpt lon="101.390148" lat="14.145756">
                <ele>111.500000</ele>
                <time>1970-01-01T03:35:41Z</time>
            </trkpt>
            <trkpt lon="101.390202" lat="14.145730">
                <ele>111.400000</ele>
                <time>1970-01-01T03:35:43Z</time>
            </trkpt>
            <trkpt lon="101.390230" lat="14.145716">
                <ele>111.300000</ele>
                <time>1970-01-01T03:35:44Z</time>
            </trkpt>
            <trkpt lon="101.390278" lat="14.145700">
                <ele>111.200000</ele>
                <time>1970-01-01T03:35:46Z</time>
            </trkpt>
            <trkpt lon="101.390306" lat="14.145697">
                <ele>111.000000</ele>
                <time>1970-01-01T03:35:47Z</time>
            </trkpt>
            <trkpt lon="101.390337" lat="14.145695">
                <ele>110.800000</ele>
                <time>1970-01-01T03:35:48Z</time>
            </trkpt>
            <trkpt lon="101.390369" lat="14.145693">
                <ele>110.600000</ele>
                <time>1970-01-01T03:35:49Z</time>
            </trkpt>
            <trkpt lon="101.390402" lat="14.145693">
                <ele>110.400000</ele>
                <time>1970-01-01T03:35:50Z</time>
            </trkpt>
            <trkpt lon="101.390434" lat="14.145696">
                <ele>110.200000</ele>
                <time>1970-01-01T03:35:51Z</time>
            </trkpt>
            <trkpt lon="101.390471" lat="14.145713">
                <ele>110.000000</ele>
                <time>1970-01-01T03:35:53Z</time>
            </trkpt>
            <trkpt lon="101.390510" lat="14.145745">
                <ele>109.700000</ele>
                <time>1970-01-01T03:35:55Z</time>
            </trkpt>
            <trkpt lon="101.390538" lat="14.145747">
                <ele>109.600000</ele>
                <time>1970-01-01T03:35:56Z</time>
            </trkpt>
            <trkpt lon="101.390575" lat="14.145744">
                <ele>109.500000</ele>
                <time>1970-01-01T03:35:57Z</time>
            </trkpt>
            <trkpt lon="101.390617" lat="14.145738">
                <ele>109.400000</ele>
                <time>1970-01-01T03:35:58Z</time>
            </trkpt>
            <trkpt lon="101.390647" lat="14.145736">
                <ele>109.300000</ele>
                <time>1970-01-01T03:35:59Z</time>
            </trkpt>
            <trkpt lon="101.390687" lat="14.145743">
                <ele>109.100000</ele>
                <time>1970-01-01T03:36:01Z</time>
            </trkpt>
            <trkpt lon="101.390719" lat="14.145725">
                <ele>109.000000</ele>
                <time>1970-01-01T03:36:03Z</time>
            </trkpt>
            <trkpt lon="101.390737" lat="14.145691">
                <ele>108.800000</ele>
                <time>1970-01-01T03:36:05Z</time>
            </trkpt>
            <trkpt lon="101.390745" lat="14.145657">
                <ele>108.700000</ele>
                <time>1970-01-01T03:36:07Z</time>
            </trkpt>
            <trkpt lon="101.390763" lat="14.145627">
                <ele>108.300000</ele>
                <time>1970-01-01T03:36:10Z</time>
            </trkpt>
            <trkpt lon="101.390738" lat="14.145607">
                <ele>108.000000</ele>
                <time>1970-01-01T03:36:13Z</time>
            </trkpt>
            <trkpt lon="101.390726" lat="14.145568">
                <ele>107.400000</ele>
                <time>1970-01-01T03:36:17Z</time>
            </trkpt>
            <trkpt lon="101.390734" lat="14.145522">
                <ele>107.000000</ele>
                <time>1970-01-01T03:36:19Z</time>
            </trkpt>
            <trkpt lon="101.390771" lat="14.145501">
                <ele>106.700000</ele>
                <time>1970-01-01T03:36:21Z</time>
            </trkpt>
            <trkpt lon="101.390798" lat="14.145492">
                <ele>106.400000</ele>
                <time>1970-01-01T03:36:23Z</time>
            </trkpt>
            <trkpt lon="101.390813" lat="14.145463">
                <ele>106.200000</ele>
                <time>1970-01-01T03:36:25Z</time>
            </trkpt>
            <trkpt lon="101.390858" lat="14.145465">
                <ele>105.800000</ele>
                <time>1970-01-01T03:36:28Z</time>
            </trkpt>
            <trkpt lon="101.390899" lat="14.145488">
                <ele>105.300000</ele>
                <time>1970-01-01T03:36:30Z</time>
            </trkpt>
            <trkpt lon="101.390933" lat="14.145515">
                <ele>104.600000</ele>
                <time>1970-01-01T03:36:32Z</time>
            </trkpt>
            <trkpt lon="101.390962" lat="14.145540">
                <ele>104.100000</ele>
                <time>1970-01-01T03:36:34Z</time>
            </trkpt>
            <trkpt lon="101.390991" lat="14.145575">
                <ele>103.500000</ele>
                <time>1970-01-01T03:36:36Z</time>
            </trkpt>
            <trkpt lon="101.391029" lat="14.145596">
                <ele>103.200000</ele>
                <time>1970-01-01T03:36:38Z</time>
            </trkpt>
            <trkpt lon="101.391058" lat="14.145611">
                <ele>103.000000</ele>
                <time>1970-01-01T03:36:42Z</time>
            </trkpt>
            <trkpt lon="101.391085" lat="14.145627">
                <ele>102.900000</ele>
                <time>1970-01-01T03:36:45Z</time>
            </trkpt>
            <trkpt lon="101.391101" lat="14.145650">
                <ele>102.800000</ele>
                <time>1970-01-01T03:36:48Z</time>
            </trkpt>
            <trkpt lon="101.391132" lat="14.145676">
                <ele>102.700000</ele>
                <time>1970-01-01T03:36:51Z</time>
            </trkpt>
            <trkpt lon="101.391169" lat="14.145702">
                <ele>102.700000</ele>
                <time>1970-01-01T03:36:53Z</time>
            </trkpt>
            <trkpt lon="101.391195" lat="14.145739">
                <ele>102.800000</ele>
                <time>1970-01-01T03:36:55Z</time>
            </trkpt>
            <trkpt lon="101.391201" lat="14.145776">
                <ele>102.800000</ele>
                <time>1970-01-01T03:37:01Z</time>
            </trkpt>
            <trkpt lon="101.391227" lat="14.145807">
                <ele>103.000000</ele>
                <time>1970-01-01T03:37:05Z</time>
            </trkpt>
            <trkpt lon="101.391254" lat="14.145818">
                <ele>103.000000</ele>
                <time>1970-01-01T03:37:07Z</time>
            </trkpt>
            <trkpt lon="101.391289" lat="14.145811">
                <ele>103.100000</ele>
                <time>1970-01-01T03:37:10Z</time>
            </trkpt>
            <trkpt lon="101.391326" lat="14.145800">
                <ele>103.200000</ele>
                <time>1970-01-01T03:37:12Z</time>
            </trkpt>
            <trkpt lon="101.391377" lat="14.145773">
                <ele>103.200000</ele>
                <time>1970-01-01T03:37:14Z</time>
            </trkpt>
            <trkpt lon="101.391418" lat="14.145754">
                <ele>103.300000</ele>
                <time>1970-01-01T03:37:16Z</time>
            </trkpt>
            <trkpt lon="101.391453" lat="14.145738">
                <ele>103.400000</ele>
                <time>1970-01-01T03:37:18Z</time>
            </trkpt>
            <trkpt lon="101.391505" lat="14.145731">
                <ele>103.400000</ele>
                <time>1970-01-01T03:37:20Z</time>
            </trkpt>
            <trkpt lon="101.391535" lat="14.145734">
                <ele>103.400000</ele>
                <time>1970-01-01T03:37:21Z</time>
            </trkpt>
            <trkpt lon="101.391579" lat="14.145747">
                <ele>103.400000</ele>
                <time>1970-01-01T03:37:23Z</time>
            </trkpt>
            <trkpt lon="101.391633" lat="14.145755">
                <ele>103.500000</ele>
                <time>1970-01-01T03:37:25Z</time>
            </trkpt>
            <trkpt lon="101.391663" lat="14.145755">
                <ele>103.500000</ele>
                <time>1970-01-01T03:37:26Z</time>
            </trkpt>
            <trkpt lon="101.391692" lat="14.145755">
                <ele>103.500000</ele>
                <time>1970-01-01T03:37:27Z</time>
            </trkpt>
            <trkpt lon="101.391725" lat="14.145761">
                <ele>103.500000</ele>
                <time>1970-01-01T03:37:28Z</time>
            </trkpt>
            <trkpt lon="101.391755" lat="14.145767">
                <ele>103.500000</ele>
                <time>1970-01-01T03:37:29Z</time>
            </trkpt>
            <trkpt lon="101.391798" lat="14.145798">
                <ele>103.500000</ele>
                <time>1970-01-01T03:37:31Z</time>
            </trkpt>
            <trkpt lon="101.391831" lat="14.145833">
                <ele>103.500000</ele>
                <time>1970-01-01T03:37:33Z</time>
            </trkpt>
            <trkpt lon="101.391868" lat="14.145846">
                <ele>103.500000</ele>
                <time>1970-01-01T03:37:35Z</time>
            </trkpt>
            <trkpt lon="101.391908" lat="14.145848">
                <ele>103.500000</ele>
                <time>1970-01-01T03:37:37Z</time>
            </trkpt>
            <trkpt lon="101.391952" lat="14.145849">
                <ele>103.500000</ele>
                <time>1970-01-01T03:37:39Z</time>
            </trkpt>
            <trkpt lon="101.391981" lat="14.145847">
                <ele>103.500000</ele>
                <time>1970-01-01T03:37:40Z</time>
            </trkpt>
            <trkpt lon="101.392011" lat="14.145844">
                <ele>103.500000</ele>
                <time>1970-01-01T03:37:41Z</time>
            </trkpt>
            <trkpt lon="101.392066" lat="14.145842">
                <ele>103.500000</ele>
                <time>1970-01-01T03:37:43Z</time>
            </trkpt>
            <trkpt lon="101.392098" lat="14.145844">
                <ele>103.500000</ele>
                <time>1970-01-01T03:37:44Z</time>
            </trkpt>
            <trkpt lon="101.392130" lat="14.145847">
                <ele>103.500000</ele>
                <time>1970-01-01T03:37:45Z</time>
            </trkpt>
            <trkpt lon="101.392161" lat="14.145849">
                <ele>103.500000</ele>
                <time>1970-01-01T03:37:46Z</time>
            </trkpt>
            <trkpt lon="101.392193" lat="14.145850">
                <ele>103.500000</ele>
                <time>1970-01-01T03:37:47Z</time>
            </trkpt>
            <trkpt lon="101.392231" lat="14.145848">
                <ele>103.500000</ele>
                <time>1970-01-01T03:37:48Z</time>
            </trkpt>
            <trkpt lon="101.392272" lat="14.145844">
                <ele>103.500000</ele>
                <time>1970-01-01T03:37:49Z</time>
            </trkpt>
            <trkpt lon="101.392303" lat="14.145837">
                <ele>103.500000</ele>
                <time>1970-01-01T03:37:50Z</time>
            </trkpt>
            <trkpt lon="101.392332" lat="14.145829">
                <ele>103.500000</ele>
                <time>1970-01-01T03:37:51Z</time>
            </trkpt>
            <trkpt lon="101.392409" lat="14.145815">
                <ele>103.500000</ele>
                <time>1970-01-01T03:37:52Z</time>
            </trkpt>
            <trkpt lon="101.392441" lat="14.145798">
                <ele>103.500000</ele>
                <time>1970-01-01T03:37:53Z</time>
            </trkpt>
            <trkpt lon="101.392485" lat="14.145775">
                <ele>103.500000</ele>
                <time>1970-01-01T03:37:54Z</time>
            </trkpt>
            <trkpt lon="101.392519" lat="14.145756">
                <ele>103.500000</ele>
                <time>1970-01-01T03:37:55Z</time>
            </trkpt>
            <trkpt lon="101.392561" lat="14.145755">
                <ele>103.400000</ele>
                <time>1970-01-01T03:37:56Z</time>
            </trkpt>
            <trkpt lon="101.392596" lat="14.145757">
                <ele>103.400000</ele>
                <time>1970-01-01T03:37:57Z</time>
            </trkpt>
            <trkpt lon="101.392626" lat="14.145764">
                <ele>103.400000</ele>
                <time>1970-01-01T03:37:58Z</time>
            </trkpt>
            <trkpt lon="101.392676" lat="14.145753">
                <ele>103.300000</ele>
                <time>1970-01-01T03:38:00Z</time>
            </trkpt>
            <trkpt lon="101.392712" lat="14.145760">
                <ele>103.300000</ele>
                <time>1970-01-01T03:38:02Z</time>
            </trkpt>
            <trkpt lon="101.392740" lat="14.145762">
                <ele>103.300000</ele>
                <time>1970-01-01T03:38:03Z</time>
            </trkpt>
            <trkpt lon="101.392769" lat="14.145753">
                <ele>103.200000</ele>
                <time>1970-01-01T03:38:04Z</time>
            </trkpt>
            <trkpt lon="101.392818" lat="14.145740">
                <ele>103.200000</ele>
                <time>1970-01-01T03:38:06Z</time>
            </trkpt>
            <trkpt lon="101.392854" lat="14.145731">
                <ele>103.100000</ele>
                <time>1970-01-01T03:38:07Z</time>
            </trkpt>
            <trkpt lon="101.392886" lat="14.145725">
                <ele>103.000000</ele>
                <time>1970-01-01T03:38:08Z</time>
            </trkpt>
            <trkpt lon="101.392934" lat="14.145727">
                <ele>102.800000</ele>
                <time>1970-01-01T03:38:10Z</time>
            </trkpt>
            <trkpt lon="101.392961" lat="14.145733">
                <ele>102.700000</ele>
                <time>1970-01-01T03:38:12Z</time>
            </trkpt>
            <trkpt lon="101.393008" lat="14.145717">
                <ele>102.500000</ele>
                <time>1970-01-01T03:38:15Z</time>
            </trkpt>
            <trkpt lon="101.393040" lat="14.145704">
                <ele>102.300000</ele>
                <time>1970-01-01T03:38:16Z</time>
            </trkpt>
            <trkpt lon="101.393074" lat="14.145694">
                <ele>102.100000</ele>
                <time>1970-01-01T03:38:17Z</time>
            </trkpt>
            <trkpt lon="101.393103" lat="14.145682">
                <ele>102.100000</ele>
                <time>1970-01-01T03:38:18Z</time>
            </trkpt>
            <trkpt lon="101.393126" lat="14.145667">
                <ele>102.000000</ele>
                <time>1970-01-01T03:38:19Z</time>
            </trkpt>
            <trkpt lon="101.393151" lat="14.145650">
                <ele>102.000000</ele>
                <time>1970-01-01T03:38:20Z</time>
            </trkpt>
            <trkpt lon="101.393178" lat="14.145633">
                <ele>101.900000</ele>
                <time>1970-01-01T03:38:21Z</time>
            </trkpt>
            <trkpt lon="101.393202" lat="14.145618">
                <ele>101.800000</ele>
                <time>1970-01-01T03:38:22Z</time>
            </trkpt>
            <trkpt lon="101.393226" lat="14.145602">
                <ele>101.800000</ele>
                <time>1970-01-01T03:38:23Z</time>
            </trkpt>
            <trkpt lon="101.393270" lat="14.145573">
                <ele>101.700000</ele>
                <time>1970-01-01T03:38:25Z</time>
            </trkpt>
            <trkpt lon="101.393314" lat="14.145557">
                <ele>101.600000</ele>
                <time>1970-01-01T03:38:27Z</time>
            </trkpt>
            <trkpt lon="101.393359" lat="14.145548">
                <ele>101.500000</ele>
                <time>1970-01-01T03:38:29Z</time>
            </trkpt>
            <trkpt lon="101.393400" lat="14.145540">
                <ele>101.400000</ele>
                <time>1970-01-01T03:38:31Z</time>
            </trkpt>
            <trkpt lon="101.393432" lat="14.145522">
                <ele>101.300000</ele>
                <time>1970-01-01T03:38:34Z</time>
            </trkpt>
            <trkpt lon="101.393448" lat="14.145496">
                <ele>101.200000</ele>
                <time>1970-01-01T03:38:36Z</time>
            </trkpt>
            <trkpt lon="101.393482" lat="14.145461">
                <ele>101.100000</ele>
                <time>1970-01-01T03:38:38Z</time>
            </trkpt>
            <trkpt lon="101.393504" lat="14.145442">
                <ele>101.000000</ele>
                <time>1970-01-01T03:38:39Z</time>
            </trkpt>
            <trkpt lon="101.393546" lat="14.145418">
                <ele>100.800000</ele>
                <time>1970-01-01T03:38:41Z</time>
            </trkpt>
            <trkpt lon="101.393584" lat="14.145417">
                <ele>100.600000</ele>
                <time>1970-01-01T03:38:43Z</time>
            </trkpt>
            <trkpt lon="101.393625" lat="14.145422">
                <ele>100.400000</ele>
                <time>1970-01-01T03:38:45Z</time>
            </trkpt>
            <trkpt lon="101.393670" lat="14.145422">
                <ele>100.000000</ele>
                <time>1970-01-01T03:38:47Z</time>
            </trkpt>
            <trkpt lon="101.393706" lat="14.145409">
                <ele>99.600000</ele>
                <time>1970-01-01T03:38:50Z</time>
            </trkpt>
            <trkpt lon="101.393736" lat="14.145390">
                <ele>99.300000</ele>
                <time>1970-01-01T03:38:52Z</time>
            </trkpt>
            <trkpt lon="101.393794" lat="14.145378">
                <ele>98.800000</ele>
                <time>1970-01-01T03:38:54Z</time>
            </trkpt>
            <trkpt lon="101.393843" lat="14.145367">
                <ele>98.400000</ele>
                <time>1970-01-01T03:38:56Z</time>
            </trkpt>
            <trkpt lon="101.393881" lat="14.145354">
                <ele>98.100000</ele>
                <time>1970-01-01T03:38:58Z</time>
            </trkpt>
            <trkpt lon="101.393930" lat="14.145348">
                <ele>97.900000</ele>
                <time>1970-01-01T03:39:00Z</time>
            </trkpt>
            <trkpt lon="101.393980" lat="14.145351">
                <ele>97.800000</ele>
                <time>1970-01-01T03:39:02Z</time>
            </trkpt>
            <trkpt lon="101.394033" lat="14.145361">
                <ele>97.700000</ele>
                <time>1970-01-01T03:39:04Z</time>
            </trkpt>
            <trkpt lon="101.394073" lat="14.145360">
                <ele>97.700000</ele>
                <time>1970-01-01T03:39:06Z</time>
            </trkpt>
            <trkpt lon="101.394101" lat="14.145351">
                <ele>97.700000</ele>
                <time>1970-01-01T03:39:07Z</time>
            </trkpt>
            <trkpt lon="101.394127" lat="14.145337">
                <ele>97.600000</ele>
                <time>1970-01-01T03:39:08Z</time>
            </trkpt>
            <trkpt lon="101.394164" lat="14.145318">
                <ele>97.600000</ele>
                <time>1970-01-01T03:39:10Z</time>
            </trkpt>
            <trkpt lon="101.394206" lat="14.145310">
                <ele>97.500000</ele>
                <time>1970-01-01T03:39:13Z</time>
            </trkpt>
            <trkpt lon="101.394249" lat="14.145293">
                <ele>97.500000</ele>
                <time>1970-01-01T03:39:15Z</time>
            </trkpt>
            <trkpt lon="101.394300" lat="14.145274">
                <ele>97.500000</ele>
                <time>1970-01-01T03:39:17Z</time>
            </trkpt>
            <trkpt lon="101.394329" lat="14.145262">
                <ele>97.500000</ele>
                <time>1970-01-01T03:39:18Z</time>
            </trkpt>
            <trkpt lon="101.394355" lat="14.145250">
                <ele>97.500000</ele>
                <time>1970-01-01T03:39:19Z</time>
            </trkpt>
            <trkpt lon="101.394385" lat="14.145244">
                <ele>97.500000</ele>
                <time>1970-01-01T03:39:20Z</time>
            </trkpt>
            <trkpt lon="101.394415" lat="14.145241">
                <ele>97.500000</ele>
                <time>1970-01-01T03:39:21Z</time>
            </trkpt>
            <trkpt lon="101.394466" lat="14.145245">
                <ele>97.500000</ele>
                <time>1970-01-01T03:39:23Z</time>
            </trkpt>
            <trkpt lon="101.394503" lat="14.145253">
                <ele>97.500000</ele>
                <time>1970-01-01T03:39:25Z</time>
            </trkpt>
            <trkpt lon="101.394546" lat="14.145255">
                <ele>97.500000</ele>
                <time>1970-01-01T03:39:27Z</time>
            </trkpt>
            <trkpt lon="101.394587" lat="14.145255">
                <ele>97.500000</ele>
                <time>1970-01-01T03:39:29Z</time>
            </trkpt>
            <trkpt lon="101.394634" lat="14.145245">
                <ele>97.500000</ele>
                <time>1970-01-01T03:39:31Z</time>
            </trkpt>
            <trkpt lon="101.394682" lat="14.145236">
                <ele>97.500000</ele>
                <time>1970-01-01T03:39:33Z</time>
            </trkpt>
            <trkpt lon="101.394735" lat="14.145239">
                <ele>97.500000</ele>
                <time>1970-01-01T03:39:35Z</time>
            </trkpt>
            <trkpt lon="101.394769" lat="14.145242">
                <ele>97.500000</ele>
                <time>1970-01-01T03:39:36Z</time>
            </trkpt>
            <trkpt lon="101.394798" lat="14.145243">
                <ele>97.500000</ele>
                <time>1970-01-01T03:39:37Z</time>
            </trkpt>
            <trkpt lon="101.394852" lat="14.145241">
                <ele>97.500000</ele>
                <time>1970-01-01T03:39:39Z</time>
            </trkpt>
            <trkpt lon="101.394886" lat="14.145242">
                <ele>97.500000</ele>
                <time>1970-01-01T03:39:40Z</time>
            </trkpt>
            <trkpt lon="101.394925" lat="14.145245">
                <ele>97.500000</ele>
                <time>1970-01-01T03:39:41Z</time>
            </trkpt>
            <trkpt lon="101.394963" lat="14.145249">
                <ele>97.500000</ele>
                <time>1970-01-01T03:39:42Z</time>
            </trkpt>
            <trkpt lon="101.394999" lat="14.145256">
                <ele>97.500000</ele>
                <time>1970-01-01T03:39:43Z</time>
            </trkpt>
            <trkpt lon="101.395034" lat="14.145260">
                <ele>97.500000</ele>
                <time>1970-01-01T03:39:44Z</time>
            </trkpt>
            <trkpt lon="101.395083" lat="14.145258">
                <ele>97.500000</ele>
                <time>1970-01-01T03:39:46Z</time>
            </trkpt>
            <trkpt lon="101.395115" lat="14.145261">
                <ele>97.500000</ele>
                <time>1970-01-01T03:39:47Z</time>
            </trkpt>
            <trkpt lon="101.395149" lat="14.145269">
                <ele>97.500000</ele>
                <time>1970-01-01T03:39:48Z</time>
            </trkpt>
            <trkpt lon="101.395184" lat="14.145284">
                <ele>97.400000</ele>
                <time>1970-01-01T03:39:49Z</time>
            </trkpt>
            <trkpt lon="101.395213" lat="14.145298">
                <ele>97.400000</ele>
                <time>1970-01-01T03:39:50Z</time>
            </trkpt>
            <trkpt lon="101.395238" lat="14.145312">
                <ele>97.400000</ele>
                <time>1970-01-01T03:39:51Z</time>
            </trkpt>
            <trkpt lon="101.395269" lat="14.145331">
                <ele>97.400000</ele>
                <time>1970-01-01T03:39:52Z</time>
            </trkpt>
            <trkpt lon="101.395304" lat="14.145352">
                <ele>97.400000</ele>
                <time>1970-01-01T03:39:53Z</time>
            </trkpt>
            <trkpt lon="101.395334" lat="14.145366">
                <ele>97.300000</ele>
                <time>1970-01-01T03:39:54Z</time>
            </trkpt>
            <trkpt lon="101.395367" lat="14.145372">
                <ele>97.300000</ele>
                <time>1970-01-01T03:39:55Z</time>
            </trkpt>
            <trkpt lon="101.395400" lat="14.145373">
                <ele>97.200000</ele>
                <time>1970-01-01T03:39:56Z</time>
            </trkpt>
            <trkpt lon="101.395431" lat="14.145373">
                <ele>97.200000</ele>
                <time>1970-01-01T03:39:57Z</time>
            </trkpt>
            <trkpt lon="101.395484" lat="14.145386">
                <ele>97.100000</ele>
                <time>1970-01-01T03:39:59Z</time>
            </trkpt>
            <trkpt lon="101.395520" lat="14.145401">
                <ele>97.100000</ele>
                <time>1970-01-01T03:40:01Z</time>
            </trkpt>
            <trkpt lon="101.395564" lat="14.145416">
                <ele>96.900000</ele>
                <time>1970-01-01T03:40:03Z</time>
            </trkpt>
            <trkpt lon="101.395596" lat="14.145423">
                <ele>96.800000</ele>
                <time>1970-01-01T03:40:04Z</time>
            </trkpt>
            <trkpt lon="101.395626" lat="14.145430">
                <ele>96.600000</ele>
                <time>1970-01-01T03:40:05Z</time>
            </trkpt>
            <trkpt lon="101.395657" lat="14.145442">
                <ele>96.400000</ele>
                <time>1970-01-01T03:40:06Z</time>
            </trkpt>
            <trkpt lon="101.395686" lat="14.145462">
                <ele>96.200000</ele>
                <time>1970-01-01T03:40:07Z</time>
            </trkpt>
            <trkpt lon="101.395712" lat="14.145486">
                <ele>95.900000</ele>
                <time>1970-01-01T03:40:08Z</time>
            </trkpt>
            <trkpt lon="101.395736" lat="14.145511">
                <ele>95.700000</ele>
                <time>1970-01-01T03:40:09Z</time>
            </trkpt>
            <trkpt lon="101.395759" lat="14.145542">
                <ele>95.400000</ele>
                <time>1970-01-01T03:40:10Z</time>
            </trkpt>
            <trkpt lon="101.395776" lat="14.145576">
                <ele>95.100000</ele>
                <time>1970-01-01T03:40:11Z</time>
            </trkpt>
            <trkpt lon="101.395792" lat="14.145616">
                <ele>94.800000</ele>
                <time>1970-01-01T03:40:13Z</time>
            </trkpt>
            <trkpt lon="101.395798" lat="14.145651">
                <ele>94.500000</ele>
                <time>1970-01-01T03:40:17Z</time>
            </trkpt>
            <trkpt lon="101.395811" lat="14.145681">
                <ele>94.200000</ele>
                <time>1970-01-01T03:40:27Z</time>
            </trkpt>
            <trkpt lon="101.395837" lat="14.145706">
                <ele>93.900000</ele>
                <time>1970-01-01T03:40:30Z</time>
            </trkpt>
            <trkpt lon="101.395867" lat="14.145730">
                <ele>93.700000</ele>
                <time>1970-01-01T03:40:32Z</time>
            </trkpt>
            <trkpt lon="101.395908" lat="14.145750">
                <ele>93.500000</ele>
                <time>1970-01-01T03:40:34Z</time>
            </trkpt>
            <trkpt lon="101.395948" lat="14.145779">
                <ele>93.300000</ele>
                <time>1970-01-01T03:40:36Z</time>
            </trkpt>
            <trkpt lon="101.395973" lat="14.145803">
                <ele>92.700000</ele>
                <time>1970-01-01T03:40:38Z</time>
            </trkpt>
            <trkpt lon="101.396008" lat="14.145804">
                <ele>92.100000</ele>
                <time>1970-01-01T03:40:40Z</time>
            </trkpt>
            <trkpt lon="101.396038" lat="14.145776">
                <ele>92.100000</ele>
                <time>1970-01-01T03:40:42Z</time>
            </trkpt>
            <trkpt lon="101.396076" lat="14.145751">
                <ele>90.700000</ele>
                <time>1970-01-01T03:40:44Z</time>
            </trkpt>
            <trkpt lon="101.396116" lat="14.145724">
                <ele>89.500000</ele>
                <time>1970-01-01T03:40:46Z</time>
            </trkpt>
            <trkpt lon="101.396136" lat="14.145702">
                <ele>88.900000</ele>
                <time>1970-01-01T03:40:47Z</time>
            </trkpt>
            <trkpt lon="101.396178" lat="14.145672">
                <ele>88.000000</ele>
                <time>1970-01-01T03:40:49Z</time>
            </trkpt>
            <trkpt lon="101.396226" lat="14.145656">
                <ele>87.800000</ele>
                <time>1970-01-01T03:40:51Z</time>
            </trkpt>
            <trkpt lon="101.396278" lat="14.145641">
                <ele>86.500000</ele>
                <time>1970-01-01T03:40:53Z</time>
            </trkpt>
            <trkpt lon="101.396318" lat="14.145649">
                <ele>87.300000</ele>
                <time>1970-01-01T03:40:55Z</time>
            </trkpt>
            <trkpt lon="101.396356" lat="14.145662">
                <ele>86.900000</ele>
                <time>1970-01-01T03:40:57Z</time>
            </trkpt>
            <trkpt lon="101.396391" lat="14.145665">
                <ele>86.400000</ele>
                <time>1970-01-01T03:40:59Z</time>
            </trkpt>
            <trkpt lon="101.396433" lat="14.145667">
                <ele>86.000000</ele>
                <time>1970-01-01T03:41:01Z</time>
            </trkpt>
            <trkpt lon="101.396492" lat="14.145674">
                <ele>85.500000</ele>
                <time>1970-01-01T03:41:03Z</time>
            </trkpt>
            <trkpt lon="101.396526" lat="14.145677">
                <ele>85.100000</ele>
                <time>1970-01-01T03:41:04Z</time>
            </trkpt>
            <trkpt lon="101.396556" lat="14.145679">
                <ele>84.900000</ele>
                <time>1970-01-01T03:41:05Z</time>
            </trkpt>
            <trkpt lon="101.396593" lat="14.145682">
                <ele>84.900000</ele>
                <time>1970-01-01T03:41:07Z</time>
            </trkpt>
            <trkpt lon="101.396624" lat="14.145690">
                <ele>85.800000</ele>
                <time>1970-01-01T03:41:16Z</time>
            </trkpt>
            <trkpt lon="101.396661" lat="14.145690">
                <ele>85.600000</ele>
                <time>1970-01-01T03:41:20Z</time>
            </trkpt>
            <trkpt lon="101.396709" lat="14.145693">
                <ele>85.500000</ele>
                <time>1970-01-01T03:41:23Z</time>
            </trkpt>
            <trkpt lon="101.396751" lat="14.145679">
                <ele>84.300000</ele>
                <time>1970-01-01T03:41:25Z</time>
            </trkpt>
            <trkpt lon="101.396782" lat="14.145653">
                <ele>84.300000</ele>
                <time>1970-01-01T03:41:27Z</time>
            </trkpt>
            <trkpt lon="101.396820" lat="14.145632">
                <ele>83.400000</ele>
                <time>1970-01-01T03:41:29Z</time>
            </trkpt>
            <trkpt lon="101.396851" lat="14.145611">
                <ele>83.400000</ele>
                <time>1970-01-01T03:41:31Z</time>
            </trkpt>
            <trkpt lon="101.396883" lat="14.145590">
                <ele>82.900000</ele>
                <time>1970-01-01T03:41:33Z</time>
            </trkpt>
            <trkpt lon="101.396934" lat="14.145572">
                <ele>83.400000</ele>
                <time>1970-01-01T03:41:35Z</time>
            </trkpt>
            <trkpt lon="101.396980" lat="14.145564">
                <ele>83.200000</ele>
                <time>1970-01-01T03:41:37Z</time>
            </trkpt>
            <trkpt lon="101.397021" lat="14.145559">
                <ele>83.700000</ele>
                <time>1970-01-01T03:41:39Z</time>
            </trkpt>
            <trkpt lon="101.397057" lat="14.145559">
                <ele>84.000000</ele>
                <time>1970-01-01T03:41:41Z</time>
            </trkpt>
            <trkpt lon="101.397092" lat="14.145557">
                <ele>84.200000</ele>
                <time>1970-01-01T03:41:43Z</time>
            </trkpt>
            <trkpt lon="101.397118" lat="14.145549">
                <ele>84.500000</ele>
                <time>1970-01-01T03:41:45Z</time>
            </trkpt>
            <trkpt lon="101.397154" lat="14.145543">
                <ele>84.500000</ele>
                <time>1970-01-01T03:41:47Z</time>
            </trkpt>
            <trkpt lon="101.397206" lat="14.145549">
                <ele>85.000000</ele>
                <time>1970-01-01T03:41:49Z</time>
            </trkpt>
            <trkpt lon="101.397250" lat="14.145565">
                <ele>86.000000</ele>
                <time>1970-01-01T03:41:51Z</time>
            </trkpt>
            <trkpt lon="101.397277" lat="14.145591">
                <ele>86.000000</ele>
                <time>1970-01-01T03:41:54Z</time>
            </trkpt>
            <trkpt lon="101.397299" lat="14.145613">
                <ele>86.900000</ele>
                <time>1970-01-01T03:41:56Z</time>
            </trkpt>
            <trkpt lon="101.397334" lat="14.145639">
                <ele>87.200000</ele>
                <time>1970-01-01T03:41:58Z</time>
            </trkpt>
            <trkpt lon="101.397359" lat="14.145653">
                <ele>87.900000</ele>
                <time>1970-01-01T03:41:59Z</time>
            </trkpt>
            <trkpt lon="101.397387" lat="14.145666">
                <ele>88.000000</ele>
                <time>1970-01-01T03:42:00Z</time>
            </trkpt>
            <trkpt lon="101.397414" lat="14.145683">
                <ele>88.000000</ele>
                <time>1970-01-01T03:42:01Z</time>
            </trkpt>
            <trkpt lon="101.397439" lat="14.145701">
                <ele>88.600000</ele>
                <time>1970-01-01T03:42:02Z</time>
            </trkpt>
            <trkpt lon="101.397461" lat="14.145724">
                <ele>88.700000</ele>
                <time>1970-01-01T03:42:03Z</time>
            </trkpt>
            <trkpt lon="101.397483" lat="14.145752">
                <ele>89.300000</ele>
                <time>1970-01-01T03:42:04Z</time>
            </trkpt>
            <trkpt lon="101.397499" lat="14.145780">
                <ele>90.000000</ele>
                <time>1970-01-01T03:42:05Z</time>
            </trkpt>
            <trkpt lon="101.397514" lat="14.145823">
                <ele>90.700000</ele>
                <time>1970-01-01T03:42:07Z</time>
            </trkpt>
            <trkpt lon="101.397534" lat="14.145864">
                <ele>91.000000</ele>
                <time>1970-01-01T03:42:09Z</time>
            </trkpt>
            <trkpt lon="101.397573" lat="14.145893">
                <ele>91.000000</ele>
                <time>1970-01-01T03:42:11Z</time>
            </trkpt>
            <trkpt lon="101.397617" lat="14.145899">
                <ele>90.900000</ele>
                <time>1970-01-01T03:42:13Z</time>
            </trkpt>
            <trkpt lon="101.397664" lat="14.145895">
                <ele>90.400000</ele>
                <time>1970-01-01T03:42:15Z</time>
            </trkpt>
            <trkpt lon="101.397692" lat="14.145895">
                <ele>90.200000</ele>
                <time>1970-01-01T03:42:16Z</time>
            </trkpt>
            <trkpt lon="101.397720" lat="14.145897">
                <ele>89.900000</ele>
                <time>1970-01-01T03:42:17Z</time>
            </trkpt>
            <trkpt lon="101.397751" lat="14.145902">
                <ele>90.100000</ele>
                <time>1970-01-01T03:42:18Z</time>
            </trkpt>
            <trkpt lon="101.397779" lat="14.145906">
                <ele>89.700000</ele>
                <time>1970-01-01T03:42:19Z</time>
            </trkpt>
            <trkpt lon="101.397832" lat="14.145912">
                <ele>89.300000</ele>
                <time>1970-01-01T03:42:21Z</time>
            </trkpt>
            <trkpt lon="101.397886" lat="14.145922">
                <ele>88.900000</ele>
                <time>1970-01-01T03:42:23Z</time>
            </trkpt>
            <trkpt lon="101.397942" lat="14.145933">
                <ele>88.200000</ele>
                <time>1970-01-01T03:42:25Z</time>
            </trkpt>
            <trkpt lon="101.397972" lat="14.145940">
                <ele>88.300000</ele>
                <time>1970-01-01T03:42:26Z</time>
            </trkpt>
            <trkpt lon="101.398000" lat="14.145947">
                <ele>88.000000</ele>
                <time>1970-01-01T03:42:27Z</time>
            </trkpt>
            <trkpt lon="101.398029" lat="14.145954">
                <ele>87.600000</ele>
                <time>1970-01-01T03:42:28Z</time>
            </trkpt>
            <trkpt lon="101.398057" lat="14.145962">
                <ele>87.600000</ele>
                <time>1970-01-01T03:42:29Z</time>
            </trkpt>
            <trkpt lon="101.398084" lat="14.145969">
                <ele>87.400000</ele>
                <time>1970-01-01T03:42:30Z</time>
            </trkpt>
            <trkpt lon="101.398114" lat="14.145979">
                <ele>87.100000</ele>
                <time>1970-01-01T03:42:31Z</time>
            </trkpt>
            <trkpt lon="101.398144" lat="14.145989">
                <ele>87.000000</ele>
                <time>1970-01-01T03:42:32Z</time>
            </trkpt>
            <trkpt lon="101.398196" lat="14.146004">
                <ele>86.800000</ele>
                <time>1970-01-01T03:42:34Z</time>
            </trkpt>
            <trkpt lon="101.398229" lat="14.146011">
                <ele>86.800000</ele>
                <time>1970-01-01T03:42:35Z</time>
            </trkpt>
            <trkpt lon="101.398267" lat="14.146019">
                <ele>86.600000</ele>
                <time>1970-01-01T03:42:36Z</time>
            </trkpt>
            <trkpt lon="101.398298" lat="14.146027">
                <ele>86.600000</ele>
                <time>1970-01-01T03:42:37Z</time>
            </trkpt>
            <trkpt lon="101.398345" lat="14.146046">
                <ele>86.600000</ele>
                <time>1970-01-01T03:42:39Z</time>
            </trkpt>
            <trkpt lon="101.398373" lat="14.146055">
                <ele>86.600000</ele>
                <time>1970-01-01T03:42:40Z</time>
            </trkpt>
            <trkpt lon="101.398404" lat="14.146063">
                <ele>86.700000</ele>
                <time>1970-01-01T03:42:41Z</time>
            </trkpt>
            <trkpt lon="101.398436" lat="14.146068">
                <ele>86.700000</ele>
                <time>1970-01-01T03:42:42Z</time>
            </trkpt>
            <trkpt lon="101.398467" lat="14.146072">
                <ele>87.000000</ele>
                <time>1970-01-01T03:42:43Z</time>
            </trkpt>
            <trkpt lon="101.398525" lat="14.146082">
                <ele>87.200000</ele>
                <time>1970-01-01T03:42:45Z</time>
            </trkpt>
            <trkpt lon="101.398557" lat="14.146089">
                <ele>87.500000</ele>
                <time>1970-01-01T03:42:46Z</time>
            </trkpt>
            <trkpt lon="101.398588" lat="14.146098">
                <ele>87.500000</ele>
                <time>1970-01-01T03:42:47Z</time>
            </trkpt>
            <trkpt lon="101.398619" lat="14.146105">
                <ele>87.200000</ele>
                <time>1970-01-01T03:42:48Z</time>
            </trkpt>
            <trkpt lon="101.398649" lat="14.146111">
                <ele>87.200000</ele>
                <time>1970-01-01T03:42:49Z</time>
            </trkpt>
            <trkpt lon="101.398683" lat="14.146117">
                <ele>86.900000</ele>
                <time>1970-01-01T03:42:50Z</time>
            </trkpt>
            <trkpt lon="101.398719" lat="14.146126">
                <ele>86.700000</ele>
                <time>1970-01-01T03:42:51Z</time>
            </trkpt>
            <trkpt lon="101.398753" lat="14.146138">
                <ele>86.500000</ele>
                <time>1970-01-01T03:42:52Z</time>
            </trkpt>
            <trkpt lon="101.398782" lat="14.146150">
                <ele>86.500000</ele>
                <time>1970-01-01T03:42:53Z</time>
            </trkpt>
            <trkpt lon="101.398810" lat="14.146168">
                <ele>86.500000</ele>
                <time>1970-01-01T03:42:54Z</time>
            </trkpt>
            <trkpt lon="101.398833" lat="14.146188">
                <ele>86.500000</ele>
                <time>1970-01-01T03:42:55Z</time>
            </trkpt>
            <trkpt lon="101.398853" lat="14.146211">
                <ele>86.200000</ele>
                <time>1970-01-01T03:42:56Z</time>
            </trkpt>
            <trkpt lon="101.398866" lat="14.146237">
                <ele>85.900000</ele>
                <time>1970-01-01T03:42:57Z</time>
            </trkpt>
            <trkpt lon="101.398880" lat="14.146275">
                <ele>85.700000</ele>
                <time>1970-01-01T03:42:59Z</time>
            </trkpt>
            <trkpt lon="101.398917" lat="14.146293">
                <ele>85.700000</ele>
                <time>1970-01-01T03:43:01Z</time>
            </trkpt>
            <trkpt lon="101.398958" lat="14.146302">
                <ele>85.700000</ele>
                <time>1970-01-01T03:43:03Z</time>
            </trkpt>
            <trkpt lon="101.398976" lat="14.146350">
                <ele>85.400000</ele>
                <time>1970-01-01T03:43:10Z</time>
            </trkpt>
            <trkpt lon="101.398987" lat="14.146380">
                <ele>84.900000</ele>
                <time>1970-01-01T03:43:12Z</time>
            </trkpt>
            <trkpt lon="101.399009" lat="14.146423">
                <ele>84.400000</ele>
                <time>1970-01-01T03:43:14Z</time>
            </trkpt>
            <trkpt lon="101.399042" lat="14.146447">
                <ele>83.800000</ele>
                <time>1970-01-01T03:43:16Z</time>
            </trkpt>
            <trkpt lon="101.399074" lat="14.146465">
                <ele>83.800000</ele>
                <time>1970-01-01T03:43:18Z</time>
            </trkpt>
            <trkpt lon="101.399113" lat="14.146488">
                <ele>83.300000</ele>
                <time>1970-01-01T03:43:20Z</time>
            </trkpt>
            <trkpt lon="101.399142" lat="14.146511">
                <ele>83.300000</ele>
                <time>1970-01-01T03:43:21Z</time>
            </trkpt>
            <trkpt lon="101.399164" lat="14.146538">
                <ele>82.600000</ele>
                <time>1970-01-01T03:43:22Z</time>
            </trkpt>
            <trkpt lon="101.399181" lat="14.146570">
                <ele>82.100000</ele>
                <time>1970-01-01T03:43:23Z</time>
            </trkpt>
            <trkpt lon="101.399198" lat="14.146602">
                <ele>82.100000</ele>
                <time>1970-01-01T03:43:24Z</time>
            </trkpt>
            <trkpt lon="101.399261" lat="14.146643">
                <ele>81.900000</ele>
                <time>1970-01-01T03:43:25Z</time>
            </trkpt>
            <trkpt lon="101.399287" lat="14.146669">
                <ele>81.400000</ele>
                <time>1970-01-01T03:43:26Z</time>
            </trkpt>
            <trkpt lon="101.399333" lat="14.146705">
                <ele>81.200000</ele>
                <time>1970-01-01T03:43:27Z</time>
            </trkpt>
            <trkpt lon="101.399371" lat="14.146724">
                <ele>81.400000</ele>
                <time>1970-01-01T03:43:28Z</time>
            </trkpt>
            <trkpt lon="101.399407" lat="14.146730">
                <ele>81.100000</ele>
                <time>1970-01-01T03:43:29Z</time>
            </trkpt>
            <trkpt lon="101.399437" lat="14.146740">
                <ele>81.400000</ele>
                <time>1970-01-01T03:43:30Z</time>
            </trkpt>
            <trkpt lon="101.399475" lat="14.146748">
                <ele>81.800000</ele>
                <time>1970-01-01T03:43:31Z</time>
            </trkpt>
            <trkpt lon="101.399515" lat="14.146762">
                <ele>81.700000</ele>
                <time>1970-01-01T03:43:32Z</time>
            </trkpt>
            <trkpt lon="101.399556" lat="14.146770">
                <ele>81.600000</ele>
                <time>1970-01-01T03:43:33Z</time>
            </trkpt>
            <trkpt lon="101.399595" lat="14.146774">
                <ele>81.500000</ele>
                <time>1970-01-01T03:43:34Z</time>
            </trkpt>
            <trkpt lon="101.399634" lat="14.146790">
                <ele>81.400000</ele>
                <time>1970-01-01T03:43:35Z</time>
            </trkpt>
            <trkpt lon="101.399663" lat="14.146791">
                <ele>81.400000</ele>
                <time>1970-01-01T03:43:36Z</time>
            </trkpt>
            <trkpt lon="101.399698" lat="14.146794">
                <ele>81.300000</ele>
                <time>1970-01-01T03:43:37Z</time>
            </trkpt>
            <trkpt lon="101.399727" lat="14.146797">
                <ele>81.200000</ele>
                <time>1970-01-01T03:43:38Z</time>
            </trkpt>
            <trkpt lon="101.399767" lat="14.146807">
                <ele>81.100000</ele>
                <time>1970-01-01T03:43:40Z</time>
            </trkpt>
            <trkpt lon="101.399824" lat="14.146809">
                <ele>81.000000</ele>
                <time>1970-01-01T03:43:42Z</time>
            </trkpt>
            <trkpt lon="101.399861" lat="14.146807">
                <ele>80.900000</ele>
                <time>1970-01-01T03:43:43Z</time>
            </trkpt>
            <trkpt lon="101.399898" lat="14.146806">
                <ele>80.800000</ele>
                <time>1970-01-01T03:43:44Z</time>
            </trkpt>
            <trkpt lon="101.399929" lat="14.146811">
                <ele>80.700000</ele>
                <time>1970-01-01T03:43:45Z</time>
            </trkpt>
            <trkpt lon="101.399960" lat="14.146812">
                <ele>80.700000</ele>
                <time>1970-01-01T03:43:47Z</time>
            </trkpt>
            <trkpt lon="101.399989" lat="14.146808">
                <ele>80.600000</ele>
                <time>1970-01-01T03:43:49Z</time>
            </trkpt>
            <trkpt lon="101.400041" lat="14.146814">
                <ele>80.500000</ele>
                <time>1970-01-01T03:43:51Z</time>
            </trkpt>
            <trkpt lon="101.400070" lat="14.146817">
                <ele>80.300000</ele>
                <time>1970-01-01T03:43:52Z</time>
            </trkpt>
            <trkpt lon="101.400102" lat="14.146816">
                <ele>80.200000</ele>
                <time>1970-01-01T03:43:53Z</time>
            </trkpt>
            <trkpt lon="101.400131" lat="14.146817">
                <ele>80.100000</ele>
                <time>1970-01-01T03:43:54Z</time>
            </trkpt>
            <trkpt lon="101.400181" lat="14.146831">
                <ele>80.000000</ele>
                <time>1970-01-01T03:43:56Z</time>
            </trkpt>
            <trkpt lon="101.400211" lat="14.146837">
                <ele>79.900000</ele>
                <time>1970-01-01T03:43:57Z</time>
            </trkpt>
            <trkpt lon="101.400241" lat="14.146841">
                <ele>79.800000</ele>
                <time>1970-01-01T03:43:58Z</time>
            </trkpt>
            <trkpt lon="101.400274" lat="14.146842">
                <ele>79.700000</ele>
                <time>1970-01-01T03:43:59Z</time>
            </trkpt>
            <trkpt lon="101.400315" lat="14.146844">
                <ele>79.600000</ele>
                <time>1970-01-01T03:44:00Z</time>
            </trkpt>
            <trkpt lon="101.400357" lat="14.146851">
                <ele>79.500000</ele>
                <time>1970-01-01T03:44:01Z</time>
            </trkpt>
            <trkpt lon="101.400398" lat="14.146859">
                <ele>79.400000</ele>
                <time>1970-01-01T03:44:02Z</time>
            </trkpt>
            <trkpt lon="101.400439" lat="14.146869">
                <ele>79.300000</ele>
                <time>1970-01-01T03:44:03Z</time>
            </trkpt>
            <trkpt lon="101.400475" lat="14.146881">
                <ele>79.200000</ele>
                <time>1970-01-01T03:44:04Z</time>
            </trkpt>
            <trkpt lon="101.400518" lat="14.146894">
                <ele>79.000000</ele>
                <time>1970-01-01T03:44:05Z</time>
            </trkpt>
            <trkpt lon="101.400566" lat="14.146909">
                <ele>78.800000</ele>
                <time>1970-01-01T03:44:06Z</time>
            </trkpt>
            <trkpt lon="101.400605" lat="14.146916">
                <ele>78.600000</ele>
                <time>1970-01-01T03:44:07Z</time>
            </trkpt>
            <trkpt lon="101.400636" lat="14.146913">
                <ele>78.500000</ele>
                <time>1970-01-01T03:44:08Z</time>
            </trkpt>
            <trkpt lon="101.400686" lat="14.146896">
                <ele>78.400000</ele>
                <time>1970-01-01T03:44:10Z</time>
            </trkpt>
            <trkpt lon="101.400716" lat="14.146886">
                <ele>78.300000</ele>
                <time>1970-01-01T03:44:13Z</time>
            </trkpt>
            <trkpt lon="101.400759" lat="14.146883">
                <ele>78.200000</ele>
                <time>1970-01-01T03:44:19Z</time>
            </trkpt>
            <trkpt lon="101.400798" lat="14.146869">
                <ele>78.100000</ele>
                <time>1970-01-01T03:44:30Z</time>
            </trkpt>
            <trkpt lon="101.400854" lat="14.146863">
                <ele>77.900000</ele>
                <time>1970-01-01T03:44:32Z</time>
            </trkpt>
            <trkpt lon="101.400895" lat="14.146864">
                <ele>77.800000</ele>
                <time>1970-01-01T03:44:33Z</time>
            </trkpt>
            <trkpt lon="101.400937" lat="14.146863">
                <ele>77.700000</ele>
                <time>1970-01-01T03:44:34Z</time>
            </trkpt>
            <trkpt lon="101.400976" lat="14.146858">
                <ele>77.600000</ele>
                <time>1970-01-01T03:44:35Z</time>
            </trkpt>
            <trkpt lon="101.401014" lat="14.146853">
                <ele>77.500000</ele>
                <time>1970-01-01T03:44:36Z</time>
            </trkpt>
            <trkpt lon="101.401045" lat="14.146849">
                <ele>77.400000</ele>
                <time>1970-01-01T03:44:37Z</time>
            </trkpt>
            <trkpt lon="101.401073" lat="14.146846">
                <ele>77.400000</ele>
                <time>1970-01-01T03:44:38Z</time>
            </trkpt>
            <trkpt lon="101.401121" lat="14.146841">
                <ele>77.200000</ele>
                <time>1970-01-01T03:44:40Z</time>
            </trkpt>
            <trkpt lon="101.401177" lat="14.146826">
                <ele>77.100000</ele>
                <time>1970-01-01T03:44:42Z</time>
            </trkpt>
            <trkpt lon="101.401216" lat="14.146809">
                <ele>76.900000</ele>
                <time>1970-01-01T03:44:43Z</time>
            </trkpt>
            <trkpt lon="101.401255" lat="14.146787">
                <ele>76.800000</ele>
                <time>1970-01-01T03:44:44Z</time>
            </trkpt>
            <trkpt lon="101.401294" lat="14.146767">
                <ele>76.700000</ele>
                <time>1970-01-01T03:44:45Z</time>
            </trkpt>
            <trkpt lon="101.401331" lat="14.146748">
                <ele>76.700000</ele>
                <time>1970-01-01T03:44:46Z</time>
            </trkpt>
            <trkpt lon="101.401375" lat="14.146734">
                <ele>76.600000</ele>
                <time>1970-01-01T03:44:47Z</time>
            </trkpt>
            <trkpt lon="101.401424" lat="14.146724">
                <ele>76.500000</ele>
                <time>1970-01-01T03:44:48Z</time>
            </trkpt>
            <trkpt lon="101.401472" lat="14.146722">
                <ele>76.400000</ele>
                <time>1970-01-01T03:44:49Z</time>
            </trkpt>
            <trkpt lon="101.401555" lat="14.146729">
                <ele>76.200000</ele>
                <time>1970-01-01T03:44:50Z</time>
            </trkpt>
            <trkpt lon="101.401613" lat="14.146738">
                <ele>76.000000</ele>
                <time>1970-01-01T03:44:51Z</time>
            </trkpt>
            <trkpt lon="101.401667" lat="14.146760">
                <ele>75.800000</ele>
                <time>1970-01-01T03:44:52Z</time>
            </trkpt>
            <trkpt lon="101.401721" lat="14.146770">
                <ele>75.600000</ele>
                <time>1970-01-01T03:44:53Z</time>
            </trkpt>
            <trkpt lon="101.401785" lat="14.146779">
                <ele>75.400000</ele>
                <time>1970-01-01T03:44:54Z</time>
            </trkpt>
            <trkpt lon="101.401856" lat="14.146788">
                <ele>75.200000</ele>
                <time>1970-01-01T03:44:55Z</time>
            </trkpt>
            <trkpt lon="101.401922" lat="14.146795">
                <ele>74.900000</ele>
                <time>1970-01-01T03:44:56Z</time>
            </trkpt>
            <trkpt lon="101.401994" lat="14.146807">
                <ele>74.600000</ele>
                <time>1970-01-01T03:44:57Z</time>
            </trkpt>
            <trkpt lon="101.402052" lat="14.146819">
                <ele>74.300000</ele>
                <time>1970-01-01T03:44:58Z</time>
            </trkpt>
            <trkpt lon="101.402110" lat="14.146840">
                <ele>74.100000</ele>
                <time>1970-01-01T03:44:59Z</time>
            </trkpt>
            <trkpt lon="101.402170" lat="14.146865">
                <ele>73.900000</ele>
                <time>1970-01-01T03:45:00Z</time>
            </trkpt>
            <trkpt lon="101.402221" lat="14.146890">
                <ele>73.700000</ele>
                <time>1970-01-01T03:45:01Z</time>
            </trkpt>
            <trkpt lon="101.402270" lat="14.146915">
                <ele>73.600000</ele>
                <time>1970-01-01T03:45:02Z</time>
            </trkpt>
            <trkpt lon="101.402327" lat="14.146936">
                <ele>73.500000</ele>
                <time>1970-01-01T03:45:03Z</time>
            </trkpt>
            <trkpt lon="101.402391" lat="14.146968">
                <ele>73.300000</ele>
                <time>1970-01-01T03:45:04Z</time>
            </trkpt>
            <trkpt lon="101.402456" lat="14.146998">
                <ele>73.100000</ele>
                <time>1970-01-01T03:45:05Z</time>
            </trkpt>
            <trkpt lon="101.402519" lat="14.147024">
                <ele>72.900000</ele>
                <time>1970-01-01T03:45:06Z</time>
            </trkpt>
            <trkpt lon="101.402579" lat="14.147043">
                <ele>72.800000</ele>
                <time>1970-01-01T03:45:07Z</time>
            </trkpt>
            <trkpt lon="101.402639" lat="14.147071">
                <ele>72.700000</ele>
                <time>1970-01-01T03:45:08Z</time>
            </trkpt>
            <trkpt lon="101.402703" lat="14.147092">
                <ele>72.500000</ele>
                <time>1970-01-01T03:45:09Z</time>
            </trkpt>
            <trkpt lon="101.402766" lat="14.147120">
                <ele>72.400000</ele>
                <time>1970-01-01T03:45:10Z</time>
            </trkpt>
            <trkpt lon="101.402824" lat="14.147144">
                <ele>72.300000</ele>
                <time>1970-01-01T03:45:11Z</time>
            </trkpt>
            <trkpt lon="101.402887" lat="14.147167">
                <ele>72.300000</ele>
                <time>1970-01-01T03:45:12Z</time>
            </trkpt>
            <trkpt lon="101.402951" lat="14.147180">
                <ele>72.200000</ele>
                <time>1970-01-01T03:45:13Z</time>
            </trkpt>
            <trkpt lon="101.403017" lat="14.147194">
                <ele>72.000000</ele>
                <time>1970-01-01T03:45:14Z</time>
            </trkpt>
            <trkpt lon="101.403065" lat="14.147215">
                <ele>71.900000</ele>
                <time>1970-01-01T03:45:15Z</time>
            </trkpt>
            <trkpt lon="101.403120" lat="14.147243">
                <ele>71.800000</ele>
                <time>1970-01-01T03:45:16Z</time>
            </trkpt>
            <trkpt lon="101.403158" lat="14.147261">
                <ele>71.800000</ele>
                <time>1970-01-01T03:45:17Z</time>
            </trkpt>
            <trkpt lon="101.403209" lat="14.147282">
                <ele>71.700000</ele>
                <time>1970-01-01T03:45:18Z</time>
            </trkpt>
            <trkpt lon="101.403262" lat="14.147299">
                <ele>71.700000</ele>
                <time>1970-01-01T03:45:19Z</time>
            </trkpt>
            <trkpt lon="101.403318" lat="14.147314">
                <ele>71.600000</ele>
                <time>1970-01-01T03:45:20Z</time>
            </trkpt>
            <trkpt lon="101.403366" lat="14.147338">
                <ele>71.600000</ele>
                <time>1970-01-01T03:45:21Z</time>
            </trkpt>
            <trkpt lon="101.403417" lat="14.147357">
                <ele>71.500000</ele>
                <time>1970-01-01T03:45:22Z</time>
            </trkpt>
            <trkpt lon="101.403470" lat="14.147382">
                <ele>71.500000</ele>
                <time>1970-01-01T03:45:23Z</time>
            </trkpt>
            <trkpt lon="101.403504" lat="14.147416">
                <ele>71.500000</ele>
                <time>1970-01-01T03:45:24Z</time>
            </trkpt>
            <trkpt lon="101.403546" lat="14.147445">
                <ele>71.400000</ele>
                <time>1970-01-01T03:45:25Z</time>
            </trkpt>
            <trkpt lon="101.403594" lat="14.147475">
                <ele>71.400000</ele>
                <time>1970-01-01T03:45:26Z</time>
            </trkpt>
            <trkpt lon="101.403649" lat="14.147494">
                <ele>71.300000</ele>
                <time>1970-01-01T03:45:27Z</time>
            </trkpt>
            <trkpt lon="101.403698" lat="14.147502">
                <ele>71.300000</ele>
                <time>1970-01-01T03:45:28Z</time>
            </trkpt>
            <trkpt lon="101.403751" lat="14.147515">
                <ele>71.300000</ele>
                <time>1970-01-01T03:45:29Z</time>
            </trkpt>
            <trkpt lon="101.403801" lat="14.147519">
                <ele>71.200000</ele>
                <time>1970-01-01T03:45:30Z</time>
            </trkpt>
            <trkpt lon="101.403861" lat="14.147525">
                <ele>71.200000</ele>
                <time>1970-01-01T03:45:31Z</time>
            </trkpt>
            <trkpt lon="101.403908" lat="14.147531">
                <ele>71.100000</ele>
                <time>1970-01-01T03:45:32Z</time>
            </trkpt>
            <trkpt lon="101.403963" lat="14.147531">
                <ele>71.100000</ele>
                <time>1970-01-01T03:45:33Z</time>
            </trkpt>
            <trkpt lon="101.404020" lat="14.147537">
                <ele>71.100000</ele>
                <time>1970-01-01T03:45:34Z</time>
            </trkpt>
            <trkpt lon="101.404064" lat="14.147536">
                <ele>71.000000</ele>
                <time>1970-01-01T03:45:35Z</time>
            </trkpt>
            <trkpt lon="101.404105" lat="14.147528">
                <ele>71.000000</ele>
                <time>1970-01-01T03:45:36Z</time>
            </trkpt>
            <trkpt lon="101.404140" lat="14.147527">
                <ele>70.900000</ele>
                <time>1970-01-01T03:45:37Z</time>
            </trkpt>
            <trkpt lon="101.404173" lat="14.147527">
                <ele>70.900000</ele>
                <time>1970-01-01T03:45:38Z</time>
            </trkpt>
            <trkpt lon="101.404216" lat="14.147537">
                <ele>70.900000</ele>
                <time>1970-01-01T03:45:39Z</time>
            </trkpt>
            <trkpt lon="101.404256" lat="14.147538">
                <ele>70.800000</ele>
                <time>1970-01-01T03:45:40Z</time>
            </trkpt>
            <trkpt lon="101.404304" lat="14.147534">
                <ele>70.700000</ele>
                <time>1970-01-01T03:45:41Z</time>
            </trkpt>
            <trkpt lon="101.404348" lat="14.147531">
                <ele>70.600000</ele>
                <time>1970-01-01T03:45:42Z</time>
            </trkpt>
            <trkpt lon="101.404390" lat="14.147522">
                <ele>70.500000</ele>
                <time>1970-01-01T03:45:43Z</time>
            </trkpt>
            <trkpt lon="101.404427" lat="14.147514">
                <ele>70.400000</ele>
                <time>1970-01-01T03:45:44Z</time>
            </trkpt>
            <trkpt lon="101.404472" lat="14.147507">
                <ele>70.100000</ele>
                <time>1970-01-01T03:45:45Z</time>
            </trkpt>
            <trkpt lon="101.404524" lat="14.147498">
                <ele>69.700000</ele>
                <time>1970-01-01T03:45:46Z</time>
            </trkpt>
            <trkpt lon="101.404572" lat="14.147490">
                <ele>69.200000</ele>
                <time>1970-01-01T03:45:47Z</time>
            </trkpt>
            <trkpt lon="101.404613" lat="14.147488">
                <ele>68.700000</ele>
                <time>1970-01-01T03:45:48Z</time>
            </trkpt>
            <trkpt lon="101.404661" lat="14.147480">
                <ele>68.100000</ele>
                <time>1970-01-01T03:45:49Z</time>
            </trkpt>
            <trkpt lon="101.404705" lat="14.147476">
                <ele>67.400000</ele>
                <time>1970-01-01T03:45:50Z</time>
            </trkpt>
            <trkpt lon="101.404757" lat="14.147473">
                <ele>67.000000</ele>
                <time>1970-01-01T03:45:51Z</time>
            </trkpt>
            <trkpt lon="101.404813" lat="14.147467">
                <ele>67.000000</ele>
                <time>1970-01-01T03:45:52Z</time>
            </trkpt>
            <trkpt lon="101.404860" lat="14.147456">
                <ele>67.000000</ele>
                <time>1970-01-01T03:45:53Z</time>
            </trkpt>
            <trkpt lon="101.404902" lat="14.147445">
                <ele>67.000000</ele>
                <time>1970-01-01T03:45:54Z</time>
            </trkpt>
            <trkpt lon="101.404953" lat="14.147435">
                <ele>67.000000</ele>
                <time>1970-01-01T03:45:55Z</time>
            </trkpt>
            <trkpt lon="101.405003" lat="14.147431">
                <ele>67.000000</ele>
                <time>1970-01-01T03:45:56Z</time>
            </trkpt>
            <trkpt lon="101.405055" lat="14.147424">
                <ele>67.000000</ele>
                <time>1970-01-01T03:45:57Z</time>
            </trkpt>
            <trkpt lon="101.405105" lat="14.147419">
                <ele>67.000000</ele>
                <time>1970-01-01T03:45:58Z</time>
            </trkpt>
            <trkpt lon="101.405156" lat="14.147412">
                <ele>67.000000</ele>
                <time>1970-01-01T03:45:59Z</time>
            </trkpt>
            <trkpt lon="101.405209" lat="14.147402">
                <ele>67.000000</ele>
                <time>1970-01-01T03:46:00Z</time>
            </trkpt>
            <trkpt lon="101.405263" lat="14.147392">
                <ele>67.000000</ele>
                <time>1970-01-01T03:46:01Z</time>
            </trkpt>
            <trkpt lon="101.405308" lat="14.147369">
                <ele>67.000000</ele>
                <time>1970-01-01T03:46:02Z</time>
            </trkpt>
            <trkpt lon="101.405369" lat="14.147366">
                <ele>67.000000</ele>
                <time>1970-01-01T03:46:03Z</time>
            </trkpt>
            <trkpt lon="101.405422" lat="14.147363">
                <ele>66.900000</ele>
                <time>1970-01-01T03:46:04Z</time>
            </trkpt>
            <trkpt lon="101.405481" lat="14.147345">
                <ele>66.900000</ele>
                <time>1970-01-01T03:46:05Z</time>
            </trkpt>
            <trkpt lon="101.405547" lat="14.147336">
                <ele>66.900000</ele>
                <time>1970-01-01T03:46:06Z</time>
            </trkpt>
            <trkpt lon="101.405604" lat="14.147323">
                <ele>66.900000</ele>
                <time>1970-01-01T03:46:07Z</time>
            </trkpt>
            <trkpt lon="101.405670" lat="14.147307">
                <ele>66.800000</ele>
                <time>1970-01-01T03:46:08Z</time>
            </trkpt>
            <trkpt lon="101.405733" lat="14.147304">
                <ele>66.800000</ele>
                <time>1970-01-01T03:46:09Z</time>
            </trkpt>
            <trkpt lon="101.405795" lat="14.147300">
                <ele>66.700000</ele>
                <time>1970-01-01T03:46:10Z</time>
            </trkpt>
            <trkpt lon="101.405866" lat="14.147290">
                <ele>66.500000</ele>
                <time>1970-01-01T03:46:11Z</time>
            </trkpt>
            <trkpt lon="101.405939" lat="14.147280">
                <ele>66.300000</ele>
                <time>1970-01-01T03:46:12Z</time>
            </trkpt>
            <trkpt lon="101.406010" lat="14.147268">
                <ele>65.900000</ele>
                <time>1970-01-01T03:46:13Z</time>
            </trkpt>
            <trkpt lon="101.406078" lat="14.147253">
                <ele>65.500000</ele>
                <time>1970-01-01T03:46:14Z</time>
            </trkpt>
            <trkpt lon="101.406155" lat="14.147246">
                <ele>65.100000</ele>
                <time>1970-01-01T03:46:15Z</time>
            </trkpt>
            <trkpt lon="101.406236" lat="14.147237">
                <ele>65.100000</ele>
                <time>1970-01-01T03:46:16Z</time>
            </trkpt>
            <trkpt lon="101.406314" lat="14.147218">
                <ele>65.100000</ele>
                <time>1970-01-01T03:46:17Z</time>
            </trkpt>
            <trkpt lon="101.406381" lat="14.147204">
                <ele>65.100000</ele>
                <time>1970-01-01T03:46:18Z</time>
            </trkpt>
            <trkpt lon="101.406454" lat="14.147212">
                <ele>65.100000</ele>
                <time>1970-01-01T03:46:19Z</time>
            </trkpt>
            <trkpt lon="101.406498" lat="14.147235">
                <ele>65.100000</ele>
                <time>1970-01-01T03:46:20Z</time>
            </trkpt>
            <trkpt lon="101.406534" lat="14.147249">
                <ele>65.000000</ele>
                <time>1970-01-01T03:46:21Z</time>
            </trkpt>
            <trkpt lon="101.406551" lat="14.147273">
                <ele>65.000000</ele>
                <time>1970-01-01T03:46:22Z</time>
            </trkpt>
            <trkpt lon="101.406554" lat="14.147302">
                <ele>65.000000</ele>
                <time>1970-01-01T03:46:23Z</time>
            </trkpt>
            <trkpt lon="101.406547" lat="14.147353">
                <ele>64.900000</ele>
                <time>1970-01-01T03:46:25Z</time>
            </trkpt>
            <trkpt lon="101.406542" lat="14.147399">
                <ele>64.900000</ele>
                <time>1970-01-01T03:46:27Z</time>
            </trkpt>
            <trkpt lon="101.406532" lat="14.147428">
                <ele>64.800000</ele>
                <time>1970-01-01T03:46:28Z</time>
            </trkpt>
            <trkpt lon="101.406532" lat="14.147456">
                <ele>64.800000</ele>
                <time>1970-01-01T03:46:29Z</time>
            </trkpt>
            <trkpt lon="101.406506" lat="14.147507">
                <ele>64.600000</ele>
                <time>1970-01-01T03:46:31Z</time>
            </trkpt>
            <trkpt lon="101.406493" lat="14.147536">
                <ele>64.500000</ele>
                <time>1970-01-01T03:46:32Z</time>
            </trkpt>
            <trkpt lon="101.406481" lat="14.147567">
                <ele>64.400000</ele>
                <time>1970-01-01T03:46:33Z</time>
            </trkpt>
            <trkpt lon="101.406470" lat="14.147600">
                <ele>64.400000</ele>
                <time>1970-01-01T03:46:34Z</time>
            </trkpt>
            <trkpt lon="101.406457" lat="14.147635">
                <ele>64.300000</ele>
                <time>1970-01-01T03:46:35Z</time>
            </trkpt>
            <trkpt lon="101.406443" lat="14.147669">
                <ele>64.300000</ele>
                <time>1970-01-01T03:46:36Z</time>
            </trkpt>
            <trkpt lon="101.406429" lat="14.147705">
                <ele>64.400000</ele>
                <time>1970-01-01T03:46:37Z</time>
            </trkpt>
            <trkpt lon="101.406415" lat="14.147741">
                <ele>64.500000</ele>
                <time>1970-01-01T03:46:38Z</time>
            </trkpt>
            <trkpt lon="101.406399" lat="14.147779">
                <ele>64.600000</ele>
                <time>1970-01-01T03:46:39Z</time>
            </trkpt>
            <trkpt lon="101.406385" lat="14.147818">
                <ele>64.700000</ele>
                <time>1970-01-01T03:46:40Z</time>
            </trkpt>
            <trkpt lon="101.406370" lat="14.147861">
                <ele>64.900000</ele>
                <time>1970-01-01T03:46:41Z</time>
            </trkpt>
            <trkpt lon="101.406356" lat="14.147903">
                <ele>64.900000</ele>
                <time>1970-01-01T03:46:42Z</time>
            </trkpt>
            <trkpt lon="101.406342" lat="14.147944">
                <ele>65.000000</ele>
                <time>1970-01-01T03:46:43Z</time>
            </trkpt>
            <trkpt lon="101.406329" lat="14.147982">
                <ele>65.000000</ele>
                <time>1970-01-01T03:46:44Z</time>
            </trkpt>
            <trkpt lon="101.406315" lat="14.148023">
                <ele>65.100000</ele>
                <time>1970-01-01T03:46:45Z</time>
            </trkpt>
            <trkpt lon="101.406299" lat="14.148064">
                <ele>65.100000</ele>
                <time>1970-01-01T03:46:46Z</time>
            </trkpt>
            <trkpt lon="101.406282" lat="14.148106">
                <ele>65.100000</ele>
                <time>1970-01-01T03:46:47Z</time>
            </trkpt>
            <trkpt lon="101.406261" lat="14.148145">
                <ele>65.100000</ele>
                <time>1970-01-01T03:46:48Z</time>
            </trkpt>
            <trkpt lon="101.406240" lat="14.148182">
                <ele>65.100000</ele>
                <time>1970-01-01T03:46:49Z</time>
            </trkpt>
            <trkpt lon="101.406221" lat="14.148219">
                <ele>65.100000</ele>
                <time>1970-01-01T03:46:50Z</time>
            </trkpt>
            <trkpt lon="101.406208" lat="14.148257">
                <ele>65.100000</ele>
                <time>1970-01-01T03:46:51Z</time>
            </trkpt>
            <trkpt lon="101.406198" lat="14.148296">
                <ele>65.100000</ele>
                <time>1970-01-01T03:46:52Z</time>
            </trkpt>
            <trkpt lon="101.406188" lat="14.148334">
                <ele>65.100000</ele>
                <time>1970-01-01T03:46:53Z</time>
            </trkpt>
            <trkpt lon="101.406174" lat="14.148372">
                <ele>65.100000</ele>
                <time>1970-01-01T03:46:54Z</time>
            </trkpt>
            <trkpt lon="101.406157" lat="14.148410">
                <ele>65.100000</ele>
                <time>1970-01-01T03:46:55Z</time>
            </trkpt>
            <trkpt lon="101.406148" lat="14.148449">
                <ele>65.100000</ele>
                <time>1970-01-01T03:46:56Z</time>
            </trkpt>
            <trkpt lon="101.406135" lat="14.148497">
                <ele>65.000000</ele>
                <time>1970-01-01T03:46:57Z</time>
            </trkpt>
            <trkpt lon="101.406120" lat="14.148540">
                <ele>65.000000</ele>
                <time>1970-01-01T03:46:58Z</time>
            </trkpt>
            <trkpt lon="101.406098" lat="14.148583">
                <ele>65.000000</ele>
                <time>1970-01-01T03:46:59Z</time>
            </trkpt>
            <trkpt lon="101.406080" lat="14.148630">
                <ele>64.900000</ele>
                <time>1970-01-01T03:47:00Z</time>
            </trkpt>
            <trkpt lon="101.406062" lat="14.148678">
                <ele>64.800000</ele>
                <time>1970-01-01T03:47:01Z</time>
            </trkpt>
            <trkpt lon="101.406048" lat="14.148727">
                <ele>64.600000</ele>
                <time>1970-01-01T03:47:02Z</time>
            </trkpt>
            <trkpt lon="101.406034" lat="14.148772">
                <ele>64.400000</ele>
                <time>1970-01-01T03:47:03Z</time>
            </trkpt>
            <trkpt lon="101.406016" lat="14.148820">
                <ele>64.300000</ele>
                <time>1970-01-01T03:47:04Z</time>
            </trkpt>
            <trkpt lon="101.406000" lat="14.148876">
                <ele>64.100000</ele>
                <time>1970-01-01T03:47:05Z</time>
            </trkpt>
            <trkpt lon="101.405978" lat="14.148921">
                <ele>63.900000</ele>
                <time>1970-01-01T03:47:06Z</time>
            </trkpt>
            <trkpt lon="101.405960" lat="14.148970">
                <ele>63.900000</ele>
                <time>1970-01-01T03:47:07Z</time>
            </trkpt>
            <trkpt lon="101.405940" lat="14.149018">
                <ele>63.800000</ele>
                <time>1970-01-01T03:47:08Z</time>
            </trkpt>
            <trkpt lon="101.405917" lat="14.149062">
                <ele>63.800000</ele>
                <time>1970-01-01T03:47:09Z</time>
            </trkpt>
            <trkpt lon="101.405901" lat="14.149110">
                <ele>63.900000</ele>
                <time>1970-01-01T03:47:10Z</time>
            </trkpt>
            <trkpt lon="101.405886" lat="14.149158">
                <ele>64.000000</ele>
                <time>1970-01-01T03:47:11Z</time>
            </trkpt>
            <trkpt lon="101.405861" lat="14.149208">
                <ele>64.200000</ele>
                <time>1970-01-01T03:47:12Z</time>
            </trkpt>
            <trkpt lon="101.405838" lat="14.149253">
                <ele>64.400000</ele>
                <time>1970-01-01T03:47:13Z</time>
            </trkpt>
            <trkpt lon="101.405819" lat="14.149302">
                <ele>64.600000</ele>
                <time>1970-01-01T03:47:14Z</time>
            </trkpt>
            <trkpt lon="101.405798" lat="14.149352">
                <ele>64.900000</ele>
                <time>1970-01-01T03:47:15Z</time>
            </trkpt>
            <trkpt lon="101.405779" lat="14.149401">
                <ele>65.100000</ele>
                <time>1970-01-01T03:47:16Z</time>
            </trkpt>
            <trkpt lon="101.405770" lat="14.149457">
                <ele>65.300000</ele>
                <time>1970-01-01T03:47:17Z</time>
            </trkpt>
            <trkpt lon="101.405753" lat="14.149506">
                <ele>65.400000</ele>
                <time>1970-01-01T03:47:18Z</time>
            </trkpt>
            <trkpt lon="101.405730" lat="14.149557">
                <ele>65.400000</ele>
                <time>1970-01-01T03:47:19Z</time>
            </trkpt>
            <trkpt lon="101.405713" lat="14.149606">
                <ele>65.400000</ele>
                <time>1970-01-01T03:47:20Z</time>
            </trkpt>
            <trkpt lon="101.405699" lat="14.149651">
                <ele>65.500000</ele>
                <time>1970-01-01T03:47:21Z</time>
            </trkpt>
            <trkpt lon="101.405679" lat="14.149694">
                <ele>65.500000</ele>
                <time>1970-01-01T03:47:22Z</time>
            </trkpt>
            <trkpt lon="101.405663" lat="14.149736">
                <ele>65.500000</ele>
                <time>1970-01-01T03:47:23Z</time>
            </trkpt>
            <trkpt lon="101.405643" lat="14.149787">
                <ele>65.400000</ele>
                <time>1970-01-01T03:47:24Z</time>
            </trkpt>
            <trkpt lon="101.405624" lat="14.149834">
                <ele>65.400000</ele>
                <time>1970-01-01T03:47:25Z</time>
            </trkpt>
            <trkpt lon="101.405605" lat="14.149878">
                <ele>65.400000</ele>
                <time>1970-01-01T03:47:26Z</time>
            </trkpt>
            <trkpt lon="101.405589" lat="14.149928">
                <ele>65.300000</ele>
                <time>1970-01-01T03:47:27Z</time>
            </trkpt>
            <trkpt lon="101.405568" lat="14.149980">
                <ele>65.200000</ele>
                <time>1970-01-01T03:47:28Z</time>
            </trkpt>
            <trkpt lon="101.405549" lat="14.150025">
                <ele>65.100000</ele>
                <time>1970-01-01T03:47:29Z</time>
            </trkpt>
            <trkpt lon="101.405535" lat="14.150074">
                <ele>64.900000</ele>
                <time>1970-01-01T03:47:30Z</time>
            </trkpt>
            <trkpt lon="101.405517" lat="14.150126">
                <ele>64.600000</ele>
                <time>1970-01-01T03:47:31Z</time>
            </trkpt>
            <trkpt lon="101.405498" lat="14.150176">
                <ele>64.500000</ele>
                <time>1970-01-01T03:47:32Z</time>
            </trkpt>
            <trkpt lon="101.405478" lat="14.150223">
                <ele>64.300000</ele>
                <time>1970-01-01T03:47:33Z</time>
            </trkpt>
            <trkpt lon="101.405459" lat="14.150270">
                <ele>64.200000</ele>
                <time>1970-01-01T03:47:34Z</time>
            </trkpt>
            <trkpt lon="101.405458" lat="14.150307">
                <ele>64.200000</ele>
                <time>1970-01-01T03:47:35Z</time>
            </trkpt>
            <trkpt lon="101.405436" lat="14.150356">
                <ele>64.200000</ele>
                <time>1970-01-01T03:47:36Z</time>
            </trkpt>
            <trkpt lon="101.405414" lat="14.150404">
                <ele>64.400000</ele>
                <time>1970-01-01T03:47:37Z</time>
            </trkpt>
            <trkpt lon="101.405394" lat="14.150456">
                <ele>64.600000</ele>
                <time>1970-01-01T03:47:38Z</time>
            </trkpt>
            <trkpt lon="101.405383" lat="14.150512">
                <ele>64.800000</ele>
                <time>1970-01-01T03:47:39Z</time>
            </trkpt>
            <trkpt lon="101.405370" lat="14.150561">
                <ele>65.100000</ele>
                <time>1970-01-01T03:47:40Z</time>
            </trkpt>
            <trkpt lon="101.405352" lat="14.150618">
                <ele>65.300000</ele>
                <time>1970-01-01T03:47:41Z</time>
            </trkpt>
            <trkpt lon="101.405332" lat="14.150667">
                <ele>65.400000</ele>
                <time>1970-01-01T03:47:42Z</time>
            </trkpt>
            <trkpt lon="101.405304" lat="14.150713">
                <ele>65.500000</ele>
                <time>1970-01-01T03:47:43Z</time>
            </trkpt>
            <trkpt lon="101.405279" lat="14.150770">
                <ele>65.600000</ele>
                <time>1970-01-01T03:47:44Z</time>
            </trkpt>
            <trkpt lon="101.405266" lat="14.150816">
                <ele>65.600000</ele>
                <time>1970-01-01T03:47:45Z</time>
            </trkpt>
            <trkpt lon="101.405245" lat="14.150864">
                <ele>65.600000</ele>
                <time>1970-01-01T03:47:46Z</time>
            </trkpt>
            <trkpt lon="101.405228" lat="14.150913">
                <ele>65.500000</ele>
                <time>1970-01-01T03:47:47Z</time>
            </trkpt>
            <trkpt lon="101.405206" lat="14.150965">
                <ele>65.500000</ele>
                <time>1970-01-01T03:47:48Z</time>
            </trkpt>
            <trkpt lon="101.405197" lat="14.151006">
                <ele>65.500000</ele>
                <time>1970-01-01T03:47:49Z</time>
            </trkpt>
            <trkpt lon="101.405179" lat="14.151053">
                <ele>65.400000</ele>
                <time>1970-01-01T03:47:50Z</time>
            </trkpt>
            <trkpt lon="101.405161" lat="14.151105">
                <ele>65.300000</ele>
                <time>1970-01-01T03:47:51Z</time>
            </trkpt>
            <trkpt lon="101.405139" lat="14.151164">
                <ele>65.000000</ele>
                <time>1970-01-01T03:47:52Z</time>
            </trkpt>
            <trkpt lon="101.405118" lat="14.151218">
                <ele>64.800000</ele>
                <time>1970-01-01T03:47:53Z</time>
            </trkpt>
            <trkpt lon="101.405107" lat="14.151270">
                <ele>64.600000</ele>
                <time>1970-01-01T03:47:54Z</time>
            </trkpt>
            <trkpt lon="101.405081" lat="14.151324">
                <ele>64.400000</ele>
                <time>1970-01-01T03:47:55Z</time>
            </trkpt>
            <trkpt lon="101.405055" lat="14.151377">
                <ele>64.200000</ele>
                <time>1970-01-01T03:47:56Z</time>
            </trkpt>
            <trkpt lon="101.405034" lat="14.151429">
                <ele>64.200000</ele>
                <time>1970-01-01T03:47:57Z</time>
            </trkpt>
            <trkpt lon="101.405012" lat="14.151482">
                <ele>64.100000</ele>
                <time>1970-01-01T03:47:58Z</time>
            </trkpt>
            <trkpt lon="101.404985" lat="14.151541">
                <ele>64.100000</ele>
                <time>1970-01-01T03:47:59Z</time>
            </trkpt>
            <trkpt lon="101.404969" lat="14.151593">
                <ele>64.100000</ele>
                <time>1970-01-01T03:48:00Z</time>
            </trkpt>
            <trkpt lon="101.404948" lat="14.151646">
                <ele>64.100000</ele>
                <time>1970-01-01T03:48:01Z</time>
            </trkpt>
            <trkpt lon="101.404930" lat="14.151698">
                <ele>64.100000</ele>
                <time>1970-01-01T03:48:02Z</time>
            </trkpt>
            <trkpt lon="101.404905" lat="14.151751">
                <ele>64.200000</ele>
                <time>1970-01-01T03:48:03Z</time>
            </trkpt>
            <trkpt lon="101.404883" lat="14.151807">
                <ele>64.300000</ele>
                <time>1970-01-01T03:48:04Z</time>
            </trkpt>
            <trkpt lon="101.404861" lat="14.151865">
                <ele>64.400000</ele>
                <time>1970-01-01T03:48:05Z</time>
            </trkpt>
            <trkpt lon="101.404834" lat="14.151918">
                <ele>64.600000</ele>
                <time>1970-01-01T03:48:06Z</time>
            </trkpt>
            <trkpt lon="101.404811" lat="14.151974">
                <ele>64.900000</ele>
                <time>1970-01-01T03:48:07Z</time>
            </trkpt>
            <trkpt lon="101.404786" lat="14.152033">
                <ele>65.200000</ele>
                <time>1970-01-01T03:48:08Z</time>
            </trkpt>
            <trkpt lon="101.404764" lat="14.152085">
                <ele>65.400000</ele>
                <time>1970-01-01T03:48:09Z</time>
            </trkpt>
            <trkpt lon="101.404741" lat="14.152134">
                <ele>65.500000</ele>
                <time>1970-01-01T03:48:10Z</time>
            </trkpt>
            <trkpt lon="101.404721" lat="14.152189">
                <ele>65.400000</ele>
                <time>1970-01-01T03:48:11Z</time>
            </trkpt>
            <trkpt lon="101.404704" lat="14.152242">
                <ele>65.100000</ele>
                <time>1970-01-01T03:48:12Z</time>
            </trkpt>
            <trkpt lon="101.404682" lat="14.152294">
                <ele>64.700000</ele>
                <time>1970-01-01T03:48:13Z</time>
            </trkpt>
            <trkpt lon="101.404662" lat="14.152348">
                <ele>64.300000</ele>
                <time>1970-01-01T03:48:14Z</time>
            </trkpt>
            <trkpt lon="101.404643" lat="14.152403">
                <ele>63.900000</ele>
                <time>1970-01-01T03:48:15Z</time>
            </trkpt>
            <trkpt lon="101.404623" lat="14.152456">
                <ele>63.700000</ele>
                <time>1970-01-01T03:48:16Z</time>
            </trkpt>
            <trkpt lon="101.404607" lat="14.152505">
                <ele>63.600000</ele>
                <time>1970-01-01T03:48:17Z</time>
            </trkpt>
            <trkpt lon="101.404585" lat="14.152559">
                <ele>63.700000</ele>
                <time>1970-01-01T03:48:18Z</time>
            </trkpt>
            <trkpt lon="101.404562" lat="14.152612">
                <ele>63.800000</ele>
                <time>1970-01-01T03:48:19Z</time>
            </trkpt>
            <trkpt lon="101.404537" lat="14.152670">
                <ele>63.900000</ele>
                <time>1970-01-01T03:48:20Z</time>
            </trkpt>
            <trkpt lon="101.404514" lat="14.152726">
                <ele>64.000000</ele>
                <time>1970-01-01T03:48:21Z</time>
            </trkpt>
            <trkpt lon="101.404502" lat="14.152778">
                <ele>64.100000</ele>
                <time>1970-01-01T03:48:22Z</time>
            </trkpt>
            <trkpt lon="101.404485" lat="14.152829">
                <ele>64.200000</ele>
                <time>1970-01-01T03:48:23Z</time>
            </trkpt>
            <trkpt lon="101.404469" lat="14.152884">
                <ele>64.400000</ele>
                <time>1970-01-01T03:48:24Z</time>
            </trkpt>
            <trkpt lon="101.404450" lat="14.152934">
                <ele>64.600000</ele>
                <time>1970-01-01T03:48:25Z</time>
            </trkpt>
            <trkpt lon="101.404425" lat="14.152990">
                <ele>64.800000</ele>
                <time>1970-01-01T03:48:26Z</time>
            </trkpt>
            <trkpt lon="101.404408" lat="14.153049">
                <ele>65.100000</ele>
                <time>1970-01-01T03:48:27Z</time>
            </trkpt>
            <trkpt lon="101.404379" lat="14.153108">
                <ele>65.400000</ele>
                <time>1970-01-01T03:48:28Z</time>
            </trkpt>
            <trkpt lon="101.404374" lat="14.153157">
                <ele>65.600000</ele>
                <time>1970-01-01T03:48:29Z</time>
            </trkpt>
            <trkpt lon="101.404358" lat="14.153202">
                <ele>65.700000</ele>
                <time>1970-01-01T03:48:30Z</time>
            </trkpt>
            <trkpt lon="101.404337" lat="14.153261">
                <ele>65.800000</ele>
                <time>1970-01-01T03:48:31Z</time>
            </trkpt>
            <trkpt lon="101.404306" lat="14.153309">
                <ele>65.800000</ele>
                <time>1970-01-01T03:48:32Z</time>
            </trkpt>
            <trkpt lon="101.404290" lat="14.153354">
                <ele>65.900000</ele>
                <time>1970-01-01T03:48:33Z</time>
            </trkpt>
            <trkpt lon="101.404276" lat="14.153395">
                <ele>65.900000</ele>
                <time>1970-01-01T03:48:34Z</time>
            </trkpt>
            <trkpt lon="101.404269" lat="14.153438">
                <ele>65.800000</ele>
                <time>1970-01-01T03:48:35Z</time>
            </trkpt>
            <trkpt lon="101.404256" lat="14.153484">
                <ele>65.800000</ele>
                <time>1970-01-01T03:48:36Z</time>
            </trkpt>
            <trkpt lon="101.404228" lat="14.153517">
                <ele>65.800000</ele>
                <time>1970-01-01T03:48:37Z</time>
            </trkpt>
            <trkpt lon="101.404194" lat="14.153530">
                <ele>65.700000</ele>
                <time>1970-01-01T03:48:38Z</time>
            </trkpt>
            <trkpt lon="101.404165" lat="14.153524">
                <ele>65.600000</ele>
                <time>1970-01-01T03:48:39Z</time>
            </trkpt>
            <trkpt lon="101.404128" lat="14.153499">
                <ele>65.500000</ele>
                <time>1970-01-01T03:48:41Z</time>
            </trkpt>
            <trkpt lon="101.404103" lat="14.153516">
                <ele>65.400000</ele>
                <time>1970-01-01T03:48:53Z</time>
            </trkpt>
            <trkpt lon="101.404116" lat="14.153546">
                <ele>65.200000</ele>
                <time>1970-01-01T03:49:25Z</time>
            </trkpt>
            <trkpt lon="101.404063" lat="14.153577">
                <ele>64.900000</ele>
                <time>1970-01-01T03:50:06Z</time>
            </trkpt>
            <trkpt lon="101.404099" lat="14.153572">
                <ele>64.800000</ele>
                <time>1970-01-01T03:51:27Z</time>
            </trkpt>
            <trkpt lon="101.404123" lat="14.153545">
                <ele>64.600000</ele>
                <time>1970-01-01T03:58:00Z</time>
            </trkpt>
            <trkpt lon="101.404144" lat="14.153521">
                <ele>64.500000</ele>
                <time>1970-01-01T03:58:02Z</time>
            </trkpt>
            <trkpt lon="101.404178" lat="14.153518">
                <ele>64.400000</ele>
                <time>1970-01-01T03:58:04Z</time>
            </trkpt>
            <trkpt lon="101.404216" lat="14.153547">
                <ele>64.300000</ele>
                <time>1970-01-01T03:58:06Z</time>
            </trkpt>
            <trkpt lon="101.404226" lat="14.153592">
                <ele>64.200000</ele>
                <time>1970-01-01T03:58:08Z</time>
            </trkpt>
            <trkpt lon="101.404214" lat="14.153635">
                <ele>64.200000</ele>
                <time>1970-01-01T03:58:10Z</time>
            </trkpt>
            <trkpt lon="101.404196" lat="14.153668">
                <ele>64.200000</ele>
                <time>1970-01-01T03:58:12Z</time>
            </trkpt>
            <trkpt lon="101.404192" lat="14.153705">
                <ele>64.200000</ele>
                <time>1970-01-01T03:58:14Z</time>
            </trkpt>
            <trkpt lon="101.404189" lat="14.153743">
                <ele>64.200000</ele>
                <time>1970-01-01T03:58:16Z</time>
            </trkpt>
            <trkpt lon="101.404185" lat="14.153785">
                <ele>64.200000</ele>
                <time>1970-01-01T03:58:18Z</time>
            </trkpt>
            <trkpt lon="101.404215" lat="14.153834">
                <ele>64.200000</ele>
                <time>1970-01-01T03:58:20Z</time>
            </trkpt>
            <trkpt lon="101.404248" lat="14.153855">
                <ele>64.200000</ele>
                <time>1970-01-01T03:58:21Z</time>
            </trkpt>
            <trkpt lon="101.404282" lat="14.153868">
                <ele>64.200000</ele>
                <time>1970-01-01T03:58:22Z</time>
            </trkpt>
            <trkpt lon="101.404311" lat="14.153876">
                <ele>64.200000</ele>
                <time>1970-01-01T03:58:23Z</time>
            </trkpt>
            <trkpt lon="101.404339" lat="14.153886">
                <ele>64.200000</ele>
                <time>1970-01-01T03:58:24Z</time>
            </trkpt>
            <trkpt lon="101.404365" lat="14.153902">
                <ele>64.200000</ele>
                <time>1970-01-01T03:58:25Z</time>
            </trkpt>
            <trkpt lon="101.404384" lat="14.153923">
                <ele>64.200000</ele>
                <time>1970-01-01T03:58:26Z</time>
            </trkpt>
            <trkpt lon="101.404398" lat="14.153947">
                <ele>64.200000</ele>
                <time>1970-01-01T03:58:27Z</time>
            </trkpt>
            <trkpt lon="101.404425" lat="14.153986">
                <ele>64.200000</ele>
                <time>1970-01-01T03:58:29Z</time>
            </trkpt>
            <trkpt lon="101.404469" lat="14.154011">
                <ele>64.300000</ele>
                <time>1970-01-01T03:58:31Z</time>
            </trkpt>
            <trkpt lon="101.404520" lat="14.154032">
                <ele>64.400000</ele>
                <time>1970-01-01T03:58:33Z</time>
            </trkpt>
            <trkpt lon="101.404548" lat="14.154041">
                <ele>64.400000</ele>
                <time>1970-01-01T03:58:34Z</time>
            </trkpt>
            <trkpt lon="101.404578" lat="14.154050">
                <ele>64.500000</ele>
                <time>1970-01-01T03:58:35Z</time>
            </trkpt>
            <trkpt lon="101.404607" lat="14.154057">
                <ele>64.600000</ele>
                <time>1970-01-01T03:58:36Z</time>
            </trkpt>
            <trkpt lon="101.404636" lat="14.154065">
                <ele>64.700000</ele>
                <time>1970-01-01T03:58:37Z</time>
            </trkpt>
            <trkpt lon="101.404694" lat="14.154085">
                <ele>65.000000</ele>
                <time>1970-01-01T03:58:39Z</time>
            </trkpt>
            <trkpt lon="101.404722" lat="14.154089">
                <ele>65.200000</ele>
                <time>1970-01-01T03:58:40Z</time>
            </trkpt>
            <trkpt lon="101.404750" lat="14.154099">
                <ele>65.300000</ele>
                <time>1970-01-01T03:58:41Z</time>
            </trkpt>
            <trkpt lon="101.404783" lat="14.154109">
                <ele>65.500000</ele>
                <time>1970-01-01T03:58:42Z</time>
            </trkpt>
            <trkpt lon="101.404819" lat="14.154114">
                <ele>65.600000</ele>
                <time>1970-01-01T03:58:43Z</time>
            </trkpt>
            <trkpt lon="101.404848" lat="14.154126">
                <ele>65.700000</ele>
                <time>1970-01-01T03:58:44Z</time>
            </trkpt>
            <trkpt lon="101.404881" lat="14.154141">
                <ele>65.800000</ele>
                <time>1970-01-01T03:58:45Z</time>
            </trkpt>
            <trkpt lon="101.404916" lat="14.154140">
                <ele>65.800000</ele>
                <time>1970-01-01T03:58:46Z</time>
            </trkpt>
            <trkpt lon="101.404946" lat="14.154144">
                <ele>65.700000</ele>
                <time>1970-01-01T03:58:47Z</time>
            </trkpt>
            <trkpt lon="101.404980" lat="14.154153">
                <ele>65.700000</ele>
                <time>1970-01-01T03:58:48Z</time>
            </trkpt>
            <trkpt lon="101.405013" lat="14.154163">
                <ele>65.600000</ele>
                <time>1970-01-01T03:58:49Z</time>
            </trkpt>
            <trkpt lon="101.405047" lat="14.154172">
                <ele>65.600000</ele>
                <time>1970-01-01T03:58:50Z</time>
            </trkpt>
            <trkpt lon="101.405080" lat="14.154183">
                <ele>65.400000</ele>
                <time>1970-01-01T03:58:51Z</time>
            </trkpt>
            <trkpt lon="101.405113" lat="14.154194">
                <ele>65.300000</ele>
                <time>1970-01-01T03:58:52Z</time>
            </trkpt>
            <trkpt lon="101.405147" lat="14.154205">
                <ele>65.100000</ele>
                <time>1970-01-01T03:58:53Z</time>
            </trkpt>
            <trkpt lon="101.405181" lat="14.154214">
                <ele>65.000000</ele>
                <time>1970-01-01T03:58:54Z</time>
            </trkpt>
            <trkpt lon="101.405214" lat="14.154222">
                <ele>64.900000</ele>
                <time>1970-01-01T03:58:55Z</time>
            </trkpt>
            <trkpt lon="101.405246" lat="14.154229">
                <ele>64.800000</ele>
                <time>1970-01-01T03:58:56Z</time>
            </trkpt>
            <trkpt lon="101.405278" lat="14.154235">
                <ele>64.800000</ele>
                <time>1970-01-01T03:58:57Z</time>
            </trkpt>
            <trkpt lon="101.405314" lat="14.154243">
                <ele>64.800000</ele>
                <time>1970-01-01T03:58:58Z</time>
            </trkpt>
            <trkpt lon="101.405352" lat="14.154255">
                <ele>64.800000</ele>
                <time>1970-01-01T03:58:59Z</time>
            </trkpt>
            <trkpt lon="101.405391" lat="14.154267">
                <ele>64.800000</ele>
                <time>1970-01-01T03:59:00Z</time>
            </trkpt>
            <trkpt lon="101.405431" lat="14.154277">
                <ele>64.800000</ele>
                <time>1970-01-01T03:59:01Z</time>
            </trkpt>
            <trkpt lon="101.405473" lat="14.154285">
                <ele>64.800000</ele>
                <time>1970-01-01T03:59:02Z</time>
            </trkpt>
            <trkpt lon="101.405516" lat="14.154294">
                <ele>64.600000</ele>
                <time>1970-01-01T03:59:03Z</time>
            </trkpt>
            <trkpt lon="101.405561" lat="14.154301">
                <ele>64.500000</ele>
                <time>1970-01-01T03:59:04Z</time>
            </trkpt>
            <trkpt lon="101.405604" lat="14.154319">
                <ele>64.300000</ele>
                <time>1970-01-01T03:59:05Z</time>
            </trkpt>
            <trkpt lon="101.405648" lat="14.154335">
                <ele>64.000000</ele>
                <time>1970-01-01T03:59:06Z</time>
            </trkpt>
            <trkpt lon="101.405689" lat="14.154355">
                <ele>63.800000</ele>
                <time>1970-01-01T03:59:07Z</time>
            </trkpt>
            <trkpt lon="101.405736" lat="14.154372">
                <ele>63.500000</ele>
                <time>1970-01-01T03:59:08Z</time>
            </trkpt>
            <trkpt lon="101.405785" lat="14.154378">
                <ele>63.400000</ele>
                <time>1970-01-01T03:59:09Z</time>
            </trkpt>
            <trkpt lon="101.405827" lat="14.154390">
                <ele>63.300000</ele>
                <time>1970-01-01T03:59:10Z</time>
            </trkpt>
            <trkpt lon="101.405872" lat="14.154407">
                <ele>63.300000</ele>
                <time>1970-01-01T03:59:11Z</time>
            </trkpt>
            <trkpt lon="101.405917" lat="14.154414">
                <ele>63.300000</ele>
                <time>1970-01-01T03:59:12Z</time>
            </trkpt>
            <trkpt lon="101.405960" lat="14.154429">
                <ele>63.400000</ele>
                <time>1970-01-01T03:59:13Z</time>
            </trkpt>
            <trkpt lon="101.406009" lat="14.154435">
                <ele>63.500000</ele>
                <time>1970-01-01T03:59:14Z</time>
            </trkpt>
            <trkpt lon="101.406055" lat="14.154448">
                <ele>63.600000</ele>
                <time>1970-01-01T03:59:15Z</time>
            </trkpt>
            <trkpt lon="101.406096" lat="14.154465">
                <ele>63.900000</ele>
                <time>1970-01-01T03:59:16Z</time>
            </trkpt>
            <trkpt lon="101.406137" lat="14.154479">
                <ele>64.100000</ele>
                <time>1970-01-01T03:59:17Z</time>
            </trkpt>
            <trkpt lon="101.406178" lat="14.154496">
                <ele>64.300000</ele>
                <time>1970-01-01T03:59:18Z</time>
            </trkpt>
            <trkpt lon="101.406224" lat="14.154512">
                <ele>64.600000</ele>
                <time>1970-01-01T03:59:19Z</time>
            </trkpt>
            <trkpt lon="101.406268" lat="14.154524">
                <ele>64.900000</ele>
                <time>1970-01-01T03:59:20Z</time>
            </trkpt>
            <trkpt lon="101.406311" lat="14.154538">
                <ele>65.100000</ele>
                <time>1970-01-01T03:59:21Z</time>
            </trkpt>
            <trkpt lon="101.406354" lat="14.154549">
                <ele>65.400000</ele>
                <time>1970-01-01T03:59:22Z</time>
            </trkpt>
            <trkpt lon="101.406399" lat="14.154560">
                <ele>65.600000</ele>
                <time>1970-01-01T03:59:23Z</time>
            </trkpt>
            <trkpt lon="101.406441" lat="14.154569">
                <ele>65.800000</ele>
                <time>1970-01-01T03:59:24Z</time>
            </trkpt>
            <trkpt lon="101.406475" lat="14.154571">
                <ele>66.000000</ele>
                <time>1970-01-01T03:59:25Z</time>
            </trkpt>
            <trkpt lon="101.406518" lat="14.154583">
                <ele>66.200000</ele>
                <time>1970-01-01T03:59:26Z</time>
            </trkpt>
            <trkpt lon="101.406571" lat="14.154597">
                <ele>66.300000</ele>
                <time>1970-01-01T03:59:27Z</time>
            </trkpt>
            <trkpt lon="101.406619" lat="14.154608">
                <ele>66.400000</ele>
                <time>1970-01-01T03:59:28Z</time>
            </trkpt>
            <trkpt lon="101.406667" lat="14.154619">
                <ele>66.400000</ele>
                <time>1970-01-01T03:59:29Z</time>
            </trkpt>
            <trkpt lon="101.406716" lat="14.154634">
                <ele>66.400000</ele>
                <time>1970-01-01T03:59:30Z</time>
            </trkpt>
            <trkpt lon="101.406756" lat="14.154645">
                <ele>66.400000</ele>
                <time>1970-01-01T03:59:31Z</time>
            </trkpt>
            <trkpt lon="101.406805" lat="14.154660">
                <ele>66.300000</ele>
                <time>1970-01-01T03:59:32Z</time>
            </trkpt>
            <trkpt lon="101.406848" lat="14.154676">
                <ele>66.300000</ele>
                <time>1970-01-01T03:59:33Z</time>
            </trkpt>
            <trkpt lon="101.406885" lat="14.154688">
                <ele>66.200000</ele>
                <time>1970-01-01T03:59:34Z</time>
            </trkpt>
            <trkpt lon="101.406932" lat="14.154707">
                <ele>66.200000</ele>
                <time>1970-01-01T03:59:35Z</time>
            </trkpt>
            <trkpt lon="101.406978" lat="14.154722">
                <ele>66.100000</ele>
                <time>1970-01-01T03:59:36Z</time>
            </trkpt>
            <trkpt lon="101.407026" lat="14.154731">
                <ele>66.100000</ele>
                <time>1970-01-01T03:59:37Z</time>
            </trkpt>
            <trkpt lon="101.407074" lat="14.154747">
                <ele>66.200000</ele>
                <time>1970-01-01T03:59:38Z</time>
            </trkpt>
            <trkpt lon="101.407129" lat="14.154756">
                <ele>66.300000</ele>
                <time>1970-01-01T03:59:39Z</time>
            </trkpt>
            <trkpt lon="101.407176" lat="14.154771">
                <ele>66.500000</ele>
                <time>1970-01-01T03:59:40Z</time>
            </trkpt>
            <trkpt lon="101.407222" lat="14.154794">
                <ele>66.600000</ele>
                <time>1970-01-01T03:59:41Z</time>
            </trkpt>
            <trkpt lon="101.407270" lat="14.154810">
                <ele>66.700000</ele>
                <time>1970-01-01T03:59:42Z</time>
            </trkpt>
            <trkpt lon="101.407315" lat="14.154828">
                <ele>66.700000</ele>
                <time>1970-01-01T03:59:43Z</time>
            </trkpt>
            <trkpt lon="101.407363" lat="14.154842">
                <ele>66.800000</ele>
                <time>1970-01-01T03:59:44Z</time>
            </trkpt>
            <trkpt lon="101.407413" lat="14.154846">
                <ele>66.800000</ele>
                <time>1970-01-01T03:59:45Z</time>
            </trkpt>
            <trkpt lon="101.407461" lat="14.154857">
                <ele>66.700000</ele>
                <time>1970-01-01T03:59:46Z</time>
            </trkpt>
            <trkpt lon="101.407509" lat="14.154871">
                <ele>66.600000</ele>
                <time>1970-01-01T03:59:47Z</time>
            </trkpt>
            <trkpt lon="101.407563" lat="14.154881">
                <ele>66.500000</ele>
                <time>1970-01-01T03:59:48Z</time>
            </trkpt>
            <trkpt lon="101.407612" lat="14.154904">
                <ele>66.400000</ele>
                <time>1970-01-01T03:59:49Z</time>
            </trkpt>
            <trkpt lon="101.407666" lat="14.154918">
                <ele>66.100000</ele>
                <time>1970-01-01T03:59:50Z</time>
            </trkpt>
            <trkpt lon="101.407717" lat="14.154930">
                <ele>65.700000</ele>
                <time>1970-01-01T03:59:51Z</time>
            </trkpt>
            <trkpt lon="101.407765" lat="14.154948">
                <ele>65.500000</ele>
                <time>1970-01-01T03:59:52Z</time>
            </trkpt>
            <trkpt lon="101.407815" lat="14.154971">
                <ele>65.200000</ele>
                <time>1970-01-01T03:59:53Z</time>
            </trkpt>
            <trkpt lon="101.407869" lat="14.154984">
                <ele>64.900000</ele>
                <time>1970-01-01T03:59:54Z</time>
            </trkpt>
            <trkpt lon="101.407927" lat="14.154997">
                <ele>64.700000</ele>
                <time>1970-01-01T03:59:55Z</time>
            </trkpt>
            <trkpt lon="101.407980" lat="14.155013">
                <ele>64.800000</ele>
                <time>1970-01-01T03:59:56Z</time>
            </trkpt>
            <trkpt lon="101.408033" lat="14.155031">
                <ele>65.000000</ele>
                <time>1970-01-01T03:59:57Z</time>
            </trkpt>
            <trkpt lon="101.408086" lat="14.155048">
                <ele>65.300000</ele>
                <time>1970-01-01T03:59:58Z</time>
            </trkpt>
            <trkpt lon="101.408140" lat="14.155061">
                <ele>65.700000</ele>
                <time>1970-01-01T03:59:59Z</time>
            </trkpt>
            <trkpt lon="101.408200" lat="14.155077">
                <ele>66.100000</ele>
                <time>1970-01-01T04:00:00Z</time>
            </trkpt>
            <trkpt lon="101.408254" lat="14.155099">
                <ele>66.400000</ele>
                <time>1970-01-01T04:00:01Z</time>
            </trkpt>
            <trkpt lon="101.408308" lat="14.155110">
                <ele>66.600000</ele>
                <time>1970-01-01T04:00:02Z</time>
            </trkpt>
            <trkpt lon="101.408361" lat="14.155120">
                <ele>66.600000</ele>
                <time>1970-01-01T04:00:03Z</time>
            </trkpt>
            <trkpt lon="101.408413" lat="14.155131">
                <ele>66.400000</ele>
                <time>1970-01-01T04:00:04Z</time>
            </trkpt>
            <trkpt lon="101.408462" lat="14.155141">
                <ele>66.300000</ele>
                <time>1970-01-01T04:00:05Z</time>
            </trkpt>
            <trkpt lon="101.408517" lat="14.155154">
                <ele>66.100000</ele>
                <time>1970-01-01T04:00:06Z</time>
            </trkpt>
            <trkpt lon="101.408563" lat="14.155162">
                <ele>66.000000</ele>
                <time>1970-01-01T04:00:07Z</time>
            </trkpt>
            <trkpt lon="101.408621" lat="14.155181">
                <ele>65.900000</ele>
                <time>1970-01-01T04:00:08Z</time>
            </trkpt>
            <trkpt lon="101.408676" lat="14.155192">
                <ele>65.800000</ele>
                <time>1970-01-01T04:00:09Z</time>
            </trkpt>
            <trkpt lon="101.408724" lat="14.155203">
                <ele>65.800000</ele>
                <time>1970-01-01T04:00:10Z</time>
            </trkpt>
            <trkpt lon="101.408769" lat="14.155216">
                <ele>65.800000</ele>
                <time>1970-01-01T04:00:11Z</time>
            </trkpt>
            <trkpt lon="101.408815" lat="14.155224">
                <ele>65.800000</ele>
                <time>1970-01-01T04:00:12Z</time>
            </trkpt>
            <trkpt lon="101.408863" lat="14.155239">
                <ele>65.800000</ele>
                <time>1970-01-01T04:00:13Z</time>
            </trkpt>
            <trkpt lon="101.408913" lat="14.155250">
                <ele>65.900000</ele>
                <time>1970-01-01T04:00:14Z</time>
            </trkpt>
            <trkpt lon="101.408947" lat="14.155276">
                <ele>65.900000</ele>
                <time>1970-01-01T04:00:15Z</time>
            </trkpt>
            <trkpt lon="101.408995" lat="14.155287">
                <ele>66.000000</ele>
                <time>1970-01-01T04:00:16Z</time>
            </trkpt>
            <trkpt lon="101.409033" lat="14.155290">
                <ele>66.100000</ele>
                <time>1970-01-01T04:00:17Z</time>
            </trkpt>
            <trkpt lon="101.409065" lat="14.155285">
                <ele>66.100000</ele>
                <time>1970-01-01T04:00:18Z</time>
            </trkpt>
            <trkpt lon="101.409103" lat="14.155279">
                <ele>66.300000</ele>
                <time>1970-01-01T04:00:19Z</time>
            </trkpt>
            <trkpt lon="101.409137" lat="14.155272">
                <ele>66.400000</ele>
                <time>1970-01-01T04:00:20Z</time>
            </trkpt>
            <trkpt lon="101.409178" lat="14.155265">
                <ele>66.600000</ele>
                <time>1970-01-01T04:00:21Z</time>
            </trkpt>
            <trkpt lon="101.409210" lat="14.155273">
                <ele>66.700000</ele>
                <time>1970-01-01T04:00:22Z</time>
            </trkpt>
            <trkpt lon="101.409243" lat="14.155284">
                <ele>66.900000</ele>
                <time>1970-01-01T04:00:23Z</time>
            </trkpt>
            <trkpt lon="101.409279" lat="14.155317">
                <ele>67.100000</ele>
                <time>1970-01-01T04:00:25Z</time>
            </trkpt>
            <trkpt lon="101.409320" lat="14.155355">
                <ele>67.200000</ele>
                <time>1970-01-01T04:00:27Z</time>
            </trkpt>
            <trkpt lon="101.409347" lat="14.155377">
                <ele>67.300000</ele>
                <time>1970-01-01T04:00:28Z</time>
            </trkpt>
            <trkpt lon="101.409376" lat="14.155402">
                <ele>67.300000</ele>
                <time>1970-01-01T04:00:29Z</time>
            </trkpt>
            <trkpt lon="101.409405" lat="14.155428">
                <ele>67.300000</ele>
                <time>1970-01-01T04:00:30Z</time>
            </trkpt>
            <trkpt lon="101.409435" lat="14.155451">
                <ele>67.400000</ele>
                <time>1970-01-01T04:00:31Z</time>
            </trkpt>
            <trkpt lon="101.409465" lat="14.155476">
                <ele>67.400000</ele>
                <time>1970-01-01T04:00:32Z</time>
            </trkpt>
            <trkpt lon="101.409492" lat="14.155503">
                <ele>67.400000</ele>
                <time>1970-01-01T04:00:33Z</time>
            </trkpt>
            <trkpt lon="101.409517" lat="14.155531">
                <ele>67.600000</ele>
                <time>1970-01-01T04:00:34Z</time>
            </trkpt>
            <trkpt lon="101.409541" lat="14.155562">
                <ele>68.100000</ele>
                <time>1970-01-01T04:00:35Z</time>
            </trkpt>
            <trkpt lon="101.409568" lat="14.155593">
                <ele>68.500000</ele>
                <time>1970-01-01T04:00:36Z</time>
            </trkpt>
            <trkpt lon="101.409597" lat="14.155621">
                <ele>68.900000</ele>
                <time>1970-01-01T04:00:37Z</time>
            </trkpt>
            <trkpt lon="101.409624" lat="14.155649">
                <ele>69.400000</ele>
                <time>1970-01-01T04:00:38Z</time>
            </trkpt>
            <trkpt lon="101.409654" lat="14.155679">
                <ele>70.000000</ele>
                <time>1970-01-01T04:00:39Z</time>
            </trkpt>
            <trkpt lon="101.409682" lat="14.155713">
                <ele>70.500000</ele>
                <time>1970-01-01T04:00:40Z</time>
            </trkpt>
            <trkpt lon="101.409710" lat="14.155748">
                <ele>70.900000</ele>
                <time>1970-01-01T04:00:41Z</time>
            </trkpt>
            <trkpt lon="101.409735" lat="14.155781">
                <ele>71.400000</ele>
                <time>1970-01-01T04:00:42Z</time>
            </trkpt>
            <trkpt lon="101.409762" lat="14.155811">
                <ele>71.900000</ele>
                <time>1970-01-01T04:00:43Z</time>
            </trkpt>
            <trkpt lon="101.409791" lat="14.155839">
                <ele>72.200000</ele>
                <time>1970-01-01T04:00:44Z</time>
            </trkpt>
            <trkpt lon="101.409823" lat="14.155864">
                <ele>72.200000</ele>
                <time>1970-01-01T04:00:45Z</time>
            </trkpt>
            <trkpt lon="101.409856" lat="14.155888">
                <ele>72.300000</ele>
                <time>1970-01-01T04:00:46Z</time>
            </trkpt>
            <trkpt lon="101.409888" lat="14.155907">
                <ele>72.400000</ele>
                <time>1970-01-01T04:00:47Z</time>
            </trkpt>
            <trkpt lon="101.409919" lat="14.155924">
                <ele>72.600000</ele>
                <time>1970-01-01T04:00:48Z</time>
            </trkpt>
            <trkpt lon="101.409952" lat="14.155946">
                <ele>72.600000</ele>
                <time>1970-01-01T04:00:49Z</time>
            </trkpt>
            <trkpt lon="101.409983" lat="14.155973">
                <ele>72.600000</ele>
                <time>1970-01-01T04:00:50Z</time>
            </trkpt>
            <trkpt lon="101.410012" lat="14.156003">
                <ele>72.600000</ele>
                <time>1970-01-01T04:00:51Z</time>
            </trkpt>
            <trkpt lon="101.410044" lat="14.156033">
                <ele>72.400000</ele>
                <time>1970-01-01T04:00:52Z</time>
            </trkpt>
            <trkpt lon="101.410076" lat="14.156059">
                <ele>72.500000</ele>
                <time>1970-01-01T04:00:53Z</time>
            </trkpt>
            <trkpt lon="101.410104" lat="14.156079">
                <ele>72.600000</ele>
                <time>1970-01-01T04:00:54Z</time>
            </trkpt>
            <trkpt lon="101.410133" lat="14.156100">
                <ele>72.600000</ele>
                <time>1970-01-01T04:00:55Z</time>
            </trkpt>
            <trkpt lon="101.410161" lat="14.156124">
                <ele>72.500000</ele>
                <time>1970-01-01T04:00:56Z</time>
            </trkpt>
            <trkpt lon="101.410191" lat="14.156150">
                <ele>72.400000</ele>
                <time>1970-01-01T04:00:57Z</time>
            </trkpt>
            <trkpt lon="101.410220" lat="14.156175">
                <ele>72.500000</ele>
                <time>1970-01-01T04:00:58Z</time>
            </trkpt>
            <trkpt lon="101.410249" lat="14.156203">
                <ele>72.600000</ele>
                <time>1970-01-01T04:00:59Z</time>
            </trkpt>
            <trkpt lon="101.410282" lat="14.156232">
                <ele>72.600000</ele>
                <time>1970-01-01T04:01:00Z</time>
            </trkpt>
            <trkpt lon="101.410312" lat="14.156260">
                <ele>72.500000</ele>
                <time>1970-01-01T04:01:01Z</time>
            </trkpt>
            <trkpt lon="101.410336" lat="14.156281">
                <ele>72.500000</ele>
                <time>1970-01-01T04:01:02Z</time>
            </trkpt>
            <trkpt lon="101.410359" lat="14.156305">
                <ele>72.700000</ele>
                <time>1970-01-01T04:01:03Z</time>
            </trkpt>
            <trkpt lon="101.410385" lat="14.156339">
                <ele>72.800000</ele>
                <time>1970-01-01T04:01:04Z</time>
            </trkpt>
            <trkpt lon="101.410411" lat="14.156371">
                <ele>72.700000</ele>
                <time>1970-01-01T04:01:05Z</time>
            </trkpt>
            <trkpt lon="101.410438" lat="14.156402">
                <ele>72.600000</ele>
                <time>1970-01-01T04:01:06Z</time>
            </trkpt>
            <trkpt lon="101.410464" lat="14.156433">
                <ele>72.700000</ele>
                <time>1970-01-01T04:01:07Z</time>
            </trkpt>
            <trkpt lon="101.410489" lat="14.156460">
                <ele>72.800000</ele>
                <time>1970-01-01T04:01:08Z</time>
            </trkpt>
            <trkpt lon="101.410510" lat="14.156486">
                <ele>72.900000</ele>
                <time>1970-01-01T04:01:09Z</time>
            </trkpt>
            <trkpt lon="101.410525" lat="14.156512">
                <ele>73.000000</ele>
                <time>1970-01-01T04:01:10Z</time>
            </trkpt>
            <trkpt lon="101.410543" lat="14.156534">
                <ele>73.100000</ele>
                <time>1970-01-01T04:01:11Z</time>
            </trkpt>
            <trkpt lon="101.410565" lat="14.156553">
                <ele>73.200000</ele>
                <time>1970-01-01T04:01:12Z</time>
            </trkpt>
            <trkpt lon="101.410591" lat="14.156574">
                <ele>73.300000</ele>
                <time>1970-01-01T04:01:13Z</time>
            </trkpt>
            <trkpt lon="101.410615" lat="14.156595">
                <ele>73.400000</ele>
                <time>1970-01-01T04:01:14Z</time>
            </trkpt>
            <trkpt lon="101.410652" lat="14.156628">
                <ele>73.400000</ele>
                <time>1970-01-01T04:01:16Z</time>
            </trkpt>
            <trkpt lon="101.410673" lat="14.156647">
                <ele>73.400000</ele>
                <time>1970-01-01T04:01:17Z</time>
            </trkpt>
            <trkpt lon="101.410695" lat="14.156672">
                <ele>73.400000</ele>
                <time>1970-01-01T04:01:18Z</time>
            </trkpt>
            <trkpt lon="101.410719" lat="14.156703">
                <ele>73.400000</ele>
                <time>1970-01-01T04:01:19Z</time>
            </trkpt>
            <trkpt lon="101.410744" lat="14.156735">
                <ele>73.400000</ele>
                <time>1970-01-01T04:01:20Z</time>
            </trkpt>
            <trkpt lon="101.410773" lat="14.156767">
                <ele>73.400000</ele>
                <time>1970-01-01T04:01:21Z</time>
            </trkpt>
            <trkpt lon="101.410801" lat="14.156795">
                <ele>73.400000</ele>
                <time>1970-01-01T04:01:22Z</time>
            </trkpt>
            <trkpt lon="101.410828" lat="14.156822">
                <ele>73.400000</ele>
                <time>1970-01-01T04:01:23Z</time>
            </trkpt>
            <trkpt lon="101.410859" lat="14.156845">
                <ele>73.500000</ele>
                <time>1970-01-01T04:01:24Z</time>
            </trkpt>
            <trkpt lon="101.410893" lat="14.156871">
                <ele>73.500000</ele>
                <time>1970-01-01T04:01:25Z</time>
            </trkpt>
            <trkpt lon="101.410927" lat="14.156899">
                <ele>73.500000</ele>
                <time>1970-01-01T04:01:26Z</time>
            </trkpt>
            <trkpt lon="101.410951" lat="14.156925">
                <ele>73.500000</ele>
                <time>1970-01-01T04:01:27Z</time>
            </trkpt>
            <trkpt lon="101.410973" lat="14.156949">
                <ele>73.500000</ele>
                <time>1970-01-01T04:01:28Z</time>
            </trkpt>
            <trkpt lon="101.410998" lat="14.156971">
                <ele>73.500000</ele>
                <time>1970-01-01T04:01:29Z</time>
            </trkpt>
            <trkpt lon="101.411032" lat="14.157004">
                <ele>73.700000</ele>
                <time>1970-01-01T04:01:31Z</time>
            </trkpt>
            <trkpt lon="101.411047" lat="14.157030">
                <ele>73.800000</ele>
                <time>1970-01-01T04:01:33Z</time>
            </trkpt>
            <trkpt lon="101.411067" lat="14.157057">
                <ele>73.900000</ele>
                <time>1970-01-01T04:01:37Z</time>
            </trkpt>
            <trkpt lon="101.411101" lat="14.157089">
                <ele>74.100000</ele>
                <time>1970-01-01T04:01:39Z</time>
            </trkpt>
            <trkpt lon="101.411126" lat="14.157111">
                <ele>74.200000</ele>
                <time>1970-01-01T04:01:40Z</time>
            </trkpt>
            <trkpt lon="101.411156" lat="14.157133">
                <ele>74.200000</ele>
                <time>1970-01-01T04:01:41Z</time>
            </trkpt>
            <trkpt lon="101.411191" lat="14.157157">
                <ele>74.200000</ele>
                <time>1970-01-01T04:01:42Z</time>
            </trkpt>
            <trkpt lon="101.411226" lat="14.157183">
                <ele>74.100000</ele>
                <time>1970-01-01T04:01:43Z</time>
            </trkpt>
            <trkpt lon="101.411263" lat="14.157209">
                <ele>74.100000</ele>
                <time>1970-01-01T04:01:44Z</time>
            </trkpt>
            <trkpt lon="101.411298" lat="14.157235">
                <ele>74.200000</ele>
                <time>1970-01-01T04:01:45Z</time>
            </trkpt>
            <trkpt lon="101.411334" lat="14.157264">
                <ele>74.200000</ele>
                <time>1970-01-01T04:01:46Z</time>
            </trkpt>
            <trkpt lon="101.411365" lat="14.157292">
                <ele>74.300000</ele>
                <time>1970-01-01T04:01:47Z</time>
            </trkpt>
            <trkpt lon="101.411396" lat="14.157314">
                <ele>74.500000</ele>
                <time>1970-01-01T04:01:48Z</time>
            </trkpt>
            <trkpt lon="101.411428" lat="14.157330">
                <ele>74.400000</ele>
                <time>1970-01-01T04:01:49Z</time>
            </trkpt>
            <trkpt lon="101.411457" lat="14.157344">
                <ele>74.300000</ele>
                <time>1970-01-01T04:01:50Z</time>
            </trkpt>
            <trkpt lon="101.411482" lat="14.157360">
                <ele>74.200000</ele>
                <time>1970-01-01T04:01:51Z</time>
            </trkpt>
            <trkpt lon="101.411506" lat="14.157383">
                <ele>74.200000</ele>
                <time>1970-01-01T04:01:52Z</time>
            </trkpt>
            <trkpt lon="101.411534" lat="14.157413">
                <ele>74.100000</ele>
                <time>1970-01-01T04:01:53Z</time>
            </trkpt>
            <trkpt lon="101.411572" lat="14.157447">
                <ele>73.600000</ele>
                <time>1970-01-01T04:01:54Z</time>
            </trkpt>
            <trkpt lon="101.411610" lat="14.157463">
                <ele>73.200000</ele>
                <time>1970-01-01T04:01:55Z</time>
            </trkpt>
            <trkpt lon="101.411636" lat="14.157498">
                <ele>73.000000</ele>
                <time>1970-01-01T04:01:56Z</time>
            </trkpt>
            <trkpt lon="101.411670" lat="14.157527">
                <ele>72.600000</ele>
                <time>1970-01-01T04:01:57Z</time>
            </trkpt>
            <trkpt lon="101.411710" lat="14.157576">
                <ele>72.100000</ele>
                <time>1970-01-01T04:01:58Z</time>
            </trkpt>
            <trkpt lon="101.411759" lat="14.157616">
                <ele>71.800000</ele>
                <time>1970-01-01T04:01:59Z</time>
            </trkpt>
            <trkpt lon="101.411802" lat="14.157644">
                <ele>71.600000</ele>
                <time>1970-01-01T04:02:00Z</time>
            </trkpt>
            <trkpt lon="101.411847" lat="14.157675">
                <ele>71.500000</ele>
                <time>1970-01-01T04:02:01Z</time>
            </trkpt>
            <trkpt lon="101.411906" lat="14.157707">
                <ele>71.100000</ele>
                <time>1970-01-01T04:02:02Z</time>
            </trkpt>
            <trkpt lon="101.411960" lat="14.157740">
                <ele>70.700000</ele>
                <time>1970-01-01T04:02:03Z</time>
            </trkpt>
            <trkpt lon="101.412016" lat="14.157784">
                <ele>70.200000</ele>
                <time>1970-01-01T04:02:04Z</time>
            </trkpt>
            <trkpt lon="101.412083" lat="14.157820">
                <ele>69.300000</ele>
                <time>1970-01-01T04:02:05Z</time>
            </trkpt>
            <trkpt lon="101.412142" lat="14.157848">
                <ele>68.700000</ele>
                <time>1970-01-01T04:02:06Z</time>
            </trkpt>
            <trkpt lon="101.412193" lat="14.157878">
                <ele>68.600000</ele>
                <time>1970-01-01T04:02:07Z</time>
            </trkpt>
            <trkpt lon="101.412252" lat="14.157900">
                <ele>68.600000</ele>
                <time>1970-01-01T04:02:08Z</time>
            </trkpt>
            <trkpt lon="101.412311" lat="14.157917">
                <ele>68.600000</ele>
                <time>1970-01-01T04:02:09Z</time>
            </trkpt>
            <trkpt lon="101.412376" lat="14.157938">
                <ele>68.600000</ele>
                <time>1970-01-01T04:02:10Z</time>
            </trkpt>
            <trkpt lon="101.412439" lat="14.157960">
                <ele>68.600000</ele>
                <time>1970-01-01T04:02:11Z</time>
            </trkpt>
            <trkpt lon="101.412497" lat="14.157987">
                <ele>68.600000</ele>
                <time>1970-01-01T04:02:12Z</time>
            </trkpt>
            <trkpt lon="101.412554" lat="14.158011">
                <ele>68.600000</ele>
                <time>1970-01-01T04:02:13Z</time>
            </trkpt>
            <trkpt lon="101.412617" lat="14.158033">
                <ele>68.600000</ele>
                <time>1970-01-01T04:02:14Z</time>
            </trkpt>
            <trkpt lon="101.412677" lat="14.158053">
                <ele>68.600000</ele>
                <time>1970-01-01T04:02:15Z</time>
            </trkpt>
            <trkpt lon="101.412742" lat="14.158077">
                <ele>68.600000</ele>
                <time>1970-01-01T04:02:16Z</time>
            </trkpt>
            <trkpt lon="101.412814" lat="14.158109">
                <ele>68.500000</ele>
                <time>1970-01-01T04:02:17Z</time>
            </trkpt>
            <trkpt lon="101.412887" lat="14.158150">
                <ele>68.500000</ele>
                <time>1970-01-01T04:02:18Z</time>
            </trkpt>
            <trkpt lon="101.412969" lat="14.158201">
                <ele>68.200000</ele>
                <time>1970-01-01T04:02:19Z</time>
            </trkpt>
            <trkpt lon="101.413030" lat="14.158237">
                <ele>67.800000</ele>
                <time>1970-01-01T04:02:20Z</time>
            </trkpt>
            <trkpt lon="101.413077" lat="14.158284">
                <ele>67.400000</ele>
                <time>1970-01-01T04:02:21Z</time>
            </trkpt>
            <trkpt lon="101.413135" lat="14.158330">
                <ele>67.000000</ele>
                <time>1970-01-01T04:02:22Z</time>
            </trkpt>
            <trkpt lon="101.413192" lat="14.158366">
                <ele>66.600000</ele>
                <time>1970-01-01T04:02:23Z</time>
            </trkpt>
            <trkpt lon="101.413243" lat="14.158398">
                <ele>66.000000</ele>
                <time>1970-01-01T04:02:24Z</time>
            </trkpt>
            <trkpt lon="101.413293" lat="14.158398">
                <ele>65.500000</ele>
                <time>1970-01-01T04:02:25Z</time>
            </trkpt>
            <trkpt lon="101.413350" lat="14.158438">
                <ele>64.800000</ele>
                <time>1970-01-01T04:02:26Z</time>
            </trkpt>
            <trkpt lon="101.413404" lat="14.158466">
                <ele>64.700000</ele>
                <time>1970-01-01T04:02:27Z</time>
            </trkpt>
            <trkpt lon="101.413479" lat="14.158473">
                <ele>64.700000</ele>
                <time>1970-01-01T04:02:28Z</time>
            </trkpt>
            <trkpt lon="101.413547" lat="14.158505">
                <ele>64.600000</ele>
                <time>1970-01-01T04:02:29Z</time>
            </trkpt>
            <trkpt lon="101.413620" lat="14.158529">
                <ele>64.400000</ele>
                <time>1970-01-01T04:02:30Z</time>
            </trkpt>
            <trkpt lon="101.413673" lat="14.158535">
                <ele>64.400000</ele>
                <time>1970-01-01T04:02:31Z</time>
            </trkpt>
            <trkpt lon="101.413734" lat="14.158542">
                <ele>64.300000</ele>
                <time>1970-01-01T04:02:32Z</time>
            </trkpt>
            <trkpt lon="101.413774" lat="14.158562">
                <ele>64.100000</ele>
                <time>1970-01-01T04:02:33Z</time>
            </trkpt>
            <trkpt lon="101.413807" lat="14.158579">
                <ele>64.000000</ele>
                <time>1970-01-01T04:02:34Z</time>
            </trkpt>
            <trkpt lon="101.413806" lat="14.158613">
                <ele>64.100000</ele>
                <time>1970-01-01T04:02:35Z</time>
            </trkpt>
            <trkpt lon="101.413810" lat="14.158649">
                <ele>63.900000</ele>
                <time>1970-01-01T04:02:36Z</time>
            </trkpt>
            <trkpt lon="101.413784" lat="14.158666">
                <ele>64.100000</ele>
                <time>1970-01-01T04:02:38Z</time>
            </trkpt>
            <trkpt lon="101.413739" lat="14.158681">
                <ele>64.400000</ele>
                <time>1970-01-01T04:02:40Z</time>
            </trkpt>
            <trkpt lon="101.413698" lat="14.158689">
                <ele>64.600000</ele>
                <time>1970-01-01T04:02:42Z</time>
            </trkpt>
            <trkpt lon="101.413663" lat="14.158688">
                <ele>64.700000</ele>
                <time>1970-01-01T04:02:43Z</time>
            </trkpt>
            <trkpt lon="101.413627" lat="14.158692">
                <ele>64.700000</ele>
                <time>1970-01-01T04:02:44Z</time>
            </trkpt>
            <trkpt lon="101.413592" lat="14.158695">
                <ele>64.700000</ele>
                <time>1970-01-01T04:02:45Z</time>
            </trkpt>
            <trkpt lon="101.413562" lat="14.158702">
                <ele>64.700000</ele>
                <time>1970-01-01T04:02:46Z</time>
            </trkpt>
            <trkpt lon="101.413526" lat="14.158727">
                <ele>64.700000</ele>
                <time>1970-01-01T04:02:48Z</time>
            </trkpt>
            <trkpt lon="101.413495" lat="14.158757">
                <ele>64.900000</ele>
                <time>1970-01-01T04:02:50Z</time>
            </trkpt>
            <trkpt lon="101.413452" lat="14.158790">
                <ele>65.100000</ele>
                <time>1970-01-01T04:02:52Z</time>
            </trkpt>
            <trkpt lon="101.413420" lat="14.158811">
                <ele>65.400000</ele>
                <time>1970-01-01T04:02:53Z</time>
            </trkpt>
            <trkpt lon="101.413392" lat="14.158831">
                <ele>65.400000</ele>
                <time>1970-01-01T04:02:54Z</time>
            </trkpt>
            <trkpt lon="101.413364" lat="14.158849">
                <ele>65.600000</ele>
                <time>1970-01-01T04:02:55Z</time>
            </trkpt>
            <trkpt lon="101.413340" lat="14.158867">
                <ele>65.600000</ele>
                <time>1970-01-01T04:02:56Z</time>
            </trkpt>
            <trkpt lon="101.413309" lat="14.158897">
                <ele>65.900000</ele>
                <time>1970-01-01T04:02:58Z</time>
            </trkpt>
            <trkpt lon="101.413290" lat="14.158928">
                <ele>66.100000</ele>
                <time>1970-01-01T04:03:00Z</time>
            </trkpt>
            <trkpt lon="101.413266" lat="14.158981">
                <ele>66.200000</ele>
                <time>1970-01-01T04:03:02Z</time>
            </trkpt>
            <trkpt lon="101.413255" lat="14.159013">
                <ele>66.300000</ele>
                <time>1970-01-01T04:03:03Z</time>
            </trkpt>
            <trkpt lon="101.413247" lat="14.159063">
                <ele>66.600000</ele>
                <time>1970-01-01T04:03:05Z</time>
            </trkpt>
            <trkpt lon="101.413231" lat="14.159112">
                <ele>66.600000</ele>
                <time>1970-01-01T04:03:07Z</time>
            </trkpt>
            <trkpt lon="101.413201" lat="14.159153">
                <ele>66.700000</ele>
                <time>1970-01-01T04:03:09Z</time>
            </trkpt>
            <trkpt lon="101.413181" lat="14.159173">
                <ele>66.700000</ele>
                <time>1970-01-01T04:03:10Z</time>
            </trkpt>
            <trkpt lon="101.413157" lat="14.159198">
                <ele>66.600000</ele>
                <time>1970-01-01T04:03:11Z</time>
            </trkpt>
            <trkpt lon="101.413139" lat="14.159227">
                <ele>66.500000</ele>
                <time>1970-01-01T04:03:12Z</time>
            </trkpt>
            <trkpt lon="101.413125" lat="14.159259">
                <ele>66.500000</ele>
                <time>1970-01-01T04:03:13Z</time>
            </trkpt>
            <trkpt lon="101.413120" lat="14.159292">
                <ele>66.300000</ele>
                <time>1970-01-01T04:03:14Z</time>
            </trkpt>
            <trkpt lon="101.413121" lat="14.159326">
                <ele>66.200000</ele>
                <time>1970-01-01T04:03:15Z</time>
            </trkpt>
            <trkpt lon="101.413118" lat="14.159366">
                <ele>66.200000</ele>
                <time>1970-01-01T04:03:16Z</time>
            </trkpt>
            <trkpt lon="101.413114" lat="14.159404">
                <ele>66.200000</ele>
                <time>1970-01-01T04:03:17Z</time>
            </trkpt>
            <trkpt lon="101.413112" lat="14.159440">
                <ele>66.200000</ele>
                <time>1970-01-01T04:03:18Z</time>
            </trkpt>
            <trkpt lon="101.413112" lat="14.159480">
                <ele>66.100000</ele>
                <time>1970-01-01T04:03:19Z</time>
            </trkpt>
            <trkpt lon="101.413109" lat="14.159525">
                <ele>65.800000</ele>
                <time>1970-01-01T04:03:20Z</time>
            </trkpt>
            <trkpt lon="101.413070" lat="14.159600">
                <ele>65.100000</ele>
                <time>1970-01-01T04:03:21Z</time>
            </trkpt>
            <trkpt lon="101.413052" lat="14.159651">
                <ele>64.900000</ele>
                <time>1970-01-01T04:03:22Z</time>
            </trkpt>
            <trkpt lon="101.413059" lat="14.159709">
                <ele>64.700000</ele>
                <time>1970-01-01T04:03:23Z</time>
            </trkpt>
            <trkpt lon="101.413041" lat="14.159754">
                <ele>64.600000</ele>
                <time>1970-01-01T04:03:24Z</time>
            </trkpt>
            <trkpt lon="101.413030" lat="14.159799">
                <ele>64.300000</ele>
                <time>1970-01-01T04:03:25Z</time>
            </trkpt>
            <trkpt lon="101.413019" lat="14.159837">
                <ele>64.300000</ele>
                <time>1970-01-01T04:03:26Z</time>
            </trkpt>
            <trkpt lon="101.412994" lat="14.159866">
                <ele>63.800000</ele>
                <time>1970-01-01T04:03:27Z</time>
            </trkpt>
            <trkpt lon="101.412952" lat="14.159877">
                <ele>63.800000</ele>
                <time>1970-01-01T04:03:28Z</time>
            </trkpt>
            <trkpt lon="101.412917" lat="14.159892">
                <ele>63.300000</ele>
                <time>1970-01-01T04:03:29Z</time>
            </trkpt>
            <trkpt lon="101.412864" lat="14.159899">
                <ele>63.300000</ele>
                <time>1970-01-01T04:03:30Z</time>
            </trkpt>
            <trkpt lon="101.412805" lat="14.159908">
                <ele>63.500000</ele>
                <time>1970-01-01T04:03:31Z</time>
            </trkpt>
            <trkpt lon="101.412755" lat="14.159943">
                <ele>63.200000</ele>
                <time>1970-01-01T04:03:33Z</time>
            </trkpt>
            <trkpt lon="101.412719" lat="14.159956">
                <ele>63.500000</ele>
                <time>1970-01-01T04:03:34Z</time>
            </trkpt>
            <trkpt lon="101.412681" lat="14.159999">
                <ele>63.200000</ele>
                <time>1970-01-01T04:03:35Z</time>
            </trkpt>
            <trkpt lon="101.412634" lat="14.160017">
                <ele>63.000000</ele>
                <time>1970-01-01T04:03:36Z</time>
            </trkpt>
            <trkpt lon="101.412574" lat="14.160065">
                <ele>62.700000</ele>
                <time>1970-01-01T04:03:37Z</time>
            </trkpt>
            <trkpt lon="101.412543" lat="14.160056">
                <ele>63.000000</ele>
                <time>1970-01-01T04:03:38Z</time>
            </trkpt>
            <trkpt lon="101.412507" lat="14.160057">
                <ele>63.200000</ele>
                <time>1970-01-01T04:03:39Z</time>
            </trkpt>
            <trkpt lon="101.412470" lat="14.160077">
                <ele>63.500000</ele>
                <time>1970-01-01T04:03:40Z</time>
            </trkpt>
            <trkpt lon="101.412412" lat="14.160071">
                <ele>63.700000</ele>
                <time>1970-01-01T04:03:41Z</time>
            </trkpt>
            <trkpt lon="101.412371" lat="14.160066">
                <ele>64.000000</ele>
                <time>1970-01-01T04:03:42Z</time>
            </trkpt>
            <trkpt lon="101.412325" lat="14.160087">
                <ele>64.200000</ele>
                <time>1970-01-01T04:03:44Z</time>
            </trkpt>
            <trkpt lon="101.412297" lat="14.160099">
                <ele>64.100000</ele>
                <time>1970-01-01T04:03:45Z</time>
            </trkpt>
            <trkpt lon="101.412276" lat="14.160125">
                <ele>64.100000</ele>
                <time>1970-01-01T04:03:47Z</time>
            </trkpt>
            <trkpt lon="101.412238" lat="14.160136">
                <ele>64.300000</ele>
                <time>1970-01-01T04:03:49Z</time>
            </trkpt>
            <trkpt lon="101.412212" lat="14.160146">
                <ele>64.800000</ele>
                <time>1970-01-01T04:03:50Z</time>
            </trkpt>
            <trkpt lon="101.412166" lat="14.160154">
                <ele>65.300000</ele>
                <time>1970-01-01T04:03:52Z</time>
            </trkpt>
            <trkpt lon="101.412139" lat="14.160143">
                <ele>65.300000</ele>
                <time>1970-01-01T04:03:53Z</time>
            </trkpt>
            <trkpt lon="101.412114" lat="14.160129">
                <ele>65.700000</ele>
                <time>1970-01-01T04:03:54Z</time>
            </trkpt>
            <trkpt lon="101.412074" lat="14.160100">
                <ele>66.200000</ele>
                <time>1970-01-01T04:03:56Z</time>
            </trkpt>
            <trkpt lon="101.412024" lat="14.160080">
                <ele>66.700000</ele>
                <time>1970-01-01T04:03:58Z</time>
            </trkpt>
            <trkpt lon="101.411985" lat="14.160064">
                <ele>66.900000</ele>
                <time>1970-01-01T04:04:00Z</time>
            </trkpt>
            <trkpt lon="101.411959" lat="14.160039">
                <ele>67.400000</ele>
                <time>1970-01-01T04:04:02Z</time>
            </trkpt>
            <trkpt lon="101.411925" lat="14.160004">
                <ele>67.700000</ele>
                <time>1970-01-01T04:04:04Z</time>
            </trkpt>
            <trkpt lon="101.411892" lat="14.159990">
                <ele>67.900000</ele>
                <time>1970-01-01T04:04:05Z</time>
            </trkpt>
            <trkpt lon="101.411856" lat="14.159979">
                <ele>68.100000</ele>
                <time>1970-01-01T04:04:06Z</time>
            </trkpt>
            <trkpt lon="101.411828" lat="14.159966">
                <ele>68.400000</ele>
                <time>1970-01-01T04:04:07Z</time>
            </trkpt>
            <trkpt lon="101.411783" lat="14.159946">
                <ele>69.100000</ele>
                <time>1970-01-01T04:04:09Z</time>
            </trkpt>
            <trkpt lon="101.411746" lat="14.159932">
                <ele>69.600000</ele>
                <time>1970-01-01T04:04:11Z</time>
            </trkpt>
            <trkpt lon="101.411691" lat="14.159936">
                <ele>70.100000</ele>
                <time>1970-01-01T04:04:13Z</time>
            </trkpt>
            <trkpt lon="101.411665" lat="14.159945">
                <ele>70.100000</ele>
                <time>1970-01-01T04:04:14Z</time>
            </trkpt>
            <trkpt lon="101.411639" lat="14.159956">
                <ele>70.600000</ele>
                <time>1970-01-01T04:04:15Z</time>
            </trkpt>
            <trkpt lon="101.411602" lat="14.159961">
                <ele>70.700000</ele>
                <time>1970-01-01T04:04:17Z</time>
            </trkpt>
            <trkpt lon="101.411560" lat="14.159952">
                <ele>70.800000</ele>
                <time>1970-01-01T04:04:19Z</time>
            </trkpt>
            <trkpt lon="101.411515" lat="14.159949">
                <ele>70.800000</ele>
                <time>1970-01-01T04:04:21Z</time>
            </trkpt>
            <trkpt lon="101.411462" lat="14.159938">
                <ele>70.800000</ele>
                <time>1970-01-01T04:04:23Z</time>
            </trkpt>
            <trkpt lon="101.411422" lat="14.159936">
                <ele>71.000000</ele>
                <time>1970-01-01T04:04:26Z</time>
            </trkpt>
            <trkpt lon="101.411386" lat="14.159944">
                <ele>71.200000</ele>
                <time>1970-01-01T04:04:28Z</time>
            </trkpt>
            <trkpt lon="101.411334" lat="14.159946">
                <ele>71.400000</ele>
                <time>1970-01-01T04:04:30Z</time>
            </trkpt>
            <trkpt lon="101.411303" lat="14.159945">
                <ele>71.600000</ele>
                <time>1970-01-01T04:04:31Z</time>
            </trkpt>
            <trkpt lon="101.411272" lat="14.159946">
                <ele>71.700000</ele>
                <time>1970-01-01T04:04:32Z</time>
            </trkpt>
            <trkpt lon="101.411240" lat="14.159949">
                <ele>71.700000</ele>
                <time>1970-01-01T04:04:33Z</time>
            </trkpt>
            <trkpt lon="101.411207" lat="14.159948">
                <ele>71.700000</ele>
                <time>1970-01-01T04:04:34Z</time>
            </trkpt>
            <trkpt lon="101.411175" lat="14.159945">
                <ele>71.700000</ele>
                <time>1970-01-01T04:04:35Z</time>
            </trkpt>
            <trkpt lon="101.411148" lat="14.159940">
                <ele>71.700000</ele>
                <time>1970-01-01T04:04:36Z</time>
            </trkpt>
            <trkpt lon="101.411104" lat="14.159940">
                <ele>71.900000</ele>
                <time>1970-01-01T04:04:38Z</time>
            </trkpt>
            <trkpt lon="101.411057" lat="14.159944">
                <ele>72.100000</ele>
                <time>1970-01-01T04:04:40Z</time>
            </trkpt>
            <trkpt lon="101.411000" lat="14.159944">
                <ele>72.300000</ele>
                <time>1970-01-01T04:04:42Z</time>
            </trkpt>
            <trkpt lon="101.410969" lat="14.159950">
                <ele>72.600000</ele>
                <time>1970-01-01T04:04:43Z</time>
            </trkpt>
            <trkpt lon="101.410938" lat="14.159957">
                <ele>72.600000</ele>
                <time>1970-01-01T04:04:44Z</time>
            </trkpt>
            <trkpt lon="101.410904" lat="14.159958">
                <ele>72.700000</ele>
                <time>1970-01-01T04:04:45Z</time>
            </trkpt>
            <trkpt lon="101.410860" lat="14.159955">
                <ele>72.700000</ele>
                <time>1970-01-01T04:04:46Z</time>
            </trkpt>
            <trkpt lon="101.410813" lat="14.159948">
                <ele>72.700000</ele>
                <time>1970-01-01T04:04:47Z</time>
            </trkpt>
            <trkpt lon="101.410774" lat="14.159947">
                <ele>72.700000</ele>
                <time>1970-01-01T04:04:48Z</time>
            </trkpt>
            <trkpt lon="101.410741" lat="14.159950">
                <ele>72.900000</ele>
                <time>1970-01-01T04:04:49Z</time>
            </trkpt>
            <trkpt lon="101.410707" lat="14.159960">
                <ele>73.100000</ele>
                <time>1970-01-01T04:04:50Z</time>
            </trkpt>
            <trkpt lon="101.410672" lat="14.159973">
                <ele>73.200000</ele>
                <time>1970-01-01T04:04:51Z</time>
            </trkpt>
            <trkpt lon="101.410634" lat="14.159987">
                <ele>73.200000</ele>
                <time>1970-01-01T04:04:52Z</time>
            </trkpt>
            <trkpt lon="101.410597" lat="14.160005">
                <ele>73.200000</ele>
                <time>1970-01-01T04:04:53Z</time>
            </trkpt>
            <trkpt lon="101.410560" lat="14.160023">
                <ele>73.200000</ele>
                <time>1970-01-01T04:04:54Z</time>
            </trkpt>
            <trkpt lon="101.410522" lat="14.160046">
                <ele>73.000000</ele>
                <time>1970-01-01T04:04:55Z</time>
            </trkpt>
            <trkpt lon="101.410495" lat="14.160071">
                <ele>73.000000</ele>
                <time>1970-01-01T04:04:56Z</time>
            </trkpt>
            <trkpt lon="101.410473" lat="14.160095">
                <ele>72.700000</ele>
                <time>1970-01-01T04:04:57Z</time>
            </trkpt>
            <trkpt lon="101.410451" lat="14.160122">
                <ele>72.700000</ele>
                <time>1970-01-01T04:04:58Z</time>
            </trkpt>
            <trkpt lon="101.410435" lat="14.160150">
                <ele>72.500000</ele>
                <time>1970-01-01T04:04:59Z</time>
            </trkpt>
            <trkpt lon="101.410425" lat="14.160175">
                <ele>72.200000</ele>
                <time>1970-01-01T04:05:00Z</time>
            </trkpt>
            <trkpt lon="101.410415" lat="14.160226">
                <ele>72.100000</ele>
                <time>1970-01-01T04:05:02Z</time>
            </trkpt>
            <trkpt lon="101.410414" lat="14.160255">
                <ele>71.900000</ele>
                <time>1970-01-01T04:05:03Z</time>
            </trkpt>
            <trkpt lon="101.410420" lat="14.160287">
                <ele>71.700000</ele>
                <time>1970-01-01T04:05:04Z</time>
            </trkpt>
            <trkpt lon="101.410424" lat="14.160317">
                <ele>71.800000</ele>
                <time>1970-01-01T04:05:05Z</time>
            </trkpt>
            <trkpt lon="101.410422" lat="14.160349">
                <ele>72.000000</ele>
                <time>1970-01-01T04:05:06Z</time>
            </trkpt>
            <trkpt lon="101.410418" lat="14.160382">
                <ele>72.200000</ele>
                <time>1970-01-01T04:05:07Z</time>
            </trkpt>
            <trkpt lon="101.410414" lat="14.160415">
                <ele>72.400000</ele>
                <time>1970-01-01T04:05:08Z</time>
            </trkpt>
            <trkpt lon="101.410411" lat="14.160451">
                <ele>72.600000</ele>
                <time>1970-01-01T04:05:09Z</time>
            </trkpt>
            <trkpt lon="101.410408" lat="14.160489">
                <ele>72.700000</ele>
                <time>1970-01-01T04:05:10Z</time>
            </trkpt>
            <trkpt lon="101.410404" lat="14.160524">
                <ele>72.700000</ele>
                <time>1970-01-01T04:05:11Z</time>
            </trkpt>
            <trkpt lon="101.410398" lat="14.160553">
                <ele>72.700000</ele>
                <time>1970-01-01T04:05:12Z</time>
            </trkpt>
            <trkpt lon="101.410382" lat="14.160576">
                <ele>72.700000</ele>
                <time>1970-01-01T04:05:13Z</time>
            </trkpt>
            <trkpt lon="101.410357" lat="14.160594">
                <ele>72.700000</ele>
                <time>1970-01-01T04:05:14Z</time>
            </trkpt>
            <trkpt lon="101.410328" lat="14.160603">
                <ele>72.700000</ele>
                <time>1970-01-01T04:05:15Z</time>
            </trkpt>
            <trkpt lon="101.410301" lat="14.160611">
                <ele>72.700000</ele>
                <time>1970-01-01T04:05:16Z</time>
            </trkpt>
            <trkpt lon="101.410274" lat="14.160623">
                <ele>72.600000</ele>
                <time>1970-01-01T04:05:17Z</time>
            </trkpt>
            <trkpt lon="101.410231" lat="14.160653">
                <ele>73.200000</ele>
                <time>1970-01-01T04:05:19Z</time>
            </trkpt>
            <trkpt lon="101.410192" lat="14.160692">
                <ele>74.100000</ele>
                <time>1970-01-01T04:05:21Z</time>
            </trkpt>
            <trkpt lon="101.410163" lat="14.160727">
                <ele>74.500000</ele>
                <time>1970-01-01T04:05:23Z</time>
            </trkpt>
            <trkpt lon="101.410146" lat="14.160759">
                <ele>75.200000</ele>
                <time>1970-01-01T04:05:25Z</time>
            </trkpt>
            <trkpt lon="101.410155" lat="14.160802">
                <ele>75.400000</ele>
                <time>1970-01-01T04:05:27Z</time>
            </trkpt>
            <trkpt lon="101.410175" lat="14.160844">
                <ele>75.400000</ele>
                <time>1970-01-01T04:05:29Z</time>
            </trkpt>
            <trkpt lon="101.410200" lat="14.160888">
                <ele>75.700000</ele>
                <time>1970-01-01T04:05:31Z</time>
            </trkpt>
            <trkpt lon="101.410218" lat="14.160913">
                <ele>75.400000</ele>
                <time>1970-01-01T04:05:32Z</time>
            </trkpt>
            <trkpt lon="101.410234" lat="14.160939">
                <ele>75.700000</ele>
                <time>1970-01-01T04:05:33Z</time>
            </trkpt>
            <trkpt lon="101.410251" lat="14.160963">
                <ele>75.600000</ele>
                <time>1970-01-01T04:05:34Z</time>
            </trkpt>
            <trkpt lon="101.410274" lat="14.160984">
                <ele>75.600000</ele>
                <time>1970-01-01T04:05:35Z</time>
            </trkpt>
            <trkpt lon="101.410301" lat="14.161003">
                <ele>75.300000</ele>
                <time>1970-01-01T04:05:36Z</time>
            </trkpt>
            <trkpt lon="101.410328" lat="14.161016">
                <ele>75.300000</ele>
                <time>1970-01-01T04:05:37Z</time>
            </trkpt>
            <trkpt lon="101.410355" lat="14.161028">
                <ele>74.800000</ele>
                <time>1970-01-01T04:05:38Z</time>
            </trkpt>
            <trkpt lon="101.410383" lat="14.161043">
                <ele>74.300000</ele>
                <time>1970-01-01T04:05:39Z</time>
            </trkpt>
            <trkpt lon="101.410410" lat="14.161057">
                <ele>74.600000</ele>
                <time>1970-01-01T04:05:40Z</time>
            </trkpt>
            <trkpt lon="101.410436" lat="14.161072">
                <ele>73.900000</ele>
                <time>1970-01-01T04:05:41Z</time>
            </trkpt>
            <trkpt lon="101.410464" lat="14.161083">
                <ele>73.100000</ele>
                <time>1970-01-01T04:05:42Z</time>
            </trkpt>
            <trkpt lon="101.410494" lat="14.161088">
                <ele>73.400000</ele>
                <time>1970-01-01T04:05:43Z</time>
            </trkpt>
            <trkpt lon="101.410524" lat="14.161093">
                <ele>72.700000</ele>
                <time>1970-01-01T04:05:44Z</time>
            </trkpt>
            <trkpt lon="101.410555" lat="14.161106">
                <ele>71.900000</ele>
                <time>1970-01-01T04:05:45Z</time>
            </trkpt>
            <trkpt lon="101.410585" lat="14.161130">
                <ele>72.200000</ele>
                <time>1970-01-01T04:05:46Z</time>
            </trkpt>
            <trkpt lon="101.410606" lat="14.161153">
                <ele>71.500000</ele>
                <time>1970-01-01T04:05:47Z</time>
            </trkpt>
            <trkpt lon="101.410622" lat="14.161176">
                <ele>71.700000</ele>
                <time>1970-01-01T04:05:48Z</time>
            </trkpt>
            <trkpt lon="101.410638" lat="14.161199">
                <ele>71.000000</ele>
                <time>1970-01-01T04:05:49Z</time>
            </trkpt>
            <trkpt lon="101.410666" lat="14.161233">
                <ele>71.200000</ele>
                <time>1970-01-01T04:05:51Z</time>
            </trkpt>
            <trkpt lon="101.410695" lat="14.161263">
                <ele>70.700000</ele>
                <time>1970-01-01T04:05:53Z</time>
            </trkpt>
            <trkpt lon="101.410741" lat="14.161280">
                <ele>70.000000</ele>
                <time>1970-01-01T04:05:55Z</time>
            </trkpt>
            <trkpt lon="101.410781" lat="14.161275">
                <ele>69.400000</ele>
                <time>1970-01-01T04:05:57Z</time>
            </trkpt>
            <trkpt lon="101.410811" lat="14.161277">
                <ele>69.200000</ele>
                <time>1970-01-01T04:05:59Z</time>
            </trkpt>
            <trkpt lon="101.410848" lat="14.161287">
                <ele>68.900000</ele>
                <time>1970-01-01T04:06:01Z</time>
            </trkpt>
            <trkpt lon="101.410887" lat="14.161296">
                <ele>69.200000</ele>
                <time>1970-01-01T04:06:03Z</time>
            </trkpt>
            <trkpt lon="101.410927" lat="14.161318">
                <ele>68.900000</ele>
                <time>1970-01-01T04:06:06Z</time>
            </trkpt>
            <trkpt lon="101.410955" lat="14.161325">
                <ele>68.700000</ele>
                <time>1970-01-01T04:06:07Z</time>
            </trkpt>
            <trkpt lon="101.411006" lat="14.161337">
                <ele>68.700000</ele>
                <time>1970-01-01T04:06:09Z</time>
            </trkpt>
            <trkpt lon="101.411051" lat="14.161331">
                <ele>68.200000</ele>
                <time>1970-01-01T04:06:11Z</time>
            </trkpt>
            <trkpt lon="101.411079" lat="14.161316">
                <ele>67.900000</ele>
                <time>1970-01-01T04:06:12Z</time>
            </trkpt>
            <trkpt lon="101.411105" lat="14.161298">
                <ele>67.700000</ele>
                <time>1970-01-01T04:06:13Z</time>
            </trkpt>
            <trkpt lon="101.411130" lat="14.161282">
                <ele>67.500000</ele>
                <time>1970-01-01T04:06:14Z</time>
            </trkpt>
            <trkpt lon="101.411172" lat="14.161258">
                <ele>67.200000</ele>
                <time>1970-01-01T04:06:16Z</time>
            </trkpt>
            <trkpt lon="101.411201" lat="14.161239">
                <ele>66.900000</ele>
                <time>1970-01-01T04:06:19Z</time>
            </trkpt>
            <trkpt lon="101.411222" lat="14.161205">
                <ele>66.800000</ele>
                <time>1970-01-01T04:06:22Z</time>
            </trkpt>
            <trkpt lon="101.411243" lat="14.161184">
                <ele>66.700000</ele>
                <time>1970-01-01T04:06:23Z</time>
            </trkpt>
            <trkpt lon="101.411274" lat="14.161165">
                <ele>66.700000</ele>
                <time>1970-01-01T04:06:24Z</time>
            </trkpt>
            <trkpt lon="101.411305" lat="14.161146">
                <ele>66.500000</ele>
                <time>1970-01-01T04:06:25Z</time>
            </trkpt>
            <trkpt lon="101.411350" lat="14.161125">
                <ele>66.200000</ele>
                <time>1970-01-01T04:06:27Z</time>
            </trkpt>
            <trkpt lon="101.411397" lat="14.161115">
                <ele>66.000000</ele>
                <time>1970-01-01T04:06:29Z</time>
            </trkpt>
            <trkpt lon="101.411436" lat="14.161106">
                <ele>65.800000</ele>
                <time>1970-01-01T04:06:31Z</time>
            </trkpt>
            <trkpt lon="101.411480" lat="14.161091">
                <ele>65.500000</ele>
                <time>1970-01-01T04:06:33Z</time>
            </trkpt>
            <trkpt lon="101.411517" lat="14.161072">
                <ele>65.300000</ele>
                <time>1970-01-01T04:06:35Z</time>
            </trkpt>
            <trkpt lon="101.411538" lat="14.161043">
                <ele>65.000000</ele>
                <time>1970-01-01T04:06:37Z</time>
            </trkpt>
            <trkpt lon="101.411568" lat="14.161019">
                <ele>65.000000</ele>
                <time>1970-01-01T04:06:39Z</time>
            </trkpt>
            <trkpt lon="101.411608" lat="14.160987">
                <ele>64.800000</ele>
                <time>1970-01-01T04:06:41Z</time>
            </trkpt>
            <trkpt lon="101.411638" lat="14.160971">
                <ele>64.600000</ele>
                <time>1970-01-01T04:06:42Z</time>
            </trkpt>
            <trkpt lon="101.411680" lat="14.160955">
                <ele>64.300000</ele>
                <time>1970-01-01T04:06:44Z</time>
            </trkpt>
            <trkpt lon="101.411710" lat="14.160945">
                <ele>64.000000</ele>
                <time>1970-01-01T04:06:45Z</time>
            </trkpt>
            <trkpt lon="101.411745" lat="14.160934">
                <ele>64.000000</ele>
                <time>1970-01-01T04:06:46Z</time>
            </trkpt>
            <trkpt lon="101.411778" lat="14.160915">
                <ele>63.800000</ele>
                <time>1970-01-01T04:06:48Z</time>
            </trkpt>
            <trkpt lon="101.411809" lat="14.160887">
                <ele>63.500000</ele>
                <time>1970-01-01T04:06:50Z</time>
            </trkpt>
            <trkpt lon="101.411841" lat="14.160867">
                <ele>63.300000</ele>
                <time>1970-01-01T04:06:51Z</time>
            </trkpt>
            <trkpt lon="101.411871" lat="14.160853">
                <ele>63.300000</ele>
                <time>1970-01-01T04:06:52Z</time>
            </trkpt>
            <trkpt lon="101.411902" lat="14.160844">
                <ele>63.000000</ele>
                <time>1970-01-01T04:06:53Z</time>
            </trkpt>
            <trkpt lon="101.411933" lat="14.160836">
                <ele>62.800000</ele>
                <time>1970-01-01T04:06:54Z</time>
            </trkpt>
            <trkpt lon="101.411965" lat="14.160828">
                <ele>62.500000</ele>
                <time>1970-01-01T04:06:55Z</time>
            </trkpt>
            <trkpt lon="101.411990" lat="14.160815">
                <ele>62.500000</ele>
                <time>1970-01-01T04:06:56Z</time>
            </trkpt>
            <trkpt lon="101.412032" lat="14.160793">
                <ele>62.000000</ele>
                <time>1970-01-01T04:06:58Z</time>
            </trkpt>
            <trkpt lon="101.412070" lat="14.160783">
                <ele>61.500000</ele>
                <time>1970-01-01T04:07:00Z</time>
            </trkpt>
            <trkpt lon="101.412109" lat="14.160767">
                <ele>61.000000</ele>
                <time>1970-01-01T04:07:02Z</time>
            </trkpt>
            <trkpt lon="101.412136" lat="14.160750">
                <ele>60.900000</ele>
                <time>1970-01-01T04:07:03Z</time>
            </trkpt>
            <trkpt lon="101.412165" lat="14.160734">
                <ele>60.900000</ele>
                <time>1970-01-01T04:07:04Z</time>
            </trkpt>
            <trkpt lon="101.412192" lat="14.160723">
                <ele>60.600000</ele>
                <time>1970-01-01T04:07:05Z</time>
            </trkpt>
            <trkpt lon="101.412222" lat="14.160723">
                <ele>60.400000</ele>
                <time>1970-01-01T04:07:06Z</time>
            </trkpt>
            <trkpt lon="101.412257" lat="14.160736">
                <ele>60.400000</ele>
                <time>1970-01-01T04:07:07Z</time>
            </trkpt>
            <trkpt lon="101.412288" lat="14.160756">
                <ele>59.900000</ele>
                <time>1970-01-01T04:07:08Z</time>
            </trkpt>
            <trkpt lon="101.412314" lat="14.160779">
                <ele>59.700000</ele>
                <time>1970-01-01T04:07:09Z</time>
            </trkpt>
            <trkpt lon="101.412340" lat="14.160804">
                <ele>59.800000</ele>
                <time>1970-01-01T04:07:10Z</time>
            </trkpt>
            <trkpt lon="101.412363" lat="14.160820">
                <ele>59.800000</ele>
                <time>1970-01-01T04:07:11Z</time>
            </trkpt>
            <trkpt lon="101.412403" lat="14.160847">
                <ele>60.000000</ele>
                <time>1970-01-01T04:07:14Z</time>
            </trkpt>
            <trkpt lon="101.412436" lat="14.160869">
                <ele>60.000000</ele>
                <time>1970-01-01T04:07:16Z</time>
            </trkpt>
            <trkpt lon="101.412468" lat="14.160894">
                <ele>60.300000</ele>
                <time>1970-01-01T04:07:18Z</time>
            </trkpt>
            <trkpt lon="101.412505" lat="14.160916">
                <ele>60.300000</ele>
                <time>1970-01-01T04:07:21Z</time>
            </trkpt>
            <trkpt lon="101.412550" lat="14.160935">
                <ele>60.500000</ele>
                <time>1970-01-01T04:07:23Z</time>
            </trkpt>
            <trkpt lon="101.412598" lat="14.160943">
                <ele>60.500000</ele>
                <time>1970-01-01T04:07:25Z</time>
            </trkpt>
            <trkpt lon="101.412625" lat="14.160949">
                <ele>60.500000</ele>
                <time>1970-01-01T04:07:26Z</time>
            </trkpt>
            <trkpt lon="101.412677" lat="14.160970">
                <ele>60.800000</ele>
                <time>1970-01-01T04:07:28Z</time>
            </trkpt>
            <trkpt lon="101.412717" lat="14.161002">
                <ele>60.800000</ele>
                <time>1970-01-01T04:07:30Z</time>
            </trkpt>
            <trkpt lon="101.412753" lat="14.161031">
                <ele>61.000000</ele>
                <time>1970-01-01T04:07:32Z</time>
            </trkpt>
            <trkpt lon="101.412780" lat="14.161042">
                <ele>61.000000</ele>
                <time>1970-01-01T04:07:33Z</time>
            </trkpt>
            <trkpt lon="101.412810" lat="14.161052">
                <ele>61.300000</ele>
                <time>1970-01-01T04:07:34Z</time>
            </trkpt>
            <trkpt lon="101.412837" lat="14.161059">
                <ele>61.300000</ele>
                <time>1970-01-01T04:07:35Z</time>
            </trkpt>
            <trkpt lon="101.412869" lat="14.161064">
                <ele>61.300000</ele>
                <time>1970-01-01T04:07:36Z</time>
            </trkpt>
            <trkpt lon="101.412900" lat="14.161061">
                <ele>61.300000</ele>
                <time>1970-01-01T04:07:37Z</time>
            </trkpt>
            <trkpt lon="101.412931" lat="14.161053">
                <ele>61.300000</ele>
                <time>1970-01-01T04:07:38Z</time>
            </trkpt>
            <trkpt lon="101.412958" lat="14.161047">
                <ele>61.300000</ele>
                <time>1970-01-01T04:07:39Z</time>
            </trkpt>
            <trkpt lon="101.412988" lat="14.161042">
                <ele>61.000000</ele>
                <time>1970-01-01T04:07:40Z</time>
            </trkpt>
            <trkpt lon="101.413016" lat="14.161037">
                <ele>61.000000</ele>
                <time>1970-01-01T04:07:41Z</time>
            </trkpt>
            <trkpt lon="101.413063" lat="14.161026">
                <ele>60.700000</ele>
                <time>1970-01-01T04:07:43Z</time>
            </trkpt>
            <trkpt lon="101.413092" lat="14.161019">
                <ele>60.500000</ele>
                <time>1970-01-01T04:07:44Z</time>
            </trkpt>
            <trkpt lon="101.413125" lat="14.161011">
                <ele>60.200000</ele>
                <time>1970-01-01T04:07:45Z</time>
            </trkpt>
            <trkpt lon="101.413158" lat="14.161007">
                <ele>60.200000</ele>
                <time>1970-01-01T04:07:46Z</time>
            </trkpt>
            <trkpt lon="101.413188" lat="14.161007">
                <ele>60.000000</ele>
                <time>1970-01-01T04:07:47Z</time>
            </trkpt>
            <trkpt lon="101.413218" lat="14.161007">
                <ele>59.700000</ele>
                <time>1970-01-01T04:07:48Z</time>
            </trkpt>
            <trkpt lon="101.413248" lat="14.161005">
                <ele>59.700000</ele>
                <time>1970-01-01T04:07:49Z</time>
            </trkpt>
            <trkpt lon="101.413300" lat="14.161016">
                <ele>59.200000</ele>
                <time>1970-01-01T04:07:51Z</time>
            </trkpt>
            <trkpt lon="101.413333" lat="14.161033">
                <ele>59.200000</ele>
                <time>1970-01-01T04:07:53Z</time>
            </trkpt>
            <trkpt lon="101.413366" lat="14.161025">
                <ele>59.000000</ele>
                <time>1970-01-01T04:07:55Z</time>
            </trkpt>
            <trkpt lon="101.413403" lat="14.161005">
                <ele>58.700000</ele>
                <time>1970-01-01T04:07:58Z</time>
            </trkpt>
            <trkpt lon="101.413449" lat="14.160977">
                <ele>58.200000</ele>
                <time>1970-01-01T04:08:00Z</time>
            </trkpt>
            <trkpt lon="101.413476" lat="14.160962">
                <ele>58.000000</ele>
                <time>1970-01-01T04:08:01Z</time>
            </trkpt>
            <trkpt lon="101.413505" lat="14.160953">
                <ele>57.700000</ele>
                <time>1970-01-01T04:08:02Z</time>
            </trkpt>
            <trkpt lon="101.413542" lat="14.160945">
                <ele>57.400000</ele>
                <time>1970-01-01T04:08:03Z</time>
            </trkpt>
            <trkpt lon="101.413578" lat="14.160940">
                <ele>56.900000</ele>
                <time>1970-01-01T04:08:04Z</time>
            </trkpt>
            <trkpt lon="101.413610" lat="14.160935">
                <ele>56.400000</ele>
                <time>1970-01-01T04:08:05Z</time>
            </trkpt>
            <trkpt lon="101.413640" lat="14.160931">
                <ele>55.900000</ele>
                <time>1970-01-01T04:08:06Z</time>
            </trkpt>
            <trkpt lon="101.413691" lat="14.160927">
                <ele>55.500000</ele>
                <time>1970-01-01T04:08:08Z</time>
            </trkpt>
            <trkpt lon="101.413721" lat="14.160931">
                <ele>55.500000</ele>
                <time>1970-01-01T04:08:09Z</time>
            </trkpt>
            <trkpt lon="101.413755" lat="14.160932">
                <ele>55.200000</ele>
                <time>1970-01-01T04:08:10Z</time>
            </trkpt>
            <trkpt lon="101.413789" lat="14.160932">
                <ele>55.000000</ele>
                <time>1970-01-01T04:08:11Z</time>
            </trkpt>
            <trkpt lon="101.413826" lat="14.160927">
                <ele>54.700000</ele>
                <time>1970-01-01T04:08:12Z</time>
            </trkpt>
            <trkpt lon="101.413862" lat="14.160920">
                <ele>54.500000</ele>
                <time>1970-01-01T04:08:13Z</time>
            </trkpt>
            <trkpt lon="101.413896" lat="14.160910">
                <ele>54.200000</ele>
                <time>1970-01-01T04:08:14Z</time>
            </trkpt>
            <trkpt lon="101.413930" lat="14.160898">
                <ele>54.200000</ele>
                <time>1970-01-01T04:08:15Z</time>
            </trkpt>
            <trkpt lon="101.413967" lat="14.160888">
                <ele>54.100000</ele>
                <time>1970-01-01T04:08:16Z</time>
            </trkpt>
            <trkpt lon="101.414002" lat="14.160886">
                <ele>54.000000</ele>
                <time>1970-01-01T04:08:17Z</time>
            </trkpt>
            <trkpt lon="101.414037" lat="14.160889">
                <ele>53.900000</ele>
                <time>1970-01-01T04:08:18Z</time>
            </trkpt>
            <trkpt lon="101.414071" lat="14.160889">
                <ele>53.600000</ele>
                <time>1970-01-01T04:08:19Z</time>
            </trkpt>
            <trkpt lon="101.414108" lat="14.160901">
                <ele>53.600000</ele>
                <time>1970-01-01T04:08:20Z</time>
            </trkpt>
            <trkpt lon="101.414148" lat="14.160924">
                <ele>53.900000</ele>
                <time>1970-01-01T04:08:21Z</time>
            </trkpt>
            <trkpt lon="101.414181" lat="14.160952">
                <ele>53.600000</ele>
                <time>1970-01-01T04:08:22Z</time>
            </trkpt>
            <trkpt lon="101.414209" lat="14.160986">
                <ele>53.900000</ele>
                <time>1970-01-01T04:08:23Z</time>
            </trkpt>
            <trkpt lon="101.414234" lat="14.161023">
                <ele>54.400000</ele>
                <time>1970-01-01T04:08:24Z</time>
            </trkpt>
            <trkpt lon="101.414257" lat="14.161054">
                <ele>54.600000</ele>
                <time>1970-01-01T04:08:25Z</time>
            </trkpt>
            <trkpt lon="101.414275" lat="14.161080">
                <ele>54.600000</ele>
                <time>1970-01-01T04:08:26Z</time>
            </trkpt>
            <trkpt lon="101.414311" lat="14.161096">
                <ele>54.900000</ele>
                <time>1970-01-01T04:08:28Z</time>
            </trkpt>
            <trkpt lon="101.414336" lat="14.161067">
                <ele>54.100000</ele>
                <time>1970-01-01T04:08:32Z</time>
            </trkpt>
            <trkpt lon="101.414369" lat="14.161039">
                <ele>53.300000</ele>
                <time>1970-01-01T04:08:37Z</time>
            </trkpt>
            <trkpt lon="101.414398" lat="14.161039">
                <ele>53.300000</ele>
                <time>1970-01-01T04:08:41Z</time>
            </trkpt>
            <trkpt lon="101.414430" lat="14.161045">
                <ele>53.300000</ele>
                <time>1970-01-01T04:08:44Z</time>
            </trkpt>
            <trkpt lon="101.414460" lat="14.161050">
                <ele>52.800000</ele>
                <time>1970-01-01T04:08:47Z</time>
            </trkpt>
            <trkpt lon="101.414498" lat="14.161068">
                <ele>52.300000</ele>
                <time>1970-01-01T04:08:50Z</time>
            </trkpt>
            <trkpt lon="101.414521" lat="14.161084">
                <ele>52.300000</ele>
                <time>1970-01-01T04:08:53Z</time>
            </trkpt>
            <trkpt lon="101.414549" lat="14.161088">
                <ele>52.300000</ele>
                <time>1970-01-01T04:08:55Z</time>
            </trkpt>
            <trkpt lon="101.414583" lat="14.161088">
                <ele>51.900000</ele>
                <time>1970-01-01T04:08:58Z</time>
            </trkpt>
            <trkpt lon="101.414618" lat="14.161096">
                <ele>51.900000</ele>
                <time>1970-01-01T04:09:01Z</time>
            </trkpt>
            <trkpt lon="101.414649" lat="14.161100">
                <ele>51.400000</ele>
                <time>1970-01-01T04:09:04Z</time>
            </trkpt>
            <trkpt lon="101.414690" lat="14.161101">
                <ele>50.900000</ele>
                <time>1970-01-01T04:09:07Z</time>
            </trkpt>
            <trkpt lon="101.414721" lat="14.161105">
                <ele>50.500000</ele>
                <time>1970-01-01T04:09:10Z</time>
            </trkpt>
            <trkpt lon="101.414749" lat="14.161107">
                <ele>50.500000</ele>
                <time>1970-01-01T04:09:13Z</time>
            </trkpt>
            <trkpt lon="101.414789" lat="14.161112">
                <ele>50.300000</ele>
                <time>1970-01-01T04:09:21Z</time>
            </trkpt>
            <trkpt lon="101.414820" lat="14.161099">
                <ele>49.900000</ele>
                <time>1970-01-01T04:09:23Z</time>
            </trkpt>
            <trkpt lon="101.414854" lat="14.161086">
                <ele>49.700000</ele>
                <time>1970-01-01T04:09:25Z</time>
            </trkpt>
            <trkpt lon="101.414895" lat="14.161081">
                <ele>49.600000</ele>
                <time>1970-01-01T04:09:27Z</time>
            </trkpt>
            <trkpt lon="101.414930" lat="14.161090">
                <ele>49.600000</ele>
                <time>1970-01-01T04:09:29Z</time>
            </trkpt>
            <trkpt lon="101.414964" lat="14.161094">
                <ele>49.600000</ele>
                <time>1970-01-01T04:09:31Z</time>
            </trkpt>
            <trkpt lon="101.415006" lat="14.161098">
                <ele>49.600000</ele>
                <time>1970-01-01T04:09:33Z</time>
            </trkpt>
            <trkpt lon="101.415032" lat="14.161108">
                <ele>49.600000</ele>
                <time>1970-01-01T04:09:34Z</time>
            </trkpt>
            <trkpt lon="101.415059" lat="14.161122">
                <ele>49.400000</ele>
                <time>1970-01-01T04:09:35Z</time>
            </trkpt>
            <trkpt lon="101.415084" lat="14.161141">
                <ele>49.500000</ele>
                <time>1970-01-01T04:09:36Z</time>
            </trkpt>
            <trkpt lon="101.415105" lat="14.161161">
                <ele>49.300000</ele>
                <time>1970-01-01T04:09:37Z</time>
            </trkpt>
            <trkpt lon="101.415137" lat="14.161178">
                <ele>49.100000</ele>
                <time>1970-01-01T04:09:39Z</time>
            </trkpt>
            <trkpt lon="101.415184" lat="14.161185">
                <ele>48.900000</ele>
                <time>1970-01-01T04:09:41Z</time>
            </trkpt>
            <trkpt lon="101.415228" lat="14.161187">
                <ele>48.700000</ele>
                <time>1970-01-01T04:09:43Z</time>
            </trkpt>
            <trkpt lon="101.415270" lat="14.161189">
                <ele>48.500000</ele>
                <time>1970-01-01T04:09:45Z</time>
            </trkpt>
            <trkpt lon="101.415306" lat="14.161175">
                <ele>48.400000</ele>
                <time>1970-01-01T04:09:47Z</time>
            </trkpt>
            <trkpt lon="101.415320" lat="14.161151">
                <ele>48.300000</ele>
                <time>1970-01-01T04:09:49Z</time>
            </trkpt>
            <trkpt lon="101.415334" lat="14.161114">
                <ele>48.100000</ele>
                <time>1970-01-01T04:09:51Z</time>
            </trkpt>
            <trkpt lon="101.415348" lat="14.161088">
                <ele>48.000000</ele>
                <time>1970-01-01T04:09:52Z</time>
            </trkpt>
            <trkpt lon="101.415369" lat="14.161058">
                <ele>47.800000</ele>
                <time>1970-01-01T04:09:53Z</time>
            </trkpt>
            <trkpt lon="101.415398" lat="14.161029">
                <ele>47.500000</ele>
                <time>1970-01-01T04:09:54Z</time>
            </trkpt>
            <trkpt lon="101.415430" lat="14.161003">
                <ele>47.200000</ele>
                <time>1970-01-01T04:09:55Z</time>
            </trkpt>
            <trkpt lon="101.415506" lat="14.160989">
                <ele>46.800000</ele>
                <time>1970-01-01T04:09:56Z</time>
            </trkpt>
            <trkpt lon="101.415534" lat="14.160978">
                <ele>46.700000</ele>
                <time>1970-01-01T04:09:57Z</time>
            </trkpt>
            <trkpt lon="101.415568" lat="14.160948">
                <ele>46.200000</ele>
                <time>1970-01-01T04:09:58Z</time>
            </trkpt>
            <trkpt lon="101.415604" lat="14.160930">
                <ele>45.800000</ele>
                <time>1970-01-01T04:09:59Z</time>
            </trkpt>
            <trkpt lon="101.415626" lat="14.160912">
                <ele>45.600000</ele>
                <time>1970-01-01T04:10:00Z</time>
            </trkpt>
            <trkpt lon="101.415654" lat="14.160897">
                <ele>45.400000</ele>
                <time>1970-01-01T04:10:07Z</time>
            </trkpt>
            <trkpt lon="101.415645" lat="14.160869">
                <ele>45.200000</ele>
                <time>1970-01-01T04:10:20Z</time>
            </trkpt>
            <trkpt lon="101.415641" lat="14.160840">
                <ele>45.100000</ele>
                <time>1970-01-01T04:10:25Z</time>
            </trkpt>
            <trkpt lon="101.415650" lat="14.160812">
                <ele>45.000000</ele>
                <time>1970-01-01T04:10:27Z</time>
            </trkpt>
            <trkpt lon="101.415667" lat="14.160783">
                <ele>44.900000</ele>
                <time>1970-01-01T04:10:29Z</time>
            </trkpt>
            <trkpt lon="101.415682" lat="14.160731">
                <ele>44.700000</ele>
                <time>1970-01-01T04:10:31Z</time>
            </trkpt>
            <trkpt lon="101.415701" lat="14.160704">
                <ele>44.500000</ele>
                <time>1970-01-01T04:10:32Z</time>
            </trkpt>
            <trkpt lon="101.415728" lat="14.160685">
                <ele>44.300000</ele>
                <time>1970-01-01T04:10:33Z</time>
            </trkpt>
            <trkpt lon="101.415760" lat="14.160675">
                <ele>44.300000</ele>
                <time>1970-01-01T04:10:34Z</time>
            </trkpt>
            <trkpt lon="101.415798" lat="14.160659">
                <ele>44.300000</ele>
                <time>1970-01-01T04:10:35Z</time>
            </trkpt>
            <trkpt lon="101.415844" lat="14.160641">
                <ele>44.200000</ele>
                <time>1970-01-01T04:10:36Z</time>
            </trkpt>
            <trkpt lon="101.415898" lat="14.160574">
                <ele>43.600000</ele>
                <time>1970-01-01T04:10:37Z</time>
            </trkpt>
            <trkpt lon="101.415937" lat="14.160545">
                <ele>43.200000</ele>
                <time>1970-01-01T04:10:38Z</time>
            </trkpt>
            <trkpt lon="101.415970" lat="14.160520">
                <ele>42.800000</ele>
                <time>1970-01-01T04:10:39Z</time>
            </trkpt>
            <trkpt lon="101.416018" lat="14.160491">
                <ele>42.300000</ele>
                <time>1970-01-01T04:10:40Z</time>
            </trkpt>
            <trkpt lon="101.416043" lat="14.160453">
                <ele>41.900000</ele>
                <time>1970-01-01T04:10:42Z</time>
            </trkpt>
            <trkpt lon="101.416069" lat="14.160462">
                <ele>41.700000</ele>
                <time>1970-01-01T04:10:52Z</time>
            </trkpt>
            <trkpt lon="101.416111" lat="14.160451">
                <ele>41.400000</ele>
                <time>1970-01-01T04:10:54Z</time>
            </trkpt>
            <trkpt lon="101.416150" lat="14.160423">
                <ele>41.000000</ele>
                <time>1970-01-01T04:10:56Z</time>
            </trkpt>
            <trkpt lon="101.416178" lat="14.160397">
                <ele>40.700000</ele>
                <time>1970-01-01T04:10:58Z</time>
            </trkpt>
            <trkpt lon="101.416201" lat="14.160377">
                <ele>40.500000</ele>
                <time>1970-01-01T04:11:00Z</time>
            </trkpt>
            <trkpt lon="101.416226" lat="14.160357">
                <ele>40.400000</ele>
                <time>1970-01-01T04:11:02Z</time>
            </trkpt>
            <trkpt lon="101.416267" lat="14.160361">
                <ele>40.200000</ele>
                <time>1970-01-01T04:11:04Z</time>
            </trkpt>
            <trkpt lon="101.416299" lat="14.160374">
                <ele>40.000000</ele>
                <time>1970-01-01T04:11:05Z</time>
            </trkpt>
            <trkpt lon="101.416331" lat="14.160391">
                <ele>39.800000</ele>
                <time>1970-01-01T04:11:06Z</time>
            </trkpt>
            <trkpt lon="101.416359" lat="14.160410">
                <ele>39.600000</ele>
                <time>1970-01-01T04:11:07Z</time>
            </trkpt>
            <trkpt lon="101.416386" lat="14.160433">
                <ele>39.500000</ele>
                <time>1970-01-01T04:11:08Z</time>
            </trkpt>
            <trkpt lon="101.416413" lat="14.160462">
                <ele>39.500000</ele>
                <time>1970-01-01T04:11:09Z</time>
            </trkpt>
            <trkpt lon="101.416442" lat="14.160497">
                <ele>39.500000</ele>
                <time>1970-01-01T04:11:10Z</time>
            </trkpt>
            <trkpt lon="101.416471" lat="14.160532">
                <ele>39.500000</ele>
                <time>1970-01-01T04:11:11Z</time>
            </trkpt>
            <trkpt lon="101.416502" lat="14.160566">
                <ele>39.500000</ele>
                <time>1970-01-01T04:11:12Z</time>
            </trkpt>
            <trkpt lon="101.416532" lat="14.160598">
                <ele>39.400000</ele>
                <time>1970-01-01T04:11:13Z</time>
            </trkpt>
            <trkpt lon="101.416567" lat="14.160634">
                <ele>39.300000</ele>
                <time>1970-01-01T04:11:14Z</time>
            </trkpt>
            <trkpt lon="101.416599" lat="14.160665">
                <ele>39.200000</ele>
                <time>1970-01-01T04:11:15Z</time>
            </trkpt>
            <trkpt lon="101.416642" lat="14.160697">
                <ele>39.200000</ele>
                <time>1970-01-01T04:11:16Z</time>
            </trkpt>
            <trkpt lon="101.416675" lat="14.160728">
                <ele>39.000000</ele>
                <time>1970-01-01T04:11:17Z</time>
            </trkpt>
            <trkpt lon="101.416697" lat="14.160756">
                <ele>38.900000</ele>
                <time>1970-01-01T04:11:18Z</time>
            </trkpt>
            <trkpt lon="101.416728" lat="14.160781">
                <ele>38.800000</ele>
                <time>1970-01-01T04:11:19Z</time>
            </trkpt>
            <trkpt lon="101.416771" lat="14.160818">
                <ele>38.600000</ele>
                <time>1970-01-01T04:11:20Z</time>
            </trkpt>
            <trkpt lon="101.416808" lat="14.160864">
                <ele>38.400000</ele>
                <time>1970-01-01T04:11:21Z</time>
            </trkpt>
            <trkpt lon="101.416842" lat="14.160892">
                <ele>38.300000</ele>
                <time>1970-01-01T04:11:22Z</time>
            </trkpt>
            <trkpt lon="101.416888" lat="14.160928">
                <ele>38.500000</ele>
                <time>1970-01-01T04:11:23Z</time>
            </trkpt>
            <trkpt lon="101.416926" lat="14.160962">
                <ele>38.700000</ele>
                <time>1970-01-01T04:11:24Z</time>
            </trkpt>
            <trkpt lon="101.416973" lat="14.160994">
                <ele>39.100000</ele>
                <time>1970-01-01T04:11:25Z</time>
            </trkpt>
            <trkpt lon="101.417013" lat="14.161051">
                <ele>39.700000</ele>
                <time>1970-01-01T04:11:26Z</time>
            </trkpt>
            <trkpt lon="101.417049" lat="14.161082">
                <ele>40.000000</ele>
                <time>1970-01-01T04:11:27Z</time>
            </trkpt>
            <trkpt lon="101.417099" lat="14.161119">
                <ele>40.300000</ele>
                <time>1970-01-01T04:11:28Z</time>
            </trkpt>
            <trkpt lon="101.417133" lat="14.161150">
                <ele>40.700000</ele>
                <time>1970-01-01T04:11:29Z</time>
            </trkpt>
            <trkpt lon="101.417176" lat="14.161185">
                <ele>41.300000</ele>
                <time>1970-01-01T04:11:30Z</time>
            </trkpt>
            <trkpt lon="101.417216" lat="14.161216">
                <ele>41.600000</ele>
                <time>1970-01-01T04:11:31Z</time>
            </trkpt>
            <trkpt lon="101.417252" lat="14.161249">
                <ele>41.800000</ele>
                <time>1970-01-01T04:11:32Z</time>
            </trkpt>
            <trkpt lon="101.417280" lat="14.161287">
                <ele>41.900000</ele>
                <time>1970-01-01T04:11:33Z</time>
            </trkpt>
            <trkpt lon="101.417314" lat="14.161332">
                <ele>42.100000</ele>
                <time>1970-01-01T04:11:34Z</time>
            </trkpt>
            <trkpt lon="101.417346" lat="14.161371">
                <ele>42.000000</ele>
                <time>1970-01-01T04:11:35Z</time>
            </trkpt>
            <trkpt lon="101.417386" lat="14.161412">
                <ele>41.800000</ele>
                <time>1970-01-01T04:11:36Z</time>
            </trkpt>
            <trkpt lon="101.417432" lat="14.161456">
                <ele>41.500000</ele>
                <time>1970-01-01T04:11:37Z</time>
            </trkpt>
            <trkpt lon="101.417469" lat="14.161497">
                <ele>41.300000</ele>
                <time>1970-01-01T04:11:38Z</time>
            </trkpt>
            <trkpt lon="101.417514" lat="14.161532">
                <ele>41.000000</ele>
                <time>1970-01-01T04:11:39Z</time>
            </trkpt>
            <trkpt lon="101.417551" lat="14.161559">
                <ele>40.400000</ele>
                <time>1970-01-01T04:11:40Z</time>
            </trkpt>
            <trkpt lon="101.417595" lat="14.161600">
                <ele>39.700000</ele>
                <time>1970-01-01T04:11:41Z</time>
            </trkpt>
            <trkpt lon="101.417633" lat="14.161654">
                <ele>38.900000</ele>
                <time>1970-01-01T04:11:42Z</time>
            </trkpt>
            <trkpt lon="101.417677" lat="14.161715">
                <ele>38.100000</ele>
                <time>1970-01-01T04:11:43Z</time>
            </trkpt>
            <trkpt lon="101.417702" lat="14.161780">
                <ele>37.800000</ele>
                <time>1970-01-01T04:11:44Z</time>
            </trkpt>
            <trkpt lon="101.417739" lat="14.161846">
                <ele>37.400000</ele>
                <time>1970-01-01T04:11:45Z</time>
            </trkpt>
            <trkpt lon="101.417793" lat="14.161907">
                <ele>37.000000</ele>
                <time>1970-01-01T04:11:46Z</time>
            </trkpt>
            <trkpt lon="101.417833" lat="14.161959">
                <ele>36.700000</ele>
                <time>1970-01-01T04:11:47Z</time>
            </trkpt>
            <trkpt lon="101.417864" lat="14.162025">
                <ele>36.400000</ele>
                <time>1970-01-01T04:11:48Z</time>
            </trkpt>
            <trkpt lon="101.417891" lat="14.162082">
                <ele>36.200000</ele>
                <time>1970-01-01T04:11:49Z</time>
            </trkpt>
            <trkpt lon="101.417936" lat="14.162140">
                <ele>36.100000</ele>
                <time>1970-01-01T04:11:50Z</time>
            </trkpt>
            <trkpt lon="101.417974" lat="14.162204">
                <ele>36.100000</ele>
                <time>1970-01-01T04:11:51Z</time>
            </trkpt>
            <trkpt lon="101.418016" lat="14.162263">
                <ele>36.000000</ele>
                <time>1970-01-01T04:11:52Z</time>
            </trkpt>
            <trkpt lon="101.418061" lat="14.162326">
                <ele>35.900000</ele>
                <time>1970-01-01T04:11:53Z</time>
            </trkpt>
            <trkpt lon="101.418099" lat="14.162392">
                <ele>35.600000</ele>
                <time>1970-01-01T04:11:54Z</time>
            </trkpt>
            <trkpt lon="101.418139" lat="14.162464">
                <ele>35.300000</ele>
                <time>1970-01-01T04:11:55Z</time>
            </trkpt>
            <trkpt lon="101.418176" lat="14.162525">
                <ele>34.900000</ele>
                <time>1970-01-01T04:11:56Z</time>
            </trkpt>
            <trkpt lon="101.418223" lat="14.162583">
                <ele>34.500000</ele>
                <time>1970-01-01T04:11:57Z</time>
            </trkpt>
            <trkpt lon="101.418283" lat="14.162638">
                <ele>33.800000</ele>
                <time>1970-01-01T04:11:58Z</time>
            </trkpt>
            <trkpt lon="101.418313" lat="14.162711">
                <ele>32.900000</ele>
                <time>1970-01-01T04:11:59Z</time>
            </trkpt>
            <trkpt lon="101.418344" lat="14.162768">
                <ele>32.100000</ele>
                <time>1970-01-01T04:12:00Z</time>
            </trkpt>
            <trkpt lon="101.418395" lat="14.162828">
                <ele>31.500000</ele>
                <time>1970-01-01T04:12:01Z</time>
            </trkpt>
            <trkpt lon="101.418448" lat="14.162887">
                <ele>30.300000</ele>
                <time>1970-01-01T04:12:02Z</time>
            </trkpt>
            <trkpt lon="101.418473" lat="14.162948">
                <ele>29.700000</ele>
                <time>1970-01-01T04:12:03Z</time>
            </trkpt>
            <trkpt lon="101.418507" lat="14.163005">
                <ele>29.000000</ele>
                <time>1970-01-01T04:12:04Z</time>
            </trkpt>
            <trkpt lon="101.418505" lat="14.163036">
                <ele>28.700000</ele>
                <time>1970-01-01T04:12:05Z</time>
            </trkpt>
            <trkpt lon="101.418531" lat="14.163053">
                <ele>28.400000</ele>
                <time>1970-01-01T04:12:06Z</time>
            </trkpt>
            <trkpt lon="101.418545" lat="14.163083">
                <ele>28.200000</ele>
                <time>1970-01-01T04:12:07Z</time>
            </trkpt>
            <trkpt lon="101.418569" lat="14.163133">
                <ele>28.000000</ele>
                <time>1970-01-01T04:12:09Z</time>
            </trkpt>
            <trkpt lon="101.418576" lat="14.163162">
                <ele>27.900000</ele>
                <time>1970-01-01T04:12:10Z</time>
            </trkpt>
            <trkpt lon="101.418575" lat="14.163198">
                <ele>27.900000</ele>
                <time>1970-01-01T04:12:11Z</time>
            </trkpt>
            <trkpt lon="101.418558" lat="14.163237">
                <ele>27.900000</ele>
                <time>1970-01-01T04:12:12Z</time>
            </trkpt>
            <trkpt lon="101.418544" lat="14.163282">
                <ele>27.900000</ele>
                <time>1970-01-01T04:12:13Z</time>
            </trkpt>
            <trkpt lon="101.418528" lat="14.163323">
                <ele>27.900000</ele>
                <time>1970-01-01T04:12:14Z</time>
            </trkpt>
            <trkpt lon="101.418510" lat="14.163374">
                <ele>27.900000</ele>
                <time>1970-01-01T04:12:15Z</time>
            </trkpt>
            <trkpt lon="101.418508" lat="14.163412">
                <ele>28.000000</ele>
                <time>1970-01-01T04:12:16Z</time>
            </trkpt>
            <trkpt lon="101.418506" lat="14.163457">
                <ele>28.000000</ele>
                <time>1970-01-01T04:12:17Z</time>
            </trkpt>
            <trkpt lon="101.418503" lat="14.163505">
                <ele>28.100000</ele>
                <time>1970-01-01T04:12:18Z</time>
            </trkpt>
            <trkpt lon="101.418510" lat="14.163546">
                <ele>28.200000</ele>
                <time>1970-01-01T04:12:19Z</time>
            </trkpt>
            <trkpt lon="101.418510" lat="14.163584">
                <ele>28.300000</ele>
                <time>1970-01-01T04:12:20Z</time>
            </trkpt>
            <trkpt lon="101.418503" lat="14.163618">
                <ele>28.400000</ele>
                <time>1970-01-01T04:12:21Z</time>
            </trkpt>
            <trkpt lon="101.418506" lat="14.163667">
                <ele>28.500000</ele>
                <time>1970-01-01T04:12:22Z</time>
            </trkpt>
            <trkpt lon="101.418495" lat="14.163723">
                <ele>28.700000</ele>
                <time>1970-01-01T04:12:23Z</time>
            </trkpt>
            <trkpt lon="101.418477" lat="14.163781">
                <ele>28.800000</ele>
                <time>1970-01-01T04:12:24Z</time>
            </trkpt>
            <trkpt lon="101.418486" lat="14.163829">
                <ele>28.900000</ele>
                <time>1970-01-01T04:12:25Z</time>
            </trkpt>
            <trkpt lon="101.418485" lat="14.163880">
                <ele>28.900000</ele>
                <time>1970-01-01T04:12:26Z</time>
            </trkpt>
            <trkpt lon="101.418482" lat="14.163941">
                <ele>29.000000</ele>
                <time>1970-01-01T04:12:27Z</time>
            </trkpt>
            <trkpt lon="101.418482" lat="14.163993">
                <ele>29.000000</ele>
                <time>1970-01-01T04:12:28Z</time>
            </trkpt>
            <trkpt lon="101.418478" lat="14.164047">
                <ele>29.000000</ele>
                <time>1970-01-01T04:12:29Z</time>
            </trkpt>
            <trkpt lon="101.418469" lat="14.164107">
                <ele>29.000000</ele>
                <time>1970-01-01T04:12:30Z</time>
            </trkpt>
            <trkpt lon="101.418459" lat="14.164169">
                <ele>29.000000</ele>
                <time>1970-01-01T04:12:31Z</time>
            </trkpt>
            <trkpt lon="101.418461" lat="14.164224">
                <ele>29.000000</ele>
                <time>1970-01-01T04:12:32Z</time>
            </trkpt>
            <trkpt lon="101.418460" lat="14.164288">
                <ele>29.000000</ele>
                <time>1970-01-01T04:12:33Z</time>
            </trkpt>
            <trkpt lon="101.418454" lat="14.164346">
                <ele>29.000000</ele>
                <time>1970-01-01T04:12:34Z</time>
            </trkpt>
            <trkpt lon="101.418449" lat="14.164411">
                <ele>29.000000</ele>
                <time>1970-01-01T04:12:35Z</time>
            </trkpt>
            <trkpt lon="101.418451" lat="14.164471">
                <ele>29.000000</ele>
                <time>1970-01-01T04:12:36Z</time>
            </trkpt>
            <trkpt lon="101.418447" lat="14.164534">
                <ele>29.000000</ele>
                <time>1970-01-01T04:12:37Z</time>
            </trkpt>
            <trkpt lon="101.418443" lat="14.164595">
                <ele>29.100000</ele>
                <time>1970-01-01T04:12:38Z</time>
            </trkpt>
            <trkpt lon="101.418447" lat="14.164656">
                <ele>29.100000</ele>
                <time>1970-01-01T04:12:39Z</time>
            </trkpt>
            <trkpt lon="101.418454" lat="14.164711">
                <ele>29.100000</ele>
                <time>1970-01-01T04:12:40Z</time>
            </trkpt>
            <trkpt lon="101.418445" lat="14.164775">
                <ele>29.100000</ele>
                <time>1970-01-01T04:12:41Z</time>
            </trkpt>
            <trkpt lon="101.418440" lat="14.164836">
                <ele>29.100000</ele>
                <time>1970-01-01T04:12:42Z</time>
            </trkpt>
            <trkpt lon="101.418433" lat="14.164906">
                <ele>29.000000</ele>
                <time>1970-01-01T04:12:43Z</time>
            </trkpt>
            <trkpt lon="101.418430" lat="14.164971">
                <ele>29.000000</ele>
                <time>1970-01-01T04:12:44Z</time>
            </trkpt>
            <trkpt lon="101.418422" lat="14.165038">
                <ele>28.900000</ele>
                <time>1970-01-01T04:12:45Z</time>
            </trkpt>
            <trkpt lon="101.418420" lat="14.165113">
                <ele>28.700000</ele>
                <time>1970-01-01T04:12:46Z</time>
            </trkpt>
            <trkpt lon="101.418416" lat="14.165185">
                <ele>28.500000</ele>
                <time>1970-01-01T04:12:47Z</time>
            </trkpt>
            <trkpt lon="101.418415" lat="14.165252">
                <ele>28.300000</ele>
                <time>1970-01-01T04:12:48Z</time>
            </trkpt>
            <trkpt lon="101.418412" lat="14.165323">
                <ele>28.200000</ele>
                <time>1970-01-01T04:12:49Z</time>
            </trkpt>
            <trkpt lon="101.418401" lat="14.165388">
                <ele>28.200000</ele>
                <time>1970-01-01T04:12:50Z</time>
            </trkpt>
            <trkpt lon="101.418400" lat="14.165452">
                <ele>28.200000</ele>
                <time>1970-01-01T04:12:51Z</time>
            </trkpt>
            <trkpt lon="101.418402" lat="14.165524">
                <ele>28.200000</ele>
                <time>1970-01-01T04:12:52Z</time>
            </trkpt>
            <trkpt lon="101.418402" lat="14.165592">
                <ele>28.100000</ele>
                <time>1970-01-01T04:12:53Z</time>
            </trkpt>
            <trkpt lon="101.418402" lat="14.165657">
                <ele>28.100000</ele>
                <time>1970-01-01T04:12:54Z</time>
            </trkpt>
            <trkpt lon="101.418398" lat="14.165727">
                <ele>27.900000</ele>
                <time>1970-01-01T04:12:55Z</time>
            </trkpt>
            <trkpt lon="101.418391" lat="14.165791">
                <ele>27.800000</ele>
                <time>1970-01-01T04:12:56Z</time>
            </trkpt>
            <trkpt lon="101.418381" lat="14.165856">
                <ele>27.500000</ele>
                <time>1970-01-01T04:12:57Z</time>
            </trkpt>
            <trkpt lon="101.418376" lat="14.165915">
                <ele>27.400000</ele>
                <time>1970-01-01T04:12:58Z</time>
            </trkpt>
            <trkpt lon="101.418375" lat="14.165977">
                <ele>27.200000</ele>
                <time>1970-01-01T04:12:59Z</time>
            </trkpt>
            <trkpt lon="101.418365" lat="14.166039">
                <ele>27.000000</ele>
                <time>1970-01-01T04:13:00Z</time>
            </trkpt>
            <trkpt lon="101.418359" lat="14.166099">
                <ele>26.700000</ele>
                <time>1970-01-01T04:13:01Z</time>
            </trkpt>
            <trkpt lon="101.418352" lat="14.166162">
                <ele>26.500000</ele>
                <time>1970-01-01T04:13:02Z</time>
            </trkpt>
            <trkpt lon="101.418346" lat="14.166222">
                <ele>26.400000</ele>
                <time>1970-01-01T04:13:03Z</time>
            </trkpt>
            <trkpt lon="101.418337" lat="14.166281">
                <ele>26.300000</ele>
                <time>1970-01-01T04:13:04Z</time>
            </trkpt>
            <trkpt lon="101.418328" lat="14.166332">
                <ele>26.300000</ele>
                <time>1970-01-01T04:13:05Z</time>
            </trkpt>
            <trkpt lon="101.418319" lat="14.166385">
                <ele>26.300000</ele>
                <time>1970-01-01T04:13:06Z</time>
            </trkpt>
            <trkpt lon="101.418314" lat="14.166434">
                <ele>26.200000</ele>
                <time>1970-01-01T04:13:07Z</time>
            </trkpt>
            <trkpt lon="101.418312" lat="14.166486">
                <ele>26.200000</ele>
                <time>1970-01-01T04:13:08Z</time>
            </trkpt>
            <trkpt lon="101.418304" lat="14.166545">
                <ele>26.100000</ele>
                <time>1970-01-01T04:13:09Z</time>
            </trkpt>
            <trkpt lon="101.418298" lat="14.166604">
                <ele>26.000000</ele>
                <time>1970-01-01T04:13:10Z</time>
            </trkpt>
            <trkpt lon="101.418305" lat="14.166647">
                <ele>26.000000</ele>
                <time>1970-01-01T04:13:11Z</time>
            </trkpt>
            <trkpt lon="101.418303" lat="14.166696">
                <ele>25.900000</ele>
                <time>1970-01-01T04:13:12Z</time>
            </trkpt>
            <trkpt lon="101.418303" lat="14.166755">
                <ele>25.900000</ele>
                <time>1970-01-01T04:13:13Z</time>
            </trkpt>
            <trkpt lon="101.418305" lat="14.166806">
                <ele>25.900000</ele>
                <time>1970-01-01T04:13:14Z</time>
            </trkpt>
            <trkpt lon="101.418306" lat="14.166861">
                <ele>25.800000</ele>
                <time>1970-01-01T04:13:15Z</time>
            </trkpt>
            <trkpt lon="101.418299" lat="14.166914">
                <ele>25.800000</ele>
                <time>1970-01-01T04:13:16Z</time>
            </trkpt>
            <trkpt lon="101.418286" lat="14.166981">
                <ele>25.800000</ele>
                <time>1970-01-01T04:13:17Z</time>
            </trkpt>
            <trkpt lon="101.418277" lat="14.167051">
                <ele>25.800000</ele>
                <time>1970-01-01T04:13:18Z</time>
            </trkpt>
            <trkpt lon="101.418268" lat="14.167116">
                <ele>25.800000</ele>
                <time>1970-01-01T04:13:19Z</time>
            </trkpt>
            <trkpt lon="101.418260" lat="14.167178">
                <ele>25.700000</ele>
                <time>1970-01-01T04:13:20Z</time>
            </trkpt>
            <trkpt lon="101.418251" lat="14.167241">
                <ele>25.600000</ele>
                <time>1970-01-01T04:13:21Z</time>
            </trkpt>
            <trkpt lon="101.418229" lat="14.167311">
                <ele>25.600000</ele>
                <time>1970-01-01T04:13:22Z</time>
            </trkpt>
            <trkpt lon="101.418214" lat="14.167392">
                <ele>25.400000</ele>
                <time>1970-01-01T04:13:23Z</time>
            </trkpt>
            <trkpt lon="101.418195" lat="14.167467">
                <ele>25.300000</ele>
                <time>1970-01-01T04:13:24Z</time>
            </trkpt>
            <trkpt lon="101.418176" lat="14.167537">
                <ele>25.200000</ele>
                <time>1970-01-01T04:13:25Z</time>
            </trkpt>
            <trkpt lon="101.418155" lat="14.167612">
                <ele>25.100000</ele>
                <time>1970-01-01T04:13:26Z</time>
            </trkpt>
            <trkpt lon="101.418136" lat="14.167673">
                <ele>25.100000</ele>
                <time>1970-01-01T04:13:27Z</time>
            </trkpt>
            <trkpt lon="101.418124" lat="14.167723">
                <ele>25.000000</ele>
                <time>1970-01-01T04:13:28Z</time>
            </trkpt>
            <trkpt lon="101.418116" lat="14.167758">
                <ele>25.000000</ele>
                <time>1970-01-01T04:13:29Z</time>
            </trkpt>
            <trkpt lon="101.418142" lat="14.167770">
                <ele>24.900000</ele>
                <time>1970-01-01T04:13:35Z</time>
            </trkpt>
            <trkpt lon="101.418170" lat="14.167729">
                <ele>24.900000</ele>
                <time>1970-01-01T04:13:37Z</time>
            </trkpt>
            <trkpt lon="101.418184" lat="14.167701">
                <ele>24.900000</ele>
                <time>1970-01-01T04:13:38Z</time>
            </trkpt>
            <trkpt lon="101.418186" lat="14.167670">
                <ele>24.800000</ele>
                <time>1970-01-01T04:13:39Z</time>
            </trkpt>
            <trkpt lon="101.418176" lat="14.167640">
                <ele>24.800000</ele>
                <time>1970-01-01T04:13:40Z</time>
            </trkpt>
            <trkpt lon="101.418160" lat="14.167611">
                <ele>24.700000</ele>
                <time>1970-01-01T04:13:41Z</time>
            </trkpt>
            <trkpt lon="101.418134" lat="14.167587">
                <ele>24.400000</ele>
                <time>1970-01-01T04:13:42Z</time>
            </trkpt>
            <trkpt lon="101.418104" lat="14.167571">
                <ele>24.200000</ele>
                <time>1970-01-01T04:13:43Z</time>
            </trkpt>
            <trkpt lon="101.418069" lat="14.167561">
                <ele>24.000000</ele>
                <time>1970-01-01T04:13:44Z</time>
            </trkpt>
            <trkpt lon="101.418034" lat="14.167557">
                <ele>24.000000</ele>
                <time>1970-01-01T04:13:45Z</time>
            </trkpt>
            <trkpt lon="101.417999" lat="14.167558">
                <ele>24.000000</ele>
                <time>1970-01-01T04:13:46Z</time>
            </trkpt>
            <trkpt lon="101.417967" lat="14.167566">
                <ele>23.900000</ele>
                <time>1970-01-01T04:13:47Z</time>
            </trkpt>
            <trkpt lon="101.417929" lat="14.167597">
                <ele>23.900000</ele>
                <time>1970-01-01T04:13:49Z</time>
            </trkpt>
            <trkpt lon="101.417903" lat="14.167615">
                <ele>23.900000</ele>
                <time>1970-01-01T04:13:52Z</time>
            </trkpt>
            <trkpt lon="101.417904" lat="14.167588">
                <ele>23.900000</ele>
                <time>1970-01-01T04:13:55Z</time>
            </trkpt>
            <trkpt lon="101.417864" lat="14.167591">
                <ele>23.800000</ele>
                <time>1970-01-01T04:13:58Z</time>
            </trkpt>
            <trkpt lon="101.417828" lat="14.167632">
                <ele>23.600000</ele>
                <time>1970-01-01T04:14:00Z</time>
            </trkpt>
            <trkpt lon="101.417806" lat="14.167654">
                <ele>23.500000</ele>
                <time>1970-01-01T04:14:01Z</time>
            </trkpt>
            <trkpt lon="101.417780" lat="14.167681">
                <ele>23.300000</ele>
                <time>1970-01-01T04:14:02Z</time>
            </trkpt>
            <trkpt lon="101.417748" lat="14.167710">
                <ele>23.000000</ele>
                <time>1970-01-01T04:14:03Z</time>
            </trkpt>
            <trkpt lon="101.417713" lat="14.167735">
                <ele>22.600000</ele>
                <time>1970-01-01T04:14:04Z</time>
            </trkpt>
            <trkpt lon="101.417673" lat="14.167758">
                <ele>22.300000</ele>
                <time>1970-01-01T04:14:05Z</time>
            </trkpt>
            <trkpt lon="101.417632" lat="14.167781">
                <ele>22.100000</ele>
                <time>1970-01-01T04:14:06Z</time>
            </trkpt>
            <trkpt lon="101.417592" lat="14.167805">
                <ele>22.000000</ele>
                <time>1970-01-01T04:14:07Z</time>
            </trkpt>
            <trkpt lon="101.417553" lat="14.167831">
                <ele>22.000000</ele>
                <time>1970-01-01T04:14:08Z</time>
            </trkpt>
            <trkpt lon="101.417513" lat="14.167857">
                <ele>22.000000</ele>
                <time>1970-01-01T04:14:09Z</time>
            </trkpt>
            <trkpt lon="101.417475" lat="14.167884">
                <ele>22.000000</ele>
                <time>1970-01-01T04:14:10Z</time>
            </trkpt>
            <trkpt lon="101.417438" lat="14.167910">
                <ele>22.100000</ele>
                <time>1970-01-01T04:14:11Z</time>
            </trkpt>
            <trkpt lon="101.417385" lat="14.167948">
                <ele>22.400000</ele>
                <time>1970-01-01T04:14:12Z</time>
            </trkpt>
            <trkpt lon="101.417349" lat="14.167979">
                <ele>22.600000</ele>
                <time>1970-01-01T04:14:13Z</time>
            </trkpt>
            <trkpt lon="101.417319" lat="14.168005">
                <ele>22.800000</ele>
                <time>1970-01-01T04:14:14Z</time>
            </trkpt>
            <trkpt lon="101.417277" lat="14.168047">
                <ele>23.000000</ele>
                <time>1970-01-01T04:14:15Z</time>
            </trkpt>
            <trkpt lon="101.417233" lat="14.168082">
                <ele>23.300000</ele>
                <time>1970-01-01T04:14:16Z</time>
            </trkpt>
            <trkpt lon="101.417180" lat="14.168106">
                <ele>23.600000</ele>
                <time>1970-01-01T04:14:17Z</time>
            </trkpt>
            <trkpt lon="101.417148" lat="14.168121">
                <ele>23.800000</ele>
                <time>1970-01-01T04:14:18Z</time>
            </trkpt>
            <trkpt lon="101.417136" lat="14.168149">
                <ele>23.900000</ele>
                <time>1970-01-01T04:14:19Z</time>
            </trkpt>
            <trkpt lon="101.417117" lat="14.168184">
                <ele>24.100000</ele>
                <time>1970-01-01T04:14:20Z</time>
            </trkpt>
            <trkpt lon="101.417087" lat="14.168214">
                <ele>24.200000</ele>
                <time>1970-01-01T04:14:21Z</time>
            </trkpt>
            <trkpt lon="101.417059" lat="14.168239">
                <ele>24.300000</ele>
                <time>1970-01-01T04:14:22Z</time>
            </trkpt>
            <trkpt lon="101.417023" lat="14.168259">
                <ele>24.600000</ele>
                <time>1970-01-01T04:14:23Z</time>
            </trkpt>
            <trkpt lon="101.416988" lat="14.168286">
                <ele>24.800000</ele>
                <time>1970-01-01T04:14:24Z</time>
            </trkpt>
            <trkpt lon="101.416963" lat="14.168315">
                <ele>24.900000</ele>
                <time>1970-01-01T04:14:25Z</time>
            </trkpt>
            <trkpt lon="101.416936" lat="14.168340">
                <ele>25.000000</ele>
                <time>1970-01-01T04:14:26Z</time>
            </trkpt>
            <trkpt lon="101.416900" lat="14.168364">
                <ele>25.200000</ele>
                <time>1970-01-01T04:14:28Z</time>
            </trkpt>
            <trkpt lon="101.416871" lat="14.168364">
                <ele>25.400000</ele>
                <time>1970-01-01T04:15:08Z</time>
            </trkpt>
            <trkpt lon="101.416838" lat="14.168381">
                <ele>25.600000</ele>
                <time>1970-01-01T04:15:21Z</time>
            </trkpt>
            <trkpt lon="101.416801" lat="14.168409">
                <ele>25.800000</ele>
                <time>1970-01-01T04:15:23Z</time>
            </trkpt>
            <trkpt lon="101.416779" lat="14.168427">
                <ele>25.900000</ele>
                <time>1970-01-01T04:15:24Z</time>
            </trkpt>
            <trkpt lon="101.416735" lat="14.168456">
                <ele>26.000000</ele>
                <time>1970-01-01T04:15:26Z</time>
            </trkpt>
            <trkpt lon="101.416690" lat="14.168485">
                <ele>26.000000</ele>
                <time>1970-01-01T04:15:28Z</time>
            </trkpt>
            <trkpt lon="101.416647" lat="14.168514">
                <ele>26.000000</ele>
                <time>1970-01-01T04:15:30Z</time>
            </trkpt>
            <trkpt lon="101.416600" lat="14.168542">
                <ele>26.100000</ele>
                <time>1970-01-01T04:15:32Z</time>
            </trkpt>
            <trkpt lon="101.416555" lat="14.168571">
                <ele>26.300000</ele>
                <time>1970-01-01T04:15:34Z</time>
            </trkpt>
            <trkpt lon="101.416517" lat="14.168598">
                <ele>26.500000</ele>
                <time>1970-01-01T04:15:36Z</time>
            </trkpt>
            <trkpt lon="101.416482" lat="14.168615">
                <ele>26.700000</ele>
                <time>1970-01-01T04:15:38Z</time>
            </trkpt>
            <trkpt lon="101.416451" lat="14.168632">
                <ele>26.900000</ele>
                <time>1970-01-01T04:15:40Z</time>
            </trkpt>
            <trkpt lon="101.416408" lat="14.168663">
                <ele>27.000000</ele>
                <time>1970-01-01T04:15:42Z</time>
            </trkpt>
            <trkpt lon="101.416383" lat="14.168681">
                <ele>27.100000</ele>
                <time>1970-01-01T04:15:43Z</time>
            </trkpt>
            <trkpt lon="101.416354" lat="14.168700">
                <ele>27.100000</ele>
                <time>1970-01-01T04:15:44Z</time>
            </trkpt>
            <trkpt lon="101.416323" lat="14.168720">
                <ele>27.100000</ele>
                <time>1970-01-01T04:15:45Z</time>
            </trkpt>
            <trkpt lon="101.416294" lat="14.168738">
                <ele>27.200000</ele>
                <time>1970-01-01T04:15:46Z</time>
            </trkpt>
            <trkpt lon="101.416263" lat="14.168757">
                <ele>27.300000</ele>
                <time>1970-01-01T04:15:47Z</time>
            </trkpt>
            <trkpt lon="101.416232" lat="14.168779">
                <ele>27.400000</ele>
                <time>1970-01-01T04:15:48Z</time>
            </trkpt>
            <trkpt lon="101.416201" lat="14.168800">
                <ele>27.500000</ele>
                <time>1970-01-01T04:15:49Z</time>
            </trkpt>
            <trkpt lon="101.416171" lat="14.168818">
                <ele>27.600000</ele>
                <time>1970-01-01T04:15:50Z</time>
            </trkpt>
            <trkpt lon="101.416142" lat="14.168837">
                <ele>27.700000</ele>
                <time>1970-01-01T04:15:51Z</time>
            </trkpt>
            <trkpt lon="101.416112" lat="14.168857">
                <ele>27.700000</ele>
                <time>1970-01-01T04:15:52Z</time>
            </trkpt>
            <trkpt lon="101.416079" lat="14.168880">
                <ele>27.800000</ele>
                <time>1970-01-01T04:15:53Z</time>
            </trkpt>
            <trkpt lon="101.416049" lat="14.168902">
                <ele>27.900000</ele>
                <time>1970-01-01T04:15:54Z</time>
            </trkpt>
            <trkpt lon="101.416020" lat="14.168927">
                <ele>28.000000</ele>
                <time>1970-01-01T04:15:55Z</time>
            </trkpt>
            <trkpt lon="101.415995" lat="14.168959">
                <ele>28.000000</ele>
                <time>1970-01-01T04:15:56Z</time>
            </trkpt>
            <trkpt lon="101.415975" lat="14.168995">
                <ele>28.000000</ele>
                <time>1970-01-01T04:15:57Z</time>
            </trkpt>
            <trkpt lon="101.415955" lat="14.169026">
                <ele>27.900000</ele>
                <time>1970-01-01T04:15:58Z</time>
            </trkpt>
            <trkpt lon="101.415929" lat="14.169055">
                <ele>27.800000</ele>
                <time>1970-01-01T04:15:59Z</time>
            </trkpt>
            <trkpt lon="101.415899" lat="14.169081">
                <ele>27.600000</ele>
                <time>1970-01-01T04:16:00Z</time>
            </trkpt>
            <trkpt lon="101.415867" lat="14.169101">
                <ele>27.400000</ele>
                <time>1970-01-01T04:16:01Z</time>
            </trkpt>
            <trkpt lon="101.415831" lat="14.169117">
                <ele>27.200000</ele>
                <time>1970-01-01T04:16:02Z</time>
            </trkpt>
            <trkpt lon="101.415795" lat="14.169132">
                <ele>27.100000</ele>
                <time>1970-01-01T04:16:03Z</time>
            </trkpt>
            <trkpt lon="101.415761" lat="14.169149">
                <ele>27.100000</ele>
                <time>1970-01-01T04:16:04Z</time>
            </trkpt>
            <trkpt lon="101.415730" lat="14.169168">
                <ele>27.000000</ele>
                <time>1970-01-01T04:16:05Z</time>
            </trkpt>
            <trkpt lon="101.415701" lat="14.169188">
                <ele>27.000000</ele>
                <time>1970-01-01T04:16:06Z</time>
            </trkpt>
            <trkpt lon="101.415671" lat="14.169211">
                <ele>27.000000</ele>
                <time>1970-01-01T04:16:07Z</time>
            </trkpt>
            <trkpt lon="101.415638" lat="14.169240">
                <ele>27.000000</ele>
                <time>1970-01-01T04:16:08Z</time>
            </trkpt>
            <trkpt lon="101.415600" lat="14.169275">
                <ele>27.000000</ele>
                <time>1970-01-01T04:16:09Z</time>
            </trkpt>
            <trkpt lon="101.415551" lat="14.169280">
                <ele>27.000000</ele>
                <time>1970-01-01T04:16:10Z</time>
            </trkpt>
            <trkpt lon="101.415503" lat="14.169308">
                <ele>27.000000</ele>
                <time>1970-01-01T04:16:11Z</time>
            </trkpt>
            <trkpt lon="101.415460" lat="14.169338">
                <ele>27.000000</ele>
                <time>1970-01-01T04:16:12Z</time>
            </trkpt>
            <trkpt lon="101.415410" lat="14.169373">
                <ele>27.000000</ele>
                <time>1970-01-01T04:16:13Z</time>
            </trkpt>
            <trkpt lon="101.415356" lat="14.169400">
                <ele>26.700000</ele>
                <time>1970-01-01T04:16:14Z</time>
            </trkpt>
            <trkpt lon="101.415309" lat="14.169378">
                <ele>26.500000</ele>
                <time>1970-01-01T04:16:16Z</time>
            </trkpt>
            <trkpt lon="101.415254" lat="14.169279">
                <ele>26.600000</ele>
                <time>1970-01-01T04:16:17Z</time>
            </trkpt>
            <trkpt lon="101.415237" lat="14.169255">
                <ele>26.600000</ele>
                <time>1970-01-01T04:16:18Z</time>
            </trkpt>
            <trkpt lon="101.415223" lat="14.169224">
                <ele>26.700000</ele>
                <time>1970-01-01T04:16:19Z</time>
            </trkpt>
            <trkpt lon="101.415196" lat="14.169196">
                <ele>27.000000</ele>
                <time>1970-01-01T04:16:20Z</time>
            </trkpt>
            <trkpt lon="101.415160" lat="14.169161">
                <ele>27.200000</ele>
                <time>1970-01-01T04:16:22Z</time>
            </trkpt>
            <trkpt lon="101.415149" lat="14.169104">
                <ele>27.700000</ele>
                <time>1970-01-01T04:16:24Z</time>
            </trkpt>
            <trkpt lon="101.415112" lat="14.169089">
                <ele>28.000000</ele>
                <time>1970-01-01T04:16:26Z</time>
            </trkpt>
            <trkpt lon="101.415063" lat="14.169071">
                <ele>28.500000</ele>
                <time>1970-01-01T04:16:28Z</time>
            </trkpt>
            <trkpt lon="101.415023" lat="14.169036">
                <ele>28.700000</ele>
                <time>1970-01-01T04:16:30Z</time>
            </trkpt>
            <trkpt lon="101.414999" lat="14.169008">
                <ele>29.000000</ele>
                <time>1970-01-01T04:16:31Z</time>
            </trkpt>
            <trkpt lon="101.414978" lat="14.168977">
                <ele>29.200000</ele>
                <time>1970-01-01T04:16:32Z</time>
            </trkpt>
            <trkpt lon="101.414959" lat="14.168947">
                <ele>29.400000</ele>
                <time>1970-01-01T04:16:33Z</time>
            </trkpt>
            <trkpt lon="101.414941" lat="14.168923">
                <ele>29.400000</ele>
                <time>1970-01-01T04:16:34Z</time>
            </trkpt>
            <trkpt lon="101.414901" lat="14.168889">
                <ele>29.600000</ele>
                <time>1970-01-01T04:16:36Z</time>
            </trkpt>
            <trkpt lon="101.414863" lat="14.168861">
                <ele>29.900000</ele>
                <time>1970-01-01T04:16:38Z</time>
            </trkpt>
            <trkpt lon="101.414822" lat="14.168829">
                <ele>30.200000</ele>
                <time>1970-01-01T04:16:40Z</time>
            </trkpt>
            <trkpt lon="101.414781" lat="14.168811">
                <ele>30.800000</ele>
                <time>1970-01-01T04:16:42Z</time>
            </trkpt>
            <trkpt lon="101.414742" lat="14.168769">
                <ele>31.300000</ele>
                <time>1970-01-01T04:16:44Z</time>
            </trkpt>
            <trkpt lon="101.414721" lat="14.168734">
                <ele>31.600000</ele>
                <time>1970-01-01T04:16:46Z</time>
            </trkpt>
            <trkpt lon="101.414694" lat="14.168700">
                <ele>32.000000</ele>
                <time>1970-01-01T04:16:54Z</time>
            </trkpt>
            <trkpt lon="101.414630" lat="14.168709">
                <ele>31.700000</ele>
                <time>1970-01-01T04:18:13Z</time>
            </trkpt>
            <trkpt lon="101.414645" lat="14.168737">
                <ele>31.700000</ele>
                <time>1970-01-01T04:18:35Z</time>
            </trkpt>
            <trkpt lon="101.414684" lat="14.168761">
                <ele>31.400000</ele>
                <time>1970-01-01T04:18:38Z</time>
            </trkpt>
            <trkpt lon="101.414720" lat="14.168786">
                <ele>31.100000</ele>
                <time>1970-01-01T04:18:40Z</time>
            </trkpt>
            <trkpt lon="101.414759" lat="14.168794">
                <ele>30.800000</ele>
                <time>1970-01-01T04:18:42Z</time>
            </trkpt>
            <trkpt lon="101.414806" lat="14.168805">
                <ele>30.400000</ele>
                <time>1970-01-01T04:18:44Z</time>
            </trkpt>
            <trkpt lon="101.414839" lat="14.168839">
                <ele>29.900000</ele>
                <time>1970-01-01T04:18:46Z</time>
            </trkpt>
            <trkpt lon="101.414875" lat="14.168878">
                <ele>29.600000</ele>
                <time>1970-01-01T04:18:48Z</time>
            </trkpt>
            <trkpt lon="101.414893" lat="14.168898">
                <ele>29.500000</ele>
                <time>1970-01-01T04:18:49Z</time>
            </trkpt>
            <trkpt lon="101.414912" lat="14.168928">
                <ele>29.300000</ele>
                <time>1970-01-01T04:18:51Z</time>
            </trkpt>
            <trkpt lon="101.414910" lat="14.168958">
                <ele>29.200000</ele>
                <time>1970-01-01T04:18:55Z</time>
            </trkpt>
            <trkpt lon="101.414871" lat="14.168985">
                <ele>29.300000</ele>
                <time>1970-01-01T04:18:57Z</time>
            </trkpt>
            <trkpt lon="101.414834" lat="14.169005">
                <ele>29.400000</ele>
                <time>1970-01-01T04:18:59Z</time>
            </trkpt>
            <trkpt lon="101.414800" lat="14.169009">
                <ele>29.400000</ele>
                <time>1970-01-01T04:19:01Z</time>
            </trkpt>
            <trkpt lon="101.414768" lat="14.169006">
                <ele>29.600000</ele>
                <time>1970-01-01T04:19:03Z</time>
            </trkpt>
            <trkpt lon="101.414733" lat="14.169005">
                <ele>29.800000</ele>
                <time>1970-01-01T04:19:05Z</time>
            </trkpt>
            <trkpt lon="101.414706" lat="14.168996">
                <ele>29.900000</ele>
                <time>1970-01-01T04:19:07Z</time>
            </trkpt>
            <trkpt lon="101.414671" lat="14.169015">
                <ele>29.900000</ele>
                <time>1970-01-01T04:19:10Z</time>
            </trkpt>
            <trkpt lon="101.414633" lat="14.169025">
                <ele>30.000000</ele>
                <time>1970-01-01T04:19:13Z</time>
            </trkpt>
            <trkpt lon="101.414608" lat="14.169006">
                <ele>30.100000</ele>
                <time>1970-01-01T04:19:15Z</time>
            </trkpt>
            <trkpt lon="101.414586" lat="14.168974">
                <ele>30.200000</ele>
                <time>1970-01-01T04:19:17Z</time>
            </trkpt>
            <trkpt lon="101.414556" lat="14.168935">
                <ele>30.300000</ele>
                <time>1970-01-01T04:19:19Z</time>
            </trkpt>
            <trkpt lon="101.414523" lat="14.168895">
                <ele>30.900000</ele>
                <time>1970-01-01T04:19:21Z</time>
            </trkpt>
            <trkpt lon="101.414480" lat="14.168865">
                <ele>31.400000</ele>
                <time>1970-01-01T04:19:23Z</time>
            </trkpt>
            <trkpt lon="101.414451" lat="14.168859">
                <ele>31.800000</ele>
                <time>1970-01-01T04:19:24Z</time>
            </trkpt>
            <trkpt lon="101.414421" lat="14.168863">
                <ele>31.800000</ele>
                <time>1970-01-01T04:19:25Z</time>
            </trkpt>
            <trkpt lon="101.414394" lat="14.168874">
                <ele>32.100000</ele>
                <time>1970-01-01T04:19:26Z</time>
            </trkpt>
            <trkpt lon="101.414369" lat="14.168888">
                <ele>32.100000</ele>
                <time>1970-01-01T04:19:27Z</time>
            </trkpt>
            <trkpt lon="101.414341" lat="14.168905">
                <ele>32.600000</ele>
                <time>1970-01-01T04:19:28Z</time>
            </trkpt>
            <trkpt lon="101.414317" lat="14.168920">
                <ele>33.100000</ele>
                <time>1970-01-01T04:19:29Z</time>
            </trkpt>
            <trkpt lon="101.414268" lat="14.168948">
                <ele>33.600000</ele>
                <time>1970-01-01T04:19:31Z</time>
            </trkpt>
            <trkpt lon="101.414240" lat="14.168963">
                <ele>33.600000</ele>
                <time>1970-01-01T04:19:32Z</time>
            </trkpt>
            <trkpt lon="101.414210" lat="14.168979">
                <ele>34.100000</ele>
                <time>1970-01-01T04:19:33Z</time>
            </trkpt>
            <trkpt lon="101.414179" lat="14.168991">
                <ele>34.200000</ele>
                <time>1970-01-01T04:19:34Z</time>
            </trkpt>
            <trkpt lon="101.414145" lat="14.169018">
                <ele>34.200000</ele>
                <time>1970-01-01T04:19:35Z</time>
            </trkpt>
            <trkpt lon="101.414120" lat="14.169033">
                <ele>34.200000</ele>
                <time>1970-01-01T04:19:36Z</time>
            </trkpt>
            <trkpt lon="101.414099" lat="14.169055">
                <ele>34.200000</ele>
                <time>1970-01-01T04:19:37Z</time>
            </trkpt>
            <trkpt lon="101.414074" lat="14.169071">
                <ele>34.200000</ele>
                <time>1970-01-01T04:19:38Z</time>
            </trkpt>
            <trkpt lon="101.414050" lat="14.169091">
                <ele>34.200000</ele>
                <time>1970-01-01T04:19:40Z</time>
            </trkpt>
            <trkpt lon="101.414059" lat="14.169117">
                <ele>34.000000</ele>
                <time>1970-01-01T04:19:44Z</time>
            </trkpt>
            <trkpt lon="101.414083" lat="14.169148">
                <ele>34.000000</ele>
                <time>1970-01-01T04:19:46Z</time>
            </trkpt>
            <trkpt lon="101.414123" lat="14.169190">
                <ele>33.700000</ele>
                <time>1970-01-01T04:19:48Z</time>
            </trkpt>
            <trkpt lon="101.414145" lat="14.169217">
                <ele>33.500000</ele>
                <time>1970-01-01T04:19:49Z</time>
            </trkpt>
            <trkpt lon="101.414171" lat="14.169264">
                <ele>33.200000</ele>
                <time>1970-01-01T04:19:50Z</time>
            </trkpt>
            <trkpt lon="101.414205" lat="14.169299">
                <ele>32.900000</ele>
                <time>1970-01-01T04:19:51Z</time>
            </trkpt>
            <trkpt lon="101.414228" lat="14.169335">
                <ele>32.600000</ele>
                <time>1970-01-01T04:19:52Z</time>
            </trkpt>
            <trkpt lon="101.414251" lat="14.169378">
                <ele>32.100000</ele>
                <time>1970-01-01T04:19:53Z</time>
            </trkpt>
            <trkpt lon="101.414289" lat="14.169425">
                <ele>31.600000</ele>
                <time>1970-01-01T04:19:54Z</time>
            </trkpt>
            <trkpt lon="101.414325" lat="14.169471">
                <ele>31.300000</ele>
                <time>1970-01-01T04:19:55Z</time>
            </trkpt>
            <trkpt lon="101.414368" lat="14.169505">
                <ele>31.100000</ele>
                <time>1970-01-01T04:19:56Z</time>
            </trkpt>
            <trkpt lon="101.414402" lat="14.169555">
                <ele>31.100000</ele>
                <time>1970-01-01T04:19:57Z</time>
            </trkpt>
            <trkpt lon="101.414445" lat="14.169596">
                <ele>30.800000</ele>
                <time>1970-01-01T04:19:58Z</time>
            </trkpt>
            <trkpt lon="101.414482" lat="14.169632">
                <ele>30.500000</ele>
                <time>1970-01-01T04:19:59Z</time>
            </trkpt>
            <trkpt lon="101.414511" lat="14.169672">
                <ele>30.200000</ele>
                <time>1970-01-01T04:20:00Z</time>
            </trkpt>
            <trkpt lon="101.414532" lat="14.169695">
                <ele>30.200000</ele>
                <time>1970-01-01T04:20:01Z</time>
            </trkpt>
            <trkpt lon="101.414524" lat="14.169731">
                <ele>30.200000</ele>
                <time>1970-01-01T04:20:03Z</time>
            </trkpt>
            <trkpt lon="101.414505" lat="14.169757">
                <ele>30.100000</ele>
                <time>1970-01-01T04:20:05Z</time>
            </trkpt>
            <trkpt lon="101.414477" lat="14.169763">
                <ele>30.100000</ele>
                <time>1970-01-01T04:20:07Z</time>
            </trkpt>
            <trkpt lon="101.414434" lat="14.169772">
                <ele>30.100000</ele>
                <time>1970-01-01T04:20:09Z</time>
            </trkpt>
            <trkpt lon="101.414406" lat="14.169784">
                <ele>29.700000</ele>
                <time>1970-01-01T04:20:10Z</time>
            </trkpt>
            <trkpt lon="101.414354" lat="14.169795">
                <ele>29.700000</ele>
                <time>1970-01-01T04:20:12Z</time>
            </trkpt>
            <trkpt lon="101.414304" lat="14.169814">
                <ele>29.700000</ele>
                <time>1970-01-01T04:20:14Z</time>
            </trkpt>
            <trkpt lon="101.414258" lat="14.169839">
                <ele>29.200000</ele>
                <time>1970-01-01T04:20:16Z</time>
            </trkpt>
            <trkpt lon="101.414207" lat="14.169857">
                <ele>29.200000</ele>
                <time>1970-01-01T04:20:18Z</time>
            </trkpt>
            <trkpt lon="101.414179" lat="14.169866">
                <ele>28.600000</ele>
                <time>1970-01-01T04:20:20Z</time>
            </trkpt>
            <trkpt lon="101.414167" lat="14.169899">
                <ele>28.600000</ele>
                <time>1970-01-01T04:20:22Z</time>
            </trkpt>
            <trkpt lon="101.414163" lat="14.169930">
                <ele>28.200000</ele>
                <time>1970-01-01T04:20:23Z</time>
            </trkpt>
            <trkpt lon="101.414157" lat="14.169978">
                <ele>27.900000</ele>
                <time>1970-01-01T04:20:25Z</time>
            </trkpt>
            <trkpt lon="101.414151" lat="14.170014">
                <ele>27.800000</ele>
                <time>1970-01-01T04:20:27Z</time>
            </trkpt>
            <trkpt lon="101.414154" lat="14.170054">
                <ele>27.500000</ele>
                <time>1970-01-01T04:20:29Z</time>
            </trkpt>
            <trkpt lon="101.414169" lat="14.170085">
                <ele>27.300000</ele>
                <time>1970-01-01T04:20:31Z</time>
            </trkpt>
            <trkpt lon="101.414189" lat="14.170114">
                <ele>27.300000</ele>
                <time>1970-01-01T04:20:33Z</time>
            </trkpt>
            <trkpt lon="101.414199" lat="14.170139">
                <ele>27.000000</ele>
                <time>1970-01-01T04:20:35Z</time>
            </trkpt>
            <trkpt lon="101.414179" lat="14.170167">
                <ele>27.200000</ele>
                <time>1970-01-01T04:20:38Z</time>
            </trkpt>
            <trkpt lon="101.414178" lat="14.170209">
                <ele>27.200000</ele>
                <time>1970-01-01T04:20:41Z</time>
            </trkpt>
            <trkpt lon="101.414194" lat="14.170243">
                <ele>27.200000</ele>
                <time>1970-01-01T04:20:43Z</time>
            </trkpt>
            <trkpt lon="101.414213" lat="14.170282">
                <ele>27.000000</ele>
                <time>1970-01-01T04:20:45Z</time>
            </trkpt>
            <trkpt lon="101.414249" lat="14.170322">
                <ele>27.000000</ele>
                <time>1970-01-01T04:20:47Z</time>
            </trkpt>
            <trkpt lon="101.414275" lat="14.170361">
                <ele>27.000000</ele>
                <time>1970-01-01T04:20:49Z</time>
            </trkpt>
            <trkpt lon="101.414267" lat="14.170406">
                <ele>27.000000</ele>
                <time>1970-01-01T04:20:51Z</time>
            </trkpt>
            <trkpt lon="101.414239" lat="14.170436">
                <ele>27.000000</ele>
                <time>1970-01-01T04:20:53Z</time>
            </trkpt>
            <trkpt lon="101.414216" lat="14.170463">
                <ele>27.000000</ele>
                <time>1970-01-01T04:20:55Z</time>
            </trkpt>
            <trkpt lon="101.414182" lat="14.170495">
                <ele>27.000000</ele>
                <time>1970-01-01T04:20:57Z</time>
            </trkpt>
            <trkpt lon="101.414144" lat="14.170520">
                <ele>27.100000</ele>
                <time>1970-01-01T04:20:59Z</time>
            </trkpt>
            <trkpt lon="101.414103" lat="14.170552">
                <ele>27.100000</ele>
                <time>1970-01-01T04:21:01Z</time>
            </trkpt>
            <trkpt lon="101.414073" lat="14.170590">
                <ele>27.100000</ele>
                <time>1970-01-01T04:21:03Z</time>
            </trkpt>
            <trkpt lon="101.414051" lat="14.170608">
                <ele>27.000000</ele>
                <time>1970-01-01T04:21:04Z</time>
            </trkpt>
            <trkpt lon="101.414024" lat="14.170623">
                <ele>27.000000</ele>
                <time>1970-01-01T04:21:05Z</time>
            </trkpt>
            <trkpt lon="101.413996" lat="14.170638">
                <ele>27.000000</ele>
                <time>1970-01-01T04:21:06Z</time>
            </trkpt>
            <trkpt lon="101.413968" lat="14.170652">
                <ele>27.000000</ele>
                <time>1970-01-01T04:21:07Z</time>
            </trkpt>
            <trkpt lon="101.413941" lat="14.170667">
                <ele>27.000000</ele>
                <time>1970-01-01T04:21:08Z</time>
            </trkpt>
            <trkpt lon="101.413914" lat="14.170683">
                <ele>27.000000</ele>
                <time>1970-01-01T04:21:09Z</time>
            </trkpt>
            <trkpt lon="101.413885" lat="14.170699">
                <ele>26.900000</ele>
                <time>1970-01-01T04:21:10Z</time>
            </trkpt>
            <trkpt lon="101.413856" lat="14.170715">
                <ele>26.700000</ele>
                <time>1970-01-01T04:21:11Z</time>
            </trkpt>
            <trkpt lon="101.413827" lat="14.170731">
                <ele>26.600000</ele>
                <time>1970-01-01T04:21:12Z</time>
            </trkpt>
            <trkpt lon="101.413800" lat="14.170747">
                <ele>26.400000</ele>
                <time>1970-01-01T04:21:13Z</time>
            </trkpt>
            <trkpt lon="101.413774" lat="14.170761">
                <ele>26.300000</ele>
                <time>1970-01-01T04:21:14Z</time>
            </trkpt>
            <trkpt lon="101.413749" lat="14.170775">
                <ele>26.100000</ele>
                <time>1970-01-01T04:21:15Z</time>
            </trkpt>
            <trkpt lon="101.413723" lat="14.170789">
                <ele>26.000000</ele>
                <time>1970-01-01T04:21:16Z</time>
            </trkpt>
            <trkpt lon="101.413694" lat="14.170805">
                <ele>25.900000</ele>
                <time>1970-01-01T04:21:17Z</time>
            </trkpt>
            <trkpt lon="101.413665" lat="14.170819">
                <ele>25.800000</ele>
                <time>1970-01-01T04:21:18Z</time>
            </trkpt>
            <trkpt lon="101.413636" lat="14.170832">
                <ele>25.700000</ele>
                <time>1970-01-01T04:21:19Z</time>
            </trkpt>
            <trkpt lon="101.413610" lat="14.170843">
                <ele>25.600000</ele>
                <time>1970-01-01T04:21:20Z</time>
            </trkpt>
            <trkpt lon="101.413584" lat="14.170855">
                <ele>25.500000</ele>
                <time>1970-01-01T04:21:21Z</time>
            </trkpt>
            <trkpt lon="101.413558" lat="14.170870">
                <ele>25.400000</ele>
                <time>1970-01-01T04:21:22Z</time>
            </trkpt>
            <trkpt lon="101.413530" lat="14.170884">
                <ele>25.200000</ele>
                <time>1970-01-01T04:21:23Z</time>
            </trkpt>
            <trkpt lon="101.413502" lat="14.170899">
                <ele>25.100000</ele>
                <time>1970-01-01T04:21:24Z</time>
            </trkpt>
            <trkpt lon="101.413473" lat="14.170913">
                <ele>25.000000</ele>
                <time>1970-01-01T04:21:25Z</time>
            </trkpt>
            <trkpt lon="101.413441" lat="14.170928">
                <ele>24.900000</ele>
                <time>1970-01-01T04:21:26Z</time>
            </trkpt>
            <trkpt lon="101.413404" lat="14.170944">
                <ele>24.800000</ele>
                <time>1970-01-01T04:21:27Z</time>
            </trkpt>
            <trkpt lon="101.413364" lat="14.170961">
                <ele>24.600000</ele>
                <time>1970-01-01T04:21:28Z</time>
            </trkpt>
            <trkpt lon="101.413331" lat="14.170981">
                <ele>24.600000</ele>
                <time>1970-01-01T04:21:29Z</time>
            </trkpt>
            <trkpt lon="101.413287" lat="14.171002">
                <ele>24.600000</ele>
                <time>1970-01-01T04:21:30Z</time>
            </trkpt>
            <trkpt lon="101.413243" lat="14.171032">
                <ele>24.900000</ele>
                <time>1970-01-01T04:21:31Z</time>
            </trkpt>
            <trkpt lon="101.413204" lat="14.171066">
                <ele>25.300000</ele>
                <time>1970-01-01T04:21:32Z</time>
            </trkpt>
            <trkpt lon="101.413164" lat="14.171097">
                <ele>25.800000</ele>
                <time>1970-01-01T04:21:33Z</time>
            </trkpt>
            <trkpt lon="101.413124" lat="14.171127">
                <ele>26.400000</ele>
                <time>1970-01-01T04:21:34Z</time>
            </trkpt>
            <trkpt lon="101.413078" lat="14.171167">
                <ele>27.000000</ele>
                <time>1970-01-01T04:21:35Z</time>
            </trkpt>
            <trkpt lon="101.413032" lat="14.171187">
                <ele>27.500000</ele>
                <time>1970-01-01T04:21:36Z</time>
            </trkpt>
            <trkpt lon="101.412989" lat="14.171203">
                <ele>28.000000</ele>
                <time>1970-01-01T04:21:37Z</time>
            </trkpt>
            <trkpt lon="101.412951" lat="14.171215">
                <ele>28.300000</ele>
                <time>1970-01-01T04:21:38Z</time>
            </trkpt>
            <trkpt lon="101.412914" lat="14.171224">
                <ele>28.500000</ele>
                <time>1970-01-01T04:21:39Z</time>
            </trkpt>
            <trkpt lon="101.412864" lat="14.171232">
                <ele>28.700000</ele>
                <time>1970-01-01T04:21:40Z</time>
            </trkpt>
            <trkpt lon="101.412824" lat="14.171248">
                <ele>29.000000</ele>
                <time>1970-01-01T04:21:41Z</time>
            </trkpt>
            <trkpt lon="101.412785" lat="14.171256">
                <ele>29.200000</ele>
                <time>1970-01-01T04:21:42Z</time>
            </trkpt>
            <trkpt lon="101.412747" lat="14.171272">
                <ele>29.400000</ele>
                <time>1970-01-01T04:21:43Z</time>
            </trkpt>
            <trkpt lon="101.412699" lat="14.171280">
                <ele>29.700000</ele>
                <time>1970-01-01T04:21:44Z</time>
            </trkpt>
            <trkpt lon="101.412659" lat="14.171284">
                <ele>30.000000</ele>
                <time>1970-01-01T04:21:45Z</time>
            </trkpt>
            <trkpt lon="101.412617" lat="14.171289">
                <ele>30.200000</ele>
                <time>1970-01-01T04:21:46Z</time>
            </trkpt>
            <trkpt lon="101.412577" lat="14.171294">
                <ele>30.400000</ele>
                <time>1970-01-01T04:21:47Z</time>
            </trkpt>
            <trkpt lon="101.412536" lat="14.171302">
                <ele>30.600000</ele>
                <time>1970-01-01T04:21:48Z</time>
            </trkpt>
            <trkpt lon="101.412494" lat="14.171309">
                <ele>30.800000</ele>
                <time>1970-01-01T04:21:49Z</time>
            </trkpt>
            <trkpt lon="101.412453" lat="14.171316">
                <ele>31.000000</ele>
                <time>1970-01-01T04:21:50Z</time>
            </trkpt>
            <trkpt lon="101.412411" lat="14.171323">
                <ele>31.300000</ele>
                <time>1970-01-01T04:21:51Z</time>
            </trkpt>
            <trkpt lon="101.412370" lat="14.171331">
                <ele>31.500000</ele>
                <time>1970-01-01T04:21:52Z</time>
            </trkpt>
            <trkpt lon="101.412329" lat="14.171338">
                <ele>31.700000</ele>
                <time>1970-01-01T04:21:53Z</time>
            </trkpt>
            <trkpt lon="101.412289" lat="14.171346">
                <ele>31.800000</ele>
                <time>1970-01-01T04:21:54Z</time>
            </trkpt>
            <trkpt lon="101.412246" lat="14.171354">
                <ele>32.000000</ele>
                <time>1970-01-01T04:21:55Z</time>
            </trkpt>
            <trkpt lon="101.412195" lat="14.171358">
                <ele>32.000000</ele>
                <time>1970-01-01T04:21:56Z</time>
            </trkpt>
            <trkpt lon="101.412151" lat="14.171365">
                <ele>32.000000</ele>
                <time>1970-01-01T04:21:57Z</time>
            </trkpt>
            <trkpt lon="101.412109" lat="14.171377">
                <ele>32.000000</ele>
                <time>1970-01-01T04:21:58Z</time>
            </trkpt>
            <trkpt lon="101.412069" lat="14.171391">
                <ele>32.000000</ele>
                <time>1970-01-01T04:21:59Z</time>
            </trkpt>
            <trkpt lon="101.412033" lat="14.171412">
                <ele>32.000000</ele>
                <time>1970-01-01T04:22:00Z</time>
            </trkpt>
            <trkpt lon="101.412004" lat="14.171439">
                <ele>32.000000</ele>
                <time>1970-01-01T04:22:01Z</time>
            </trkpt>
            <trkpt lon="101.411990" lat="14.171474">
                <ele>32.000000</ele>
                <time>1970-01-01T04:22:02Z</time>
            </trkpt>
            <trkpt lon="101.411983" lat="14.171518">
                <ele>32.000000</ele>
                <time>1970-01-01T04:22:03Z</time>
            </trkpt>
            <trkpt lon="101.411980" lat="14.171569">
                <ele>31.900000</ele>
                <time>1970-01-01T04:22:04Z</time>
            </trkpt>
            <trkpt lon="101.411975" lat="14.171615">
                <ele>31.900000</ele>
                <time>1970-01-01T04:22:05Z</time>
            </trkpt>
            <trkpt lon="101.411967" lat="14.171661">
                <ele>31.800000</ele>
                <time>1970-01-01T04:22:06Z</time>
            </trkpt>
            <trkpt lon="101.411951" lat="14.171707">
                <ele>31.800000</ele>
                <time>1970-01-01T04:22:07Z</time>
            </trkpt>
            <trkpt lon="101.411936" lat="14.171760">
                <ele>31.700000</ele>
                <time>1970-01-01T04:22:08Z</time>
            </trkpt>
            <trkpt lon="101.411910" lat="14.171806">
                <ele>31.500000</ele>
                <time>1970-01-01T04:22:09Z</time>
            </trkpt>
            <trkpt lon="101.411892" lat="14.171859">
                <ele>31.400000</ele>
                <time>1970-01-01T04:22:10Z</time>
            </trkpt>
            <trkpt lon="101.411874" lat="14.171906">
                <ele>31.200000</ele>
                <time>1970-01-01T04:22:11Z</time>
            </trkpt>
            <trkpt lon="101.411855" lat="14.171952">
                <ele>31.000000</ele>
                <time>1970-01-01T04:22:12Z</time>
            </trkpt>
            <trkpt lon="101.411821" lat="14.171997">
                <ele>30.700000</ele>
                <time>1970-01-01T04:22:13Z</time>
            </trkpt>
            <trkpt lon="101.411782" lat="14.172029">
                <ele>30.500000</ele>
                <time>1970-01-01T04:22:14Z</time>
            </trkpt>
            <trkpt lon="101.411721" lat="14.172054">
                <ele>30.100000</ele>
                <time>1970-01-01T04:22:15Z</time>
            </trkpt>
            <trkpt lon="101.411676" lat="14.172084">
                <ele>29.700000</ele>
                <time>1970-01-01T04:22:16Z</time>
            </trkpt>
            <trkpt lon="101.411636" lat="14.172125">
                <ele>29.200000</ele>
                <time>1970-01-01T04:22:17Z</time>
            </trkpt>
            <trkpt lon="101.411607" lat="14.172173">
                <ele>28.900000</ele>
                <time>1970-01-01T04:22:18Z</time>
            </trkpt>
            <trkpt lon="101.411581" lat="14.172219">
                <ele>28.400000</ele>
                <time>1970-01-01T04:22:19Z</time>
            </trkpt>
            <trkpt lon="101.411569" lat="14.172274">
                <ele>28.000000</ele>
                <time>1970-01-01T04:22:20Z</time>
            </trkpt>
            <trkpt lon="101.411566" lat="14.172330">
                <ele>27.700000</ele>
                <time>1970-01-01T04:22:21Z</time>
            </trkpt>
            <trkpt lon="101.411589" lat="14.172380">
                <ele>27.400000</ele>
                <time>1970-01-01T04:22:22Z</time>
            </trkpt>
            <trkpt lon="101.411612" lat="14.172432">
                <ele>27.200000</ele>
                <time>1970-01-01T04:22:23Z</time>
            </trkpt>
            <trkpt lon="101.411645" lat="14.172461">
                <ele>27.000000</ele>
                <time>1970-01-01T04:22:24Z</time>
            </trkpt>
            <trkpt lon="101.411681" lat="14.172488">
                <ele>26.900000</ele>
                <time>1970-01-01T04:22:25Z</time>
            </trkpt>
            <trkpt lon="101.411721" lat="14.172514">
                <ele>26.800000</ele>
                <time>1970-01-01T04:22:26Z</time>
            </trkpt>
            <trkpt lon="101.411746" lat="14.172539">
                <ele>26.600000</ele>
                <time>1970-01-01T04:22:27Z</time>
            </trkpt>
            <trkpt lon="101.411778" lat="14.172549">
                <ele>26.500000</ele>
                <time>1970-01-01T04:22:28Z</time>
            </trkpt>
            <trkpt lon="101.411800" lat="14.172576">
                <ele>26.000000</ele>
                <time>1970-01-01T04:22:29Z</time>
            </trkpt>
            <trkpt lon="101.411829" lat="14.172601">
                <ele>26.000000</ele>
                <time>1970-01-01T04:22:30Z</time>
            </trkpt>
            <trkpt lon="101.411839" lat="14.172630">
                <ele>25.700000</ele>
                <time>1970-01-01T04:22:31Z</time>
            </trkpt>
            <trkpt lon="101.411874" lat="14.172670">
                <ele>25.700000</ele>
                <time>1970-01-01T04:22:33Z</time>
            </trkpt>
            <trkpt lon="101.411890" lat="14.172712">
                <ele>25.400000</ele>
                <time>1970-01-01T04:22:35Z</time>
            </trkpt>
            <trkpt lon="101.411909" lat="14.172741">
                <ele>25.400000</ele>
                <time>1970-01-01T04:22:36Z</time>
            </trkpt>
            <trkpt lon="101.411933" lat="14.172776">
                <ele>25.200000</ele>
                <time>1970-01-01T04:22:37Z</time>
            </trkpt>
            <trkpt lon="101.411956" lat="14.172812">
                <ele>25.000000</ele>
                <time>1970-01-01T04:22:38Z</time>
            </trkpt>
            <trkpt lon="101.411976" lat="14.172862">
                <ele>24.200000</ele>
                <time>1970-01-01T04:22:39Z</time>
            </trkpt>
            <trkpt lon="101.412004" lat="14.172901">
                <ele>24.200000</ele>
                <time>1970-01-01T04:22:40Z</time>
            </trkpt>
            <trkpt lon="101.412031" lat="14.172938">
                <ele>23.400000</ele>
                <time>1970-01-01T04:22:41Z</time>
            </trkpt>
            <trkpt lon="101.412049" lat="14.172970">
                <ele>22.700000</ele>
                <time>1970-01-01T04:22:42Z</time>
            </trkpt>
            <trkpt lon="101.412067" lat="14.173020">
                <ele>22.600000</ele>
                <time>1970-01-01T04:22:44Z</time>
            </trkpt>
            <trkpt lon="101.412096" lat="14.173062">
                <ele>21.800000</ele>
                <time>1970-01-01T04:22:46Z</time>
            </trkpt>
            <trkpt lon="101.412109" lat="14.173106">
                <ele>21.600000</ele>
                <time>1970-01-01T04:22:48Z</time>
            </trkpt>
            <trkpt lon="101.412116" lat="14.173137">
                <ele>21.500000</ele>
                <time>1970-01-01T04:22:49Z</time>
            </trkpt>
            <trkpt lon="101.412123" lat="14.173170">
                <ele>21.400000</ele>
                <time>1970-01-01T04:22:50Z</time>
            </trkpt>
            <trkpt lon="101.412127" lat="14.173201">
                <ele>21.400000</ele>
                <time>1970-01-01T04:22:51Z</time>
            </trkpt>
            <trkpt lon="101.412130" lat="14.173231">
                <ele>21.400000</ele>
                <time>1970-01-01T04:22:52Z</time>
            </trkpt>
            <trkpt lon="101.412130" lat="14.173259">
                <ele>21.400000</ele>
                <time>1970-01-01T04:22:53Z</time>
            </trkpt>
            <trkpt lon="101.412138" lat="14.173309">
                <ele>21.000000</ele>
                <time>1970-01-01T04:22:55Z</time>
            </trkpt>
            <trkpt lon="101.412151" lat="14.173333">
                <ele>21.000000</ele>
                <time>1970-01-01T04:22:56Z</time>
            </trkpt>
            <trkpt lon="101.412187" lat="14.173376">
                <ele>21.000000</ele>
                <time>1970-01-01T04:22:58Z</time>
            </trkpt>
            <trkpt lon="101.412203" lat="14.173401">
                <ele>21.000000</ele>
                <time>1970-01-01T04:22:59Z</time>
            </trkpt>
            <trkpt lon="101.412212" lat="14.173429">
                <ele>21.000000</ele>
                <time>1970-01-01T04:23:00Z</time>
            </trkpt>
            <trkpt lon="101.412216" lat="14.173458">
                <ele>21.100000</ele>
                <time>1970-01-01T04:23:01Z</time>
            </trkpt>
            <trkpt lon="101.412213" lat="14.173487">
                <ele>21.400000</ele>
                <time>1970-01-01T04:23:02Z</time>
            </trkpt>
            <trkpt lon="101.412203" lat="14.173518">
                <ele>21.400000</ele>
                <time>1970-01-01T04:23:03Z</time>
            </trkpt>
            <trkpt lon="101.412188" lat="14.173547">
                <ele>21.600000</ele>
                <time>1970-01-01T04:23:04Z</time>
            </trkpt>
            <trkpt lon="101.412169" lat="14.173577">
                <ele>21.900000</ele>
                <time>1970-01-01T04:23:05Z</time>
            </trkpt>
            <trkpt lon="101.412151" lat="14.173607">
                <ele>21.900000</ele>
                <time>1970-01-01T04:23:06Z</time>
            </trkpt>
            <trkpt lon="101.412138" lat="14.173636">
                <ele>22.100000</ele>
                <time>1970-01-01T04:23:07Z</time>
            </trkpt>
            <trkpt lon="101.412130" lat="14.173668">
                <ele>22.500000</ele>
                <time>1970-01-01T04:23:08Z</time>
            </trkpt>
            <trkpt lon="101.412132" lat="14.173701">
                <ele>22.700000</ele>
                <time>1970-01-01T04:23:09Z</time>
            </trkpt>
            <trkpt lon="101.412145" lat="14.173731">
                <ele>22.600000</ele>
                <time>1970-01-01T04:23:10Z</time>
            </trkpt>
            <trkpt lon="101.412166" lat="14.173758">
                <ele>22.900000</ele>
                <time>1970-01-01T04:23:11Z</time>
            </trkpt>
            <trkpt lon="101.412190" lat="14.173787">
                <ele>23.100000</ele>
                <time>1970-01-01T04:23:12Z</time>
            </trkpt>
            <trkpt lon="101.412214" lat="14.173816">
                <ele>23.100000</ele>
                <time>1970-01-01T04:23:13Z</time>
            </trkpt>
            <trkpt lon="101.412241" lat="14.173845">
                <ele>23.400000</ele>
                <time>1970-01-01T04:23:14Z</time>
            </trkpt>
            <trkpt lon="101.412269" lat="14.173874">
                <ele>23.600000</ele>
                <time>1970-01-01T04:23:15Z</time>
            </trkpt>
            <trkpt lon="101.412297" lat="14.173903">
                <ele>23.900000</ele>
                <time>1970-01-01T04:23:16Z</time>
            </trkpt>
            <trkpt lon="101.412323" lat="14.173932">
                <ele>23.900000</ele>
                <time>1970-01-01T04:23:17Z</time>
            </trkpt>
            <trkpt lon="101.412347" lat="14.173960">
                <ele>24.100000</ele>
                <time>1970-01-01T04:23:18Z</time>
            </trkpt>
            <trkpt lon="101.412369" lat="14.173990">
                <ele>24.300000</ele>
                <time>1970-01-01T04:23:19Z</time>
            </trkpt>
            <trkpt lon="101.412388" lat="14.174019">
                <ele>24.300000</ele>
                <time>1970-01-01T04:23:20Z</time>
            </trkpt>
            <trkpt lon="101.412405" lat="14.174051">
                <ele>24.300000</ele>
                <time>1970-01-01T04:23:21Z</time>
            </trkpt>
            <trkpt lon="101.412422" lat="14.174086">
                <ele>24.400000</ele>
                <time>1970-01-01T04:23:22Z</time>
            </trkpt>
            <trkpt lon="101.412439" lat="14.174119">
                <ele>24.200000</ele>
                <time>1970-01-01T04:23:23Z</time>
            </trkpt>
            <trkpt lon="101.412457" lat="14.174150">
                <ele>24.200000</ele>
                <time>1970-01-01T04:23:24Z</time>
            </trkpt>
            <trkpt lon="101.412478" lat="14.174178">
                <ele>24.000000</ele>
                <time>1970-01-01T04:23:25Z</time>
            </trkpt>
            <trkpt lon="101.412502" lat="14.174205">
                <ele>24.000000</ele>
                <time>1970-01-01T04:23:26Z</time>
            </trkpt>
            <trkpt lon="101.412524" lat="14.174230">
                <ele>24.000000</ele>
                <time>1970-01-01T04:23:27Z</time>
            </trkpt>
            <trkpt lon="101.412540" lat="14.174253">
                <ele>24.000000</ele>
                <time>1970-01-01T04:23:28Z</time>
            </trkpt>
            <trkpt lon="101.412564" lat="14.174295">
                <ele>24.100000</ele>
                <time>1970-01-01T04:23:30Z</time>
            </trkpt>
            <trkpt lon="101.412559" lat="14.174267">
                <ele>24.000000</ele>
                <time>1970-01-01T04:23:36Z</time>
            </trkpt>
            <trkpt lon="101.412537" lat="14.174240">
                <ele>24.000000</ele>
                <time>1970-01-01T04:23:38Z</time>
            </trkpt>
            <trkpt lon="101.412499" lat="14.174206">
                <ele>24.000000</ele>
                <time>1970-01-01T04:23:40Z</time>
            </trkpt>
            <trkpt lon="101.412462" lat="14.174169">
                <ele>24.200000</ele>
                <time>1970-01-01T04:23:42Z</time>
            </trkpt>
            <trkpt lon="101.412439" lat="14.174141">
                <ele>24.200000</ele>
                <time>1970-01-01T04:23:43Z</time>
            </trkpt>
            <trkpt lon="101.412415" lat="14.174109">
                <ele>24.400000</ele>
                <time>1970-01-01T04:23:44Z</time>
            </trkpt>
            <trkpt lon="101.412392" lat="14.174078">
                <ele>24.400000</ele>
                <time>1970-01-01T04:23:45Z</time>
            </trkpt>
            <trkpt lon="101.412370" lat="14.174045">
                <ele>24.400000</ele>
                <time>1970-01-01T04:23:46Z</time>
            </trkpt>
            <trkpt lon="101.412349" lat="14.174012">
                <ele>24.300000</ele>
                <time>1970-01-01T04:23:47Z</time>
            </trkpt>
            <trkpt lon="101.412328" lat="14.173978">
                <ele>24.100000</ele>
                <time>1970-01-01T04:23:48Z</time>
            </trkpt>
            <trkpt lon="101.412311" lat="14.173946">
                <ele>24.100000</ele>
                <time>1970-01-01T04:23:49Z</time>
            </trkpt>
            <trkpt lon="101.412290" lat="14.173911">
                <ele>23.900000</ele>
                <time>1970-01-01T04:23:50Z</time>
            </trkpt>
            <trkpt lon="101.412266" lat="14.173874">
                <ele>23.700000</ele>
                <time>1970-01-01T04:23:51Z</time>
            </trkpt>
            <trkpt lon="101.412240" lat="14.173837">
                <ele>23.400000</ele>
                <time>1970-01-01T04:23:52Z</time>
            </trkpt>
            <trkpt lon="101.412215" lat="14.173800">
                <ele>23.200000</ele>
                <time>1970-01-01T04:23:53Z</time>
            </trkpt>
            <trkpt lon="101.412193" lat="14.173764">
                <ele>22.900000</ele>
                <time>1970-01-01T04:23:54Z</time>
            </trkpt>
            <trkpt lon="101.412173" lat="14.173729">
                <ele>22.700000</ele>
                <time>1970-01-01T04:23:55Z</time>
            </trkpt>
            <trkpt lon="101.412157" lat="14.173698">
                <ele>22.700000</ele>
                <time>1970-01-01T04:23:56Z</time>
            </trkpt>
            <trkpt lon="101.412145" lat="14.173667">
                <ele>22.400000</ele>
                <time>1970-01-01T04:23:57Z</time>
            </trkpt>
            <trkpt lon="101.412145" lat="14.173627">
                <ele>22.200000</ele>
                <time>1970-01-01T04:23:58Z</time>
            </trkpt>
            <trkpt lon="101.412157" lat="14.173582">
                <ele>21.900000</ele>
                <time>1970-01-01T04:23:59Z</time>
            </trkpt>
            <trkpt lon="101.412216" lat="14.173533">
                <ele>21.700000</ele>
                <time>1970-01-01T04:24:00Z</time>
            </trkpt>
            <trkpt lon="101.412236" lat="14.173490">
                <ele>21.400000</ele>
                <time>1970-01-01T04:24:01Z</time>
            </trkpt>
            <trkpt lon="101.412241" lat="14.173443">
                <ele>21.000000</ele>
                <time>1970-01-01T04:24:02Z</time>
            </trkpt>
            <trkpt lon="101.412242" lat="14.173396">
                <ele>21.000000</ele>
                <time>1970-01-01T04:24:03Z</time>
            </trkpt>
            <trkpt lon="101.412211" lat="14.173352">
                <ele>21.000000</ele>
                <time>1970-01-01T04:24:04Z</time>
            </trkpt>
            <trkpt lon="101.412186" lat="14.173315">
                <ele>21.000000</ele>
                <time>1970-01-01T04:24:05Z</time>
            </trkpt>
            <trkpt lon="101.412167" lat="14.173274">
                <ele>21.000000</ele>
                <time>1970-01-01T04:24:06Z</time>
            </trkpt>
            <trkpt lon="101.412157" lat="14.173229">
                <ele>21.000000</ele>
                <time>1970-01-01T04:24:07Z</time>
            </trkpt>
            <trkpt lon="101.412152" lat="14.173180">
                <ele>21.000000</ele>
                <time>1970-01-01T04:24:08Z</time>
            </trkpt>
            <trkpt lon="101.412160" lat="14.173142">
                <ele>21.000000</ele>
                <time>1970-01-01T04:24:09Z</time>
            </trkpt>
            <trkpt lon="101.412153" lat="14.173110">
                <ele>21.100000</ele>
                <time>1970-01-01T04:24:10Z</time>
            </trkpt>
            <trkpt lon="101.412146" lat="14.173073">
                <ele>21.100000</ele>
                <time>1970-01-01T04:24:11Z</time>
            </trkpt>
            <trkpt lon="101.412116" lat="14.173037">
                <ele>21.800000</ele>
                <time>1970-01-01T04:24:13Z</time>
            </trkpt>
            <trkpt lon="101.412089" lat="14.173007">
                <ele>22.600000</ele>
                <time>1970-01-01T04:24:15Z</time>
            </trkpt>
            <trkpt lon="101.412078" lat="14.172981">
                <ele>22.800000</ele>
                <time>1970-01-01T04:24:16Z</time>
            </trkpt>
            <trkpt lon="101.412056" lat="14.172946">
                <ele>22.800000</ele>
                <time>1970-01-01T04:24:18Z</time>
            </trkpt>
            <trkpt lon="101.412035" lat="14.172908">
                <ele>23.500000</ele>
                <time>1970-01-01T04:24:20Z</time>
            </trkpt>
            <trkpt lon="101.412010" lat="14.172865">
                <ele>23.700000</ele>
                <time>1970-01-01T04:24:22Z</time>
            </trkpt>
            <trkpt lon="101.411995" lat="14.172840">
                <ele>24.500000</ele>
                <time>1970-01-01T04:24:23Z</time>
            </trkpt>
            <trkpt lon="101.411976" lat="14.172806">
                <ele>24.700000</ele>
                <time>1970-01-01T04:24:24Z</time>
            </trkpt>
            <trkpt lon="101.411957" lat="14.172776">
                <ele>25.200000</ele>
                <time>1970-01-01T04:24:25Z</time>
            </trkpt>
            <trkpt lon="101.411939" lat="14.172751">
                <ele>25.200000</ele>
                <time>1970-01-01T04:24:26Z</time>
            </trkpt>
            <trkpt lon="101.411917" lat="14.172728">
                <ele>25.500000</ele>
                <time>1970-01-01T04:24:27Z</time>
            </trkpt>
            <trkpt lon="101.411896" lat="14.172703">
                <ele>25.500000</ele>
                <time>1970-01-01T04:24:28Z</time>
            </trkpt>
            <trkpt lon="101.411873" lat="14.172681">
                <ele>25.700000</ele>
                <time>1970-01-01T04:24:29Z</time>
            </trkpt>
            <trkpt lon="101.411835" lat="14.172643">
                <ele>25.700000</ele>
                <time>1970-01-01T04:24:31Z</time>
            </trkpt>
            <trkpt lon="101.411801" lat="14.172600">
                <ele>26.100000</ele>
                <time>1970-01-01T04:24:33Z</time>
            </trkpt>
            <trkpt lon="101.411785" lat="14.172575">
                <ele>26.300000</ele>
                <time>1970-01-01T04:24:34Z</time>
            </trkpt>
            <trkpt lon="101.411769" lat="14.172552">
                <ele>26.500000</ele>
                <time>1970-01-01T04:24:35Z</time>
            </trkpt>
            <trkpt lon="101.411732" lat="14.172509">
                <ele>26.800000</ele>
                <time>1970-01-01T04:24:37Z</time>
            </trkpt>
            <trkpt lon="101.411710" lat="14.172490">
                <ele>26.800000</ele>
                <time>1970-01-01T04:24:38Z</time>
            </trkpt>
            <trkpt lon="101.411687" lat="14.172473">
                <ele>27.000000</ele>
                <time>1970-01-01T04:24:39Z</time>
            </trkpt>
            <trkpt lon="101.411660" lat="14.172458">
                <ele>27.000000</ele>
                <time>1970-01-01T04:24:40Z</time>
            </trkpt>
            <trkpt lon="101.411629" lat="14.172449">
                <ele>27.000000</ele>
                <time>1970-01-01T04:24:41Z</time>
            </trkpt>
            <trkpt lon="101.411597" lat="14.172447">
                <ele>27.200000</ele>
                <time>1970-01-01T04:24:42Z</time>
            </trkpt>
            <trkpt lon="101.411565" lat="14.172456">
                <ele>27.500000</ele>
                <time>1970-01-01T04:24:43Z</time>
            </trkpt>
            <trkpt lon="101.411536" lat="14.172468">
                <ele>27.500000</ele>
                <time>1970-01-01T04:24:44Z</time>
            </trkpt>
            <trkpt lon="101.411508" lat="14.172481">
                <ele>27.700000</ele>
                <time>1970-01-01T04:24:45Z</time>
            </trkpt>
            <trkpt lon="101.411482" lat="14.172496">
                <ele>28.000000</ele>
                <time>1970-01-01T04:24:46Z</time>
            </trkpt>
            <trkpt lon="101.411454" lat="14.172511">
                <ele>28.000000</ele>
                <time>1970-01-01T04:24:47Z</time>
            </trkpt>
            <trkpt lon="101.411424" lat="14.172522">
                <ele>28.100000</ele>
                <time>1970-01-01T04:24:48Z</time>
            </trkpt>
            <trkpt lon="101.411397" lat="14.172530">
                <ele>28.100000</ele>
                <time>1970-01-01T04:24:49Z</time>
            </trkpt>
            <trkpt lon="101.411366" lat="14.172535">
                <ele>28.100000</ele>
                <time>1970-01-01T04:24:50Z</time>
            </trkpt>
            <trkpt lon="101.411329" lat="14.172542">
                <ele>28.100000</ele>
                <time>1970-01-01T04:24:51Z</time>
            </trkpt>
            <trkpt lon="101.411296" lat="14.172552">
                <ele>28.100000</ele>
                <time>1970-01-01T04:24:52Z</time>
            </trkpt>
            <trkpt lon="101.411267" lat="14.172564">
                <ele>28.200000</ele>
                <time>1970-01-01T04:24:53Z</time>
            </trkpt>
            <trkpt lon="101.411237" lat="14.172578">
                <ele>28.200000</ele>
                <time>1970-01-01T04:24:54Z</time>
            </trkpt>
            <trkpt lon="101.411203" lat="14.172591">
                <ele>28.400000</ele>
                <time>1970-01-01T04:24:55Z</time>
            </trkpt>
            <trkpt lon="101.411167" lat="14.172601">
                <ele>28.600000</ele>
                <time>1970-01-01T04:24:56Z</time>
            </trkpt>
            <trkpt lon="101.411133" lat="14.172613">
                <ele>29.000000</ele>
                <time>1970-01-01T04:24:57Z</time>
            </trkpt>
            <trkpt lon="101.411100" lat="14.172625">
                <ele>28.900000</ele>
                <time>1970-01-01T04:24:58Z</time>
            </trkpt>
            <trkpt lon="101.411072" lat="14.172637">
                <ele>28.900000</ele>
                <time>1970-01-01T04:24:59Z</time>
            </trkpt>
            <trkpt lon="101.411046" lat="14.172649">
                <ele>28.700000</ele>
                <time>1970-01-01T04:25:00Z</time>
            </trkpt>
            <trkpt lon="101.411017" lat="14.172662">
                <ele>28.700000</ele>
                <time>1970-01-01T04:25:01Z</time>
            </trkpt>
            <trkpt lon="101.410987" lat="14.172675">
                <ele>28.700000</ele>
                <time>1970-01-01T04:25:02Z</time>
            </trkpt>
            <trkpt lon="101.410958" lat="14.172687">
                <ele>28.500000</ele>
                <time>1970-01-01T04:25:03Z</time>
            </trkpt>
            <trkpt lon="101.410927" lat="14.172695">
                <ele>28.500000</ele>
                <time>1970-01-01T04:25:04Z</time>
            </trkpt>
            <trkpt lon="101.410890" lat="14.172701">
                <ele>28.700000</ele>
                <time>1970-01-01T04:25:06Z</time>
            </trkpt>
            <trkpt lon="101.410855" lat="14.172667">
                <ele>28.500000</ele>
                <time>1970-01-01T04:25:09Z</time>
            </trkpt>
            <trkpt lon="101.410835" lat="14.172616">
                <ele>28.200000</ele>
                <time>1970-01-01T04:25:11Z</time>
            </trkpt>
            <trkpt lon="101.410825" lat="14.172586">
                <ele>28.100000</ele>
                <time>1970-01-01T04:25:12Z</time>
            </trkpt>
            <trkpt lon="101.410815" lat="14.172556">
                <ele>28.100000</ele>
                <time>1970-01-01T04:25:13Z</time>
            </trkpt>
            <trkpt lon="101.410802" lat="14.172525">
                <ele>28.100000</ele>
                <time>1970-01-01T04:25:14Z</time>
            </trkpt>
            <trkpt lon="101.410787" lat="14.172495">
                <ele>28.100000</ele>
                <time>1970-01-01T04:25:15Z</time>
            </trkpt>
            <trkpt lon="101.410770" lat="14.172467">
                <ele>28.100000</ele>
                <time>1970-01-01T04:25:16Z</time>
            </trkpt>
            <trkpt lon="101.410750" lat="14.172434">
                <ele>28.200000</ele>
                <time>1970-01-01T04:25:17Z</time>
            </trkpt>
            <trkpt lon="101.410731" lat="14.172398">
                <ele>28.200000</ele>
                <time>1970-01-01T04:25:18Z</time>
            </trkpt>
            <trkpt lon="101.410715" lat="14.172363">
                <ele>28.500000</ele>
                <time>1970-01-01T04:25:19Z</time>
            </trkpt>
            <trkpt lon="101.410702" lat="14.172335">
                <ele>28.500000</ele>
                <time>1970-01-01T04:25:20Z</time>
            </trkpt>
            <trkpt lon="101.410691" lat="14.172306">
                <ele>28.500000</ele>
                <time>1970-01-01T04:25:21Z</time>
            </trkpt>
            <trkpt lon="101.410680" lat="14.172280">
                <ele>28.500000</ele>
                <time>1970-01-01T04:25:22Z</time>
            </trkpt>
            <trkpt lon="101.410669" lat="14.172254">
                <ele>28.700000</ele>
                <time>1970-01-01T04:25:23Z</time>
            </trkpt>
            <trkpt lon="101.410655" lat="14.172224">
                <ele>28.700000</ele>
                <time>1970-01-01T04:25:24Z</time>
            </trkpt>
            <trkpt lon="101.410641" lat="14.172194">
                <ele>28.700000</ele>
                <time>1970-01-01T04:25:25Z</time>
            </trkpt>
            <trkpt lon="101.410626" lat="14.172163">
                <ele>29.000000</ele>
                <time>1970-01-01T04:25:26Z</time>
            </trkpt>
            <trkpt lon="101.410617" lat="14.172133">
                <ele>29.000000</ele>
                <time>1970-01-01T04:25:27Z</time>
            </trkpt>
            <trkpt lon="101.410608" lat="14.172104">
                <ele>29.000000</ele>
                <time>1970-01-01T04:25:28Z</time>
            </trkpt>
            <trkpt lon="101.410597" lat="14.172076">
                <ele>29.000000</ele>
                <time>1970-01-01T04:25:29Z</time>
            </trkpt>
            <trkpt lon="101.410584" lat="14.172051">
                <ele>29.100000</ele>
                <time>1970-01-01T04:25:30Z</time>
            </trkpt>
            <trkpt lon="101.410567" lat="14.172021">
                <ele>29.100000</ele>
                <time>1970-01-01T04:25:31Z</time>
            </trkpt>
            <trkpt lon="101.410549" lat="14.171989">
                <ele>29.100000</ele>
                <time>1970-01-01T04:25:32Z</time>
            </trkpt>
            <trkpt lon="101.410534" lat="14.171960">
                <ele>29.100000</ele>
                <time>1970-01-01T04:25:33Z</time>
            </trkpt>
            <trkpt lon="101.410517" lat="14.171929">
                <ele>29.200000</ele>
                <time>1970-01-01T04:25:34Z</time>
            </trkpt>
            <trkpt lon="101.410504" lat="14.171896">
                <ele>29.400000</ele>
                <time>1970-01-01T04:25:35Z</time>
            </trkpt>
            <trkpt lon="101.410493" lat="14.171865">
                <ele>29.400000</ele>
                <time>1970-01-01T04:25:36Z</time>
            </trkpt>
            <trkpt lon="101.410480" lat="14.171835">
                <ele>29.700000</ele>
                <time>1970-01-01T04:25:37Z</time>
            </trkpt>
            <trkpt lon="101.410468" lat="14.171807">
                <ele>29.900000</ele>
                <time>1970-01-01T04:25:38Z</time>
            </trkpt>
            <trkpt lon="101.410446" lat="14.171769">
                <ele>30.300000</ele>
                <time>1970-01-01T04:25:40Z</time>
            </trkpt>
            <trkpt lon="101.410407" lat="14.171750">
                <ele>30.300000</ele>
                <time>1970-01-01T04:25:47Z</time>
            </trkpt>
            <trkpt lon="101.410375" lat="14.171750">
                <ele>30.300000</ele>
                <time>1970-01-01T04:25:50Z</time>
            </trkpt>
            <trkpt lon="101.410340" lat="14.171749">
                <ele>30.300000</ele>
                <time>1970-01-01T04:25:53Z</time>
            </trkpt>
            <trkpt lon="101.410306" lat="14.171744">
                <ele>30.300000</ele>
                <time>1970-01-01T04:25:55Z</time>
            </trkpt>
            <trkpt lon="101.410269" lat="14.171744">
                <ele>30.400000</ele>
                <time>1970-01-01T04:25:58Z</time>
            </trkpt>
            <trkpt lon="101.410245" lat="14.171722">
                <ele>31.500000</ele>
                <time>1970-01-01T04:26:07Z</time>
            </trkpt>
            <trkpt lon="101.410209" lat="14.171718">
                <ele>31.500000</ele>
                <time>1970-01-01T04:26:11Z</time>
            </trkpt>
            <trkpt lon="101.410182" lat="14.171725">
                <ele>32.100000</ele>
                <time>1970-01-01T04:26:13Z</time>
            </trkpt>
            <trkpt lon="101.410150" lat="14.171733">
                <ele>32.800000</ele>
                <time>1970-01-01T04:26:17Z</time>
            </trkpt>
            <trkpt lon="101.410124" lat="14.171746">
                <ele>32.200000</ele>
                <time>1970-01-01T04:26:20Z</time>
            </trkpt>
            <trkpt lon="101.410092" lat="14.171762">
                <ele>32.900000</ele>
                <time>1970-01-01T04:26:23Z</time>
            </trkpt>
            <trkpt lon="101.410064" lat="14.171784">
                <ele>33.000000</ele>
                <time>1970-01-01T04:26:29Z</time>
            </trkpt>
            <trkpt lon="101.410029" lat="14.171793">
                <ele>33.500000</ele>
                <time>1970-01-01T04:26:32Z</time>
            </trkpt>
            <trkpt lon="101.409990" lat="14.171798">
                <ele>33.500000</ele>
                <time>1970-01-01T04:26:36Z</time>
            </trkpt>
            <trkpt lon="101.409963" lat="14.171809">
                <ele>34.000000</ele>
                <time>1970-01-01T04:26:39Z</time>
            </trkpt>
            <trkpt lon="101.409937" lat="14.171826">
                <ele>34.000000</ele>
                <time>1970-01-01T04:26:42Z</time>
            </trkpt>
            <trkpt lon="101.409905" lat="14.171823">
                <ele>34.000000</ele>
                <time>1970-01-01T04:26:48Z</time>
            </trkpt>
            <trkpt lon="101.409873" lat="14.171818">
                <ele>34.900000</ele>
                <time>1970-01-01T04:26:52Z</time>
            </trkpt>
            <trkpt lon="101.409841" lat="14.171815">
                <ele>35.200000</ele>
                <time>1970-01-01T04:26:56Z</time>
            </trkpt>
            <trkpt lon="101.409808" lat="14.171820">
                <ele>35.400000</ele>
                <time>1970-01-01T04:27:01Z</time>
            </trkpt>
            <trkpt lon="101.409789" lat="14.171846">
                <ele>34.900000</ele>
                <time>1970-01-01T04:27:05Z</time>
            </trkpt>
            <trkpt lon="101.409762" lat="14.171866">
                <ele>34.700000</ele>
                <time>1970-01-01T04:27:08Z</time>
            </trkpt>
            <trkpt lon="101.409728" lat="14.171871">
                <ele>35.000000</ele>
                <time>1970-01-01T04:27:10Z</time>
            </trkpt>
            <trkpt lon="101.409698" lat="14.171889">
                <ele>35.000000</ele>
                <time>1970-01-01T04:27:12Z</time>
            </trkpt>
            <trkpt lon="101.409677" lat="14.171911">
                <ele>35.000000</ele>
                <time>1970-01-01T04:27:14Z</time>
            </trkpt>
            <trkpt lon="101.409646" lat="14.171940">
                <ele>35.000000</ele>
                <time>1970-01-01T04:27:17Z</time>
            </trkpt>
            <trkpt lon="101.409622" lat="14.171957">
                <ele>34.900000</ele>
                <time>1970-01-01T04:27:19Z</time>
            </trkpt>
            <trkpt lon="101.409594" lat="14.171971">
                <ele>35.400000</ele>
                <time>1970-01-01T04:27:21Z</time>
            </trkpt>
            <trkpt lon="101.409556" lat="14.171985">
                <ele>35.800000</ele>
                <time>1970-01-01T04:27:23Z</time>
            </trkpt>
            <trkpt lon="101.409528" lat="14.171976">
                <ele>35.800000</ele>
                <time>1970-01-01T04:27:34Z</time>
            </trkpt>
            <trkpt lon="101.409496" lat="14.171987">
                <ele>36.100000</ele>
                <time>1970-01-01T04:27:45Z</time>
            </trkpt>
            <trkpt lon="101.409463" lat="14.171988">
                <ele>35.800000</ele>
                <time>1970-01-01T04:27:49Z</time>
            </trkpt>
            <trkpt lon="101.409431" lat="14.171962">
                <ele>36.400000</ele>
                <time>1970-01-01T04:27:52Z</time>
            </trkpt>
            <trkpt lon="101.409399" lat="14.171942">
                <ele>37.300000</ele>
                <time>1970-01-01T04:27:55Z</time>
            </trkpt>
            <trkpt lon="101.409369" lat="14.171944">
                <ele>37.600000</ele>
                <time>1970-01-01T04:28:01Z</time>
            </trkpt>
            <trkpt lon="101.409333" lat="14.171950">
                <ele>37.500000</ele>
                <time>1970-01-01T04:28:05Z</time>
            </trkpt>
            <trkpt lon="101.409311" lat="14.171976">
                <ele>37.500000</ele>
                <time>1970-01-01T04:28:09Z</time>
            </trkpt>
            <trkpt lon="101.409306" lat="14.172010">
                <ele>37.000000</ele>
                <time>1970-01-01T04:28:12Z</time>
            </trkpt>
            <trkpt lon="101.409304" lat="14.172054">
                <ele>36.500000</ele>
                <time>1970-01-01T04:28:17Z</time>
            </trkpt>
            <trkpt lon="101.409323" lat="14.172086">
                <ele>36.000000</ele>
                <time>1970-01-01T04:28:19Z</time>
            </trkpt>
            <trkpt lon="101.409360" lat="14.172098">
                <ele>35.600000</ele>
                <time>1970-01-01T04:28:22Z</time>
            </trkpt>
            <trkpt lon="101.409388" lat="14.172114">
                <ele>34.600000</ele>
                <time>1970-01-01T04:28:25Z</time>
            </trkpt>
            <trkpt lon="101.409407" lat="14.172136">
                <ele>34.600000</ele>
                <time>1970-01-01T04:28:27Z</time>
            </trkpt>
            <trkpt lon="101.409427" lat="14.172183">
                <ele>34.100000</ele>
                <time>1970-01-01T04:28:29Z</time>
            </trkpt>
            <trkpt lon="101.409438" lat="14.172211">
                <ele>33.100000</ele>
                <time>1970-01-01T04:28:30Z</time>
            </trkpt>
            <trkpt lon="101.409454" lat="14.172245">
                <ele>32.600000</ele>
                <time>1970-01-01T04:28:31Z</time>
            </trkpt>
            <trkpt lon="101.409470" lat="14.172277">
                <ele>32.600000</ele>
                <time>1970-01-01T04:28:32Z</time>
            </trkpt>
            <trkpt lon="101.409482" lat="14.172303">
                <ele>31.500000</ele>
                <time>1970-01-01T04:28:33Z</time>
            </trkpt>
            <trkpt lon="101.409494" lat="14.172329">
                <ele>30.900000</ele>
                <time>1970-01-01T04:28:34Z</time>
            </trkpt>
            <trkpt lon="101.409508" lat="14.172354">
                <ele>30.900000</ele>
                <time>1970-01-01T04:28:35Z</time>
            </trkpt>
            <trkpt lon="101.409529" lat="14.172387">
                <ele>30.000000</ele>
                <time>1970-01-01T04:28:37Z</time>
            </trkpt>
            <trkpt lon="101.409543" lat="14.172416">
                <ele>29.500000</ele>
                <time>1970-01-01T04:28:39Z</time>
            </trkpt>
            <trkpt lon="101.409547" lat="14.172470">
                <ele>29.100000</ele>
                <time>1970-01-01T04:28:41Z</time>
            </trkpt>
            <trkpt lon="101.409544" lat="14.172498">
                <ele>28.800000</ele>
                <time>1970-01-01T04:28:43Z</time>
            </trkpt>
            <trkpt lon="101.409556" lat="14.172526">
                <ele>28.800000</ele>
                <time>1970-01-01T04:28:50Z</time>
            </trkpt>
            <trkpt lon="101.409580" lat="14.172560">
                <ele>28.200000</ele>
                <time>1970-01-01T04:28:53Z</time>
            </trkpt>
            <trkpt lon="101.409608" lat="14.172580">
                <ele>27.500000</ele>
                <time>1970-01-01T04:28:55Z</time>
            </trkpt>
            <trkpt lon="101.409636" lat="14.172591">
                <ele>27.500000</ele>
                <time>1970-01-01T04:28:57Z</time>
            </trkpt>
            <trkpt lon="101.409629" lat="14.172626">
                <ele>27.200000</ele>
                <time>1970-01-01T04:29:07Z</time>
            </trkpt>
            <trkpt lon="101.409608" lat="14.172647">
                <ele>27.200000</ele>
                <time>1970-01-01T04:29:09Z</time>
            </trkpt>
            <trkpt lon="101.409588" lat="14.172670">
                <ele>27.500000</ele>
                <time>1970-01-01T04:29:13Z</time>
            </trkpt>
            <trkpt lon="101.409564" lat="14.172699">
                <ele>27.200000</ele>
                <time>1970-01-01T04:29:19Z</time>
            </trkpt>
            <trkpt lon="101.409534" lat="14.172725">
                <ele>27.600000</ele>
                <time>1970-01-01T04:29:21Z</time>
            </trkpt>
            <trkpt lon="101.409492" lat="14.172750">
                <ele>27.600000</ele>
                <time>1970-01-01T04:29:23Z</time>
            </trkpt>
            <trkpt lon="101.409456" lat="14.172781">
                <ele>27.600000</ele>
                <time>1970-01-01T04:29:25Z</time>
            </trkpt>
            <trkpt lon="101.409423" lat="14.172820">
                <ele>27.800000</ele>
                <time>1970-01-01T04:29:27Z</time>
            </trkpt>
            <trkpt lon="101.409402" lat="14.172841">
                <ele>27.600000</ele>
                <time>1970-01-01T04:29:28Z</time>
            </trkpt>
            <trkpt lon="101.409378" lat="14.172863">
                <ele>27.400000</ele>
                <time>1970-01-01T04:29:29Z</time>
            </trkpt>
            <trkpt lon="101.409352" lat="14.172887">
                <ele>27.400000</ele>
                <time>1970-01-01T04:29:30Z</time>
            </trkpt>
            <trkpt lon="101.409327" lat="14.172908">
                <ele>27.200000</ele>
                <time>1970-01-01T04:29:31Z</time>
            </trkpt>
            <trkpt lon="101.409303" lat="14.172924">
                <ele>27.200000</ele>
                <time>1970-01-01T04:29:32Z</time>
            </trkpt>
            <trkpt lon="101.409278" lat="14.172946">
                <ele>27.100000</ele>
                <time>1970-01-01T04:29:33Z</time>
            </trkpt>
            <trkpt lon="101.409252" lat="14.172959">
                <ele>27.100000</ele>
                <time>1970-01-01T04:29:34Z</time>
            </trkpt>
            <trkpt lon="101.409210" lat="14.172981">
                <ele>27.100000</ele>
                <time>1970-01-01T04:29:36Z</time>
            </trkpt>
            <trkpt lon="101.409173" lat="14.173006">
                <ele>27.100000</ele>
                <time>1970-01-01T04:29:38Z</time>
            </trkpt>
            <trkpt lon="101.409140" lat="14.173043">
                <ele>27.100000</ele>
                <time>1970-01-01T04:29:40Z</time>
            </trkpt>
            <trkpt lon="101.409099" lat="14.173072">
                <ele>27.100000</ele>
                <time>1970-01-01T04:29:42Z</time>
            </trkpt>
            <trkpt lon="101.409069" lat="14.173079">
                <ele>27.100000</ele>
                <time>1970-01-01T04:29:43Z</time>
            </trkpt>
            <trkpt lon="101.409038" lat="14.173082">
                <ele>27.300000</ele>
                <time>1970-01-01T04:29:44Z</time>
            </trkpt>
            <trkpt lon="101.409005" lat="14.173086">
                <ele>27.300000</ele>
                <time>1970-01-01T04:29:45Z</time>
            </trkpt>
            <trkpt lon="101.408972" lat="14.173088">
                <ele>27.500000</ele>
                <time>1970-01-01T04:29:46Z</time>
            </trkpt>
            <trkpt lon="101.408942" lat="14.173094">
                <ele>27.800000</ele>
                <time>1970-01-01T04:29:47Z</time>
            </trkpt>
            <trkpt lon="101.408894" lat="14.173116">
                <ele>27.700000</ele>
                <time>1970-01-01T04:29:49Z</time>
            </trkpt>
            <trkpt lon="101.408851" lat="14.173139">
                <ele>28.300000</ele>
                <time>1970-01-01T04:29:51Z</time>
            </trkpt>
            <trkpt lon="101.408828" lat="14.173155">
                <ele>28.700000</ele>
                <time>1970-01-01T04:29:52Z</time>
            </trkpt>
            <trkpt lon="101.408806" lat="14.173175">
                <ele>28.700000</ele>
                <time>1970-01-01T04:29:53Z</time>
            </trkpt>
            <trkpt lon="101.408786" lat="14.173194">
                <ele>29.600000</ele>
                <time>1970-01-01T04:29:54Z</time>
            </trkpt>
            <trkpt lon="101.408766" lat="14.173213">
                <ele>28.900000</ele>
                <time>1970-01-01T04:29:55Z</time>
            </trkpt>
            <trkpt lon="101.408737" lat="14.173229">
                <ele>29.800000</ele>
                <time>1970-01-01T04:29:56Z</time>
            </trkpt>
            <trkpt lon="101.408706" lat="14.173241">
                <ele>29.100000</ele>
                <time>1970-01-01T04:29:57Z</time>
            </trkpt>
            <trkpt lon="101.408679" lat="14.173251">
                <ele>30.000000</ele>
                <time>1970-01-01T04:29:58Z</time>
            </trkpt>
            <trkpt lon="101.408654" lat="14.173265">
                <ele>31.000000</ele>
                <time>1970-01-01T04:29:59Z</time>
            </trkpt>
            <trkpt lon="101.408631" lat="14.173286">
                <ele>30.300000</ele>
                <time>1970-01-01T04:30:00Z</time>
            </trkpt>
            <trkpt lon="101.408612" lat="14.173314">
                <ele>31.200000</ele>
                <time>1970-01-01T04:30:01Z</time>
            </trkpt>
            <trkpt lon="101.408595" lat="14.173346">
                <ele>30.600000</ele>
                <time>1970-01-01T04:30:02Z</time>
            </trkpt>
            <trkpt lon="101.408576" lat="14.173382">
                <ele>29.900000</ele>
                <time>1970-01-01T04:30:03Z</time>
            </trkpt>
            <trkpt lon="101.408557" lat="14.173416">
                <ele>30.100000</ele>
                <time>1970-01-01T04:30:04Z</time>
            </trkpt>
            <trkpt lon="101.408537" lat="14.173446">
                <ele>29.500000</ele>
                <time>1970-01-01T04:30:05Z</time>
            </trkpt>
            <trkpt lon="101.408516" lat="14.173472">
                <ele>30.200000</ele>
                <time>1970-01-01T04:30:06Z</time>
            </trkpt>
            <trkpt lon="101.408500" lat="14.173496">
                <ele>29.700000</ele>
                <time>1970-01-01T04:30:07Z</time>
            </trkpt>
            <trkpt lon="101.408486" lat="14.173532">
                <ele>30.000000</ele>
                <time>1970-01-01T04:30:09Z</time>
            </trkpt>
            <trkpt lon="101.408479" lat="14.173583">
                <ele>29.500000</ele>
                <time>1970-01-01T04:30:11Z</time>
            </trkpt>
            <trkpt lon="101.408483" lat="14.173620">
                <ele>29.200000</ele>
                <time>1970-01-01T04:30:12Z</time>
            </trkpt>
            <trkpt lon="101.408497" lat="14.173668">
                <ele>28.400000</ele>
                <time>1970-01-01T04:30:13Z</time>
            </trkpt>
            <trkpt lon="101.408516" lat="14.173716">
                <ele>28.400000</ele>
                <time>1970-01-01T04:30:14Z</time>
            </trkpt>
            <trkpt lon="101.408564" lat="14.173799">
                <ele>27.900000</ele>
                <time>1970-01-01T04:30:15Z</time>
            </trkpt>
            <trkpt lon="101.408581" lat="14.173877">
                <ele>27.600000</ele>
                <time>1970-01-01T04:30:16Z</time>
            </trkpt>
            <trkpt lon="101.408602" lat="14.173941">
                <ele>27.700000</ele>
                <time>1970-01-01T04:30:17Z</time>
            </trkpt>
            <trkpt lon="101.408631" lat="14.174002">
                <ele>27.400000</ele>
                <time>1970-01-01T04:30:18Z</time>
            </trkpt>
            <trkpt lon="101.408660" lat="14.174060">
                <ele>27.200000</ele>
                <time>1970-01-01T04:30:19Z</time>
            </trkpt>
            <trkpt lon="101.408686" lat="14.174094">
                <ele>27.100000</ele>
                <time>1970-01-01T04:30:20Z</time>
            </trkpt>
            <trkpt lon="101.408682" lat="14.174132">
                <ele>27.100000</ele>
                <time>1970-01-01T04:30:21Z</time>
            </trkpt>
            <trkpt lon="101.408696" lat="14.174170">
                <ele>27.100000</ele>
                <time>1970-01-01T04:30:22Z</time>
            </trkpt>
            <trkpt lon="101.408700" lat="14.174198">
                <ele>27.100000</ele>
                <time>1970-01-01T04:30:23Z</time>
            </trkpt>
            <trkpt lon="101.408722" lat="14.174231">
                <ele>27.000000</ele>
                <time>1970-01-01T04:30:24Z</time>
            </trkpt>
            <trkpt lon="101.408734" lat="14.174258">
                <ele>27.000000</ele>
                <time>1970-01-01T04:30:25Z</time>
            </trkpt>
            <trkpt lon="101.408759" lat="14.174280">
                <ele>26.800000</ele>
                <time>1970-01-01T04:30:26Z</time>
            </trkpt>
            <trkpt lon="101.408773" lat="14.174304">
                <ele>26.800000</ele>
                <time>1970-01-01T04:30:27Z</time>
            </trkpt>
            <trkpt lon="101.408783" lat="14.174343">
                <ele>26.900000</ele>
                <time>1970-01-01T04:30:28Z</time>
            </trkpt>
            <trkpt lon="101.408766" lat="14.174369">
                <ele>27.000000</ele>
                <time>1970-01-01T04:30:29Z</time>
            </trkpt>
            <trkpt lon="101.408792" lat="14.174401">
                <ele>26.900000</ele>
                <time>1970-01-01T04:30:30Z</time>
            </trkpt>
            <trkpt lon="101.408822" lat="14.174421">
                <ele>27.100000</ele>
                <time>1970-01-01T04:30:31Z</time>
            </trkpt>
            <trkpt lon="101.408855" lat="14.174429">
                <ele>27.000000</ele>
                <time>1970-01-01T04:30:32Z</time>
            </trkpt>
            <trkpt lon="101.408891" lat="14.174430">
                <ele>27.000000</ele>
                <time>1970-01-01T04:30:33Z</time>
            </trkpt>
            <trkpt lon="101.408930" lat="14.174422">
                <ele>27.000000</ele>
                <time>1970-01-01T04:30:34Z</time>
            </trkpt>
            <trkpt lon="101.408967" lat="14.174410">
                <ele>27.000000</ele>
                <time>1970-01-01T04:30:35Z</time>
            </trkpt>
            <trkpt lon="101.409002" lat="14.174402">
                <ele>27.000000</ele>
                <time>1970-01-01T04:30:36Z</time>
            </trkpt>
            <trkpt lon="101.409039" lat="14.174396">
                <ele>26.800000</ele>
                <time>1970-01-01T04:30:37Z</time>
            </trkpt>
            <trkpt lon="101.409080" lat="14.174393">
                <ele>26.800000</ele>
                <time>1970-01-01T04:30:38Z</time>
            </trkpt>
            <trkpt lon="101.409122" lat="14.174391">
                <ele>26.800000</ele>
                <time>1970-01-01T04:30:39Z</time>
            </trkpt>
            <trkpt lon="101.409166" lat="14.174393">
                <ele>26.800000</ele>
                <time>1970-01-01T04:30:40Z</time>
            </trkpt>
            <trkpt lon="101.409211" lat="14.174401">
                <ele>26.800000</ele>
                <time>1970-01-01T04:30:41Z</time>
            </trkpt>
            <trkpt lon="101.409257" lat="14.174415">
                <ele>26.900000</ele>
                <time>1970-01-01T04:30:42Z</time>
            </trkpt>
            <trkpt lon="101.409301" lat="14.174434">
                <ele>26.700000</ele>
                <time>1970-01-01T04:30:43Z</time>
            </trkpt>
            <trkpt lon="101.409343" lat="14.174458">
                <ele>26.400000</ele>
                <time>1970-01-01T04:30:44Z</time>
            </trkpt>
            <trkpt lon="101.409382" lat="14.174479">
                <ele>26.200000</ele>
                <time>1970-01-01T04:30:45Z</time>
            </trkpt>
            <trkpt lon="101.409421" lat="14.174504">
                <ele>25.800000</ele>
                <time>1970-01-01T04:30:46Z</time>
            </trkpt>
            <trkpt lon="101.409470" lat="14.174558">
                <ele>25.500000</ele>
                <time>1970-01-01T04:30:47Z</time>
            </trkpt>
            <trkpt lon="101.409491" lat="14.174590">
                <ele>25.300000</ele>
                <time>1970-01-01T04:30:48Z</time>
            </trkpt>
            <trkpt lon="101.409512" lat="14.174628">
                <ele>25.100000</ele>
                <time>1970-01-01T04:30:49Z</time>
            </trkpt>
            <trkpt lon="101.409549" lat="14.174668">
                <ele>25.100000</ele>
                <time>1970-01-01T04:30:50Z</time>
            </trkpt>
            <trkpt lon="101.409603" lat="14.174697">
                <ele>25.500000</ele>
                <time>1970-01-01T04:30:51Z</time>
            </trkpt>
            <trkpt lon="101.409647" lat="14.174727">
                <ele>25.800000</ele>
                <time>1970-01-01T04:30:52Z</time>
            </trkpt>
            <trkpt lon="101.409681" lat="14.174778">
                <ele>25.800000</ele>
                <time>1970-01-01T04:30:53Z</time>
            </trkpt>
            <trkpt lon="101.409729" lat="14.174781">
                <ele>26.000000</ele>
                <time>1970-01-01T04:30:54Z</time>
            </trkpt>
            <trkpt lon="101.409772" lat="14.174770">
                <ele>26.200000</ele>
                <time>1970-01-01T04:30:55Z</time>
            </trkpt>
            <trkpt lon="101.409829" lat="14.174754">
                <ele>26.200000</ele>
                <time>1970-01-01T04:30:56Z</time>
            </trkpt>
            <trkpt lon="101.409888" lat="14.174744">
                <ele>26.200000</ele>
                <time>1970-01-01T04:30:57Z</time>
            </trkpt>
            <trkpt lon="101.409950" lat="14.174729">
                <ele>26.200000</ele>
                <time>1970-01-01T04:30:58Z</time>
            </trkpt>
            <trkpt lon="101.410003" lat="14.174723">
                <ele>26.200000</ele>
                <time>1970-01-01T04:30:59Z</time>
            </trkpt>
            <trkpt lon="101.410053" lat="14.174729">
                <ele>26.200000</ele>
                <time>1970-01-01T04:31:00Z</time>
            </trkpt>
            <trkpt lon="101.410082" lat="14.174748">
                <ele>26.200000</ele>
                <time>1970-01-01T04:31:01Z</time>
            </trkpt>
            <trkpt lon="101.410106" lat="14.174767">
                <ele>26.200000</ele>
                <time>1970-01-01T04:31:02Z</time>
            </trkpt>
            <trkpt lon="101.410100" lat="14.174794">
                <ele>26.300000</ele>
                <time>1970-01-01T04:31:03Z</time>
            </trkpt>
            <trkpt lon="101.410094" lat="14.174826">
                <ele>26.500000</ele>
                <time>1970-01-01T04:31:04Z</time>
            </trkpt>
            <trkpt lon="101.410096" lat="14.174856">
                <ele>26.500000</ele>
                <time>1970-01-01T04:31:05Z</time>
            </trkpt>
            <trkpt lon="101.410080" lat="14.174899">
                <ele>26.700000</ele>
                <time>1970-01-01T04:31:06Z</time>
            </trkpt>
            <trkpt lon="101.410074" lat="14.174937">
                <ele>27.000000</ele>
                <time>1970-01-01T04:31:07Z</time>
            </trkpt>
            <trkpt lon="101.410053" lat="14.174980">
                <ele>27.200000</ele>
                <time>1970-01-01T04:31:08Z</time>
            </trkpt>
            <trkpt lon="101.410046" lat="14.175010">
                <ele>27.200000</ele>
                <time>1970-01-01T04:31:09Z</time>
            </trkpt>
            <trkpt lon="101.410039" lat="14.175053">
                <ele>27.200000</ele>
                <time>1970-01-01T04:31:10Z</time>
            </trkpt>
            <trkpt lon="101.410028" lat="14.175095">
                <ele>27.200000</ele>
                <time>1970-01-01T04:31:11Z</time>
            </trkpt>
            <trkpt lon="101.410024" lat="14.175140">
                <ele>27.100000</ele>
                <time>1970-01-01T04:31:12Z</time>
            </trkpt>
            <trkpt lon="101.410024" lat="14.175178">
                <ele>26.800000</ele>
                <time>1970-01-01T04:31:13Z</time>
            </trkpt>
            <trkpt lon="101.410018" lat="14.175241">
                <ele>26.300000</ele>
                <time>1970-01-01T04:31:14Z</time>
            </trkpt>
            <trkpt lon="101.410010" lat="14.175286">
                <ele>26.100000</ele>
                <time>1970-01-01T04:31:15Z</time>
            </trkpt>
            <trkpt lon="101.409994" lat="14.175317">
                <ele>25.800000</ele>
                <time>1970-01-01T04:31:16Z</time>
            </trkpt>
            <trkpt lon="101.409930" lat="14.175341">
                <ele>25.800000</ele>
                <time>1970-01-01T04:31:18Z</time>
            </trkpt>
            <trkpt lon="101.409869" lat="14.175334">
                <ele>25.700000</ele>
                <time>1970-01-01T04:31:20Z</time>
            </trkpt>
            <trkpt lon="101.409835" lat="14.175332">
                <ele>25.400000</ele>
                <time>1970-01-01T04:31:21Z</time>
            </trkpt>
            <trkpt lon="101.409798" lat="14.175334">
                <ele>25.200000</ele>
                <time>1970-01-01T04:31:22Z</time>
            </trkpt>
            <trkpt lon="101.409758" lat="14.175335">
                <ele>24.900000</ele>
                <time>1970-01-01T04:31:23Z</time>
            </trkpt>
            <trkpt lon="101.409721" lat="14.175335">
                <ele>24.900000</ele>
                <time>1970-01-01T04:31:24Z</time>
            </trkpt>
            <trkpt lon="101.409682" lat="14.175334">
                <ele>24.900000</ele>
                <time>1970-01-01T04:31:25Z</time>
            </trkpt>
            <trkpt lon="101.409645" lat="14.175329">
                <ele>25.000000</ele>
                <time>1970-01-01T04:31:26Z</time>
            </trkpt>
            <trkpt lon="101.409612" lat="14.175317">
                <ele>25.000000</ele>
                <time>1970-01-01T04:31:27Z</time>
            </trkpt>
            <trkpt lon="101.409583" lat="14.175294">
                <ele>25.200000</ele>
                <time>1970-01-01T04:31:28Z</time>
            </trkpt>
            <trkpt lon="101.409562" lat="14.175261">
                <ele>25.300000</ele>
                <time>1970-01-01T04:31:29Z</time>
            </trkpt>
            <trkpt lon="101.409547" lat="14.175225">
                <ele>25.600000</ele>
                <time>1970-01-01T04:31:30Z</time>
            </trkpt>
            <trkpt lon="101.409535" lat="14.175188">
                <ele>25.800000</ele>
                <time>1970-01-01T04:31:31Z</time>
            </trkpt>
            <trkpt lon="101.409524" lat="14.175151">
                <ele>25.800000</ele>
                <time>1970-01-01T04:31:32Z</time>
            </trkpt>
            <trkpt lon="101.409513" lat="14.175117">
                <ele>26.100000</ele>
                <time>1970-01-01T04:31:33Z</time>
            </trkpt>
            <trkpt lon="101.409501" lat="14.175085">
                <ele>26.200000</ele>
                <time>1970-01-01T04:31:34Z</time>
            </trkpt>
            <trkpt lon="101.409486" lat="14.175061">
                <ele>26.200000</ele>
                <time>1970-01-01T04:31:35Z</time>
            </trkpt>
            <trkpt lon="101.409434" lat="14.175040">
                <ele>26.200000</ele>
                <time>1970-01-01T04:31:37Z</time>
            </trkpt>
            <trkpt lon="101.409397" lat="14.175049">
                <ele>26.200000</ele>
                <time>1970-01-01T04:31:38Z</time>
            </trkpt>
            <trkpt lon="101.409361" lat="14.175065">
                <ele>26.200000</ele>
                <time>1970-01-01T04:31:39Z</time>
            </trkpt>
            <trkpt lon="101.409326" lat="14.175084">
                <ele>26.200000</ele>
                <time>1970-01-01T04:31:40Z</time>
            </trkpt>
            <trkpt lon="101.409293" lat="14.175103">
                <ele>26.200000</ele>
                <time>1970-01-01T04:31:41Z</time>
            </trkpt>
            <trkpt lon="101.409260" lat="14.175122">
                <ele>26.100000</ele>
                <time>1970-01-01T04:31:42Z</time>
            </trkpt>
            <trkpt lon="101.409228" lat="14.175138">
                <ele>26.100000</ele>
                <time>1970-01-01T04:31:43Z</time>
            </trkpt>
            <trkpt lon="101.409196" lat="14.175151">
                <ele>25.800000</ele>
                <time>1970-01-01T04:31:44Z</time>
            </trkpt>
            <trkpt lon="101.409164" lat="14.175163">
                <ele>25.800000</ele>
                <time>1970-01-01T04:31:45Z</time>
            </trkpt>
            <trkpt lon="101.409133" lat="14.175174">
                <ele>25.800000</ele>
                <time>1970-01-01T04:31:46Z</time>
            </trkpt>
            <trkpt lon="101.409102" lat="14.175186">
                <ele>25.800000</ele>
                <time>1970-01-01T04:31:47Z</time>
            </trkpt>
            <trkpt lon="101.409071" lat="14.175198">
                <ele>25.600000</ele>
                <time>1970-01-01T04:31:48Z</time>
            </trkpt>
            <trkpt lon="101.409039" lat="14.175211">
                <ele>25.600000</ele>
                <time>1970-01-01T04:31:49Z</time>
            </trkpt>
            <trkpt lon="101.409007" lat="14.175221">
                <ele>25.600000</ele>
                <time>1970-01-01T04:31:50Z</time>
            </trkpt>
            <trkpt lon="101.408964" lat="14.175202">
                <ele>25.600000</ele>
                <time>1970-01-01T04:31:52Z</time>
            </trkpt>
            <trkpt lon="101.408955" lat="14.175173">
                <ele>25.800000</ele>
                <time>1970-01-01T04:31:53Z</time>
            </trkpt>
            <trkpt lon="101.408950" lat="14.175143">
                <ele>26.100000</ele>
                <time>1970-01-01T04:31:54Z</time>
            </trkpt>
            <trkpt lon="101.408944" lat="14.175116">
                <ele>26.100000</ele>
                <time>1970-01-01T04:31:55Z</time>
            </trkpt>
            <trkpt lon="101.408932" lat="14.175091">
                <ele>26.200000</ele>
                <time>1970-01-01T04:31:56Z</time>
            </trkpt>
            <trkpt lon="101.408895" lat="14.175058">
                <ele>26.200000</ele>
                <time>1970-01-01T04:31:58Z</time>
            </trkpt>
            <trkpt lon="101.408851" lat="14.175075">
                <ele>26.100000</ele>
                <time>1970-01-01T04:32:00Z</time>
            </trkpt>
            <trkpt lon="101.408813" lat="14.175114">
                <ele>25.700000</ele>
                <time>1970-01-01T04:32:02Z</time>
            </trkpt>
            <trkpt lon="101.408773" lat="14.175154">
                <ele>25.400000</ele>
                <time>1970-01-01T04:32:04Z</time>
            </trkpt>
            <trkpt lon="101.408737" lat="14.175190">
                <ele>25.300000</ele>
                <time>1970-01-01T04:32:06Z</time>
            </trkpt>
            <trkpt lon="101.408702" lat="14.175219">
                <ele>25.200000</ele>
                <time>1970-01-01T04:32:08Z</time>
            </trkpt>
            <trkpt lon="101.408678" lat="14.175233">
                <ele>25.200000</ele>
                <time>1970-01-01T04:32:09Z</time>
            </trkpt>
            <trkpt lon="101.408652" lat="14.175247">
                <ele>25.200000</ele>
                <time>1970-01-01T04:32:10Z</time>
            </trkpt>
            <trkpt lon="101.408603" lat="14.175269">
                <ele>25.200000</ele>
                <time>1970-01-01T04:32:12Z</time>
            </trkpt>
            <trkpt lon="101.408576" lat="14.175276">
                <ele>25.200000</ele>
                <time>1970-01-01T04:32:13Z</time>
            </trkpt>
            <trkpt lon="101.408544" lat="14.175285">
                <ele>25.200000</ele>
                <time>1970-01-01T04:32:14Z</time>
            </trkpt>
            <trkpt lon="101.408513" lat="14.175294">
                <ele>25.200000</ele>
                <time>1970-01-01T04:32:15Z</time>
            </trkpt>
            <trkpt lon="101.408468" lat="14.175313">
                <ele>25.200000</ele>
                <time>1970-01-01T04:32:17Z</time>
            </trkpt>
            <trkpt lon="101.408426" lat="14.175339">
                <ele>25.200000</ele>
                <time>1970-01-01T04:32:19Z</time>
            </trkpt>
            <trkpt lon="101.408398" lat="14.175353">
                <ele>25.200000</ele>
                <time>1970-01-01T04:32:20Z</time>
            </trkpt>
            <trkpt lon="101.408369" lat="14.175368">
                <ele>25.200000</ele>
                <time>1970-01-01T04:32:21Z</time>
            </trkpt>
            <trkpt lon="101.408342" lat="14.175380">
                <ele>25.100000</ele>
                <time>1970-01-01T04:32:22Z</time>
            </trkpt>
            <trkpt lon="101.408291" lat="14.175380">
                <ele>24.800000</ele>
                <time>1970-01-01T04:32:24Z</time>
            </trkpt>
            <trkpt lon="101.408252" lat="14.175366">
                <ele>24.600000</ele>
                <time>1970-01-01T04:32:26Z</time>
            </trkpt>
            <trkpt lon="101.408239" lat="14.175337">
                <ele>24.600000</ele>
                <time>1970-01-01T04:32:28Z</time>
            </trkpt>
            <trkpt lon="101.408266" lat="14.175297">
                <ele>24.600000</ele>
                <time>1970-01-01T04:32:30Z</time>
            </trkpt>
            <trkpt lon="101.408312" lat="14.175279">
                <ele>24.800000</ele>
                <time>1970-01-01T04:32:32Z</time>
            </trkpt>
            <trkpt lon="101.408341" lat="14.175275">
                <ele>25.100000</ele>
                <time>1970-01-01T04:32:33Z</time>
            </trkpt>
            <trkpt lon="101.408379" lat="14.175267">
                <ele>25.300000</ele>
                <time>1970-01-01T04:32:35Z</time>
            </trkpt>
            <trkpt lon="101.408397" lat="14.175245">
                <ele>25.300000</ele>
                <time>1970-01-01T04:32:58Z</time>
            </trkpt>
            <trkpt lon="101.408386" lat="14.175220">
                <ele>25.500000</ele>
                <time>1970-01-01T04:33:26Z</time>
            </trkpt>
            <trkpt lon="101.408357" lat="14.175220">
                <ele>25.500000</ele>
                <time>1970-01-01T04:33:33Z</time>
            </trkpt>
            <trkpt lon="101.408318" lat="14.175232">
                <ele>25.500000</ele>
                <time>1970-01-01T04:33:36Z</time>
            </trkpt>
            <trkpt lon="101.408287" lat="14.175237">
                <ele>25.000000</ele>
                <time>1970-01-01T04:33:38Z</time>
            </trkpt>
            <trkpt lon="101.408252" lat="14.175252">
                <ele>24.700000</ele>
                <time>1970-01-01T04:33:40Z</time>
            </trkpt>
            <trkpt lon="101.408225" lat="14.175266">
                <ele>24.500000</ele>
                <time>1970-01-01T04:33:42Z</time>
            </trkpt>
            <trkpt lon="101.408191" lat="14.175266">
                <ele>24.500000</ele>
                <time>1970-01-01T04:33:44Z</time>
            </trkpt>
            <trkpt lon="101.408150" lat="14.175257">
                <ele>24.300000</ele>
                <time>1970-01-01T04:33:46Z</time>
            </trkpt>
            <trkpt lon="101.408104" lat="14.175259">
                <ele>24.300000</ele>
                <time>1970-01-01T04:33:48Z</time>
            </trkpt>
            <trkpt lon="101.408055" lat="14.175268">
                <ele>24.200000</ele>
                <time>1970-01-01T04:33:50Z</time>
            </trkpt>
            <trkpt lon="101.408006" lat="14.175275">
                <ele>24.300000</ele>
                <time>1970-01-01T04:33:52Z</time>
            </trkpt>
            <trkpt lon="101.407958" lat="14.175281">
                <ele>24.500000</ele>
                <time>1970-01-01T04:33:54Z</time>
            </trkpt>
            <trkpt lon="101.407907" lat="14.175288">
                <ele>24.700000</ele>
                <time>1970-01-01T04:33:56Z</time>
            </trkpt>
            <trkpt lon="101.407860" lat="14.175295">
                <ele>25.000000</ele>
                <time>1970-01-01T04:33:58Z</time>
            </trkpt>
            <trkpt lon="101.407808" lat="14.175303">
                <ele>25.200000</ele>
                <time>1970-01-01T04:34:00Z</time>
            </trkpt>
            <trkpt lon="101.407778" lat="14.175307">
                <ele>25.500000</ele>
                <time>1970-01-01T04:34:01Z</time>
            </trkpt>
            <trkpt lon="101.407749" lat="14.175310">
                <ele>25.800000</ele>
                <time>1970-01-01T04:34:02Z</time>
            </trkpt>
            <trkpt lon="101.407694" lat="14.175317">
                <ele>26.000000</ele>
                <time>1970-01-01T04:34:04Z</time>
            </trkpt>
            <trkpt lon="101.407665" lat="14.175321">
                <ele>26.400000</ele>
                <time>1970-01-01T04:34:05Z</time>
            </trkpt>
            <trkpt lon="101.407635" lat="14.175325">
                <ele>26.400000</ele>
                <time>1970-01-01T04:34:06Z</time>
            </trkpt>
            <trkpt lon="101.407591" lat="14.175332">
                <ele>27.000000</ele>
                <time>1970-01-01T04:34:08Z</time>
            </trkpt>
            <trkpt lon="101.407543" lat="14.175354">
                <ele>27.600000</ele>
                <time>1970-01-01T04:34:10Z</time>
            </trkpt>
            <trkpt lon="101.407520" lat="14.175372">
                <ele>28.400000</ele>
                <time>1970-01-01T04:34:11Z</time>
            </trkpt>
            <trkpt lon="101.407500" lat="14.175395">
                <ele>28.400000</ele>
                <time>1970-01-01T04:34:12Z</time>
            </trkpt>
            <trkpt lon="101.407483" lat="14.175421">
                <ele>29.300000</ele>
                <time>1970-01-01T04:34:13Z</time>
            </trkpt>
            <trkpt lon="101.407467" lat="14.175449">
                <ele>29.400000</ele>
                <time>1970-01-01T04:34:14Z</time>
            </trkpt>
            <trkpt lon="101.407451" lat="14.175479">
                <ele>29.900000</ele>
                <time>1970-01-01T04:34:15Z</time>
            </trkpt>
            <trkpt lon="101.407438" lat="14.175516">
                <ele>29.900000</ele>
                <time>1970-01-01T04:34:16Z</time>
            </trkpt>
            <trkpt lon="101.407428" lat="14.175548">
                <ele>29.900000</ele>
                <time>1970-01-01T04:34:17Z</time>
            </trkpt>
            <trkpt lon="101.407430" lat="14.175580">
                <ele>29.900000</ele>
                <time>1970-01-01T04:34:18Z</time>
            </trkpt>
            <trkpt lon="101.407429" lat="14.175615">
                <ele>29.800000</ele>
                <time>1970-01-01T04:34:19Z</time>
            </trkpt>
            <trkpt lon="101.407455" lat="14.175660">
                <ele>29.400000</ele>
                <time>1970-01-01T04:34:22Z</time>
            </trkpt>
            <trkpt lon="101.407460" lat="14.175693">
                <ele>28.800000</ele>
                <time>1970-01-01T04:34:24Z</time>
            </trkpt>
            <trkpt lon="101.407477" lat="14.175747">
                <ele>28.500000</ele>
                <time>1970-01-01T04:34:26Z</time>
            </trkpt>
            <trkpt lon="101.407469" lat="14.175775">
                <ele>28.300000</ele>
                <time>1970-01-01T04:34:27Z</time>
            </trkpt>
            <trkpt lon="101.407471" lat="14.175809">
                <ele>28.300000</ele>
                <time>1970-01-01T04:34:28Z</time>
            </trkpt>
            <trkpt lon="101.407476" lat="14.175846">
                <ele>28.300000</ele>
                <time>1970-01-01T04:34:29Z</time>
            </trkpt>
            <trkpt lon="101.407479" lat="14.175881">
                <ele>28.300000</ele>
                <time>1970-01-01T04:34:30Z</time>
            </trkpt>
            <trkpt lon="101.407482" lat="14.175916">
                <ele>28.200000</ele>
                <time>1970-01-01T04:34:31Z</time>
            </trkpt>
            <trkpt lon="101.407486" lat="14.175952">
                <ele>28.200000</ele>
                <time>1970-01-01T04:34:32Z</time>
            </trkpt>
            <trkpt lon="101.407490" lat="14.175982">
                <ele>28.200000</ele>
                <time>1970-01-01T04:34:33Z</time>
            </trkpt>
            <trkpt lon="101.407493" lat="14.176012">
                <ele>28.200000</ele>
                <time>1970-01-01T04:34:34Z</time>
            </trkpt>
            <trkpt lon="101.407499" lat="14.176044">
                <ele>28.200000</ele>
                <time>1970-01-01T04:34:35Z</time>
            </trkpt>
            <trkpt lon="101.407506" lat="14.176079">
                <ele>28.100000</ele>
                <time>1970-01-01T04:34:36Z</time>
            </trkpt>
            <trkpt lon="101.407511" lat="14.176115">
                <ele>28.200000</ele>
                <time>1970-01-01T04:34:37Z</time>
            </trkpt>
            <trkpt lon="101.407515" lat="14.176149">
                <ele>28.400000</ele>
                <time>1970-01-01T04:34:38Z</time>
            </trkpt>
            <trkpt lon="101.407517" lat="14.176182">
                <ele>28.400000</ele>
                <time>1970-01-01T04:34:39Z</time>
            </trkpt>
            <trkpt lon="101.407519" lat="14.176213">
                <ele>28.700000</ele>
                <time>1970-01-01T04:34:40Z</time>
            </trkpt>
            <trkpt lon="101.407522" lat="14.176242">
                <ele>28.900000</ele>
                <time>1970-01-01T04:34:41Z</time>
            </trkpt>
            <trkpt lon="101.407525" lat="14.176272">
                <ele>28.900000</ele>
                <time>1970-01-01T04:34:42Z</time>
            </trkpt>
            <trkpt lon="101.407531" lat="14.176302">
                <ele>29.100000</ele>
                <time>1970-01-01T04:34:43Z</time>
            </trkpt>
            <trkpt lon="101.407543" lat="14.176332">
                <ele>29.000000</ele>
                <time>1970-01-01T04:34:44Z</time>
            </trkpt>
            <trkpt lon="101.407555" lat="14.176358">
                <ele>29.100000</ele>
                <time>1970-01-01T04:34:45Z</time>
            </trkpt>
            <trkpt lon="101.407567" lat="14.176406">
                <ele>29.200000</ele>
                <time>1970-01-01T04:34:47Z</time>
            </trkpt>
            <trkpt lon="101.407549" lat="14.176456">
                <ele>29.200000</ele>
                <time>1970-01-01T04:34:49Z</time>
            </trkpt>
            <trkpt lon="101.407530" lat="14.176483">
                <ele>29.200000</ele>
                <time>1970-01-01T04:34:50Z</time>
            </trkpt>
            <trkpt lon="101.407513" lat="14.176516">
                <ele>29.200000</ele>
                <time>1970-01-01T04:34:51Z</time>
            </trkpt>
            <trkpt lon="101.407499" lat="14.176550">
                <ele>29.200000</ele>
                <time>1970-01-01T04:34:52Z</time>
            </trkpt>
            <trkpt lon="101.407486" lat="14.176582">
                <ele>29.200000</ele>
                <time>1970-01-01T04:34:53Z</time>
            </trkpt>
            <trkpt lon="101.407470" lat="14.176614">
                <ele>29.200000</ele>
                <time>1970-01-01T04:34:54Z</time>
            </trkpt>
            <trkpt lon="101.407448" lat="14.176643">
                <ele>29.200000</ele>
                <time>1970-01-01T04:34:55Z</time>
            </trkpt>
            <trkpt lon="101.407420" lat="14.176666">
                <ele>29.200000</ele>
                <time>1970-01-01T04:34:56Z</time>
            </trkpt>
            <trkpt lon="101.407391" lat="14.176685">
                <ele>29.200000</ele>
                <time>1970-01-01T04:34:57Z</time>
            </trkpt>
            <trkpt lon="101.407358" lat="14.176701">
                <ele>29.200000</ele>
                <time>1970-01-01T04:34:58Z</time>
            </trkpt>
            <trkpt lon="101.407324" lat="14.176715">
                <ele>29.200000</ele>
                <time>1970-01-01T04:34:59Z</time>
            </trkpt>
            <trkpt lon="101.407289" lat="14.176729">
                <ele>29.200000</ele>
                <time>1970-01-01T04:35:00Z</time>
            </trkpt>
            <trkpt lon="101.407254" lat="14.176742">
                <ele>28.900000</ele>
                <time>1970-01-01T04:35:01Z</time>
            </trkpt>
            <trkpt lon="101.407222" lat="14.176755">
                <ele>28.700000</ele>
                <time>1970-01-01T04:35:02Z</time>
            </trkpt>
            <trkpt lon="101.407192" lat="14.176769">
                <ele>28.500000</ele>
                <time>1970-01-01T04:35:03Z</time>
            </trkpt>
            <trkpt lon="101.407159" lat="14.176784">
                <ele>28.200000</ele>
                <time>1970-01-01T04:35:04Z</time>
            </trkpt>
            <trkpt lon="101.407128" lat="14.176799">
                <ele>27.900000</ele>
                <time>1970-01-01T04:35:05Z</time>
            </trkpt>
            <trkpt lon="101.407095" lat="14.176816">
                <ele>27.000000</ele>
                <time>1970-01-01T04:35:06Z</time>
            </trkpt>
            <trkpt lon="101.407062" lat="14.176832">
                <ele>26.600000</ele>
                <time>1970-01-01T04:35:07Z</time>
            </trkpt>
            <trkpt lon="101.407027" lat="14.176844">
                <ele>26.200000</ele>
                <time>1970-01-01T04:35:08Z</time>
            </trkpt>
            <trkpt lon="101.406994" lat="14.176856">
                <ele>26.200000</ele>
                <time>1970-01-01T04:35:09Z</time>
            </trkpt>
            <trkpt lon="101.406964" lat="14.176867">
                <ele>25.600000</ele>
                <time>1970-01-01T04:35:10Z</time>
            </trkpt>
            <trkpt lon="101.406932" lat="14.176875">
                <ele>25.500000</ele>
                <time>1970-01-01T04:35:11Z</time>
            </trkpt>
            <trkpt lon="101.406892" lat="14.176888">
                <ele>25.400000</ele>
                <time>1970-01-01T04:35:12Z</time>
            </trkpt>
            <trkpt lon="101.406852" lat="14.176905">
                <ele>25.300000</ele>
                <time>1970-01-01T04:35:13Z</time>
            </trkpt>
            <trkpt lon="101.406814" lat="14.176923">
                <ele>25.300000</ele>
                <time>1970-01-01T04:35:14Z</time>
            </trkpt>
            <trkpt lon="101.406774" lat="14.176942">
                <ele>25.200000</ele>
                <time>1970-01-01T04:35:15Z</time>
            </trkpt>
            <trkpt lon="101.406734" lat="14.176958">
                <ele>25.300000</ele>
                <time>1970-01-01T04:35:16Z</time>
            </trkpt>
            <trkpt lon="101.406694" lat="14.176975">
                <ele>25.300000</ele>
                <time>1970-01-01T04:35:17Z</time>
            </trkpt>
            <trkpt lon="101.406661" lat="14.176990">
                <ele>25.500000</ele>
                <time>1970-01-01T04:35:18Z</time>
            </trkpt>
            <trkpt lon="101.406633" lat="14.177005">
                <ele>25.700000</ele>
                <time>1970-01-01T04:35:19Z</time>
            </trkpt>
            <trkpt lon="101.406607" lat="14.177019">
                <ele>25.700000</ele>
                <time>1970-01-01T04:35:20Z</time>
            </trkpt>
            <trkpt lon="101.406582" lat="14.177033">
                <ele>26.200000</ele>
                <time>1970-01-01T04:35:21Z</time>
            </trkpt>
            <trkpt lon="101.406559" lat="14.177048">
                <ele>26.200000</ele>
                <time>1970-01-01T04:35:22Z</time>
            </trkpt>
            <trkpt lon="101.406520" lat="14.177079">
                <ele>26.700000</ele>
                <time>1970-01-01T04:35:24Z</time>
            </trkpt>
            <trkpt lon="101.406510" lat="14.177132">
                <ele>27.100000</ele>
                <time>1970-01-01T04:35:26Z</time>
            </trkpt>
            <trkpt lon="101.406523" lat="14.177166">
                <ele>26.800000</ele>
                <time>1970-01-01T04:35:27Z</time>
            </trkpt>
            <trkpt lon="101.406543" lat="14.177202">
                <ele>26.800000</ele>
                <time>1970-01-01T04:35:28Z</time>
            </trkpt>
            <trkpt lon="101.406566" lat="14.177237">
                <ele>26.600000</ele>
                <time>1970-01-01T04:35:29Z</time>
            </trkpt>
            <trkpt lon="101.406588" lat="14.177274">
                <ele>26.700000</ele>
                <time>1970-01-01T04:35:30Z</time>
            </trkpt>
            <trkpt lon="101.406609" lat="14.177310">
                <ele>26.400000</ele>
                <time>1970-01-01T04:35:31Z</time>
            </trkpt>
            <trkpt lon="101.406625" lat="14.177349">
                <ele>26.700000</ele>
                <time>1970-01-01T04:35:32Z</time>
            </trkpt>
            <trkpt lon="101.406637" lat="14.177391">
                <ele>26.900000</ele>
                <time>1970-01-01T04:35:33Z</time>
            </trkpt>
            <trkpt lon="101.406651" lat="14.177427">
                <ele>27.100000</ele>
                <time>1970-01-01T04:35:34Z</time>
            </trkpt>
            <trkpt lon="101.406672" lat="14.177454">
                <ele>27.200000</ele>
                <time>1970-01-01T04:35:35Z</time>
            </trkpt>
            <trkpt lon="101.406702" lat="14.177479">
                <ele>27.200000</ele>
                <time>1970-01-01T04:35:36Z</time>
            </trkpt>
            <trkpt lon="101.406736" lat="14.177505">
                <ele>27.200000</ele>
                <time>1970-01-01T04:35:37Z</time>
            </trkpt>
            <trkpt lon="101.406769" lat="14.177528">
                <ele>27.200000</ele>
                <time>1970-01-01T04:35:38Z</time>
            </trkpt>
            <trkpt lon="101.406800" lat="14.177550">
                <ele>27.200000</ele>
                <time>1970-01-01T04:35:39Z</time>
            </trkpt>
            <trkpt lon="101.406831" lat="14.177570">
                <ele>27.200000</ele>
                <time>1970-01-01T04:35:40Z</time>
            </trkpt>
            <trkpt lon="101.406861" lat="14.177590">
                <ele>27.200000</ele>
                <time>1970-01-01T04:35:41Z</time>
            </trkpt>
            <trkpt lon="101.406893" lat="14.177614">
                <ele>27.200000</ele>
                <time>1970-01-01T04:35:42Z</time>
            </trkpt>
            <trkpt lon="101.406924" lat="14.177639">
                <ele>27.200000</ele>
                <time>1970-01-01T04:35:43Z</time>
            </trkpt>
            <trkpt lon="101.406951" lat="14.177661">
                <ele>27.200000</ele>
                <time>1970-01-01T04:35:44Z</time>
            </trkpt>
            <trkpt lon="101.406974" lat="14.177683">
                <ele>27.200000</ele>
                <time>1970-01-01T04:35:45Z</time>
            </trkpt>
            <trkpt lon="101.406991" lat="14.177706">
                <ele>27.300000</ele>
                <time>1970-01-01T04:35:46Z</time>
            </trkpt>
            <trkpt lon="101.406996" lat="14.177752">
                <ele>27.400000</ele>
                <time>1970-01-01T04:35:48Z</time>
            </trkpt>
            <trkpt lon="101.406979" lat="14.177776">
                <ele>27.300000</ele>
                <time>1970-01-01T04:35:49Z</time>
            </trkpt>
            <trkpt lon="101.406953" lat="14.177800">
                <ele>27.300000</ele>
                <time>1970-01-01T04:35:50Z</time>
            </trkpt>
            <trkpt lon="101.406924" lat="14.177821">
                <ele>27.600000</ele>
                <time>1970-01-01T04:35:51Z</time>
            </trkpt>
            <trkpt lon="101.406895" lat="14.177843">
                <ele>27.600000</ele>
                <time>1970-01-01T04:35:52Z</time>
            </trkpt>
            <trkpt lon="101.406869" lat="14.177867">
                <ele>27.800000</ele>
                <time>1970-01-01T04:35:53Z</time>
            </trkpt>
            <trkpt lon="101.406853" lat="14.177893">
                <ele>27.800000</ele>
                <time>1970-01-01T04:35:54Z</time>
            </trkpt>
            <trkpt lon="101.406866" lat="14.177942">
                <ele>28.300000</ele>
                <time>1970-01-01T04:35:56Z</time>
            </trkpt>
            <trkpt lon="101.406888" lat="14.177961">
                <ele>28.300000</ele>
                <time>1970-01-01T04:35:57Z</time>
            </trkpt>
            <trkpt lon="101.406909" lat="14.177983">
                <ele>28.300000</ele>
                <time>1970-01-01T04:35:58Z</time>
            </trkpt>
            <trkpt lon="101.406930" lat="14.178006">
                <ele>28.300000</ele>
                <time>1970-01-01T04:35:59Z</time>
            </trkpt>
            <trkpt lon="101.406953" lat="14.178029">
                <ele>28.300000</ele>
                <time>1970-01-01T04:36:00Z</time>
            </trkpt>
            <trkpt lon="101.406980" lat="14.178051">
                <ele>28.300000</ele>
                <time>1970-01-01T04:36:01Z</time>
            </trkpt>
            <trkpt lon="101.407007" lat="14.178072">
                <ele>28.300000</ele>
                <time>1970-01-01T04:36:02Z</time>
            </trkpt>
            <trkpt lon="101.407034" lat="14.178092">
                <ele>28.300000</ele>
                <time>1970-01-01T04:36:03Z</time>
            </trkpt>
            <trkpt lon="101.407058" lat="14.178110">
                <ele>28.200000</ele>
                <time>1970-01-01T04:36:04Z</time>
            </trkpt>
            <trkpt lon="101.407082" lat="14.178125">
                <ele>28.200000</ele>
                <time>1970-01-01T04:36:05Z</time>
            </trkpt>
            <trkpt lon="101.407111" lat="14.178132">
                <ele>28.200000</ele>
                <time>1970-01-01T04:36:06Z</time>
            </trkpt>
            <trkpt lon="101.407146" lat="14.178127">
                <ele>28.200000</ele>
                <time>1970-01-01T04:36:07Z</time>
            </trkpt>
            <trkpt lon="101.407181" lat="14.178111">
                <ele>28.200000</ele>
                <time>1970-01-01T04:36:08Z</time>
            </trkpt>
            <trkpt lon="101.407216" lat="14.178090">
                <ele>28.300000</ele>
                <time>1970-01-01T04:36:09Z</time>
            </trkpt>
            <trkpt lon="101.407253" lat="14.178071">
                <ele>28.400000</ele>
                <time>1970-01-01T04:36:10Z</time>
            </trkpt>
            <trkpt lon="101.407292" lat="14.178054">
                <ele>28.700000</ele>
                <time>1970-01-01T04:36:11Z</time>
            </trkpt>
            <trkpt lon="101.407332" lat="14.178043">
                <ele>28.800000</ele>
                <time>1970-01-01T04:36:12Z</time>
            </trkpt>
            <trkpt lon="101.407373" lat="14.178040">
                <ele>28.900000</ele>
                <time>1970-01-01T04:36:13Z</time>
            </trkpt>
            <trkpt lon="101.407413" lat="14.178045">
                <ele>28.900000</ele>
                <time>1970-01-01T04:36:14Z</time>
            </trkpt>
            <trkpt lon="101.407453" lat="14.178060">
                <ele>29.100000</ele>
                <time>1970-01-01T04:36:15Z</time>
            </trkpt>
            <trkpt lon="101.407490" lat="14.178082">
                <ele>29.200000</ele>
                <time>1970-01-01T04:36:16Z</time>
            </trkpt>
            <trkpt lon="101.407526" lat="14.178106">
                <ele>29.100000</ele>
                <time>1970-01-01T04:36:17Z</time>
            </trkpt>
            <trkpt lon="101.407559" lat="14.178133">
                <ele>29.200000</ele>
                <time>1970-01-01T04:36:18Z</time>
            </trkpt>
            <trkpt lon="101.407586" lat="14.178156">
                <ele>28.800000</ele>
                <time>1970-01-01T04:36:19Z</time>
            </trkpt>
            <trkpt lon="101.407607" lat="14.178176">
                <ele>28.800000</ele>
                <time>1970-01-01T04:36:20Z</time>
            </trkpt>
            <trkpt lon="101.407650" lat="14.178206">
                <ele>28.600000</ele>
                <time>1970-01-01T04:36:22Z</time>
            </trkpt>
            <trkpt lon="101.407696" lat="14.178227">
                <ele>28.300000</ele>
                <time>1970-01-01T04:36:24Z</time>
            </trkpt>
            <trkpt lon="101.407728" lat="14.178246">
                <ele>28.000000</ele>
                <time>1970-01-01T04:36:26Z</time>
            </trkpt>
            <trkpt lon="101.407741" lat="14.178280">
                <ele>28.000000</ele>
                <time>1970-01-01T04:36:29Z</time>
            </trkpt>
            <trkpt lon="101.407706" lat="14.178260">
                <ele>28.100000</ele>
                <time>1970-01-01T04:36:32Z</time>
            </trkpt>
            <trkpt lon="101.407673" lat="14.178221">
                <ele>28.100000</ele>
                <time>1970-01-01T04:36:34Z</time>
            </trkpt>
            <trkpt lon="101.407649" lat="14.178206">
                <ele>28.200000</ele>
                <time>1970-01-01T04:36:35Z</time>
            </trkpt>
            <trkpt lon="101.407600" lat="14.178195">
                <ele>28.200000</ele>
                <time>1970-01-01T04:36:37Z</time>
            </trkpt>
            <trkpt lon="101.407560" lat="14.178181">
                <ele>28.100000</ele>
                <time>1970-01-01T04:36:39Z</time>
            </trkpt>
            <trkpt lon="101.407527" lat="14.178151">
                <ele>28.100000</ele>
                <time>1970-01-01T04:36:41Z</time>
            </trkpt>
            <trkpt lon="101.407493" lat="14.178124">
                <ele>28.000000</ele>
                <time>1970-01-01T04:36:43Z</time>
            </trkpt>
            <trkpt lon="101.407447" lat="14.178092">
                <ele>27.900000</ele>
                <time>1970-01-01T04:36:45Z</time>
            </trkpt>
            <trkpt lon="101.407422" lat="14.178078">
                <ele>27.800000</ele>
                <time>1970-01-01T04:36:46Z</time>
            </trkpt>
            <trkpt lon="101.407393" lat="14.178066">
                <ele>27.700000</ele>
                <time>1970-01-01T04:36:47Z</time>
            </trkpt>
            <trkpt lon="101.407362" lat="14.178054">
                <ele>27.800000</ele>
                <time>1970-01-01T04:36:48Z</time>
            </trkpt>
            <trkpt lon="101.407330" lat="14.178046">
                <ele>27.900000</ele>
                <time>1970-01-01T04:36:49Z</time>
            </trkpt>
            <trkpt lon="101.407296" lat="14.178042">
                <ele>27.900000</ele>
                <time>1970-01-01T04:36:50Z</time>
            </trkpt>
            <trkpt lon="101.407260" lat="14.178041">
                <ele>27.900000</ele>
                <time>1970-01-01T04:36:51Z</time>
            </trkpt>
            <trkpt lon="101.407224" lat="14.178043">
                <ele>28.000000</ele>
                <time>1970-01-01T04:36:52Z</time>
            </trkpt>
            <trkpt lon="101.407187" lat="14.178049">
                <ele>28.000000</ele>
                <time>1970-01-01T04:36:53Z</time>
            </trkpt>
            <trkpt lon="101.407153" lat="14.178061">
                <ele>28.200000</ele>
                <time>1970-01-01T04:36:54Z</time>
            </trkpt>
            <trkpt lon="101.407121" lat="14.178077">
                <ele>28.300000</ele>
                <time>1970-01-01T04:36:55Z</time>
            </trkpt>
            <trkpt lon="101.407090" lat="14.178097">
                <ele>28.400000</ele>
                <time>1970-01-01T04:36:56Z</time>
            </trkpt>
            <trkpt lon="101.407062" lat="14.178121">
                <ele>28.400000</ele>
                <time>1970-01-01T04:36:57Z</time>
            </trkpt>
            <trkpt lon="101.407036" lat="14.178146">
                <ele>28.500000</ele>
                <time>1970-01-01T04:36:58Z</time>
            </trkpt>
            <trkpt lon="101.407012" lat="14.178173">
                <ele>28.500000</ele>
                <time>1970-01-01T04:36:59Z</time>
            </trkpt>
            <trkpt lon="101.406989" lat="14.178201">
                <ele>28.500000</ele>
                <time>1970-01-01T04:37:00Z</time>
            </trkpt>
            <trkpt lon="101.406965" lat="14.178231">
                <ele>28.500000</ele>
                <time>1970-01-01T04:37:01Z</time>
            </trkpt>
            <trkpt lon="101.406940" lat="14.178264">
                <ele>28.400000</ele>
                <time>1970-01-01T04:37:02Z</time>
            </trkpt>
            <trkpt lon="101.406913" lat="14.178297">
                <ele>28.400000</ele>
                <time>1970-01-01T04:37:03Z</time>
            </trkpt>
            <trkpt lon="101.406883" lat="14.178330">
                <ele>28.500000</ele>
                <time>1970-01-01T04:37:04Z</time>
            </trkpt>
            <trkpt lon="101.406851" lat="14.178361">
                <ele>28.600000</ele>
                <time>1970-01-01T04:37:05Z</time>
            </trkpt>
            <trkpt lon="101.406819" lat="14.178391">
                <ele>28.500000</ele>
                <time>1970-01-01T04:37:06Z</time>
            </trkpt>
            <trkpt lon="101.406787" lat="14.178420">
                <ele>28.500000</ele>
                <time>1970-01-01T04:37:07Z</time>
            </trkpt>
            <trkpt lon="101.406754" lat="14.178448">
                <ele>28.500000</ele>
                <time>1970-01-01T04:37:08Z</time>
            </trkpt>
            <trkpt lon="101.406720" lat="14.178473">
                <ele>28.600000</ele>
                <time>1970-01-01T04:37:09Z</time>
            </trkpt>
            <trkpt lon="101.406685" lat="14.178499">
                <ele>28.700000</ele>
                <time>1970-01-01T04:37:10Z</time>
            </trkpt>
            <trkpt lon="101.406647" lat="14.178526">
                <ele>28.700000</ele>
                <time>1970-01-01T04:37:11Z</time>
            </trkpt>
            <trkpt lon="101.406594" lat="14.178559">
                <ele>28.700000</ele>
                <time>1970-01-01T04:37:12Z</time>
            </trkpt>
            <trkpt lon="101.406563" lat="14.178580">
                <ele>28.600000</ele>
                <time>1970-01-01T04:37:13Z</time>
            </trkpt>
            <trkpt lon="101.406530" lat="14.178607">
                <ele>28.500000</ele>
                <time>1970-01-01T04:37:14Z</time>
            </trkpt>
            <trkpt lon="101.406500" lat="14.178631">
                <ele>28.400000</ele>
                <time>1970-01-01T04:37:15Z</time>
            </trkpt>
            <trkpt lon="101.406465" lat="14.178655">
                <ele>28.400000</ele>
                <time>1970-01-01T04:37:16Z</time>
            </trkpt>
            <trkpt lon="101.406432" lat="14.178684">
                <ele>28.300000</ele>
                <time>1970-01-01T04:37:17Z</time>
            </trkpt>
            <trkpt lon="101.406401" lat="14.178715">
                <ele>28.300000</ele>
                <time>1970-01-01T04:37:18Z</time>
            </trkpt>
            <trkpt lon="101.406371" lat="14.178746">
                <ele>28.400000</ele>
                <time>1970-01-01T04:37:19Z</time>
            </trkpt>
            <trkpt lon="101.406341" lat="14.178779">
                <ele>28.400000</ele>
                <time>1970-01-01T04:37:20Z</time>
            </trkpt>
            <trkpt lon="101.406316" lat="14.178815">
                <ele>28.400000</ele>
                <time>1970-01-01T04:37:21Z</time>
            </trkpt>
            <trkpt lon="101.406294" lat="14.178854">
                <ele>28.500000</ele>
                <time>1970-01-01T04:37:22Z</time>
            </trkpt>
            <trkpt lon="101.406271" lat="14.178892">
                <ele>28.500000</ele>
                <time>1970-01-01T04:37:23Z</time>
            </trkpt>
            <trkpt lon="101.406249" lat="14.178929">
                <ele>28.500000</ele>
                <time>1970-01-01T04:37:24Z</time>
            </trkpt>
            <trkpt lon="101.406226" lat="14.178967">
                <ele>28.500000</ele>
                <time>1970-01-01T04:37:25Z</time>
            </trkpt>
            <trkpt lon="101.406206" lat="14.179009">
                <ele>28.400000</ele>
                <time>1970-01-01T04:37:26Z</time>
            </trkpt>
            <trkpt lon="101.406184" lat="14.179050">
                <ele>28.400000</ele>
                <time>1970-01-01T04:37:27Z</time>
            </trkpt>
            <trkpt lon="101.406164" lat="14.179091">
                <ele>28.400000</ele>
                <time>1970-01-01T04:37:28Z</time>
            </trkpt>
            <trkpt lon="101.406144" lat="14.179129">
                <ele>28.400000</ele>
                <time>1970-01-01T04:37:29Z</time>
            </trkpt>
            <trkpt lon="101.406123" lat="14.179168">
                <ele>28.400000</ele>
                <time>1970-01-01T04:37:30Z</time>
            </trkpt>
            <trkpt lon="101.406104" lat="14.179206">
                <ele>28.400000</ele>
                <time>1970-01-01T04:37:31Z</time>
            </trkpt>
            <trkpt lon="101.406080" lat="14.179247">
                <ele>28.500000</ele>
                <time>1970-01-01T04:37:32Z</time>
            </trkpt>
            <trkpt lon="101.406062" lat="14.179288">
                <ele>28.700000</ele>
                <time>1970-01-01T04:37:33Z</time>
            </trkpt>
            <trkpt lon="101.406045" lat="14.179328">
                <ele>28.900000</ele>
                <time>1970-01-01T04:37:34Z</time>
            </trkpt>
            <trkpt lon="101.406025" lat="14.179371">
                <ele>29.000000</ele>
                <time>1970-01-01T04:37:35Z</time>
            </trkpt>
            <trkpt lon="101.406006" lat="14.179408">
                <ele>29.000000</ele>
                <time>1970-01-01T04:37:36Z</time>
            </trkpt>
            <trkpt lon="101.405990" lat="14.179443">
                <ele>29.000000</ele>
                <time>1970-01-01T04:37:37Z</time>
            </trkpt>
            <trkpt lon="101.405969" lat="14.179484">
                <ele>28.700000</ele>
                <time>1970-01-01T04:37:38Z</time>
            </trkpt>
            <trkpt lon="101.405943" lat="14.179522">
                <ele>28.500000</ele>
                <time>1970-01-01T04:37:39Z</time>
            </trkpt>
            <trkpt lon="101.405915" lat="14.179552">
                <ele>28.500000</ele>
                <time>1970-01-01T04:37:40Z</time>
            </trkpt>
            <trkpt lon="101.405879" lat="14.179571">
                <ele>28.500000</ele>
                <time>1970-01-01T04:37:41Z</time>
            </trkpt>
            <trkpt lon="101.405834" lat="14.179587">
                <ele>28.400000</ele>
                <time>1970-01-01T04:37:42Z</time>
            </trkpt>
            <trkpt lon="101.405790" lat="14.179597">
                <ele>28.300000</ele>
                <time>1970-01-01T04:37:43Z</time>
            </trkpt>
            <trkpt lon="101.405743" lat="14.179604">
                <ele>28.300000</ele>
                <time>1970-01-01T04:37:44Z</time>
            </trkpt>
            <trkpt lon="101.405703" lat="14.179604">
                <ele>28.300000</ele>
                <time>1970-01-01T04:37:45Z</time>
            </trkpt>
            <trkpt lon="101.405666" lat="14.179602">
                <ele>28.300000</ele>
                <time>1970-01-01T04:37:46Z</time>
            </trkpt>
            <trkpt lon="101.405629" lat="14.179602">
                <ele>28.300000</ele>
                <time>1970-01-01T04:37:47Z</time>
            </trkpt>
            <trkpt lon="101.405586" lat="14.179609">
                <ele>28.300000</ele>
                <time>1970-01-01T04:37:48Z</time>
            </trkpt>
            <trkpt lon="101.405552" lat="14.179623">
                <ele>28.400000</ele>
                <time>1970-01-01T04:37:49Z</time>
            </trkpt>
            <trkpt lon="101.405520" lat="14.179636">
                <ele>28.600000</ele>
                <time>1970-01-01T04:37:50Z</time>
            </trkpt>
            <trkpt lon="101.405458" lat="14.179649">
                <ele>28.900000</ele>
                <time>1970-01-01T04:37:52Z</time>
            </trkpt>
            <trkpt lon="101.405428" lat="14.179658">
                <ele>29.100000</ele>
                <time>1970-01-01T04:37:53Z</time>
            </trkpt>
            <trkpt lon="101.405399" lat="14.179670">
                <ele>29.300000</ele>
                <time>1970-01-01T04:37:54Z</time>
            </trkpt>
            <trkpt lon="101.405372" lat="14.179684">
                <ele>29.500000</ele>
                <time>1970-01-01T04:37:55Z</time>
            </trkpt>
            <trkpt lon="101.405342" lat="14.179698">
                <ele>29.700000</ele>
                <time>1970-01-01T04:37:56Z</time>
            </trkpt>
            <trkpt lon="101.405312" lat="14.179712">
                <ele>29.900000</ele>
                <time>1970-01-01T04:37:57Z</time>
            </trkpt>
            <trkpt lon="101.405283" lat="14.179731">
                <ele>30.100000</ele>
                <time>1970-01-01T04:37:58Z</time>
            </trkpt>
            <trkpt lon="101.405258" lat="14.179759">
                <ele>30.300000</ele>
                <time>1970-01-01T04:37:59Z</time>
            </trkpt>
            <trkpt lon="101.405241" lat="14.179794">
                <ele>30.500000</ele>
                <time>1970-01-01T04:38:00Z</time>
            </trkpt>
            <trkpt lon="101.405236" lat="14.179833">
                <ele>30.700000</ele>
                <time>1970-01-01T04:38:01Z</time>
            </trkpt>
            <trkpt lon="101.405244" lat="14.179875">
                <ele>30.700000</ele>
                <time>1970-01-01T04:38:02Z</time>
            </trkpt>
            <trkpt lon="101.405262" lat="14.179915">
                <ele>30.900000</ele>
                <time>1970-01-01T04:38:03Z</time>
            </trkpt>
            <trkpt lon="101.405312" lat="14.179951">
                <ele>30.900000</ele>
                <time>1970-01-01T04:38:04Z</time>
            </trkpt>
            <trkpt lon="101.405348" lat="14.179981">
                <ele>31.000000</ele>
                <time>1970-01-01T04:38:05Z</time>
            </trkpt>
            <trkpt lon="101.405384" lat="14.180013">
                <ele>30.900000</ele>
                <time>1970-01-01T04:38:06Z</time>
            </trkpt>
            <trkpt lon="101.405425" lat="14.180050">
                <ele>30.700000</ele>
                <time>1970-01-01T04:38:07Z</time>
            </trkpt>
            <trkpt lon="101.405460" lat="14.180085">
                <ele>30.200000</ele>
                <time>1970-01-01T04:38:08Z</time>
            </trkpt>
            <trkpt lon="101.405472" lat="14.180118">
                <ele>29.900000</ele>
                <time>1970-01-01T04:38:09Z</time>
            </trkpt>
            <trkpt lon="101.405511" lat="14.180160">
                <ele>29.400000</ele>
                <time>1970-01-01T04:38:10Z</time>
            </trkpt>
            <trkpt lon="101.405549" lat="14.180198">
                <ele>29.100000</ele>
                <time>1970-01-01T04:38:11Z</time>
            </trkpt>
            <trkpt lon="101.405585" lat="14.180241">
                <ele>28.700000</ele>
                <time>1970-01-01T04:38:12Z</time>
            </trkpt>
            <trkpt lon="101.405616" lat="14.180278">
                <ele>28.200000</ele>
                <time>1970-01-01T04:38:13Z</time>
            </trkpt>
            <trkpt lon="101.405649" lat="14.180321">
                <ele>28.000000</ele>
                <time>1970-01-01T04:38:14Z</time>
            </trkpt>
            <trkpt lon="101.405675" lat="14.180363">
                <ele>27.800000</ele>
                <time>1970-01-01T04:38:15Z</time>
            </trkpt>
            <trkpt lon="101.405708" lat="14.180405">
                <ele>27.700000</ele>
                <time>1970-01-01T04:38:16Z</time>
            </trkpt>
            <trkpt lon="101.405736" lat="14.180459">
                <ele>27.600000</ele>
                <time>1970-01-01T04:38:17Z</time>
            </trkpt>
            <trkpt lon="101.405772" lat="14.180501">
                <ele>27.700000</ele>
                <time>1970-01-01T04:38:18Z</time>
            </trkpt>
            <trkpt lon="101.405797" lat="14.180540">
                <ele>27.800000</ele>
                <time>1970-01-01T04:38:19Z</time>
            </trkpt>
            <trkpt lon="101.405815" lat="14.180591">
                <ele>27.900000</ele>
                <time>1970-01-01T04:38:20Z</time>
            </trkpt>
            <trkpt lon="101.405828" lat="14.180643">
                <ele>28.000000</ele>
                <time>1970-01-01T04:38:21Z</time>
            </trkpt>
            <trkpt lon="101.405845" lat="14.180707">
                <ele>28.100000</ele>
                <time>1970-01-01T04:38:22Z</time>
            </trkpt>
            <trkpt lon="101.405860" lat="14.180758">
                <ele>28.200000</ele>
                <time>1970-01-01T04:38:23Z</time>
            </trkpt>
            <trkpt lon="101.405872" lat="14.180810">
                <ele>28.300000</ele>
                <time>1970-01-01T04:38:24Z</time>
            </trkpt>
            <trkpt lon="101.405882" lat="14.180855">
                <ele>28.500000</ele>
                <time>1970-01-01T04:38:25Z</time>
            </trkpt>
            <trkpt lon="101.405890" lat="14.180916">
                <ele>28.900000</ele>
                <time>1970-01-01T04:38:26Z</time>
            </trkpt>
            <trkpt lon="101.405904" lat="14.180957">
                <ele>29.100000</ele>
                <time>1970-01-01T04:38:27Z</time>
            </trkpt>
            <trkpt lon="101.405933" lat="14.180987">
                <ele>29.400000</ele>
                <time>1970-01-01T04:38:28Z</time>
            </trkpt>
            <trkpt lon="101.405975" lat="14.181018">
                <ele>29.400000</ele>
                <time>1970-01-01T04:38:29Z</time>
            </trkpt>
            <trkpt lon="101.406018" lat="14.181026">
                <ele>29.300000</ele>
                <time>1970-01-01T04:38:30Z</time>
            </trkpt>
            <trkpt lon="101.406065" lat="14.181014">
                <ele>29.300000</ele>
                <time>1970-01-01T04:38:31Z</time>
            </trkpt>
            <trkpt lon="101.406106" lat="14.180999">
                <ele>29.300000</ele>
                <time>1970-01-01T04:38:32Z</time>
            </trkpt>
            <trkpt lon="101.406137" lat="14.180983">
                <ele>29.200000</ele>
                <time>1970-01-01T04:38:33Z</time>
            </trkpt>
            <trkpt lon="101.406188" lat="14.180968">
                <ele>29.100000</ele>
                <time>1970-01-01T04:38:35Z</time>
            </trkpt>
            <trkpt lon="101.406231" lat="14.180953">
                <ele>29.000000</ele>
                <time>1970-01-01T04:38:37Z</time>
            </trkpt>
            <trkpt lon="101.406263" lat="14.180936">
                <ele>28.800000</ele>
                <time>1970-01-01T04:38:39Z</time>
            </trkpt>
            <trkpt lon="101.406291" lat="14.180936">
                <ele>28.700000</ele>
                <time>1970-01-01T04:38:41Z</time>
            </trkpt>
            <trkpt lon="101.406297" lat="14.180968">
                <ele>28.600000</ele>
                <time>1970-01-01T04:38:44Z</time>
            </trkpt>
            <trkpt lon="101.406257" lat="14.180966">
                <ele>28.400000</ele>
                <time>1970-01-01T04:38:46Z</time>
            </trkpt>
            <trkpt lon="101.406209" lat="14.180963">
                <ele>28.100000</ele>
                <time>1970-01-01T04:38:48Z</time>
            </trkpt>
            <trkpt lon="101.406158" lat="14.180983">
                <ele>27.700000</ele>
                <time>1970-01-01T04:38:50Z</time>
            </trkpt>
            <trkpt lon="101.406129" lat="14.180995">
                <ele>27.500000</ele>
                <time>1970-01-01T04:38:51Z</time>
            </trkpt>
            <trkpt lon="101.406100" lat="14.181007">
                <ele>27.300000</ele>
                <time>1970-01-01T04:38:52Z</time>
            </trkpt>
            <trkpt lon="101.406070" lat="14.181021">
                <ele>27.200000</ele>
                <time>1970-01-01T04:38:53Z</time>
            </trkpt>
            <trkpt lon="101.406039" lat="14.181032">
                <ele>27.000000</ele>
                <time>1970-01-01T04:38:54Z</time>
            </trkpt>
            <trkpt lon="101.406008" lat="14.181039">
                <ele>26.900000</ele>
                <time>1970-01-01T04:38:55Z</time>
            </trkpt>
            <trkpt lon="101.405976" lat="14.181036">
                <ele>26.900000</ele>
                <time>1970-01-01T04:38:56Z</time>
            </trkpt>
            <trkpt lon="101.405946" lat="14.181022">
                <ele>26.900000</ele>
                <time>1970-01-01T04:38:57Z</time>
            </trkpt>
            <trkpt lon="101.405919" lat="14.181003">
                <ele>26.900000</ele>
                <time>1970-01-01T04:38:58Z</time>
            </trkpt>
            <trkpt lon="101.405893" lat="14.180983">
                <ele>26.700000</ele>
                <time>1970-01-01T04:38:59Z</time>
            </trkpt>
            <trkpt lon="101.405863" lat="14.180968">
                <ele>26.600000</ele>
                <time>1970-01-01T04:39:00Z</time>
            </trkpt>
            <trkpt lon="101.405830" lat="14.180964">
                <ele>26.400000</ele>
                <time>1970-01-01T04:39:01Z</time>
            </trkpt>
            <trkpt lon="101.405796" lat="14.180972">
                <ele>26.100000</ele>
                <time>1970-01-01T04:39:02Z</time>
            </trkpt>
            <trkpt lon="101.405762" lat="14.180987">
                <ele>25.800000</ele>
                <time>1970-01-01T04:39:03Z</time>
            </trkpt>
            <trkpt lon="101.405728" lat="14.181009">
                <ele>25.400000</ele>
                <time>1970-01-01T04:39:04Z</time>
            </trkpt>
            <trkpt lon="101.405696" lat="14.181034">
                <ele>25.300000</ele>
                <time>1970-01-01T04:39:05Z</time>
            </trkpt>
            <trkpt lon="101.405663" lat="14.181058">
                <ele>25.100000</ele>
                <time>1970-01-01T04:39:06Z</time>
            </trkpt>
            <trkpt lon="101.405628" lat="14.181082">
                <ele>25.000000</ele>
                <time>1970-01-01T04:39:07Z</time>
            </trkpt>
            <trkpt lon="101.405593" lat="14.181105">
                <ele>24.900000</ele>
                <time>1970-01-01T04:39:08Z</time>
            </trkpt>
            <trkpt lon="101.405556" lat="14.181127">
                <ele>24.900000</ele>
                <time>1970-01-01T04:39:09Z</time>
            </trkpt>
            <trkpt lon="101.405519" lat="14.181150">
                <ele>24.900000</ele>
                <time>1970-01-01T04:39:10Z</time>
            </trkpt>
            <trkpt lon="101.405481" lat="14.181172">
                <ele>24.800000</ele>
                <time>1970-01-01T04:39:11Z</time>
            </trkpt>
            <trkpt lon="101.405442" lat="14.181193">
                <ele>24.900000</ele>
                <time>1970-01-01T04:39:12Z</time>
            </trkpt>
            <trkpt lon="101.405400" lat="14.181215">
                <ele>25.100000</ele>
                <time>1970-01-01T04:39:13Z</time>
            </trkpt>
            <trkpt lon="101.405362" lat="14.181235">
                <ele>25.300000</ele>
                <time>1970-01-01T04:39:14Z</time>
            </trkpt>
            <trkpt lon="101.405322" lat="14.181255">
                <ele>25.300000</ele>
                <time>1970-01-01T04:39:15Z</time>
            </trkpt>
            <trkpt lon="101.405284" lat="14.181270">
                <ele>25.400000</ele>
                <time>1970-01-01T04:39:16Z</time>
            </trkpt>
            <trkpt lon="101.405241" lat="14.181285">
                <ele>25.700000</ele>
                <time>1970-01-01T04:39:17Z</time>
            </trkpt>
            <trkpt lon="101.405196" lat="14.181303">
                <ele>26.300000</ele>
                <time>1970-01-01T04:39:18Z</time>
            </trkpt>
            <trkpt lon="101.405155" lat="14.181317">
                <ele>26.900000</ele>
                <time>1970-01-01T04:39:19Z</time>
            </trkpt>
            <trkpt lon="101.405113" lat="14.181329">
                <ele>27.200000</ele>
                <time>1970-01-01T04:39:20Z</time>
            </trkpt>
            <trkpt lon="101.405080" lat="14.181344">
                <ele>27.500000</ele>
                <time>1970-01-01T04:39:21Z</time>
            </trkpt>
            <trkpt lon="101.405039" lat="14.181366">
                <ele>27.800000</ele>
                <time>1970-01-01T04:39:22Z</time>
            </trkpt>
            <trkpt lon="101.404991" lat="14.181382">
                <ele>28.000000</ele>
                <time>1970-01-01T04:39:23Z</time>
            </trkpt>
            <trkpt lon="101.404943" lat="14.181398">
                <ele>28.200000</ele>
                <time>1970-01-01T04:39:24Z</time>
            </trkpt>
            <trkpt lon="101.404900" lat="14.181419">
                <ele>28.300000</ele>
                <time>1970-01-01T04:39:25Z</time>
            </trkpt>
            <trkpt lon="101.404856" lat="14.181436">
                <ele>28.300000</ele>
                <time>1970-01-01T04:39:26Z</time>
            </trkpt>
            <trkpt lon="101.404808" lat="14.181453">
                <ele>28.400000</ele>
                <time>1970-01-01T04:39:27Z</time>
            </trkpt>
            <trkpt lon="101.404755" lat="14.181465">
                <ele>28.400000</ele>
                <time>1970-01-01T04:39:28Z</time>
            </trkpt>
            <trkpt lon="101.404710" lat="14.181477">
                <ele>28.200000</ele>
                <time>1970-01-01T04:39:29Z</time>
            </trkpt>
            <trkpt lon="101.404664" lat="14.181494">
                <ele>28.100000</ele>
                <time>1970-01-01T04:39:30Z</time>
            </trkpt>
            <trkpt lon="101.404608" lat="14.181502">
                <ele>27.800000</ele>
                <time>1970-01-01T04:39:31Z</time>
            </trkpt>
            <trkpt lon="101.404554" lat="14.181513">
                <ele>27.500000</ele>
                <time>1970-01-01T04:39:32Z</time>
            </trkpt>
            <trkpt lon="101.404506" lat="14.181539">
                <ele>27.400000</ele>
                <time>1970-01-01T04:39:33Z</time>
            </trkpt>
            <trkpt lon="101.404457" lat="14.181549">
                <ele>27.300000</ele>
                <time>1970-01-01T04:39:34Z</time>
            </trkpt>
            <trkpt lon="101.404411" lat="14.181568">
                <ele>27.200000</ele>
                <time>1970-01-01T04:39:35Z</time>
            </trkpt>
            <trkpt lon="101.404360" lat="14.181586">
                <ele>27.300000</ele>
                <time>1970-01-01T04:39:36Z</time>
            </trkpt>
            <trkpt lon="101.404313" lat="14.181604">
                <ele>27.300000</ele>
                <time>1970-01-01T04:39:37Z</time>
            </trkpt>
            <trkpt lon="101.404265" lat="14.181615">
                <ele>27.400000</ele>
                <time>1970-01-01T04:39:38Z</time>
            </trkpt>
            <trkpt lon="101.404215" lat="14.181627">
                <ele>27.400000</ele>
                <time>1970-01-01T04:39:39Z</time>
            </trkpt>
            <trkpt lon="101.404172" lat="14.181643">
                <ele>27.400000</ele>
                <time>1970-01-01T04:39:40Z</time>
            </trkpt>
            <trkpt lon="101.404129" lat="14.181655">
                <ele>27.400000</ele>
                <time>1970-01-01T04:39:41Z</time>
            </trkpt>
            <trkpt lon="101.404085" lat="14.181669">
                <ele>27.400000</ele>
                <time>1970-01-01T04:39:42Z</time>
            </trkpt>
            <trkpt lon="101.404044" lat="14.181683">
                <ele>27.300000</ele>
                <time>1970-01-01T04:39:43Z</time>
            </trkpt>
            <trkpt lon="101.403999" lat="14.181694">
                <ele>27.300000</ele>
                <time>1970-01-01T04:39:44Z</time>
            </trkpt>
            <trkpt lon="101.403956" lat="14.181700">
                <ele>27.300000</ele>
                <time>1970-01-01T04:39:45Z</time>
            </trkpt>
            <trkpt lon="101.403912" lat="14.181708">
                <ele>27.300000</ele>
                <time>1970-01-01T04:39:46Z</time>
            </trkpt>
            <trkpt lon="101.403864" lat="14.181713">
                <ele>27.300000</ele>
                <time>1970-01-01T04:39:47Z</time>
            </trkpt>
            <trkpt lon="101.403816" lat="14.181715">
                <ele>27.300000</ele>
                <time>1970-01-01T04:39:48Z</time>
            </trkpt>
            <trkpt lon="101.403773" lat="14.181711">
                <ele>27.300000</ele>
                <time>1970-01-01T04:39:49Z</time>
            </trkpt>
            <trkpt lon="101.403732" lat="14.181699">
                <ele>27.300000</ele>
                <time>1970-01-01T04:39:50Z</time>
            </trkpt>
            <trkpt lon="101.403694" lat="14.181688">
                <ele>27.300000</ele>
                <time>1970-01-01T04:39:51Z</time>
            </trkpt>
            <trkpt lon="101.403655" lat="14.181679">
                <ele>27.400000</ele>
                <time>1970-01-01T04:39:52Z</time>
            </trkpt>
            <trkpt lon="101.403617" lat="14.181669">
                <ele>27.500000</ele>
                <time>1970-01-01T04:39:53Z</time>
            </trkpt>
            <trkpt lon="101.403581" lat="14.181658">
                <ele>27.700000</ele>
                <time>1970-01-01T04:39:54Z</time>
            </trkpt>
            <trkpt lon="101.403545" lat="14.181646">
                <ele>27.900000</ele>
                <time>1970-01-01T04:39:55Z</time>
            </trkpt>
            <trkpt lon="101.403509" lat="14.181632">
                <ele>28.100000</ele>
                <time>1970-01-01T04:39:56Z</time>
            </trkpt>
            <trkpt lon="101.403468" lat="14.181622">
                <ele>28.200000</ele>
                <time>1970-01-01T04:39:57Z</time>
            </trkpt>
            <trkpt lon="101.403424" lat="14.181616">
                <ele>28.300000</ele>
                <time>1970-01-01T04:39:58Z</time>
            </trkpt>
            <trkpt lon="101.403381" lat="14.181616">
                <ele>28.400000</ele>
                <time>1970-01-01T04:39:59Z</time>
            </trkpt>
            <trkpt lon="101.403339" lat="14.181621">
                <ele>28.400000</ele>
                <time>1970-01-01T04:40:00Z</time>
            </trkpt>
            <trkpt lon="101.403299" lat="14.181629">
                <ele>28.400000</ele>
                <time>1970-01-01T04:40:01Z</time>
            </trkpt>
            <trkpt lon="101.403258" lat="14.181639">
                <ele>28.500000</ele>
                <time>1970-01-01T04:40:02Z</time>
            </trkpt>
            <trkpt lon="101.403213" lat="14.181652">
                <ele>28.700000</ele>
                <time>1970-01-01T04:40:03Z</time>
            </trkpt>
            <trkpt lon="101.403174" lat="14.181662">
                <ele>28.800000</ele>
                <time>1970-01-01T04:40:04Z</time>
            </trkpt>
            <trkpt lon="101.403134" lat="14.181673">
                <ele>28.900000</ele>
                <time>1970-01-01T04:40:05Z</time>
            </trkpt>
            <trkpt lon="101.403092" lat="14.181684">
                <ele>29.000000</ele>
                <time>1970-01-01T04:40:06Z</time>
            </trkpt>
            <trkpt lon="101.403050" lat="14.181697">
                <ele>29.000000</ele>
                <time>1970-01-01T04:40:07Z</time>
            </trkpt>
            <trkpt lon="101.403008" lat="14.181711">
                <ele>29.000000</ele>
                <time>1970-01-01T04:40:08Z</time>
            </trkpt>
            <trkpt lon="101.402951" lat="14.181730">
                <ele>29.100000</ele>
                <time>1970-01-01T04:40:09Z</time>
            </trkpt>
            <trkpt lon="101.402902" lat="14.181737">
                <ele>29.100000</ele>
                <time>1970-01-01T04:40:10Z</time>
            </trkpt>
            <trkpt lon="101.402857" lat="14.181745">
                <ele>29.000000</ele>
                <time>1970-01-01T04:40:11Z</time>
            </trkpt>
            <trkpt lon="101.402809" lat="14.181755">
                <ele>28.800000</ele>
                <time>1970-01-01T04:40:12Z</time>
            </trkpt>
            <trkpt lon="101.402761" lat="14.181769">
                <ele>28.700000</ele>
                <time>1970-01-01T04:40:13Z</time>
            </trkpt>
            <trkpt lon="101.402714" lat="14.181785">
                <ele>28.700000</ele>
                <time>1970-01-01T04:40:14Z</time>
            </trkpt>
            <trkpt lon="101.402673" lat="14.181797">
                <ele>28.900000</ele>
                <time>1970-01-01T04:40:15Z</time>
            </trkpt>
            <trkpt lon="101.402626" lat="14.181808">
                <ele>29.200000</ele>
                <time>1970-01-01T04:40:16Z</time>
            </trkpt>
            <trkpt lon="101.402587" lat="14.181824">
                <ele>29.300000</ele>
                <time>1970-01-01T04:40:17Z</time>
            </trkpt>
            <trkpt lon="101.402545" lat="14.181835">
                <ele>29.400000</ele>
                <time>1970-01-01T04:40:18Z</time>
            </trkpt>
            <trkpt lon="101.402495" lat="14.181840">
                <ele>29.500000</ele>
                <time>1970-01-01T04:40:19Z</time>
            </trkpt>
            <trkpt lon="101.402451" lat="14.181853">
                <ele>29.600000</ele>
                <time>1970-01-01T04:40:20Z</time>
            </trkpt>
            <trkpt lon="101.402411" lat="14.181867">
                <ele>29.800000</ele>
                <time>1970-01-01T04:40:21Z</time>
            </trkpt>
            <trkpt lon="101.402373" lat="14.181884">
                <ele>30.000000</ele>
                <time>1970-01-01T04:40:22Z</time>
            </trkpt>
            <trkpt lon="101.402331" lat="14.181898">
                <ele>30.200000</ele>
                <time>1970-01-01T04:40:23Z</time>
            </trkpt>
            <trkpt lon="101.402287" lat="14.181913">
                <ele>30.500000</ele>
                <time>1970-01-01T04:40:24Z</time>
            </trkpt>
            <trkpt lon="101.402246" lat="14.181933">
                <ele>30.800000</ele>
                <time>1970-01-01T04:40:25Z</time>
            </trkpt>
            <trkpt lon="101.402202" lat="14.181954">
                <ele>30.900000</ele>
                <time>1970-01-01T04:40:26Z</time>
            </trkpt>
            <trkpt lon="101.402157" lat="14.181969">
                <ele>30.900000</ele>
                <time>1970-01-01T04:40:27Z</time>
            </trkpt>
            <trkpt lon="101.402115" lat="14.181985">
                <ele>30.700000</ele>
                <time>1970-01-01T04:40:28Z</time>
            </trkpt>
            <trkpt lon="101.402071" lat="14.181995">
                <ele>30.500000</ele>
                <time>1970-01-01T04:40:29Z</time>
            </trkpt>
            <trkpt lon="101.402026" lat="14.182004">
                <ele>30.200000</ele>
                <time>1970-01-01T04:40:30Z</time>
            </trkpt>
            <trkpt lon="101.401975" lat="14.182013">
                <ele>30.000000</ele>
                <time>1970-01-01T04:40:31Z</time>
            </trkpt>
            <trkpt lon="101.401916" lat="14.182019">
                <ele>30.000000</ele>
                <time>1970-01-01T04:40:32Z</time>
            </trkpt>
            <trkpt lon="101.401863" lat="14.182033">
                <ele>30.100000</ele>
                <time>1970-01-01T04:40:33Z</time>
            </trkpt>
            <trkpt lon="101.401817" lat="14.182047">
                <ele>30.400000</ele>
                <time>1970-01-01T04:40:34Z</time>
            </trkpt>
            <trkpt lon="101.401764" lat="14.182068">
                <ele>30.600000</ele>
                <time>1970-01-01T04:40:35Z</time>
            </trkpt>
            <trkpt lon="101.401716" lat="14.182082">
                <ele>30.800000</ele>
                <time>1970-01-01T04:40:36Z</time>
            </trkpt>
            <trkpt lon="101.401664" lat="14.182096">
                <ele>30.700000</ele>
                <time>1970-01-01T04:40:37Z</time>
            </trkpt>
            <trkpt lon="101.401619" lat="14.182103">
                <ele>30.500000</ele>
                <time>1970-01-01T04:40:38Z</time>
            </trkpt>
            <trkpt lon="101.401571" lat="14.182116">
                <ele>30.400000</ele>
                <time>1970-01-01T04:40:39Z</time>
            </trkpt>
            <trkpt lon="101.401525" lat="14.182141">
                <ele>30.300000</ele>
                <time>1970-01-01T04:40:40Z</time>
            </trkpt>
            <trkpt lon="101.401477" lat="14.182162">
                <ele>30.300000</ele>
                <time>1970-01-01T04:40:41Z</time>
            </trkpt>
            <trkpt lon="101.401430" lat="14.182181">
                <ele>30.500000</ele>
                <time>1970-01-01T04:40:42Z</time>
            </trkpt>
            <trkpt lon="101.401376" lat="14.182205">
                <ele>30.800000</ele>
                <time>1970-01-01T04:40:43Z</time>
            </trkpt>
            <trkpt lon="101.401329" lat="14.182219">
                <ele>31.300000</ele>
                <time>1970-01-01T04:40:44Z</time>
            </trkpt>
            <trkpt lon="101.401285" lat="14.182240">
                <ele>31.900000</ele>
                <time>1970-01-01T04:40:45Z</time>
            </trkpt>
            <trkpt lon="101.401252" lat="14.182261">
                <ele>32.300000</ele>
                <time>1970-01-01T04:40:46Z</time>
            </trkpt>
            <trkpt lon="101.401218" lat="14.182282">
                <ele>32.800000</ele>
                <time>1970-01-01T04:40:47Z</time>
            </trkpt>
            <trkpt lon="101.401165" lat="14.182295">
                <ele>33.100000</ele>
                <time>1970-01-01T04:40:48Z</time>
            </trkpt>
            <trkpt lon="101.401122" lat="14.182308">
                <ele>33.300000</ele>
                <time>1970-01-01T04:40:49Z</time>
            </trkpt>
            <trkpt lon="101.401094" lat="14.182331">
                <ele>33.500000</ele>
                <time>1970-01-01T04:40:50Z</time>
            </trkpt>
            <trkpt lon="101.401048" lat="14.182362">
                <ele>33.700000</ele>
                <time>1970-01-01T04:40:51Z</time>
            </trkpt>
            <trkpt lon="101.401003" lat="14.182393">
                <ele>33.400000</ele>
                <time>1970-01-01T04:40:52Z</time>
            </trkpt>
            <trkpt lon="101.400989" lat="14.182444">
                <ele>33.200000</ele>
                <time>1970-01-01T04:40:53Z</time>
            </trkpt>
            <trkpt lon="101.400993" lat="14.182478">
                <ele>33.000000</ele>
                <time>1970-01-01T04:40:54Z</time>
            </trkpt>
            <trkpt lon="101.400994" lat="14.182523">
                <ele>32.700000</ele>
                <time>1970-01-01T04:40:55Z</time>
            </trkpt>
            <trkpt lon="101.401007" lat="14.182568">
                <ele>32.400000</ele>
                <time>1970-01-01T04:40:56Z</time>
            </trkpt>
            <trkpt lon="101.401012" lat="14.182619">
                <ele>32.200000</ele>
                <time>1970-01-01T04:40:57Z</time>
            </trkpt>
            <trkpt lon="101.401027" lat="14.182685">
                <ele>32.000000</ele>
                <time>1970-01-01T04:40:58Z</time>
            </trkpt>
            <trkpt lon="101.401043" lat="14.182737">
                <ele>32.000000</ele>
                <time>1970-01-01T04:40:59Z</time>
            </trkpt>
            <trkpt lon="101.401058" lat="14.182789">
                <ele>32.000000</ele>
                <time>1970-01-01T04:41:00Z</time>
            </trkpt>
            <trkpt lon="101.401068" lat="14.182835">
                <ele>31.900000</ele>
                <time>1970-01-01T04:41:01Z</time>
            </trkpt>
            <trkpt lon="101.401076" lat="14.182880">
                <ele>31.900000</ele>
                <time>1970-01-01T04:41:02Z</time>
            </trkpt>
            <trkpt lon="101.401079" lat="14.182926">
                <ele>31.800000</ele>
                <time>1970-01-01T04:41:03Z</time>
            </trkpt>
            <trkpt lon="101.401083" lat="14.182970">
                <ele>31.800000</ele>
                <time>1970-01-01T04:41:04Z</time>
            </trkpt>
            <trkpt lon="101.401088" lat="14.183020">
                <ele>31.900000</ele>
                <time>1970-01-01T04:41:05Z</time>
            </trkpt>
            <trkpt lon="101.401094" lat="14.183063">
                <ele>32.000000</ele>
                <time>1970-01-01T04:41:06Z</time>
            </trkpt>
            <trkpt lon="101.401101" lat="14.183104">
                <ele>32.300000</ele>
                <time>1970-01-01T04:41:07Z</time>
            </trkpt>
            <trkpt lon="101.401114" lat="14.183138">
                <ele>32.600000</ele>
                <time>1970-01-01T04:41:08Z</time>
            </trkpt>
            <trkpt lon="101.401117" lat="14.183194">
                <ele>32.900000</ele>
                <time>1970-01-01T04:41:10Z</time>
            </trkpt>
            <trkpt lon="101.401122" lat="14.183232">
                <ele>33.100000</ele>
                <time>1970-01-01T04:41:11Z</time>
            </trkpt>
            <trkpt lon="101.401133" lat="14.183263">
                <ele>33.100000</ele>
                <time>1970-01-01T04:41:12Z</time>
            </trkpt>
            <trkpt lon="101.401150" lat="14.183294">
                <ele>33.000000</ele>
                <time>1970-01-01T04:41:13Z</time>
            </trkpt>
            <trkpt lon="101.401157" lat="14.183343">
                <ele>32.900000</ele>
                <time>1970-01-01T04:41:15Z</time>
            </trkpt>
            <trkpt lon="101.401145" lat="14.183368">
                <ele>32.900000</ele>
                <time>1970-01-01T04:41:16Z</time>
            </trkpt>
            <trkpt lon="101.401123" lat="14.183389">
                <ele>32.900000</ele>
                <time>1970-01-01T04:41:17Z</time>
            </trkpt>
            <trkpt lon="101.401096" lat="14.183407">
                <ele>33.000000</ele>
                <time>1970-01-01T04:41:18Z</time>
            </trkpt>
            <trkpt lon="101.401059" lat="14.183422">
                <ele>33.100000</ele>
                <time>1970-01-01T04:41:19Z</time>
            </trkpt>
            <trkpt lon="101.401022" lat="14.183436">
                <ele>33.200000</ele>
                <time>1970-01-01T04:41:20Z</time>
            </trkpt>
            <trkpt lon="101.400983" lat="14.183448">
                <ele>33.400000</ele>
                <time>1970-01-01T04:41:21Z</time>
            </trkpt>
            <trkpt lon="101.400944" lat="14.183458">
                <ele>33.700000</ele>
                <time>1970-01-01T04:41:22Z</time>
            </trkpt>
            <trkpt lon="101.400903" lat="14.183466">
                <ele>34.100000</ele>
                <time>1970-01-01T04:41:23Z</time>
            </trkpt>
            <trkpt lon="101.400861" lat="14.183473">
                <ele>34.600000</ele>
                <time>1970-01-01T04:41:24Z</time>
            </trkpt>
            <trkpt lon="101.400818" lat="14.183481">
                <ele>34.800000</ele>
                <time>1970-01-01T04:41:25Z</time>
            </trkpt>
            <trkpt lon="101.400769" lat="14.183494">
                <ele>35.200000</ele>
                <time>1970-01-01T04:41:26Z</time>
            </trkpt>
            <trkpt lon="101.400724" lat="14.183511">
                <ele>35.000000</ele>
                <time>1970-01-01T04:41:27Z</time>
            </trkpt>
            <trkpt lon="101.400686" lat="14.183545">
                <ele>34.600000</ele>
                <time>1970-01-01T04:41:28Z</time>
            </trkpt>
            <trkpt lon="101.400671" lat="14.183588">
                <ele>34.300000</ele>
                <time>1970-01-01T04:41:29Z</time>
            </trkpt>
            <trkpt lon="101.400692" lat="14.183638">
                <ele>34.100000</ele>
                <time>1970-01-01T04:41:30Z</time>
            </trkpt>
            <trkpt lon="101.400706" lat="14.183681">
                <ele>33.800000</ele>
                <time>1970-01-01T04:41:31Z</time>
            </trkpt>
            <trkpt lon="101.400719" lat="14.183729">
                <ele>33.500000</ele>
                <time>1970-01-01T04:41:32Z</time>
            </trkpt>
            <trkpt lon="101.400730" lat="14.183779">
                <ele>33.200000</ele>
                <time>1970-01-01T04:41:33Z</time>
            </trkpt>
            <trkpt lon="101.400747" lat="14.183823">
                <ele>33.000000</ele>
                <time>1970-01-01T04:41:34Z</time>
            </trkpt>
            <trkpt lon="101.400758" lat="14.183872">
                <ele>32.900000</ele>
                <time>1970-01-01T04:41:35Z</time>
            </trkpt>
            <trkpt lon="101.400776" lat="14.183923">
                <ele>32.900000</ele>
                <time>1970-01-01T04:41:36Z</time>
            </trkpt>
            <trkpt lon="101.400789" lat="14.183974">
                <ele>33.000000</ele>
                <time>1970-01-01T04:41:37Z</time>
            </trkpt>
            <trkpt lon="101.400801" lat="14.184034">
                <ele>33.000000</ele>
                <time>1970-01-01T04:41:38Z</time>
            </trkpt>
            <trkpt lon="101.400815" lat="14.184080">
                <ele>33.000000</ele>
                <time>1970-01-01T04:41:39Z</time>
            </trkpt>
            <trkpt lon="101.400825" lat="14.184130">
                <ele>32.900000</ele>
                <time>1970-01-01T04:41:40Z</time>
            </trkpt>
            <trkpt lon="101.400840" lat="14.184179">
                <ele>32.900000</ele>
                <time>1970-01-01T04:41:41Z</time>
            </trkpt>
            <trkpt lon="101.400863" lat="14.184223">
                <ele>32.900000</ele>
                <time>1970-01-01T04:41:42Z</time>
            </trkpt>
            <trkpt lon="101.400878" lat="14.184269">
                <ele>32.900000</ele>
                <time>1970-01-01T04:41:43Z</time>
            </trkpt>
            <trkpt lon="101.400894" lat="14.184315">
                <ele>33.000000</ele>
                <time>1970-01-01T04:41:44Z</time>
            </trkpt>
            <trkpt lon="101.400910" lat="14.184360">
                <ele>33.100000</ele>
                <time>1970-01-01T04:41:45Z</time>
            </trkpt>
            <trkpt lon="101.400927" lat="14.184398">
                <ele>33.100000</ele>
                <time>1970-01-01T04:41:46Z</time>
            </trkpt>
            <trkpt lon="101.400945" lat="14.184460">
                <ele>33.200000</ele>
                <time>1970-01-01T04:41:47Z</time>
            </trkpt>
            <trkpt lon="101.400956" lat="14.184504">
                <ele>33.000000</ele>
                <time>1970-01-01T04:41:48Z</time>
            </trkpt>
            <trkpt lon="101.400974" lat="14.184556">
                <ele>32.600000</ele>
                <time>1970-01-01T04:41:49Z</time>
            </trkpt>
            <trkpt lon="101.400991" lat="14.184604">
                <ele>32.200000</ele>
                <time>1970-01-01T04:41:50Z</time>
            </trkpt>
            <trkpt lon="101.401011" lat="14.184652">
                <ele>31.700000</ele>
                <time>1970-01-01T04:41:51Z</time>
            </trkpt>
            <trkpt lon="101.401024" lat="14.184702">
                <ele>31.200000</ele>
                <time>1970-01-01T04:41:52Z</time>
            </trkpt>
            <trkpt lon="101.401011" lat="14.184753">
                <ele>30.800000</ele>
                <time>1970-01-01T04:41:53Z</time>
            </trkpt>
            <trkpt lon="101.400989" lat="14.184797">
                <ele>30.500000</ele>
                <time>1970-01-01T04:41:54Z</time>
            </trkpt>
            <trkpt lon="101.400949" lat="14.184831">
                <ele>30.300000</ele>
                <time>1970-01-01T04:41:55Z</time>
            </trkpt>
            <trkpt lon="101.400901" lat="14.184852">
                <ele>30.100000</ele>
                <time>1970-01-01T04:41:56Z</time>
            </trkpt>
            <trkpt lon="101.400849" lat="14.184864">
                <ele>30.000000</ele>
                <time>1970-01-01T04:41:57Z</time>
            </trkpt>
            <trkpt lon="101.400798" lat="14.184878">
                <ele>30.100000</ele>
                <time>1970-01-01T04:41:58Z</time>
            </trkpt>
            <trkpt lon="101.400744" lat="14.184889">
                <ele>30.100000</ele>
                <time>1970-01-01T04:41:59Z</time>
            </trkpt>
            <trkpt lon="101.400691" lat="14.184910">
                <ele>30.000000</ele>
                <time>1970-01-01T04:42:00Z</time>
            </trkpt>
            <trkpt lon="101.400639" lat="14.184931">
                <ele>30.000000</ele>
                <time>1970-01-01T04:42:01Z</time>
            </trkpt>
            <trkpt lon="101.400591" lat="14.184957">
                <ele>29.700000</ele>
                <time>1970-01-01T04:42:02Z</time>
            </trkpt>
            <trkpt lon="101.400544" lat="14.184991">
                <ele>29.400000</ele>
                <time>1970-01-01T04:42:03Z</time>
            </trkpt>
            <trkpt lon="101.400502" lat="14.185028">
                <ele>29.100000</ele>
                <time>1970-01-01T04:42:04Z</time>
            </trkpt>
            <trkpt lon="101.400472" lat="14.185064">
                <ele>28.900000</ele>
                <time>1970-01-01T04:42:05Z</time>
            </trkpt>
            <trkpt lon="101.400458" lat="14.185098">
                <ele>28.900000</ele>
                <time>1970-01-01T04:42:07Z</time>
            </trkpt>
            <trkpt lon="101.400479" lat="14.185132">
                <ele>29.000000</ele>
                <time>1970-01-01T04:42:10Z</time>
            </trkpt>
            <trkpt lon="101.400501" lat="14.185176">
                <ele>28.800000</ele>
                <time>1970-01-01T04:42:12Z</time>
            </trkpt>
            <trkpt lon="101.400515" lat="14.185204">
                <ele>28.500000</ele>
                <time>1970-01-01T04:42:13Z</time>
            </trkpt>
            <trkpt lon="101.400524" lat="14.185230">
                <ele>28.300000</ele>
                <time>1970-01-01T04:42:14Z</time>
            </trkpt>
            <trkpt lon="101.400550" lat="14.185272">
                <ele>28.000000</ele>
                <time>1970-01-01T04:42:16Z</time>
            </trkpt>
            <trkpt lon="101.400576" lat="14.185316">
                <ele>27.800000</ele>
                <time>1970-01-01T04:42:18Z</time>
            </trkpt>
            <trkpt lon="101.400590" lat="14.185354">
                <ele>27.900000</ele>
                <time>1970-01-01T04:42:20Z</time>
            </trkpt>
            <trkpt lon="101.400612" lat="14.185406">
                <ele>27.900000</ele>
                <time>1970-01-01T04:42:22Z</time>
            </trkpt>
            <trkpt lon="101.400626" lat="14.185438">
                <ele>27.800000</ele>
                <time>1970-01-01T04:42:23Z</time>
            </trkpt>
            <trkpt lon="101.400641" lat="14.185472">
                <ele>28.000000</ele>
                <time>1970-01-01T04:42:24Z</time>
            </trkpt>
            <trkpt lon="101.400655" lat="14.185508">
                <ele>28.000000</ele>
                <time>1970-01-01T04:42:25Z</time>
            </trkpt>
            <trkpt lon="101.400670" lat="14.185546">
                <ele>28.000000</ele>
                <time>1970-01-01T04:42:26Z</time>
            </trkpt>
            <trkpt lon="101.400685" lat="14.185583">
                <ele>28.100000</ele>
                <time>1970-01-01T04:42:27Z</time>
            </trkpt>
            <trkpt lon="101.400699" lat="14.185620">
                <ele>28.100000</ele>
                <time>1970-01-01T04:42:28Z</time>
            </trkpt>
            <trkpt lon="101.400710" lat="14.185654">
                <ele>28.200000</ele>
                <time>1970-01-01T04:42:29Z</time>
            </trkpt>
            <trkpt lon="101.400717" lat="14.185681">
                <ele>28.300000</ele>
                <time>1970-01-01T04:42:30Z</time>
            </trkpt>
            <trkpt lon="101.400727" lat="14.185710">
                <ele>28.200000</ele>
                <time>1970-01-01T04:42:31Z</time>
            </trkpt>
            <trkpt lon="101.400744" lat="14.185744">
                <ele>28.300000</ele>
                <time>1970-01-01T04:42:32Z</time>
            </trkpt>
            <trkpt lon="101.400764" lat="14.185772">
                <ele>28.200000</ele>
                <time>1970-01-01T04:42:33Z</time>
            </trkpt>
            <trkpt lon="101.400789" lat="14.185803">
                <ele>28.200000</ele>
                <time>1970-01-01T04:42:34Z</time>
            </trkpt>
            <trkpt lon="101.400816" lat="14.185840">
                <ele>27.900000</ele>
                <time>1970-01-01T04:42:35Z</time>
            </trkpt>
            <trkpt lon="101.400841" lat="14.185881">
                <ele>27.900000</ele>
                <time>1970-01-01T04:42:36Z</time>
            </trkpt>
            <trkpt lon="101.400861" lat="14.185924">
                <ele>27.600000</ele>
                <time>1970-01-01T04:42:37Z</time>
            </trkpt>
            <trkpt lon="101.400875" lat="14.185970">
                <ele>27.400000</ele>
                <time>1970-01-01T04:42:38Z</time>
            </trkpt>
            <trkpt lon="101.400879" lat="14.186011">
                <ele>27.400000</ele>
                <time>1970-01-01T04:42:39Z</time>
            </trkpt>
            <trkpt lon="101.400875" lat="14.186045">
                <ele>27.400000</ele>
                <time>1970-01-01T04:42:40Z</time>
            </trkpt>
            <trkpt lon="101.400862" lat="14.186074">
                <ele>27.300000</ele>
                <time>1970-01-01T04:42:41Z</time>
            </trkpt>
            <trkpt lon="101.400839" lat="14.186101">
                <ele>27.700000</ele>
                <time>1970-01-01T04:42:42Z</time>
            </trkpt>
            <trkpt lon="101.400811" lat="14.186126">
                <ele>27.700000</ele>
                <time>1970-01-01T04:42:43Z</time>
            </trkpt>
            <trkpt lon="101.400780" lat="14.186143">
                <ele>28.100000</ele>
                <time>1970-01-01T04:42:44Z</time>
            </trkpt>
            <trkpt lon="101.400750" lat="14.186152">
                <ele>28.700000</ele>
                <time>1970-01-01T04:42:45Z</time>
            </trkpt>
            <trkpt lon="101.400717" lat="14.186158">
                <ele>29.200000</ele>
                <time>1970-01-01T04:42:46Z</time>
            </trkpt>
            <trkpt lon="101.400683" lat="14.186163">
                <ele>29.200000</ele>
                <time>1970-01-01T04:42:47Z</time>
            </trkpt>
            <trkpt lon="101.400648" lat="14.186168">
                <ele>29.700000</ele>
                <time>1970-01-01T04:42:48Z</time>
            </trkpt>
            <trkpt lon="101.400614" lat="14.186174">
                <ele>29.900000</ele>
                <time>1970-01-01T04:42:49Z</time>
            </trkpt>
            <trkpt lon="101.400580" lat="14.186181">
                <ele>29.700000</ele>
                <time>1970-01-01T04:42:50Z</time>
            </trkpt>
            <trkpt lon="101.400544" lat="14.186190">
                <ele>29.700000</ele>
                <time>1970-01-01T04:42:51Z</time>
            </trkpt>
            <trkpt lon="101.400506" lat="14.186201">
                <ele>29.700000</ele>
                <time>1970-01-01T04:42:52Z</time>
            </trkpt>
            <trkpt lon="101.400468" lat="14.186214">
                <ele>29.500000</ele>
                <time>1970-01-01T04:42:53Z</time>
            </trkpt>
            <trkpt lon="101.400430" lat="14.186227">
                <ele>29.100000</ele>
                <time>1970-01-01T04:42:54Z</time>
            </trkpt>
            <trkpt lon="101.400395" lat="14.186242">
                <ele>29.100000</ele>
                <time>1970-01-01T04:42:55Z</time>
            </trkpt>
            <trkpt lon="101.400365" lat="14.186261">
                <ele>29.000000</ele>
                <time>1970-01-01T04:42:56Z</time>
            </trkpt>
            <trkpt lon="101.400341" lat="14.186289">
                <ele>29.000000</ele>
                <time>1970-01-01T04:42:57Z</time>
            </trkpt>
            <trkpt lon="101.400326" lat="14.186325">
                <ele>28.800000</ele>
                <time>1970-01-01T04:42:58Z</time>
            </trkpt>
            <trkpt lon="101.400323" lat="14.186366">
                <ele>28.600000</ele>
                <time>1970-01-01T04:42:59Z</time>
            </trkpt>
            <trkpt lon="101.400330" lat="14.186409">
                <ele>28.300000</ele>
                <time>1970-01-01T04:43:00Z</time>
            </trkpt>
            <trkpt lon="101.400343" lat="14.186454">
                <ele>28.000000</ele>
                <time>1970-01-01T04:43:01Z</time>
            </trkpt>
            <trkpt lon="101.400387" lat="14.186512">
                <ele>27.300000</ele>
                <time>1970-01-01T04:43:02Z</time>
            </trkpt>
            <trkpt lon="101.400391" lat="14.186555">
                <ele>27.000000</ele>
                <time>1970-01-01T04:43:03Z</time>
            </trkpt>
            <trkpt lon="101.400401" lat="14.186600">
                <ele>26.600000</ele>
                <time>1970-01-01T04:43:04Z</time>
            </trkpt>
            <trkpt lon="101.400404" lat="14.186641">
                <ele>26.300000</ele>
                <time>1970-01-01T04:43:05Z</time>
            </trkpt>
            <trkpt lon="101.400413" lat="14.186686">
                <ele>26.100000</ele>
                <time>1970-01-01T04:43:06Z</time>
            </trkpt>
            <trkpt lon="101.400421" lat="14.186731">
                <ele>26.100000</ele>
                <time>1970-01-01T04:43:07Z</time>
            </trkpt>
            <trkpt lon="101.400429" lat="14.186776">
                <ele>26.000000</ele>
                <time>1970-01-01T04:43:08Z</time>
            </trkpt>
            <trkpt lon="101.400432" lat="14.186819">
                <ele>26.200000</ele>
                <time>1970-01-01T04:43:09Z</time>
            </trkpt>
            <trkpt lon="101.400438" lat="14.186864">
                <ele>26.500000</ele>
                <time>1970-01-01T04:43:10Z</time>
            </trkpt>
            <trkpt lon="101.400446" lat="14.186908">
                <ele>26.800000</ele>
                <time>1970-01-01T04:43:11Z</time>
            </trkpt>
            <trkpt lon="101.400450" lat="14.186952">
                <ele>27.200000</ele>
                <time>1970-01-01T04:43:12Z</time>
            </trkpt>
            <trkpt lon="101.400459" lat="14.186998">
                <ele>27.500000</ele>
                <time>1970-01-01T04:43:13Z</time>
            </trkpt>
            <trkpt lon="101.400463" lat="14.187040">
                <ele>27.800000</ele>
                <time>1970-01-01T04:43:14Z</time>
            </trkpt>
            <trkpt lon="101.400474" lat="14.187093">
                <ele>28.000000</ele>
                <time>1970-01-01T04:43:15Z</time>
            </trkpt>
            <trkpt lon="101.400482" lat="14.187146">
                <ele>27.900000</ele>
                <time>1970-01-01T04:43:16Z</time>
            </trkpt>
            <trkpt lon="101.400492" lat="14.187195">
                <ele>27.600000</ele>
                <time>1970-01-01T04:43:17Z</time>
            </trkpt>
            <trkpt lon="101.400497" lat="14.187248">
                <ele>27.300000</ele>
                <time>1970-01-01T04:43:18Z</time>
            </trkpt>
            <trkpt lon="101.400511" lat="14.187304">
                <ele>26.900000</ele>
                <time>1970-01-01T04:43:19Z</time>
            </trkpt>
            <trkpt lon="101.400520" lat="14.187362">
                <ele>26.700000</ele>
                <time>1970-01-01T04:43:20Z</time>
            </trkpt>
            <trkpt lon="101.400532" lat="14.187417">
                <ele>26.500000</ele>
                <time>1970-01-01T04:43:21Z</time>
            </trkpt>
            <trkpt lon="101.400544" lat="14.187472">
                <ele>26.000000</ele>
                <time>1970-01-01T04:43:22Z</time>
            </trkpt>
            <trkpt lon="101.400547" lat="14.187527">
                <ele>25.800000</ele>
                <time>1970-01-01T04:43:23Z</time>
            </trkpt>
            <trkpt lon="101.400554" lat="14.187581">
                <ele>25.800000</ele>
                <time>1970-01-01T04:43:24Z</time>
            </trkpt>
            <trkpt lon="101.400564" lat="14.187634">
                <ele>25.300000</ele>
                <time>1970-01-01T04:43:25Z</time>
            </trkpt>
            <trkpt lon="101.400575" lat="14.187688">
                <ele>25.200000</ele>
                <time>1970-01-01T04:43:26Z</time>
            </trkpt>
            <trkpt lon="101.400577" lat="14.187735">
                <ele>25.000000</ele>
                <time>1970-01-01T04:43:27Z</time>
            </trkpt>
            <trkpt lon="101.400584" lat="14.187788">
                <ele>25.000000</ele>
                <time>1970-01-01T04:43:28Z</time>
            </trkpt>
            <trkpt lon="101.400594" lat="14.187836">
                <ele>24.900000</ele>
                <time>1970-01-01T04:43:29Z</time>
            </trkpt>
            <trkpt lon="101.400611" lat="14.187890">
                <ele>25.000000</ele>
                <time>1970-01-01T04:43:30Z</time>
            </trkpt>
            <trkpt lon="101.400623" lat="14.187941">
                <ele>25.000000</ele>
                <time>1970-01-01T04:43:31Z</time>
            </trkpt>
            <trkpt lon="101.400631" lat="14.187993">
                <ele>25.000000</ele>
                <time>1970-01-01T04:43:32Z</time>
            </trkpt>
            <trkpt lon="101.400646" lat="14.188053">
                <ele>24.900000</ele>
                <time>1970-01-01T04:43:33Z</time>
            </trkpt>
            <trkpt lon="101.400657" lat="14.188101">
                <ele>24.900000</ele>
                <time>1970-01-01T04:43:34Z</time>
            </trkpt>
            <trkpt lon="101.400663" lat="14.188155">
                <ele>25.000000</ele>
                <time>1970-01-01T04:43:35Z</time>
            </trkpt>
            <trkpt lon="101.400676" lat="14.188210">
                <ele>24.700000</ele>
                <time>1970-01-01T04:43:36Z</time>
            </trkpt>
            <trkpt lon="101.400693" lat="14.188262">
                <ele>24.600000</ele>
                <time>1970-01-01T04:43:37Z</time>
            </trkpt>
            <trkpt lon="101.400716" lat="14.188298">
                <ele>24.600000</ele>
                <time>1970-01-01T04:43:38Z</time>
            </trkpt>
            <trkpt lon="101.400726" lat="14.188345">
                <ele>24.100000</ele>
                <time>1970-01-01T04:43:39Z</time>
            </trkpt>
            <trkpt lon="101.400736" lat="14.188389">
                <ele>24.000000</ele>
                <time>1970-01-01T04:43:40Z</time>
            </trkpt>
            <trkpt lon="101.400756" lat="14.188443">
                <ele>23.900000</ele>
                <time>1970-01-01T04:43:41Z</time>
            </trkpt>
            <trkpt lon="101.400754" lat="14.188490">
                <ele>24.000000</ele>
                <time>1970-01-01T04:43:42Z</time>
            </trkpt>
            <trkpt lon="101.400763" lat="14.188540">
                <ele>24.400000</ele>
                <time>1970-01-01T04:43:43Z</time>
            </trkpt>
            <trkpt lon="101.400764" lat="14.188589">
                <ele>24.700000</ele>
                <time>1970-01-01T04:43:44Z</time>
            </trkpt>
            <trkpt lon="101.400778" lat="14.188633">
                <ele>25.300000</ele>
                <time>1970-01-01T04:43:45Z</time>
            </trkpt>
            <trkpt lon="101.400755" lat="14.188683">
                <ele>25.300000</ele>
                <time>1970-01-01T04:43:46Z</time>
            </trkpt>
            <trkpt lon="101.400715" lat="14.188711">
                <ele>25.000000</ele>
                <time>1970-01-01T04:43:47Z</time>
            </trkpt>
            <trkpt lon="101.400678" lat="14.188721">
                <ele>25.200000</ele>
                <time>1970-01-01T04:43:48Z</time>
            </trkpt>
            <trkpt lon="101.400634" lat="14.188732">
                <ele>24.900000</ele>
                <time>1970-01-01T04:43:49Z</time>
            </trkpt>
            <trkpt lon="101.400605" lat="14.188743">
                <ele>24.700000</ele>
                <time>1970-01-01T04:43:50Z</time>
            </trkpt>
            <trkpt lon="101.400566" lat="14.188753">
                <ele>24.600000</ele>
                <time>1970-01-01T04:43:51Z</time>
            </trkpt>
            <trkpt lon="101.400512" lat="14.188756">
                <ele>25.000000</ele>
                <time>1970-01-01T04:43:52Z</time>
            </trkpt>
            <trkpt lon="101.400459" lat="14.188767">
                <ele>25.100000</ele>
                <time>1970-01-01T04:43:53Z</time>
            </trkpt>
            <trkpt lon="101.400410" lat="14.188776">
                <ele>25.100000</ele>
                <time>1970-01-01T04:43:54Z</time>
            </trkpt>
            <trkpt lon="101.400362" lat="14.188789">
                <ele>25.100000</ele>
                <time>1970-01-01T04:43:55Z</time>
            </trkpt>
            <trkpt lon="101.400314" lat="14.188800">
                <ele>25.200000</ele>
                <time>1970-01-01T04:43:56Z</time>
            </trkpt>
            <trkpt lon="101.400256" lat="14.188807">
                <ele>25.200000</ele>
                <time>1970-01-01T04:43:57Z</time>
            </trkpt>
            <trkpt lon="101.400204" lat="14.188818">
                <ele>25.200000</ele>
                <time>1970-01-01T04:43:58Z</time>
            </trkpt>
            <trkpt lon="101.400155" lat="14.188827">
                <ele>25.200000</ele>
                <time>1970-01-01T04:43:59Z</time>
            </trkpt>
            <trkpt lon="101.400120" lat="14.188848">
                <ele>25.500000</ele>
                <time>1970-01-01T04:44:00Z</time>
            </trkpt>
            <trkpt lon="101.400082" lat="14.188884">
                <ele>25.800000</ele>
                <time>1970-01-01T04:44:01Z</time>
            </trkpt>
            <trkpt lon="101.400050" lat="14.188923">
                <ele>25.800000</ele>
                <time>1970-01-01T04:44:02Z</time>
            </trkpt>
            <trkpt lon="101.400027" lat="14.188963">
                <ele>25.600000</ele>
                <time>1970-01-01T04:44:03Z</time>
            </trkpt>
            <trkpt lon="101.400007" lat="14.189000">
                <ele>25.600000</ele>
                <time>1970-01-01T04:44:04Z</time>
            </trkpt>
            <trkpt lon="101.400030" lat="14.189030">
                <ele>25.600000</ele>
                <time>1970-01-01T04:44:05Z</time>
            </trkpt>
            <trkpt lon="101.400039" lat="14.189060">
                <ele>26.100000</ele>
                <time>1970-01-01T04:44:06Z</time>
            </trkpt>
            <trkpt lon="101.400047" lat="14.189108">
                <ele>26.200000</ele>
                <time>1970-01-01T04:44:08Z</time>
            </trkpt>
            <trkpt lon="101.400014" lat="14.189134">
                <ele>25.800000</ele>
                <time>1970-01-01T04:44:10Z</time>
            </trkpt>
            <trkpt lon="101.399970" lat="14.189161">
                <ele>25.400000</ele>
                <time>1970-01-01T04:44:12Z</time>
            </trkpt>
            <trkpt lon="101.399950" lat="14.189206">
                <ele>25.600000</ele>
                <time>1970-01-01T04:44:14Z</time>
            </trkpt>
            <trkpt lon="101.399943" lat="14.189261">
                <ele>25.900000</ele>
                <time>1970-01-01T04:44:16Z</time>
            </trkpt>
            <trkpt lon="101.399940" lat="14.189288">
                <ele>25.900000</ele>
                <time>1970-01-01T04:44:17Z</time>
            </trkpt>
            <trkpt lon="101.399939" lat="14.189348">
                <ele>26.600000</ele>
                <time>1970-01-01T04:44:19Z</time>
            </trkpt>
            <trkpt lon="101.399945" lat="14.189384">
                <ele>26.800000</ele>
                <time>1970-01-01T04:44:20Z</time>
            </trkpt>
            <trkpt lon="101.399952" lat="14.189421">
                <ele>27.100000</ele>
                <time>1970-01-01T04:44:21Z</time>
            </trkpt>
            <trkpt lon="101.399963" lat="14.189460">
                <ele>27.100000</ele>
                <time>1970-01-01T04:44:22Z</time>
            </trkpt>
            <trkpt lon="101.399974" lat="14.189501">
                <ele>27.000000</ele>
                <time>1970-01-01T04:44:23Z</time>
            </trkpt>
            <trkpt lon="101.399987" lat="14.189541">
                <ele>26.700000</ele>
                <time>1970-01-01T04:44:24Z</time>
            </trkpt>
            <trkpt lon="101.400000" lat="14.189581">
                <ele>26.400000</ele>
                <time>1970-01-01T04:44:25Z</time>
            </trkpt>
            <trkpt lon="101.400015" lat="14.189621">
                <ele>26.000000</ele>
                <time>1970-01-01T04:44:26Z</time>
            </trkpt>
            <trkpt lon="101.400031" lat="14.189662">
                <ele>25.700000</ele>
                <time>1970-01-01T04:44:27Z</time>
            </trkpt>
            <trkpt lon="101.400045" lat="14.189706">
                <ele>25.500000</ele>
                <time>1970-01-01T04:44:28Z</time>
            </trkpt>
            <trkpt lon="101.400051" lat="14.189772">
                <ele>25.100000</ele>
                <time>1970-01-01T04:44:29Z</time>
            </trkpt>
            <trkpt lon="101.400038" lat="14.189819">
                <ele>25.000000</ele>
                <time>1970-01-01T04:44:30Z</time>
            </trkpt>
            <trkpt lon="101.400024" lat="14.189859">
                <ele>25.000000</ele>
                <time>1970-01-01T04:44:31Z</time>
            </trkpt>
            <trkpt lon="101.400014" lat="14.189906">
                <ele>25.000000</ele>
                <time>1970-01-01T04:44:32Z</time>
            </trkpt>
            <trkpt lon="101.400008" lat="14.189953">
                <ele>25.100000</ele>
                <time>1970-01-01T04:44:33Z</time>
            </trkpt>
            <trkpt lon="101.400017" lat="14.189999">
                <ele>25.300000</ele>
                <time>1970-01-01T04:44:34Z</time>
            </trkpt>
            <trkpt lon="101.400025" lat="14.190044">
                <ele>25.400000</ele>
                <time>1970-01-01T04:44:35Z</time>
            </trkpt>
            <trkpt lon="101.400032" lat="14.190090">
                <ele>25.400000</ele>
                <time>1970-01-01T04:44:36Z</time>
            </trkpt>
            <trkpt lon="101.400042" lat="14.190137">
                <ele>25.500000</ele>
                <time>1970-01-01T04:44:37Z</time>
            </trkpt>
            <trkpt lon="101.400051" lat="14.190183">
                <ele>25.200000</ele>
                <time>1970-01-01T04:44:38Z</time>
            </trkpt>
            <trkpt lon="101.400064" lat="14.190229">
                <ele>24.900000</ele>
                <time>1970-01-01T04:44:39Z</time>
            </trkpt>
            <trkpt lon="101.400071" lat="14.190280">
                <ele>24.800000</ele>
                <time>1970-01-01T04:44:40Z</time>
            </trkpt>
            <trkpt lon="101.400076" lat="14.190327">
                <ele>24.800000</ele>
                <time>1970-01-01T04:44:41Z</time>
            </trkpt>
            <trkpt lon="101.400080" lat="14.190378">
                <ele>24.900000</ele>
                <time>1970-01-01T04:44:42Z</time>
            </trkpt>
            <trkpt lon="101.400082" lat="14.190429">
                <ele>25.100000</ele>
                <time>1970-01-01T04:44:43Z</time>
            </trkpt>
            <trkpt lon="101.400075" lat="14.190481">
                <ele>25.200000</ele>
                <time>1970-01-01T04:44:44Z</time>
            </trkpt>
            <trkpt lon="101.400064" lat="14.190528">
                <ele>25.200000</ele>
                <time>1970-01-01T04:44:45Z</time>
            </trkpt>
            <trkpt lon="101.400050" lat="14.190570">
                <ele>25.100000</ele>
                <time>1970-01-01T04:44:46Z</time>
            </trkpt>
            <trkpt lon="101.400025" lat="14.190606">
                <ele>24.900000</ele>
                <time>1970-01-01T04:44:47Z</time>
            </trkpt>
            <trkpt lon="101.399993" lat="14.190643">
                <ele>24.700000</ele>
                <time>1970-01-01T04:44:48Z</time>
            </trkpt>
            <trkpt lon="101.399962" lat="14.190672">
                <ele>24.300000</ele>
                <time>1970-01-01T04:44:49Z</time>
            </trkpt>
            <trkpt lon="101.399913" lat="14.190689">
                <ele>24.300000</ele>
                <time>1970-01-01T04:44:50Z</time>
            </trkpt>
            <trkpt lon="101.399863" lat="14.190708">
                <ele>24.200000</ele>
                <time>1970-01-01T04:44:51Z</time>
            </trkpt>
            <trkpt lon="101.399818" lat="14.190723">
                <ele>23.900000</ele>
                <time>1970-01-01T04:44:52Z</time>
            </trkpt>
            <trkpt lon="101.399770" lat="14.190736">
                <ele>24.200000</ele>
                <time>1970-01-01T04:44:53Z</time>
            </trkpt>
            <trkpt lon="101.399720" lat="14.190746">
                <ele>24.400000</ele>
                <time>1970-01-01T04:44:54Z</time>
            </trkpt>
            <trkpt lon="101.399664" lat="14.190754">
                <ele>24.700000</ele>
                <time>1970-01-01T04:44:55Z</time>
            </trkpt>
            <trkpt lon="101.399612" lat="14.190765">
                <ele>25.000000</ele>
                <time>1970-01-01T04:44:56Z</time>
            </trkpt>
            <trkpt lon="101.399562" lat="14.190781">
                <ele>25.100000</ele>
                <time>1970-01-01T04:44:57Z</time>
            </trkpt>
            <trkpt lon="101.399521" lat="14.190795">
                <ele>25.100000</ele>
                <time>1970-01-01T04:44:58Z</time>
            </trkpt>
            <trkpt lon="101.399474" lat="14.190822">
                <ele>24.900000</ele>
                <time>1970-01-01T04:44:59Z</time>
            </trkpt>
            <trkpt lon="101.399441" lat="14.190859">
                <ele>24.900000</ele>
                <time>1970-01-01T04:45:00Z</time>
            </trkpt>
            <trkpt lon="101.399411" lat="14.190902">
                <ele>24.800000</ele>
                <time>1970-01-01T04:45:01Z</time>
            </trkpt>
            <trkpt lon="101.399396" lat="14.190945">
                <ele>25.100000</ele>
                <time>1970-01-01T04:45:02Z</time>
            </trkpt>
            <trkpt lon="101.399385" lat="14.190990">
                <ele>25.000000</ele>
                <time>1970-01-01T04:45:03Z</time>
            </trkpt>
            <trkpt lon="101.399385" lat="14.191036">
                <ele>25.400000</ele>
                <time>1970-01-01T04:45:04Z</time>
            </trkpt>
            <trkpt lon="101.399381" lat="14.191078">
                <ele>25.700000</ele>
                <time>1970-01-01T04:45:05Z</time>
            </trkpt>
            <trkpt lon="101.399389" lat="14.191125">
                <ele>26.100000</ele>
                <time>1970-01-01T04:45:06Z</time>
            </trkpt>
            <trkpt lon="101.399394" lat="14.191171">
                <ele>26.000000</ele>
                <time>1970-01-01T04:45:07Z</time>
            </trkpt>
            <trkpt lon="101.399393" lat="14.191215">
                <ele>26.000000</ele>
                <time>1970-01-01T04:45:08Z</time>
            </trkpt>
            <trkpt lon="101.399390" lat="14.191264">
                <ele>26.000000</ele>
                <time>1970-01-01T04:45:09Z</time>
            </trkpt>
            <trkpt lon="101.399378" lat="14.191305">
                <ele>26.100000</ele>
                <time>1970-01-01T04:45:10Z</time>
            </trkpt>
            <trkpt lon="101.399363" lat="14.191348">
                <ele>26.100000</ele>
                <time>1970-01-01T04:45:11Z</time>
            </trkpt>
            <trkpt lon="101.399355" lat="14.191391">
                <ele>26.000000</ele>
                <time>1970-01-01T04:45:12Z</time>
            </trkpt>
            <trkpt lon="101.399346" lat="14.191430">
                <ele>25.900000</ele>
                <time>1970-01-01T04:45:13Z</time>
            </trkpt>
            <trkpt lon="101.399335" lat="14.191467">
                <ele>25.700000</ele>
                <time>1970-01-01T04:45:14Z</time>
            </trkpt>
            <trkpt lon="101.399322" lat="14.191504">
                <ele>25.400000</ele>
                <time>1970-01-01T04:45:15Z</time>
            </trkpt>
            <trkpt lon="101.399316" lat="14.191542">
                <ele>25.400000</ele>
                <time>1970-01-01T04:45:16Z</time>
            </trkpt>
            <trkpt lon="101.399313" lat="14.191570">
                <ele>25.100000</ele>
                <time>1970-01-01T04:45:17Z</time>
            </trkpt>
            <trkpt lon="101.399312" lat="14.191610">
                <ele>24.800000</ele>
                <time>1970-01-01T04:45:19Z</time>
            </trkpt>
            <trkpt lon="101.399305" lat="14.191641">
                <ele>24.500000</ele>
                <time>1970-01-01T04:45:21Z</time>
            </trkpt>
            <trkpt lon="101.399266" lat="14.191670">
                <ele>24.200000</ele>
                <time>1970-01-01T04:45:23Z</time>
            </trkpt>
            <trkpt lon="101.399238" lat="14.191679">
                <ele>24.300000</ele>
                <time>1970-01-01T04:45:24Z</time>
            </trkpt>
            <trkpt lon="101.399208" lat="14.191686">
                <ele>24.400000</ele>
                <time>1970-01-01T04:45:25Z</time>
            </trkpt>
            <trkpt lon="101.399179" lat="14.191695">
                <ele>24.400000</ele>
                <time>1970-01-01T04:45:26Z</time>
            </trkpt>
            <trkpt lon="101.399151" lat="14.191705">
                <ele>24.700000</ele>
                <time>1970-01-01T04:45:27Z</time>
            </trkpt>
            <trkpt lon="101.399124" lat="14.191721">
                <ele>24.900000</ele>
                <time>1970-01-01T04:45:28Z</time>
            </trkpt>
            <trkpt lon="101.399100" lat="14.191740">
                <ele>24.900000</ele>
                <time>1970-01-01T04:45:29Z</time>
            </trkpt>
            <trkpt lon="101.399080" lat="14.191766">
                <ele>25.100000</ele>
                <time>1970-01-01T04:45:30Z</time>
            </trkpt>
            <trkpt lon="101.399062" lat="14.191797">
                <ele>24.800000</ele>
                <time>1970-01-01T04:45:31Z</time>
            </trkpt>
            <trkpt lon="101.399047" lat="14.191831">
                <ele>24.800000</ele>
                <time>1970-01-01T04:45:32Z</time>
            </trkpt>
            <trkpt lon="101.399032" lat="14.191866">
                <ele>24.900000</ele>
                <time>1970-01-01T04:45:33Z</time>
            </trkpt>
            <trkpt lon="101.399013" lat="14.191900">
                <ele>24.700000</ele>
                <time>1970-01-01T04:45:34Z</time>
            </trkpt>
            <trkpt lon="101.398992" lat="14.191933">
                <ele>25.200000</ele>
                <time>1970-01-01T04:45:35Z</time>
            </trkpt>
            <trkpt lon="101.398969" lat="14.191967">
                <ele>25.200000</ele>
                <time>1970-01-01T04:45:36Z</time>
            </trkpt>
            <trkpt lon="101.398945" lat="14.192002">
                <ele>25.800000</ele>
                <time>1970-01-01T04:45:37Z</time>
            </trkpt>
            <trkpt lon="101.398921" lat="14.192035">
                <ele>25.800000</ele>
                <time>1970-01-01T04:45:38Z</time>
            </trkpt>
            <trkpt lon="101.398897" lat="14.192069">
                <ele>26.300000</ele>
                <time>1970-01-01T04:45:39Z</time>
            </trkpt>
            <trkpt lon="101.398871" lat="14.192105">
                <ele>26.800000</ele>
                <time>1970-01-01T04:45:40Z</time>
            </trkpt>
            <trkpt lon="101.398844" lat="14.192142">
                <ele>26.900000</ele>
                <time>1970-01-01T04:45:41Z</time>
            </trkpt>
            <trkpt lon="101.398818" lat="14.192179">
                <ele>27.700000</ele>
                <time>1970-01-01T04:45:42Z</time>
            </trkpt>
            <trkpt lon="101.398797" lat="14.192223">
                <ele>27.900000</ele>
                <time>1970-01-01T04:45:43Z</time>
            </trkpt>
            <trkpt lon="101.398777" lat="14.192263">
                <ele>28.800000</ele>
                <time>1970-01-01T04:45:44Z</time>
            </trkpt>
            <trkpt lon="101.398757" lat="14.192301">
                <ele>28.800000</ele>
                <time>1970-01-01T04:45:45Z</time>
            </trkpt>
            <trkpt lon="101.398736" lat="14.192346">
                <ele>29.600000</ele>
                <time>1970-01-01T04:45:46Z</time>
            </trkpt>
            <trkpt lon="101.398719" lat="14.192388">
                <ele>29.500000</ele>
                <time>1970-01-01T04:45:47Z</time>
            </trkpt>
            <trkpt lon="101.398702" lat="14.192433">
                <ele>29.300000</ele>
                <time>1970-01-01T04:45:48Z</time>
            </trkpt>
            <trkpt lon="101.398687" lat="14.192475">
                <ele>29.900000</ele>
                <time>1970-01-01T04:45:49Z</time>
            </trkpt>
            <trkpt lon="101.398676" lat="14.192525">
                <ele>29.600000</ele>
                <time>1970-01-01T04:45:50Z</time>
            </trkpt>
            <trkpt lon="101.398657" lat="14.192570">
                <ele>30.100000</ele>
                <time>1970-01-01T04:45:51Z</time>
            </trkpt>
            <trkpt lon="101.398637" lat="14.192614">
                <ele>29.800000</ele>
                <time>1970-01-01T04:45:52Z</time>
            </trkpt>
            <trkpt lon="101.398633" lat="14.192656">
                <ele>29.500000</ele>
                <time>1970-01-01T04:45:53Z</time>
            </trkpt>
            <trkpt lon="101.398621" lat="14.192691">
                <ele>29.300000</ele>
                <time>1970-01-01T04:45:54Z</time>
            </trkpt>
            <trkpt lon="101.398605" lat="14.192734">
                <ele>29.800000</ele>
                <time>1970-01-01T04:45:55Z</time>
            </trkpt>
            <trkpt lon="101.398592" lat="14.192777">
                <ele>29.400000</ele>
                <time>1970-01-01T04:45:56Z</time>
            </trkpt>
            <trkpt lon="101.398549" lat="14.192819">
                <ele>29.600000</ele>
                <time>1970-01-01T04:45:57Z</time>
            </trkpt>
            <trkpt lon="101.398523" lat="14.192867">
                <ele>29.900000</ele>
                <time>1970-01-01T04:45:58Z</time>
            </trkpt>
            <trkpt lon="101.398498" lat="14.192902">
                <ele>29.400000</ele>
                <time>1970-01-01T04:45:59Z</time>
            </trkpt>
            <trkpt lon="101.398465" lat="14.192934">
                <ele>29.800000</ele>
                <time>1970-01-01T04:46:00Z</time>
            </trkpt>
            <trkpt lon="101.398423" lat="14.192963">
                <ele>30.100000</ele>
                <time>1970-01-01T04:46:01Z</time>
            </trkpt>
            <trkpt lon="101.398381" lat="14.192985">
                <ele>30.600000</ele>
                <time>1970-01-01T04:46:02Z</time>
            </trkpt>
            <trkpt lon="101.398339" lat="14.192999">
                <ele>30.800000</ele>
                <time>1970-01-01T04:46:03Z</time>
            </trkpt>
            <trkpt lon="101.398299" lat="14.193020">
                <ele>30.600000</ele>
                <time>1970-01-01T04:46:04Z</time>
            </trkpt>
            <trkpt lon="101.398246" lat="14.193019">
                <ele>30.600000</ele>
                <time>1970-01-01T04:46:05Z</time>
            </trkpt>
            <trkpt lon="101.398202" lat="14.193019">
                <ele>30.500000</ele>
                <time>1970-01-01T04:46:06Z</time>
            </trkpt>
            <trkpt lon="101.398151" lat="14.192992">
                <ele>30.600000</ele>
                <time>1970-01-01T04:46:07Z</time>
            </trkpt>
            <trkpt lon="101.398100" lat="14.192983">
                <ele>30.000000</ele>
                <time>1970-01-01T04:46:08Z</time>
            </trkpt>
            <trkpt lon="101.398051" lat="14.192975">
                <ele>29.600000</ele>
                <time>1970-01-01T04:46:09Z</time>
            </trkpt>
            <trkpt lon="101.397997" lat="14.192976">
                <ele>29.100000</ele>
                <time>1970-01-01T04:46:10Z</time>
            </trkpt>
            <trkpt lon="101.397949" lat="14.192992">
                <ele>28.500000</ele>
                <time>1970-01-01T04:46:11Z</time>
            </trkpt>
            <trkpt lon="101.397904" lat="14.193010">
                <ele>28.100000</ele>
                <time>1970-01-01T04:46:12Z</time>
            </trkpt>
            <trkpt lon="101.397853" lat="14.193032">
                <ele>27.900000</ele>
                <time>1970-01-01T04:46:13Z</time>
            </trkpt>
            <trkpt lon="101.397802" lat="14.193045">
                <ele>28.000000</ele>
                <time>1970-01-01T04:46:14Z</time>
            </trkpt>
            <trkpt lon="101.397751" lat="14.193056">
                <ele>28.100000</ele>
                <time>1970-01-01T04:46:15Z</time>
            </trkpt>
            <trkpt lon="101.397704" lat="14.193065">
                <ele>28.000000</ele>
                <time>1970-01-01T04:46:16Z</time>
            </trkpt>
            <trkpt lon="101.397649" lat="14.193084">
                <ele>27.700000</ele>
                <time>1970-01-01T04:46:17Z</time>
            </trkpt>
            <trkpt lon="101.397600" lat="14.193104">
                <ele>27.300000</ele>
                <time>1970-01-01T04:46:18Z</time>
            </trkpt>
            <trkpt lon="101.397557" lat="14.193123">
                <ele>27.000000</ele>
                <time>1970-01-01T04:46:19Z</time>
            </trkpt>
            <trkpt lon="101.397518" lat="14.193153">
                <ele>26.600000</ele>
                <time>1970-01-01T04:46:20Z</time>
            </trkpt>
            <trkpt lon="101.397492" lat="14.193188">
                <ele>26.200000</ele>
                <time>1970-01-01T04:46:21Z</time>
            </trkpt>
            <trkpt lon="101.397470" lat="14.193225">
                <ele>25.900000</ele>
                <time>1970-01-01T04:46:22Z</time>
            </trkpt>
            <trkpt lon="101.397456" lat="14.193254">
                <ele>25.700000</ele>
                <time>1970-01-01T04:46:23Z</time>
            </trkpt>
            <trkpt lon="101.397454" lat="14.193285">
                <ele>25.700000</ele>
                <time>1970-01-01T04:46:24Z</time>
            </trkpt>
            <trkpt lon="101.397467" lat="14.193322">
                <ele>25.600000</ele>
                <time>1970-01-01T04:46:26Z</time>
            </trkpt>
            <trkpt lon="101.397504" lat="14.193358">
                <ele>25.800000</ele>
                <time>1970-01-01T04:46:28Z</time>
            </trkpt>
            <trkpt lon="101.397517" lat="14.193393">
                <ele>25.800000</ele>
                <time>1970-01-01T04:46:30Z</time>
            </trkpt>
            <trkpt lon="101.397530" lat="14.193423">
                <ele>25.900000</ele>
                <time>1970-01-01T04:46:32Z</time>
            </trkpt>
            <trkpt lon="101.397525" lat="14.193459">
                <ele>25.900000</ele>
                <time>1970-01-01T04:46:34Z</time>
            </trkpt>
            <trkpt lon="101.397508" lat="14.193483">
                <ele>25.900000</ele>
                <time>1970-01-01T04:46:35Z</time>
            </trkpt>
            <trkpt lon="101.397481" lat="14.193504">
                <ele>25.600000</ele>
                <time>1970-01-01T04:46:36Z</time>
            </trkpt>
            <trkpt lon="101.397447" lat="14.193525">
                <ele>25.400000</ele>
                <time>1970-01-01T04:46:37Z</time>
            </trkpt>
            <trkpt lon="101.397408" lat="14.193546">
                <ele>25.200000</ele>
                <time>1970-01-01T04:46:38Z</time>
            </trkpt>
            <trkpt lon="101.397367" lat="14.193565">
                <ele>24.900000</ele>
                <time>1970-01-01T04:46:39Z</time>
            </trkpt>
            <trkpt lon="101.397324" lat="14.193583">
                <ele>24.300000</ele>
                <time>1970-01-01T04:46:40Z</time>
            </trkpt>
            <trkpt lon="101.397281" lat="14.193596">
                <ele>23.700000</ele>
                <time>1970-01-01T04:46:41Z</time>
            </trkpt>
            <trkpt lon="101.397237" lat="14.193608">
                <ele>23.200000</ele>
                <time>1970-01-01T04:46:42Z</time>
            </trkpt>
            <trkpt lon="101.397192" lat="14.193619">
                <ele>22.800000</ele>
                <time>1970-01-01T04:46:43Z</time>
            </trkpt>
            <trkpt lon="101.397147" lat="14.193630">
                <ele>22.500000</ele>
                <time>1970-01-01T04:46:44Z</time>
            </trkpt>
            <trkpt lon="101.397087" lat="14.193636">
                <ele>22.200000</ele>
                <time>1970-01-01T04:46:45Z</time>
            </trkpt>
            <trkpt lon="101.397043" lat="14.193650">
                <ele>22.000000</ele>
                <time>1970-01-01T04:46:46Z</time>
            </trkpt>
            <trkpt lon="101.396995" lat="14.193663">
                <ele>21.900000</ele>
                <time>1970-01-01T04:46:47Z</time>
            </trkpt>
            <trkpt lon="101.396950" lat="14.193676">
                <ele>21.800000</ele>
                <time>1970-01-01T04:46:48Z</time>
            </trkpt>
            <trkpt lon="101.396900" lat="14.193685">
                <ele>21.800000</ele>
                <time>1970-01-01T04:46:49Z</time>
            </trkpt>
            <trkpt lon="101.396860" lat="14.193704">
                <ele>21.900000</ele>
                <time>1970-01-01T04:46:50Z</time>
            </trkpt>
            <trkpt lon="101.396819" lat="14.193735">
                <ele>22.100000</ele>
                <time>1970-01-01T04:46:51Z</time>
            </trkpt>
            <trkpt lon="101.396785" lat="14.193772">
                <ele>22.400000</ele>
                <time>1970-01-01T04:46:52Z</time>
            </trkpt>
            <trkpt lon="101.396751" lat="14.193819">
                <ele>22.600000</ele>
                <time>1970-01-01T04:46:53Z</time>
            </trkpt>
            <trkpt lon="101.396721" lat="14.193866">
                <ele>22.800000</ele>
                <time>1970-01-01T04:46:54Z</time>
            </trkpt>
            <trkpt lon="101.396692" lat="14.193919">
                <ele>23.000000</ele>
                <time>1970-01-01T04:46:55Z</time>
            </trkpt>
            <trkpt lon="101.396671" lat="14.193971">
                <ele>23.500000</ele>
                <time>1970-01-01T04:46:56Z</time>
            </trkpt>
            <trkpt lon="101.396644" lat="14.194027">
                <ele>23.800000</ele>
                <time>1970-01-01T04:46:57Z</time>
            </trkpt>
            <trkpt lon="101.396617" lat="14.194080">
                <ele>24.100000</ele>
                <time>1970-01-01T04:46:58Z</time>
            </trkpt>
            <trkpt lon="101.396580" lat="14.194124">
                <ele>24.300000</ele>
                <time>1970-01-01T04:46:59Z</time>
            </trkpt>
            <trkpt lon="101.396538" lat="14.194164">
                <ele>24.200000</ele>
                <time>1970-01-01T04:47:00Z</time>
            </trkpt>
            <trkpt lon="101.396481" lat="14.194197">
                <ele>24.100000</ele>
                <time>1970-01-01T04:47:01Z</time>
            </trkpt>
            <trkpt lon="101.396429" lat="14.194226">
                <ele>23.800000</ele>
                <time>1970-01-01T04:47:02Z</time>
            </trkpt>
            <trkpt lon="101.396378" lat="14.194246">
                <ele>23.300000</ele>
                <time>1970-01-01T04:47:03Z</time>
            </trkpt>
            <trkpt lon="101.396326" lat="14.194262">
                <ele>22.900000</ele>
                <time>1970-01-01T04:47:04Z</time>
            </trkpt>
            <trkpt lon="101.396275" lat="14.194284">
                <ele>22.500000</ele>
                <time>1970-01-01T04:47:05Z</time>
            </trkpt>
            <trkpt lon="101.396227" lat="14.194305">
                <ele>22.400000</ele>
                <time>1970-01-01T04:47:06Z</time>
            </trkpt>
            <trkpt lon="101.396184" lat="14.194336">
                <ele>22.600000</ele>
                <time>1970-01-01T04:47:07Z</time>
            </trkpt>
            <trkpt lon="101.396138" lat="14.194367">
                <ele>22.600000</ele>
                <time>1970-01-01T04:47:08Z</time>
            </trkpt>
            <trkpt lon="101.396095" lat="14.194398">
                <ele>22.900000</ele>
                <time>1970-01-01T04:47:09Z</time>
            </trkpt>
            <trkpt lon="101.396056" lat="14.194430">
                <ele>23.100000</ele>
                <time>1970-01-01T04:47:10Z</time>
            </trkpt>
            <trkpt lon="101.396020" lat="14.194459">
                <ele>23.400000</ele>
                <time>1970-01-01T04:47:11Z</time>
            </trkpt>
            <trkpt lon="101.395996" lat="14.194489">
                <ele>23.400000</ele>
                <time>1970-01-01T04:47:12Z</time>
            </trkpt>
            <trkpt lon="101.395986" lat="14.194516">
                <ele>23.700000</ele>
                <time>1970-01-01T04:47:13Z</time>
            </trkpt>
            <trkpt lon="101.395992" lat="14.194550">
                <ele>23.900000</ele>
                <time>1970-01-01T04:47:14Z</time>
            </trkpt>
            <trkpt lon="101.396010" lat="14.194581">
                <ele>24.100000</ele>
                <time>1970-01-01T04:47:15Z</time>
            </trkpt>
            <trkpt lon="101.396026" lat="14.194619">
                <ele>24.100000</ele>
                <time>1970-01-01T04:47:16Z</time>
            </trkpt>
            <trkpt lon="101.396040" lat="14.194646">
                <ele>24.100000</ele>
                <time>1970-01-01T04:47:17Z</time>
            </trkpt>
            <trkpt lon="101.396044" lat="14.194677">
                <ele>24.000000</ele>
                <time>1970-01-01T04:47:18Z</time>
            </trkpt>
            <trkpt lon="101.396066" lat="14.194716">
                <ele>23.900000</ele>
                <time>1970-01-01T04:47:19Z</time>
            </trkpt>
            <trkpt lon="101.396093" lat="14.194750">
                <ele>24.000000</ele>
                <time>1970-01-01T04:47:20Z</time>
            </trkpt>
            <trkpt lon="101.396113" lat="14.194785">
                <ele>24.000000</ele>
                <time>1970-01-01T04:47:21Z</time>
            </trkpt>
            <trkpt lon="101.396131" lat="14.194823">
                <ele>24.000000</ele>
                <time>1970-01-01T04:47:22Z</time>
            </trkpt>
            <trkpt lon="101.396147" lat="14.194862">
                <ele>24.100000</ele>
                <time>1970-01-01T04:47:23Z</time>
            </trkpt>
            <trkpt lon="101.396162" lat="14.194903">
                <ele>24.100000</ele>
                <time>1970-01-01T04:47:24Z</time>
            </trkpt>
            <trkpt lon="101.396177" lat="14.194944">
                <ele>23.800000</ele>
                <time>1970-01-01T04:47:25Z</time>
            </trkpt>
            <trkpt lon="101.396194" lat="14.194983">
                <ele>23.800000</ele>
                <time>1970-01-01T04:47:26Z</time>
            </trkpt>
            <trkpt lon="101.396217" lat="14.195023">
                <ele>23.500000</ele>
                <time>1970-01-01T04:47:27Z</time>
            </trkpt>
            <trkpt lon="101.396243" lat="14.195060">
                <ele>23.600000</ele>
                <time>1970-01-01T04:47:28Z</time>
            </trkpt>
            <trkpt lon="101.396272" lat="14.195095">
                <ele>23.400000</ele>
                <time>1970-01-01T04:47:29Z</time>
            </trkpt>
            <trkpt lon="101.396302" lat="14.195129">
                <ele>23.400000</ele>
                <time>1970-01-01T04:47:30Z</time>
            </trkpt>
            <trkpt lon="101.396343" lat="14.195171">
                <ele>23.600000</ele>
                <time>1970-01-01T04:47:31Z</time>
            </trkpt>
            <trkpt lon="101.396361" lat="14.195213">
                <ele>23.900000</ele>
                <time>1970-01-01T04:47:32Z</time>
            </trkpt>
            <trkpt lon="101.396378" lat="14.195251">
                <ele>24.200000</ele>
                <time>1970-01-01T04:47:33Z</time>
            </trkpt>
            <trkpt lon="101.396393" lat="14.195294">
                <ele>24.400000</ele>
                <time>1970-01-01T04:47:34Z</time>
            </trkpt>
            <trkpt lon="101.396417" lat="14.195337">
                <ele>24.600000</ele>
                <time>1970-01-01T04:47:35Z</time>
            </trkpt>
            <trkpt lon="101.396449" lat="14.195375">
                <ele>24.400000</ele>
                <time>1970-01-01T04:47:36Z</time>
            </trkpt>
            <trkpt lon="101.396470" lat="14.195409">
                <ele>24.400000</ele>
                <time>1970-01-01T04:47:37Z</time>
            </trkpt>
            <trkpt lon="101.396498" lat="14.195445">
                <ele>24.200000</ele>
                <time>1970-01-01T04:47:38Z</time>
            </trkpt>
            <trkpt lon="101.396515" lat="14.195477">
                <ele>24.200000</ele>
                <time>1970-01-01T04:47:39Z</time>
            </trkpt>
            <trkpt lon="101.396537" lat="14.195508">
                <ele>24.500000</ele>
                <time>1970-01-01T04:47:40Z</time>
            </trkpt>
            <trkpt lon="101.396554" lat="14.195539">
                <ele>24.900000</ele>
                <time>1970-01-01T04:47:41Z</time>
            </trkpt>
            <trkpt lon="101.396579" lat="14.195570">
                <ele>25.000000</ele>
                <time>1970-01-01T04:47:42Z</time>
            </trkpt>
            <trkpt lon="101.396603" lat="14.195597">
                <ele>25.300000</ele>
                <time>1970-01-01T04:47:43Z</time>
            </trkpt>
            <trkpt lon="101.396624" lat="14.195629">
                <ele>25.700000</ele>
                <time>1970-01-01T04:47:44Z</time>
            </trkpt>
            <trkpt lon="101.396644" lat="14.195659">
                <ele>25.600000</ele>
                <time>1970-01-01T04:47:45Z</time>
            </trkpt>
            <trkpt lon="101.396665" lat="14.195691">
                <ele>25.900000</ele>
                <time>1970-01-01T04:47:46Z</time>
            </trkpt>
            <trkpt lon="101.396685" lat="14.195724">
                <ele>25.800000</ele>
                <time>1970-01-01T04:47:47Z</time>
            </trkpt>
            <trkpt lon="101.396704" lat="14.195754">
                <ele>25.900000</ele>
                <time>1970-01-01T04:47:48Z</time>
            </trkpt>
            <trkpt lon="101.396725" lat="14.195784">
                <ele>25.900000</ele>
                <time>1970-01-01T04:47:49Z</time>
            </trkpt>
            <trkpt lon="101.396746" lat="14.195814">
                <ele>25.500000</ele>
                <time>1970-01-01T04:47:50Z</time>
            </trkpt>
            <trkpt lon="101.396766" lat="14.195841">
                <ele>25.600000</ele>
                <time>1970-01-01T04:47:51Z</time>
            </trkpt>
            <trkpt lon="101.396785" lat="14.195869">
                <ele>25.200000</ele>
                <time>1970-01-01T04:47:52Z</time>
            </trkpt>
            <trkpt lon="101.396806" lat="14.195899">
                <ele>25.300000</ele>
                <time>1970-01-01T04:47:53Z</time>
            </trkpt>
            <trkpt lon="101.396827" lat="14.195929">
                <ele>25.300000</ele>
                <time>1970-01-01T04:47:54Z</time>
            </trkpt>
            <trkpt lon="101.396846" lat="14.195962">
                <ele>25.600000</ele>
                <time>1970-01-01T04:47:55Z</time>
            </trkpt>
            <trkpt lon="101.396863" lat="14.195998">
                <ele>25.600000</ele>
                <time>1970-01-01T04:47:56Z</time>
            </trkpt>
            <trkpt lon="101.396881" lat="14.196033">
                <ele>25.600000</ele>
                <time>1970-01-01T04:47:57Z</time>
            </trkpt>
            <trkpt lon="101.396898" lat="14.196067">
                <ele>25.800000</ele>
                <time>1970-01-01T04:47:58Z</time>
            </trkpt>
            <trkpt lon="101.396916" lat="14.196100">
                <ele>25.800000</ele>
                <time>1970-01-01T04:47:59Z</time>
            </trkpt>
            <trkpt lon="101.396934" lat="14.196133">
                <ele>25.900000</ele>
                <time>1970-01-01T04:48:00Z</time>
            </trkpt>
            <trkpt lon="101.396954" lat="14.196167">
                <ele>25.900000</ele>
                <time>1970-01-01T04:48:01Z</time>
            </trkpt>
            <trkpt lon="101.396979" lat="14.196198">
                <ele>25.900000</ele>
                <time>1970-01-01T04:48:02Z</time>
            </trkpt>
            <trkpt lon="101.397007" lat="14.196230">
                <ele>26.000000</ele>
                <time>1970-01-01T04:48:03Z</time>
            </trkpt>
            <trkpt lon="101.397035" lat="14.196261">
                <ele>26.100000</ele>
                <time>1970-01-01T04:48:04Z</time>
            </trkpt>
            <trkpt lon="101.397060" lat="14.196295">
                <ele>26.100000</ele>
                <time>1970-01-01T04:48:05Z</time>
            </trkpt>
            <trkpt lon="101.397083" lat="14.196331">
                <ele>26.200000</ele>
                <time>1970-01-01T04:48:06Z</time>
            </trkpt>
            <trkpt lon="101.397105" lat="14.196365">
                <ele>26.200000</ele>
                <time>1970-01-01T04:48:07Z</time>
            </trkpt>
            <trkpt lon="101.397124" lat="14.196398">
                <ele>26.100000</ele>
                <time>1970-01-01T04:48:08Z</time>
            </trkpt>
            <trkpt lon="101.397138" lat="14.196426">
                <ele>26.100000</ele>
                <time>1970-01-01T04:48:09Z</time>
            </trkpt>
            <trkpt lon="101.397141" lat="14.196469">
                <ele>26.100000</ele>
                <time>1970-01-01T04:48:11Z</time>
            </trkpt>
            <trkpt lon="101.397105" lat="14.196476">
                <ele>26.100000</ele>
                <time>1970-01-01T04:48:14Z</time>
            </trkpt>
            <trkpt lon="101.397099" lat="14.196445">
                <ele>26.100000</ele>
                <time>1970-01-01T04:48:16Z</time>
            </trkpt>
            <trkpt lon="101.397137" lat="14.196436">
                <ele>26.100000</ele>
                <time>1970-01-01T04:48:18Z</time>
            </trkpt>
            <trkpt lon="101.397167" lat="14.196471">
                <ele>26.000000</ele>
                <time>1970-01-01T04:48:20Z</time>
            </trkpt>
            <trkpt lon="101.397169" lat="14.196518">
                <ele>26.000000</ele>
                <time>1970-01-01T04:48:22Z</time>
            </trkpt>
            <trkpt lon="101.397167" lat="14.196555">
                <ele>26.000000</ele>
                <time>1970-01-01T04:48:25Z</time>
            </trkpt>
            <trkpt lon="101.397156" lat="14.196581">
                <ele>26.100000</ele>
                <time>1970-01-01T04:48:40Z</time>
            </trkpt>
            <trkpt lon="101.397165" lat="14.196608">
                <ele>26.100000</ele>
                <time>1970-01-01T04:48:47Z</time>
            </trkpt>
            <trkpt lon="101.397173" lat="14.196635">
                <ele>26.100000</ele>
                <time>1970-01-01T04:48:51Z</time>
            </trkpt>
            <trkpt lon="101.397187" lat="14.196664">
                <ele>26.100000</ele>
                <time>1970-01-01T04:48:56Z</time>
            </trkpt>
            <trkpt lon="101.397212" lat="14.196695">
                <ele>26.200000</ele>
                <time>1970-01-01T04:48:58Z</time>
            </trkpt>
            <trkpt lon="101.397249" lat="14.196734">
                <ele>26.200000</ele>
                <time>1970-01-01T04:49:00Z</time>
            </trkpt>
            <trkpt lon="101.397269" lat="14.196754">
                <ele>26.100000</ele>
                <time>1970-01-01T04:49:01Z</time>
            </trkpt>
            <trkpt lon="101.397288" lat="14.196775">
                <ele>26.100000</ele>
                <time>1970-01-01T04:49:02Z</time>
            </trkpt>
            <trkpt lon="101.397308" lat="14.196798">
                <ele>26.100000</ele>
                <time>1970-01-01T04:49:03Z</time>
            </trkpt>
            <trkpt lon="101.397328" lat="14.196822">
                <ele>26.100000</ele>
                <time>1970-01-01T04:49:04Z</time>
            </trkpt>
            <trkpt lon="101.397346" lat="14.196846">
                <ele>26.100000</ele>
                <time>1970-01-01T04:49:05Z</time>
            </trkpt>
            <trkpt lon="101.397363" lat="14.196872">
                <ele>26.100000</ele>
                <time>1970-01-01T04:49:06Z</time>
            </trkpt>
            <trkpt lon="101.397382" lat="14.196898">
                <ele>26.200000</ele>
                <time>1970-01-01T04:49:07Z</time>
            </trkpt>
            <trkpt lon="101.397406" lat="14.196925">
                <ele>26.100000</ele>
                <time>1970-01-01T04:49:08Z</time>
            </trkpt>
            <trkpt lon="101.397430" lat="14.196945">
                <ele>26.100000</ele>
                <time>1970-01-01T04:49:09Z</time>
            </trkpt>
            <trkpt lon="101.397452" lat="14.196966">
                <ele>25.900000</ele>
                <time>1970-01-01T04:49:10Z</time>
            </trkpt>
            <trkpt lon="101.397468" lat="14.196997">
                <ele>25.800000</ele>
                <time>1970-01-01T04:49:11Z</time>
            </trkpt>
            <trkpt lon="101.397489" lat="14.197038">
                <ele>25.700000</ele>
                <time>1970-01-01T04:49:12Z</time>
            </trkpt>
            <trkpt lon="101.397515" lat="14.197075">
                <ele>25.900000</ele>
                <time>1970-01-01T04:49:13Z</time>
            </trkpt>
            <trkpt lon="101.397530" lat="14.197109">
                <ele>25.900000</ele>
                <time>1970-01-01T04:49:14Z</time>
            </trkpt>
            <trkpt lon="101.397549" lat="14.197140">
                <ele>26.200000</ele>
                <time>1970-01-01T04:49:15Z</time>
            </trkpt>
            <trkpt lon="101.397572" lat="14.197174">
                <ele>26.200000</ele>
                <time>1970-01-01T04:49:16Z</time>
            </trkpt>
            <trkpt lon="101.397591" lat="14.197199">
                <ele>26.500000</ele>
                <time>1970-01-01T04:49:17Z</time>
            </trkpt>
            <trkpt lon="101.397613" lat="14.197236">
                <ele>26.500000</ele>
                <time>1970-01-01T04:49:18Z</time>
            </trkpt>
            <trkpt lon="101.397631" lat="14.197260">
                <ele>26.700000</ele>
                <time>1970-01-01T04:49:19Z</time>
            </trkpt>
            <trkpt lon="101.397647" lat="14.197287">
                <ele>26.700000</ele>
                <time>1970-01-01T04:49:20Z</time>
            </trkpt>
            <trkpt lon="101.397661" lat="14.197316">
                <ele>26.700000</ele>
                <time>1970-01-01T04:49:21Z</time>
            </trkpt>
            <trkpt lon="101.397674" lat="14.197347">
                <ele>27.000000</ele>
                <time>1970-01-01T04:49:22Z</time>
            </trkpt>
            <trkpt lon="101.397681" lat="14.197380">
                <ele>27.000000</ele>
                <time>1970-01-01T04:49:23Z</time>
            </trkpt>
            <trkpt lon="101.397680" lat="14.197415">
                <ele>27.000000</ele>
                <time>1970-01-01T04:49:24Z</time>
            </trkpt>
            <trkpt lon="101.397679" lat="14.197452">
                <ele>27.000000</ele>
                <time>1970-01-01T04:49:25Z</time>
            </trkpt>
            <trkpt lon="101.397683" lat="14.197489">
                <ele>27.000000</ele>
                <time>1970-01-01T04:49:26Z</time>
            </trkpt>
            <trkpt lon="101.397691" lat="14.197522">
                <ele>27.000000</ele>
                <time>1970-01-01T04:49:27Z</time>
            </trkpt>
            <trkpt lon="101.397700" lat="14.197557">
                <ele>26.900000</ele>
                <time>1970-01-01T04:49:28Z</time>
            </trkpt>
            <trkpt lon="101.397706" lat="14.197591">
                <ele>26.900000</ele>
                <time>1970-01-01T04:49:29Z</time>
            </trkpt>
            <trkpt lon="101.397706" lat="14.197620">
                <ele>26.900000</ele>
                <time>1970-01-01T04:49:30Z</time>
            </trkpt>
            <trkpt lon="101.397683" lat="14.197652">
                <ele>26.900000</ele>
                <time>1970-01-01T04:49:32Z</time>
            </trkpt>
            <trkpt lon="101.397647" lat="14.197676">
                <ele>26.300000</ele>
                <time>1970-01-01T04:49:34Z</time>
            </trkpt>
            <trkpt lon="101.397622" lat="14.197711">
                <ele>25.300000</ele>
                <time>1970-01-01T04:49:36Z</time>
            </trkpt>
            <trkpt lon="101.397614" lat="14.197757">
                <ele>25.200000</ele>
                <time>1970-01-01T04:49:38Z</time>
            </trkpt>
            <trkpt lon="101.397621" lat="14.197799">
                <ele>25.200000</ele>
                <time>1970-01-01T04:49:40Z</time>
            </trkpt>
            <trkpt lon="101.397623" lat="14.197841">
                <ele>25.200000</ele>
                <time>1970-01-01T04:49:42Z</time>
            </trkpt>
            <trkpt lon="101.397618" lat="14.197880">
                <ele>25.200000</ele>
                <time>1970-01-01T04:49:44Z</time>
            </trkpt>
            <trkpt lon="101.397611" lat="14.197926">
                <ele>25.400000</ele>
                <time>1970-01-01T04:49:46Z</time>
            </trkpt>
            <trkpt lon="101.397607" lat="14.197975">
                <ele>25.500000</ele>
                <time>1970-01-01T04:49:48Z</time>
            </trkpt>
            <trkpt lon="101.397603" lat="14.198003">
                <ele>25.700000</ele>
                <time>1970-01-01T04:49:49Z</time>
            </trkpt>
            <trkpt lon="101.397594" lat="14.198049">
                <ele>25.800000</ele>
                <time>1970-01-01T04:49:51Z</time>
            </trkpt>
            <trkpt lon="101.397581" lat="14.198095">
                <ele>26.000000</ele>
                <time>1970-01-01T04:49:53Z</time>
            </trkpt>
            <trkpt lon="101.397560" lat="14.198134">
                <ele>26.200000</ele>
                <time>1970-01-01T04:49:55Z</time>
            </trkpt>
            <trkpt lon="101.397543" lat="14.198170">
                <ele>26.400000</ele>
                <time>1970-01-01T04:49:57Z</time>
            </trkpt>
            <trkpt lon="101.397525" lat="14.198208">
                <ele>27.000000</ele>
                <time>1970-01-01T04:49:59Z</time>
            </trkpt>
            <trkpt lon="101.397502" lat="14.198239">
                <ele>27.000000</ele>
                <time>1970-01-01T04:50:01Z</time>
            </trkpt>
            <trkpt lon="101.397468" lat="14.198268">
                <ele>27.500000</ele>
                <time>1970-01-01T04:50:03Z</time>
            </trkpt>
            <trkpt lon="101.397428" lat="14.198292">
                <ele>28.000000</ele>
                <time>1970-01-01T04:50:05Z</time>
            </trkpt>
            <trkpt lon="101.397386" lat="14.198312">
                <ele>28.100000</ele>
                <time>1970-01-01T04:50:07Z</time>
            </trkpt>
            <trkpt lon="101.397340" lat="14.198322">
                <ele>28.200000</ele>
                <time>1970-01-01T04:50:09Z</time>
            </trkpt>
            <trkpt lon="101.397294" lat="14.198331">
                <ele>28.100000</ele>
                <time>1970-01-01T04:50:11Z</time>
            </trkpt>
            <trkpt lon="101.397248" lat="14.198344">
                <ele>28.100000</ele>
                <time>1970-01-01T04:50:13Z</time>
            </trkpt>
            <trkpt lon="101.397213" lat="14.198353">
                <ele>28.000000</ele>
                <time>1970-01-01T04:50:15Z</time>
            </trkpt>
            <trkpt lon="101.397175" lat="14.198369">
                <ele>28.000000</ele>
                <time>1970-01-01T04:50:17Z</time>
            </trkpt>
            <trkpt lon="101.397136" lat="14.198382">
                <ele>28.000000</ele>
                <time>1970-01-01T04:50:19Z</time>
            </trkpt>
            <trkpt lon="101.397095" lat="14.198389">
                <ele>28.000000</ele>
                <time>1970-01-01T04:50:21Z</time>
            </trkpt>
            <trkpt lon="101.397060" lat="14.198405">
                <ele>28.000000</ele>
                <time>1970-01-01T04:50:23Z</time>
            </trkpt>
            <trkpt lon="101.397041" lat="14.198435">
                <ele>28.200000</ele>
                <time>1970-01-01T04:50:25Z</time>
            </trkpt>
            <trkpt lon="101.397023" lat="14.198468">
                <ele>28.100000</ele>
                <time>1970-01-01T04:50:27Z</time>
            </trkpt>
            <trkpt lon="101.397032" lat="14.198441">
                <ele>28.200000</ele>
                <time>1970-01-01T04:50:49Z</time>
            </trkpt>
            <trkpt lon="101.397047" lat="14.198413">
                <ele>28.200000</ele>
                <time>1970-01-01T04:50:51Z</time>
            </trkpt>
            <trkpt lon="101.397074" lat="14.198391">
                <ele>28.100000</ele>
                <time>1970-01-01T04:50:53Z</time>
            </trkpt>
            <trkpt lon="101.397100" lat="14.198364">
                <ele>27.800000</ele>
                <time>1970-01-01T04:50:55Z</time>
            </trkpt>
            <trkpt lon="101.397114" lat="14.198323">
                <ele>27.800000</ele>
                <time>1970-01-01T04:50:57Z</time>
            </trkpt>
            <trkpt lon="101.397124" lat="14.198286">
                <ele>27.800000</ele>
                <time>1970-01-01T04:50:59Z</time>
            </trkpt>
            <trkpt lon="101.397132" lat="14.198253">
                <ele>27.800000</ele>
                <time>1970-01-01T04:51:01Z</time>
            </trkpt>
            <trkpt lon="101.397132" lat="14.198211">
                <ele>27.700000</ele>
                <time>1970-01-01T04:51:03Z</time>
            </trkpt>
            <trkpt lon="101.397111" lat="14.198166">
                <ele>27.400000</ele>
                <time>1970-01-01T04:51:05Z</time>
            </trkpt>
            <trkpt lon="101.397088" lat="14.198145">
                <ele>27.400000</ele>
                <time>1970-01-01T04:51:06Z</time>
            </trkpt>
            <trkpt lon="101.397061" lat="14.198128">
                <ele>27.300000</ele>
                <time>1970-01-01T04:51:07Z</time>
            </trkpt>
            <trkpt lon="101.397034" lat="14.198116">
                <ele>27.200000</ele>
                <time>1970-01-01T04:51:08Z</time>
            </trkpt>
            <trkpt lon="101.396985" lat="14.198097">
                <ele>26.500000</ele>
                <time>1970-01-01T04:51:10Z</time>
            </trkpt>
            <trkpt lon="101.396942" lat="14.198072">
                <ele>25.700000</ele>
                <time>1970-01-01T04:51:12Z</time>
            </trkpt>
            <trkpt lon="101.396896" lat="14.198040">
                <ele>25.200000</ele>
                <time>1970-01-01T04:51:14Z</time>
            </trkpt>
            <trkpt lon="101.396856" lat="14.198015">
                <ele>24.400000</ele>
                <time>1970-01-01T04:51:16Z</time>
            </trkpt>
            <trkpt lon="101.396812" lat="14.198002">
                <ele>24.200000</ele>
                <time>1970-01-01T04:51:18Z</time>
            </trkpt>
            <trkpt lon="101.396759" lat="14.197998">
                <ele>24.100000</ele>
                <time>1970-01-01T04:51:20Z</time>
            </trkpt>
            <trkpt lon="101.396713" lat="14.198006">
                <ele>24.100000</ele>
                <time>1970-01-01T04:51:22Z</time>
            </trkpt>
            <trkpt lon="101.396680" lat="14.198026">
                <ele>24.100000</ele>
                <time>1970-01-01T04:51:24Z</time>
            </trkpt>
            <trkpt lon="101.396654" lat="14.198048">
                <ele>24.100000</ele>
                <time>1970-01-01T04:51:26Z</time>
            </trkpt>
            <trkpt lon="101.396619" lat="14.198041">
                <ele>24.100000</ele>
                <time>1970-01-01T04:51:28Z</time>
            </trkpt>
            <trkpt lon="101.396601" lat="14.198000">
                <ele>24.200000</ele>
                <time>1970-01-01T04:51:30Z</time>
            </trkpt>
            <trkpt lon="101.396600" lat="14.197972">
                <ele>24.200000</ele>
                <time>1970-01-01T04:51:31Z</time>
            </trkpt>
            <trkpt lon="101.396601" lat="14.197940">
                <ele>24.100000</ele>
                <time>1970-01-01T04:51:32Z</time>
            </trkpt>
            <trkpt lon="101.396603" lat="14.197910">
                <ele>24.100000</ele>
                <time>1970-01-01T04:51:33Z</time>
            </trkpt>
            <trkpt lon="101.396604" lat="14.197883">
                <ele>24.000000</ele>
                <time>1970-01-01T04:51:34Z</time>
            </trkpt>
            <trkpt lon="101.396602" lat="14.197855">
                <ele>23.700000</ele>
                <time>1970-01-01T04:51:35Z</time>
            </trkpt>
            <trkpt lon="101.396585" lat="14.197809">
                <ele>23.300000</ele>
                <time>1970-01-01T04:51:37Z</time>
            </trkpt>
            <trkpt lon="101.396563" lat="14.197763">
                <ele>23.000000</ele>
                <time>1970-01-01T04:51:39Z</time>
            </trkpt>
            <trkpt lon="101.396547" lat="14.197721">
                <ele>22.900000</ele>
                <time>1970-01-01T04:51:41Z</time>
            </trkpt>
            <trkpt lon="101.396532" lat="14.197691">
                <ele>22.900000</ele>
                <time>1970-01-01T04:51:43Z</time>
            </trkpt>
            <trkpt lon="101.396506" lat="14.197677">
                <ele>23.000000</ele>
                <time>1970-01-01T04:51:45Z</time>
            </trkpt>
            <trkpt lon="101.396478" lat="14.197669">
                <ele>23.000000</ele>
                <time>1970-01-01T04:51:47Z</time>
            </trkpt>
            <trkpt lon="101.396495" lat="14.197646">
                <ele>23.000000</ele>
                <time>1970-01-01T04:52:30Z</time>
            </trkpt>
            <trkpt lon="101.396496" lat="14.197615">
                <ele>23.100000</ele>
                <time>1970-01-01T04:52:40Z</time>
            </trkpt>
            <trkpt lon="101.396510" lat="14.197588">
                <ele>23.100000</ele>
                <time>1970-01-01T04:52:44Z</time>
            </trkpt>
            <trkpt lon="101.396505" lat="14.197556">
                <ele>23.100000</ele>
                <time>1970-01-01T04:52:47Z</time>
            </trkpt>
            <trkpt lon="101.396496" lat="14.197520">
                <ele>23.100000</ele>
                <time>1970-01-01T04:52:51Z</time>
            </trkpt>
            <trkpt lon="101.396492" lat="14.197481">
                <ele>23.100000</ele>
                <time>1970-01-01T04:52:53Z</time>
            </trkpt>
            <trkpt lon="101.396464" lat="14.197466">
                <ele>23.100000</ele>
                <time>1970-01-01T04:54:41Z</time>
            </trkpt>
            <trkpt lon="101.396431" lat="14.197472">
                <ele>23.100000</ele>
                <time>1970-01-01T04:54:48Z</time>
            </trkpt>
            <trkpt lon="101.396396" lat="14.197475">
                <ele>23.100000</ele>
                <time>1970-01-01T04:54:50Z</time>
            </trkpt>
            <trkpt lon="101.396362" lat="14.197476">
                <ele>23.000000</ele>
                <time>1970-01-01T04:54:52Z</time>
            </trkpt>
            <trkpt lon="101.396328" lat="14.197473">
                <ele>23.000000</ele>
                <time>1970-01-01T04:54:54Z</time>
            </trkpt>
            <trkpt lon="101.396288" lat="14.197477">
                <ele>23.000000</ele>
                <time>1970-01-01T04:54:56Z</time>
            </trkpt>
            <trkpt lon="101.396251" lat="14.197498">
                <ele>23.200000</ele>
                <time>1970-01-01T04:54:58Z</time>
            </trkpt>
            <trkpt lon="101.396217" lat="14.197518">
                <ele>23.200000</ele>
                <time>1970-01-01T04:55:00Z</time>
            </trkpt>
            <trkpt lon="101.396175" lat="14.197517">
                <ele>23.400000</ele>
                <time>1970-01-01T04:55:02Z</time>
            </trkpt>
            <trkpt lon="101.396125" lat="14.197517">
                <ele>24.100000</ele>
                <time>1970-01-01T04:55:04Z</time>
            </trkpt>
            <trkpt lon="101.396069" lat="14.197518">
                <ele>24.500000</ele>
                <time>1970-01-01T04:55:06Z</time>
            </trkpt>
            <trkpt lon="101.396037" lat="14.197521">
                <ele>24.800000</ele>
                <time>1970-01-01T04:55:07Z</time>
            </trkpt>
            <trkpt lon="101.396006" lat="14.197525">
                <ele>24.800000</ele>
                <time>1970-01-01T04:55:08Z</time>
            </trkpt>
            <trkpt lon="101.395975" lat="14.197530">
                <ele>24.800000</ele>
                <time>1970-01-01T04:55:09Z</time>
            </trkpt>
            <trkpt lon="101.395942" lat="14.197535">
                <ele>24.800000</ele>
                <time>1970-01-01T04:55:10Z</time>
            </trkpt>
            <trkpt lon="101.395908" lat="14.197539">
                <ele>24.400000</ele>
                <time>1970-01-01T04:55:11Z</time>
            </trkpt>
            <trkpt lon="101.395872" lat="14.197543">
                <ele>24.400000</ele>
                <time>1970-01-01T04:55:12Z</time>
            </trkpt>
            <trkpt lon="101.395839" lat="14.197546">
                <ele>24.100000</ele>
                <time>1970-01-01T04:55:13Z</time>
            </trkpt>
            <trkpt lon="101.395807" lat="14.197550">
                <ele>23.800000</ele>
                <time>1970-01-01T04:55:14Z</time>
            </trkpt>
            <trkpt lon="101.395774" lat="14.197552">
                <ele>23.800000</ele>
                <time>1970-01-01T04:55:15Z</time>
            </trkpt>
            <trkpt lon="101.395739" lat="14.197550">
                <ele>23.800000</ele>
                <time>1970-01-01T04:55:16Z</time>
            </trkpt>
            <trkpt lon="101.395702" lat="14.197540">
                <ele>23.800000</ele>
                <time>1970-01-01T04:55:17Z</time>
            </trkpt>
            <trkpt lon="101.395663" lat="14.197524">
                <ele>23.600000</ele>
                <time>1970-01-01T04:55:18Z</time>
            </trkpt>
            <trkpt lon="101.395632" lat="14.197479">
                <ele>23.300000</ele>
                <time>1970-01-01T04:55:19Z</time>
            </trkpt>
            <trkpt lon="101.395605" lat="14.197446">
                <ele>23.000000</ele>
                <time>1970-01-01T04:55:20Z</time>
            </trkpt>
            <trkpt lon="101.395581" lat="14.197412">
                <ele>23.000000</ele>
                <time>1970-01-01T04:55:21Z</time>
            </trkpt>
            <trkpt lon="101.395570" lat="14.197377">
                <ele>22.800000</ele>
                <time>1970-01-01T04:55:22Z</time>
            </trkpt>
            <trkpt lon="101.395563" lat="14.197340">
                <ele>22.700000</ele>
                <time>1970-01-01T04:55:23Z</time>
            </trkpt>
            <trkpt lon="101.395561" lat="14.197304">
                <ele>22.700000</ele>
                <time>1970-01-01T04:55:24Z</time>
            </trkpt>
            <trkpt lon="101.395555" lat="14.197265">
                <ele>22.900000</ele>
                <time>1970-01-01T04:55:25Z</time>
            </trkpt>
            <trkpt lon="101.395549" lat="14.197229">
                <ele>23.100000</ele>
                <time>1970-01-01T04:55:26Z</time>
            </trkpt>
            <trkpt lon="101.395540" lat="14.197194">
                <ele>23.400000</ele>
                <time>1970-01-01T04:55:27Z</time>
            </trkpt>
            <trkpt lon="101.395528" lat="14.197153">
                <ele>23.700000</ele>
                <time>1970-01-01T04:55:28Z</time>
            </trkpt>
            <trkpt lon="101.395520" lat="14.197110">
                <ele>24.000000</ele>
                <time>1970-01-01T04:55:29Z</time>
            </trkpt>
            <trkpt lon="101.395514" lat="14.197071">
                <ele>24.300000</ele>
                <time>1970-01-01T04:55:30Z</time>
            </trkpt>
            <trkpt lon="101.395508" lat="14.197032">
                <ele>24.600000</ele>
                <time>1970-01-01T04:55:31Z</time>
            </trkpt>
            <trkpt lon="101.395500" lat="14.196992">
                <ele>24.900000</ele>
                <time>1970-01-01T04:55:32Z</time>
            </trkpt>
            <trkpt lon="101.395491" lat="14.196951">
                <ele>25.100000</ele>
                <time>1970-01-01T04:55:33Z</time>
            </trkpt>
            <trkpt lon="101.395476" lat="14.196912">
                <ele>24.900000</ele>
                <time>1970-01-01T04:55:34Z</time>
            </trkpt>
            <trkpt lon="101.395460" lat="14.196874">
                <ele>25.100000</ele>
                <time>1970-01-01T04:55:35Z</time>
            </trkpt>
            <trkpt lon="101.395442" lat="14.196835">
                <ele>25.100000</ele>
                <time>1970-01-01T04:55:36Z</time>
            </trkpt>
            <trkpt lon="101.395426" lat="14.196797">
                <ele>25.100000</ele>
                <time>1970-01-01T04:55:37Z</time>
            </trkpt>
            <trkpt lon="101.395413" lat="14.196758">
                <ele>25.200000</ele>
                <time>1970-01-01T04:55:38Z</time>
            </trkpt>
            <trkpt lon="101.395399" lat="14.196720">
                <ele>25.100000</ele>
                <time>1970-01-01T04:55:39Z</time>
            </trkpt>
            <trkpt lon="101.395383" lat="14.196684">
                <ele>25.100000</ele>
                <time>1970-01-01T04:55:40Z</time>
            </trkpt>
            <trkpt lon="101.395363" lat="14.196649">
                <ele>25.000000</ele>
                <time>1970-01-01T04:55:41Z</time>
            </trkpt>
            <trkpt lon="101.395342" lat="14.196611">
                <ele>25.000000</ele>
                <time>1970-01-01T04:55:42Z</time>
            </trkpt>
            <trkpt lon="101.395325" lat="14.196572">
                <ele>25.100000</ele>
                <time>1970-01-01T04:55:43Z</time>
            </trkpt>
            <trkpt lon="101.395319" lat="14.196535">
                <ele>25.400000</ele>
                <time>1970-01-01T04:55:44Z</time>
            </trkpt>
            <trkpt lon="101.395326" lat="14.196503">
                <ele>25.400000</ele>
                <time>1970-01-01T04:55:45Z</time>
            </trkpt>
            <trkpt lon="101.395347" lat="14.196479">
                <ele>25.700000</ele>
                <time>1970-01-01T04:55:46Z</time>
            </trkpt>
            <trkpt lon="101.395379" lat="14.196459">
                <ele>25.700000</ele>
                <time>1970-01-01T04:55:47Z</time>
            </trkpt>
            <trkpt lon="101.395415" lat="14.196440">
                <ele>26.000000</ele>
                <time>1970-01-01T04:55:48Z</time>
            </trkpt>
            <trkpt lon="101.395441" lat="14.196416">
                <ele>26.000000</ele>
                <time>1970-01-01T04:55:49Z</time>
            </trkpt>
            <trkpt lon="101.395456" lat="14.196383">
                <ele>26.100000</ele>
                <time>1970-01-01T04:55:50Z</time>
            </trkpt>
            <trkpt lon="101.395457" lat="14.196344">
                <ele>26.200000</ele>
                <time>1970-01-01T04:55:51Z</time>
            </trkpt>
            <trkpt lon="101.395452" lat="14.196303">
                <ele>26.100000</ele>
                <time>1970-01-01T04:55:52Z</time>
            </trkpt>
            <trkpt lon="101.395445" lat="14.196262">
                <ele>26.100000</ele>
                <time>1970-01-01T04:55:53Z</time>
            </trkpt>
            <trkpt lon="101.395442" lat="14.196220">
                <ele>26.000000</ele>
                <time>1970-01-01T04:55:54Z</time>
            </trkpt>
            <trkpt lon="101.395441" lat="14.196178">
                <ele>26.000000</ele>
                <time>1970-01-01T04:55:55Z</time>
            </trkpt>
            <trkpt lon="101.395439" lat="14.196136">
                <ele>26.000000</ele>
                <time>1970-01-01T04:55:56Z</time>
            </trkpt>
            <trkpt lon="101.395433" lat="14.196094">
                <ele>26.000000</ele>
                <time>1970-01-01T04:55:57Z</time>
            </trkpt>
            <trkpt lon="101.395427" lat="14.196051">
                <ele>26.100000</ele>
                <time>1970-01-01T04:55:58Z</time>
            </trkpt>
            <trkpt lon="101.395424" lat="14.196007">
                <ele>26.100000</ele>
                <time>1970-01-01T04:55:59Z</time>
            </trkpt>
            <trkpt lon="101.395426" lat="14.195951">
                <ele>26.100000</ele>
                <time>1970-01-01T04:56:00Z</time>
            </trkpt>
            <trkpt lon="101.395418" lat="14.195905">
                <ele>26.100000</ele>
                <time>1970-01-01T04:56:01Z</time>
            </trkpt>
            <trkpt lon="101.395405" lat="14.195861">
                <ele>26.000000</ele>
                <time>1970-01-01T04:56:02Z</time>
            </trkpt>
            <trkpt lon="101.395404" lat="14.195819">
                <ele>25.900000</ele>
                <time>1970-01-01T04:56:03Z</time>
            </trkpt>
            <trkpt lon="101.395398" lat="14.195777">
                <ele>25.900000</ele>
                <time>1970-01-01T04:56:04Z</time>
            </trkpt>
            <trkpt lon="101.395382" lat="14.195734">
                <ele>25.400000</ele>
                <time>1970-01-01T04:56:05Z</time>
            </trkpt>
            <trkpt lon="101.395384" lat="14.195693">
                <ele>25.300000</ele>
                <time>1970-01-01T04:56:06Z</time>
            </trkpt>
            <trkpt lon="101.395390" lat="14.195645">
                <ele>25.100000</ele>
                <time>1970-01-01T04:56:07Z</time>
            </trkpt>
            <trkpt lon="101.395381" lat="14.195602">
                <ele>25.000000</ele>
                <time>1970-01-01T04:56:08Z</time>
            </trkpt>
            <trkpt lon="101.395345" lat="14.195579">
                <ele>24.500000</ele>
                <time>1970-01-01T04:56:09Z</time>
            </trkpt>
            <trkpt lon="101.395307" lat="14.195562">
                <ele>24.000000</ele>
                <time>1970-01-01T04:56:10Z</time>
            </trkpt>
            <trkpt lon="101.395265" lat="14.195547">
                <ele>23.600000</ele>
                <time>1970-01-01T04:56:11Z</time>
            </trkpt>
            <trkpt lon="101.395217" lat="14.195552">
                <ele>23.300000</ele>
                <time>1970-01-01T04:56:12Z</time>
            </trkpt>
            <trkpt lon="101.395167" lat="14.195558">
                <ele>23.200000</ele>
                <time>1970-01-01T04:56:13Z</time>
            </trkpt>
            <trkpt lon="101.395129" lat="14.195563">
                <ele>23.100000</ele>
                <time>1970-01-01T04:56:14Z</time>
            </trkpt>
            <trkpt lon="101.395095" lat="14.195567">
                <ele>23.100000</ele>
                <time>1970-01-01T04:56:15Z</time>
            </trkpt>
            <trkpt lon="101.395063" lat="14.195569">
                <ele>23.100000</ele>
                <time>1970-01-01T04:56:16Z</time>
            </trkpt>
            <trkpt lon="101.395027" lat="14.195572">
                <ele>23.100000</ele>
                <time>1970-01-01T04:56:17Z</time>
            </trkpt>
            <trkpt lon="101.394991" lat="14.195578">
                <ele>23.100000</ele>
                <time>1970-01-01T04:56:18Z</time>
            </trkpt>
            <trkpt lon="101.394956" lat="14.195588">
                <ele>23.000000</ele>
                <time>1970-01-01T04:56:19Z</time>
            </trkpt>
            <trkpt lon="101.394917" lat="14.195598">
                <ele>22.800000</ele>
                <time>1970-01-01T04:56:20Z</time>
            </trkpt>
            <trkpt lon="101.394877" lat="14.195606">
                <ele>22.500000</ele>
                <time>1970-01-01T04:56:21Z</time>
            </trkpt>
            <trkpt lon="101.394838" lat="14.195613">
                <ele>22.200000</ele>
                <time>1970-01-01T04:56:22Z</time>
            </trkpt>
            <trkpt lon="101.394799" lat="14.195618">
                <ele>22.200000</ele>
                <time>1970-01-01T04:56:23Z</time>
            </trkpt>
            <trkpt lon="101.394760" lat="14.195627">
                <ele>21.900000</ele>
                <time>1970-01-01T04:56:24Z</time>
            </trkpt>
            <trkpt lon="101.394722" lat="14.195638">
                <ele>21.600000</ele>
                <time>1970-01-01T04:56:25Z</time>
            </trkpt>
            <trkpt lon="101.394686" lat="14.195648">
                <ele>21.400000</ele>
                <time>1970-01-01T04:56:26Z</time>
            </trkpt>
            <trkpt lon="101.394645" lat="14.195650">
                <ele>21.300000</ele>
                <time>1970-01-01T04:56:27Z</time>
            </trkpt>
            <trkpt lon="101.394604" lat="14.195647">
                <ele>21.300000</ele>
                <time>1970-01-01T04:56:28Z</time>
            </trkpt>
            <trkpt lon="101.394561" lat="14.195641">
                <ele>21.400000</ele>
                <time>1970-01-01T04:56:29Z</time>
            </trkpt>
            <trkpt lon="101.394517" lat="14.195632">
                <ele>21.500000</ele>
                <time>1970-01-01T04:56:30Z</time>
            </trkpt>
            <trkpt lon="101.394475" lat="14.195617">
                <ele>22.000000</ele>
                <time>1970-01-01T04:56:31Z</time>
            </trkpt>
            <trkpt lon="101.394433" lat="14.195575">
                <ele>22.100000</ele>
                <time>1970-01-01T04:56:32Z</time>
            </trkpt>
            <trkpt lon="101.394392" lat="14.195552">
                <ele>21.900000</ele>
                <time>1970-01-01T04:56:33Z</time>
            </trkpt>
            <trkpt lon="101.394357" lat="14.195540">
                <ele>21.600000</ele>
                <time>1970-01-01T04:56:34Z</time>
            </trkpt>
            <trkpt lon="101.394323" lat="14.195532">
                <ele>21.700000</ele>
                <time>1970-01-01T04:56:35Z</time>
            </trkpt>
            <trkpt lon="101.394289" lat="14.195534">
                <ele>21.700000</ele>
                <time>1970-01-01T04:56:36Z</time>
            </trkpt>
            <trkpt lon="101.394255" lat="14.195541">
                <ele>21.200000</ele>
                <time>1970-01-01T04:56:37Z</time>
            </trkpt>
            <trkpt lon="101.394205" lat="14.195564">
                <ele>21.100000</ele>
                <time>1970-01-01T04:56:39Z</time>
            </trkpt>
            <trkpt lon="101.394174" lat="14.195581">
                <ele>20.900000</ele>
                <time>1970-01-01T04:56:40Z</time>
            </trkpt>
            <trkpt lon="101.394127" lat="14.195602">
                <ele>21.000000</ele>
                <time>1970-01-01T04:56:42Z</time>
            </trkpt>
            <trkpt lon="101.394082" lat="14.195623">
                <ele>21.100000</ele>
                <time>1970-01-01T04:56:44Z</time>
            </trkpt>
            <trkpt lon="101.394040" lat="14.195648">
                <ele>21.100000</ele>
                <time>1970-01-01T04:56:46Z</time>
            </trkpt>
            <trkpt lon="101.394012" lat="14.195657">
                <ele>21.100000</ele>
                <time>1970-01-01T04:56:47Z</time>
            </trkpt>
            <trkpt lon="101.393981" lat="14.195665">
                <ele>21.100000</ele>
                <time>1970-01-01T04:56:48Z</time>
            </trkpt>
            <trkpt lon="101.393947" lat="14.195672">
                <ele>21.000000</ele>
                <time>1970-01-01T04:56:49Z</time>
            </trkpt>
            <trkpt lon="101.393909" lat="14.195680">
                <ele>21.100000</ele>
                <time>1970-01-01T04:56:50Z</time>
            </trkpt>
            <trkpt lon="101.393868" lat="14.195683">
                <ele>21.300000</ele>
                <time>1970-01-01T04:56:51Z</time>
            </trkpt>
            <trkpt lon="101.393824" lat="14.195675">
                <ele>21.500000</ele>
                <time>1970-01-01T04:56:52Z</time>
            </trkpt>
            <trkpt lon="101.393786" lat="14.195650">
                <ele>21.800000</ele>
                <time>1970-01-01T04:56:53Z</time>
            </trkpt>
            <trkpt lon="101.393758" lat="14.195611">
                <ele>22.100000</ele>
                <time>1970-01-01T04:56:54Z</time>
            </trkpt>
            <trkpt lon="101.393743" lat="14.195565">
                <ele>22.200000</ele>
                <time>1970-01-01T04:56:55Z</time>
            </trkpt>
            <trkpt lon="101.393730" lat="14.195522">
                <ele>22.200000</ele>
                <time>1970-01-01T04:56:56Z</time>
            </trkpt>
            <trkpt lon="101.393716" lat="14.195482">
                <ele>22.600000</ele>
                <time>1970-01-01T04:56:57Z</time>
            </trkpt>
            <trkpt lon="101.393697" lat="14.195445">
                <ele>22.500000</ele>
                <time>1970-01-01T04:56:58Z</time>
            </trkpt>
            <trkpt lon="101.393672" lat="14.195416">
                <ele>22.800000</ele>
                <time>1970-01-01T04:56:59Z</time>
            </trkpt>
            <trkpt lon="101.393643" lat="14.195391">
                <ele>22.600000</ele>
                <time>1970-01-01T04:57:00Z</time>
            </trkpt>
            <trkpt lon="101.393611" lat="14.195372">
                <ele>22.900000</ele>
                <time>1970-01-01T04:57:01Z</time>
            </trkpt>
            <trkpt lon="101.393575" lat="14.195356">
                <ele>22.800000</ele>
                <time>1970-01-01T04:57:02Z</time>
            </trkpt>
            <trkpt lon="101.393536" lat="14.195341">
                <ele>22.800000</ele>
                <time>1970-01-01T04:57:03Z</time>
            </trkpt>
            <trkpt lon="101.393497" lat="14.195327">
                <ele>22.800000</ele>
                <time>1970-01-01T04:57:04Z</time>
            </trkpt>
            <trkpt lon="101.393455" lat="14.195310">
                <ele>22.900000</ele>
                <time>1970-01-01T04:57:05Z</time>
            </trkpt>
            <trkpt lon="101.393414" lat="14.195289">
                <ele>23.000000</ele>
                <time>1970-01-01T04:57:06Z</time>
            </trkpt>
            <trkpt lon="101.393376" lat="14.195266">
                <ele>23.100000</ele>
                <time>1970-01-01T04:57:07Z</time>
            </trkpt>
            <trkpt lon="101.393340" lat="14.195241">
                <ele>23.100000</ele>
                <time>1970-01-01T04:57:08Z</time>
            </trkpt>
            <trkpt lon="101.393305" lat="14.195213">
                <ele>23.100000</ele>
                <time>1970-01-01T04:57:09Z</time>
            </trkpt>
            <trkpt lon="101.393273" lat="14.195184">
                <ele>23.000000</ele>
                <time>1970-01-01T04:57:10Z</time>
            </trkpt>
            <trkpt lon="101.393241" lat="14.195157">
                <ele>22.900000</ele>
                <time>1970-01-01T04:57:11Z</time>
            </trkpt>
            <trkpt lon="101.393207" lat="14.195130">
                <ele>22.800000</ele>
                <time>1970-01-01T04:57:12Z</time>
            </trkpt>
            <trkpt lon="101.393172" lat="14.195106">
                <ele>22.800000</ele>
                <time>1970-01-01T04:57:13Z</time>
            </trkpt>
            <trkpt lon="101.393136" lat="14.195083">
                <ele>22.500000</ele>
                <time>1970-01-01T04:57:14Z</time>
            </trkpt>
            <trkpt lon="101.393098" lat="14.195060">
                <ele>22.200000</ele>
                <time>1970-01-01T04:57:15Z</time>
            </trkpt>
            <trkpt lon="101.393062" lat="14.195038">
                <ele>22.000000</ele>
                <time>1970-01-01T04:57:16Z</time>
            </trkpt>
            <trkpt lon="101.393028" lat="14.195016">
                <ele>21.900000</ele>
                <time>1970-01-01T04:57:17Z</time>
            </trkpt>
            <trkpt lon="101.392996" lat="14.194994">
                <ele>21.800000</ele>
                <time>1970-01-01T04:57:18Z</time>
            </trkpt>
            <trkpt lon="101.392963" lat="14.194973">
                <ele>21.700000</ele>
                <time>1970-01-01T04:57:19Z</time>
            </trkpt>
            <trkpt lon="101.392934" lat="14.194954">
                <ele>21.300000</ele>
                <time>1970-01-01T04:57:20Z</time>
            </trkpt>
            <trkpt lon="101.392902" lat="14.194935">
                <ele>21.200000</ele>
                <time>1970-01-01T04:57:21Z</time>
            </trkpt>
            <trkpt lon="101.392864" lat="14.194916">
                <ele>21.200000</ele>
                <time>1970-01-01T04:57:22Z</time>
            </trkpt>
            <trkpt lon="101.392824" lat="14.194900">
                <ele>20.900000</ele>
                <time>1970-01-01T04:57:23Z</time>
            </trkpt>
            <trkpt lon="101.392783" lat="14.194889">
                <ele>20.900000</ele>
                <time>1970-01-01T04:57:24Z</time>
            </trkpt>
            <trkpt lon="101.392741" lat="14.194883">
                <ele>20.900000</ele>
                <time>1970-01-01T04:57:25Z</time>
            </trkpt>
            <trkpt lon="101.392698" lat="14.194880">
                <ele>20.900000</ele>
                <time>1970-01-01T04:57:26Z</time>
            </trkpt>
            <trkpt lon="101.392657" lat="14.194877">
                <ele>20.900000</ele>
                <time>1970-01-01T04:57:27Z</time>
            </trkpt>
            <trkpt lon="101.392617" lat="14.194872">
                <ele>20.800000</ele>
                <time>1970-01-01T04:57:28Z</time>
            </trkpt>
            <trkpt lon="101.392576" lat="14.194866">
                <ele>20.600000</ele>
                <time>1970-01-01T04:57:29Z</time>
            </trkpt>
            <trkpt lon="101.392538" lat="14.194853">
                <ele>20.700000</ele>
                <time>1970-01-01T04:57:30Z</time>
            </trkpt>
            <trkpt lon="101.392506" lat="14.194836">
                <ele>20.900000</ele>
                <time>1970-01-01T04:57:31Z</time>
            </trkpt>
            <trkpt lon="101.392480" lat="14.194816">
                <ele>20.500000</ele>
                <time>1970-01-01T04:57:32Z</time>
            </trkpt>
            <trkpt lon="101.392452" lat="14.194798">
                <ele>20.600000</ele>
                <time>1970-01-01T04:57:33Z</time>
            </trkpt>
            <trkpt lon="101.392423" lat="14.194787">
                <ele>20.300000</ele>
                <time>1970-01-01T04:57:34Z</time>
            </trkpt>
            <trkpt lon="101.392386" lat="14.194789">
                <ele>20.900000</ele>
                <time>1970-01-01T04:57:35Z</time>
            </trkpt>
            <trkpt lon="101.392343" lat="14.194803">
                <ele>21.000000</ele>
                <time>1970-01-01T04:57:36Z</time>
            </trkpt>
            <trkpt lon="101.392301" lat="14.194824">
                <ele>21.200000</ele>
                <time>1970-01-01T04:57:37Z</time>
            </trkpt>
            <trkpt lon="101.392263" lat="14.194849">
                <ele>21.600000</ele>
                <time>1970-01-01T04:57:38Z</time>
            </trkpt>
            <trkpt lon="101.392227" lat="14.194872">
                <ele>21.900000</ele>
                <time>1970-01-01T04:57:39Z</time>
            </trkpt>
            <trkpt lon="101.392192" lat="14.194895">
                <ele>22.000000</ele>
                <time>1970-01-01T04:57:40Z</time>
            </trkpt>
            <trkpt lon="101.392153" lat="14.194917">
                <ele>22.600000</ele>
                <time>1970-01-01T04:57:41Z</time>
            </trkpt>
            <trkpt lon="101.392117" lat="14.194937">
                <ele>22.900000</ele>
                <time>1970-01-01T04:57:42Z</time>
            </trkpt>
            <trkpt lon="101.392083" lat="14.194959">
                <ele>23.500000</ele>
                <time>1970-01-01T04:57:43Z</time>
            </trkpt>
            <trkpt lon="101.392051" lat="14.194984">
                <ele>23.500000</ele>
                <time>1970-01-01T04:57:44Z</time>
            </trkpt>
            <trkpt lon="101.392022" lat="14.195013">
                <ele>23.900000</ele>
                <time>1970-01-01T04:57:45Z</time>
            </trkpt>
            <trkpt lon="101.391993" lat="14.195040">
                <ele>24.100000</ele>
                <time>1970-01-01T04:57:46Z</time>
            </trkpt>
            <trkpt lon="101.391963" lat="14.195074">
                <ele>24.100000</ele>
                <time>1970-01-01T04:57:47Z</time>
            </trkpt>
            <trkpt lon="101.391924" lat="14.195105">
                <ele>24.100000</ele>
                <time>1970-01-01T04:57:48Z</time>
            </trkpt>
            <trkpt lon="101.391894" lat="14.195140">
                <ele>24.100000</ele>
                <time>1970-01-01T04:57:49Z</time>
            </trkpt>
            <trkpt lon="101.391879" lat="14.195170">
                <ele>24.100000</ele>
                <time>1970-01-01T04:57:50Z</time>
            </trkpt>
            <trkpt lon="101.391853" lat="14.195216">
                <ele>24.000000</ele>
                <time>1970-01-01T04:57:51Z</time>
            </trkpt>
            <trkpt lon="101.391833" lat="14.195258">
                <ele>23.700000</ele>
                <time>1970-01-01T04:57:52Z</time>
            </trkpt>
            <trkpt lon="101.391793" lat="14.195280">
                <ele>23.700000</ele>
                <time>1970-01-01T04:57:53Z</time>
            </trkpt>
            <trkpt lon="101.391749" lat="14.195306">
                <ele>22.500000</ele>
                <time>1970-01-01T04:57:54Z</time>
            </trkpt>
            <trkpt lon="101.391706" lat="14.195334">
                <ele>21.500000</ele>
                <time>1970-01-01T04:57:55Z</time>
            </trkpt>
            <trkpt lon="101.391672" lat="14.195361">
                <ele>21.500000</ele>
                <time>1970-01-01T04:57:56Z</time>
            </trkpt>
            <trkpt lon="101.391616" lat="14.195394">
                <ele>20.500000</ele>
                <time>1970-01-01T04:57:57Z</time>
            </trkpt>
            <trkpt lon="101.391566" lat="14.195406">
                <ele>20.300000</ele>
                <time>1970-01-01T04:57:58Z</time>
            </trkpt>
            <trkpt lon="101.391527" lat="14.195401">
                <ele>20.000000</ele>
                <time>1970-01-01T04:57:59Z</time>
            </trkpt>
            <trkpt lon="101.391477" lat="14.195401">
                <ele>19.700000</ele>
                <time>1970-01-01T04:58:00Z</time>
            </trkpt>
            <trkpt lon="101.391418" lat="14.195393">
                <ele>19.400000</ele>
                <time>1970-01-01T04:58:01Z</time>
            </trkpt>
            <trkpt lon="101.391380" lat="14.195394">
                <ele>19.200000</ele>
                <time>1970-01-01T04:58:02Z</time>
            </trkpt>
            <trkpt lon="101.391342" lat="14.195387">
                <ele>19.100000</ele>
                <time>1970-01-01T04:58:03Z</time>
            </trkpt>
            <trkpt lon="101.391293" lat="14.195379">
                <ele>19.000000</ele>
                <time>1970-01-01T04:58:04Z</time>
            </trkpt>
            <trkpt lon="101.391247" lat="14.195376">
                <ele>19.100000</ele>
                <time>1970-01-01T04:58:05Z</time>
            </trkpt>
            <trkpt lon="101.391204" lat="14.195383">
                <ele>19.200000</ele>
                <time>1970-01-01T04:58:06Z</time>
            </trkpt>
            <trkpt lon="101.391162" lat="14.195392">
                <ele>19.300000</ele>
                <time>1970-01-01T04:58:07Z</time>
            </trkpt>
            <trkpt lon="101.391121" lat="14.195399">
                <ele>19.500000</ele>
                <time>1970-01-01T04:58:08Z</time>
            </trkpt>
            <trkpt lon="101.391082" lat="14.195405">
                <ele>19.700000</ele>
                <time>1970-01-01T04:58:09Z</time>
            </trkpt>
            <trkpt lon="101.391042" lat="14.195416">
                <ele>20.000000</ele>
                <time>1970-01-01T04:58:10Z</time>
            </trkpt>
            <trkpt lon="101.391000" lat="14.195428">
                <ele>20.300000</ele>
                <time>1970-01-01T04:58:11Z</time>
            </trkpt>
            <trkpt lon="101.390948" lat="14.195442">
                <ele>20.700000</ele>
                <time>1970-01-01T04:58:12Z</time>
            </trkpt>
            <trkpt lon="101.390892" lat="14.195452">
                <ele>20.900000</ele>
                <time>1970-01-01T04:58:13Z</time>
            </trkpt>
            <trkpt lon="101.390834" lat="14.195471">
                <ele>21.300000</ele>
                <time>1970-01-01T04:58:14Z</time>
            </trkpt>
            <trkpt lon="101.390790" lat="14.195494">
                <ele>21.300000</ele>
                <time>1970-01-01T04:58:15Z</time>
            </trkpt>
            <trkpt lon="101.390744" lat="14.195516">
                <ele>21.200000</ele>
                <time>1970-01-01T04:58:16Z</time>
            </trkpt>
            <trkpt lon="101.390700" lat="14.195535">
                <ele>21.100000</ele>
                <time>1970-01-01T04:58:17Z</time>
            </trkpt>
            <trkpt lon="101.390657" lat="14.195554">
                <ele>21.100000</ele>
                <time>1970-01-01T04:58:18Z</time>
            </trkpt>
            <trkpt lon="101.390626" lat="14.195587">
                <ele>21.100000</ele>
                <time>1970-01-01T04:58:19Z</time>
            </trkpt>
            <trkpt lon="101.390596" lat="14.195608">
                <ele>21.100000</ele>
                <time>1970-01-01T04:58:20Z</time>
            </trkpt>
            <trkpt lon="101.390563" lat="14.195636">
                <ele>20.900000</ele>
                <time>1970-01-01T04:58:21Z</time>
            </trkpt>
            <trkpt lon="101.390518" lat="14.195669">
                <ele>20.500000</ele>
                <time>1970-01-01T04:58:22Z</time>
            </trkpt>
            <trkpt lon="101.390478" lat="14.195703">
                <ele>20.400000</ele>
                <time>1970-01-01T04:58:23Z</time>
            </trkpt>
            <trkpt lon="101.390445" lat="14.195733">
                <ele>20.100000</ele>
                <time>1970-01-01T04:58:24Z</time>
            </trkpt>
            <trkpt lon="101.390405" lat="14.195754">
                <ele>20.000000</ele>
                <time>1970-01-01T04:58:25Z</time>
            </trkpt>
            <trkpt lon="101.390358" lat="14.195790">
                <ele>20.000000</ele>
                <time>1970-01-01T04:58:26Z</time>
            </trkpt>
            <trkpt lon="101.390308" lat="14.195813">
                <ele>20.100000</ele>
                <time>1970-01-01T04:58:27Z</time>
            </trkpt>
            <trkpt lon="101.390260" lat="14.195827">
                <ele>20.200000</ele>
                <time>1970-01-01T04:58:28Z</time>
            </trkpt>
            <trkpt lon="101.390216" lat="14.195842">
                <ele>20.500000</ele>
                <time>1970-01-01T04:58:29Z</time>
            </trkpt>
            <trkpt lon="101.390176" lat="14.195860">
                <ele>20.700000</ele>
                <time>1970-01-01T04:58:30Z</time>
            </trkpt>
            <trkpt lon="101.390138" lat="14.195876">
                <ele>21.100000</ele>
                <time>1970-01-01T04:58:31Z</time>
            </trkpt>
            <trkpt lon="101.390100" lat="14.195888">
                <ele>21.000000</ele>
                <time>1970-01-01T04:58:32Z</time>
            </trkpt>
            <trkpt lon="101.390058" lat="14.195903">
                <ele>21.000000</ele>
                <time>1970-01-01T04:58:33Z</time>
            </trkpt>
            <trkpt lon="101.390021" lat="14.195910">
                <ele>21.000000</ele>
                <time>1970-01-01T04:58:34Z</time>
            </trkpt>
            <trkpt lon="101.389984" lat="14.195922">
                <ele>21.300000</ele>
                <time>1970-01-01T04:58:35Z</time>
            </trkpt>
            <trkpt lon="101.389941" lat="14.195935">
                <ele>21.500000</ele>
                <time>1970-01-01T04:58:36Z</time>
            </trkpt>
            <trkpt lon="101.389897" lat="14.195938">
                <ele>21.800000</ele>
                <time>1970-01-01T04:58:37Z</time>
            </trkpt>
            <trkpt lon="101.389849" lat="14.195944">
                <ele>22.100000</ele>
                <time>1970-01-01T04:58:38Z</time>
            </trkpt>
            <trkpt lon="101.389806" lat="14.195950">
                <ele>22.200000</ele>
                <time>1970-01-01T04:58:39Z</time>
            </trkpt>
            <trkpt lon="101.389764" lat="14.195958">
                <ele>22.300000</ele>
                <time>1970-01-01T04:58:40Z</time>
            </trkpt>
            <trkpt lon="101.389729" lat="14.195964">
                <ele>22.300000</ele>
                <time>1970-01-01T04:58:41Z</time>
            </trkpt>
            <trkpt lon="101.389698" lat="14.195970">
                <ele>22.300000</ele>
                <time>1970-01-01T04:58:42Z</time>
            </trkpt>
            <trkpt lon="101.389663" lat="14.195980">
                <ele>22.200000</ele>
                <time>1970-01-01T04:58:43Z</time>
            </trkpt>
            <trkpt lon="101.389630" lat="14.195990">
                <ele>22.000000</ele>
                <time>1970-01-01T04:58:44Z</time>
            </trkpt>
            <trkpt lon="101.389594" lat="14.196001">
                <ele>21.900000</ele>
                <time>1970-01-01T04:58:45Z</time>
            </trkpt>
            <trkpt lon="101.389553" lat="14.196014">
                <ele>21.600000</ele>
                <time>1970-01-01T04:58:46Z</time>
            </trkpt>
            <trkpt lon="101.389513" lat="14.196028">
                <ele>21.200000</ele>
                <time>1970-01-01T04:58:47Z</time>
            </trkpt>
            <trkpt lon="101.389470" lat="14.196040">
                <ele>20.900000</ele>
                <time>1970-01-01T04:58:48Z</time>
            </trkpt>
            <trkpt lon="101.389429" lat="14.196053">
                <ele>20.500000</ele>
                <time>1970-01-01T04:58:49Z</time>
            </trkpt>
            <trkpt lon="101.389389" lat="14.196067">
                <ele>20.300000</ele>
                <time>1970-01-01T04:58:50Z</time>
            </trkpt>
            <trkpt lon="101.389357" lat="14.196088">
                <ele>20.400000</ele>
                <time>1970-01-01T04:58:51Z</time>
            </trkpt>
            <trkpt lon="101.389336" lat="14.196122">
                <ele>20.500000</ele>
                <time>1970-01-01T04:58:52Z</time>
            </trkpt>
            <trkpt lon="101.389330" lat="14.196166">
                <ele>20.800000</ele>
                <time>1970-01-01T04:58:53Z</time>
            </trkpt>
            <trkpt lon="101.389341" lat="14.196211">
                <ele>21.100000</ele>
                <time>1970-01-01T04:58:54Z</time>
            </trkpt>
            <trkpt lon="101.389366" lat="14.196252">
                <ele>21.300000</ele>
                <time>1970-01-01T04:58:55Z</time>
            </trkpt>
            <trkpt lon="101.389399" lat="14.196288">
                <ele>21.200000</ele>
                <time>1970-01-01T04:58:56Z</time>
            </trkpt>
            <trkpt lon="101.389432" lat="14.196321">
                <ele>21.100000</ele>
                <time>1970-01-01T04:58:57Z</time>
            </trkpt>
            <trkpt lon="101.389463" lat="14.196357">
                <ele>21.100000</ele>
                <time>1970-01-01T04:58:58Z</time>
            </trkpt>
            <trkpt lon="101.389510" lat="14.196399">
                <ele>21.100000</ele>
                <time>1970-01-01T04:58:59Z</time>
            </trkpt>
            <trkpt lon="101.389531" lat="14.196442">
                <ele>21.100000</ele>
                <time>1970-01-01T04:59:00Z</time>
            </trkpt>
            <trkpt lon="101.389558" lat="14.196484">
                <ele>21.200000</ele>
                <time>1970-01-01T04:59:01Z</time>
            </trkpt>
            <trkpt lon="101.389588" lat="14.196536">
                <ele>21.200000</ele>
                <time>1970-01-01T04:59:02Z</time>
            </trkpt>
            <trkpt lon="101.389607" lat="14.196576">
                <ele>21.200000</ele>
                <time>1970-01-01T04:59:03Z</time>
            </trkpt>
            <trkpt lon="101.389624" lat="14.196611">
                <ele>21.100000</ele>
                <time>1970-01-01T04:59:04Z</time>
            </trkpt>
            <trkpt lon="101.389636" lat="14.196652">
                <ele>21.000000</ele>
                <time>1970-01-01T04:59:05Z</time>
            </trkpt>
            <trkpt lon="101.389630" lat="14.196699">
                <ele>21.000000</ele>
                <time>1970-01-01T04:59:06Z</time>
            </trkpt>
            <trkpt lon="101.389609" lat="14.196736">
                <ele>21.000000</ele>
                <time>1970-01-01T04:59:07Z</time>
            </trkpt>
            <trkpt lon="101.389571" lat="14.196760">
                <ele>21.100000</ele>
                <time>1970-01-01T04:59:08Z</time>
            </trkpt>
            <trkpt lon="101.389540" lat="14.196776">
                <ele>21.100000</ele>
                <time>1970-01-01T04:59:09Z</time>
            </trkpt>
            <trkpt lon="101.389502" lat="14.196803">
                <ele>21.700000</ele>
                <time>1970-01-01T04:59:10Z</time>
            </trkpt>
            <trkpt lon="101.389450" lat="14.196811">
                <ele>21.900000</ele>
                <time>1970-01-01T04:59:11Z</time>
            </trkpt>
            <trkpt lon="101.389410" lat="14.196815">
                <ele>22.100000</ele>
                <time>1970-01-01T04:59:12Z</time>
            </trkpt>
            <trkpt lon="101.389363" lat="14.196822">
                <ele>22.300000</ele>
                <time>1970-01-01T04:59:13Z</time>
            </trkpt>
            <trkpt lon="101.389310" lat="14.196828">
                <ele>22.800000</ele>
                <time>1970-01-01T04:59:14Z</time>
            </trkpt>
            <trkpt lon="101.389255" lat="14.196840">
                <ele>22.800000</ele>
                <time>1970-01-01T04:59:15Z</time>
            </trkpt>
            <trkpt lon="101.389208" lat="14.196852">
                <ele>22.800000</ele>
                <time>1970-01-01T04:59:16Z</time>
            </trkpt>
            <trkpt lon="101.389163" lat="14.196860">
                <ele>22.700000</ele>
                <time>1970-01-01T04:59:17Z</time>
            </trkpt>
            <trkpt lon="101.389118" lat="14.196872">
                <ele>23.000000</ele>
                <time>1970-01-01T04:59:18Z</time>
            </trkpt>
            <trkpt lon="101.389074" lat="14.196879">
                <ele>23.000000</ele>
                <time>1970-01-01T04:59:19Z</time>
            </trkpt>
            <trkpt lon="101.389029" lat="14.196881">
                <ele>23.000000</ele>
                <time>1970-01-01T04:59:20Z</time>
            </trkpt>
            <trkpt lon="101.388982" lat="14.196887">
                <ele>23.000000</ele>
                <time>1970-01-01T04:59:21Z</time>
            </trkpt>
            <trkpt lon="101.388939" lat="14.196893">
                <ele>23.000000</ele>
                <time>1970-01-01T04:59:22Z</time>
            </trkpt>
            <trkpt lon="101.388893" lat="14.196906">
                <ele>23.000000</ele>
                <time>1970-01-01T04:59:23Z</time>
            </trkpt>
            <trkpt lon="101.388842" lat="14.196908">
                <ele>23.100000</ele>
                <time>1970-01-01T04:59:24Z</time>
            </trkpt>
            <trkpt lon="101.388793" lat="14.196918">
                <ele>23.100000</ele>
                <time>1970-01-01T04:59:25Z</time>
            </trkpt>
            <trkpt lon="101.388748" lat="14.196931">
                <ele>23.100000</ele>
                <time>1970-01-01T04:59:26Z</time>
            </trkpt>
            <trkpt lon="101.388705" lat="14.196936">
                <ele>23.100000</ele>
                <time>1970-01-01T04:59:27Z</time>
            </trkpt>
            <trkpt lon="101.388661" lat="14.196940">
                <ele>23.000000</ele>
                <time>1970-01-01T04:59:28Z</time>
            </trkpt>
            <trkpt lon="101.388606" lat="14.196952">
                <ele>23.000000</ele>
                <time>1970-01-01T04:59:29Z</time>
            </trkpt>
            <trkpt lon="101.388557" lat="14.196955">
                <ele>22.900000</ele>
                <time>1970-01-01T04:59:30Z</time>
            </trkpt>
            <trkpt lon="101.388507" lat="14.196981">
                <ele>23.000000</ele>
                <time>1970-01-01T04:59:31Z</time>
            </trkpt>
            <trkpt lon="101.388459" lat="14.196994">
                <ele>23.100000</ele>
                <time>1970-01-01T04:59:32Z</time>
            </trkpt>
            <trkpt lon="101.388414" lat="14.196999">
                <ele>23.200000</ele>
                <time>1970-01-01T04:59:33Z</time>
            </trkpt>
            <trkpt lon="101.388369" lat="14.197005">
                <ele>23.200000</ele>
                <time>1970-01-01T04:59:34Z</time>
            </trkpt>
            <trkpt lon="101.388320" lat="14.197004">
                <ele>23.200000</ele>
                <time>1970-01-01T04:59:35Z</time>
            </trkpt>
            <trkpt lon="101.388275" lat="14.197008">
                <ele>23.100000</ele>
                <time>1970-01-01T04:59:36Z</time>
            </trkpt>
            <trkpt lon="101.388228" lat="14.197018">
                <ele>23.000000</ele>
                <time>1970-01-01T04:59:37Z</time>
            </trkpt>
            <trkpt lon="101.388184" lat="14.197023">
                <ele>23.000000</ele>
                <time>1970-01-01T04:59:38Z</time>
            </trkpt>
            <trkpt lon="101.388143" lat="14.197038">
                <ele>23.100000</ele>
                <time>1970-01-01T04:59:39Z</time>
            </trkpt>
            <trkpt lon="101.388099" lat="14.197040">
                <ele>23.100000</ele>
                <time>1970-01-01T04:59:40Z</time>
            </trkpt>
            <trkpt lon="101.388055" lat="14.197047">
                <ele>23.200000</ele>
                <time>1970-01-01T04:59:41Z</time>
            </trkpt>
            <trkpt lon="101.388006" lat="14.197049">
                <ele>23.300000</ele>
                <time>1970-01-01T04:59:42Z</time>
            </trkpt>
            <trkpt lon="101.387958" lat="14.197059">
                <ele>23.200000</ele>
                <time>1970-01-01T04:59:43Z</time>
            </trkpt>
            <trkpt lon="101.387915" lat="14.197053">
                <ele>23.100000</ele>
                <time>1970-01-01T04:59:44Z</time>
            </trkpt>
            <trkpt lon="101.387877" lat="14.197046">
                <ele>22.800000</ele>
                <time>1970-01-01T04:59:45Z</time>
            </trkpt>
            <trkpt lon="101.387839" lat="14.197047">
                <ele>22.500000</ele>
                <time>1970-01-01T04:59:47Z</time>
            </trkpt>
            <trkpt lon="101.387812" lat="14.197034">
                <ele>22.500000</ele>
                <time>1970-01-01T04:59:49Z</time>
            </trkpt>
            <trkpt lon="101.387792" lat="14.197005">
                <ele>22.200000</ele>
                <time>1970-01-01T04:59:51Z</time>
            </trkpt>
            <trkpt lon="101.387784" lat="14.196975">
                <ele>22.200000</ele>
                <time>1970-01-01T04:59:53Z</time>
            </trkpt>
            <trkpt lon="101.387793" lat="14.196936">
                <ele>22.200000</ele>
                <time>1970-01-01T04:59:55Z</time>
            </trkpt>
            <trkpt lon="101.387783" lat="14.196890">
                <ele>22.200000</ele>
                <time>1970-01-01T04:59:57Z</time>
            </trkpt>
            <trkpt lon="101.387759" lat="14.196850">
                <ele>22.200000</ele>
                <time>1970-01-01T04:59:59Z</time>
            </trkpt>
            <trkpt lon="101.387736" lat="14.196807">
                <ele>22.000000</ele>
                <time>1970-01-01T05:00:01Z</time>
            </trkpt>
            <trkpt lon="101.387721" lat="14.196782">
                <ele>22.000000</ele>
                <time>1970-01-01T05:00:02Z</time>
            </trkpt>
            <trkpt lon="101.387699" lat="14.196761">
                <ele>22.000000</ele>
                <time>1970-01-01T05:00:03Z</time>
            </trkpt>
            <trkpt lon="101.387670" lat="14.196746">
                <ele>22.000000</ele>
                <time>1970-01-01T05:00:04Z</time>
            </trkpt>
            <trkpt lon="101.387637" lat="14.196735">
                <ele>22.100000</ele>
                <time>1970-01-01T05:00:05Z</time>
            </trkpt>
            <trkpt lon="101.387599" lat="14.196729">
                <ele>22.100000</ele>
                <time>1970-01-01T05:00:06Z</time>
            </trkpt>
            <trkpt lon="101.387557" lat="14.196724">
                <ele>22.100000</ele>
                <time>1970-01-01T05:00:07Z</time>
            </trkpt>
            <trkpt lon="101.387515" lat="14.196722">
                <ele>22.000000</ele>
                <time>1970-01-01T05:00:08Z</time>
            </trkpt>
            <trkpt lon="101.387475" lat="14.196722">
                <ele>22.000000</ele>
                <time>1970-01-01T05:00:09Z</time>
            </trkpt>
            <trkpt lon="101.387433" lat="14.196722">
                <ele>22.000000</ele>
                <time>1970-01-01T05:00:10Z</time>
            </trkpt>
            <trkpt lon="101.387389" lat="14.196721">
                <ele>22.200000</ele>
                <time>1970-01-01T05:00:11Z</time>
            </trkpt>
            <trkpt lon="101.387346" lat="14.196722">
                <ele>22.600000</ele>
                <time>1970-01-01T05:00:12Z</time>
            </trkpt>
            <trkpt lon="101.387303" lat="14.196726">
                <ele>22.900000</ele>
                <time>1970-01-01T05:00:13Z</time>
            </trkpt>
            <trkpt lon="101.387262" lat="14.196731">
                <ele>23.200000</ele>
                <time>1970-01-01T05:00:14Z</time>
            </trkpt>
            <trkpt lon="101.387220" lat="14.196733">
                <ele>23.300000</ele>
                <time>1970-01-01T05:00:15Z</time>
            </trkpt>
            <trkpt lon="101.387176" lat="14.196735">
                <ele>23.100000</ele>
                <time>1970-01-01T05:00:16Z</time>
            </trkpt>
            <trkpt lon="101.387131" lat="14.196738">
                <ele>22.800000</ele>
                <time>1970-01-01T05:00:17Z</time>
            </trkpt>
            <trkpt lon="101.387087" lat="14.196741">
                <ele>22.500000</ele>
                <time>1970-01-01T05:00:18Z</time>
            </trkpt>
            <trkpt lon="101.387043" lat="14.196745">
                <ele>21.800000</ele>
                <time>1970-01-01T05:00:19Z</time>
            </trkpt>
            <trkpt lon="101.386999" lat="14.196750">
                <ele>21.500000</ele>
                <time>1970-01-01T05:00:20Z</time>
            </trkpt>
            <trkpt lon="101.386958" lat="14.196758">
                <ele>21.300000</ele>
                <time>1970-01-01T05:00:21Z</time>
            </trkpt>
            <trkpt lon="101.386918" lat="14.196770">
                <ele>21.100000</ele>
                <time>1970-01-01T05:00:22Z</time>
            </trkpt>
            <trkpt lon="101.386880" lat="14.196785">
                <ele>20.900000</ele>
                <time>1970-01-01T05:00:23Z</time>
            </trkpt>
            <trkpt lon="101.386847" lat="14.196799">
                <ele>20.600000</ele>
                <time>1970-01-01T05:00:24Z</time>
            </trkpt>
            <trkpt lon="101.386819" lat="14.196812">
                <ele>20.600000</ele>
                <time>1970-01-01T05:00:25Z</time>
            </trkpt>
            <trkpt lon="101.386788" lat="14.196824">
                <ele>20.600000</ele>
                <time>1970-01-01T05:00:26Z</time>
            </trkpt>
            <trkpt lon="101.386755" lat="14.196837">
                <ele>20.400000</ele>
                <time>1970-01-01T05:00:27Z</time>
            </trkpt>
            <trkpt lon="101.386722" lat="14.196850">
                <ele>20.500000</ele>
                <time>1970-01-01T05:00:28Z</time>
            </trkpt>
            <trkpt lon="101.386689" lat="14.196870">
                <ele>20.200000</ele>
                <time>1970-01-01T05:00:29Z</time>
            </trkpt>
            <trkpt lon="101.386664" lat="14.196916">
                <ele>20.000000</ele>
                <time>1970-01-01T05:00:30Z</time>
            </trkpt>
            <trkpt lon="101.386639" lat="14.196958">
                <ele>20.000000</ele>
                <time>1970-01-01T05:00:31Z</time>
            </trkpt>
            <trkpt lon="101.386635" lat="14.196992">
                <ele>20.000000</ele>
                <time>1970-01-01T05:00:32Z</time>
            </trkpt>
            <trkpt lon="101.386641" lat="14.197045">
                <ele>20.400000</ele>
                <time>1970-01-01T05:00:33Z</time>
            </trkpt>
            <trkpt lon="101.386638" lat="14.197097">
                <ele>20.800000</ele>
                <time>1970-01-01T05:00:34Z</time>
            </trkpt>
            <trkpt lon="101.386643" lat="14.197145">
                <ele>21.000000</ele>
                <time>1970-01-01T05:00:35Z</time>
            </trkpt>
            <trkpt lon="101.386642" lat="14.197200">
                <ele>22.000000</ele>
                <time>1970-01-01T05:00:36Z</time>
            </trkpt>
            <trkpt lon="101.386651" lat="14.197258">
                <ele>22.900000</ele>
                <time>1970-01-01T05:00:37Z</time>
            </trkpt>
            <trkpt lon="101.386658" lat="14.197302">
                <ele>23.400000</ele>
                <time>1970-01-01T05:00:38Z</time>
            </trkpt>
            <trkpt lon="101.386664" lat="14.197351">
                <ele>23.800000</ele>
                <time>1970-01-01T05:00:39Z</time>
            </trkpt>
            <trkpt lon="101.386665" lat="14.197405">
                <ele>24.200000</ele>
                <time>1970-01-01T05:00:40Z</time>
            </trkpt>
            <trkpt lon="101.386657" lat="14.197454">
                <ele>25.000000</ele>
                <time>1970-01-01T05:00:41Z</time>
            </trkpt>
            <trkpt lon="101.386658" lat="14.197504">
                <ele>25.300000</ele>
                <time>1970-01-01T05:00:42Z</time>
            </trkpt>
            <trkpt lon="101.386662" lat="14.197548">
                <ele>25.500000</ele>
                <time>1970-01-01T05:00:43Z</time>
            </trkpt>
            <trkpt lon="101.386662" lat="14.197591">
                <ele>25.500000</ele>
                <time>1970-01-01T05:00:44Z</time>
            </trkpt>
            <trkpt lon="101.386659" lat="14.197630">
                <ele>25.300000</ele>
                <time>1970-01-01T05:00:45Z</time>
            </trkpt>
            <trkpt lon="101.386663" lat="14.197668">
                <ele>25.100000</ele>
                <time>1970-01-01T05:00:46Z</time>
            </trkpt>
            <trkpt lon="101.386669" lat="14.197712">
                <ele>24.700000</ele>
                <time>1970-01-01T05:00:47Z</time>
            </trkpt>
            <trkpt lon="101.386670" lat="14.197749">
                <ele>24.300000</ele>
                <time>1970-01-01T05:00:48Z</time>
            </trkpt>
            <trkpt lon="101.386681" lat="14.197781">
                <ele>24.300000</ele>
                <time>1970-01-01T05:00:49Z</time>
            </trkpt>
            <trkpt lon="101.386689" lat="14.197809">
                <ele>23.800000</ele>
                <time>1970-01-01T05:00:50Z</time>
            </trkpt>
            <trkpt lon="101.386706" lat="14.197843">
                <ele>23.500000</ele>
                <time>1970-01-01T05:00:52Z</time>
            </trkpt>
            <trkpt lon="101.386719" lat="14.197867">
                <ele>23.500000</ele>
                <time>1970-01-01T05:00:54Z</time>
            </trkpt>
            <trkpt lon="101.386754" lat="14.197871">
                <ele>23.100000</ele>
                <time>1970-01-01T05:00:56Z</time>
            </trkpt>
            <trkpt lon="101.386783" lat="14.197861">
                <ele>22.800000</ele>
                <time>1970-01-01T05:00:58Z</time>
            </trkpt>
            <trkpt lon="101.386778" lat="14.197822">
                <ele>22.900000</ele>
                <time>1970-01-01T05:01:00Z</time>
            </trkpt>
            <trkpt lon="101.386739" lat="14.197826">
                <ele>23.200000</ele>
                <time>1970-01-01T05:01:02Z</time>
            </trkpt>
            <trkpt lon="101.386725" lat="14.197864">
                <ele>23.500000</ele>
                <time>1970-01-01T05:01:04Z</time>
            </trkpt>
            <trkpt lon="101.386721" lat="14.197893">
                <ele>23.300000</ele>
                <time>1970-01-01T05:01:06Z</time>
            </trkpt>
            <trkpt lon="101.386700" lat="14.197921">
                <ele>23.100000</ele>
                <time>1970-01-01T05:01:34Z</time>
            </trkpt>
            <trkpt lon="101.386683" lat="14.197949">
                <ele>23.200000</ele>
                <time>1970-01-01T05:01:37Z</time>
            </trkpt>
            <trkpt lon="101.386671" lat="14.197979">
                <ele>23.000000</ele>
                <time>1970-01-01T05:01:41Z</time>
            </trkpt>
            <trkpt lon="101.386694" lat="14.197954">
                <ele>23.000000</ele>
                <time>1970-01-01T05:02:19Z</time>
            </trkpt>
            <trkpt lon="101.386669" lat="14.197929">
                <ele>23.200000</ele>
                <time>1970-01-01T05:02:41Z</time>
            </trkpt>
            <trkpt lon="101.386636" lat="14.197920">
                <ele>23.200000</ele>
                <time>1970-01-01T05:02:43Z</time>
            </trkpt>
            <trkpt lon="101.386592" lat="14.197908">
                <ele>23.300000</ele>
                <time>1970-01-01T05:02:45Z</time>
            </trkpt>
            <trkpt lon="101.386547" lat="14.197876">
                <ele>23.200000</ele>
                <time>1970-01-01T05:02:47Z</time>
            </trkpt>
            <trkpt lon="101.386527" lat="14.197857">
                <ele>23.400000</ele>
                <time>1970-01-01T05:02:48Z</time>
            </trkpt>
            <trkpt lon="101.386503" lat="14.197838">
                <ele>23.300000</ele>
                <time>1970-01-01T05:02:51Z</time>
            </trkpt>
            <trkpt lon="101.386467" lat="14.197849">
                <ele>23.000000</ele>
                <time>1970-01-01T05:03:02Z</time>
            </trkpt>
            <trkpt lon="101.386465" lat="14.197880">
                <ele>22.800000</ele>
                <time>1970-01-01T05:03:04Z</time>
            </trkpt>
            <trkpt lon="101.386498" lat="14.197922">
                <ele>22.700000</ele>
                <time>1970-01-01T05:03:06Z</time>
            </trkpt>
            <trkpt lon="101.386513" lat="14.197947">
                <ele>22.700000</ele>
                <time>1970-01-01T05:03:07Z</time>
            </trkpt>
            <trkpt lon="101.386518" lat="14.197975">
                <ele>22.600000</ele>
                <time>1970-01-01T05:03:08Z</time>
            </trkpt>
            <trkpt lon="101.386512" lat="14.198001">
                <ele>22.000000</ele>
                <time>1970-01-01T05:03:09Z</time>
            </trkpt>
            <trkpt lon="101.386499" lat="14.198026">
                <ele>22.000000</ele>
                <time>1970-01-01T05:03:10Z</time>
            </trkpt>
            <trkpt lon="101.386481" lat="14.198047">
                <ele>21.800000</ele>
                <time>1970-01-01T05:03:11Z</time>
            </trkpt>
            <trkpt lon="101.386463" lat="14.198071">
                <ele>21.500000</ele>
                <time>1970-01-01T05:03:12Z</time>
            </trkpt>
            <trkpt lon="101.386451" lat="14.198097">
                <ele>21.400000</ele>
                <time>1970-01-01T05:03:13Z</time>
            </trkpt>
            <trkpt lon="101.386451" lat="14.198144">
                <ele>21.400000</ele>
                <time>1970-01-01T05:03:15Z</time>
            </trkpt>
            <trkpt lon="101.386463" lat="14.198168">
                <ele>21.400000</ele>
                <time>1970-01-01T05:03:16Z</time>
            </trkpt>
            <trkpt lon="101.386476" lat="14.198194">
                <ele>21.700000</ele>
                <time>1970-01-01T05:03:17Z</time>
            </trkpt>
            <trkpt lon="101.386489" lat="14.198221">
                <ele>21.700000</ele>
                <time>1970-01-01T05:03:18Z</time>
            </trkpt>
            <trkpt lon="101.386500" lat="14.198248">
                <ele>21.700000</ele>
                <time>1970-01-01T05:03:19Z</time>
            </trkpt>
            <trkpt lon="101.386508" lat="14.198274">
                <ele>21.700000</ele>
                <time>1970-01-01T05:03:20Z</time>
            </trkpt>
            <trkpt lon="101.386514" lat="14.198302">
                <ele>21.700000</ele>
                <time>1970-01-01T05:03:21Z</time>
            </trkpt>
            <trkpt lon="101.386517" lat="14.198351">
                <ele>21.400000</ele>
                <time>1970-01-01T05:03:23Z</time>
            </trkpt>
            <trkpt lon="101.386514" lat="14.198403">
                <ele>21.200000</ele>
                <time>1970-01-01T05:03:25Z</time>
            </trkpt>
            <trkpt lon="101.386502" lat="14.198452">
                <ele>21.000000</ele>
                <time>1970-01-01T05:03:27Z</time>
            </trkpt>
            <trkpt lon="101.386492" lat="14.198495">
                <ele>21.200000</ele>
                <time>1970-01-01T05:03:29Z</time>
            </trkpt>
            <trkpt lon="101.386492" lat="14.198527">
                <ele>21.200000</ele>
                <time>1970-01-01T05:03:31Z</time>
            </trkpt>
            <trkpt lon="101.386509" lat="14.198564">
                <ele>21.000000</ele>
                <time>1970-01-01T05:03:33Z</time>
            </trkpt>
            <trkpt lon="101.386567" lat="14.198577">
                <ele>20.700000</ele>
                <time>1970-01-01T05:03:35Z</time>
            </trkpt>
            <trkpt lon="101.386602" lat="14.198575">
                <ele>20.500000</ele>
                <time>1970-01-01T05:03:36Z</time>
            </trkpt>
            <trkpt lon="101.386641" lat="14.198573">
                <ele>20.300000</ele>
                <time>1970-01-01T05:03:37Z</time>
            </trkpt>
            <trkpt lon="101.386679" lat="14.198572">
                <ele>20.200000</ele>
                <time>1970-01-01T05:03:38Z</time>
            </trkpt>
            <trkpt lon="101.386729" lat="14.198570">
                <ele>20.200000</ele>
                <time>1970-01-01T05:03:39Z</time>
            </trkpt>
            <trkpt lon="101.386769" lat="14.198571">
                <ele>20.300000</ele>
                <time>1970-01-01T05:03:40Z</time>
            </trkpt>
            <trkpt lon="101.386805" lat="14.198578">
                <ele>20.500000</ele>
                <time>1970-01-01T05:03:41Z</time>
            </trkpt>
            <trkpt lon="101.386852" lat="14.198581">
                <ele>20.800000</ele>
                <time>1970-01-01T05:03:42Z</time>
            </trkpt>
            <trkpt lon="101.386896" lat="14.198570">
                <ele>21.000000</ele>
                <time>1970-01-01T05:03:43Z</time>
            </trkpt>
            <trkpt lon="101.386940" lat="14.198567">
                <ele>21.100000</ele>
                <time>1970-01-01T05:03:44Z</time>
            </trkpt>
            <trkpt lon="101.386969" lat="14.198558">
                <ele>21.100000</ele>
                <time>1970-01-01T05:03:45Z</time>
            </trkpt>
            <trkpt lon="101.387015" lat="14.198533">
                <ele>21.100000</ele>
                <time>1970-01-01T05:03:47Z</time>
            </trkpt>
            <trkpt lon="101.387031" lat="14.198505">
                <ele>21.100000</ele>
                <time>1970-01-01T05:03:48Z</time>
            </trkpt>
            <trkpt lon="101.387038" lat="14.198472">
                <ele>21.100000</ele>
                <time>1970-01-01T05:03:49Z</time>
            </trkpt>
            <trkpt lon="101.387034" lat="14.198443">
                <ele>21.100000</ele>
                <time>1970-01-01T05:03:50Z</time>
            </trkpt>
            <trkpt lon="101.387027" lat="14.198415">
                <ele>21.100000</ele>
                <time>1970-01-01T05:03:51Z</time>
            </trkpt>
            <trkpt lon="101.387020" lat="14.198384">
                <ele>21.100000</ele>
                <time>1970-01-01T05:03:52Z</time>
            </trkpt>
            <trkpt lon="101.387012" lat="14.198350">
                <ele>21.100000</ele>
                <time>1970-01-01T05:03:53Z</time>
            </trkpt>
            <trkpt lon="101.387002" lat="14.198318">
                <ele>21.100000</ele>
                <time>1970-01-01T05:03:54Z</time>
            </trkpt>
            <trkpt lon="101.386986" lat="14.198286">
                <ele>21.100000</ele>
                <time>1970-01-01T05:03:55Z</time>
            </trkpt>
            <trkpt lon="101.386956" lat="14.198251">
                <ele>21.100000</ele>
                <time>1970-01-01T05:03:56Z</time>
            </trkpt>
            <trkpt lon="101.386924" lat="14.198217">
                <ele>21.100000</ele>
                <time>1970-01-01T05:03:57Z</time>
            </trkpt>
            <trkpt lon="101.386886" lat="14.198184">
                <ele>21.100000</ele>
                <time>1970-01-01T05:03:58Z</time>
            </trkpt>
            <trkpt lon="101.386848" lat="14.198146">
                <ele>21.100000</ele>
                <time>1970-01-01T05:03:59Z</time>
            </trkpt>
            <trkpt lon="101.386804" lat="14.198118">
                <ele>21.100000</ele>
                <time>1970-01-01T05:04:00Z</time>
            </trkpt>
            <trkpt lon="101.386780" lat="14.198086">
                <ele>21.100000</ele>
                <time>1970-01-01T05:04:01Z</time>
            </trkpt>
            <trkpt lon="101.386756" lat="14.198050">
                <ele>21.100000</ele>
                <time>1970-01-01T05:04:02Z</time>
            </trkpt>
            <trkpt lon="101.386718" lat="14.198011">
                <ele>21.100000</ele>
                <time>1970-01-01T05:04:03Z</time>
            </trkpt>
            <trkpt lon="101.386671" lat="14.197967">
                <ele>21.100000</ele>
                <time>1970-01-01T05:04:04Z</time>
            </trkpt>
            <trkpt lon="101.386629" lat="14.197929">
                <ele>21.100000</ele>
                <time>1970-01-01T05:04:05Z</time>
            </trkpt>
            <trkpt lon="101.386583" lat="14.197897">
                <ele>21.100000</ele>
                <time>1970-01-01T05:04:06Z</time>
            </trkpt>
            <trkpt lon="101.386543" lat="14.197850">
                <ele>21.100000</ele>
                <time>1970-01-01T05:04:07Z</time>
            </trkpt>
            <trkpt lon="101.386498" lat="14.197817">
                <ele>21.100000</ele>
                <time>1970-01-01T05:04:08Z</time>
            </trkpt>
            <trkpt lon="101.386457" lat="14.197773">
                <ele>21.100000</ele>
                <time>1970-01-01T05:04:09Z</time>
            </trkpt>
            <trkpt lon="101.386403" lat="14.197726">
                <ele>21.100000</ele>
                <time>1970-01-01T05:04:10Z</time>
            </trkpt>
            <trkpt lon="101.386358" lat="14.197682">
                <ele>21.100000</ele>
                <time>1970-01-01T05:04:11Z</time>
            </trkpt>
            <trkpt lon="101.386316" lat="14.197642">
                <ele>21.100000</ele>
                <time>1970-01-01T05:04:12Z</time>
            </trkpt>
            <trkpt lon="101.386269" lat="14.197600">
                <ele>21.100000</ele>
                <time>1970-01-01T05:04:13Z</time>
            </trkpt>
            <trkpt lon="101.386224" lat="14.197558">
                <ele>21.100000</ele>
                <time>1970-01-01T05:04:14Z</time>
            </trkpt>
            <trkpt lon="101.386184" lat="14.197515">
                <ele>21.100000</ele>
                <time>1970-01-01T05:04:15Z</time>
            </trkpt>
            <trkpt lon="101.386136" lat="14.197473">
                <ele>21.100000</ele>
                <time>1970-01-01T05:04:16Z</time>
            </trkpt>
            <trkpt lon="101.386095" lat="14.197434">
                <ele>21.100000</ele>
                <time>1970-01-01T05:04:17Z</time>
            </trkpt>
            <trkpt lon="101.386062" lat="14.197395">
                <ele>21.100000</ele>
                <time>1970-01-01T05:04:18Z</time>
            </trkpt>
            <trkpt lon="101.386023" lat="14.197351">
                <ele>21.100000</ele>
                <time>1970-01-01T05:04:19Z</time>
            </trkpt>
            <trkpt lon="101.385980" lat="14.197311">
                <ele>21.100000</ele>
                <time>1970-01-01T05:04:20Z</time>
            </trkpt>
            <trkpt lon="101.385940" lat="14.197274">
                <ele>21.100000</ele>
                <time>1970-01-01T05:04:21Z</time>
            </trkpt>
            <trkpt lon="101.385904" lat="14.197232">
                <ele>21.100000</ele>
                <time>1970-01-01T05:04:22Z</time>
            </trkpt>
            <trkpt lon="101.385866" lat="14.197183">
                <ele>21.100000</ele>
                <time>1970-01-01T05:04:23Z</time>
            </trkpt>
            <trkpt lon="101.385827" lat="14.197155">
                <ele>21.100000</ele>
                <time>1970-01-01T05:04:24Z</time>
            </trkpt>
            <trkpt lon="101.385785" lat="14.197109">
                <ele>21.100000</ele>
                <time>1970-01-01T05:04:25Z</time>
            </trkpt>
            <trkpt lon="101.385744" lat="14.197070">
                <ele>21.100000</ele>
                <time>1970-01-01T05:04:26Z</time>
            </trkpt>
            <trkpt lon="101.385713" lat="14.197028">
                <ele>21.000000</ele>
                <time>1970-01-01T05:04:27Z</time>
            </trkpt>
            <trkpt lon="101.385677" lat="14.196994">
                <ele>21.000000</ele>
                <time>1970-01-01T05:04:28Z</time>
            </trkpt>
            <trkpt lon="101.385639" lat="14.196950">
                <ele>21.000000</ele>
                <time>1970-01-01T05:04:29Z</time>
            </trkpt>
            <trkpt lon="101.385588" lat="14.196906">
                <ele>21.000000</ele>
                <time>1970-01-01T05:04:30Z</time>
            </trkpt>
            <trkpt lon="101.385542" lat="14.196865">
                <ele>21.000000</ele>
                <time>1970-01-01T05:04:31Z</time>
            </trkpt>
            <trkpt lon="101.385497" lat="14.196826">
                <ele>21.000000</ele>
                <time>1970-01-01T05:04:32Z</time>
            </trkpt>
            <trkpt lon="101.385435" lat="14.196787">
                <ele>21.000000</ele>
                <time>1970-01-01T05:04:33Z</time>
            </trkpt>
            <trkpt lon="101.385401" lat="14.196751">
                <ele>21.000000</ele>
                <time>1970-01-01T05:04:34Z</time>
            </trkpt>
            <trkpt lon="101.385360" lat="14.196708">
                <ele>21.000000</ele>
                <time>1970-01-01T05:04:35Z</time>
            </trkpt>
            <trkpt lon="101.385330" lat="14.196673">
                <ele>21.000000</ele>
                <time>1970-01-01T05:04:36Z</time>
            </trkpt>
            <trkpt lon="101.385290" lat="14.196633">
                <ele>21.000000</ele>
                <time>1970-01-01T05:04:37Z</time>
            </trkpt>
            <trkpt lon="101.385251" lat="14.196601">
                <ele>21.000000</ele>
                <time>1970-01-01T05:04:38Z</time>
            </trkpt>
            <trkpt lon="101.385219" lat="14.196568">
                <ele>21.000000</ele>
                <time>1970-01-01T05:04:39Z</time>
            </trkpt>
            <trkpt lon="101.385186" lat="14.196530">
                <ele>21.000000</ele>
                <time>1970-01-01T05:04:40Z</time>
            </trkpt>
            <trkpt lon="101.385141" lat="14.196494">
                <ele>21.000000</ele>
                <time>1970-01-01T05:04:41Z</time>
            </trkpt>
            <trkpt lon="101.385093" lat="14.196447">
                <ele>21.000000</ele>
                <time>1970-01-01T05:04:42Z</time>
            </trkpt>
            <trkpt lon="101.385057" lat="14.196389">
                <ele>21.000000</ele>
                <time>1970-01-01T05:04:43Z</time>
            </trkpt>
            <trkpt lon="101.385015" lat="14.196351">
                <ele>21.000000</ele>
                <time>1970-01-01T05:04:44Z</time>
            </trkpt>
            <trkpt lon="101.384974" lat="14.196316">
                <ele>21.000000</ele>
                <time>1970-01-01T05:04:45Z</time>
            </trkpt>
            <trkpt lon="101.384939" lat="14.196281">
                <ele>21.000000</ele>
                <time>1970-01-01T05:04:46Z</time>
            </trkpt>
            <trkpt lon="101.384906" lat="14.196251">
                <ele>21.000000</ele>
                <time>1970-01-01T05:04:47Z</time>
            </trkpt>
            <trkpt lon="101.384877" lat="14.196210">
                <ele>21.000000</ele>
                <time>1970-01-01T05:04:48Z</time>
            </trkpt>
            <trkpt lon="101.384845" lat="14.196163">
                <ele>21.000000</ele>
                <time>1970-01-01T05:04:49Z</time>
            </trkpt>
            <trkpt lon="101.384806" lat="14.196126">
                <ele>21.100000</ele>
                <time>1970-01-01T05:04:50Z</time>
            </trkpt>
            <trkpt lon="101.384777" lat="14.196087">
                <ele>21.100000</ele>
                <time>1970-01-01T05:04:51Z</time>
            </trkpt>
            <trkpt lon="101.384734" lat="14.196056">
                <ele>21.100000</ele>
                <time>1970-01-01T05:04:52Z</time>
            </trkpt>
            <trkpt lon="101.384694" lat="14.196046">
                <ele>21.100000</ele>
                <time>1970-01-01T05:04:53Z</time>
            </trkpt>
            <trkpt lon="101.384654" lat="14.196046">
                <ele>21.100000</ele>
                <time>1970-01-01T05:04:54Z</time>
            </trkpt>
            <trkpt lon="101.384619" lat="14.196060">
                <ele>21.200000</ele>
                <time>1970-01-01T05:04:55Z</time>
            </trkpt>
            <trkpt lon="101.384578" lat="14.196077">
                <ele>21.300000</ele>
                <time>1970-01-01T05:04:56Z</time>
            </trkpt>
            <trkpt lon="101.384544" lat="14.196091">
                <ele>21.300000</ele>
                <time>1970-01-01T05:04:57Z</time>
            </trkpt>
            <trkpt lon="101.384501" lat="14.196111">
                <ele>21.400000</ele>
                <time>1970-01-01T05:04:58Z</time>
            </trkpt>
            <trkpt lon="101.384454" lat="14.196120">
                <ele>21.400000</ele>
                <time>1970-01-01T05:04:59Z</time>
            </trkpt>
            <trkpt lon="101.384406" lat="14.196121">
                <ele>21.500000</ele>
                <time>1970-01-01T05:05:00Z</time>
            </trkpt>
            <trkpt lon="101.384360" lat="14.196119">
                <ele>21.500000</ele>
                <time>1970-01-01T05:05:01Z</time>
            </trkpt>
            <trkpt lon="101.384314" lat="14.196120">
                <ele>21.600000</ele>
                <time>1970-01-01T05:05:02Z</time>
            </trkpt>
            <trkpt lon="101.384273" lat="14.196118">
                <ele>21.600000</ele>
                <time>1970-01-01T05:05:03Z</time>
            </trkpt>
            <trkpt lon="101.384232" lat="14.196113">
                <ele>21.700000</ele>
                <time>1970-01-01T05:05:04Z</time>
            </trkpt>
            <trkpt lon="101.384194" lat="14.196116">
                <ele>21.800000</ele>
                <time>1970-01-01T05:05:05Z</time>
            </trkpt>
            <trkpt lon="101.384148" lat="14.196124">
                <ele>21.900000</ele>
                <time>1970-01-01T05:05:06Z</time>
            </trkpt>
            <trkpt lon="101.384113" lat="14.196134">
                <ele>22.000000</ele>
                <time>1970-01-01T05:05:07Z</time>
            </trkpt>
            <trkpt lon="101.384090" lat="14.196157">
                <ele>22.100000</ele>
                <time>1970-01-01T05:05:08Z</time>
            </trkpt>
            <trkpt lon="101.384075" lat="14.196185">
                <ele>22.200000</ele>
                <time>1970-01-01T05:05:09Z</time>
            </trkpt>
            <trkpt lon="101.384070" lat="14.196219">
                <ele>22.300000</ele>
                <time>1970-01-01T05:05:10Z</time>
            </trkpt>
            <trkpt lon="101.384066" lat="14.196252">
                <ele>22.400000</ele>
                <time>1970-01-01T05:05:11Z</time>
            </trkpt>
            <trkpt lon="101.384064" lat="14.196283">
                <ele>22.500000</ele>
                <time>1970-01-01T05:05:12Z</time>
            </trkpt>
            <trkpt lon="101.384062" lat="14.196330">
                <ele>22.700000</ele>
                <time>1970-01-01T05:05:14Z</time>
            </trkpt>
            <trkpt lon="101.384047" lat="14.196372">
                <ele>22.800000</ele>
                <time>1970-01-01T05:05:16Z</time>
            </trkpt>
            <trkpt lon="101.384013" lat="14.196392">
                <ele>22.900000</ele>
                <time>1970-01-01T05:05:18Z</time>
            </trkpt>
            <trkpt lon="101.383983" lat="14.196384">
                <ele>23.000000</ele>
                <time>1970-01-01T05:05:20Z</time>
            </trkpt>
            <trkpt lon="101.383957" lat="14.196372">
                <ele>23.100000</ele>
                <time>1970-01-01T05:05:22Z</time>
            </trkpt>
            <trkpt lon="101.383927" lat="14.196363">
                <ele>23.200000</ele>
                <time>1970-01-01T05:05:26Z</time>
            </trkpt>
            <trkpt lon="101.383962" lat="14.196366">
                <ele>23.300000</ele>
                <time>1970-01-01T05:05:47Z</time>
            </trkpt>
            <trkpt lon="101.383993" lat="14.196375">
                <ele>23.400000</ele>
                <time>1970-01-01T05:05:50Z</time>
            </trkpt>
            <trkpt lon="101.383963" lat="14.196380">
                <ele>23.400000</ele>
                <time>1970-01-01T05:06:21Z</time>
            </trkpt>
            <trkpt lon="101.383934" lat="14.196392">
                <ele>23.500000</ele>
                <time>1970-01-01T05:06:27Z</time>
            </trkpt>
            <trkpt lon="101.383903" lat="14.196400">
                <ele>23.600000</ele>
                <time>1970-01-01T05:26:54Z</time>
            </trkpt>
            <trkpt lon="101.383874" lat="14.196412">
                <ele>23.600000</ele>
                <time>1970-01-01T05:26:56Z</time>
            </trkpt>
            <trkpt lon="101.383844" lat="14.196410">
                <ele>23.700000</ele>
                <time>1970-01-01T05:26:59Z</time>
            </trkpt>
            <trkpt lon="101.383816" lat="14.196410">
                <ele>23.700000</ele>
                <time>1970-01-01T05:27:02Z</time>
            </trkpt>
            <trkpt lon="101.383790" lat="14.196426">
                <ele>23.800000</ele>
                <time>1970-01-01T05:27:19Z</time>
            </trkpt>
        </trkseg>
    </trk>
</gpx>